<?xml version="1.0" encoding="UTF-8" standalone="no" ?>
<gpx xmlns="http://www.topografix.com/GPX/1/1" xmlns:xsi="http://www.w3.org/2001/XMLSchema-instance" xsi:schemaLocation="http://www.topografix.com/GPX/1/1 http://www.topografix.com/GPX/1/1/gpx.xsd" version="1.1" creator="VisuGPX - https://www.visugpx.com">
  <metadata>
    <name>Wallabies Tet Adriatique Juillet 2025/1</name>
    <desc><![CDATA[Les Wallabies Adriatique 2025]]></desc>
  </metadata>
  <trk>
    <name><![CDATA[4 ACT MNE_AL]]></name>
    <extensions>
      <line xmlns="http://www.topografix.com/GPX/gpx_style/0/2">
        <color>ff2600</color>
        <width>4</width>
      </line>
    </extensions>
    <trkseg>
      <trkpt lat="41.76799" lon="19.87706">
        <ele>87.620002746582</ele>
        <time>2023-09-30T14:08:43.000Z</time>
      </trkpt>
      <trkpt lat="41.76798" lon="19.87707">
        <ele>87.620002746582</ele>
        <time>2023-09-30T14:08:42.000Z</time>
      </trkpt>
      <trkpt lat="41.76792" lon="19.8771">
        <ele>87.620002746582</ele>
        <time>2023-09-30T14:08:41.000Z</time>
      </trkpt>
      <trkpt lat="41.76789" lon="19.87713">
        <ele>87.620002746582</ele>
        <time>2023-09-30T14:08:40.000Z</time>
      </trkpt>
      <trkpt lat="41.76782" lon="19.87717">
        <ele>87.620002746582</ele>
        <time>2023-09-30T14:08:39.000Z</time>
      </trkpt>
      <trkpt lat="41.76778" lon="19.8772">
        <ele>88.099998474121</ele>
        <time>2023-09-30T14:08:38.000Z</time>
      </trkpt>
      <trkpt lat="41.76775" lon="19.87723">
        <ele>88.099998474121</ele>
        <time>2023-09-30T14:08:37.000Z</time>
      </trkpt>
      <trkpt lat="41.76768" lon="19.87728">
        <ele>88.099998474121</ele>
        <time>2023-09-30T14:08:36.000Z</time>
      </trkpt>
      <trkpt lat="41.76766" lon="19.87729">
        <ele>88.099998474121</ele>
        <time>2023-09-30T14:08:35.000Z</time>
      </trkpt>
      <trkpt lat="41.76758" lon="19.87736">
        <ele>88.099998474121</ele>
        <time>2023-09-30T14:08:34.000Z</time>
      </trkpt>
      <trkpt lat="41.76755" lon="19.87739">
        <ele>88.580001831055</ele>
        <time>2023-09-30T14:08:33.000Z</time>
      </trkpt>
      <trkpt lat="41.76749" lon="19.87743">
        <ele>88.099998474121</ele>
        <time>2023-09-30T14:08:32.000Z</time>
      </trkpt>
      <trkpt lat="41.76745" lon="19.87746">
        <ele>88.099998474121</ele>
        <time>2023-09-30T14:08:31.000Z</time>
      </trkpt>
      <trkpt lat="41.76742" lon="19.87749">
        <ele>88.099998474121</ele>
        <time>2023-09-30T14:08:30.000Z</time>
      </trkpt>
      <trkpt lat="41.76738" lon="19.87752">
        <ele>87.620002746582</ele>
        <time>2023-09-30T14:08:29.000Z</time>
      </trkpt>
      <trkpt lat="41.76734" lon="19.87756">
        <ele>87.620002746582</ele>
        <time>2023-09-30T14:08:28.000Z</time>
      </trkpt>
      <trkpt lat="41.7673" lon="19.87761">
        <ele>87.620002746582</ele>
        <time>2023-09-30T14:08:27.000Z</time>
      </trkpt>
      <trkpt lat="41.76726" lon="19.87766">
        <ele>87.139999389648</ele>
        <time>2023-09-30T14:08:26.000Z</time>
      </trkpt>
      <trkpt lat="41.76723" lon="19.8777">
        <ele>87.139999389648</ele>
        <time>2023-09-30T14:08:25.000Z</time>
      </trkpt>
      <trkpt lat="41.76721" lon="19.87773">
        <ele>86.660003662109</ele>
        <time>2023-09-30T14:08:24.000Z</time>
      </trkpt>
      <trkpt lat="41.76708" lon="19.878">
        <ele>86.660003662109</ele>
        <time>2023-09-30T14:08:21.000Z</time>
      </trkpt>
      <trkpt lat="41.76707" lon="19.87802">
        <ele>86.660003662109</ele>
        <time>2023-09-30T14:08:20.000Z</time>
      </trkpt>
      <trkpt lat="41.767" lon="19.87815">
        <ele>86.660003662109</ele>
        <time>2023-09-30T14:08:19.000Z</time>
      </trkpt>
      <trkpt lat="41.76695" lon="19.87825">
        <ele>86.660003662109</ele>
        <time>2023-09-30T14:08:18.000Z</time>
      </trkpt>
      <trkpt lat="41.76692" lon="19.87832">
        <ele>86.660003662109</ele>
        <time>2023-09-30T14:08:17.000Z</time>
      </trkpt>
      <trkpt lat="41.76678" lon="19.87856">
        <ele>86.180000305176</ele>
        <time>2023-09-30T14:08:14.000Z</time>
      </trkpt>
      <trkpt lat="41.76674" lon="19.87863">
        <ele>86.180000305176</ele>
        <time>2023-09-30T14:08:13.000Z</time>
      </trkpt>
      <trkpt lat="41.76673" lon="19.87867">
        <ele>86.180000305176</ele>
        <time>2023-09-30T14:08:12.000Z</time>
      </trkpt>
      <trkpt lat="41.76662" lon="19.87891">
        <ele>85.690002441406</ele>
        <time>2023-09-30T14:08:10.000Z</time>
      </trkpt>
      <trkpt lat="41.76658" lon="19.87901">
        <ele>85.690002441406</ele>
        <time>2023-09-30T14:08:09.000Z</time>
      </trkpt>
      <trkpt lat="41.76655" lon="19.87906">
        <ele>85.690002441406</ele>
        <time>2023-09-30T14:08:08.000Z</time>
      </trkpt>
      <trkpt lat="41.7665" lon="19.87919">
        <ele>85.690002441406</ele>
        <time>2023-09-30T14:08:07.000Z</time>
      </trkpt>
      <trkpt lat="41.76642" lon="19.87935">
        <ele>85.690002441406</ele>
        <time>2023-09-30T14:08:05.000Z</time>
      </trkpt>
      <trkpt lat="41.76637" lon="19.87945">
        <ele>85.209999084473</ele>
        <time>2023-09-30T14:08:04.000Z</time>
      </trkpt>
      <trkpt lat="41.76635" lon="19.8795">
        <ele>85.209999084473</ele>
        <time>2023-09-30T14:08:03.000Z</time>
      </trkpt>
      <trkpt lat="41.76633" lon="19.87956">
        <ele>85.209999084473</ele>
        <time>2023-09-30T14:08:02.000Z</time>
      </trkpt>
      <trkpt lat="41.76629" lon="19.87964">
        <ele>85.209999084473</ele>
        <time>2023-09-30T14:08:01.000Z</time>
      </trkpt>
      <trkpt lat="41.76622" lon="19.87978">
        <ele>85.209999084473</ele>
        <time>2023-09-30T14:08:00.000Z</time>
      </trkpt>
      <trkpt lat="41.76613" lon="19.87998">
        <ele>85.209999084473</ele>
        <time>2023-09-30T14:07:58.000Z</time>
      </trkpt>
      <trkpt lat="41.76606" lon="19.88012">
        <ele>85.690002441406</ele>
        <time>2023-09-30T14:07:57.000Z</time>
      </trkpt>
      <trkpt lat="41.766" lon="19.88023">
        <ele>85.690002441406</ele>
        <time>2023-09-30T14:07:56.000Z</time>
      </trkpt>
      <trkpt lat="41.76596" lon="19.88032">
        <ele>85.690002441406</ele>
        <time>2023-09-30T14:07:55.000Z</time>
      </trkpt>
      <trkpt lat="41.7659" lon="19.88044">
        <ele>86.180000305176</ele>
        <time>2023-09-30T14:07:54.000Z</time>
      </trkpt>
      <trkpt lat="41.76584" lon="19.88055">
        <ele>86.660003662109</ele>
        <time>2023-09-30T14:07:53.000Z</time>
      </trkpt>
      <trkpt lat="41.76578" lon="19.88072">
        <ele>87.139999389648</ele>
        <time>2023-09-30T14:07:52.000Z</time>
      </trkpt>
      <trkpt lat="41.76574" lon="19.88087">
        <ele>87.620002746582</ele>
        <time>2023-09-30T14:07:51.000Z</time>
      </trkpt>
      <trkpt lat="41.76571" lon="19.88102">
        <ele>88.099998474121</ele>
        <time>2023-09-30T14:07:50.000Z</time>
      </trkpt>
      <trkpt lat="41.7657" lon="19.88111">
        <ele>88.099998474121</ele>
        <time>2023-09-30T14:07:49.000Z</time>
      </trkpt>
      <trkpt lat="41.7657" lon="19.88123">
        <ele>88.580001831055</ele>
        <time>2023-09-30T14:07:48.000Z</time>
      </trkpt>
      <trkpt lat="41.76569" lon="19.88133">
        <ele>89.059997558594</ele>
        <time>2023-09-30T14:07:47.000Z</time>
      </trkpt>
      <trkpt lat="41.76569" lon="19.88158">
        <ele>89.540000915527</ele>
        <time>2023-09-30T14:07:46.000Z</time>
      </trkpt>
      <trkpt lat="41.76568" lon="19.88172">
        <ele>90.5</ele>
        <time>2023-09-30T14:07:45.000Z</time>
      </trkpt>
      <trkpt lat="41.76565" lon="19.88183">
        <ele>90.980003356934</ele>
        <time>2023-09-30T14:07:44.000Z</time>
      </trkpt>
      <trkpt lat="41.76561" lon="19.88192">
        <ele>90.980003356934</ele>
        <time>2023-09-30T14:07:43.000Z</time>
      </trkpt>
      <trkpt lat="41.76555" lon="19.88202">
        <ele>91.459999084473</ele>
        <time>2023-09-30T14:07:42.000Z</time>
      </trkpt>
      <trkpt lat="41.76552" lon="19.88209">
        <ele>91.459999084473</ele>
        <time>2023-09-30T14:07:41.000Z</time>
      </trkpt>
      <trkpt lat="41.76546" lon="19.88225">
        <ele>91.459999084473</ele>
        <time>2023-09-30T14:07:40.000Z</time>
      </trkpt>
      <trkpt lat="41.76542" lon="19.88233">
        <ele>91.459999084473</ele>
        <time>2023-09-30T14:07:39.000Z</time>
      </trkpt>
      <trkpt lat="41.76523" lon="19.8827">
        <ele>92.419998168945</ele>
        <time>2023-09-30T14:07:37.000Z</time>
      </trkpt>
      <trkpt lat="41.76517" lon="19.88282">
        <ele>92.419998168945</ele>
        <time>2023-09-30T14:07:36.000Z</time>
      </trkpt>
      <trkpt lat="41.76513" lon="19.88289">
        <ele>92.900001525879</ele>
        <time>2023-09-30T14:07:35.000Z</time>
      </trkpt>
      <trkpt lat="41.76492" lon="19.88338">
        <ele>93.389999389648</ele>
        <time>2023-09-30T14:07:32.000Z</time>
      </trkpt>
      <trkpt lat="41.76486" lon="19.88349">
        <ele>93.389999389648</ele>
        <time>2023-09-30T14:07:31.000Z</time>
      </trkpt>
      <trkpt lat="41.76478" lon="19.8836">
        <ele>93.870002746582</ele>
        <time>2023-09-30T14:07:30.000Z</time>
      </trkpt>
      <trkpt lat="41.76471" lon="19.88368">
        <ele>93.870002746582</ele>
        <time>2023-09-30T14:07:29.000Z</time>
      </trkpt>
      <trkpt lat="41.76431" lon="19.88404">
        <ele>94.349998474121</ele>
        <time>2023-09-30T14:07:25.000Z</time>
      </trkpt>
      <trkpt lat="41.76389" lon="19.88438">
        <ele>93.870002746582</ele>
        <time>2023-09-30T14:07:22.000Z</time>
      </trkpt>
      <trkpt lat="41.76379" lon="19.8845">
        <ele>93.870002746582</ele>
        <time>2023-09-30T14:07:21.000Z</time>
      </trkpt>
      <trkpt lat="41.76373" lon="19.8846">
        <ele>93.870002746582</ele>
        <time>2023-09-30T14:07:20.000Z</time>
      </trkpt>
      <trkpt lat="41.76365" lon="19.88472">
        <ele>94.349998474121</ele>
        <time>2023-09-30T14:07:19.000Z</time>
      </trkpt>
      <trkpt lat="41.76355" lon="19.88492">
        <ele>94.830001831055</ele>
        <time>2023-09-30T14:07:18.000Z</time>
      </trkpt>
      <trkpt lat="41.76342" lon="19.88515">
        <ele>95.309997558594</ele>
        <time>2023-09-30T14:07:17.000Z</time>
      </trkpt>
      <trkpt lat="41.76334" lon="19.88532">
        <ele>95.309997558594</ele>
        <time>2023-09-30T14:07:16.000Z</time>
      </trkpt>
      <trkpt lat="41.76328" lon="19.88546">
        <ele>95.309997558594</ele>
        <time>2023-09-30T14:07:15.000Z</time>
      </trkpt>
      <trkpt lat="41.76311" lon="19.88601">
        <ele>96.269996643066</ele>
        <time>2023-09-30T14:07:12.000Z</time>
      </trkpt>
      <trkpt lat="41.76297" lon="19.88641">
        <ele>97.709999084473</ele>
        <time>2023-09-30T14:07:10.000Z</time>
      </trkpt>
      <trkpt lat="41.76285" lon="19.8868">
        <ele>98.190002441406</ele>
        <time>2023-09-30T14:07:08.000Z</time>
      </trkpt>
      <trkpt lat="41.76282" lon="19.88699">
        <ele>98.190002441406</ele>
        <time>2023-09-30T14:07:07.000Z</time>
      </trkpt>
      <trkpt lat="41.7628" lon="19.88713">
        <ele>98.190002441406</ele>
        <time>2023-09-30T14:07:06.000Z</time>
      </trkpt>
      <trkpt lat="41.7627" lon="19.8883">
        <ele>97.709999084473</ele>
        <time>2023-09-30T14:07:00.000Z</time>
      </trkpt>
      <trkpt lat="41.7626" lon="19.88932">
        <ele>96.269996643066</ele>
        <time>2023-09-30T14:06:53.000Z</time>
      </trkpt>
      <trkpt lat="41.76257" lon="19.88963">
        <ele>96.269996643066</ele>
        <time>2023-09-30T14:06:50.000Z</time>
      </trkpt>
      <trkpt lat="41.76255" lon="19.88975">
        <ele>96.269996643066</ele>
        <time>2023-09-30T14:06:49.000Z</time>
      </trkpt>
      <trkpt lat="41.76253" lon="19.88985">
        <ele>96.269996643066</ele>
        <time>2023-09-30T14:06:48.000Z</time>
      </trkpt>
      <trkpt lat="41.7625" lon="19.88993">
        <ele>96.269996643066</ele>
        <time>2023-09-30T14:06:47.000Z</time>
      </trkpt>
      <trkpt lat="41.76245" lon="19.89">
        <ele>96.269996643066</ele>
        <time>2023-09-30T14:06:46.000Z</time>
      </trkpt>
      <trkpt lat="41.76237" lon="19.89004">
        <ele>95.790000915527</ele>
        <time>2023-09-30T14:06:45.000Z</time>
      </trkpt>
      <trkpt lat="41.76232" lon="19.89006">
        <ele>95.790000915527</ele>
        <time>2023-09-30T14:06:44.000Z</time>
      </trkpt>
      <trkpt lat="41.76205" lon="19.89009">
        <ele>95.309997558594</ele>
        <time>2023-09-30T14:06:42.000Z</time>
      </trkpt>
      <trkpt lat="41.76157" lon="19.89015">
        <ele>95.309997558594</ele>
        <time>2023-09-30T14:06:37.000Z</time>
      </trkpt>
      <trkpt lat="41.76134" lon="19.89015">
        <ele>95.790000915527</ele>
        <time>2023-09-30T14:06:35.000Z</time>
      </trkpt>
      <trkpt lat="41.76125" lon="19.89014">
        <ele>95.790000915527</ele>
        <time>2023-09-30T14:06:34.000Z</time>
      </trkpt>
      <trkpt lat="41.76124" lon="19.89013">
        <ele>95.790000915527</ele>
        <time>2023-09-30T14:06:33.000Z</time>
      </trkpt>
      <trkpt lat="41.76108" lon="19.8901">
        <ele>95.790000915527</ele>
        <time>2023-09-30T14:06:32.000Z</time>
      </trkpt>
      <trkpt lat="41.76099" lon="19.89009">
        <ele>95.790000915527</ele>
        <time>2023-09-30T14:06:31.000Z</time>
      </trkpt>
      <trkpt lat="41.76092" lon="19.8901">
        <ele>95.790000915527</ele>
        <time>2023-09-30T14:06:30.000Z</time>
      </trkpt>
      <trkpt lat="41.76083" lon="19.89012">
        <ele>95.790000915527</ele>
        <time>2023-09-30T14:06:29.000Z</time>
      </trkpt>
      <trkpt lat="41.76075" lon="19.89015">
        <ele>95.790000915527</ele>
        <time>2023-09-30T14:06:28.000Z</time>
      </trkpt>
      <trkpt lat="41.76067" lon="19.89021">
        <ele>96.269996643066</ele>
        <time>2023-09-30T14:06:27.000Z</time>
      </trkpt>
      <trkpt lat="41.76062" lon="19.89024">
        <ele>96.269996643066</ele>
        <time>2023-09-30T14:06:26.000Z</time>
      </trkpt>
      <trkpt lat="41.7599" lon="19.89089">
        <ele>97.230003356934</ele>
        <time>2023-09-30T14:06:17.000Z</time>
      </trkpt>
      <trkpt lat="41.75979" lon="19.89096">
        <ele>97.230003356934</ele>
        <time>2023-09-30T14:06:16.000Z</time>
      </trkpt>
      <trkpt lat="41.75975" lon="19.89099">
        <ele>97.230003356934</ele>
        <time>2023-09-30T14:06:15.000Z</time>
      </trkpt>
      <trkpt lat="41.75955" lon="19.89106">
        <ele>97.230003356934</ele>
        <time>2023-09-30T14:06:14.000Z</time>
      </trkpt>
      <trkpt lat="41.75945" lon="19.89109">
        <ele>97.709999084473</ele>
        <time>2023-09-30T14:06:13.000Z</time>
      </trkpt>
      <trkpt lat="41.75841" lon="19.89134">
        <ele>101.08000183105</ele>
        <time>2023-09-30T14:06:06.000Z</time>
      </trkpt>
      <trkpt lat="41.75831" lon="19.89138">
        <ele>101.55999755859</ele>
        <time>2023-09-30T14:06:05.000Z</time>
      </trkpt>
      <trkpt lat="41.75823" lon="19.89146">
        <ele>102.04000091553</ele>
        <time>2023-09-30T14:06:04.000Z</time>
      </trkpt>
      <trkpt lat="41.75816" lon="19.89155">
        <ele>102.04000091553</ele>
        <time>2023-09-30T14:06:03.000Z</time>
      </trkpt>
      <trkpt lat="41.75812" lon="19.89166">
        <ele>102.51999664307</ele>
        <time>2023-09-30T14:06:02.000Z</time>
      </trkpt>
      <trkpt lat="41.75807" lon="19.89179">
        <ele>102.51999664307</ele>
        <time>2023-09-30T14:06:01.000Z</time>
      </trkpt>
      <trkpt lat="41.75805" lon="19.89191">
        <ele>102.51999664307</ele>
        <time>2023-09-30T14:06:00.000Z</time>
      </trkpt>
      <trkpt lat="41.75802" lon="19.89205">
        <ele>102.51999664307</ele>
        <time>2023-09-30T14:05:59.000Z</time>
      </trkpt>
      <trkpt lat="41.758" lon="19.89221">
        <ele>102.51999664307</ele>
        <time>2023-09-30T14:05:58.000Z</time>
      </trkpt>
      <trkpt lat="41.75799" lon="19.89233">
        <ele>102.51999664307</ele>
        <time>2023-09-30T14:05:57.000Z</time>
      </trkpt>
      <trkpt lat="41.75797" lon="19.89281">
        <ele>102.51999664307</ele>
        <time>2023-09-30T14:05:55.000Z</time>
      </trkpt>
      <trkpt lat="41.75794" lon="19.893">
        <ele>103</ele>
        <time>2023-09-30T14:05:54.000Z</time>
      </trkpt>
      <trkpt lat="41.75788" lon="19.89319">
        <ele>103.48000335693</ele>
        <time>2023-09-30T14:05:53.000Z</time>
      </trkpt>
      <trkpt lat="41.75752" lon="19.89407">
        <ele>106.36000061035</ele>
        <time>2023-09-30T14:05:48.000Z</time>
      </trkpt>
      <trkpt lat="41.75738" lon="19.89432">
        <ele>106.83999633789</ele>
        <time>2023-09-30T14:05:47.000Z</time>
      </trkpt>
      <trkpt lat="41.75729" lon="19.89445">
        <ele>107.31999969482</ele>
        <time>2023-09-30T14:05:46.000Z</time>
      </trkpt>
      <trkpt lat="41.75718" lon="19.89458">
        <ele>107.31999969482</ele>
        <time>2023-09-30T14:05:45.000Z</time>
      </trkpt>
      <trkpt lat="41.75711" lon="19.89465">
        <ele>106.83999633789</ele>
        <time>2023-09-30T14:05:44.000Z</time>
      </trkpt>
      <trkpt lat="41.75691" lon="19.89481">
        <ele>106.83999633789</ele>
        <time>2023-09-30T14:05:43.000Z</time>
      </trkpt>
      <trkpt lat="41.75679" lon="19.89494">
        <ele>106.36000061035</ele>
        <time>2023-09-30T14:05:42.000Z</time>
      </trkpt>
      <trkpt lat="41.7567" lon="19.89506">
        <ele>105.87999725342</ele>
        <time>2023-09-30T14:05:41.000Z</time>
      </trkpt>
      <trkpt lat="41.75663" lon="19.89519">
        <ele>105.40000152588</ele>
        <time>2023-09-30T14:05:40.000Z</time>
      </trkpt>
      <trkpt lat="41.75658" lon="19.89534">
        <ele>105.40000152588</ele>
        <time>2023-09-30T14:05:39.000Z</time>
      </trkpt>
      <trkpt lat="41.75655" lon="19.8955">
        <ele>105.87999725342</ele>
        <time>2023-09-30T14:05:38.000Z</time>
      </trkpt>
      <trkpt lat="41.75649" lon="19.89589">
        <ele>105.87999725342</ele>
        <time>2023-09-30T14:05:36.000Z</time>
      </trkpt>
      <trkpt lat="41.75645" lon="19.89604">
        <ele>105.87999725342</ele>
        <time>2023-09-30T14:05:35.000Z</time>
      </trkpt>
      <trkpt lat="41.75638" lon="19.89617">
        <ele>106.36000061035</ele>
        <time>2023-09-30T14:05:34.000Z</time>
      </trkpt>
      <trkpt lat="41.75629" lon="19.89628">
        <ele>106.36000061035</ele>
        <time>2023-09-30T14:05:33.000Z</time>
      </trkpt>
      <trkpt lat="41.75619" lon="19.89637">
        <ele>106.36000061035</ele>
        <time>2023-09-30T14:05:32.000Z</time>
      </trkpt>
      <trkpt lat="41.75609" lon="19.89645">
        <ele>106.36000061035</ele>
        <time>2023-09-30T14:05:31.000Z</time>
      </trkpt>
      <trkpt lat="41.75535" lon="19.89698">
        <ele>105.40000152588</ele>
        <time>2023-09-30T14:05:26.000Z</time>
      </trkpt>
      <trkpt lat="41.75526" lon="19.89708">
        <ele>105.40000152588</ele>
        <time>2023-09-30T14:05:25.000Z</time>
      </trkpt>
      <trkpt lat="41.75519" lon="19.89716">
        <ele>104.91999816895</ele>
        <time>2023-09-30T14:05:24.000Z</time>
      </trkpt>
      <trkpt lat="41.75514" lon="19.89726">
        <ele>104.91999816895</ele>
        <time>2023-09-30T14:05:23.000Z</time>
      </trkpt>
      <trkpt lat="41.7551" lon="19.89736">
        <ele>104.91999816895</ele>
        <time>2023-09-30T14:05:22.000Z</time>
      </trkpt>
      <trkpt lat="41.75507" lon="19.89751">
        <ele>104.91999816895</ele>
        <time>2023-09-30T14:05:21.000Z</time>
      </trkpt>
      <trkpt lat="41.75503" lon="19.89771">
        <ele>104.91999816895</ele>
        <time>2023-09-30T14:05:20.000Z</time>
      </trkpt>
      <trkpt lat="41.75503" lon="19.89776">
        <ele>104.91999816895</ele>
        <time>2023-09-30T14:05:19.000Z</time>
      </trkpt>
      <trkpt lat="41.75492" lon="19.8987">
        <ele>104.44000244141</ele>
        <time>2023-09-30T14:05:15.000Z</time>
      </trkpt>
      <trkpt lat="41.75466" lon="19.90099">
        <ele>107.80999755859</ele>
        <time>2023-09-30T14:05:07.000Z</time>
      </trkpt>
      <trkpt lat="41.7544" lon="19.90325">
        <ele>110.69000244141</ele>
        <time>2023-09-30T14:05:00.000Z</time>
      </trkpt>
      <trkpt lat="41.75433" lon="19.90348">
        <ele>110.69000244141</ele>
        <time>2023-09-30T14:04:59.000Z</time>
      </trkpt>
      <trkpt lat="41.7543" lon="19.90357">
        <ele>110.69000244141</ele>
        <time>2023-09-30T14:04:58.000Z</time>
      </trkpt>
      <trkpt lat="41.75402" lon="19.90428">
        <ele>110.69000244141</ele>
        <time>2023-09-30T14:04:55.000Z</time>
      </trkpt>
      <trkpt lat="41.75398" lon="19.90447">
        <ele>110.69000244141</ele>
        <time>2023-09-30T14:04:54.000Z</time>
      </trkpt>
      <trkpt lat="41.75396" lon="19.90465">
        <ele>111.16999816895</ele>
        <time>2023-09-30T14:04:53.000Z</time>
      </trkpt>
      <trkpt lat="41.75395" lon="19.90502">
        <ele>111.16999816895</ele>
        <time>2023-09-30T14:04:51.000Z</time>
      </trkpt>
      <trkpt lat="41.75393" lon="19.90553">
        <ele>111.65000152588</ele>
        <time>2023-09-30T14:04:49.000Z</time>
      </trkpt>
      <trkpt lat="41.75391" lon="19.90574">
        <ele>111.65000152588</ele>
        <time>2023-09-30T14:04:48.000Z</time>
      </trkpt>
      <trkpt lat="41.75386" lon="19.90592">
        <ele>111.65000152588</ele>
        <time>2023-09-30T14:04:47.000Z</time>
      </trkpt>
      <trkpt lat="41.75381" lon="19.90607">
        <ele>111.65000152588</ele>
        <time>2023-09-30T14:04:46.000Z</time>
      </trkpt>
      <trkpt lat="41.75374" lon="19.90623">
        <ele>111.65000152588</ele>
        <time>2023-09-30T14:04:45.000Z</time>
      </trkpt>
      <trkpt lat="41.75322" lon="19.90718">
        <ele>111.65000152588</ele>
        <time>2023-09-30T14:04:39.000Z</time>
      </trkpt>
      <trkpt lat="41.75315" lon="19.90734">
        <ele>112.12999725342</ele>
        <time>2023-09-30T14:04:38.000Z</time>
      </trkpt>
      <trkpt lat="41.75311" lon="19.90751">
        <ele>112.12999725342</ele>
        <time>2023-09-30T14:04:37.000Z</time>
      </trkpt>
      <trkpt lat="41.75309" lon="19.90766">
        <ele>112.12999725342</ele>
        <time>2023-09-30T14:04:36.000Z</time>
      </trkpt>
      <trkpt lat="41.75307" lon="19.90792">
        <ele>112.12999725342</ele>
        <time>2023-09-30T14:04:35.000Z</time>
      </trkpt>
      <trkpt lat="41.75298" lon="19.90975">
        <ele>113.56999969482</ele>
        <time>2023-09-30T14:04:27.000Z</time>
      </trkpt>
      <trkpt lat="41.75292" lon="19.91014">
        <ele>114.05000305176</ele>
        <time>2023-09-30T14:04:25.000Z</time>
      </trkpt>
      <trkpt lat="41.75264" lon="19.91129">
        <ele>115.01000213623</ele>
        <time>2023-09-30T14:04:18.000Z</time>
      </trkpt>
      <trkpt lat="41.75263" lon="19.91133">
        <ele>115.01000213623</ele>
        <time>2023-09-30T14:04:17.000Z</time>
      </trkpt>
      <trkpt lat="41.75239" lon="19.91219">
        <ele>115.98000335693</ele>
        <time>2023-09-30T14:04:11.000Z</time>
      </trkpt>
      <trkpt lat="41.75196" lon="19.91387">
        <ele>119.33999633789</ele>
        <time>2023-09-30T14:04:02.000Z</time>
      </trkpt>
      <trkpt lat="41.75193" lon="19.91404">
        <ele>119.81999969482</ele>
        <time>2023-09-30T14:04:01.000Z</time>
      </trkpt>
      <trkpt lat="41.75192" lon="19.91413">
        <ele>119.81999969482</ele>
        <time>2023-09-30T14:04:00.000Z</time>
      </trkpt>
      <trkpt lat="41.75191" lon="19.91437">
        <ele>120.30000305176</ele>
        <time>2023-09-30T14:03:59.000Z</time>
      </trkpt>
      <trkpt lat="41.75191" lon="19.91454">
        <ele>120.30000305176</ele>
        <time>2023-09-30T14:03:57.000Z</time>
      </trkpt>
      <trkpt lat="41.75189" lon="19.91582">
        <ele>121.73999786377</ele>
        <time>2023-09-30T14:03:50.000Z</time>
      </trkpt>
      <trkpt lat="41.7519" lon="19.91594">
        <ele>121.73999786377</ele>
        <time>2023-09-30T14:03:49.000Z</time>
      </trkpt>
      <trkpt lat="41.75193" lon="19.91605">
        <ele>121.73999786377</ele>
        <time>2023-09-30T14:03:48.000Z</time>
      </trkpt>
      <trkpt lat="41.75197" lon="19.91616">
        <ele>121.73999786377</ele>
        <time>2023-09-30T14:03:47.000Z</time>
      </trkpt>
      <trkpt lat="41.75198" lon="19.91618">
        <ele>121.73999786377</ele>
        <time>2023-09-30T14:03:46.000Z</time>
      </trkpt>
      <trkpt lat="41.75203" lon="19.91629">
        <ele>121.73999786377</ele>
        <time>2023-09-30T14:03:45.000Z</time>
      </trkpt>
      <trkpt lat="41.75211" lon="19.91645">
        <ele>121.73999786377</ele>
        <time>2023-09-30T14:03:44.000Z</time>
      </trkpt>
      <trkpt lat="41.75217" lon="19.91653">
        <ele>121.26000213623</ele>
        <time>2023-09-30T14:03:43.000Z</time>
      </trkpt>
      <trkpt lat="41.75224" lon="19.91662">
        <ele>121.26000213623</ele>
        <time>2023-09-30T14:03:42.000Z</time>
      </trkpt>
      <trkpt lat="41.75229" lon="19.91672">
        <ele>120.7799987793</ele>
        <time>2023-09-30T14:03:41.000Z</time>
      </trkpt>
      <trkpt lat="41.75231" lon="19.91683">
        <ele>120.7799987793</ele>
        <time>2023-09-30T14:03:40.000Z</time>
      </trkpt>
      <trkpt lat="41.75231" lon="19.91699">
        <ele>119.81999969482</ele>
        <time>2023-09-30T14:03:39.000Z</time>
      </trkpt>
      <trkpt lat="41.75228" lon="19.91716">
        <ele>119.81999969482</ele>
        <time>2023-09-30T14:03:38.000Z</time>
      </trkpt>
      <trkpt lat="41.75214" lon="19.91774">
        <ele>119.33999633789</ele>
        <time>2023-09-30T14:03:34.000Z</time>
      </trkpt>
      <trkpt lat="41.75186" lon="19.91895">
        <ele>122.2200012207</ele>
        <time>2023-09-30T14:03:29.000Z</time>
      </trkpt>
      <trkpt lat="41.75149" lon="19.92051">
        <ele>132.32000732422</ele>
        <time>2023-09-30T14:03:22.000Z</time>
      </trkpt>
      <trkpt lat="41.75143" lon="19.92068">
        <ele>133.75999450684</ele>
        <time>2023-09-30T14:03:21.000Z</time>
      </trkpt>
      <trkpt lat="41.75135" lon="19.92082">
        <ele>135.67999267578</ele>
        <time>2023-09-30T14:03:20.000Z</time>
      </trkpt>
      <trkpt lat="41.75125" lon="19.92095">
        <ele>137.61000061035</ele>
        <time>2023-09-30T14:03:19.000Z</time>
      </trkpt>
      <trkpt lat="41.75106" lon="19.92114">
        <ele>140.49000549316</ele>
        <time>2023-09-30T14:03:17.000Z</time>
      </trkpt>
      <trkpt lat="41.75094" lon="19.92127">
        <ele>142.41000366211</ele>
        <time>2023-09-30T14:03:16.000Z</time>
      </trkpt>
      <trkpt lat="41.75054" lon="19.92188">
        <ele>149.13999938965</ele>
        <time>2023-09-30T14:03:12.000Z</time>
      </trkpt>
      <trkpt lat="41.75046" lon="19.92205">
        <ele>151.05999755859</ele>
        <time>2023-09-30T14:03:11.000Z</time>
      </trkpt>
      <trkpt lat="41.7504" lon="19.92222">
        <ele>152.0299987793</ele>
        <time>2023-09-30T14:03:10.000Z</time>
      </trkpt>
      <trkpt lat="41.75036" lon="19.92234">
        <ele>153.4700012207</ele>
        <time>2023-09-30T14:03:09.000Z</time>
      </trkpt>
      <trkpt lat="41.75031" lon="19.92252">
        <ele>154.91000366211</ele>
        <time>2023-09-30T14:03:08.000Z</time>
      </trkpt>
      <trkpt lat="41.75019" lon="19.92311">
        <ele>158.75</ele>
        <time>2023-09-30T14:03:06.000Z</time>
      </trkpt>
      <trkpt lat="41.75018" lon="19.92323">
        <ele>159.7200012207</ele>
        <time>2023-09-30T14:03:05.000Z</time>
      </trkpt>
      <trkpt lat="41.75008" lon="19.92414">
        <ele>165</ele>
        <time>2023-09-30T14:03:02.000Z</time>
      </trkpt>
      <trkpt lat="41.75008" lon="19.92439">
        <ele>166.92999267578</ele>
        <time>2023-09-30T14:03:01.000Z</time>
      </trkpt>
      <trkpt lat="41.75009" lon="19.92459">
        <ele>167.88999938965</ele>
        <time>2023-09-30T14:03:00.000Z</time>
      </trkpt>
      <trkpt lat="41.75024" lon="19.92603">
        <ele>176.05999755859</ele>
        <time>2023-09-30T14:02:55.000Z</time>
      </trkpt>
      <trkpt lat="41.75028" lon="19.9263">
        <ele>177.97999572754</ele>
        <time>2023-09-30T14:02:54.000Z</time>
      </trkpt>
      <trkpt lat="41.75032" lon="19.92645">
        <ele>178.46000671387</ele>
        <time>2023-09-30T14:02:53.000Z</time>
      </trkpt>
      <trkpt lat="41.75041" lon="19.92677">
        <ele>180.86999511719</ele>
        <time>2023-09-30T14:02:52.000Z</time>
      </trkpt>
      <trkpt lat="41.75047" lon="19.92699">
        <ele>182.30999755859</ele>
        <time>2023-09-30T14:02:51.000Z</time>
      </trkpt>
      <trkpt lat="41.7505" lon="19.92718">
        <ele>183.27000427246</ele>
        <time>2023-09-30T14:02:50.000Z</time>
      </trkpt>
      <trkpt lat="41.75052" lon="19.92739">
        <ele>184.22999572754</ele>
        <time>2023-09-30T14:02:49.000Z</time>
      </trkpt>
      <trkpt lat="41.7505" lon="19.92758">
        <ele>185.66999816895</ele>
        <time>2023-09-30T14:02:48.000Z</time>
      </trkpt>
      <trkpt lat="41.75047" lon="19.92777">
        <ele>186.63000488281</ele>
        <time>2023-09-30T14:02:47.000Z</time>
      </trkpt>
      <trkpt lat="41.75041" lon="19.92795">
        <ele>187.58999633789</ele>
        <time>2023-09-30T14:02:46.000Z</time>
      </trkpt>
      <trkpt lat="41.75035" lon="19.92809">
        <ele>188.55999755859</ele>
        <time>2023-09-30T14:02:45.000Z</time>
      </trkpt>
      <trkpt lat="41.7503" lon="19.92817">
        <ele>189.52000427246</ele>
        <time>2023-09-30T14:02:44.000Z</time>
      </trkpt>
      <trkpt lat="41.75004" lon="19.92863">
        <ele>194.80000305176</ele>
        <time>2023-09-30T14:02:42.000Z</time>
      </trkpt>
      <trkpt lat="41.74994" lon="19.92876">
        <ele>196.25</ele>
        <time>2023-09-30T14:02:41.000Z</time>
      </trkpt>
      <trkpt lat="41.74983" lon="19.92886">
        <ele>198.16999816895</ele>
        <time>2023-09-30T14:02:40.000Z</time>
      </trkpt>
      <trkpt lat="41.7497" lon="19.92892">
        <ele>199.61000061035</ele>
        <time>2023-09-30T14:02:39.000Z</time>
      </trkpt>
      <trkpt lat="41.74957" lon="19.92895">
        <ele>200.57000732422</ele>
        <time>2023-09-30T14:02:38.000Z</time>
      </trkpt>
      <trkpt lat="41.74941" lon="19.92896">
        <ele>201.5299987793</ele>
        <time>2023-09-30T14:02:37.000Z</time>
      </trkpt>
      <trkpt lat="41.74935" lon="19.92895">
        <ele>202.00999450684</ele>
        <time>2023-09-30T14:02:36.000Z</time>
      </trkpt>
      <trkpt lat="41.74892" lon="19.92889">
        <ele>204.41999816895</ele>
        <time>2023-09-30T14:02:34.000Z</time>
      </trkpt>
      <trkpt lat="41.74873" lon="19.92889">
        <ele>205.38000488281</ele>
        <time>2023-09-30T14:02:33.000Z</time>
      </trkpt>
      <trkpt lat="41.74864" lon="19.9289">
        <ele>205.86000061035</ele>
        <time>2023-09-30T14:02:32.000Z</time>
      </trkpt>
      <trkpt lat="41.74838" lon="19.92897">
        <ele>205.86000061035</ele>
        <time>2023-09-30T14:02:31.000Z</time>
      </trkpt>
      <trkpt lat="41.7482" lon="19.92899">
        <ele>205.86000061035</ele>
        <time>2023-09-30T14:02:30.000Z</time>
      </trkpt>
      <trkpt lat="41.74802" lon="19.929">
        <ele>205.86000061035</ele>
        <time>2023-09-30T14:02:29.000Z</time>
      </trkpt>
      <trkpt lat="41.74785" lon="19.92898">
        <ele>205.86000061035</ele>
        <time>2023-09-30T14:02:28.000Z</time>
      </trkpt>
      <trkpt lat="41.74733" lon="19.92888">
        <ele>208.25999450684</ele>
        <time>2023-09-30T14:02:25.000Z</time>
      </trkpt>
      <trkpt lat="41.74717" lon="19.92888">
        <ele>209.2200012207</ele>
        <time>2023-09-30T14:02:24.000Z</time>
      </trkpt>
      <trkpt lat="41.74707" lon="19.9289">
        <ele>209.69999694824</ele>
        <time>2023-09-30T14:02:23.000Z</time>
      </trkpt>
      <trkpt lat="41.74652" lon="19.92909">
        <ele>211.14999389648</ele>
        <time>2023-09-30T14:02:19.000Z</time>
      </trkpt>
      <trkpt lat="41.74568" lon="19.92951">
        <ele>213.55000305176</ele>
        <time>2023-09-30T14:02:14.000Z</time>
      </trkpt>
      <trkpt lat="41.74474" lon="19.93006">
        <ele>215.4700012207</ele>
        <time>2023-09-30T14:02:08.000Z</time>
      </trkpt>
      <trkpt lat="41.74389" lon="19.93057">
        <ele>216.42999267578</ele>
        <time>2023-09-30T14:02:01.000Z</time>
      </trkpt>
      <trkpt lat="41.7438" lon="19.93063">
        <ele>216.42999267578</ele>
        <time>2023-09-30T14:02:00.000Z</time>
      </trkpt>
      <trkpt lat="41.74372" lon="19.93068">
        <ele>216.42999267578</ele>
        <time>2023-09-30T14:01:59.000Z</time>
      </trkpt>
      <trkpt lat="41.7431" lon="19.9311">
        <ele>216.91000366211</ele>
        <time>2023-09-30T14:01:54.000Z</time>
      </trkpt>
      <trkpt lat="41.743" lon="19.93119">
        <ele>216.91000366211</ele>
        <time>2023-09-30T14:01:53.000Z</time>
      </trkpt>
      <trkpt lat="41.74293" lon="19.93128">
        <ele>216.91000366211</ele>
        <time>2023-09-30T14:01:52.000Z</time>
      </trkpt>
      <trkpt lat="41.7429" lon="19.93138">
        <ele>216.91000366211</ele>
        <time>2023-09-30T14:01:51.000Z</time>
      </trkpt>
      <trkpt lat="41.74282" lon="19.93171">
        <ele>215.94999694824</ele>
        <time>2023-09-30T14:01:49.000Z</time>
      </trkpt>
      <trkpt lat="41.74278" lon="19.93191">
        <ele>215.4700012207</ele>
        <time>2023-09-30T14:01:48.000Z</time>
      </trkpt>
      <trkpt lat="41.74277" lon="19.93211">
        <ele>214.99000549316</ele>
        <time>2023-09-30T14:01:47.000Z</time>
      </trkpt>
      <trkpt lat="41.74277" lon="19.9323">
        <ele>214.99000549316</ele>
        <time>2023-09-30T14:01:46.000Z</time>
      </trkpt>
      <trkpt lat="41.7428" lon="19.93263">
        <ele>214.50999450684</ele>
        <time>2023-09-30T14:01:44.000Z</time>
      </trkpt>
      <trkpt lat="41.74283" lon="19.93291">
        <ele>214.50999450684</ele>
        <time>2023-09-30T14:01:43.000Z</time>
      </trkpt>
      <trkpt lat="41.74284" lon="19.93309">
        <ele>214.99000549316</ele>
        <time>2023-09-30T14:01:42.000Z</time>
      </trkpt>
      <trkpt lat="41.74284" lon="19.93329">
        <ele>215.4700012207</ele>
        <time>2023-09-30T14:01:41.000Z</time>
      </trkpt>
      <trkpt lat="41.74282" lon="19.93369">
        <ele>216.42999267578</ele>
        <time>2023-09-30T14:01:39.000Z</time>
      </trkpt>
      <trkpt lat="41.74282" lon="19.93387">
        <ele>216.91000366211</ele>
        <time>2023-09-30T14:01:38.000Z</time>
      </trkpt>
      <trkpt lat="41.74284" lon="19.93404">
        <ele>217.88000488281</ele>
        <time>2023-09-30T14:01:37.000Z</time>
      </trkpt>
      <trkpt lat="41.74287" lon="19.93419">
        <ele>218.36000061035</ele>
        <time>2023-09-30T14:01:36.000Z</time>
      </trkpt>
      <trkpt lat="41.74292" lon="19.93434">
        <ele>219.32000732422</ele>
        <time>2023-09-30T14:01:35.000Z</time>
      </trkpt>
      <trkpt lat="41.74297" lon="19.93448">
        <ele>219.80000305176</ele>
        <time>2023-09-30T14:01:34.000Z</time>
      </trkpt>
      <trkpt lat="41.74298" lon="19.93451">
        <ele>219.80000305176</ele>
        <time>2023-09-30T14:01:33.000Z</time>
      </trkpt>
      <trkpt lat="41.74309" lon="19.93476">
        <ele>221.24000549316</ele>
        <time>2023-09-30T14:01:32.000Z</time>
      </trkpt>
      <trkpt lat="41.74315" lon="19.93492">
        <ele>221.7200012207</ele>
        <time>2023-09-30T14:01:31.000Z</time>
      </trkpt>
      <trkpt lat="41.7432" lon="19.93508">
        <ele>222.67999267578</ele>
        <time>2023-09-30T14:01:30.000Z</time>
      </trkpt>
      <trkpt lat="41.74322" lon="19.93522">
        <ele>223.16000366211</ele>
        <time>2023-09-30T14:01:29.000Z</time>
      </trkpt>
      <trkpt lat="41.74322" lon="19.93536">
        <ele>223.63999938965</ele>
        <time>2023-09-30T14:01:28.000Z</time>
      </trkpt>
      <trkpt lat="41.74321" lon="19.93551">
        <ele>224.61000061035</ele>
        <time>2023-09-30T14:01:27.000Z</time>
      </trkpt>
      <trkpt lat="41.74316" lon="19.93577">
        <ele>225.57000732422</ele>
        <time>2023-09-30T14:01:25.000Z</time>
      </trkpt>
      <trkpt lat="41.74314" lon="19.93593">
        <ele>226.05000305176</ele>
        <time>2023-09-30T14:01:24.000Z</time>
      </trkpt>
      <trkpt lat="41.74314" lon="19.93607">
        <ele>227.00999450684</ele>
        <time>2023-09-30T14:01:23.000Z</time>
      </trkpt>
      <trkpt lat="41.74314" lon="19.93623">
        <ele>227.49000549316</ele>
        <time>2023-09-30T14:01:22.000Z</time>
      </trkpt>
      <trkpt lat="41.74315" lon="19.93636">
        <ele>227.9700012207</ele>
        <time>2023-09-30T14:01:21.000Z</time>
      </trkpt>
      <trkpt lat="41.74318" lon="19.93657">
        <ele>228.92999267578</ele>
        <time>2023-09-30T14:01:20.000Z</time>
      </trkpt>
      <trkpt lat="41.74319" lon="19.93672">
        <ele>229.88999938965</ele>
        <time>2023-09-30T14:01:19.000Z</time>
      </trkpt>
      <trkpt lat="41.74319" lon="19.93684">
        <ele>230.36999511719</ele>
        <time>2023-09-30T14:01:18.000Z</time>
      </trkpt>
      <trkpt lat="41.74317" lon="19.93696">
        <ele>230.85000610352</ele>
        <time>2023-09-30T14:01:17.000Z</time>
      </trkpt>
      <trkpt lat="41.74313" lon="19.93706">
        <ele>231.33000183105</ele>
        <time>2023-09-30T14:01:16.000Z</time>
      </trkpt>
      <trkpt lat="41.7431" lon="19.93713">
        <ele>232.30000305176</ele>
        <time>2023-09-30T14:01:15.000Z</time>
      </trkpt>
      <trkpt lat="41.74301" lon="19.93729">
        <ele>233.25999450684</ele>
        <time>2023-09-30T14:01:14.000Z</time>
      </trkpt>
      <trkpt lat="41.74295" lon="19.93741">
        <ele>233.74000549316</ele>
        <time>2023-09-30T14:01:13.000Z</time>
      </trkpt>
      <trkpt lat="41.74292" lon="19.93753">
        <ele>233.74000549316</ele>
        <time>2023-09-30T14:01:12.000Z</time>
      </trkpt>
      <trkpt lat="41.74291" lon="19.93765">
        <ele>234.2200012207</ele>
        <time>2023-09-30T14:01:11.000Z</time>
      </trkpt>
      <trkpt lat="41.74291" lon="19.93773">
        <ele>234.69999694824</ele>
        <time>2023-09-30T14:01:10.000Z</time>
      </trkpt>
      <trkpt lat="41.74295" lon="19.93795">
        <ele>235.17999267578</ele>
        <time>2023-09-30T14:01:09.000Z</time>
      </trkpt>
      <trkpt lat="41.74297" lon="19.93806">
        <ele>235.66000366211</ele>
        <time>2023-09-30T14:01:08.000Z</time>
      </trkpt>
      <trkpt lat="41.74307" lon="19.93845">
        <ele>237.10000610352</ele>
        <time>2023-09-30T14:01:06.000Z</time>
      </trkpt>
      <trkpt lat="41.74313" lon="19.93862">
        <ele>237.58000183105</ele>
        <time>2023-09-30T14:01:05.000Z</time>
      </trkpt>
      <trkpt lat="41.74319" lon="19.93873">
        <ele>237.58000183105</ele>
        <time>2023-09-30T14:01:04.000Z</time>
      </trkpt>
      <trkpt lat="41.74323" lon="19.9388">
        <ele>237.58000183105</ele>
        <time>2023-09-30T14:01:03.000Z</time>
      </trkpt>
      <trkpt lat="41.74337" lon="19.939">
        <ele>237.58000183105</ele>
        <time>2023-09-30T14:01:01.000Z</time>
      </trkpt>
      <trkpt lat="41.74341" lon="19.93906">
        <ele>238.05999755859</ele>
        <time>2023-09-30T14:01:00.000Z</time>
      </trkpt>
      <trkpt lat="41.74359" lon="19.93926">
        <ele>239.99000549316</ele>
        <time>2023-09-30T14:00:58.000Z</time>
      </trkpt>
      <trkpt lat="41.74367" lon="19.93932">
        <ele>240.94999694824</ele>
        <time>2023-09-30T14:00:57.000Z</time>
      </trkpt>
      <trkpt lat="41.74376" lon="19.93937">
        <ele>241.42999267578</ele>
        <time>2023-09-30T14:00:56.000Z</time>
      </trkpt>
      <trkpt lat="41.74385" lon="19.93942">
        <ele>242.38999938965</ele>
        <time>2023-09-30T14:00:55.000Z</time>
      </trkpt>
      <trkpt lat="41.74392" lon="19.93951">
        <ele>243.83000183105</ele>
        <time>2023-09-30T14:00:54.000Z</time>
      </trkpt>
      <trkpt lat="41.74399" lon="19.93961">
        <ele>244.30999755859</ele>
        <time>2023-09-30T14:00:53.000Z</time>
      </trkpt>
      <trkpt lat="41.74403" lon="19.93975">
        <ele>245.27000427246</ele>
        <time>2023-09-30T14:00:52.000Z</time>
      </trkpt>
      <trkpt lat="41.74406" lon="19.93992">
        <ele>245.75</ele>
        <time>2023-09-30T14:00:51.000Z</time>
      </trkpt>
      <trkpt lat="41.74409" lon="19.94068">
        <ele>246.22999572754</ele>
        <time>2023-09-30T14:00:47.000Z</time>
      </trkpt>
      <trkpt lat="41.7441" lon="19.94082">
        <ele>246.22999572754</ele>
        <time>2023-09-30T14:00:46.000Z</time>
      </trkpt>
      <trkpt lat="41.74411" lon="19.94094">
        <ele>246.22999572754</ele>
        <time>2023-09-30T14:00:45.000Z</time>
      </trkpt>
      <trkpt lat="41.74414" lon="19.94115">
        <ele>246.22999572754</ele>
        <time>2023-09-30T14:00:44.000Z</time>
      </trkpt>
      <trkpt lat="41.74417" lon="19.94129">
        <ele>246.7200012207</ele>
        <time>2023-09-30T14:00:43.000Z</time>
      </trkpt>
      <trkpt lat="41.74423" lon="19.94156">
        <ele>247.19999694824</ele>
        <time>2023-09-30T14:00:42.000Z</time>
      </trkpt>
      <trkpt lat="41.74427" lon="19.9417">
        <ele>247.67999267578</ele>
        <time>2023-09-30T14:00:41.000Z</time>
      </trkpt>
      <trkpt lat="41.74431" lon="19.94181">
        <ele>248.16000366211</ele>
        <time>2023-09-30T14:00:40.000Z</time>
      </trkpt>
      <trkpt lat="41.74485" lon="19.94316">
        <ele>249.60000610352</ele>
        <time>2023-09-30T14:00:32.000Z</time>
      </trkpt>
      <trkpt lat="41.745" lon="19.94357">
        <ele>250.55999755859</ele>
        <time>2023-09-30T14:00:30.000Z</time>
      </trkpt>
      <trkpt lat="41.74504" lon="19.94367">
        <ele>250.55999755859</ele>
        <time>2023-09-30T14:00:29.000Z</time>
      </trkpt>
      <trkpt lat="41.74526" lon="19.94431">
        <ele>252.47999572754</ele>
        <time>2023-09-30T14:00:26.000Z</time>
      </trkpt>
      <trkpt lat="41.7456" lon="19.94513">
        <ele>255.36999511719</ele>
        <time>2023-09-30T14:00:21.000Z</time>
      </trkpt>
      <trkpt lat="41.74567" lon="19.94529">
        <ele>256.32998657227</ele>
        <time>2023-09-30T14:00:20.000Z</time>
      </trkpt>
      <trkpt lat="41.74574" lon="19.94543">
        <ele>256.80999755859</ele>
        <time>2023-09-30T14:00:19.000Z</time>
      </trkpt>
      <trkpt lat="41.74581" lon="19.94558">
        <ele>257.29000854492</ele>
        <time>2023-09-30T14:00:18.000Z</time>
      </trkpt>
      <trkpt lat="41.74584" lon="19.94571">
        <ele>258.25</ele>
        <time>2023-09-30T14:00:17.000Z</time>
      </trkpt>
      <trkpt lat="41.74586" lon="19.94584">
        <ele>259.20999145508</ele>
        <time>2023-09-30T14:00:16.000Z</time>
      </trkpt>
      <trkpt lat="41.74586" lon="19.94598">
        <ele>259.69000244141</ele>
        <time>2023-09-30T14:00:15.000Z</time>
      </trkpt>
      <trkpt lat="41.74585" lon="19.94611">
        <ele>260.17001342773</ele>
        <time>2023-09-30T14:00:14.000Z</time>
      </trkpt>
      <trkpt lat="41.74583" lon="19.94624">
        <ele>261.14001464844</ele>
        <time>2023-09-30T14:00:13.000Z</time>
      </trkpt>
      <trkpt lat="41.74581" lon="19.94642">
        <ele>262.10000610352</ele>
        <time>2023-09-30T14:00:12.000Z</time>
      </trkpt>
      <trkpt lat="41.74573" lon="19.94712">
        <ele>263.05999755859</ele>
        <time>2023-09-30T14:00:08.000Z</time>
      </trkpt>
      <trkpt lat="41.74573" lon="19.94722">
        <ele>263.05999755859</ele>
        <time>2023-09-30T14:00:07.000Z</time>
      </trkpt>
      <trkpt lat="41.74572" lon="19.94738">
        <ele>263.05999755859</ele>
        <time>2023-09-30T14:00:06.000Z</time>
      </trkpt>
      <trkpt lat="41.74574" lon="19.94793">
        <ele>261.61999511719</ele>
        <time>2023-09-30T14:00:02.000Z</time>
      </trkpt>
      <trkpt lat="41.74574" lon="19.94805">
        <ele>261.61999511719</ele>
        <time>2023-09-30T14:00:01.000Z</time>
      </trkpt>
      <trkpt lat="41.74573" lon="19.94813">
        <ele>261.61999511719</ele>
        <time>2023-09-30T14:00:00.000Z</time>
      </trkpt>
      <trkpt lat="41.74573" lon="19.94826">
        <ele>261.14001464844</ele>
        <time>2023-09-30T13:59:59.000Z</time>
      </trkpt>
      <trkpt lat="41.74574" lon="19.94857">
        <ele>260.64999389648</ele>
        <time>2023-09-30T13:59:56.000Z</time>
      </trkpt>
      <trkpt lat="41.74575" lon="19.9487">
        <ele>260.64999389648</ele>
        <time>2023-09-30T13:59:55.000Z</time>
      </trkpt>
      <trkpt lat="41.74576" lon="19.94881">
        <ele>260.17001342773</ele>
        <time>2023-09-30T13:59:54.000Z</time>
      </trkpt>
      <trkpt lat="41.74578" lon="19.94893">
        <ele>260.17001342773</ele>
        <time>2023-09-30T13:59:53.000Z</time>
      </trkpt>
      <trkpt lat="41.74579" lon="19.94897">
        <ele>260.17001342773</ele>
        <time>2023-09-30T13:59:52.000Z</time>
      </trkpt>
      <trkpt lat="41.74586" lon="19.9492">
        <ele>259.69000244141</ele>
        <time>2023-09-30T13:59:51.000Z</time>
      </trkpt>
      <trkpt lat="41.74591" lon="19.94933">
        <ele>259.20999145508</ele>
        <time>2023-09-30T13:59:50.000Z</time>
      </trkpt>
      <trkpt lat="41.74595" lon="19.9494">
        <ele>259.20999145508</ele>
        <time>2023-09-30T13:59:49.000Z</time>
      </trkpt>
      <trkpt lat="41.74601" lon="19.9495">
        <ele>259.20999145508</ele>
        <time>2023-09-30T13:59:48.000Z</time>
      </trkpt>
      <trkpt lat="41.74617" lon="19.94975">
        <ele>258.25</ele>
        <time>2023-09-30T13:59:46.000Z</time>
      </trkpt>
      <trkpt lat="41.74637" lon="19.95005">
        <ele>257.29000854492</ele>
        <time>2023-09-30T13:59:43.000Z</time>
      </trkpt>
      <trkpt lat="41.74642" lon="19.95015">
        <ele>256.80999755859</ele>
        <time>2023-09-30T13:59:42.000Z</time>
      </trkpt>
      <trkpt lat="41.74655" lon="19.95039">
        <ele>256.32998657227</ele>
        <time>2023-09-30T13:59:40.000Z</time>
      </trkpt>
      <trkpt lat="41.7466" lon="19.95052">
        <ele>255.85000610352</ele>
        <time>2023-09-30T13:59:39.000Z</time>
      </trkpt>
      <trkpt lat="41.74664" lon="19.95068">
        <ele>255.85000610352</ele>
        <time>2023-09-30T13:59:38.000Z</time>
      </trkpt>
      <trkpt lat="41.74665" lon="19.95071">
        <ele>255.85000610352</ele>
        <time>2023-09-30T13:59:37.000Z</time>
      </trkpt>
      <trkpt lat="41.74669" lon="19.95091">
        <ele>255.36999511719</ele>
        <time>2023-09-30T13:59:36.000Z</time>
      </trkpt>
      <trkpt lat="41.74672" lon="19.9512">
        <ele>255.36999511719</ele>
        <time>2023-09-30T13:59:35.000Z</time>
      </trkpt>
      <trkpt lat="41.74675" lon="19.95136">
        <ele>254.88999938965</ele>
        <time>2023-09-30T13:59:34.000Z</time>
      </trkpt>
      <trkpt lat="41.74681" lon="19.95149">
        <ele>254.41000366211</ele>
        <time>2023-09-30T13:59:33.000Z</time>
      </trkpt>
      <trkpt lat="41.74686" lon="19.95157">
        <ele>253.92999267578</ele>
        <time>2023-09-30T13:59:32.000Z</time>
      </trkpt>
      <trkpt lat="41.74697" lon="19.95168">
        <ele>253.92999267578</ele>
        <time>2023-09-30T13:59:31.000Z</time>
      </trkpt>
      <trkpt lat="41.74738" lon="19.95208">
        <ele>252.96000671387</ele>
        <time>2023-09-30T13:59:26.000Z</time>
      </trkpt>
      <trkpt lat="41.74747" lon="19.95215">
        <ele>252.47999572754</ele>
        <time>2023-09-30T13:59:25.000Z</time>
      </trkpt>
      <trkpt lat="41.74754" lon="19.9522">
        <ele>252</ele>
        <time>2023-09-30T13:59:24.000Z</time>
      </trkpt>
      <trkpt lat="41.74759" lon="19.95226">
        <ele>252</ele>
        <time>2023-09-30T13:59:23.000Z</time>
      </trkpt>
      <trkpt lat="41.74765" lon="19.95234">
        <ele>251.52000427246</ele>
        <time>2023-09-30T13:59:22.000Z</time>
      </trkpt>
      <trkpt lat="41.74772" lon="19.95246">
        <ele>251.52000427246</ele>
        <time>2023-09-30T13:59:21.000Z</time>
      </trkpt>
      <trkpt lat="41.74776" lon="19.95258">
        <ele>250.55999755859</ele>
        <time>2023-09-30T13:59:20.000Z</time>
      </trkpt>
      <trkpt lat="41.74779" lon="19.9527">
        <ele>250.55999755859</ele>
        <time>2023-09-30T13:59:19.000Z</time>
      </trkpt>
      <trkpt lat="41.7478" lon="19.95283">
        <ele>250.08000183105</ele>
        <time>2023-09-30T13:59:18.000Z</time>
      </trkpt>
      <trkpt lat="41.7478" lon="19.953">
        <ele>249.11999511719</ele>
        <time>2023-09-30T13:59:17.000Z</time>
      </trkpt>
      <trkpt lat="41.74781" lon="19.95314">
        <ele>248.63999938965</ele>
        <time>2023-09-30T13:59:16.000Z</time>
      </trkpt>
      <trkpt lat="41.74783" lon="19.95332">
        <ele>248.16000366211</ele>
        <time>2023-09-30T13:59:15.000Z</time>
      </trkpt>
      <trkpt lat="41.74783" lon="19.95347">
        <ele>247.67999267578</ele>
        <time>2023-09-30T13:59:14.000Z</time>
      </trkpt>
      <trkpt lat="41.74783" lon="19.95366">
        <ele>247.19999694824</ele>
        <time>2023-09-30T13:59:13.000Z</time>
      </trkpt>
      <trkpt lat="41.74783" lon="19.95379">
        <ele>246.7200012207</ele>
        <time>2023-09-30T13:59:12.000Z</time>
      </trkpt>
      <trkpt lat="41.74784" lon="19.95398">
        <ele>246.7200012207</ele>
        <time>2023-09-30T13:59:11.000Z</time>
      </trkpt>
      <trkpt lat="41.74786" lon="19.95414">
        <ele>247.19999694824</ele>
        <time>2023-09-30T13:59:10.000Z</time>
      </trkpt>
      <trkpt lat="41.74788" lon="19.95437">
        <ele>247.19999694824</ele>
        <time>2023-09-30T13:59:09.000Z</time>
      </trkpt>
      <trkpt lat="41.74792" lon="19.95456">
        <ele>247.19999694824</ele>
        <time>2023-09-30T13:59:08.000Z</time>
      </trkpt>
      <trkpt lat="41.74798" lon="19.95473">
        <ele>248.16000366211</ele>
        <time>2023-09-30T13:59:07.000Z</time>
      </trkpt>
      <trkpt lat="41.74805" lon="19.95488">
        <ele>248.16000366211</ele>
        <time>2023-09-30T13:59:06.000Z</time>
      </trkpt>
      <trkpt lat="41.74815" lon="19.95504">
        <ele>248.63999938965</ele>
        <time>2023-09-30T13:59:05.000Z</time>
      </trkpt>
      <trkpt lat="41.74823" lon="19.95513">
        <ele>248.63999938965</ele>
        <time>2023-09-30T13:59:04.000Z</time>
      </trkpt>
      <trkpt lat="41.74835" lon="19.95526">
        <ele>249.11999511719</ele>
        <time>2023-09-30T13:59:03.000Z</time>
      </trkpt>
      <trkpt lat="41.74893" lon="19.95576">
        <ele>249.60000610352</ele>
        <time>2023-09-30T13:58:59.000Z</time>
      </trkpt>
      <trkpt lat="41.74906" lon="19.95589">
        <ele>249.60000610352</ele>
        <time>2023-09-30T13:58:58.000Z</time>
      </trkpt>
      <trkpt lat="41.74911" lon="19.95596">
        <ele>249.11999511719</ele>
        <time>2023-09-30T13:58:57.000Z</time>
      </trkpt>
      <trkpt lat="41.74934" lon="19.95629">
        <ele>249.11999511719</ele>
        <time>2023-09-30T13:58:55.000Z</time>
      </trkpt>
      <trkpt lat="41.74941" lon="19.95639">
        <ele>249.11999511719</ele>
        <time>2023-09-30T13:58:54.000Z</time>
      </trkpt>
      <trkpt lat="41.7495" lon="19.95655">
        <ele>250.08000183105</ele>
        <time>2023-09-30T13:58:53.000Z</time>
      </trkpt>
      <trkpt lat="41.74957" lon="19.95669">
        <ele>251.03999328613</ele>
        <time>2023-09-30T13:58:52.000Z</time>
      </trkpt>
      <trkpt lat="41.74962" lon="19.95682">
        <ele>251.52000427246</ele>
        <time>2023-09-30T13:58:51.000Z</time>
      </trkpt>
      <trkpt lat="41.74964" lon="19.95696">
        <ele>252.47999572754</ele>
        <time>2023-09-30T13:58:50.000Z</time>
      </trkpt>
      <trkpt lat="41.74965" lon="19.95709">
        <ele>252.96000671387</ele>
        <time>2023-09-30T13:58:49.000Z</time>
      </trkpt>
      <trkpt lat="41.74965" lon="19.95719">
        <ele>253.44000244141</ele>
        <time>2023-09-30T13:58:48.000Z</time>
      </trkpt>
      <trkpt lat="41.74963" lon="19.95744">
        <ele>253.92999267578</ele>
        <time>2023-09-30T13:58:46.000Z</time>
      </trkpt>
      <trkpt lat="41.74963" lon="19.95769">
        <ele>254.41000366211</ele>
        <time>2023-09-30T13:58:45.000Z</time>
      </trkpt>
      <trkpt lat="41.74962" lon="19.95786">
        <ele>254.41000366211</ele>
        <time>2023-09-30T13:58:44.000Z</time>
      </trkpt>
      <trkpt lat="41.74961" lon="19.958">
        <ele>255.36999511719</ele>
        <time>2023-09-30T13:58:43.000Z</time>
      </trkpt>
      <trkpt lat="41.74959" lon="19.95811">
        <ele>255.85000610352</ele>
        <time>2023-09-30T13:58:42.000Z</time>
      </trkpt>
      <trkpt lat="41.74956" lon="19.95822">
        <ele>256.32998657227</ele>
        <time>2023-09-30T13:58:41.000Z</time>
      </trkpt>
      <trkpt lat="41.7495" lon="19.95831">
        <ele>256.80999755859</ele>
        <time>2023-09-30T13:58:40.000Z</time>
      </trkpt>
      <trkpt lat="41.74947" lon="19.95834">
        <ele>257.29000854492</ele>
        <time>2023-09-30T13:58:39.000Z</time>
      </trkpt>
      <trkpt lat="41.74933" lon="19.9585">
        <ele>258.73001098633</ele>
        <time>2023-09-30T13:58:38.000Z</time>
      </trkpt>
      <trkpt lat="41.74924" lon="19.9586">
        <ele>258.73001098633</ele>
        <time>2023-09-30T13:58:37.000Z</time>
      </trkpt>
      <trkpt lat="41.74918" lon="19.9587">
        <ele>259.20999145508</ele>
        <time>2023-09-30T13:58:36.000Z</time>
      </trkpt>
      <trkpt lat="41.74915" lon="19.95882">
        <ele>260.17001342773</ele>
        <time>2023-09-30T13:58:35.000Z</time>
      </trkpt>
      <trkpt lat="41.74915" lon="19.95895">
        <ele>260.64999389648</ele>
        <time>2023-09-30T13:58:34.000Z</time>
      </trkpt>
      <trkpt lat="41.74915" lon="19.95904">
        <ele>261.14001464844</ele>
        <time>2023-09-30T13:58:33.000Z</time>
      </trkpt>
      <trkpt lat="41.74917" lon="19.95926">
        <ele>261.61999511719</ele>
        <time>2023-09-30T13:58:32.000Z</time>
      </trkpt>
      <trkpt lat="41.74918" lon="19.9594">
        <ele>262.10000610352</ele>
        <time>2023-09-30T13:58:31.000Z</time>
      </trkpt>
      <trkpt lat="41.74918" lon="19.95948">
        <ele>262.57998657227</ele>
        <time>2023-09-30T13:58:30.000Z</time>
      </trkpt>
      <trkpt lat="41.74916" lon="19.95956">
        <ele>263.54000854492</ele>
        <time>2023-09-30T13:58:29.000Z</time>
      </trkpt>
      <trkpt lat="41.74913" lon="19.9596">
        <ele>263.54000854492</ele>
        <time>2023-09-30T13:58:28.000Z</time>
      </trkpt>
      <trkpt lat="41.7491" lon="19.95965">
        <ele>264.01998901367</ele>
        <time>2023-09-30T13:58:27.000Z</time>
      </trkpt>
      <trkpt lat="41.74899" lon="19.95976">
        <ele>265.45999145508</ele>
        <time>2023-09-30T13:58:22.000Z</time>
      </trkpt>
      <trkpt lat="41.74893" lon="19.95983">
        <ele>265.94000244141</ele>
        <time>2023-09-30T13:58:21.000Z</time>
      </trkpt>
      <trkpt lat="41.74886" lon="19.95992">
        <ele>266.42001342773</ele>
        <time>2023-09-30T13:58:20.000Z</time>
      </trkpt>
      <trkpt lat="41.7488" lon="19.96003">
        <ele>266.89999389648</ele>
        <time>2023-09-30T13:58:19.000Z</time>
      </trkpt>
      <trkpt lat="41.74876" lon="19.96014">
        <ele>267.38000488281</ele>
        <time>2023-09-30T13:58:18.000Z</time>
      </trkpt>
      <trkpt lat="41.74872" lon="19.96027">
        <ele>267.85998535156</ele>
        <time>2023-09-30T13:58:17.000Z</time>
      </trkpt>
      <trkpt lat="41.74869" lon="19.96043">
        <ele>268.35000610352</ele>
        <time>2023-09-30T13:58:16.000Z</time>
      </trkpt>
      <trkpt lat="41.74868" lon="19.96059">
        <ele>268.82998657227</ele>
        <time>2023-09-30T13:58:15.000Z</time>
      </trkpt>
      <trkpt lat="41.7487" lon="19.96075">
        <ele>269.30999755859</ele>
        <time>2023-09-30T13:58:14.000Z</time>
      </trkpt>
      <trkpt lat="41.74873" lon="19.96086">
        <ele>270.26998901367</ele>
        <time>2023-09-30T13:58:13.000Z</time>
      </trkpt>
      <trkpt lat="41.74876" lon="19.96096">
        <ele>270.75</ele>
        <time>2023-09-30T13:58:12.000Z</time>
      </trkpt>
      <trkpt lat="41.74883" lon="19.96114">
        <ele>271.70999145508</ele>
        <time>2023-09-30T13:58:11.000Z</time>
      </trkpt>
      <trkpt lat="41.74888" lon="19.9613">
        <ele>272.19000244141</ele>
        <time>2023-09-30T13:58:10.000Z</time>
      </trkpt>
      <trkpt lat="41.74891" lon="19.96141">
        <ele>272.67001342773</ele>
        <time>2023-09-30T13:58:09.000Z</time>
      </trkpt>
      <trkpt lat="41.74891" lon="19.96152">
        <ele>273.63000488281</ele>
        <time>2023-09-30T13:58:08.000Z</time>
      </trkpt>
      <trkpt lat="41.7489" lon="19.9616">
        <ele>274.10998535156</ele>
        <time>2023-09-30T13:58:07.000Z</time>
      </trkpt>
      <trkpt lat="41.74883" lon="19.9619">
        <ele>275.55999755859</ele>
        <time>2023-09-30T13:58:05.000Z</time>
      </trkpt>
      <trkpt lat="41.74881" lon="19.96204">
        <ele>276.04000854492</ele>
        <time>2023-09-30T13:58:04.000Z</time>
      </trkpt>
      <trkpt lat="41.74881" lon="19.96218">
        <ele>276.51998901367</ele>
        <time>2023-09-30T13:58:03.000Z</time>
      </trkpt>
      <trkpt lat="41.74882" lon="19.96232">
        <ele>277</ele>
        <time>2023-09-30T13:58:02.000Z</time>
      </trkpt>
      <trkpt lat="41.74887" lon="19.96245">
        <ele>277.48001098633</ele>
        <time>2023-09-30T13:58:01.000Z</time>
      </trkpt>
      <trkpt lat="41.74893" lon="19.96257">
        <ele>277.95999145508</ele>
        <time>2023-09-30T13:58:00.000Z</time>
      </trkpt>
      <trkpt lat="41.74898" lon="19.96265">
        <ele>277.95999145508</ele>
        <time>2023-09-30T13:57:59.000Z</time>
      </trkpt>
      <trkpt lat="41.74923" lon="19.96301">
        <ele>279.39999389648</ele>
        <time>2023-09-30T13:57:57.000Z</time>
      </trkpt>
      <trkpt lat="41.7493" lon="19.96317">
        <ele>279.88000488281</ele>
        <time>2023-09-30T13:57:56.000Z</time>
      </trkpt>
      <trkpt lat="41.74932" lon="19.96327">
        <ele>279.88000488281</ele>
        <time>2023-09-30T13:57:55.000Z</time>
      </trkpt>
      <trkpt lat="41.74937" lon="19.96349">
        <ele>280.83999633789</ele>
        <time>2023-09-30T13:57:54.000Z</time>
      </trkpt>
      <trkpt lat="41.74943" lon="19.96371">
        <ele>281.32000732422</ele>
        <time>2023-09-30T13:57:53.000Z</time>
      </trkpt>
      <trkpt lat="41.74945" lon="19.96389">
        <ele>281.32000732422</ele>
        <time>2023-09-30T13:57:52.000Z</time>
      </trkpt>
      <trkpt lat="41.74944" lon="19.96408">
        <ele>281.79998779297</ele>
        <time>2023-09-30T13:57:51.000Z</time>
      </trkpt>
      <trkpt lat="41.74942" lon="19.96415">
        <ele>282.76998901367</ele>
        <time>2023-09-30T13:57:50.000Z</time>
      </trkpt>
      <trkpt lat="41.74936" lon="19.96443">
        <ele>283.73001098633</ele>
        <time>2023-09-30T13:57:49.000Z</time>
      </trkpt>
      <trkpt lat="41.74935" lon="19.9646">
        <ele>283.73001098633</ele>
        <time>2023-09-30T13:57:48.000Z</time>
      </trkpt>
      <trkpt lat="41.74936" lon="19.96478">
        <ele>284.20999145508</ele>
        <time>2023-09-30T13:57:47.000Z</time>
      </trkpt>
      <trkpt lat="41.74943" lon="19.96542">
        <ele>286.13000488281</ele>
        <time>2023-09-30T13:57:44.000Z</time>
      </trkpt>
      <trkpt lat="41.74943" lon="19.9656">
        <ele>286.60998535156</ele>
        <time>2023-09-30T13:57:43.000Z</time>
      </trkpt>
      <trkpt lat="41.74941" lon="19.96576">
        <ele>286.60998535156</ele>
        <time>2023-09-30T13:57:42.000Z</time>
      </trkpt>
      <trkpt lat="41.74936" lon="19.96591">
        <ele>287.08999633789</ele>
        <time>2023-09-30T13:57:41.000Z</time>
      </trkpt>
      <trkpt lat="41.74927" lon="19.96604">
        <ele>287.57000732422</ele>
        <time>2023-09-30T13:57:40.000Z</time>
      </trkpt>
      <trkpt lat="41.74915" lon="19.96615">
        <ele>288.5299987793</ele>
        <time>2023-09-30T13:57:39.000Z</time>
      </trkpt>
      <trkpt lat="41.74913" lon="19.96617">
        <ele>288.5299987793</ele>
        <time>2023-09-30T13:57:38.000Z</time>
      </trkpt>
      <trkpt lat="41.74895" lon="19.96629">
        <ele>289.48999023438</ele>
        <time>2023-09-30T13:57:37.000Z</time>
      </trkpt>
      <trkpt lat="41.74887" lon="19.96637">
        <ele>289.48999023438</ele>
        <time>2023-09-30T13:57:36.000Z</time>
      </trkpt>
      <trkpt lat="41.74881" lon="19.96648">
        <ele>290.94000244141</ele>
        <time>2023-09-30T13:57:35.000Z</time>
      </trkpt>
      <trkpt lat="41.74876" lon="19.96664">
        <ele>291.42001342773</ele>
        <time>2023-09-30T13:57:34.000Z</time>
      </trkpt>
      <trkpt lat="41.74873" lon="19.96682">
        <ele>291.89999389648</ele>
        <time>2023-09-30T13:57:33.000Z</time>
      </trkpt>
      <trkpt lat="41.74873" lon="19.96697">
        <ele>292.38000488281</ele>
        <time>2023-09-30T13:57:32.000Z</time>
      </trkpt>
      <trkpt lat="41.74872" lon="19.96716">
        <ele>292.38000488281</ele>
        <time>2023-09-30T13:57:31.000Z</time>
      </trkpt>
      <trkpt lat="41.7487" lon="19.96729">
        <ele>292.85998535156</ele>
        <time>2023-09-30T13:57:30.000Z</time>
      </trkpt>
      <trkpt lat="41.74865" lon="19.96741">
        <ele>292.85998535156</ele>
        <time>2023-09-30T13:57:29.000Z</time>
      </trkpt>
      <trkpt lat="41.74858" lon="19.96751">
        <ele>293.33999633789</ele>
        <time>2023-09-30T13:57:28.000Z</time>
      </trkpt>
      <trkpt lat="41.7485" lon="19.96758">
        <ele>293.33999633789</ele>
        <time>2023-09-30T13:57:27.000Z</time>
      </trkpt>
      <trkpt lat="41.7484" lon="19.96761">
        <ele>293.82000732422</ele>
        <time>2023-09-30T13:57:26.000Z</time>
      </trkpt>
      <trkpt lat="41.74831" lon="19.9676">
        <ele>294.29998779297</ele>
        <time>2023-09-30T13:57:25.000Z</time>
      </trkpt>
      <trkpt lat="41.74819" lon="19.96758">
        <ele>294.7799987793</ele>
        <time>2023-09-30T13:57:24.000Z</time>
      </trkpt>
      <trkpt lat="41.74808" lon="19.96759">
        <ele>295.73999023438</ele>
        <time>2023-09-30T13:57:23.000Z</time>
      </trkpt>
      <trkpt lat="41.74798" lon="19.96764">
        <ele>296.2200012207</ele>
        <time>2023-09-30T13:57:22.000Z</time>
      </trkpt>
      <trkpt lat="41.74796" lon="19.96765">
        <ele>296.70001220703</ele>
        <time>2023-09-30T13:57:21.000Z</time>
      </trkpt>
      <trkpt lat="41.74764" lon="19.96788">
        <ele>297.67001342773</ele>
        <time>2023-09-30T13:57:18.000Z</time>
      </trkpt>
      <trkpt lat="41.74755" lon="19.96792">
        <ele>297.67001342773</ele>
        <time>2023-09-30T13:57:17.000Z</time>
      </trkpt>
      <trkpt lat="41.74746" lon="19.96792">
        <ele>297.67001342773</ele>
        <time>2023-09-30T13:57:16.000Z</time>
      </trkpt>
      <trkpt lat="41.74736" lon="19.96789">
        <ele>297.67001342773</ele>
        <time>2023-09-30T13:57:15.000Z</time>
      </trkpt>
      <trkpt lat="41.74724" lon="19.96783">
        <ele>298.14999389648</ele>
        <time>2023-09-30T13:57:14.000Z</time>
      </trkpt>
      <trkpt lat="41.74717" lon="19.96779">
        <ele>298.14999389648</ele>
        <time>2023-09-30T13:57:13.000Z</time>
      </trkpt>
      <trkpt lat="41.74711" lon="19.96775">
        <ele>298.63000488281</ele>
        <time>2023-09-30T13:57:12.000Z</time>
      </trkpt>
      <trkpt lat="41.74686" lon="19.96757">
        <ele>300.07000732422</ele>
        <time>2023-09-30T13:57:11.000Z</time>
      </trkpt>
      <trkpt lat="41.74673" lon="19.96751">
        <ele>300.54998779297</ele>
        <time>2023-09-30T13:57:10.000Z</time>
      </trkpt>
      <trkpt lat="41.74661" lon="19.96748">
        <ele>301.0299987793</ele>
        <time>2023-09-30T13:57:09.000Z</time>
      </trkpt>
      <trkpt lat="41.74649" lon="19.9675">
        <ele>301.0299987793</ele>
        <time>2023-09-30T13:57:08.000Z</time>
      </trkpt>
      <trkpt lat="41.7464" lon="19.96752">
        <ele>301.0299987793</ele>
        <time>2023-09-30T13:57:07.000Z</time>
      </trkpt>
      <trkpt lat="41.7463" lon="19.96758">
        <ele>301.0299987793</ele>
        <time>2023-09-30T13:57:06.000Z</time>
      </trkpt>
      <trkpt lat="41.74622" lon="19.96766">
        <ele>301.0299987793</ele>
        <time>2023-09-30T13:57:05.000Z</time>
      </trkpt>
      <trkpt lat="41.74618" lon="19.96777">
        <ele>300.54998779297</ele>
        <time>2023-09-30T13:57:04.000Z</time>
      </trkpt>
      <trkpt lat="41.74618" lon="19.96791">
        <ele>300.54998779297</ele>
        <time>2023-09-30T13:57:03.000Z</time>
      </trkpt>
      <trkpt lat="41.7462" lon="19.96808">
        <ele>300.07000732422</ele>
        <time>2023-09-30T13:57:02.000Z</time>
      </trkpt>
      <trkpt lat="41.74645" lon="19.96916">
        <ele>300.54998779297</ele>
        <time>2023-09-30T13:56:56.000Z</time>
      </trkpt>
      <trkpt lat="41.7465" lon="19.96933">
        <ele>300.54998779297</ele>
        <time>2023-09-30T13:56:55.000Z</time>
      </trkpt>
      <trkpt lat="41.74655" lon="19.96951">
        <ele>301.0299987793</ele>
        <time>2023-09-30T13:56:54.000Z</time>
      </trkpt>
      <trkpt lat="41.7466" lon="19.96963">
        <ele>301.0299987793</ele>
        <time>2023-09-30T13:56:53.000Z</time>
      </trkpt>
      <trkpt lat="41.74666" lon="19.96975">
        <ele>301.0299987793</ele>
        <time>2023-09-30T13:56:52.000Z</time>
      </trkpt>
      <trkpt lat="41.74671" lon="19.96984">
        <ele>301.0299987793</ele>
        <time>2023-09-30T13:56:51.000Z</time>
      </trkpt>
      <trkpt lat="41.7468" lon="19.96992">
        <ele>301.0299987793</ele>
        <time>2023-09-30T13:56:50.000Z</time>
      </trkpt>
      <trkpt lat="41.74689" lon="19.96999">
        <ele>301.0299987793</ele>
        <time>2023-09-30T13:56:49.000Z</time>
      </trkpt>
      <trkpt lat="41.74696" lon="19.97007">
        <ele>301.0299987793</ele>
        <time>2023-09-30T13:56:48.000Z</time>
      </trkpt>
      <trkpt lat="41.747" lon="19.97019">
        <ele>301.51000976562</ele>
        <time>2023-09-30T13:56:47.000Z</time>
      </trkpt>
      <trkpt lat="41.74701" lon="19.97033">
        <ele>301.51000976562</ele>
        <time>2023-09-30T13:56:46.000Z</time>
      </trkpt>
      <trkpt lat="41.74697" lon="19.9705">
        <ele>301.98999023438</ele>
        <time>2023-09-30T13:56:45.000Z</time>
      </trkpt>
      <trkpt lat="41.74696" lon="19.97053">
        <ele>301.98999023438</ele>
        <time>2023-09-30T13:56:44.000Z</time>
      </trkpt>
      <trkpt lat="41.74677" lon="19.97108">
        <ele>303.91000366211</ele>
        <time>2023-09-30T13:56:42.000Z</time>
      </trkpt>
      <trkpt lat="41.74669" lon="19.97132">
        <ele>304.88000488281</ele>
        <time>2023-09-30T13:56:41.000Z</time>
      </trkpt>
      <trkpt lat="41.74661" lon="19.97149">
        <ele>305.83999633789</ele>
        <time>2023-09-30T13:56:40.000Z</time>
      </trkpt>
      <trkpt lat="41.74652" lon="19.97166">
        <ele>306.32000732422</ele>
        <time>2023-09-30T13:56:39.000Z</time>
      </trkpt>
      <trkpt lat="41.7465" lon="19.97169">
        <ele>306.32000732422</ele>
        <time>2023-09-30T13:56:38.000Z</time>
      </trkpt>
      <trkpt lat="41.74611" lon="19.9722">
        <ele>309.67999267578</ele>
        <time>2023-09-30T13:56:35.000Z</time>
      </trkpt>
      <trkpt lat="41.746" lon="19.97235">
        <ele>310.16000366211</ele>
        <time>2023-09-30T13:56:34.000Z</time>
      </trkpt>
      <trkpt lat="41.74594" lon="19.97244">
        <ele>310.16000366211</ele>
        <time>2023-09-30T13:56:33.000Z</time>
      </trkpt>
      <trkpt lat="41.74587" lon="19.97254">
        <ele>310.16000366211</ele>
        <time>2023-09-30T13:56:32.000Z</time>
      </trkpt>
      <trkpt lat="41.7458" lon="19.97261">
        <ele>310.16000366211</ele>
        <time>2023-09-30T13:56:31.000Z</time>
      </trkpt>
      <trkpt lat="41.74567" lon="19.9727">
        <ele>309.67999267578</ele>
        <time>2023-09-30T13:56:30.000Z</time>
      </trkpt>
      <trkpt lat="41.74555" lon="19.97276">
        <ele>310.16000366211</ele>
        <time>2023-09-30T13:56:29.000Z</time>
      </trkpt>
      <trkpt lat="41.74548" lon="19.97279">
        <ele>309.67999267578</ele>
        <time>2023-09-30T13:56:28.000Z</time>
      </trkpt>
      <trkpt lat="41.74541" lon="19.97281">
        <ele>310.16000366211</ele>
        <time>2023-09-30T13:56:27.000Z</time>
      </trkpt>
      <trkpt lat="41.74514" lon="19.97287">
        <ele>309.67999267578</ele>
        <time>2023-09-30T13:56:26.000Z</time>
      </trkpt>
      <trkpt lat="41.74493" lon="19.97289">
        <ele>309.67999267578</ele>
        <time>2023-09-30T13:56:24.000Z</time>
      </trkpt>
      <trkpt lat="41.74477" lon="19.97288">
        <ele>309.20001220703</ele>
        <time>2023-09-30T13:56:23.000Z</time>
      </trkpt>
      <trkpt lat="41.74468" lon="19.97285">
        <ele>309.67999267578</ele>
        <time>2023-09-30T13:56:22.000Z</time>
      </trkpt>
      <trkpt lat="41.74461" lon="19.9728">
        <ele>309.67999267578</ele>
        <time>2023-09-30T13:56:21.000Z</time>
      </trkpt>
      <trkpt lat="41.74457" lon="19.97275">
        <ele>309.67999267578</ele>
        <time>2023-09-30T13:56:20.000Z</time>
      </trkpt>
      <trkpt lat="41.74454" lon="19.97271">
        <ele>310.16000366211</ele>
        <time>2023-09-30T13:56:19.000Z</time>
      </trkpt>
      <trkpt lat="41.74449" lon="19.97263">
        <ele>310.16000366211</ele>
        <time>2023-09-30T13:56:18.000Z</time>
      </trkpt>
      <trkpt lat="41.74447" lon="19.97258">
        <ele>310.16000366211</ele>
        <time>2023-09-30T13:56:17.000Z</time>
      </trkpt>
      <trkpt lat="41.74444" lon="19.97253">
        <ele>310.64001464844</ele>
        <time>2023-09-30T13:56:16.000Z</time>
      </trkpt>
      <trkpt lat="41.74441" lon="19.97246">
        <ele>311.11999511719</ele>
        <time>2023-09-30T13:56:15.000Z</time>
      </trkpt>
      <trkpt lat="41.74439" lon="19.97242">
        <ele>311.60000610352</ele>
        <time>2023-09-30T13:56:14.000Z</time>
      </trkpt>
      <trkpt lat="41.74438" lon="19.9724">
        <ele>311.60000610352</ele>
        <time>2023-09-30T13:56:13.000Z</time>
      </trkpt>
      <trkpt lat="41.74425" lon="19.97231">
        <ele>313.04998779297</ele>
        <time>2023-09-30T13:56:09.000Z</time>
      </trkpt>
      <trkpt lat="41.74419" lon="19.97232">
        <ele>313.5299987793</ele>
        <time>2023-09-30T13:56:08.000Z</time>
      </trkpt>
      <trkpt lat="41.74413" lon="19.97233">
        <ele>313.5299987793</ele>
        <time>2023-09-30T13:56:07.000Z</time>
      </trkpt>
      <trkpt lat="41.74409" lon="19.97235">
        <ele>313.5299987793</ele>
        <time>2023-09-30T13:56:06.000Z</time>
      </trkpt>
      <trkpt lat="41.74403" lon="19.9724">
        <ele>314.01000976562</ele>
        <time>2023-09-30T13:56:05.000Z</time>
      </trkpt>
      <trkpt lat="41.74399" lon="19.97245">
        <ele>314.01000976562</ele>
        <time>2023-09-30T13:56:04.000Z</time>
      </trkpt>
      <trkpt lat="41.74394" lon="19.97251">
        <ele>313.5299987793</ele>
        <time>2023-09-30T13:56:03.000Z</time>
      </trkpt>
      <trkpt lat="41.74391" lon="19.97255">
        <ele>313.5299987793</ele>
        <time>2023-09-30T13:56:02.000Z</time>
      </trkpt>
      <trkpt lat="41.74385" lon="19.97263">
        <ele>313.5299987793</ele>
        <time>2023-09-30T13:56:01.000Z</time>
      </trkpt>
      <trkpt lat="41.74379" lon="19.9727">
        <ele>313.04998779297</ele>
        <time>2023-09-30T13:56:00.000Z</time>
      </trkpt>
      <trkpt lat="41.7437" lon="19.97281">
        <ele>313.04998779297</ele>
        <time>2023-09-30T13:55:59.000Z</time>
      </trkpt>
      <trkpt lat="41.7436" lon="19.9729">
        <ele>313.04998779297</ele>
        <time>2023-09-30T13:55:58.000Z</time>
      </trkpt>
      <trkpt lat="41.74351" lon="19.97298">
        <ele>313.04998779297</ele>
        <time>2023-09-30T13:55:57.000Z</time>
      </trkpt>
      <trkpt lat="41.74339" lon="19.97303">
        <ele>312.57000732422</ele>
        <time>2023-09-30T13:55:56.000Z</time>
      </trkpt>
      <trkpt lat="41.74326" lon="19.97306">
        <ele>312.57000732422</ele>
        <time>2023-09-30T13:55:55.000Z</time>
      </trkpt>
      <trkpt lat="41.74323" lon="19.97306">
        <ele>312.57000732422</ele>
        <time>2023-09-30T13:55:54.000Z</time>
      </trkpt>
      <trkpt lat="41.74292" lon="19.97305">
        <ele>312.08999633789</ele>
        <time>2023-09-30T13:55:53.000Z</time>
      </trkpt>
      <trkpt lat="41.74254" lon="19.97303">
        <ele>310.64001464844</ele>
        <time>2023-09-30T13:55:51.000Z</time>
      </trkpt>
      <trkpt lat="41.74242" lon="19.97304">
        <ele>310.64001464844</ele>
        <time>2023-09-30T13:55:50.000Z</time>
      </trkpt>
      <trkpt lat="41.74222" lon="19.97307">
        <ele>310.16000366211</ele>
        <time>2023-09-30T13:55:49.000Z</time>
      </trkpt>
      <trkpt lat="41.74212" lon="19.97311">
        <ele>309.67999267578</ele>
        <time>2023-09-30T13:55:48.000Z</time>
      </trkpt>
      <trkpt lat="41.74102" lon="19.97362">
        <ele>305.83999633789</ele>
        <time>2023-09-30T13:55:42.000Z</time>
      </trkpt>
      <trkpt lat="41.73991" lon="19.97414">
        <ele>302.4700012207</ele>
        <time>2023-09-30T13:55:36.000Z</time>
      </trkpt>
      <trkpt lat="41.73977" lon="19.97419">
        <ele>301.51000976562</ele>
        <time>2023-09-30T13:55:35.000Z</time>
      </trkpt>
      <trkpt lat="41.73963" lon="19.9742">
        <ele>301.0299987793</ele>
        <time>2023-09-30T13:55:34.000Z</time>
      </trkpt>
      <trkpt lat="41.73948" lon="19.97419">
        <ele>300.54998779297</ele>
        <time>2023-09-30T13:55:33.000Z</time>
      </trkpt>
      <trkpt lat="41.73938" lon="19.97416">
        <ele>299.58999633789</ele>
        <time>2023-09-30T13:55:32.000Z</time>
      </trkpt>
      <trkpt lat="41.73851" lon="19.97383">
        <ele>298.63000488281</ele>
        <time>2023-09-30T13:55:27.000Z</time>
      </trkpt>
      <trkpt lat="41.73835" lon="19.97381">
        <ele>298.63000488281</ele>
        <time>2023-09-30T13:55:26.000Z</time>
      </trkpt>
      <trkpt lat="41.73832" lon="19.97381">
        <ele>298.63000488281</ele>
        <time>2023-09-30T13:55:25.000Z</time>
      </trkpt>
      <trkpt lat="41.73801" lon="19.97382">
        <ele>299.10998535156</ele>
        <time>2023-09-30T13:55:23.000Z</time>
      </trkpt>
      <trkpt lat="41.73784" lon="19.97383">
        <ele>299.58999633789</ele>
        <time>2023-09-30T13:55:22.000Z</time>
      </trkpt>
      <trkpt lat="41.73759" lon="19.97383">
        <ele>300.07000732422</ele>
        <time>2023-09-30T13:55:20.000Z</time>
      </trkpt>
      <trkpt lat="41.73748" lon="19.97386">
        <ele>300.07000732422</ele>
        <time>2023-09-30T13:55:19.000Z</time>
      </trkpt>
      <trkpt lat="41.73739" lon="19.97391">
        <ele>300.07000732422</ele>
        <time>2023-09-30T13:55:18.000Z</time>
      </trkpt>
      <trkpt lat="41.7373" lon="19.97396">
        <ele>300.07000732422</ele>
        <time>2023-09-30T13:55:17.000Z</time>
      </trkpt>
      <trkpt lat="41.7372" lon="19.97404">
        <ele>300.54998779297</ele>
        <time>2023-09-30T13:55:16.000Z</time>
      </trkpt>
      <trkpt lat="41.7371" lon="19.97413">
        <ele>300.54998779297</ele>
        <time>2023-09-30T13:55:15.000Z</time>
      </trkpt>
      <trkpt lat="41.73702" lon="19.9742">
        <ele>300.54998779297</ele>
        <time>2023-09-30T13:55:14.000Z</time>
      </trkpt>
      <trkpt lat="41.73693" lon="19.97425">
        <ele>300.54998779297</ele>
        <time>2023-09-30T13:55:13.000Z</time>
      </trkpt>
      <trkpt lat="41.73687" lon="19.97426">
        <ele>300.54998779297</ele>
        <time>2023-09-30T13:55:12.000Z</time>
      </trkpt>
      <trkpt lat="41.73672" lon="19.9743">
        <ele>300.07000732422</ele>
        <time>2023-09-30T13:55:10.000Z</time>
      </trkpt>
      <trkpt lat="41.73666" lon="19.97429">
        <ele>299.58999633789</ele>
        <time>2023-09-30T13:55:09.000Z</time>
      </trkpt>
      <trkpt lat="41.73658" lon="19.97426">
        <ele>299.10998535156</ele>
        <time>2023-09-30T13:55:08.000Z</time>
      </trkpt>
      <trkpt lat="41.73651" lon="19.9742">
        <ele>299.10998535156</ele>
        <time>2023-09-30T13:55:07.000Z</time>
      </trkpt>
      <trkpt lat="41.73646" lon="19.97416">
        <ele>298.63000488281</ele>
        <time>2023-09-30T13:55:06.000Z</time>
      </trkpt>
      <trkpt lat="41.73625" lon="19.97391">
        <ele>297.67001342773</ele>
        <time>2023-09-30T13:55:03.000Z</time>
      </trkpt>
      <trkpt lat="41.7362" lon="19.97385">
        <ele>297.17999267578</ele>
        <time>2023-09-30T13:55:02.000Z</time>
      </trkpt>
      <trkpt lat="41.73617" lon="19.97381">
        <ele>297.17999267578</ele>
        <time>2023-09-30T13:55:01.000Z</time>
      </trkpt>
      <trkpt lat="41.73613" lon="19.97374">
        <ele>297.17999267578</ele>
        <time>2023-09-30T13:55:00.000Z</time>
      </trkpt>
      <trkpt lat="41.73608" lon="19.97368">
        <ele>296.70001220703</ele>
        <time>2023-09-30T13:54:59.000Z</time>
      </trkpt>
      <trkpt lat="41.73606" lon="19.97366">
        <ele>296.70001220703</ele>
        <time>2023-09-30T13:54:58.000Z</time>
      </trkpt>
      <trkpt lat="41.736" lon="19.97361">
        <ele>296.2200012207</ele>
        <time>2023-09-30T13:54:56.000Z</time>
      </trkpt>
      <trkpt lat="41.73597" lon="19.97359">
        <ele>296.2200012207</ele>
        <time>2023-09-30T13:54:55.000Z</time>
      </trkpt>
      <trkpt lat="41.73593" lon="19.97355">
        <ele>296.2200012207</ele>
        <time>2023-09-30T13:54:54.000Z</time>
      </trkpt>
      <trkpt lat="41.73578" lon="19.97341">
        <ele>296.70001220703</ele>
        <time>2023-09-30T13:54:53.000Z</time>
      </trkpt>
      <trkpt lat="41.73572" lon="19.97334">
        <ele>296.70001220703</ele>
        <time>2023-09-30T13:54:52.000Z</time>
      </trkpt>
      <trkpt lat="41.73567" lon="19.97326">
        <ele>296.2200012207</ele>
        <time>2023-09-30T13:54:51.000Z</time>
      </trkpt>
      <trkpt lat="41.73564" lon="19.97317">
        <ele>296.2200012207</ele>
        <time>2023-09-30T13:54:50.000Z</time>
      </trkpt>
      <trkpt lat="41.73562" lon="19.97307">
        <ele>296.2200012207</ele>
        <time>2023-09-30T13:54:49.000Z</time>
      </trkpt>
      <trkpt lat="41.73562" lon="19.97295">
        <ele>295.73999023438</ele>
        <time>2023-09-30T13:54:48.000Z</time>
      </trkpt>
      <trkpt lat="41.73563" lon="19.97288">
        <ele>295.73999023438</ele>
        <time>2023-09-30T13:54:47.000Z</time>
      </trkpt>
      <trkpt lat="41.73565" lon="19.97268">
        <ele>295.73999023438</ele>
        <time>2023-09-30T13:54:46.000Z</time>
      </trkpt>
      <trkpt lat="41.73565" lon="19.97255">
        <ele>295.73999023438</ele>
        <time>2023-09-30T13:54:45.000Z</time>
      </trkpt>
      <trkpt lat="41.73563" lon="19.97243">
        <ele>295.73999023438</ele>
        <time>2023-09-30T13:54:44.000Z</time>
      </trkpt>
      <trkpt lat="41.73558" lon="19.97233">
        <ele>295.73999023438</ele>
        <time>2023-09-30T13:54:43.000Z</time>
      </trkpt>
      <trkpt lat="41.73552" lon="19.97225">
        <ele>296.2200012207</ele>
        <time>2023-09-30T13:54:42.000Z</time>
      </trkpt>
      <trkpt lat="41.73543" lon="19.9722">
        <ele>295.73999023438</ele>
        <time>2023-09-30T13:54:41.000Z</time>
      </trkpt>
      <trkpt lat="41.73523" lon="19.97213">
        <ele>296.2200012207</ele>
        <time>2023-09-30T13:54:39.000Z</time>
      </trkpt>
      <trkpt lat="41.73514" lon="19.97209">
        <ele>296.2200012207</ele>
        <time>2023-09-30T13:54:38.000Z</time>
      </trkpt>
      <trkpt lat="41.73501" lon="19.97201">
        <ele>296.70001220703</ele>
        <time>2023-09-30T13:54:37.000Z</time>
      </trkpt>
      <trkpt lat="41.73491" lon="19.97195">
        <ele>297.17999267578</ele>
        <time>2023-09-30T13:54:36.000Z</time>
      </trkpt>
      <trkpt lat="41.73482" lon="19.97192">
        <ele>297.67001342773</ele>
        <time>2023-09-30T13:54:35.000Z</time>
      </trkpt>
      <trkpt lat="41.73473" lon="19.97193">
        <ele>297.67001342773</ele>
        <time>2023-09-30T13:54:34.000Z</time>
      </trkpt>
      <trkpt lat="41.73465" lon="19.97197">
        <ele>298.14999389648</ele>
        <time>2023-09-30T13:54:33.000Z</time>
      </trkpt>
      <trkpt lat="41.73457" lon="19.97202">
        <ele>298.63000488281</ele>
        <time>2023-09-30T13:54:32.000Z</time>
      </trkpt>
      <trkpt lat="41.7345" lon="19.97209">
        <ele>298.63000488281</ele>
        <time>2023-09-30T13:54:31.000Z</time>
      </trkpt>
      <trkpt lat="41.73444" lon="19.97216">
        <ele>298.63000488281</ele>
        <time>2023-09-30T13:54:30.000Z</time>
      </trkpt>
      <trkpt lat="41.73438" lon="19.97226">
        <ele>298.63000488281</ele>
        <time>2023-09-30T13:54:29.000Z</time>
      </trkpt>
      <trkpt lat="41.73433" lon="19.97235">
        <ele>299.10998535156</ele>
        <time>2023-09-30T13:54:28.000Z</time>
      </trkpt>
      <trkpt lat="41.73429" lon="19.97245">
        <ele>299.10998535156</ele>
        <time>2023-09-30T13:54:27.000Z</time>
      </trkpt>
      <trkpt lat="41.7342" lon="19.9727">
        <ele>299.10998535156</ele>
        <time>2023-09-30T13:54:25.000Z</time>
      </trkpt>
      <trkpt lat="41.73416" lon="19.97281">
        <ele>299.10998535156</ele>
        <time>2023-09-30T13:54:24.000Z</time>
      </trkpt>
      <trkpt lat="41.7341" lon="19.97287">
        <ele>299.10998535156</ele>
        <time>2023-09-30T13:54:23.000Z</time>
      </trkpt>
      <trkpt lat="41.73403" lon="19.9729">
        <ele>299.10998535156</ele>
        <time>2023-09-30T13:54:22.000Z</time>
      </trkpt>
      <trkpt lat="41.73395" lon="19.97289">
        <ele>298.63000488281</ele>
        <time>2023-09-30T13:54:21.000Z</time>
      </trkpt>
      <trkpt lat="41.73388" lon="19.97285">
        <ele>298.63000488281</ele>
        <time>2023-09-30T13:54:20.000Z</time>
      </trkpt>
      <trkpt lat="41.7338" lon="19.97277">
        <ele>298.63000488281</ele>
        <time>2023-09-30T13:54:19.000Z</time>
      </trkpt>
      <trkpt lat="41.73373" lon="19.97265">
        <ele>298.14999389648</ele>
        <time>2023-09-30T13:54:18.000Z</time>
      </trkpt>
      <trkpt lat="41.73368" lon="19.97255">
        <ele>298.63000488281</ele>
        <time>2023-09-30T13:54:17.000Z</time>
      </trkpt>
      <trkpt lat="41.73357" lon="19.97225">
        <ele>298.63000488281</ele>
        <time>2023-09-30T13:54:15.000Z</time>
      </trkpt>
      <trkpt lat="41.73346" lon="19.97194">
        <ele>298.63000488281</ele>
        <time>2023-09-30T13:54:12.000Z</time>
      </trkpt>
      <trkpt lat="41.7334" lon="19.97173">
        <ele>298.14999389648</ele>
        <time>2023-09-30T13:54:11.000Z</time>
      </trkpt>
      <trkpt lat="41.73337" lon="19.97162">
        <ele>298.14999389648</ele>
        <time>2023-09-30T13:54:10.000Z</time>
      </trkpt>
      <trkpt lat="41.73336" lon="19.97154">
        <ele>298.14999389648</ele>
        <time>2023-09-30T13:54:09.000Z</time>
      </trkpt>
      <trkpt lat="41.73335" lon="19.97145">
        <ele>297.67001342773</ele>
        <time>2023-09-30T13:54:08.000Z</time>
      </trkpt>
      <trkpt lat="41.73335" lon="19.97139">
        <ele>297.67001342773</ele>
        <time>2023-09-30T13:54:07.000Z</time>
      </trkpt>
      <trkpt lat="41.73336" lon="19.97127">
        <ele>297.67001342773</ele>
        <time>2023-09-30T13:54:06.000Z</time>
      </trkpt>
      <trkpt lat="41.73335" lon="19.97119">
        <ele>297.67001342773</ele>
        <time>2023-09-30T13:54:05.000Z</time>
      </trkpt>
      <trkpt lat="41.73331" lon="19.97086">
        <ele>298.14999389648</ele>
        <time>2023-09-30T13:54:01.000Z</time>
      </trkpt>
      <trkpt lat="41.73329" lon="19.97076">
        <ele>298.14999389648</ele>
        <time>2023-09-30T13:54:00.000Z</time>
      </trkpt>
      <trkpt lat="41.73327" lon="19.9707">
        <ele>298.14999389648</ele>
        <time>2023-09-30T13:53:59.000Z</time>
      </trkpt>
      <trkpt lat="41.73325" lon="19.97064">
        <ele>298.14999389648</ele>
        <time>2023-09-30T13:53:58.000Z</time>
      </trkpt>
      <trkpt lat="41.73322" lon="19.97059">
        <ele>298.63000488281</ele>
        <time>2023-09-30T13:53:57.000Z</time>
      </trkpt>
      <trkpt lat="41.73319" lon="19.97052">
        <ele>299.10998535156</ele>
        <time>2023-09-30T13:53:56.000Z</time>
      </trkpt>
      <trkpt lat="41.73316" lon="19.97046">
        <ele>299.10998535156</ele>
        <time>2023-09-30T13:53:55.000Z</time>
      </trkpt>
      <trkpt lat="41.73311" lon="19.97034">
        <ele>299.10998535156</ele>
        <time>2023-09-30T13:53:54.000Z</time>
      </trkpt>
      <trkpt lat="41.73308" lon="19.97029">
        <ele>299.58999633789</ele>
        <time>2023-09-30T13:53:53.000Z</time>
      </trkpt>
      <trkpt lat="41.73303" lon="19.97021">
        <ele>299.58999633789</ele>
        <time>2023-09-30T13:53:52.000Z</time>
      </trkpt>
      <trkpt lat="41.73291" lon="19.97006">
        <ele>300.07000732422</ele>
        <time>2023-09-30T13:53:49.000Z</time>
      </trkpt>
      <trkpt lat="41.73285" lon="19.96998">
        <ele>300.54998779297</ele>
        <time>2023-09-30T13:53:48.000Z</time>
      </trkpt>
      <trkpt lat="41.7328" lon="19.96993">
        <ele>301.0299987793</ele>
        <time>2023-09-30T13:53:47.000Z</time>
      </trkpt>
      <trkpt lat="41.73274" lon="19.96989">
        <ele>301.0299987793</ele>
        <time>2023-09-30T13:53:46.000Z</time>
      </trkpt>
      <trkpt lat="41.73268" lon="19.96986">
        <ele>301.0299987793</ele>
        <time>2023-09-30T13:53:45.000Z</time>
      </trkpt>
      <trkpt lat="41.73263" lon="19.96984">
        <ele>301.51000976562</ele>
        <time>2023-09-30T13:53:44.000Z</time>
      </trkpt>
      <trkpt lat="41.73236" lon="19.9697">
        <ele>302.4700012207</ele>
        <time>2023-09-30T13:53:39.000Z</time>
      </trkpt>
      <trkpt lat="41.7323" lon="19.96967">
        <ele>302.95001220703</ele>
        <time>2023-09-30T13:53:38.000Z</time>
      </trkpt>
      <trkpt lat="41.73224" lon="19.96963">
        <ele>302.95001220703</ele>
        <time>2023-09-30T13:53:37.000Z</time>
      </trkpt>
      <trkpt lat="41.7322" lon="19.96959">
        <ele>302.95001220703</ele>
        <time>2023-09-30T13:53:36.000Z</time>
      </trkpt>
      <trkpt lat="41.73216" lon="19.96955">
        <ele>302.95001220703</ele>
        <time>2023-09-30T13:53:35.000Z</time>
      </trkpt>
      <trkpt lat="41.73214" lon="19.96952">
        <ele>303.42999267578</ele>
        <time>2023-09-30T13:53:34.000Z</time>
      </trkpt>
      <trkpt lat="41.7321" lon="19.96945">
        <ele>303.91000366211</ele>
        <time>2023-09-30T13:53:33.000Z</time>
      </trkpt>
      <trkpt lat="41.73208" lon="19.96941">
        <ele>303.91000366211</ele>
        <time>2023-09-30T13:53:32.000Z</time>
      </trkpt>
      <trkpt lat="41.73202" lon="19.96927">
        <ele>304.39001464844</ele>
        <time>2023-09-30T13:53:29.000Z</time>
      </trkpt>
      <trkpt lat="41.73201" lon="19.96923">
        <ele>304.88000488281</ele>
        <time>2023-09-30T13:53:28.000Z</time>
      </trkpt>
      <trkpt lat="41.73199" lon="19.96918">
        <ele>305.35998535156</ele>
        <time>2023-09-30T13:53:27.000Z</time>
      </trkpt>
      <trkpt lat="41.73197" lon="19.96913">
        <ele>305.35998535156</ele>
        <time>2023-09-30T13:53:26.000Z</time>
      </trkpt>
      <trkpt lat="41.73195" lon="19.96908">
        <ele>305.83999633789</ele>
        <time>2023-09-30T13:53:25.000Z</time>
      </trkpt>
      <trkpt lat="41.73193" lon="19.96903">
        <ele>305.83999633789</ele>
        <time>2023-09-30T13:53:24.000Z</time>
      </trkpt>
      <trkpt lat="41.73191" lon="19.96898">
        <ele>306.32000732422</ele>
        <time>2023-09-30T13:53:23.000Z</time>
      </trkpt>
      <trkpt lat="41.73189" lon="19.96894">
        <ele>306.32000732422</ele>
        <time>2023-09-30T13:53:22.000Z</time>
      </trkpt>
      <trkpt lat="41.73187" lon="19.96889">
        <ele>306.79998779297</ele>
        <time>2023-09-30T13:53:21.000Z</time>
      </trkpt>
      <trkpt lat="41.73184" lon="19.96885">
        <ele>306.79998779297</ele>
        <time>2023-09-30T13:53:20.000Z</time>
      </trkpt>
      <trkpt lat="41.73181" lon="19.9688">
        <ele>307.2799987793</ele>
        <time>2023-09-30T13:53:19.000Z</time>
      </trkpt>
      <trkpt lat="41.73179" lon="19.96877">
        <ele>306.79998779297</ele>
        <time>2023-09-30T13:53:18.000Z</time>
      </trkpt>
      <trkpt lat="41.73176" lon="19.9687">
        <ele>307.2799987793</ele>
        <time>2023-09-30T13:53:17.000Z</time>
      </trkpt>
      <trkpt lat="41.73174" lon="19.96868">
        <ele>307.2799987793</ele>
        <time>2023-09-30T13:53:16.000Z</time>
      </trkpt>
      <trkpt lat="41.7317" lon="19.96862">
        <ele>307.2799987793</ele>
        <time>2023-09-30T13:53:15.000Z</time>
      </trkpt>
      <trkpt lat="41.73166" lon="19.96858">
        <ele>307.2799987793</ele>
        <time>2023-09-30T13:53:14.000Z</time>
      </trkpt>
      <trkpt lat="41.73161" lon="19.96853">
        <ele>307.2799987793</ele>
        <time>2023-09-30T13:53:13.000Z</time>
      </trkpt>
      <trkpt lat="41.73157" lon="19.9685">
        <ele>307.2799987793</ele>
        <time>2023-09-30T13:53:12.000Z</time>
      </trkpt>
      <trkpt lat="41.73152" lon="19.96848">
        <ele>307.2799987793</ele>
        <time>2023-09-30T13:53:11.000Z</time>
      </trkpt>
      <trkpt lat="41.73147" lon="19.96846">
        <ele>307.2799987793</ele>
        <time>2023-09-30T13:53:10.000Z</time>
      </trkpt>
      <trkpt lat="41.73142" lon="19.96846">
        <ele>307.2799987793</ele>
        <time>2023-09-30T13:53:09.000Z</time>
      </trkpt>
      <trkpt lat="41.73139" lon="19.96845">
        <ele>307.2799987793</ele>
        <time>2023-09-30T13:53:08.000Z</time>
      </trkpt>
      <trkpt lat="41.73121" lon="19.96839">
        <ele>305.83999633789</ele>
        <time>2023-09-30T13:53:03.000Z</time>
      </trkpt>
      <trkpt lat="41.73116" lon="19.96837">
        <ele>305.35998535156</ele>
        <time>2023-09-30T13:53:02.000Z</time>
      </trkpt>
      <trkpt lat="41.73111" lon="19.96834">
        <ele>304.88000488281</ele>
        <time>2023-09-30T13:53:01.000Z</time>
      </trkpt>
      <trkpt lat="41.73107" lon="19.96832">
        <ele>304.39001464844</ele>
        <time>2023-09-30T13:53:00.000Z</time>
      </trkpt>
      <trkpt lat="41.73092" lon="19.96822">
        <ele>303.42999267578</ele>
        <time>2023-09-30T13:52:57.000Z</time>
      </trkpt>
      <trkpt lat="41.73054" lon="19.968">
        <ele>300.07000732422</ele>
        <time>2023-09-30T13:52:53.000Z</time>
      </trkpt>
      <trkpt lat="41.73034" lon="19.96792">
        <ele>299.10998535156</ele>
        <time>2023-09-30T13:52:52.000Z</time>
      </trkpt>
      <trkpt lat="41.73026" lon="19.9679">
        <ele>298.14999389648</ele>
        <time>2023-09-30T13:52:51.000Z</time>
      </trkpt>
      <trkpt lat="41.73013" lon="19.96788">
        <ele>297.17999267578</ele>
        <time>2023-09-30T13:52:50.000Z</time>
      </trkpt>
      <trkpt lat="41.73003" lon="19.96789">
        <ele>296.70001220703</ele>
        <time>2023-09-30T13:52:49.000Z</time>
      </trkpt>
      <trkpt lat="41.72993" lon="19.96791">
        <ele>295.73999023438</ele>
        <time>2023-09-30T13:52:48.000Z</time>
      </trkpt>
      <trkpt lat="41.72984" lon="19.96793">
        <ele>294.7799987793</ele>
        <time>2023-09-30T13:52:47.000Z</time>
      </trkpt>
      <trkpt lat="41.72974" lon="19.96798">
        <ele>294.29998779297</ele>
        <time>2023-09-30T13:52:46.000Z</time>
      </trkpt>
      <trkpt lat="41.72964" lon="19.96804">
        <ele>293.33999633789</ele>
        <time>2023-09-30T13:52:45.000Z</time>
      </trkpt>
      <trkpt lat="41.72956" lon="19.96811">
        <ele>292.38000488281</ele>
        <time>2023-09-30T13:52:44.000Z</time>
      </trkpt>
      <trkpt lat="41.72947" lon="19.9682">
        <ele>291.89999389648</ele>
        <time>2023-09-30T13:52:43.000Z</time>
      </trkpt>
      <trkpt lat="41.72943" lon="19.96825">
        <ele>291.42001342773</ele>
        <time>2023-09-30T13:52:42.000Z</time>
      </trkpt>
      <trkpt lat="41.72934" lon="19.96839">
        <ele>289.9700012207</ele>
        <time>2023-09-30T13:52:41.000Z</time>
      </trkpt>
      <trkpt lat="41.72922" lon="19.96858">
        <ele>288.04998779297</ele>
        <time>2023-09-30T13:52:39.000Z</time>
      </trkpt>
      <trkpt lat="41.72873" lon="19.9693">
        <ele>282.2799987793</ele>
        <time>2023-09-30T13:52:33.000Z</time>
      </trkpt>
      <trkpt lat="41.72865" lon="19.96946">
        <ele>281.79998779297</ele>
        <time>2023-09-30T13:52:32.000Z</time>
      </trkpt>
      <trkpt lat="41.7286" lon="19.96956">
        <ele>281.32000732422</ele>
        <time>2023-09-30T13:52:31.000Z</time>
      </trkpt>
      <trkpt lat="41.72854" lon="19.96974">
        <ele>280.83999633789</ele>
        <time>2023-09-30T13:52:30.000Z</time>
      </trkpt>
      <trkpt lat="41.72852" lon="19.96985">
        <ele>280.35998535156</ele>
        <time>2023-09-30T13:52:29.000Z</time>
      </trkpt>
      <trkpt lat="41.72851" lon="19.97002">
        <ele>279.88000488281</ele>
        <time>2023-09-30T13:52:28.000Z</time>
      </trkpt>
      <trkpt lat="41.72848" lon="19.97018">
        <ele>279.39999389648</ele>
        <time>2023-09-30T13:52:27.000Z</time>
      </trkpt>
      <trkpt lat="41.72845" lon="19.97027">
        <ele>278.92001342773</ele>
        <time>2023-09-30T13:52:26.000Z</time>
      </trkpt>
      <trkpt lat="41.72823" lon="19.97076">
        <ele>277.48001098633</ele>
        <time>2023-09-30T13:52:23.000Z</time>
      </trkpt>
      <trkpt lat="41.7281" lon="19.97104">
        <ele>276.51998901367</ele>
        <time>2023-09-30T13:52:22.000Z</time>
      </trkpt>
      <trkpt lat="41.72798" lon="19.9713">
        <ele>275.55999755859</ele>
        <time>2023-09-30T13:52:20.000Z</time>
      </trkpt>
      <trkpt lat="41.7279" lon="19.97143">
        <ele>275.55999755859</ele>
        <time>2023-09-30T13:52:19.000Z</time>
      </trkpt>
      <trkpt lat="41.72775" lon="19.97169">
        <ele>275.07000732422</ele>
        <time>2023-09-30T13:52:18.000Z</time>
      </trkpt>
      <trkpt lat="41.72765" lon="19.97187">
        <ele>275.07000732422</ele>
        <time>2023-09-30T13:52:17.000Z</time>
      </trkpt>
      <trkpt lat="41.72758" lon="19.97202">
        <ele>274.58999633789</ele>
        <time>2023-09-30T13:52:16.000Z</time>
      </trkpt>
      <trkpt lat="41.72753" lon="19.97217">
        <ele>274.58999633789</ele>
        <time>2023-09-30T13:52:15.000Z</time>
      </trkpt>
      <trkpt lat="41.72751" lon="19.97231">
        <ele>274.10998535156</ele>
        <time>2023-09-30T13:52:14.000Z</time>
      </trkpt>
      <trkpt lat="41.72752" lon="19.97245">
        <ele>274.10998535156</ele>
        <time>2023-09-30T13:52:13.000Z</time>
      </trkpt>
      <trkpt lat="41.72755" lon="19.97258">
        <ele>273.63000488281</ele>
        <time>2023-09-30T13:52:12.000Z</time>
      </trkpt>
      <trkpt lat="41.72758" lon="19.97272">
        <ele>273.63000488281</ele>
        <time>2023-09-30T13:52:11.000Z</time>
      </trkpt>
      <trkpt lat="41.72763" lon="19.97293">
        <ele>273.14999389648</ele>
        <time>2023-09-30T13:52:10.000Z</time>
      </trkpt>
      <trkpt lat="41.72765" lon="19.97312">
        <ele>273.14999389648</ele>
        <time>2023-09-30T13:52:09.000Z</time>
      </trkpt>
      <trkpt lat="41.72766" lon="19.97324">
        <ele>273.14999389648</ele>
        <time>2023-09-30T13:52:08.000Z</time>
      </trkpt>
      <trkpt lat="41.72768" lon="19.97413">
        <ele>271.70999145508</ele>
        <time>2023-09-30T13:52:04.000Z</time>
      </trkpt>
      <trkpt lat="41.72768" lon="19.97433">
        <ele>271.23001098633</ele>
        <time>2023-09-30T13:52:03.000Z</time>
      </trkpt>
      <trkpt lat="41.72768" lon="19.97446">
        <ele>271.23001098633</ele>
        <time>2023-09-30T13:52:02.000Z</time>
      </trkpt>
      <trkpt lat="41.72769" lon="19.97458">
        <ele>271.23001098633</ele>
        <time>2023-09-30T13:52:01.000Z</time>
      </trkpt>
      <trkpt lat="41.72773" lon="19.97487">
        <ele>270.75</ele>
        <time>2023-09-30T13:51:59.000Z</time>
      </trkpt>
      <trkpt lat="41.72774" lon="19.97501">
        <ele>270.75</ele>
        <time>2023-09-30T13:51:58.000Z</time>
      </trkpt>
      <trkpt lat="41.72773" lon="19.97513">
        <ele>270.26998901367</ele>
        <time>2023-09-30T13:51:57.000Z</time>
      </trkpt>
      <trkpt lat="41.72769" lon="19.97523">
        <ele>269.79000854492</ele>
        <time>2023-09-30T13:51:56.000Z</time>
      </trkpt>
      <trkpt lat="41.72762" lon="19.97532">
        <ele>269.79000854492</ele>
        <time>2023-09-30T13:51:55.000Z</time>
      </trkpt>
      <trkpt lat="41.72753" lon="19.97538">
        <ele>269.30999755859</ele>
        <time>2023-09-30T13:51:54.000Z</time>
      </trkpt>
      <trkpt lat="41.72743" lon="19.97541">
        <ele>268.35000610352</ele>
        <time>2023-09-30T13:51:53.000Z</time>
      </trkpt>
      <trkpt lat="41.72732" lon="19.97539">
        <ele>267.38000488281</ele>
        <time>2023-09-30T13:51:52.000Z</time>
      </trkpt>
      <trkpt lat="41.72722" lon="19.97536">
        <ele>266.89999389648</ele>
        <time>2023-09-30T13:51:51.000Z</time>
      </trkpt>
      <trkpt lat="41.72713" lon="19.97532">
        <ele>265.94000244141</ele>
        <time>2023-09-30T13:51:50.000Z</time>
      </trkpt>
      <trkpt lat="41.72642" lon="19.97494">
        <ele>259.20999145508</ele>
        <time>2023-09-30T13:51:46.000Z</time>
      </trkpt>
      <trkpt lat="41.72628" lon="19.97488">
        <ele>257.29000854492</ele>
        <time>2023-09-30T13:51:45.000Z</time>
      </trkpt>
      <trkpt lat="41.72613" lon="19.97487">
        <ele>255.85000610352</ele>
        <time>2023-09-30T13:51:44.000Z</time>
      </trkpt>
      <trkpt lat="41.72598" lon="19.97492">
        <ele>253.92999267578</ele>
        <time>2023-09-30T13:51:43.000Z</time>
      </trkpt>
      <trkpt lat="41.72584" lon="19.97502">
        <ele>252.96000671387</ele>
        <time>2023-09-30T13:51:42.000Z</time>
      </trkpt>
      <trkpt lat="41.72571" lon="19.97518">
        <ele>252.96000671387</ele>
        <time>2023-09-30T13:51:41.000Z</time>
      </trkpt>
      <trkpt lat="41.72559" lon="19.97537">
        <ele>252.47999572754</ele>
        <time>2023-09-30T13:51:40.000Z</time>
      </trkpt>
      <trkpt lat="41.72548" lon="19.97562">
        <ele>252</ele>
        <time>2023-09-30T13:51:39.000Z</time>
      </trkpt>
      <trkpt lat="41.7254" lon="19.97585">
        <ele>251.52000427246</ele>
        <time>2023-09-30T13:51:38.000Z</time>
      </trkpt>
      <trkpt lat="41.72534" lon="19.97606">
        <ele>251.03999328613</ele>
        <time>2023-09-30T13:51:37.000Z</time>
      </trkpt>
      <trkpt lat="41.7253" lon="19.97629">
        <ele>250.55999755859</ele>
        <time>2023-09-30T13:51:36.000Z</time>
      </trkpt>
      <trkpt lat="41.72527" lon="19.97646">
        <ele>250.08000183105</ele>
        <time>2023-09-30T13:51:35.000Z</time>
      </trkpt>
      <trkpt lat="41.72525" lon="19.97671">
        <ele>249.11999511719</ele>
        <time>2023-09-30T13:51:34.000Z</time>
      </trkpt>
      <trkpt lat="41.72525" lon="19.97675">
        <ele>249.11999511719</ele>
        <time>2023-09-30T13:51:33.000Z</time>
      </trkpt>
      <trkpt lat="41.72526" lon="19.97707">
        <ele>247.67999267578</ele>
        <time>2023-09-30T13:51:32.000Z</time>
      </trkpt>
      <trkpt lat="41.72524" lon="19.97721">
        <ele>247.19999694824</ele>
        <time>2023-09-30T13:51:31.000Z</time>
      </trkpt>
      <trkpt lat="41.7252" lon="19.97731">
        <ele>246.7200012207</ele>
        <time>2023-09-30T13:51:30.000Z</time>
      </trkpt>
      <trkpt lat="41.72513" lon="19.97739">
        <ele>246.7200012207</ele>
        <time>2023-09-30T13:51:29.000Z</time>
      </trkpt>
      <trkpt lat="41.72503" lon="19.97741">
        <ele>246.22999572754</ele>
        <time>2023-09-30T13:51:28.000Z</time>
      </trkpt>
      <trkpt lat="41.72491" lon="19.9774">
        <ele>245.27000427246</ele>
        <time>2023-09-30T13:51:27.000Z</time>
      </trkpt>
      <trkpt lat="41.72479" lon="19.97735">
        <ele>244.78999328613</ele>
        <time>2023-09-30T13:51:26.000Z</time>
      </trkpt>
      <trkpt lat="41.72467" lon="19.97727">
        <ele>244.30999755859</ele>
        <time>2023-09-30T13:51:25.000Z</time>
      </trkpt>
      <trkpt lat="41.72455" lon="19.97716">
        <ele>243.83000183105</ele>
        <time>2023-09-30T13:51:24.000Z</time>
      </trkpt>
      <trkpt lat="41.72446" lon="19.97702">
        <ele>242.86999511719</ele>
        <time>2023-09-30T13:51:23.000Z</time>
      </trkpt>
      <trkpt lat="41.72437" lon="19.97687">
        <ele>241.42999267578</ele>
        <time>2023-09-30T13:51:22.000Z</time>
      </trkpt>
      <trkpt lat="41.72427" lon="19.97673">
        <ele>239.99000549316</ele>
        <time>2023-09-30T13:51:21.000Z</time>
      </trkpt>
      <trkpt lat="41.72414" lon="19.97663">
        <ele>239.50999450684</ele>
        <time>2023-09-30T13:51:20.000Z</time>
      </trkpt>
      <trkpt lat="41.72409" lon="19.9766">
        <ele>239.02000427246</ele>
        <time>2023-09-30T13:51:19.000Z</time>
      </trkpt>
      <trkpt lat="41.72387" lon="19.97648">
        <ele>237.10000610352</ele>
        <time>2023-09-30T13:51:18.000Z</time>
      </trkpt>
      <trkpt lat="41.72377" lon="19.97641">
        <ele>236.13999938965</ele>
        <time>2023-09-30T13:51:17.000Z</time>
      </trkpt>
      <trkpt lat="41.72368" lon="19.97632">
        <ele>235.66000366211</ele>
        <time>2023-09-30T13:51:16.000Z</time>
      </trkpt>
      <trkpt lat="41.7236" lon="19.97622">
        <ele>235.17999267578</ele>
        <time>2023-09-30T13:51:15.000Z</time>
      </trkpt>
      <trkpt lat="41.72354" lon="19.9761">
        <ele>234.2200012207</ele>
        <time>2023-09-30T13:51:14.000Z</time>
      </trkpt>
      <trkpt lat="41.72351" lon="19.97598">
        <ele>233.25999450684</ele>
        <time>2023-09-30T13:51:13.000Z</time>
      </trkpt>
      <trkpt lat="41.72351" lon="19.97585">
        <ele>232.30000305176</ele>
        <time>2023-09-30T13:51:12.000Z</time>
      </trkpt>
      <trkpt lat="41.72353" lon="19.97571">
        <ele>231.33000183105</ele>
        <time>2023-09-30T13:51:11.000Z</time>
      </trkpt>
      <trkpt lat="41.72359" lon="19.97556">
        <ele>230.36999511719</ele>
        <time>2023-09-30T13:51:10.000Z</time>
      </trkpt>
      <trkpt lat="41.72367" lon="19.97538">
        <ele>229.41000366211</ele>
        <time>2023-09-30T13:51:09.000Z</time>
      </trkpt>
      <trkpt lat="41.72376" lon="19.97522">
        <ele>227.9700012207</ele>
        <time>2023-09-30T13:51:08.000Z</time>
      </trkpt>
      <trkpt lat="41.7238" lon="19.97516">
        <ele>227.49000549316</ele>
        <time>2023-09-30T13:51:07.000Z</time>
      </trkpt>
      <trkpt lat="41.72396" lon="19.97496">
        <ele>225.57000732422</ele>
        <time>2023-09-30T13:51:06.000Z</time>
      </trkpt>
      <trkpt lat="41.72404" lon="19.97483">
        <ele>224.61000061035</ele>
        <time>2023-09-30T13:51:05.000Z</time>
      </trkpt>
      <trkpt lat="41.72409" lon="19.9747">
        <ele>223.63999938965</ele>
        <time>2023-09-30T13:51:04.000Z</time>
      </trkpt>
      <trkpt lat="41.72412" lon="19.97456">
        <ele>222.19999694824</ele>
        <time>2023-09-30T13:51:03.000Z</time>
      </trkpt>
      <trkpt lat="41.7241" lon="19.97444">
        <ele>220.75999450684</ele>
        <time>2023-09-30T13:51:02.000Z</time>
      </trkpt>
      <trkpt lat="41.72405" lon="19.97432">
        <ele>220.2799987793</ele>
        <time>2023-09-30T13:51:01.000Z</time>
      </trkpt>
      <trkpt lat="41.72398" lon="19.97421">
        <ele>218.83999633789</ele>
        <time>2023-09-30T13:51:00.000Z</time>
      </trkpt>
      <trkpt lat="41.72389" lon="19.97413">
        <ele>218.36000061035</ele>
        <time>2023-09-30T13:50:59.000Z</time>
      </trkpt>
      <trkpt lat="41.72385" lon="19.9741">
        <ele>217.88000488281</ele>
        <time>2023-09-30T13:50:58.000Z</time>
      </trkpt>
      <trkpt lat="41.72369" lon="19.97399">
        <ele>216.91000366211</ele>
        <time>2023-09-30T13:50:57.000Z</time>
      </trkpt>
      <trkpt lat="41.72359" lon="19.97393">
        <ele>216.42999267578</ele>
        <time>2023-09-30T13:50:56.000Z</time>
      </trkpt>
      <trkpt lat="41.72347" lon="19.97387">
        <ele>215.4700012207</ele>
        <time>2023-09-30T13:50:55.000Z</time>
      </trkpt>
      <trkpt lat="41.72338" lon="19.97382">
        <ele>214.0299987793</ele>
        <time>2023-09-30T13:50:54.000Z</time>
      </trkpt>
      <trkpt lat="41.72331" lon="19.97375">
        <ele>213.07000732422</ele>
        <time>2023-09-30T13:50:53.000Z</time>
      </trkpt>
      <trkpt lat="41.72326" lon="19.97366">
        <ele>211.63000488281</ele>
        <time>2023-09-30T13:50:52.000Z</time>
      </trkpt>
      <trkpt lat="41.72324" lon="19.97357">
        <ele>211.14999389648</ele>
        <time>2023-09-30T13:50:51.000Z</time>
      </trkpt>
      <trkpt lat="41.72323" lon="19.97349">
        <ele>210.66999816895</ele>
        <time>2023-09-30T13:50:50.000Z</time>
      </trkpt>
      <trkpt lat="41.72324" lon="19.97341">
        <ele>210.19000244141</ele>
        <time>2023-09-30T13:50:49.000Z</time>
      </trkpt>
      <trkpt lat="41.72326" lon="19.97334">
        <ele>209.69999694824</ele>
        <time>2023-09-30T13:50:48.000Z</time>
      </trkpt>
      <trkpt lat="41.72326" lon="19.97331">
        <ele>209.2200012207</ele>
        <time>2023-09-30T13:50:47.000Z</time>
      </trkpt>
      <trkpt lat="41.7233" lon="19.9732">
        <ele>208.25999450684</ele>
        <time>2023-09-30T13:50:46.000Z</time>
      </trkpt>
      <trkpt lat="41.72331" lon="19.97313">
        <ele>207.7799987793</ele>
        <time>2023-09-30T13:50:45.000Z</time>
      </trkpt>
      <trkpt lat="41.72333" lon="19.97307">
        <ele>207.30000305176</ele>
        <time>2023-09-30T13:50:44.000Z</time>
      </trkpt>
      <trkpt lat="41.72337" lon="19.97295">
        <ele>206.33999633789</ele>
        <time>2023-09-30T13:50:43.000Z</time>
      </trkpt>
      <trkpt lat="41.72338" lon="19.97285">
        <ele>205.38000488281</ele>
        <time>2023-09-30T13:50:42.000Z</time>
      </trkpt>
      <trkpt lat="41.72339" lon="19.97273">
        <ele>204.41999816895</ele>
        <time>2023-09-30T13:50:41.000Z</time>
      </trkpt>
      <trkpt lat="41.72336" lon="19.97263">
        <ele>202.49000549316</ele>
        <time>2023-09-30T13:50:40.000Z</time>
      </trkpt>
      <trkpt lat="41.72329" lon="19.97254">
        <ele>201.5299987793</ele>
        <time>2023-09-30T13:50:39.000Z</time>
      </trkpt>
      <trkpt lat="41.7232" lon="19.97249">
        <ele>200.57000732422</ele>
        <time>2023-09-30T13:50:38.000Z</time>
      </trkpt>
      <trkpt lat="41.72308" lon="19.97246">
        <ele>199.61000061035</ele>
        <time>2023-09-30T13:50:37.000Z</time>
      </trkpt>
      <trkpt lat="41.72297" lon="19.97246">
        <ele>199.13000488281</ele>
        <time>2023-09-30T13:50:36.000Z</time>
      </trkpt>
      <trkpt lat="41.72284" lon="19.97249">
        <ele>198.16999816895</ele>
        <time>2023-09-30T13:50:35.000Z</time>
      </trkpt>
      <trkpt lat="41.72279" lon="19.9725">
        <ele>197.69000244141</ele>
        <time>2023-09-30T13:50:34.000Z</time>
      </trkpt>
      <trkpt lat="41.72218" lon="19.9728">
        <ele>194.32000732422</ele>
        <time>2023-09-30T13:50:30.000Z</time>
      </trkpt>
      <trkpt lat="41.72191" lon="19.97297">
        <ele>194.32000732422</ele>
        <time>2023-09-30T13:50:28.000Z</time>
      </trkpt>
      <trkpt lat="41.7218" lon="19.97306">
        <ele>194.32000732422</ele>
        <time>2023-09-30T13:50:27.000Z</time>
      </trkpt>
      <trkpt lat="41.72169" lon="19.97316">
        <ele>194.32000732422</ele>
        <time>2023-09-30T13:50:26.000Z</time>
      </trkpt>
      <trkpt lat="41.7216" lon="19.97327">
        <ele>194.32000732422</ele>
        <time>2023-09-30T13:50:25.000Z</time>
      </trkpt>
      <trkpt lat="41.72149" lon="19.97342">
        <ele>194.32000732422</ele>
        <time>2023-09-30T13:50:24.000Z</time>
      </trkpt>
      <trkpt lat="41.72142" lon="19.97355">
        <ele>194.32000732422</ele>
        <time>2023-09-30T13:50:23.000Z</time>
      </trkpt>
      <trkpt lat="41.72139" lon="19.97361">
        <ele>194.32000732422</ele>
        <time>2023-09-30T13:50:22.000Z</time>
      </trkpt>
      <trkpt lat="41.72126" lon="19.97395">
        <ele>194.80000305176</ele>
        <time>2023-09-30T13:50:20.000Z</time>
      </trkpt>
      <trkpt lat="41.72119" lon="19.97406">
        <ele>194.80000305176</ele>
        <time>2023-09-30T13:50:19.000Z</time>
      </trkpt>
      <trkpt lat="41.72114" lon="19.97415">
        <ele>195.2799987793</ele>
        <time>2023-09-30T13:50:18.000Z</time>
      </trkpt>
      <trkpt lat="41.72108" lon="19.97422">
        <ele>195.2799987793</ele>
        <time>2023-09-30T13:50:17.000Z</time>
      </trkpt>
      <trkpt lat="41.72085" lon="19.97445">
        <ele>195.77000427246</ele>
        <time>2023-09-30T13:50:14.000Z</time>
      </trkpt>
      <trkpt lat="41.72078" lon="19.97451">
        <ele>196.25</ele>
        <time>2023-09-30T13:50:13.000Z</time>
      </trkpt>
      <trkpt lat="41.72066" lon="19.97458">
        <ele>196.25</ele>
        <time>2023-09-30T13:50:12.000Z</time>
      </trkpt>
      <trkpt lat="41.72056" lon="19.97463">
        <ele>196.72999572754</ele>
        <time>2023-09-30T13:50:11.000Z</time>
      </trkpt>
      <trkpt lat="41.72044" lon="19.97464">
        <ele>196.72999572754</ele>
        <time>2023-09-30T13:50:10.000Z</time>
      </trkpt>
      <trkpt lat="41.72039" lon="19.97464">
        <ele>196.72999572754</ele>
        <time>2023-09-30T13:50:09.000Z</time>
      </trkpt>
      <trkpt lat="41.71971" lon="19.97457">
        <ele>195.77000427246</ele>
        <time>2023-09-30T13:50:04.000Z</time>
      </trkpt>
      <trkpt lat="41.71952" lon="19.97455">
        <ele>195.2799987793</ele>
        <time>2023-09-30T13:50:03.000Z</time>
      </trkpt>
      <trkpt lat="41.71877" lon="19.97445">
        <ele>192.88000488281</ele>
        <time>2023-09-30T13:49:57.000Z</time>
      </trkpt>
      <trkpt lat="41.71794" lon="19.97435">
        <ele>186.63000488281</ele>
        <time>2023-09-30T13:49:52.000Z</time>
      </trkpt>
      <trkpt lat="41.71681" lon="19.97428">
        <ele>179.41999816895</ele>
        <time>2023-09-30T13:49:46.000Z</time>
      </trkpt>
      <trkpt lat="41.71667" lon="19.97428">
        <ele>177.97999572754</ele>
        <time>2023-09-30T13:49:45.000Z</time>
      </trkpt>
      <trkpt lat="41.71653" lon="19.97432">
        <ele>177.5</ele>
        <time>2023-09-30T13:49:44.000Z</time>
      </trkpt>
      <trkpt lat="41.7164" lon="19.9744">
        <ele>177.02000427246</ele>
        <time>2023-09-30T13:49:43.000Z</time>
      </trkpt>
      <trkpt lat="41.71631" lon="19.97447">
        <ele>177.02000427246</ele>
        <time>2023-09-30T13:49:42.000Z</time>
      </trkpt>
      <trkpt lat="41.71625" lon="19.97453">
        <ele>177.02000427246</ele>
        <time>2023-09-30T13:49:41.000Z</time>
      </trkpt>
      <trkpt lat="41.71562" lon="19.97519">
        <ele>180.38000488281</ele>
        <time>2023-09-30T13:49:37.000Z</time>
      </trkpt>
      <trkpt lat="41.71545" lon="19.97535">
        <ele>181.35000610352</ele>
        <time>2023-09-30T13:49:36.000Z</time>
      </trkpt>
      <trkpt lat="41.71527" lon="19.97549">
        <ele>182.30999755859</ele>
        <time>2023-09-30T13:49:35.000Z</time>
      </trkpt>
      <trkpt lat="41.71512" lon="19.97558">
        <ele>182.78999328613</ele>
        <time>2023-09-30T13:49:34.000Z</time>
      </trkpt>
      <trkpt lat="41.71385" lon="19.97612">
        <ele>181.35000610352</ele>
        <time>2023-09-30T13:49:26.000Z</time>
      </trkpt>
      <trkpt lat="41.71272" lon="19.97663">
        <ele>178.46000671387</ele>
        <time>2023-09-30T13:49:20.000Z</time>
      </trkpt>
      <trkpt lat="41.71258" lon="19.97665">
        <ele>177.97999572754</ele>
        <time>2023-09-30T13:49:19.000Z</time>
      </trkpt>
      <trkpt lat="41.71245" lon="19.97664">
        <ele>177.5</ele>
        <time>2023-09-30T13:49:18.000Z</time>
      </trkpt>
      <trkpt lat="41.71232" lon="19.97662">
        <ele>177.02000427246</ele>
        <time>2023-09-30T13:49:17.000Z</time>
      </trkpt>
      <trkpt lat="41.71175" lon="19.97643">
        <ele>176.05999755859</ele>
        <time>2023-09-30T13:49:13.000Z</time>
      </trkpt>
      <trkpt lat="41.71158" lon="19.97637">
        <ele>175.58000183105</ele>
        <time>2023-09-30T13:49:12.000Z</time>
      </trkpt>
      <trkpt lat="41.71058" lon="19.97606">
        <ele>175.58000183105</ele>
        <time>2023-09-30T13:49:05.000Z</time>
      </trkpt>
      <trkpt lat="41.71048" lon="19.97601">
        <ele>175.58000183105</ele>
        <time>2023-09-30T13:49:04.000Z</time>
      </trkpt>
      <trkpt lat="41.7104" lon="19.97596">
        <ele>175.58000183105</ele>
        <time>2023-09-30T13:49:03.000Z</time>
      </trkpt>
      <trkpt lat="41.71033" lon="19.97589">
        <ele>175.58000183105</ele>
        <time>2023-09-30T13:49:02.000Z</time>
      </trkpt>
      <trkpt lat="41.71029" lon="19.97585">
        <ele>175.58000183105</ele>
        <time>2023-09-30T13:49:01.000Z</time>
      </trkpt>
      <trkpt lat="41.71022" lon="19.97576">
        <ele>175.10000610352</ele>
        <time>2023-09-30T13:49:00.000Z</time>
      </trkpt>
      <trkpt lat="41.71018" lon="19.97571">
        <ele>175.10000610352</ele>
        <time>2023-09-30T13:48:59.000Z</time>
      </trkpt>
      <trkpt lat="41.71011" lon="19.97563">
        <ele>175.10000610352</ele>
        <time>2023-09-30T13:48:58.000Z</time>
      </trkpt>
      <trkpt lat="41.71006" lon="19.97559">
        <ele>174.61999511719</ele>
        <time>2023-09-30T13:48:57.000Z</time>
      </trkpt>
      <trkpt lat="41.71002" lon="19.97557">
        <ele>174.61999511719</ele>
        <time>2023-09-30T13:48:56.000Z</time>
      </trkpt>
      <trkpt lat="41.70998" lon="19.97555">
        <ele>174.61999511719</ele>
        <time>2023-09-30T13:48:55.000Z</time>
      </trkpt>
      <trkpt lat="41.70996" lon="19.97554">
        <ele>174.13999938965</ele>
        <time>2023-09-30T13:48:54.000Z</time>
      </trkpt>
      <trkpt lat="41.70984" lon="19.97547">
        <ele>174.13999938965</ele>
        <time>2023-09-30T13:48:51.000Z</time>
      </trkpt>
      <trkpt lat="41.70978" lon="19.97544">
        <ele>174.13999938965</ele>
        <time>2023-09-30T13:48:50.000Z</time>
      </trkpt>
      <trkpt lat="41.70971" lon="19.97541">
        <ele>174.61999511719</ele>
        <time>2023-09-30T13:48:49.000Z</time>
      </trkpt>
      <trkpt lat="41.7097" lon="19.97541">
        <ele>174.61999511719</ele>
        <time>2023-09-30T13:48:48.000Z</time>
      </trkpt>
      <trkpt lat="41.70963" lon="19.97539">
        <ele>174.61999511719</ele>
        <time>2023-09-30T13:48:47.000Z</time>
      </trkpt>
      <trkpt lat="41.70957" lon="19.97538">
        <ele>174.61999511719</ele>
        <time>2023-09-30T13:48:46.000Z</time>
      </trkpt>
      <trkpt lat="41.70945" lon="19.97535">
        <ele>175.58000183105</ele>
        <time>2023-09-30T13:48:44.000Z</time>
      </trkpt>
      <trkpt lat="41.70937" lon="19.97533">
        <ele>176.53999328613</ele>
        <time>2023-09-30T13:48:43.000Z</time>
      </trkpt>
      <trkpt lat="41.70931" lon="19.97533">
        <ele>177.02000427246</ele>
        <time>2023-09-30T13:48:42.000Z</time>
      </trkpt>
      <trkpt lat="41.70925" lon="19.97534">
        <ele>177.5</ele>
        <time>2023-09-30T13:48:41.000Z</time>
      </trkpt>
      <trkpt lat="41.70918" lon="19.97537">
        <ele>177.97999572754</ele>
        <time>2023-09-30T13:48:40.000Z</time>
      </trkpt>
      <trkpt lat="41.70917" lon="19.97538">
        <ele>177.97999572754</ele>
        <time>2023-09-30T13:48:39.000Z</time>
      </trkpt>
      <trkpt lat="41.70908" lon="19.97543">
        <ele>178.94000244141</ele>
        <time>2023-09-30T13:48:38.000Z</time>
      </trkpt>
      <trkpt lat="41.70897" lon="19.9755">
        <ele>179.89999389648</ele>
        <time>2023-09-30T13:48:37.000Z</time>
      </trkpt>
      <trkpt lat="41.70894" lon="19.97552">
        <ele>179.89999389648</ele>
        <time>2023-09-30T13:48:36.000Z</time>
      </trkpt>
      <trkpt lat="41.70868" lon="19.97571">
        <ele>181.35000610352</ele>
        <time>2023-09-30T13:48:34.000Z</time>
      </trkpt>
      <trkpt lat="41.70838" lon="19.97588">
        <ele>182.78999328613</ele>
        <time>2023-09-30T13:48:31.000Z</time>
      </trkpt>
      <trkpt lat="41.7078" lon="19.97614">
        <ele>181.83000183105</ele>
        <time>2023-09-30T13:48:27.000Z</time>
      </trkpt>
      <trkpt lat="41.70757" lon="19.97624">
        <ele>180.86999511719</ele>
        <time>2023-09-30T13:48:25.000Z</time>
      </trkpt>
      <trkpt lat="41.70696" lon="19.97648">
        <ele>177.97999572754</ele>
        <time>2023-09-30T13:48:21.000Z</time>
      </trkpt>
      <trkpt lat="41.70606" lon="19.97667">
        <ele>172.69000244141</ele>
        <time>2023-09-30T13:48:15.000Z</time>
      </trkpt>
      <trkpt lat="41.70573" lon="19.9767">
        <ele>172.69000244141</ele>
        <time>2023-09-30T13:48:12.000Z</time>
      </trkpt>
      <trkpt lat="41.70566" lon="19.97672">
        <ele>172.69000244141</ele>
        <time>2023-09-30T13:48:11.000Z</time>
      </trkpt>
      <trkpt lat="41.70559" lon="19.97674">
        <ele>172.69000244141</ele>
        <time>2023-09-30T13:48:10.000Z</time>
      </trkpt>
      <trkpt lat="41.70553" lon="19.97678">
        <ele>172.69000244141</ele>
        <time>2023-09-30T13:48:09.000Z</time>
      </trkpt>
      <trkpt lat="41.70547" lon="19.97684">
        <ele>172.69000244141</ele>
        <time>2023-09-30T13:48:08.000Z</time>
      </trkpt>
      <trkpt lat="41.7054" lon="19.97693">
        <ele>173.16999816895</ele>
        <time>2023-09-30T13:48:07.000Z</time>
      </trkpt>
      <trkpt lat="41.70535" lon="19.97701">
        <ele>173.16999816895</ele>
        <time>2023-09-30T13:48:06.000Z</time>
      </trkpt>
      <trkpt lat="41.70515" lon="19.97736">
        <ele>173.16999816895</ele>
        <time>2023-09-30T13:48:03.000Z</time>
      </trkpt>
      <trkpt lat="41.70509" lon="19.97745">
        <ele>173.16999816895</ele>
        <time>2023-09-30T13:48:02.000Z</time>
      </trkpt>
      <trkpt lat="41.70502" lon="19.97754">
        <ele>173.16999816895</ele>
        <time>2023-09-30T13:48:01.000Z</time>
      </trkpt>
      <trkpt lat="41.70493" lon="19.97761">
        <ele>173.66000366211</ele>
        <time>2023-09-30T13:48:00.000Z</time>
      </trkpt>
      <trkpt lat="41.70487" lon="19.97766">
        <ele>173.66000366211</ele>
        <time>2023-09-30T13:47:59.000Z</time>
      </trkpt>
      <trkpt lat="41.70478" lon="19.97771">
        <ele>173.66000366211</ele>
        <time>2023-09-30T13:47:58.000Z</time>
      </trkpt>
      <trkpt lat="41.70468" lon="19.97776">
        <ele>174.13999938965</ele>
        <time>2023-09-30T13:47:57.000Z</time>
      </trkpt>
      <trkpt lat="41.70456" lon="19.97781">
        <ele>173.66000366211</ele>
        <time>2023-09-30T13:47:56.000Z</time>
      </trkpt>
      <trkpt lat="41.70453" lon="19.97782">
        <ele>173.16999816895</ele>
        <time>2023-09-30T13:47:55.000Z</time>
      </trkpt>
      <trkpt lat="41.70435" lon="19.9779">
        <ele>171.25</ele>
        <time>2023-09-30T13:47:47.000Z</time>
      </trkpt>
      <trkpt lat="41.70403" lon="19.97805">
        <ele>169.33000183105</ele>
        <time>2023-09-30T13:47:43.000Z</time>
      </trkpt>
      <trkpt lat="41.70312" lon="19.97849">
        <ele>164.52000427246</ele>
        <time>2023-09-30T13:47:37.000Z</time>
      </trkpt>
      <trkpt lat="41.703" lon="19.97853">
        <ele>163.55999755859</ele>
        <time>2023-09-30T13:47:36.000Z</time>
      </trkpt>
      <trkpt lat="41.70291" lon="19.97856">
        <ele>163.08000183105</ele>
        <time>2023-09-30T13:47:35.000Z</time>
      </trkpt>
      <trkpt lat="41.70277" lon="19.97859">
        <ele>162.11999511719</ele>
        <time>2023-09-30T13:47:34.000Z</time>
      </trkpt>
      <trkpt lat="41.70267" lon="19.97859">
        <ele>161.63999938965</ele>
        <time>2023-09-30T13:47:33.000Z</time>
      </trkpt>
      <trkpt lat="41.70237" lon="19.97858">
        <ele>160.67999267578</ele>
        <time>2023-09-30T13:47:31.000Z</time>
      </trkpt>
      <trkpt lat="41.7022" lon="19.97859">
        <ele>159.7200012207</ele>
        <time>2023-09-30T13:47:30.000Z</time>
      </trkpt>
      <trkpt lat="41.70211" lon="19.9786">
        <ele>159.24000549316</ele>
        <time>2023-09-30T13:47:29.000Z</time>
      </trkpt>
      <trkpt lat="41.70132" lon="19.97877">
        <ele>156.83000183105</ele>
        <time>2023-09-30T13:47:24.000Z</time>
      </trkpt>
      <trkpt lat="41.70118" lon="19.9788">
        <ele>156.83000183105</ele>
        <time>2023-09-30T13:47:23.000Z</time>
      </trkpt>
      <trkpt lat="41.70115" lon="19.97881">
        <ele>156.83000183105</ele>
        <time>2023-09-30T13:47:22.000Z</time>
      </trkpt>
      <trkpt lat="41.70097" lon="19.97884">
        <ele>157.30999755859</ele>
        <time>2023-09-30T13:47:21.000Z</time>
      </trkpt>
      <trkpt lat="41.70089" lon="19.97886">
        <ele>157.78999328613</ele>
        <time>2023-09-30T13:47:20.000Z</time>
      </trkpt>
      <trkpt lat="41.70075" lon="19.9789">
        <ele>158.27000427246</ele>
        <time>2023-09-30T13:47:19.000Z</time>
      </trkpt>
      <trkpt lat="41.70063" lon="19.97895">
        <ele>159.24000549316</ele>
        <time>2023-09-30T13:47:18.000Z</time>
      </trkpt>
      <trkpt lat="41.70052" lon="19.97903">
        <ele>160.67999267578</ele>
        <time>2023-09-30T13:47:17.000Z</time>
      </trkpt>
      <trkpt lat="41.70039" lon="19.97914">
        <ele>161.63999938965</ele>
        <time>2023-09-30T13:47:16.000Z</time>
      </trkpt>
      <trkpt lat="41.70029" lon="19.97926">
        <ele>162.60000610352</ele>
        <time>2023-09-30T13:47:15.000Z</time>
      </trkpt>
      <trkpt lat="41.70021" lon="19.97938">
        <ele>162.60000610352</ele>
        <time>2023-09-30T13:47:14.000Z</time>
      </trkpt>
      <trkpt lat="41.70016" lon="19.97949">
        <ele>163.08000183105</ele>
        <time>2023-09-30T13:47:13.000Z</time>
      </trkpt>
      <trkpt lat="41.7001" lon="19.97964">
        <ele>164.03999328613</ele>
        <time>2023-09-30T13:47:12.000Z</time>
      </trkpt>
      <trkpt lat="41.70004" lon="19.97976">
        <ele>164.52000427246</ele>
        <time>2023-09-30T13:47:11.000Z</time>
      </trkpt>
      <trkpt lat="41.69996" lon="19.97987">
        <ele>165</ele>
        <time>2023-09-30T13:47:10.000Z</time>
      </trkpt>
      <trkpt lat="41.69985" lon="19.97995">
        <ele>165.47999572754</ele>
        <time>2023-09-30T13:47:09.000Z</time>
      </trkpt>
      <trkpt lat="41.69975" lon="19.97999">
        <ele>165.96000671387</ele>
        <time>2023-09-30T13:47:08.000Z</time>
      </trkpt>
      <trkpt lat="41.69962" lon="19.98003">
        <ele>165.96000671387</ele>
        <time>2023-09-30T13:47:07.000Z</time>
      </trkpt>
      <trkpt lat="41.69849" lon="19.9803">
        <ele>164.03999328613</ele>
        <time>2023-09-30T13:47:00.000Z</time>
      </trkpt>
      <trkpt lat="41.69751" lon="19.98024">
        <ele>163.55999755859</ele>
        <time>2023-09-30T13:46:55.000Z</time>
      </trkpt>
      <trkpt lat="41.69626" lon="19.98012">
        <ele>164.52000427246</ele>
        <time>2023-09-30T13:46:49.000Z</time>
      </trkpt>
      <trkpt lat="41.69611" lon="19.98012">
        <ele>164.52000427246</ele>
        <time>2023-09-30T13:46:48.000Z</time>
      </trkpt>
      <trkpt lat="41.69597" lon="19.98014">
        <ele>164.03999328613</ele>
        <time>2023-09-30T13:46:47.000Z</time>
      </trkpt>
      <trkpt lat="41.69589" lon="19.98016">
        <ele>164.03999328613</ele>
        <time>2023-09-30T13:46:46.000Z</time>
      </trkpt>
      <trkpt lat="41.69541" lon="19.98034">
        <ele>162.11999511719</ele>
        <time>2023-09-30T13:46:43.000Z</time>
      </trkpt>
      <trkpt lat="41.69532" lon="19.98042">
        <ele>161.63999938965</ele>
        <time>2023-09-30T13:46:42.000Z</time>
      </trkpt>
      <trkpt lat="41.69523" lon="19.98051">
        <ele>160.67999267578</ele>
        <time>2023-09-30T13:46:41.000Z</time>
      </trkpt>
      <trkpt lat="41.69518" lon="19.9806">
        <ele>160.19999694824</ele>
        <time>2023-09-30T13:46:40.000Z</time>
      </trkpt>
      <trkpt lat="41.69511" lon="19.98076">
        <ele>158.75</ele>
        <time>2023-09-30T13:46:39.000Z</time>
      </trkpt>
      <trkpt lat="41.69509" lon="19.98081">
        <ele>158.75</ele>
        <time>2023-09-30T13:46:38.000Z</time>
      </trkpt>
      <trkpt lat="41.69501" lon="19.98107">
        <ele>156.35000610352</ele>
        <time>2023-09-30T13:46:37.000Z</time>
      </trkpt>
      <trkpt lat="41.69495" lon="19.98121">
        <ele>155.38999938965</ele>
        <time>2023-09-30T13:46:36.000Z</time>
      </trkpt>
      <trkpt lat="41.69487" lon="19.98132">
        <ele>154.42999267578</ele>
        <time>2023-09-30T13:46:35.000Z</time>
      </trkpt>
      <trkpt lat="41.69476" lon="19.98142">
        <ele>153.4700012207</ele>
        <time>2023-09-30T13:46:34.000Z</time>
      </trkpt>
      <trkpt lat="41.69467" lon="19.98148">
        <ele>152.99000549316</ele>
        <time>2023-09-30T13:46:33.000Z</time>
      </trkpt>
      <trkpt lat="41.69453" lon="19.98155">
        <ele>151.53999328613</ele>
        <time>2023-09-30T13:46:32.000Z</time>
      </trkpt>
      <trkpt lat="41.69429" lon="19.98171">
        <ele>150.10000610352</ele>
        <time>2023-09-30T13:46:30.000Z</time>
      </trkpt>
      <trkpt lat="41.69419" lon="19.98176">
        <ele>149.61999511719</ele>
        <time>2023-09-30T13:46:29.000Z</time>
      </trkpt>
      <trkpt lat="41.69409" lon="19.98178">
        <ele>148.66000366211</ele>
        <time>2023-09-30T13:46:28.000Z</time>
      </trkpt>
      <trkpt lat="41.69399" lon="19.98178">
        <ele>148.17999267578</ele>
        <time>2023-09-30T13:46:27.000Z</time>
      </trkpt>
      <trkpt lat="41.69389" lon="19.98176">
        <ele>148.17999267578</ele>
        <time>2023-09-30T13:46:26.000Z</time>
      </trkpt>
      <trkpt lat="41.69322" lon="19.98152">
        <ele>147.69999694824</ele>
        <time>2023-09-30T13:46:20.000Z</time>
      </trkpt>
      <trkpt lat="41.69315" lon="19.98149">
        <ele>147.69999694824</ele>
        <time>2023-09-30T13:46:19.000Z</time>
      </trkpt>
      <trkpt lat="41.69292" lon="19.98134">
        <ele>147.69999694824</ele>
        <time>2023-09-30T13:46:17.000Z</time>
      </trkpt>
      <trkpt lat="41.69277" lon="19.98127">
        <ele>147.69999694824</ele>
        <time>2023-09-30T13:46:16.000Z</time>
      </trkpt>
      <trkpt lat="41.69267" lon="19.98124">
        <ele>147.69999694824</ele>
        <time>2023-09-30T13:46:15.000Z</time>
      </trkpt>
      <trkpt lat="41.6926" lon="19.98124">
        <ele>148.17999267578</ele>
        <time>2023-09-30T13:46:14.000Z</time>
      </trkpt>
      <trkpt lat="41.69246" lon="19.98126">
        <ele>148.66000366211</ele>
        <time>2023-09-30T13:46:13.000Z</time>
      </trkpt>
      <trkpt lat="41.69238" lon="19.98127">
        <ele>149.13999938965</ele>
        <time>2023-09-30T13:46:12.000Z</time>
      </trkpt>
      <trkpt lat="41.69183" lon="19.98144">
        <ele>152.0299987793</ele>
        <time>2023-09-30T13:46:08.000Z</time>
      </trkpt>
      <trkpt lat="41.69176" lon="19.98148">
        <ele>152.50999450684</ele>
        <time>2023-09-30T13:46:07.000Z</time>
      </trkpt>
      <trkpt lat="41.69157" lon="19.98158">
        <ele>152.99000549316</ele>
        <time>2023-09-30T13:46:06.000Z</time>
      </trkpt>
      <trkpt lat="41.69148" lon="19.98165">
        <ele>153.4700012207</ele>
        <time>2023-09-30T13:46:05.000Z</time>
      </trkpt>
      <trkpt lat="41.69081" lon="19.9821">
        <ele>154.91000366211</ele>
        <time>2023-09-30T13:46:00.000Z</time>
      </trkpt>
      <trkpt lat="41.69069" lon="19.98213">
        <ele>154.42999267578</ele>
        <time>2023-09-30T13:45:59.000Z</time>
      </trkpt>
      <trkpt lat="41.69057" lon="19.98213">
        <ele>154.91000366211</ele>
        <time>2023-09-30T13:45:58.000Z</time>
      </trkpt>
      <trkpt lat="41.68918" lon="19.98189">
        <ele>154.91000366211</ele>
        <time>2023-09-30T13:45:50.000Z</time>
      </trkpt>
      <trkpt lat="41.68767" lon="19.98166">
        <ele>153.4700012207</ele>
        <time>2023-09-30T13:45:42.000Z</time>
      </trkpt>
      <trkpt lat="41.68616" lon="19.98144">
        <ele>151.53999328613</ele>
        <time>2023-09-30T13:45:33.000Z</time>
      </trkpt>
      <trkpt lat="41.68512" lon="19.98129">
        <ele>150.10000610352</ele>
        <time>2023-09-30T13:45:26.000Z</time>
      </trkpt>
      <trkpt lat="41.685" lon="19.98127">
        <ele>150.10000610352</ele>
        <time>2023-09-30T13:45:25.000Z</time>
      </trkpt>
      <trkpt lat="41.68489" lon="19.98122">
        <ele>149.61999511719</ele>
        <time>2023-09-30T13:45:24.000Z</time>
      </trkpt>
      <trkpt lat="41.68479" lon="19.98115">
        <ele>149.61999511719</ele>
        <time>2023-09-30T13:45:23.000Z</time>
      </trkpt>
      <trkpt lat="41.68471" lon="19.98108">
        <ele>149.61999511719</ele>
        <time>2023-09-30T13:45:22.000Z</time>
      </trkpt>
      <trkpt lat="41.68461" lon="19.98098">
        <ele>149.13999938965</ele>
        <time>2023-09-30T13:45:21.000Z</time>
      </trkpt>
      <trkpt lat="41.68454" lon="19.98087">
        <ele>149.13999938965</ele>
        <time>2023-09-30T13:45:20.000Z</time>
      </trkpt>
      <trkpt lat="41.68449" lon="19.98081">
        <ele>149.13999938965</ele>
        <time>2023-09-30T13:45:19.000Z</time>
      </trkpt>
      <trkpt lat="41.6844" lon="19.98065">
        <ele>148.66000366211</ele>
        <time>2023-09-30T13:45:18.000Z</time>
      </trkpt>
      <trkpt lat="41.68434" lon="19.98056">
        <ele>148.17999267578</ele>
        <time>2023-09-30T13:45:17.000Z</time>
      </trkpt>
      <trkpt lat="41.68428" lon="19.9805">
        <ele>148.17999267578</ele>
        <time>2023-09-30T13:45:16.000Z</time>
      </trkpt>
      <trkpt lat="41.6842" lon="19.98047">
        <ele>148.17999267578</ele>
        <time>2023-09-30T13:45:15.000Z</time>
      </trkpt>
      <trkpt lat="41.6841" lon="19.98048">
        <ele>148.17999267578</ele>
        <time>2023-09-30T13:45:14.000Z</time>
      </trkpt>
      <trkpt lat="41.68408" lon="19.98049">
        <ele>148.17999267578</ele>
        <time>2023-09-30T13:45:13.000Z</time>
      </trkpt>
      <trkpt lat="41.68378" lon="19.9806">
        <ele>147.69999694824</ele>
        <time>2023-09-30T13:45:11.000Z</time>
      </trkpt>
      <trkpt lat="41.68251" lon="19.98106">
        <ele>145.30000305176</ele>
        <time>2023-09-30T13:45:02.000Z</time>
      </trkpt>
      <trkpt lat="41.6822" lon="19.98118">
        <ele>144.33999633789</ele>
        <time>2023-09-30T13:45:00.000Z</time>
      </trkpt>
      <trkpt lat="41.68113" lon="19.98176">
        <ele>141.92999267578</ele>
        <time>2023-09-30T13:44:52.000Z</time>
      </trkpt>
      <trkpt lat="41.68075" lon="19.982">
        <ele>140.49000549316</ele>
        <time>2023-09-30T13:44:49.000Z</time>
      </trkpt>
      <trkpt lat="41.68067" lon="19.98205">
        <ele>140.00999450684</ele>
        <time>2023-09-30T13:44:48.000Z</time>
      </trkpt>
      <trkpt lat="41.68058" lon="19.98207">
        <ele>139.5299987793</ele>
        <time>2023-09-30T13:44:47.000Z</time>
      </trkpt>
      <trkpt lat="41.68048" lon="19.98208">
        <ele>139.05000305176</ele>
        <time>2023-09-30T13:44:46.000Z</time>
      </trkpt>
      <trkpt lat="41.68045" lon="19.98208">
        <ele>139.05000305176</ele>
        <time>2023-09-30T13:44:45.000Z</time>
      </trkpt>
      <trkpt lat="41.68014" lon="19.98207">
        <ele>137.13000488281</ele>
        <time>2023-09-30T13:44:43.000Z</time>
      </trkpt>
      <trkpt lat="41.68003" lon="19.9821">
        <ele>137.13000488281</ele>
        <time>2023-09-30T13:44:42.000Z</time>
      </trkpt>
      <trkpt lat="41.67993" lon="19.98217">
        <ele>136.63999938965</ele>
        <time>2023-09-30T13:44:41.000Z</time>
      </trkpt>
      <trkpt lat="41.67984" lon="19.98226">
        <ele>136.63999938965</ele>
        <time>2023-09-30T13:44:40.000Z</time>
      </trkpt>
      <trkpt lat="41.67975" lon="19.98237">
        <ele>136.16000366211</ele>
        <time>2023-09-30T13:44:39.000Z</time>
      </trkpt>
      <trkpt lat="41.67967" lon="19.98251">
        <ele>135.67999267578</ele>
        <time>2023-09-30T13:44:38.000Z</time>
      </trkpt>
      <trkpt lat="41.67953" lon="19.98276">
        <ele>135.67999267578</ele>
        <time>2023-09-30T13:44:36.000Z</time>
      </trkpt>
      <trkpt lat="41.67903" lon="19.98363">
        <ele>134.7200012207</ele>
        <time>2023-09-30T13:44:31.000Z</time>
      </trkpt>
      <trkpt lat="41.67833" lon="19.9848">
        <ele>134.7200012207</ele>
        <time>2023-09-30T13:44:26.000Z</time>
      </trkpt>
      <trkpt lat="41.67821" lon="19.98495">
        <ele>134.7200012207</ele>
        <time>2023-09-30T13:44:25.000Z</time>
      </trkpt>
      <trkpt lat="41.67808" lon="19.98507">
        <ele>134.7200012207</ele>
        <time>2023-09-30T13:44:24.000Z</time>
      </trkpt>
      <trkpt lat="41.67795" lon="19.98514">
        <ele>135.19999694824</ele>
        <time>2023-09-30T13:44:23.000Z</time>
      </trkpt>
      <trkpt lat="41.67783" lon="19.98518">
        <ele>135.19999694824</ele>
        <time>2023-09-30T13:44:22.000Z</time>
      </trkpt>
      <trkpt lat="41.67766" lon="19.98522">
        <ele>135.67999267578</ele>
        <time>2023-09-30T13:44:21.000Z</time>
      </trkpt>
      <trkpt lat="41.67753" lon="19.98523">
        <ele>135.67999267578</ele>
        <time>2023-09-30T13:44:20.000Z</time>
      </trkpt>
      <trkpt lat="41.67741" lon="19.98521">
        <ele>135.67999267578</ele>
        <time>2023-09-30T13:44:19.000Z</time>
      </trkpt>
      <trkpt lat="41.67729" lon="19.98516">
        <ele>135.67999267578</ele>
        <time>2023-09-30T13:44:18.000Z</time>
      </trkpt>
      <trkpt lat="41.6772" lon="19.98509">
        <ele>135.67999267578</ele>
        <time>2023-09-30T13:44:17.000Z</time>
      </trkpt>
      <trkpt lat="41.67718" lon="19.98507">
        <ele>135.67999267578</ele>
        <time>2023-09-30T13:44:16.000Z</time>
      </trkpt>
      <trkpt lat="41.67653" lon="19.98449">
        <ele>135.19999694824</ele>
        <time>2023-09-30T13:44:10.000Z</time>
      </trkpt>
      <trkpt lat="41.6759" lon="19.98388">
        <ele>134.24000549316</ele>
        <time>2023-09-30T13:44:02.000Z</time>
      </trkpt>
      <trkpt lat="41.67582" lon="19.9838">
        <ele>134.24000549316</ele>
        <time>2023-09-30T13:44:01.000Z</time>
      </trkpt>
      <trkpt lat="41.67575" lon="19.98369">
        <ele>134.24000549316</ele>
        <time>2023-09-30T13:44:00.000Z</time>
      </trkpt>
      <trkpt lat="41.6757" lon="19.98358">
        <ele>133.75999450684</ele>
        <time>2023-09-30T13:43:59.000Z</time>
      </trkpt>
      <trkpt lat="41.67567" lon="19.98345">
        <ele>133.75999450684</ele>
        <time>2023-09-30T13:43:58.000Z</time>
      </trkpt>
      <trkpt lat="41.67566" lon="19.9834">
        <ele>133.75999450684</ele>
        <time>2023-09-30T13:43:57.000Z</time>
      </trkpt>
      <trkpt lat="41.67563" lon="19.98317">
        <ele>133.75999450684</ele>
        <time>2023-09-30T13:43:56.000Z</time>
      </trkpt>
      <trkpt lat="41.67561" lon="19.98304">
        <ele>133.75999450684</ele>
        <time>2023-09-30T13:43:55.000Z</time>
      </trkpt>
      <trkpt lat="41.67558" lon="19.98291">
        <ele>133.75999450684</ele>
        <time>2023-09-30T13:43:54.000Z</time>
      </trkpt>
      <trkpt lat="41.67553" lon="19.98278">
        <ele>133.2799987793</ele>
        <time>2023-09-30T13:43:53.000Z</time>
      </trkpt>
      <trkpt lat="41.67547" lon="19.98266">
        <ele>132.80000305176</ele>
        <time>2023-09-30T13:43:52.000Z</time>
      </trkpt>
      <trkpt lat="41.67539" lon="19.98254">
        <ele>133.2799987793</ele>
        <time>2023-09-30T13:43:51.000Z</time>
      </trkpt>
      <trkpt lat="41.6753" lon="19.98244">
        <ele>133.75999450684</ele>
        <time>2023-09-30T13:43:50.000Z</time>
      </trkpt>
      <trkpt lat="41.67526" lon="19.98239">
        <ele>133.75999450684</ele>
        <time>2023-09-30T13:43:49.000Z</time>
      </trkpt>
      <trkpt lat="41.67509" lon="19.98223">
        <ele>134.24000549316</ele>
        <time>2023-09-30T13:43:47.000Z</time>
      </trkpt>
      <trkpt lat="41.67489" lon="19.98203">
        <ele>135.67999267578</ele>
        <time>2023-09-30T13:43:46.000Z</time>
      </trkpt>
      <trkpt lat="41.6748" lon="19.98194">
        <ele>135.67999267578</ele>
        <time>2023-09-30T13:43:45.000Z</time>
      </trkpt>
      <trkpt lat="41.67471" lon="19.98182">
        <ele>136.16000366211</ele>
        <time>2023-09-30T13:43:44.000Z</time>
      </trkpt>
      <trkpt lat="41.67464" lon="19.98172">
        <ele>136.63999938965</ele>
        <time>2023-09-30T13:43:43.000Z</time>
      </trkpt>
      <trkpt lat="41.6746" lon="19.98163">
        <ele>137.13000488281</ele>
        <time>2023-09-30T13:43:42.000Z</time>
      </trkpt>
      <trkpt lat="41.67455" lon="19.98149">
        <ele>136.63999938965</ele>
        <time>2023-09-30T13:43:41.000Z</time>
      </trkpt>
      <trkpt lat="41.67451" lon="19.9814">
        <ele>137.13000488281</ele>
        <time>2023-09-30T13:43:40.000Z</time>
      </trkpt>
      <trkpt lat="41.67445" lon="19.98126">
        <ele>136.63999938965</ele>
        <time>2023-09-30T13:43:39.000Z</time>
      </trkpt>
      <trkpt lat="41.67442" lon="19.98113">
        <ele>136.63999938965</ele>
        <time>2023-09-30T13:43:38.000Z</time>
      </trkpt>
      <trkpt lat="41.6744" lon="19.98102">
        <ele>136.63999938965</ele>
        <time>2023-09-30T13:43:37.000Z</time>
      </trkpt>
      <trkpt lat="41.67435" lon="19.98057">
        <ele>136.63999938965</ele>
        <time>2023-09-30T13:43:34.000Z</time>
      </trkpt>
      <trkpt lat="41.67432" lon="19.98031">
        <ele>137.13000488281</ele>
        <time>2023-09-30T13:43:32.000Z</time>
      </trkpt>
      <trkpt lat="41.67431" lon="19.98018">
        <ele>137.13000488281</ele>
        <time>2023-09-30T13:43:31.000Z</time>
      </trkpt>
      <trkpt lat="41.67429" lon="19.98007">
        <ele>137.61000061035</ele>
        <time>2023-09-30T13:43:30.000Z</time>
      </trkpt>
      <trkpt lat="41.67425" lon="19.97996">
        <ele>137.13000488281</ele>
        <time>2023-09-30T13:43:29.000Z</time>
      </trkpt>
      <trkpt lat="41.67423" lon="19.9799">
        <ele>137.13000488281</ele>
        <time>2023-09-30T13:43:28.000Z</time>
      </trkpt>
      <trkpt lat="41.67417" lon="19.97974">
        <ele>137.13000488281</ele>
        <time>2023-09-30T13:43:27.000Z</time>
      </trkpt>
      <trkpt lat="41.67412" lon="19.97965">
        <ele>137.13000488281</ele>
        <time>2023-09-30T13:43:26.000Z</time>
      </trkpt>
      <trkpt lat="41.67405" lon="19.97957">
        <ele>137.13000488281</ele>
        <time>2023-09-30T13:43:25.000Z</time>
      </trkpt>
      <trkpt lat="41.67401" lon="19.97952">
        <ele>137.13000488281</ele>
        <time>2023-09-30T13:43:24.000Z</time>
      </trkpt>
      <trkpt lat="41.67395" lon="19.97946">
        <ele>136.63999938965</ele>
        <time>2023-09-30T13:43:23.000Z</time>
      </trkpt>
      <trkpt lat="41.67388" lon="19.97939">
        <ele>137.13000488281</ele>
        <time>2023-09-30T13:43:22.000Z</time>
      </trkpt>
      <trkpt lat="41.67383" lon="19.97934">
        <ele>137.13000488281</ele>
        <time>2023-09-30T13:43:21.000Z</time>
      </trkpt>
      <trkpt lat="41.67378" lon="19.97929">
        <ele>136.63999938965</ele>
        <time>2023-09-30T13:43:20.000Z</time>
      </trkpt>
      <trkpt lat="41.67355" lon="19.97906">
        <ele>136.63999938965</ele>
        <time>2023-09-30T13:43:18.000Z</time>
      </trkpt>
      <trkpt lat="41.67345" lon="19.97896">
        <ele>136.63999938965</ele>
        <time>2023-09-30T13:43:17.000Z</time>
      </trkpt>
      <trkpt lat="41.67335" lon="19.97884">
        <ele>136.63999938965</ele>
        <time>2023-09-30T13:43:16.000Z</time>
      </trkpt>
      <trkpt lat="41.67329" lon="19.97875">
        <ele>136.63999938965</ele>
        <time>2023-09-30T13:43:15.000Z</time>
      </trkpt>
      <trkpt lat="41.67316" lon="19.97852">
        <ele>136.16000366211</ele>
        <time>2023-09-30T13:43:14.000Z</time>
      </trkpt>
      <trkpt lat="41.67309" lon="19.97836">
        <ele>135.67999267578</ele>
        <time>2023-09-30T13:43:13.000Z</time>
      </trkpt>
      <trkpt lat="41.67305" lon="19.97824">
        <ele>135.67999267578</ele>
        <time>2023-09-30T13:43:12.000Z</time>
      </trkpt>
      <trkpt lat="41.67298" lon="19.97802">
        <ele>135.67999267578</ele>
        <time>2023-09-30T13:43:11.000Z</time>
      </trkpt>
      <trkpt lat="41.67288" lon="19.97769">
        <ele>135.67999267578</ele>
        <time>2023-09-30T13:43:09.000Z</time>
      </trkpt>
      <trkpt lat="41.67285" lon="19.97755">
        <ele>135.67999267578</ele>
        <time>2023-09-30T13:43:08.000Z</time>
      </trkpt>
      <trkpt lat="41.67283" lon="19.97742">
        <ele>136.16000366211</ele>
        <time>2023-09-30T13:43:07.000Z</time>
      </trkpt>
      <trkpt lat="41.67283" lon="19.97732">
        <ele>136.63999938965</ele>
        <time>2023-09-30T13:43:06.000Z</time>
      </trkpt>
      <trkpt lat="41.67284" lon="19.9772">
        <ele>136.63999938965</ele>
        <time>2023-09-30T13:43:05.000Z</time>
      </trkpt>
      <trkpt lat="41.67284" lon="19.97708">
        <ele>137.13000488281</ele>
        <time>2023-09-30T13:43:04.000Z</time>
      </trkpt>
      <trkpt lat="41.67284" lon="19.97698">
        <ele>137.13000488281</ele>
        <time>2023-09-30T13:43:03.000Z</time>
      </trkpt>
      <trkpt lat="41.67282" lon="19.97676">
        <ele>137.13000488281</ele>
        <time>2023-09-30T13:43:01.000Z</time>
      </trkpt>
      <trkpt lat="41.67285" lon="19.97577">
        <ele>143.36999511719</ele>
        <time>2023-09-30T13:42:56.000Z</time>
      </trkpt>
      <trkpt lat="41.67289" lon="19.97531">
        <ele>146.25999450684</ele>
        <time>2023-09-30T13:42:53.000Z</time>
      </trkpt>
      <trkpt lat="41.67291" lon="19.97514">
        <ele>147.2200012207</ele>
        <time>2023-09-30T13:42:52.000Z</time>
      </trkpt>
      <trkpt lat="41.67292" lon="19.9751">
        <ele>147.69999694824</ele>
        <time>2023-09-30T13:42:51.000Z</time>
      </trkpt>
      <trkpt lat="41.67293" lon="19.97484">
        <ele>148.17999267578</ele>
        <time>2023-09-30T13:42:50.000Z</time>
      </trkpt>
      <trkpt lat="41.67294" lon="19.9748">
        <ele>148.66000366211</ele>
        <time>2023-09-30T13:42:49.000Z</time>
      </trkpt>
      <trkpt lat="41.67291" lon="19.97423">
        <ele>149.13999938965</ele>
        <time>2023-09-30T13:42:46.000Z</time>
      </trkpt>
      <trkpt lat="41.6729" lon="19.97409">
        <ele>149.61999511719</ele>
        <time>2023-09-30T13:42:45.000Z</time>
      </trkpt>
      <trkpt lat="41.67287" lon="19.97396">
        <ele>149.13999938965</ele>
        <time>2023-09-30T13:42:44.000Z</time>
      </trkpt>
      <trkpt lat="41.67284" lon="19.97387">
        <ele>148.66000366211</ele>
        <time>2023-09-30T13:42:43.000Z</time>
      </trkpt>
      <trkpt lat="41.6728" lon="19.97377">
        <ele>148.17999267578</ele>
        <time>2023-09-30T13:42:42.000Z</time>
      </trkpt>
      <trkpt lat="41.67267" lon="19.97351">
        <ele>146.25999450684</ele>
        <time>2023-09-30T13:42:41.000Z</time>
      </trkpt>
      <trkpt lat="41.67249" lon="19.97324">
        <ele>143.36999511719</ele>
        <time>2023-09-30T13:42:39.000Z</time>
      </trkpt>
      <trkpt lat="41.67237" lon="19.97313">
        <ele>142.41000366211</ele>
        <time>2023-09-30T13:42:38.000Z</time>
      </trkpt>
      <trkpt lat="41.67223" lon="19.97307">
        <ele>141.92999267578</ele>
        <time>2023-09-30T13:42:37.000Z</time>
      </trkpt>
      <trkpt lat="41.67208" lon="19.97304">
        <ele>140.9700012207</ele>
        <time>2023-09-30T13:42:36.000Z</time>
      </trkpt>
      <trkpt lat="41.67191" lon="19.97303">
        <ele>140.49000549316</ele>
        <time>2023-09-30T13:42:35.000Z</time>
      </trkpt>
      <trkpt lat="41.67176" lon="19.97306">
        <ele>140.00999450684</ele>
        <time>2023-09-30T13:42:34.000Z</time>
      </trkpt>
      <trkpt lat="41.67161" lon="19.97312">
        <ele>139.5299987793</ele>
        <time>2023-09-30T13:42:33.000Z</time>
      </trkpt>
      <trkpt lat="41.67146" lon="19.97322">
        <ele>139.5299987793</ele>
        <time>2023-09-30T13:42:32.000Z</time>
      </trkpt>
      <trkpt lat="41.67139" lon="19.97326">
        <ele>139.5299987793</ele>
        <time>2023-09-30T13:42:31.000Z</time>
      </trkpt>
      <trkpt lat="41.67021" lon="19.9742">
        <ele>139.05000305176</ele>
        <time>2023-09-30T13:42:25.000Z</time>
      </trkpt>
      <trkpt lat="41.67004" lon="19.97431">
        <ele>138.57000732422</ele>
        <time>2023-09-30T13:42:24.000Z</time>
      </trkpt>
      <trkpt lat="41.66994" lon="19.97436">
        <ele>138.57000732422</ele>
        <time>2023-09-30T13:42:23.000Z</time>
      </trkpt>
      <trkpt lat="41.66975" lon="19.97445">
        <ele>139.05000305176</ele>
        <time>2023-09-30T13:42:22.000Z</time>
      </trkpt>
      <trkpt lat="41.66963" lon="19.97452">
        <ele>139.05000305176</ele>
        <time>2023-09-30T13:42:21.000Z</time>
      </trkpt>
      <trkpt lat="41.66952" lon="19.97462">
        <ele>139.05000305176</ele>
        <time>2023-09-30T13:42:20.000Z</time>
      </trkpt>
      <trkpt lat="41.6694" lon="19.97478">
        <ele>139.05000305176</ele>
        <time>2023-09-30T13:42:19.000Z</time>
      </trkpt>
      <trkpt lat="41.66934" lon="19.97488">
        <ele>139.05000305176</ele>
        <time>2023-09-30T13:42:18.000Z</time>
      </trkpt>
      <trkpt lat="41.66921" lon="19.97512">
        <ele>138.57000732422</ele>
        <time>2023-09-30T13:42:17.000Z</time>
      </trkpt>
      <trkpt lat="41.66905" lon="19.97552">
        <ele>137.61000061035</ele>
        <time>2023-09-30T13:42:15.000Z</time>
      </trkpt>
      <trkpt lat="41.66896" lon="19.97578">
        <ele>137.61000061035</ele>
        <time>2023-09-30T13:42:14.000Z</time>
      </trkpt>
      <trkpt lat="41.66886" lon="19.97597">
        <ele>137.13000488281</ele>
        <time>2023-09-30T13:42:13.000Z</time>
      </trkpt>
      <trkpt lat="41.66874" lon="19.97614">
        <ele>137.13000488281</ele>
        <time>2023-09-30T13:42:12.000Z</time>
      </trkpt>
      <trkpt lat="41.6686" lon="19.97627">
        <ele>137.13000488281</ele>
        <time>2023-09-30T13:42:11.000Z</time>
      </trkpt>
      <trkpt lat="41.66849" lon="19.97636">
        <ele>137.13000488281</ele>
        <time>2023-09-30T13:42:10.000Z</time>
      </trkpt>
      <trkpt lat="41.66826" lon="19.9765">
        <ele>137.61000061035</ele>
        <time>2023-09-30T13:42:09.000Z</time>
      </trkpt>
      <trkpt lat="41.66812" lon="19.9766">
        <ele>137.61000061035</ele>
        <time>2023-09-30T13:42:08.000Z</time>
      </trkpt>
      <trkpt lat="41.66798" lon="19.97674">
        <ele>137.61000061035</ele>
        <time>2023-09-30T13:42:07.000Z</time>
      </trkpt>
      <trkpt lat="41.66786" lon="19.97689">
        <ele>137.61000061035</ele>
        <time>2023-09-30T13:42:06.000Z</time>
      </trkpt>
      <trkpt lat="41.66775" lon="19.97707">
        <ele>137.61000061035</ele>
        <time>2023-09-30T13:42:05.000Z</time>
      </trkpt>
      <trkpt lat="41.66766" lon="19.97728">
        <ele>137.61000061035</ele>
        <time>2023-09-30T13:42:04.000Z</time>
      </trkpt>
      <trkpt lat="41.66763" lon="19.97736">
        <ele>137.61000061035</ele>
        <time>2023-09-30T13:42:03.000Z</time>
      </trkpt>
      <trkpt lat="41.66731" lon="19.97868">
        <ele>137.61000061035</ele>
        <time>2023-09-30T13:41:58.000Z</time>
      </trkpt>
      <trkpt lat="41.66723" lon="19.97898">
        <ele>137.61000061035</ele>
        <time>2023-09-30T13:41:57.000Z</time>
      </trkpt>
      <trkpt lat="41.66714" lon="19.97921">
        <ele>137.61000061035</ele>
        <time>2023-09-30T13:41:56.000Z</time>
      </trkpt>
      <trkpt lat="41.66702" lon="19.97941">
        <ele>137.61000061035</ele>
        <time>2023-09-30T13:41:55.000Z</time>
      </trkpt>
      <trkpt lat="41.66688" lon="19.97959">
        <ele>137.61000061035</ele>
        <time>2023-09-30T13:41:54.000Z</time>
      </trkpt>
      <trkpt lat="41.66674" lon="19.97975">
        <ele>137.61000061035</ele>
        <time>2023-09-30T13:41:53.000Z</time>
      </trkpt>
      <trkpt lat="41.66659" lon="19.97987">
        <ele>137.61000061035</ele>
        <time>2023-09-30T13:41:52.000Z</time>
      </trkpt>
      <trkpt lat="41.66644" lon="19.97997">
        <ele>137.13000488281</ele>
        <time>2023-09-30T13:41:51.000Z</time>
      </trkpt>
      <trkpt lat="41.66628" lon="19.98002">
        <ele>137.13000488281</ele>
        <time>2023-09-30T13:41:50.000Z</time>
      </trkpt>
      <trkpt lat="41.66611" lon="19.98004">
        <ele>136.63999938965</ele>
        <time>2023-09-30T13:41:49.000Z</time>
      </trkpt>
      <trkpt lat="41.66534" lon="19.98001">
        <ele>136.63999938965</ele>
        <time>2023-09-30T13:41:45.000Z</time>
      </trkpt>
      <trkpt lat="41.66404" lon="19.98015">
        <ele>136.63999938965</ele>
        <time>2023-09-30T13:41:38.000Z</time>
      </trkpt>
      <trkpt lat="41.6637" lon="19.98027">
        <ele>136.63999938965</ele>
        <time>2023-09-30T13:41:36.000Z</time>
      </trkpt>
      <trkpt lat="41.6635" lon="19.98038">
        <ele>137.13000488281</ele>
        <time>2023-09-30T13:41:34.000Z</time>
      </trkpt>
      <trkpt lat="41.66239" lon="19.98102">
        <ele>139.5299987793</ele>
        <time>2023-09-30T13:41:28.000Z</time>
      </trkpt>
      <trkpt lat="41.66133" lon="19.98163">
        <ele>142.88999938965</ele>
        <time>2023-09-30T13:41:22.000Z</time>
      </trkpt>
      <trkpt lat="41.6612" lon="19.98173">
        <ele>143.36999511719</ele>
        <time>2023-09-30T13:41:21.000Z</time>
      </trkpt>
      <trkpt lat="41.66109" lon="19.98184">
        <ele>143.85000610352</ele>
        <time>2023-09-30T13:41:20.000Z</time>
      </trkpt>
      <trkpt lat="41.661" lon="19.98196">
        <ele>144.82000732422</ele>
        <time>2023-09-30T13:41:19.000Z</time>
      </trkpt>
      <trkpt lat="41.66081" lon="19.98228">
        <ele>146.74000549316</ele>
        <time>2023-09-30T13:41:16.000Z</time>
      </trkpt>
      <trkpt lat="41.66063" lon="19.98263">
        <ele>148.66000366211</ele>
        <time>2023-09-30T13:41:14.000Z</time>
      </trkpt>
      <trkpt lat="41.66039" lon="19.98321">
        <ele>151.05999755859</ele>
        <time>2023-09-30T13:41:11.000Z</time>
      </trkpt>
      <trkpt lat="41.66029" lon="19.98344">
        <ele>152.0299987793</ele>
        <time>2023-09-30T13:41:10.000Z</time>
      </trkpt>
      <trkpt lat="41.66021" lon="19.9836">
        <ele>152.50999450684</ele>
        <time>2023-09-30T13:41:09.000Z</time>
      </trkpt>
      <trkpt lat="41.6601" lon="19.98377">
        <ele>153.94999694824</ele>
        <time>2023-09-30T13:41:08.000Z</time>
      </trkpt>
      <trkpt lat="41.66007" lon="19.98381">
        <ele>154.42999267578</ele>
        <time>2023-09-30T13:41:07.000Z</time>
      </trkpt>
      <trkpt lat="41.65994" lon="19.98399">
        <ele>156.35000610352</ele>
        <time>2023-09-30T13:41:06.000Z</time>
      </trkpt>
      <trkpt lat="41.65983" lon="19.98412">
        <ele>157.30999755859</ele>
        <time>2023-09-30T13:41:05.000Z</time>
      </trkpt>
      <trkpt lat="41.65977" lon="19.98417">
        <ele>158.27000427246</ele>
        <time>2023-09-30T13:41:04.000Z</time>
      </trkpt>
      <trkpt lat="41.65963" lon="19.98427">
        <ele>159.7200012207</ele>
        <time>2023-09-30T13:41:03.000Z</time>
      </trkpt>
      <trkpt lat="41.65952" lon="19.98438">
        <ele>160.67999267578</ele>
        <time>2023-09-30T13:41:02.000Z</time>
      </trkpt>
      <trkpt lat="41.65943" lon="19.9845">
        <ele>161.16000366211</ele>
        <time>2023-09-30T13:41:01.000Z</time>
      </trkpt>
      <trkpt lat="41.65937" lon="19.98465">
        <ele>162.11999511719</ele>
        <time>2023-09-30T13:41:00.000Z</time>
      </trkpt>
      <trkpt lat="41.65933" lon="19.98478">
        <ele>162.60000610352</ele>
        <time>2023-09-30T13:40:59.000Z</time>
      </trkpt>
      <trkpt lat="41.65911" lon="19.9858">
        <ele>166.44999694824</ele>
        <time>2023-09-30T13:40:53.000Z</time>
      </trkpt>
      <trkpt lat="41.65905" lon="19.98603">
        <ele>166.92999267578</ele>
        <time>2023-09-30T13:40:51.000Z</time>
      </trkpt>
      <trkpt lat="41.65902" lon="19.98615">
        <ele>166.92999267578</ele>
        <time>2023-09-30T13:40:50.000Z</time>
      </trkpt>
      <trkpt lat="41.65901" lon="19.98626">
        <ele>166.92999267578</ele>
        <time>2023-09-30T13:40:49.000Z</time>
      </trkpt>
      <trkpt lat="41.65901" lon="19.98635">
        <ele>166.92999267578</ele>
        <time>2023-09-30T13:40:48.000Z</time>
      </trkpt>
      <trkpt lat="41.659" lon="19.98661">
        <ele>166.44999694824</ele>
        <time>2023-09-30T13:40:46.000Z</time>
      </trkpt>
      <trkpt lat="41.65901" lon="19.9867">
        <ele>165.96000671387</ele>
        <time>2023-09-30T13:40:45.000Z</time>
      </trkpt>
      <trkpt lat="41.65902" lon="19.98683">
        <ele>165.47999572754</ele>
        <time>2023-09-30T13:40:44.000Z</time>
      </trkpt>
      <trkpt lat="41.65902" lon="19.98693">
        <ele>165</ele>
        <time>2023-09-30T13:40:43.000Z</time>
      </trkpt>
      <trkpt lat="41.659" lon="19.98702">
        <ele>164.52000427246</ele>
        <time>2023-09-30T13:40:42.000Z</time>
      </trkpt>
      <trkpt lat="41.65897" lon="19.98712">
        <ele>164.03999328613</ele>
        <time>2023-09-30T13:40:41.000Z</time>
      </trkpt>
      <trkpt lat="41.65891" lon="19.98724">
        <ele>163.55999755859</ele>
        <time>2023-09-30T13:40:40.000Z</time>
      </trkpt>
      <trkpt lat="41.65886" lon="19.98733">
        <ele>163.55999755859</ele>
        <time>2023-09-30T13:40:39.000Z</time>
      </trkpt>
      <trkpt lat="41.65881" lon="19.98741">
        <ele>163.55999755859</ele>
        <time>2023-09-30T13:40:38.000Z</time>
      </trkpt>
      <trkpt lat="41.65854" lon="19.98774">
        <ele>164.03999328613</ele>
        <time>2023-09-30T13:40:36.000Z</time>
      </trkpt>
      <trkpt lat="41.65842" lon="19.98791">
        <ele>164.52000427246</ele>
        <time>2023-09-30T13:40:35.000Z</time>
      </trkpt>
      <trkpt lat="41.65834" lon="19.98807">
        <ele>164.52000427246</ele>
        <time>2023-09-30T13:40:34.000Z</time>
      </trkpt>
      <trkpt lat="41.6583" lon="19.98819">
        <ele>165</ele>
        <time>2023-09-30T13:40:33.000Z</time>
      </trkpt>
      <trkpt lat="41.65823" lon="19.98846">
        <ele>165.96000671387</ele>
        <time>2023-09-30T13:40:32.000Z</time>
      </trkpt>
      <trkpt lat="41.65814" lon="19.98871">
        <ele>166.92999267578</ele>
        <time>2023-09-30T13:40:31.000Z</time>
      </trkpt>
      <trkpt lat="41.65786" lon="19.98938">
        <ele>167.88999938965</ele>
        <time>2023-09-30T13:40:28.000Z</time>
      </trkpt>
      <trkpt lat="41.6578" lon="19.98959">
        <ele>167.88999938965</ele>
        <time>2023-09-30T13:40:27.000Z</time>
      </trkpt>
      <trkpt lat="41.65777" lon="19.98972">
        <ele>167.88999938965</ele>
        <time>2023-09-30T13:40:26.000Z</time>
      </trkpt>
      <trkpt lat="41.65774" lon="19.98988">
        <ele>167.88999938965</ele>
        <time>2023-09-30T13:40:25.000Z</time>
      </trkpt>
      <trkpt lat="41.65764" lon="19.99152">
        <ele>167.41000366211</ele>
        <time>2023-09-30T13:40:18.000Z</time>
      </trkpt>
      <trkpt lat="41.65764" lon="19.99178">
        <ele>167.41000366211</ele>
        <time>2023-09-30T13:40:17.000Z</time>
      </trkpt>
      <trkpt lat="41.65766" lon="19.99201">
        <ele>167.88999938965</ele>
        <time>2023-09-30T13:40:16.000Z</time>
      </trkpt>
      <trkpt lat="41.6577" lon="19.99219">
        <ele>168.36999511719</ele>
        <time>2023-09-30T13:40:15.000Z</time>
      </trkpt>
      <trkpt lat="41.65773" lon="19.99228">
        <ele>168.36999511719</ele>
        <time>2023-09-30T13:40:14.000Z</time>
      </trkpt>
      <trkpt lat="41.65807" lon="19.99342">
        <ele>170.77000427246</ele>
        <time>2023-09-30T13:40:10.000Z</time>
      </trkpt>
      <trkpt lat="41.65828" lon="19.99415">
        <ele>170.77000427246</ele>
        <time>2023-09-30T13:40:07.000Z</time>
      </trkpt>
      <trkpt lat="41.65832" lon="19.99435">
        <ele>170.77000427246</ele>
        <time>2023-09-30T13:40:06.000Z</time>
      </trkpt>
      <trkpt lat="41.65833" lon="19.9945">
        <ele>170.77000427246</ele>
        <time>2023-09-30T13:40:05.000Z</time>
      </trkpt>
      <trkpt lat="41.65835" lon="19.9948">
        <ele>170.77000427246</ele>
        <time>2023-09-30T13:40:04.000Z</time>
      </trkpt>
      <trkpt lat="41.65833" lon="19.99658">
        <ele>171.72999572754</ele>
        <time>2023-09-30T13:39:57.000Z</time>
      </trkpt>
      <trkpt lat="41.65835" lon="19.99689">
        <ele>172.21000671387</ele>
        <time>2023-09-30T13:39:56.000Z</time>
      </trkpt>
      <trkpt lat="41.65844" lon="19.99802">
        <ele>173.66000366211</ele>
        <time>2023-09-30T13:39:52.000Z</time>
      </trkpt>
      <trkpt lat="41.65843" lon="19.99821">
        <ele>173.66000366211</ele>
        <time>2023-09-30T13:39:51.000Z</time>
      </trkpt>
      <trkpt lat="41.65838" lon="19.99881">
        <ele>175.10000610352</ele>
        <time>2023-09-30T13:39:49.000Z</time>
      </trkpt>
      <trkpt lat="41.65808" lon="20.00049">
        <ele>177.5</ele>
        <time>2023-09-30T13:39:43.000Z</time>
      </trkpt>
      <trkpt lat="41.65802" lon="20.0007">
        <ele>177.97999572754</ele>
        <time>2023-09-30T13:39:42.000Z</time>
      </trkpt>
      <trkpt lat="41.65798" lon="20.00082">
        <ele>178.46000671387</ele>
        <time>2023-09-30T13:39:41.000Z</time>
      </trkpt>
      <trkpt lat="41.65765" lon="20.00164">
        <ele>180.86999511719</ele>
        <time>2023-09-30T13:39:38.000Z</time>
      </trkpt>
      <trkpt lat="41.65758" lon="20.00189">
        <ele>181.35000610352</ele>
        <time>2023-09-30T13:39:37.000Z</time>
      </trkpt>
      <trkpt lat="41.65756" lon="20.00196">
        <ele>181.35000610352</ele>
        <time>2023-09-30T13:39:36.000Z</time>
      </trkpt>
      <trkpt lat="41.65748" lon="20.00243">
        <ele>182.78999328613</ele>
        <time>2023-09-30T13:39:34.000Z</time>
      </trkpt>
      <trkpt lat="41.65743" lon="20.00266">
        <ele>183.27000427246</ele>
        <time>2023-09-30T13:39:33.000Z</time>
      </trkpt>
      <trkpt lat="41.65721" lon="20.00341">
        <ele>185.66999816895</ele>
        <time>2023-09-30T13:39:30.000Z</time>
      </trkpt>
      <trkpt lat="41.65716" lon="20.00363">
        <ele>186.14999389648</ele>
        <time>2023-09-30T13:39:29.000Z</time>
      </trkpt>
      <trkpt lat="41.65715" lon="20.00384">
        <ele>186.63000488281</ele>
        <time>2023-09-30T13:39:28.000Z</time>
      </trkpt>
      <trkpt lat="41.65715" lon="20.00399">
        <ele>186.63000488281</ele>
        <time>2023-09-30T13:39:27.000Z</time>
      </trkpt>
      <trkpt lat="41.65719" lon="20.00472">
        <ele>187.58999633789</ele>
        <time>2023-09-30T13:39:24.000Z</time>
      </trkpt>
      <trkpt lat="41.6572" lon="20.00495">
        <ele>186.63000488281</ele>
        <time>2023-09-30T13:39:23.000Z</time>
      </trkpt>
      <trkpt lat="41.65718" lon="20.00515">
        <ele>186.14999389648</ele>
        <time>2023-09-30T13:39:22.000Z</time>
      </trkpt>
      <trkpt lat="41.65712" lon="20.00532">
        <ele>185.66999816895</ele>
        <time>2023-09-30T13:39:21.000Z</time>
      </trkpt>
      <trkpt lat="41.65703" lon="20.00547">
        <ele>185.66999816895</ele>
        <time>2023-09-30T13:39:20.000Z</time>
      </trkpt>
      <trkpt lat="41.65692" lon="20.00559">
        <ele>185.66999816895</ele>
        <time>2023-09-30T13:39:19.000Z</time>
      </trkpt>
      <trkpt lat="41.65681" lon="20.00566">
        <ele>186.14999389648</ele>
        <time>2023-09-30T13:39:18.000Z</time>
      </trkpt>
      <trkpt lat="41.65666" lon="20.00573">
        <ele>186.63000488281</ele>
        <time>2023-09-30T13:39:17.000Z</time>
      </trkpt>
      <trkpt lat="41.65652" lon="20.00581">
        <ele>187.11000061035</ele>
        <time>2023-09-30T13:39:16.000Z</time>
      </trkpt>
      <trkpt lat="41.65637" lon="20.00594">
        <ele>187.58999633789</ele>
        <time>2023-09-30T13:39:15.000Z</time>
      </trkpt>
      <trkpt lat="41.65624" lon="20.00607">
        <ele>188.55999755859</ele>
        <time>2023-09-30T13:39:14.000Z</time>
      </trkpt>
      <trkpt lat="41.65615" lon="20.00619">
        <ele>189.03999328613</ele>
        <time>2023-09-30T13:39:13.000Z</time>
      </trkpt>
      <trkpt lat="41.65608" lon="20.00628">
        <ele>189.52000427246</ele>
        <time>2023-09-30T13:39:12.000Z</time>
      </trkpt>
      <trkpt lat="41.65601" lon="20.0064">
        <ele>190</ele>
        <time>2023-09-30T13:39:11.000Z</time>
      </trkpt>
      <trkpt lat="41.65585" lon="20.00665">
        <ele>190.47999572754</ele>
        <time>2023-09-30T13:39:10.000Z</time>
      </trkpt>
      <trkpt lat="41.65577" lon="20.00674">
        <ele>190</ele>
        <time>2023-09-30T13:39:09.000Z</time>
      </trkpt>
      <trkpt lat="41.65567" lon="20.00681">
        <ele>190.47999572754</ele>
        <time>2023-09-30T13:39:08.000Z</time>
      </trkpt>
      <trkpt lat="41.65556" lon="20.00686">
        <ele>190</ele>
        <time>2023-09-30T13:39:07.000Z</time>
      </trkpt>
      <trkpt lat="41.6554" lon="20.00689">
        <ele>190</ele>
        <time>2023-09-30T13:39:06.000Z</time>
      </trkpt>
      <trkpt lat="41.65524" lon="20.00694">
        <ele>190.47999572754</ele>
        <time>2023-09-30T13:39:05.000Z</time>
      </trkpt>
      <trkpt lat="41.65508" lon="20.00703">
        <ele>190.47999572754</ele>
        <time>2023-09-30T13:39:04.000Z</time>
      </trkpt>
      <trkpt lat="41.65494" lon="20.00715">
        <ele>190.47999572754</ele>
        <time>2023-09-30T13:39:03.000Z</time>
      </trkpt>
      <trkpt lat="41.65489" lon="20.00721">
        <ele>190.47999572754</ele>
        <time>2023-09-30T13:39:02.000Z</time>
      </trkpt>
      <trkpt lat="41.65468" lon="20.00743">
        <ele>190</ele>
        <time>2023-09-30T13:39:01.000Z</time>
      </trkpt>
      <trkpt lat="41.65454" lon="20.00755">
        <ele>189.52000427246</ele>
        <time>2023-09-30T13:39:00.000Z</time>
      </trkpt>
      <trkpt lat="41.65445" lon="20.00761">
        <ele>189.52000427246</ele>
        <time>2023-09-30T13:38:59.000Z</time>
      </trkpt>
      <trkpt lat="41.65383" lon="20.00797">
        <ele>189.03999328613</ele>
        <time>2023-09-30T13:38:56.000Z</time>
      </trkpt>
      <trkpt lat="41.65368" lon="20.00811">
        <ele>188.55999755859</ele>
        <time>2023-09-30T13:38:55.000Z</time>
      </trkpt>
      <trkpt lat="41.65352" lon="20.00828">
        <ele>188.08000183105</ele>
        <time>2023-09-30T13:38:54.000Z</time>
      </trkpt>
      <trkpt lat="41.65343" lon="20.0084">
        <ele>188.08000183105</ele>
        <time>2023-09-30T13:38:53.000Z</time>
      </trkpt>
      <trkpt lat="41.65316" lon="20.00885">
        <ele>188.08000183105</ele>
        <time>2023-09-30T13:38:51.000Z</time>
      </trkpt>
      <trkpt lat="41.65231" lon="20.01029">
        <ele>191.44000244141</ele>
        <time>2023-09-30T13:38:45.000Z</time>
      </trkpt>
      <trkpt lat="41.65226" lon="20.01036">
        <ele>191.91999816895</ele>
        <time>2023-09-30T13:38:44.000Z</time>
      </trkpt>
      <trkpt lat="41.65216" lon="20.01049">
        <ele>192.39999389648</ele>
        <time>2023-09-30T13:38:43.000Z</time>
      </trkpt>
      <trkpt lat="41.65193" lon="20.01075">
        <ele>193.36000061035</ele>
        <time>2023-09-30T13:38:42.000Z</time>
      </trkpt>
      <trkpt lat="41.6518" lon="20.01086">
        <ele>193.83999633789</ele>
        <time>2023-09-30T13:38:41.000Z</time>
      </trkpt>
      <trkpt lat="41.65156" lon="20.01101">
        <ele>193.83999633789</ele>
        <time>2023-09-30T13:38:39.000Z</time>
      </trkpt>
      <trkpt lat="41.65147" lon="20.01107">
        <ele>193.36000061035</ele>
        <time>2023-09-30T13:38:38.000Z</time>
      </trkpt>
      <trkpt lat="41.65138" lon="20.0111">
        <ele>192.88000488281</ele>
        <time>2023-09-30T13:38:37.000Z</time>
      </trkpt>
      <trkpt lat="41.65128" lon="20.01111">
        <ele>192.88000488281</ele>
        <time>2023-09-30T13:38:36.000Z</time>
      </trkpt>
      <trkpt lat="41.65117" lon="20.01111">
        <ele>192.39999389648</ele>
        <time>2023-09-30T13:38:35.000Z</time>
      </trkpt>
      <trkpt lat="41.65106" lon="20.01107">
        <ele>192.39999389648</ele>
        <time>2023-09-30T13:38:34.000Z</time>
      </trkpt>
      <trkpt lat="41.65096" lon="20.01102">
        <ele>192.39999389648</ele>
        <time>2023-09-30T13:38:33.000Z</time>
      </trkpt>
      <trkpt lat="41.65083" lon="20.01096">
        <ele>191.91999816895</ele>
        <time>2023-09-30T13:38:32.000Z</time>
      </trkpt>
      <trkpt lat="41.65075" lon="20.01094">
        <ele>191.91999816895</ele>
        <time>2023-09-30T13:38:31.000Z</time>
      </trkpt>
      <trkpt lat="41.65058" lon="20.01089">
        <ele>191.91999816895</ele>
        <time>2023-09-30T13:38:30.000Z</time>
      </trkpt>
      <trkpt lat="41.65046" lon="20.01088">
        <ele>191.44000244141</ele>
        <time>2023-09-30T13:38:29.000Z</time>
      </trkpt>
      <trkpt lat="41.65033" lon="20.01091">
        <ele>191.44000244141</ele>
        <time>2023-09-30T13:38:28.000Z</time>
      </trkpt>
      <trkpt lat="41.6502" lon="20.01097">
        <ele>191.44000244141</ele>
        <time>2023-09-30T13:38:27.000Z</time>
      </trkpt>
      <trkpt lat="41.65018" lon="20.01099">
        <ele>191.44000244141</ele>
        <time>2023-09-30T13:38:26.000Z</time>
      </trkpt>
      <trkpt lat="41.64989" lon="20.0112">
        <ele>191.91999816895</ele>
        <time>2023-09-30T13:38:24.000Z</time>
      </trkpt>
      <trkpt lat="41.64885" lon="20.01179">
        <ele>194.32000732422</ele>
        <time>2023-09-30T13:38:18.000Z</time>
      </trkpt>
      <trkpt lat="41.64879" lon="20.01183">
        <ele>194.32000732422</ele>
        <time>2023-09-30T13:38:17.000Z</time>
      </trkpt>
      <trkpt lat="41.64857" lon="20.01194">
        <ele>193.83999633789</ele>
        <time>2023-09-30T13:38:16.000Z</time>
      </trkpt>
      <trkpt lat="41.64845" lon="20.01201">
        <ele>192.88000488281</ele>
        <time>2023-09-30T13:38:15.000Z</time>
      </trkpt>
      <trkpt lat="41.64835" lon="20.01205">
        <ele>192.39999389648</ele>
        <time>2023-09-30T13:38:14.000Z</time>
      </trkpt>
      <trkpt lat="41.64779" lon="20.01223">
        <ele>190.96000671387</ele>
        <time>2023-09-30T13:38:10.000Z</time>
      </trkpt>
      <trkpt lat="41.64747" lon="20.01231">
        <ele>190</ele>
        <time>2023-09-30T13:38:08.000Z</time>
      </trkpt>
      <trkpt lat="41.64734" lon="20.01236">
        <ele>189.03999328613</ele>
        <time>2023-09-30T13:38:07.000Z</time>
      </trkpt>
      <trkpt lat="41.64719" lon="20.01244">
        <ele>188.08000183105</ele>
        <time>2023-09-30T13:38:06.000Z</time>
      </trkpt>
      <trkpt lat="41.64707" lon="20.01253">
        <ele>187.58999633789</ele>
        <time>2023-09-30T13:38:05.000Z</time>
      </trkpt>
      <trkpt lat="41.64694" lon="20.01266">
        <ele>187.11000061035</ele>
        <time>2023-09-30T13:38:04.000Z</time>
      </trkpt>
      <trkpt lat="41.64682" lon="20.01281">
        <ele>185.66999816895</ele>
        <time>2023-09-30T13:38:03.000Z</time>
      </trkpt>
      <trkpt lat="41.64663" lon="20.01307">
        <ele>184.22999572754</ele>
        <time>2023-09-30T13:38:01.000Z</time>
      </trkpt>
      <trkpt lat="41.64655" lon="20.01314">
        <ele>183.75</ele>
        <time>2023-09-30T13:38:00.000Z</time>
      </trkpt>
      <trkpt lat="41.64647" lon="20.01319">
        <ele>182.78999328613</ele>
        <time>2023-09-30T13:37:59.000Z</time>
      </trkpt>
      <trkpt lat="41.6464" lon="20.01321">
        <ele>182.30999755859</ele>
        <time>2023-09-30T13:37:58.000Z</time>
      </trkpt>
      <trkpt lat="41.64635" lon="20.01318">
        <ele>181.83000183105</ele>
        <time>2023-09-30T13:37:57.000Z</time>
      </trkpt>
      <trkpt lat="41.6463" lon="20.0131">
        <ele>181.35000610352</ele>
        <time>2023-09-30T13:37:56.000Z</time>
      </trkpt>
      <trkpt lat="41.64627" lon="20.01297">
        <ele>180.38000488281</ele>
        <time>2023-09-30T13:37:55.000Z</time>
      </trkpt>
      <trkpt lat="41.64628" lon="20.01282">
        <ele>179.41999816895</ele>
        <time>2023-09-30T13:37:54.000Z</time>
      </trkpt>
      <trkpt lat="41.64633" lon="20.01267">
        <ele>178.46000671387</ele>
        <time>2023-09-30T13:37:53.000Z</time>
      </trkpt>
      <trkpt lat="41.64642" lon="20.01253">
        <ele>177.97999572754</ele>
        <time>2023-09-30T13:37:52.000Z</time>
      </trkpt>
      <trkpt lat="41.6465" lon="20.01242">
        <ele>177.02000427246</ele>
        <time>2023-09-30T13:37:51.000Z</time>
      </trkpt>
      <trkpt lat="41.64674" lon="20.01217">
        <ele>175.10000610352</ele>
        <time>2023-09-30T13:37:49.000Z</time>
      </trkpt>
      <trkpt lat="41.64685" lon="20.01204">
        <ele>174.13999938965</ele>
        <time>2023-09-30T13:37:48.000Z</time>
      </trkpt>
      <trkpt lat="41.64691" lon="20.01192">
        <ele>173.16999816895</ele>
        <time>2023-09-30T13:37:47.000Z</time>
      </trkpt>
      <trkpt lat="41.64693" lon="20.01181">
        <ele>172.69000244141</ele>
        <time>2023-09-30T13:37:46.000Z</time>
      </trkpt>
      <trkpt lat="41.64692" lon="20.01171">
        <ele>172.69000244141</ele>
        <time>2023-09-30T13:37:45.000Z</time>
      </trkpt>
      <trkpt lat="41.64687" lon="20.01161">
        <ele>171.72999572754</ele>
        <time>2023-09-30T13:37:44.000Z</time>
      </trkpt>
      <trkpt lat="41.6468" lon="20.01155">
        <ele>170.77000427246</ele>
        <time>2023-09-30T13:37:43.000Z</time>
      </trkpt>
      <trkpt lat="41.64673" lon="20.01154">
        <ele>170.28999328613</ele>
        <time>2023-09-30T13:37:42.000Z</time>
      </trkpt>
      <trkpt lat="41.64663" lon="20.01157">
        <ele>169.80999755859</ele>
        <time>2023-09-30T13:37:41.000Z</time>
      </trkpt>
      <trkpt lat="41.64661" lon="20.01158">
        <ele>169.33000183105</ele>
        <time>2023-09-30T13:37:40.000Z</time>
      </trkpt>
      <trkpt lat="41.6463" lon="20.01173">
        <ele>167.41000366211</ele>
        <time>2023-09-30T13:37:38.000Z</time>
      </trkpt>
      <trkpt lat="41.64594" lon="20.01192">
        <ele>164.52000427246</ele>
        <time>2023-09-30T13:37:36.000Z</time>
      </trkpt>
      <trkpt lat="41.64577" lon="20.01201">
        <ele>163.55999755859</ele>
        <time>2023-09-30T13:37:35.000Z</time>
      </trkpt>
      <trkpt lat="41.64562" lon="20.01211">
        <ele>162.11999511719</ele>
        <time>2023-09-30T13:37:34.000Z</time>
      </trkpt>
      <trkpt lat="41.64554" lon="20.01219">
        <ele>161.63999938965</ele>
        <time>2023-09-30T13:37:33.000Z</time>
      </trkpt>
      <trkpt lat="41.64543" lon="20.01229">
        <ele>161.16000366211</ele>
        <time>2023-09-30T13:37:32.000Z</time>
      </trkpt>
      <trkpt lat="41.64504" lon="20.01272">
        <ele>160.19999694824</ele>
        <time>2023-09-30T13:37:30.000Z</time>
      </trkpt>
      <trkpt lat="41.6449" lon="20.01285">
        <ele>160.19999694824</ele>
        <time>2023-09-30T13:37:29.000Z</time>
      </trkpt>
      <trkpt lat="41.64474" lon="20.01296">
        <ele>160.19999694824</ele>
        <time>2023-09-30T13:37:28.000Z</time>
      </trkpt>
      <trkpt lat="41.64458" lon="20.01304">
        <ele>160.67999267578</ele>
        <time>2023-09-30T13:37:27.000Z</time>
      </trkpt>
      <trkpt lat="41.64451" lon="20.01306">
        <ele>160.67999267578</ele>
        <time>2023-09-30T13:37:26.000Z</time>
      </trkpt>
      <trkpt lat="41.64391" lon="20.01323">
        <ele>162.11999511719</ele>
        <time>2023-09-30T13:37:23.000Z</time>
      </trkpt>
      <trkpt lat="41.64376" lon="20.01329">
        <ele>162.60000610352</ele>
        <time>2023-09-30T13:37:22.000Z</time>
      </trkpt>
      <trkpt lat="41.64339" lon="20.01346">
        <ele>163.55999755859</ele>
        <time>2023-09-30T13:37:19.000Z</time>
      </trkpt>
      <trkpt lat="41.64321" lon="20.01351">
        <ele>164.03999328613</ele>
        <time>2023-09-30T13:37:18.000Z</time>
      </trkpt>
      <trkpt lat="41.6431" lon="20.01353">
        <ele>164.52000427246</ele>
        <time>2023-09-30T13:37:17.000Z</time>
      </trkpt>
      <trkpt lat="41.64298" lon="20.01352">
        <ele>164.52000427246</ele>
        <time>2023-09-30T13:37:16.000Z</time>
      </trkpt>
      <trkpt lat="41.64292" lon="20.01351">
        <ele>165</ele>
        <time>2023-09-30T13:37:15.000Z</time>
      </trkpt>
      <trkpt lat="41.64275" lon="20.01348">
        <ele>165.47999572754</ele>
        <time>2023-09-30T13:37:14.000Z</time>
      </trkpt>
      <trkpt lat="41.64266" lon="20.01348">
        <ele>165.47999572754</ele>
        <time>2023-09-30T13:37:13.000Z</time>
      </trkpt>
      <trkpt lat="41.64257" lon="20.01352">
        <ele>165.47999572754</ele>
        <time>2023-09-30T13:37:12.000Z</time>
      </trkpt>
      <trkpt lat="41.64248" lon="20.01358">
        <ele>165.96000671387</ele>
        <time>2023-09-30T13:37:11.000Z</time>
      </trkpt>
      <trkpt lat="41.64239" lon="20.01368">
        <ele>165.96000671387</ele>
        <time>2023-09-30T13:37:10.000Z</time>
      </trkpt>
      <trkpt lat="41.64233" lon="20.01375">
        <ele>166.44999694824</ele>
        <time>2023-09-30T13:37:09.000Z</time>
      </trkpt>
      <trkpt lat="41.6422" lon="20.01392">
        <ele>166.92999267578</ele>
        <time>2023-09-30T13:37:08.000Z</time>
      </trkpt>
      <trkpt lat="41.64213" lon="20.01405">
        <ele>167.41000366211</ele>
        <time>2023-09-30T13:37:07.000Z</time>
      </trkpt>
      <trkpt lat="41.64207" lon="20.01418">
        <ele>167.88999938965</ele>
        <time>2023-09-30T13:37:06.000Z</time>
      </trkpt>
      <trkpt lat="41.64203" lon="20.01431">
        <ele>167.88999938965</ele>
        <time>2023-09-30T13:37:05.000Z</time>
      </trkpt>
      <trkpt lat="41.64201" lon="20.01437">
        <ele>168.36999511719</ele>
        <time>2023-09-30T13:37:04.000Z</time>
      </trkpt>
      <trkpt lat="41.64194" lon="20.01465">
        <ele>169.33000183105</ele>
        <time>2023-09-30T13:37:03.000Z</time>
      </trkpt>
      <trkpt lat="41.64188" lon="20.0148">
        <ele>170.28999328613</ele>
        <time>2023-09-30T13:37:02.000Z</time>
      </trkpt>
      <trkpt lat="41.64179" lon="20.01495">
        <ele>170.77000427246</ele>
        <time>2023-09-30T13:37:01.000Z</time>
      </trkpt>
      <trkpt lat="41.64169" lon="20.01508">
        <ele>172.21000671387</ele>
        <time>2023-09-30T13:37:00.000Z</time>
      </trkpt>
      <trkpt lat="41.64159" lon="20.01518">
        <ele>173.16999816895</ele>
        <time>2023-09-30T13:36:59.000Z</time>
      </trkpt>
      <trkpt lat="41.64096" lon="20.01562">
        <ele>178.94000244141</ele>
        <time>2023-09-30T13:36:55.000Z</time>
      </trkpt>
      <trkpt lat="41.64081" lon="20.01574">
        <ele>180.38000488281</ele>
        <time>2023-09-30T13:36:54.000Z</time>
      </trkpt>
      <trkpt lat="41.6407" lon="20.01587">
        <ele>181.35000610352</ele>
        <time>2023-09-30T13:36:53.000Z</time>
      </trkpt>
      <trkpt lat="41.64061" lon="20.01601">
        <ele>181.83000183105</ele>
        <time>2023-09-30T13:36:52.000Z</time>
      </trkpt>
      <trkpt lat="41.6404" lon="20.01635">
        <ele>184.22999572754</ele>
        <time>2023-09-30T13:36:50.000Z</time>
      </trkpt>
      <trkpt lat="41.6403" lon="20.0165">
        <ele>185.66999816895</ele>
        <time>2023-09-30T13:36:49.000Z</time>
      </trkpt>
      <trkpt lat="41.64015" lon="20.01673">
        <ele>187.58999633789</ele>
        <time>2023-09-30T13:36:47.000Z</time>
      </trkpt>
      <trkpt lat="41.63985" lon="20.0171">
        <ele>190.47999572754</ele>
        <time>2023-09-30T13:36:45.000Z</time>
      </trkpt>
      <trkpt lat="41.63976" lon="20.01723">
        <ele>191.44000244141</ele>
        <time>2023-09-30T13:36:44.000Z</time>
      </trkpt>
      <trkpt lat="41.63971" lon="20.01736">
        <ele>191.91999816895</ele>
        <time>2023-09-30T13:36:43.000Z</time>
      </trkpt>
      <trkpt lat="41.6397" lon="20.01751">
        <ele>192.39999389648</ele>
        <time>2023-09-30T13:36:42.000Z</time>
      </trkpt>
      <trkpt lat="41.63972" lon="20.01767">
        <ele>192.88000488281</ele>
        <time>2023-09-30T13:36:41.000Z</time>
      </trkpt>
      <trkpt lat="41.63975" lon="20.0178">
        <ele>193.36000061035</ele>
        <time>2023-09-30T13:36:40.000Z</time>
      </trkpt>
      <trkpt lat="41.63976" lon="20.01794">
        <ele>193.36000061035</ele>
        <time>2023-09-30T13:36:39.000Z</time>
      </trkpt>
      <trkpt lat="41.63973" lon="20.01806">
        <ele>193.36000061035</ele>
        <time>2023-09-30T13:36:38.000Z</time>
      </trkpt>
      <trkpt lat="41.63967" lon="20.01817">
        <ele>193.83999633789</ele>
        <time>2023-09-30T13:36:37.000Z</time>
      </trkpt>
      <trkpt lat="41.63956" lon="20.0183">
        <ele>194.80000305176</ele>
        <time>2023-09-30T13:36:36.000Z</time>
      </trkpt>
      <trkpt lat="41.63943" lon="20.01842">
        <ele>195.77000427246</ele>
        <time>2023-09-30T13:36:35.000Z</time>
      </trkpt>
      <trkpt lat="41.63928" lon="20.01853">
        <ele>197.69000244141</ele>
        <time>2023-09-30T13:36:34.000Z</time>
      </trkpt>
      <trkpt lat="41.63922" lon="20.01857">
        <ele>198.16999816895</ele>
        <time>2023-09-30T13:36:33.000Z</time>
      </trkpt>
      <trkpt lat="41.63899" lon="20.01871">
        <ele>200.57000732422</ele>
        <time>2023-09-30T13:36:32.000Z</time>
      </trkpt>
      <trkpt lat="41.63889" lon="20.0188">
        <ele>201.05000305176</ele>
        <time>2023-09-30T13:36:31.000Z</time>
      </trkpt>
      <trkpt lat="41.63881" lon="20.01893">
        <ele>202.00999450684</ele>
        <time>2023-09-30T13:36:30.000Z</time>
      </trkpt>
      <trkpt lat="41.63875" lon="20.01909">
        <ele>203.94000244141</ele>
        <time>2023-09-30T13:36:29.000Z</time>
      </trkpt>
      <trkpt lat="41.63871" lon="20.01926">
        <ele>205.38000488281</ele>
        <time>2023-09-30T13:36:28.000Z</time>
      </trkpt>
      <trkpt lat="41.63871" lon="20.01943">
        <ele>206.82000732422</ele>
        <time>2023-09-30T13:36:27.000Z</time>
      </trkpt>
      <trkpt lat="41.63872" lon="20.01961">
        <ele>208.25999450684</ele>
        <time>2023-09-30T13:36:26.000Z</time>
      </trkpt>
      <trkpt lat="41.63872" lon="20.01977">
        <ele>209.2200012207</ele>
        <time>2023-09-30T13:36:25.000Z</time>
      </trkpt>
      <trkpt lat="41.63867" lon="20.01992">
        <ele>210.66999816895</ele>
        <time>2023-09-30T13:36:24.000Z</time>
      </trkpt>
      <trkpt lat="41.63858" lon="20.02008">
        <ele>211.63000488281</ele>
        <time>2023-09-30T13:36:23.000Z</time>
      </trkpt>
      <trkpt lat="41.63846" lon="20.02023">
        <ele>213.07000732422</ele>
        <time>2023-09-30T13:36:22.000Z</time>
      </trkpt>
      <trkpt lat="41.63832" lon="20.02037">
        <ele>214.99000549316</ele>
        <time>2023-09-30T13:36:21.000Z</time>
      </trkpt>
      <trkpt lat="41.63829" lon="20.02039">
        <ele>215.4700012207</ele>
        <time>2023-09-30T13:36:20.000Z</time>
      </trkpt>
      <trkpt lat="41.63807" lon="20.02056">
        <ele>216.91000366211</ele>
        <time>2023-09-30T13:36:19.000Z</time>
      </trkpt>
      <trkpt lat="41.63796" lon="20.02064">
        <ele>217.88000488281</ele>
        <time>2023-09-30T13:36:18.000Z</time>
      </trkpt>
      <trkpt lat="41.63782" lon="20.02076">
        <ele>219.32000732422</ele>
        <time>2023-09-30T13:36:17.000Z</time>
      </trkpt>
      <trkpt lat="41.63775" lon="20.02084">
        <ele>220.2799987793</ele>
        <time>2023-09-30T13:36:16.000Z</time>
      </trkpt>
      <trkpt lat="41.6377" lon="20.02093">
        <ele>220.75999450684</ele>
        <time>2023-09-30T13:36:15.000Z</time>
      </trkpt>
      <trkpt lat="41.6377" lon="20.02102">
        <ele>221.7200012207</ele>
        <time>2023-09-30T13:36:14.000Z</time>
      </trkpt>
      <trkpt lat="41.63774" lon="20.02111">
        <ele>222.19999694824</ele>
        <time>2023-09-30T13:36:13.000Z</time>
      </trkpt>
      <trkpt lat="41.63782" lon="20.02118">
        <ele>223.16000366211</ele>
        <time>2023-09-30T13:36:12.000Z</time>
      </trkpt>
      <trkpt lat="41.63786" lon="20.0212">
        <ele>223.16000366211</ele>
        <time>2023-09-30T13:36:11.000Z</time>
      </trkpt>
      <trkpt lat="41.63799" lon="20.02126">
        <ele>223.63999938965</ele>
        <time>2023-09-30T13:36:10.000Z</time>
      </trkpt>
      <trkpt lat="41.63805" lon="20.02132">
        <ele>224.11999511719</ele>
        <time>2023-09-30T13:36:09.000Z</time>
      </trkpt>
      <trkpt lat="41.63806" lon="20.02142">
        <ele>224.61000061035</ele>
        <time>2023-09-30T13:36:08.000Z</time>
      </trkpt>
      <trkpt lat="41.63802" lon="20.02152">
        <ele>225.57000732422</ele>
        <time>2023-09-30T13:36:07.000Z</time>
      </trkpt>
      <trkpt lat="41.63794" lon="20.0216">
        <ele>226.5299987793</ele>
        <time>2023-09-30T13:36:06.000Z</time>
      </trkpt>
      <trkpt lat="41.63786" lon="20.02165">
        <ele>227.49000549316</ele>
        <time>2023-09-30T13:36:05.000Z</time>
      </trkpt>
      <trkpt lat="41.63779" lon="20.02173">
        <ele>227.9700012207</ele>
        <time>2023-09-30T13:36:04.000Z</time>
      </trkpt>
      <trkpt lat="41.63775" lon="20.02183">
        <ele>228.44999694824</ele>
        <time>2023-09-30T13:36:03.000Z</time>
      </trkpt>
      <trkpt lat="41.63774" lon="20.02198">
        <ele>229.41000366211</ele>
        <time>2023-09-30T13:36:02.000Z</time>
      </trkpt>
      <trkpt lat="41.63775" lon="20.02212">
        <ele>230.36999511719</ele>
        <time>2023-09-30T13:36:01.000Z</time>
      </trkpt>
      <trkpt lat="41.63773" lon="20.02225">
        <ele>230.85000610352</ele>
        <time>2023-09-30T13:36:00.000Z</time>
      </trkpt>
      <trkpt lat="41.63766" lon="20.02236">
        <ele>231.80999755859</ele>
        <time>2023-09-30T13:35:59.000Z</time>
      </trkpt>
      <trkpt lat="41.63755" lon="20.02244">
        <ele>232.30000305176</ele>
        <time>2023-09-30T13:35:58.000Z</time>
      </trkpt>
      <trkpt lat="41.63741" lon="20.0225">
        <ele>232.7799987793</ele>
        <time>2023-09-30T13:35:57.000Z</time>
      </trkpt>
      <trkpt lat="41.63711" lon="20.02258">
        <ele>233.74000549316</ele>
        <time>2023-09-30T13:35:55.000Z</time>
      </trkpt>
      <trkpt lat="41.63701" lon="20.02262">
        <ele>233.74000549316</ele>
        <time>2023-09-30T13:35:54.000Z</time>
      </trkpt>
      <trkpt lat="41.63693" lon="20.0227">
        <ele>234.2200012207</ele>
        <time>2023-09-30T13:35:53.000Z</time>
      </trkpt>
      <trkpt lat="41.63688" lon="20.02285">
        <ele>234.69999694824</ele>
        <time>2023-09-30T13:35:52.000Z</time>
      </trkpt>
      <trkpt lat="41.63684" lon="20.02303">
        <ele>235.66000366211</ele>
        <time>2023-09-30T13:35:51.000Z</time>
      </trkpt>
      <trkpt lat="41.63678" lon="20.02321">
        <ele>236.13999938965</ele>
        <time>2023-09-30T13:35:50.000Z</time>
      </trkpt>
      <trkpt lat="41.63669" lon="20.02337">
        <ele>237.10000610352</ele>
        <time>2023-09-30T13:35:49.000Z</time>
      </trkpt>
      <trkpt lat="41.63658" lon="20.02352">
        <ele>238.05999755859</ele>
        <time>2023-09-30T13:35:48.000Z</time>
      </trkpt>
      <trkpt lat="41.63647" lon="20.02361">
        <ele>239.50999450684</ele>
        <time>2023-09-30T13:35:47.000Z</time>
      </trkpt>
      <trkpt lat="41.63619" lon="20.02382">
        <ele>242.38999938965</ele>
        <time>2023-09-30T13:35:45.000Z</time>
      </trkpt>
      <trkpt lat="41.63611" lon="20.02392">
        <ele>243.35000610352</ele>
        <time>2023-09-30T13:35:44.000Z</time>
      </trkpt>
      <trkpt lat="41.63607" lon="20.02402">
        <ele>244.30999755859</ele>
        <time>2023-09-30T13:35:43.000Z</time>
      </trkpt>
      <trkpt lat="41.63608" lon="20.02415">
        <ele>244.78999328613</ele>
        <time>2023-09-30T13:35:42.000Z</time>
      </trkpt>
      <trkpt lat="41.63612" lon="20.02426">
        <ele>245.75</ele>
        <time>2023-09-30T13:35:41.000Z</time>
      </trkpt>
      <trkpt lat="41.63619" lon="20.02439">
        <ele>246.22999572754</ele>
        <time>2023-09-30T13:35:40.000Z</time>
      </trkpt>
      <trkpt lat="41.63624" lon="20.02447">
        <ele>246.7200012207</ele>
        <time>2023-09-30T13:35:39.000Z</time>
      </trkpt>
      <trkpt lat="41.63648" lon="20.02482">
        <ele>248.63999938965</ele>
        <time>2023-09-30T13:35:37.000Z</time>
      </trkpt>
      <trkpt lat="41.63654" lon="20.02493">
        <ele>249.11999511719</ele>
        <time>2023-09-30T13:35:36.000Z</time>
      </trkpt>
      <trkpt lat="41.63661" lon="20.02508">
        <ele>249.60000610352</ele>
        <time>2023-09-30T13:35:35.000Z</time>
      </trkpt>
      <trkpt lat="41.63736" lon="20.02653">
        <ele>254.88999938965</ele>
        <time>2023-09-30T13:35:28.000Z</time>
      </trkpt>
      <trkpt lat="41.63745" lon="20.02666">
        <ele>255.36999511719</ele>
        <time>2023-09-30T13:35:27.000Z</time>
      </trkpt>
      <trkpt lat="41.63754" lon="20.02678">
        <ele>255.85000610352</ele>
        <time>2023-09-30T13:35:26.000Z</time>
      </trkpt>
      <trkpt lat="41.63769" lon="20.02696">
        <ele>256.80999755859</ele>
        <time>2023-09-30T13:35:25.000Z</time>
      </trkpt>
      <trkpt lat="41.63777" lon="20.0271">
        <ele>257.29000854492</ele>
        <time>2023-09-30T13:35:24.000Z</time>
      </trkpt>
      <trkpt lat="41.63785" lon="20.02728">
        <ele>258.25</ele>
        <time>2023-09-30T13:35:23.000Z</time>
      </trkpt>
      <trkpt lat="41.63788" lon="20.02739">
        <ele>258.73001098633</ele>
        <time>2023-09-30T13:35:22.000Z</time>
      </trkpt>
      <trkpt lat="41.63795" lon="20.02765">
        <ele>259.69000244141</ele>
        <time>2023-09-30T13:35:21.000Z</time>
      </trkpt>
      <trkpt lat="41.63798" lon="20.02782">
        <ele>259.69000244141</ele>
        <time>2023-09-30T13:35:20.000Z</time>
      </trkpt>
      <trkpt lat="41.638" lon="20.028">
        <ele>259.69000244141</ele>
        <time>2023-09-30T13:35:19.000Z</time>
      </trkpt>
      <trkpt lat="41.63801" lon="20.02812">
        <ele>260.17001342773</ele>
        <time>2023-09-30T13:35:18.000Z</time>
      </trkpt>
      <trkpt lat="41.63799" lon="20.02829">
        <ele>260.17001342773</ele>
        <time>2023-09-30T13:35:17.000Z</time>
      </trkpt>
      <trkpt lat="41.63795" lon="20.02838">
        <ele>260.64999389648</ele>
        <time>2023-09-30T13:35:16.000Z</time>
      </trkpt>
      <trkpt lat="41.63788" lon="20.02842">
        <ele>260.64999389648</ele>
        <time>2023-09-30T13:35:15.000Z</time>
      </trkpt>
      <trkpt lat="41.6378" lon="20.02841">
        <ele>260.64999389648</ele>
        <time>2023-09-30T13:35:14.000Z</time>
      </trkpt>
      <trkpt lat="41.63772" lon="20.02837">
        <ele>261.61999511719</ele>
        <time>2023-09-30T13:35:13.000Z</time>
      </trkpt>
      <trkpt lat="41.6376" lon="20.0283">
        <ele>262.10000610352</ele>
        <time>2023-09-30T13:35:12.000Z</time>
      </trkpt>
      <trkpt lat="41.6375" lon="20.02829">
        <ele>262.10000610352</ele>
        <time>2023-09-30T13:35:11.000Z</time>
      </trkpt>
      <trkpt lat="41.63742" lon="20.02833">
        <ele>263.05999755859</ele>
        <time>2023-09-30T13:35:10.000Z</time>
      </trkpt>
      <trkpt lat="41.63736" lon="20.0284">
        <ele>264.01998901367</ele>
        <time>2023-09-30T13:35:09.000Z</time>
      </trkpt>
      <trkpt lat="41.63734" lon="20.02851">
        <ele>264.98001098633</ele>
        <time>2023-09-30T13:35:08.000Z</time>
      </trkpt>
      <trkpt lat="41.63737" lon="20.02861">
        <ele>265.94000244141</ele>
        <time>2023-09-30T13:35:07.000Z</time>
      </trkpt>
      <trkpt lat="41.63743" lon="20.02868">
        <ele>266.42001342773</ele>
        <time>2023-09-30T13:35:06.000Z</time>
      </trkpt>
      <trkpt lat="41.6375" lon="20.02871">
        <ele>266.89999389648</ele>
        <time>2023-09-30T13:35:05.000Z</time>
      </trkpt>
      <trkpt lat="41.63762" lon="20.02874">
        <ele>267.85998535156</ele>
        <time>2023-09-30T13:35:04.000Z</time>
      </trkpt>
      <trkpt lat="41.63773" lon="20.0288">
        <ele>268.35000610352</ele>
        <time>2023-09-30T13:35:03.000Z</time>
      </trkpt>
      <trkpt lat="41.63784" lon="20.0289">
        <ele>269.30999755859</ele>
        <time>2023-09-30T13:35:02.000Z</time>
      </trkpt>
      <trkpt lat="41.63793" lon="20.02904">
        <ele>269.79000854492</ele>
        <time>2023-09-30T13:35:01.000Z</time>
      </trkpt>
      <trkpt lat="41.63796" lon="20.0291">
        <ele>270.26998901367</ele>
        <time>2023-09-30T13:35:00.000Z</time>
      </trkpt>
      <trkpt lat="41.63814" lon="20.02949">
        <ele>272.67001342773</ele>
        <time>2023-09-30T13:34:58.000Z</time>
      </trkpt>
      <trkpt lat="41.63816" lon="20.02962">
        <ele>273.14999389648</ele>
        <time>2023-09-30T13:34:57.000Z</time>
      </trkpt>
      <trkpt lat="41.63814" lon="20.02972">
        <ele>273.63000488281</ele>
        <time>2023-09-30T13:34:56.000Z</time>
      </trkpt>
      <trkpt lat="41.63809" lon="20.02979">
        <ele>274.58999633789</ele>
        <time>2023-09-30T13:34:55.000Z</time>
      </trkpt>
      <trkpt lat="41.63801" lon="20.02981">
        <ele>275.07000732422</ele>
        <time>2023-09-30T13:34:54.000Z</time>
      </trkpt>
      <trkpt lat="41.63791" lon="20.02979">
        <ele>275.55999755859</ele>
        <time>2023-09-30T13:34:53.000Z</time>
      </trkpt>
      <trkpt lat="41.63783" lon="20.02973">
        <ele>276.51998901367</ele>
        <time>2023-09-30T13:34:52.000Z</time>
      </trkpt>
      <trkpt lat="41.63778" lon="20.02964">
        <ele>277</ele>
        <time>2023-09-30T13:34:51.000Z</time>
      </trkpt>
      <trkpt lat="41.63775" lon="20.02953">
        <ele>277.48001098633</ele>
        <time>2023-09-30T13:34:50.000Z</time>
      </trkpt>
      <trkpt lat="41.63774" lon="20.02943">
        <ele>277.95999145508</ele>
        <time>2023-09-30T13:34:49.000Z</time>
      </trkpt>
      <trkpt lat="41.63772" lon="20.02936">
        <ele>278.44000244141</ele>
        <time>2023-09-30T13:34:48.000Z</time>
      </trkpt>
      <trkpt lat="41.63768" lon="20.02931">
        <ele>278.92001342773</ele>
        <time>2023-09-30T13:34:47.000Z</time>
      </trkpt>
      <trkpt lat="41.63762" lon="20.02928">
        <ele>279.39999389648</ele>
        <time>2023-09-30T13:34:46.000Z</time>
      </trkpt>
      <trkpt lat="41.63755" lon="20.02932">
        <ele>280.35998535156</ele>
        <time>2023-09-30T13:34:45.000Z</time>
      </trkpt>
      <trkpt lat="41.6375" lon="20.02942">
        <ele>280.83999633789</ele>
        <time>2023-09-30T13:34:44.000Z</time>
      </trkpt>
      <trkpt lat="41.6375" lon="20.02955">
        <ele>280.83999633789</ele>
        <time>2023-09-30T13:34:43.000Z</time>
      </trkpt>
      <trkpt lat="41.63753" lon="20.02966">
        <ele>282.2799987793</ele>
        <time>2023-09-30T13:34:42.000Z</time>
      </trkpt>
      <trkpt lat="41.63758" lon="20.02973">
        <ele>282.76998901367</ele>
        <time>2023-09-30T13:34:41.000Z</time>
      </trkpt>
      <trkpt lat="41.63781" lon="20.03008">
        <ele>285.64999389648</ele>
        <time>2023-09-30T13:34:39.000Z</time>
      </trkpt>
      <trkpt lat="41.63788" lon="20.03025">
        <ele>286.60998535156</ele>
        <time>2023-09-30T13:34:38.000Z</time>
      </trkpt>
      <trkpt lat="41.63792" lon="20.03036">
        <ele>287.08999633789</ele>
        <time>2023-09-30T13:34:37.000Z</time>
      </trkpt>
      <trkpt lat="41.63798" lon="20.03062">
        <ele>288.5299987793</ele>
        <time>2023-09-30T13:34:36.000Z</time>
      </trkpt>
      <trkpt lat="41.63804" lon="20.03082">
        <ele>289.9700012207</ele>
        <time>2023-09-30T13:34:35.000Z</time>
      </trkpt>
      <trkpt lat="41.63807" lon="20.03101">
        <ele>291.42001342773</ele>
        <time>2023-09-30T13:34:34.000Z</time>
      </trkpt>
      <trkpt lat="41.63809" lon="20.0312">
        <ele>292.38000488281</ele>
        <time>2023-09-30T13:34:33.000Z</time>
      </trkpt>
      <trkpt lat="41.63811" lon="20.03135">
        <ele>293.33999633789</ele>
        <time>2023-09-30T13:34:32.000Z</time>
      </trkpt>
      <trkpt lat="41.63816" lon="20.03147">
        <ele>293.82000732422</ele>
        <time>2023-09-30T13:34:31.000Z</time>
      </trkpt>
      <trkpt lat="41.63824" lon="20.03157">
        <ele>294.7799987793</ele>
        <time>2023-09-30T13:34:30.000Z</time>
      </trkpt>
      <trkpt lat="41.6383" lon="20.03167">
        <ele>295.26000976562</ele>
        <time>2023-09-30T13:34:29.000Z</time>
      </trkpt>
      <trkpt lat="41.63832" lon="20.03178">
        <ele>295.73999023438</ele>
        <time>2023-09-30T13:34:28.000Z</time>
      </trkpt>
      <trkpt lat="41.63831" lon="20.03188">
        <ele>296.2200012207</ele>
        <time>2023-09-30T13:34:27.000Z</time>
      </trkpt>
      <trkpt lat="41.63827" lon="20.03205">
        <ele>298.14999389648</ele>
        <time>2023-09-30T13:34:26.000Z</time>
      </trkpt>
      <trkpt lat="41.63827" lon="20.03218">
        <ele>299.58999633789</ele>
        <time>2023-09-30T13:34:25.000Z</time>
      </trkpt>
      <trkpt lat="41.6383" lon="20.03228">
        <ele>300.54998779297</ele>
        <time>2023-09-30T13:34:24.000Z</time>
      </trkpt>
      <trkpt lat="41.63837" lon="20.0325">
        <ele>302.4700012207</ele>
        <time>2023-09-30T13:34:23.000Z</time>
      </trkpt>
      <trkpt lat="41.63839" lon="20.03268">
        <ele>303.91000366211</ele>
        <time>2023-09-30T13:34:22.000Z</time>
      </trkpt>
      <trkpt lat="41.63839" lon="20.03279">
        <ele>304.39001464844</ele>
        <time>2023-09-30T13:34:21.000Z</time>
      </trkpt>
      <trkpt lat="41.63838" lon="20.03306">
        <ele>306.32000732422</ele>
        <time>2023-09-30T13:34:20.000Z</time>
      </trkpt>
      <trkpt lat="41.63838" lon="20.03327">
        <ele>307.2799987793</ele>
        <time>2023-09-30T13:34:19.000Z</time>
      </trkpt>
      <trkpt lat="41.6384" lon="20.03348">
        <ele>308.23999023438</ele>
        <time>2023-09-30T13:34:18.000Z</time>
      </trkpt>
      <trkpt lat="41.63845" lon="20.0337">
        <ele>308.7200012207</ele>
        <time>2023-09-30T13:34:17.000Z</time>
      </trkpt>
      <trkpt lat="41.63851" lon="20.0339">
        <ele>309.20001220703</ele>
        <time>2023-09-30T13:34:16.000Z</time>
      </trkpt>
      <trkpt lat="41.63855" lon="20.0341">
        <ele>310.16000366211</ele>
        <time>2023-09-30T13:34:15.000Z</time>
      </trkpt>
      <trkpt lat="41.63855" lon="20.03428">
        <ele>311.11999511719</ele>
        <time>2023-09-30T13:34:14.000Z</time>
      </trkpt>
      <trkpt lat="41.63855" lon="20.03444">
        <ele>312.08999633789</ele>
        <time>2023-09-30T13:34:13.000Z</time>
      </trkpt>
      <trkpt lat="41.63854" lon="20.03453">
        <ele>312.57000732422</ele>
        <time>2023-09-30T13:34:12.000Z</time>
      </trkpt>
      <trkpt lat="41.63851" lon="20.03473">
        <ele>313.5299987793</ele>
        <time>2023-09-30T13:34:11.000Z</time>
      </trkpt>
      <trkpt lat="41.63845" lon="20.03506">
        <ele>315.45001220703</ele>
        <time>2023-09-30T13:34:10.000Z</time>
      </trkpt>
      <trkpt lat="41.63838" lon="20.03528">
        <ele>316.41000366211</ele>
        <time>2023-09-30T13:34:09.000Z</time>
      </trkpt>
      <trkpt lat="41.63834" lon="20.03539">
        <ele>317.36999511719</ele>
        <time>2023-09-30T13:34:08.000Z</time>
      </trkpt>
      <trkpt lat="41.63824" lon="20.03563">
        <ele>318.80999755859</ele>
        <time>2023-09-30T13:34:07.000Z</time>
      </trkpt>
      <trkpt lat="41.63819" lon="20.03578">
        <ele>319.7799987793</ele>
        <time>2023-09-30T13:34:06.000Z</time>
      </trkpt>
      <trkpt lat="41.63812" lon="20.036">
        <ele>321.2200012207</ele>
        <time>2023-09-30T13:34:05.000Z</time>
      </trkpt>
      <trkpt lat="41.63808" lon="20.03621">
        <ele>322.66000366211</ele>
        <time>2023-09-30T13:34:04.000Z</time>
      </trkpt>
      <trkpt lat="41.63806" lon="20.03638">
        <ele>324.10000610352</ele>
        <time>2023-09-30T13:34:03.000Z</time>
      </trkpt>
      <trkpt lat="41.63806" lon="20.03659">
        <ele>325.54000854492</ele>
        <time>2023-09-30T13:34:02.000Z</time>
      </trkpt>
      <trkpt lat="41.63808" lon="20.03721">
        <ele>328.91000366211</ele>
        <time>2023-09-30T13:33:59.000Z</time>
      </trkpt>
      <trkpt lat="41.63808" lon="20.03739">
        <ele>329.39001464844</ele>
        <time>2023-09-30T13:33:58.000Z</time>
      </trkpt>
      <trkpt lat="41.63805" lon="20.03759">
        <ele>330.35000610352</ele>
        <time>2023-09-30T13:33:57.000Z</time>
      </trkpt>
      <trkpt lat="41.63801" lon="20.03777">
        <ele>331.30999755859</ele>
        <time>2023-09-30T13:33:56.000Z</time>
      </trkpt>
      <trkpt lat="41.63794" lon="20.03794">
        <ele>332.75</ele>
        <time>2023-09-30T13:33:55.000Z</time>
      </trkpt>
      <trkpt lat="41.63789" lon="20.03803">
        <ele>333.23001098633</ele>
        <time>2023-09-30T13:33:54.000Z</time>
      </trkpt>
      <trkpt lat="41.63778" lon="20.03823">
        <ele>333.23001098633</ele>
        <time>2023-09-30T13:33:53.000Z</time>
      </trkpt>
      <trkpt lat="41.63775" lon="20.03836">
        <ele>334.67999267578</ele>
        <time>2023-09-30T13:33:52.000Z</time>
      </trkpt>
      <trkpt lat="41.63773" lon="20.03856">
        <ele>335.64001464844</ele>
        <time>2023-09-30T13:33:51.000Z</time>
      </trkpt>
      <trkpt lat="41.63773" lon="20.03869">
        <ele>336.60000610352</ele>
        <time>2023-09-30T13:33:50.000Z</time>
      </trkpt>
      <trkpt lat="41.63775" lon="20.03892">
        <ele>337.55999755859</ele>
        <time>2023-09-30T13:33:49.000Z</time>
      </trkpt>
      <trkpt lat="41.63774" lon="20.03911">
        <ele>338.51998901367</ele>
        <time>2023-09-30T13:33:48.000Z</time>
      </trkpt>
      <trkpt lat="41.6377" lon="20.03928">
        <ele>339</ele>
        <time>2023-09-30T13:33:47.000Z</time>
      </trkpt>
      <trkpt lat="41.63768" lon="20.03935">
        <ele>339.48001098633</ele>
        <time>2023-09-30T13:33:46.000Z</time>
      </trkpt>
      <trkpt lat="41.6375" lon="20.03983">
        <ele>338.51998901367</ele>
        <time>2023-09-30T13:33:44.000Z</time>
      </trkpt>
      <trkpt lat="41.63746" lon="20.04003">
        <ele>337.07998657227</ele>
        <time>2023-09-30T13:33:43.000Z</time>
      </trkpt>
      <trkpt lat="41.63744" lon="20.04025">
        <ele>336.60000610352</ele>
        <time>2023-09-30T13:33:42.000Z</time>
      </trkpt>
      <trkpt lat="41.63744" lon="20.0403">
        <ele>336.60000610352</ele>
        <time>2023-09-30T13:33:41.000Z</time>
      </trkpt>
      <trkpt lat="41.63746" lon="20.04074">
        <ele>336.60000610352</ele>
        <time>2023-09-30T13:33:40.000Z</time>
      </trkpt>
      <trkpt lat="41.63749" lon="20.041">
        <ele>337.55999755859</ele>
        <time>2023-09-30T13:33:39.000Z</time>
      </trkpt>
      <trkpt lat="41.63755" lon="20.04121">
        <ele>339</ele>
        <time>2023-09-30T13:33:38.000Z</time>
      </trkpt>
      <trkpt lat="41.63762" lon="20.04138">
        <ele>339.95999145508</ele>
        <time>2023-09-30T13:33:37.000Z</time>
      </trkpt>
      <trkpt lat="41.63765" lon="20.04152">
        <ele>340.92001342773</ele>
        <time>2023-09-30T13:33:36.000Z</time>
      </trkpt>
      <trkpt lat="41.63764" lon="20.04166">
        <ele>341.89001464844</ele>
        <time>2023-09-30T13:33:35.000Z</time>
      </trkpt>
      <trkpt lat="41.63757" lon="20.04178">
        <ele>342.36999511719</ele>
        <time>2023-09-30T13:33:34.000Z</time>
      </trkpt>
      <trkpt lat="41.6375" lon="20.04186">
        <ele>343.32998657227</ele>
        <time>2023-09-30T13:33:33.000Z</time>
      </trkpt>
      <trkpt lat="41.63722" lon="20.04213">
        <ele>345.73001098633</ele>
        <time>2023-09-30T13:33:31.000Z</time>
      </trkpt>
      <trkpt lat="41.63713" lon="20.04226">
        <ele>346.20999145508</ele>
        <time>2023-09-30T13:33:30.000Z</time>
      </trkpt>
      <trkpt lat="41.63708" lon="20.0424">
        <ele>347.17001342773</ele>
        <time>2023-09-30T13:33:29.000Z</time>
      </trkpt>
      <trkpt lat="41.63704" lon="20.04256">
        <ele>348.13000488281</ele>
        <time>2023-09-30T13:33:28.000Z</time>
      </trkpt>
      <trkpt lat="41.63698" lon="20.04274">
        <ele>350.05999755859</ele>
        <time>2023-09-30T13:33:27.000Z</time>
      </trkpt>
      <trkpt lat="41.63692" lon="20.04289">
        <ele>351.01998901367</ele>
        <time>2023-09-30T13:33:26.000Z</time>
      </trkpt>
      <trkpt lat="41.63688" lon="20.043">
        <ele>351.5</ele>
        <time>2023-09-30T13:33:25.000Z</time>
      </trkpt>
      <trkpt lat="41.63689" lon="20.0431">
        <ele>351.5</ele>
        <time>2023-09-30T13:33:24.000Z</time>
      </trkpt>
      <trkpt lat="41.63694" lon="20.04322">
        <ele>351.01998901367</ele>
        <time>2023-09-30T13:33:23.000Z</time>
      </trkpt>
      <trkpt lat="41.63701" lon="20.04334">
        <ele>351.01998901367</ele>
        <time>2023-09-30T13:33:22.000Z</time>
      </trkpt>
      <trkpt lat="41.63709" lon="20.04349">
        <ele>351.01998901367</ele>
        <time>2023-09-30T13:33:21.000Z</time>
      </trkpt>
      <trkpt lat="41.63714" lon="20.04367">
        <ele>351.01998901367</ele>
        <time>2023-09-30T13:33:20.000Z</time>
      </trkpt>
      <trkpt lat="41.63715" lon="20.04385">
        <ele>351.5</ele>
        <time>2023-09-30T13:33:19.000Z</time>
      </trkpt>
      <trkpt lat="41.63716" lon="20.04406">
        <ele>352.45999145508</ele>
        <time>2023-09-30T13:33:18.000Z</time>
      </trkpt>
      <trkpt lat="41.63719" lon="20.04428">
        <ele>352.94000244141</ele>
        <time>2023-09-30T13:33:17.000Z</time>
      </trkpt>
      <trkpt lat="41.63722" lon="20.04446">
        <ele>353.42001342773</ele>
        <time>2023-09-30T13:33:16.000Z</time>
      </trkpt>
      <trkpt lat="41.6373" lon="20.04476">
        <ele>354.38000488281</ele>
        <time>2023-09-30T13:33:15.000Z</time>
      </trkpt>
      <trkpt lat="41.63733" lon="20.04498">
        <ele>355.33999633789</ele>
        <time>2023-09-30T13:33:14.000Z</time>
      </trkpt>
      <trkpt lat="41.63733" lon="20.04519">
        <ele>356.79000854492</ele>
        <time>2023-09-30T13:33:13.000Z</time>
      </trkpt>
      <trkpt lat="41.63732" lon="20.04527">
        <ele>357.26998901367</ele>
        <time>2023-09-30T13:33:12.000Z</time>
      </trkpt>
      <trkpt lat="41.63727" lon="20.04554">
        <ele>358.70999145508</ele>
        <time>2023-09-30T13:33:11.000Z</time>
      </trkpt>
      <trkpt lat="41.63727" lon="20.04569">
        <ele>359.19000244141</ele>
        <time>2023-09-30T13:33:10.000Z</time>
      </trkpt>
      <trkpt lat="41.63731" lon="20.04584">
        <ele>358.70999145508</ele>
        <time>2023-09-30T13:33:09.000Z</time>
      </trkpt>
      <trkpt lat="41.63735" lon="20.04593">
        <ele>358.23001098633</ele>
        <time>2023-09-30T13:33:08.000Z</time>
      </trkpt>
      <trkpt lat="41.63741" lon="20.04605">
        <ele>357.26998901367</ele>
        <time>2023-09-30T13:33:07.000Z</time>
      </trkpt>
      <trkpt lat="41.63799" lon="20.04734">
        <ele>359.67001342773</ele>
        <time>2023-09-30T13:33:01.000Z</time>
      </trkpt>
      <trkpt lat="41.63827" lon="20.04802">
        <ele>364.48001098633</ele>
        <time>2023-09-30T13:32:58.000Z</time>
      </trkpt>
      <trkpt lat="41.6383" lon="20.04818">
        <ele>365.92001342773</ele>
        <time>2023-09-30T13:32:57.000Z</time>
      </trkpt>
      <trkpt lat="41.63831" lon="20.04835">
        <ele>367.35998535156</ele>
        <time>2023-09-30T13:32:56.000Z</time>
      </trkpt>
      <trkpt lat="41.6383" lon="20.04844">
        <ele>367.83999633789</ele>
        <time>2023-09-30T13:32:55.000Z</time>
      </trkpt>
      <trkpt lat="41.63821" lon="20.04914">
        <ele>372.17001342773</ele>
        <time>2023-09-30T13:32:52.000Z</time>
      </trkpt>
      <trkpt lat="41.63822" lon="20.04935">
        <ele>373.13000488281</ele>
        <time>2023-09-30T13:32:51.000Z</time>
      </trkpt>
      <trkpt lat="41.63827" lon="20.04956">
        <ele>374.57000732422</ele>
        <time>2023-09-30T13:32:50.000Z</time>
      </trkpt>
      <trkpt lat="41.63834" lon="20.04976">
        <ele>376.01000976562</ele>
        <time>2023-09-30T13:32:49.000Z</time>
      </trkpt>
      <trkpt lat="41.63842" lon="20.04994">
        <ele>376.9700012207</ele>
        <time>2023-09-30T13:32:48.000Z</time>
      </trkpt>
      <trkpt lat="41.63848" lon="20.05013">
        <ele>378.42001342773</ele>
        <time>2023-09-30T13:32:47.000Z</time>
      </trkpt>
      <trkpt lat="41.63851" lon="20.05024">
        <ele>378.89999389648</ele>
        <time>2023-09-30T13:32:46.000Z</time>
      </trkpt>
      <trkpt lat="41.63865" lon="20.05113">
        <ele>385.14999389648</ele>
        <time>2023-09-30T13:32:42.000Z</time>
      </trkpt>
      <trkpt lat="41.63864" lon="20.05132">
        <ele>386.58999633789</ele>
        <time>2023-09-30T13:32:41.000Z</time>
      </trkpt>
      <trkpt lat="41.6386" lon="20.0515">
        <ele>388.0299987793</ele>
        <time>2023-09-30T13:32:40.000Z</time>
      </trkpt>
      <trkpt lat="41.63858" lon="20.05159">
        <ele>388.98999023438</ele>
        <time>2023-09-30T13:32:39.000Z</time>
      </trkpt>
      <trkpt lat="41.63849" lon="20.05185">
        <ele>390.42999267578</ele>
        <time>2023-09-30T13:32:38.000Z</time>
      </trkpt>
      <trkpt lat="41.63844" lon="20.05205">
        <ele>390.91000366211</ele>
        <time>2023-09-30T13:32:37.000Z</time>
      </trkpt>
      <trkpt lat="41.63841" lon="20.05227">
        <ele>390.91000366211</ele>
        <time>2023-09-30T13:32:36.000Z</time>
      </trkpt>
      <trkpt lat="41.6384" lon="20.0525">
        <ele>391.86999511719</ele>
        <time>2023-09-30T13:32:35.000Z</time>
      </trkpt>
      <trkpt lat="41.6384" lon="20.0527">
        <ele>392.83999633789</ele>
        <time>2023-09-30T13:32:34.000Z</time>
      </trkpt>
      <trkpt lat="41.63851" lon="20.05366">
        <ele>400.5299987793</ele>
        <time>2023-09-30T13:32:30.000Z</time>
      </trkpt>
      <trkpt lat="41.63854" lon="20.05384">
        <ele>402.45001220703</ele>
        <time>2023-09-30T13:32:29.000Z</time>
      </trkpt>
      <trkpt lat="41.63859" lon="20.05408">
        <ele>404.36999511719</ele>
        <time>2023-09-30T13:32:28.000Z</time>
      </trkpt>
      <trkpt lat="41.63862" lon="20.05426">
        <ele>405.80999755859</ele>
        <time>2023-09-30T13:32:27.000Z</time>
      </trkpt>
      <trkpt lat="41.63862" lon="20.05434">
        <ele>406.76998901367</ele>
        <time>2023-09-30T13:32:26.000Z</time>
      </trkpt>
      <trkpt lat="41.63864" lon="20.05463">
        <ele>408.70001220703</ele>
        <time>2023-09-30T13:32:25.000Z</time>
      </trkpt>
      <trkpt lat="41.63866" lon="20.05472">
        <ele>409.17999267578</ele>
        <time>2023-09-30T13:32:24.000Z</time>
      </trkpt>
      <trkpt lat="41.63877" lon="20.05524">
        <ele>409.66000366211</ele>
        <time>2023-09-30T13:32:21.000Z</time>
      </trkpt>
      <trkpt lat="41.63882" lon="20.05545">
        <ele>409.66000366211</ele>
        <time>2023-09-30T13:32:20.000Z</time>
      </trkpt>
      <trkpt lat="41.63888" lon="20.05579">
        <ele>409.66000366211</ele>
        <time>2023-09-30T13:32:19.000Z</time>
      </trkpt>
      <trkpt lat="41.63892" lon="20.05599">
        <ele>409.17999267578</ele>
        <time>2023-09-30T13:32:18.000Z</time>
      </trkpt>
      <trkpt lat="41.63896" lon="20.05614">
        <ele>409.66000366211</ele>
        <time>2023-09-30T13:32:17.000Z</time>
      </trkpt>
      <trkpt lat="41.63901" lon="20.0563">
        <ele>409.66000366211</ele>
        <time>2023-09-30T13:32:16.000Z</time>
      </trkpt>
      <trkpt lat="41.63906" lon="20.05642">
        <ele>409.66000366211</ele>
        <time>2023-09-30T13:32:15.000Z</time>
      </trkpt>
      <trkpt lat="41.6391" lon="20.05652">
        <ele>409.66000366211</ele>
        <time>2023-09-30T13:32:14.000Z</time>
      </trkpt>
      <trkpt lat="41.63918" lon="20.05665">
        <ele>410.14001464844</ele>
        <time>2023-09-30T13:32:13.000Z</time>
      </trkpt>
      <trkpt lat="41.63925" lon="20.05675">
        <ele>409.66000366211</ele>
        <time>2023-09-30T13:32:12.000Z</time>
      </trkpt>
      <trkpt lat="41.63933" lon="20.05683">
        <ele>410.14001464844</ele>
        <time>2023-09-30T13:32:11.000Z</time>
      </trkpt>
      <trkpt lat="41.63943" lon="20.0569">
        <ele>411.10000610352</ele>
        <time>2023-09-30T13:32:10.000Z</time>
      </trkpt>
      <trkpt lat="41.63953" lon="20.05693">
        <ele>411.57998657227</ele>
        <time>2023-09-30T13:32:09.000Z</time>
      </trkpt>
      <trkpt lat="41.63962" lon="20.05692">
        <ele>411.57998657227</ele>
        <time>2023-09-30T13:32:08.000Z</time>
      </trkpt>
      <trkpt lat="41.6397" lon="20.05689">
        <ele>411.57998657227</ele>
        <time>2023-09-30T13:32:07.000Z</time>
      </trkpt>
      <trkpt lat="41.63972" lon="20.05688">
        <ele>411.57998657227</ele>
        <time>2023-09-30T13:32:06.000Z</time>
      </trkpt>
      <trkpt lat="41.63979" lon="20.05683">
        <ele>411.57998657227</ele>
        <time>2023-09-30T13:32:05.000Z</time>
      </trkpt>
      <trkpt lat="41.63994" lon="20.05669">
        <ele>411.10000610352</ele>
        <time>2023-09-30T13:32:03.000Z</time>
      </trkpt>
      <trkpt lat="41.63999" lon="20.05667">
        <ele>411.10000610352</ele>
        <time>2023-09-30T13:32:02.000Z</time>
      </trkpt>
      <trkpt lat="41.64004" lon="20.05669">
        <ele>411.10000610352</ele>
        <time>2023-09-30T13:32:01.000Z</time>
      </trkpt>
      <trkpt lat="41.64007" lon="20.05676">
        <ele>411.10000610352</ele>
        <time>2023-09-30T13:32:00.000Z</time>
      </trkpt>
      <trkpt lat="41.64006" lon="20.05684">
        <ele>411.57998657227</ele>
        <time>2023-09-30T13:31:59.000Z</time>
      </trkpt>
      <trkpt lat="41.64002" lon="20.05692">
        <ele>412.05999755859</ele>
        <time>2023-09-30T13:31:58.000Z</time>
      </trkpt>
      <trkpt lat="41.63994" lon="20.05699">
        <ele>413.01998901367</ele>
        <time>2023-09-30T13:31:57.000Z</time>
      </trkpt>
      <trkpt lat="41.63966" lon="20.05722">
        <ele>416.39001464844</ele>
        <time>2023-09-30T13:31:54.000Z</time>
      </trkpt>
      <trkpt lat="41.63961" lon="20.05728">
        <ele>417.35000610352</ele>
        <time>2023-09-30T13:31:53.000Z</time>
      </trkpt>
      <trkpt lat="41.6396" lon="20.05735">
        <ele>418.30999755859</ele>
        <time>2023-09-30T13:31:52.000Z</time>
      </trkpt>
      <trkpt lat="41.63963" lon="20.05741">
        <ele>419.26998901367</ele>
        <time>2023-09-30T13:31:51.000Z</time>
      </trkpt>
      <trkpt lat="41.63969" lon="20.05743">
        <ele>420.23001098633</ele>
        <time>2023-09-30T13:31:50.000Z</time>
      </trkpt>
      <trkpt lat="41.63979" lon="20.0574">
        <ele>421.19000244141</ele>
        <time>2023-09-30T13:31:49.000Z</time>
      </trkpt>
      <trkpt lat="41.63981" lon="20.05739">
        <ele>421.19000244141</ele>
        <time>2023-09-30T13:31:48.000Z</time>
      </trkpt>
      <trkpt lat="41.64001" lon="20.05727">
        <ele>422.16000366211</ele>
        <time>2023-09-30T13:31:47.000Z</time>
      </trkpt>
      <trkpt lat="41.64012" lon="20.05722">
        <ele>422.64001464844</ele>
        <time>2023-09-30T13:31:46.000Z</time>
      </trkpt>
      <trkpt lat="41.6402" lon="20.05722">
        <ele>423.11999511719</ele>
        <time>2023-09-30T13:31:45.000Z</time>
      </trkpt>
      <trkpt lat="41.64027" lon="20.05727">
        <ele>424.07998657227</ele>
        <time>2023-09-30T13:31:44.000Z</time>
      </trkpt>
      <trkpt lat="41.64029" lon="20.05735">
        <ele>424.55999755859</ele>
        <time>2023-09-30T13:31:43.000Z</time>
      </trkpt>
      <trkpt lat="41.64027" lon="20.05743">
        <ele>425.51998901367</ele>
        <time>2023-09-30T13:31:42.000Z</time>
      </trkpt>
      <trkpt lat="41.6402" lon="20.05749">
        <ele>426</ele>
        <time>2023-09-30T13:31:41.000Z</time>
      </trkpt>
      <trkpt lat="41.6401" lon="20.05753">
        <ele>426.48001098633</ele>
        <time>2023-09-30T13:31:40.000Z</time>
      </trkpt>
      <trkpt lat="41.64" lon="20.05758">
        <ele>426.95999145508</ele>
        <time>2023-09-30T13:31:39.000Z</time>
      </trkpt>
      <trkpt lat="41.63992" lon="20.05766">
        <ele>427.92001342773</ele>
        <time>2023-09-30T13:31:38.000Z</time>
      </trkpt>
      <trkpt lat="41.63987" lon="20.05776">
        <ele>428.89001464844</ele>
        <time>2023-09-30T13:31:37.000Z</time>
      </trkpt>
      <trkpt lat="41.63986" lon="20.05787">
        <ele>429.85000610352</ele>
        <time>2023-09-30T13:31:36.000Z</time>
      </trkpt>
      <trkpt lat="41.63989" lon="20.05798">
        <ele>430.80999755859</ele>
        <time>2023-09-30T13:31:35.000Z</time>
      </trkpt>
      <trkpt lat="41.63995" lon="20.0581">
        <ele>432.25</ele>
        <time>2023-09-30T13:31:34.000Z</time>
      </trkpt>
      <trkpt lat="41.64006" lon="20.05825">
        <ele>434.17001342773</ele>
        <time>2023-09-30T13:31:33.000Z</time>
      </trkpt>
      <trkpt lat="41.6402" lon="20.05843">
        <ele>436.10000610352</ele>
        <time>2023-09-30T13:31:31.000Z</time>
      </trkpt>
      <trkpt lat="41.64048" lon="20.05887">
        <ele>439.45999145508</ele>
        <time>2023-09-30T13:31:29.000Z</time>
      </trkpt>
      <trkpt lat="41.64053" lon="20.05902">
        <ele>440.89999389648</ele>
        <time>2023-09-30T13:31:28.000Z</time>
      </trkpt>
      <trkpt lat="41.64055" lon="20.05916">
        <ele>441.85998535156</ele>
        <time>2023-09-30T13:31:27.000Z</time>
      </trkpt>
      <trkpt lat="41.64058" lon="20.06058">
        <ele>451.95999145508</ele>
        <time>2023-09-30T13:31:21.000Z</time>
      </trkpt>
      <trkpt lat="41.64056" lon="20.06078">
        <ele>454.35998535156</ele>
        <time>2023-09-30T13:31:20.000Z</time>
      </trkpt>
      <trkpt lat="41.64053" lon="20.06094">
        <ele>455.79998779297</ele>
        <time>2023-09-30T13:31:19.000Z</time>
      </trkpt>
      <trkpt lat="41.64051" lon="20.061">
        <ele>455.79998779297</ele>
        <time>2023-09-30T13:31:18.000Z</time>
      </trkpt>
      <trkpt lat="41.64028" lon="20.0617">
        <ele>460.60998535156</ele>
        <time>2023-09-30T13:31:15.000Z</time>
      </trkpt>
      <trkpt lat="41.64025" lon="20.06187">
        <ele>461.08999633789</ele>
        <time>2023-09-30T13:31:14.000Z</time>
      </trkpt>
      <trkpt lat="41.64025" lon="20.06208">
        <ele>460.13000488281</ele>
        <time>2023-09-30T13:31:13.000Z</time>
      </trkpt>
      <trkpt lat="41.64025" lon="20.06229">
        <ele>459.17001342773</ele>
        <time>2023-09-30T13:31:12.000Z</time>
      </trkpt>
      <trkpt lat="41.64024" lon="20.06248">
        <ele>458.20999145508</ele>
        <time>2023-09-30T13:31:11.000Z</time>
      </trkpt>
      <trkpt lat="41.6402" lon="20.06267">
        <ele>457.23999023438</ele>
        <time>2023-09-30T13:31:10.000Z</time>
      </trkpt>
      <trkpt lat="41.64015" lon="20.06285">
        <ele>456.2799987793</ele>
        <time>2023-09-30T13:31:09.000Z</time>
      </trkpt>
      <trkpt lat="41.64007" lon="20.06301">
        <ele>455.79998779297</ele>
        <time>2023-09-30T13:31:08.000Z</time>
      </trkpt>
      <trkpt lat="41.63997" lon="20.06317">
        <ele>455.32000732422</ele>
        <time>2023-09-30T13:31:07.000Z</time>
      </trkpt>
      <trkpt lat="41.6399" lon="20.06327">
        <ele>455.32000732422</ele>
        <time>2023-09-30T13:31:06.000Z</time>
      </trkpt>
      <trkpt lat="41.63983" lon="20.06336">
        <ele>454.83999633789</ele>
        <time>2023-09-30T13:31:05.000Z</time>
      </trkpt>
      <trkpt lat="41.63945" lon="20.06374">
        <ele>451</ele>
        <time>2023-09-30T13:31:03.000Z</time>
      </trkpt>
      <trkpt lat="41.63931" lon="20.0639">
        <ele>451</ele>
        <time>2023-09-30T13:31:02.000Z</time>
      </trkpt>
      <trkpt lat="41.63928" lon="20.06394">
        <ele>451</ele>
        <time>2023-09-30T13:31:01.000Z</time>
      </trkpt>
      <trkpt lat="41.63891" lon="20.06452">
        <ele>454.35998535156</ele>
        <time>2023-09-30T13:30:59.000Z</time>
      </trkpt>
      <trkpt lat="41.63879" lon="20.06468">
        <ele>456.2799987793</ele>
        <time>2023-09-30T13:30:58.000Z</time>
      </trkpt>
      <trkpt lat="41.63866" lon="20.0648">
        <ele>458.69000244141</ele>
        <time>2023-09-30T13:30:57.000Z</time>
      </trkpt>
      <trkpt lat="41.63855" lon="20.06488">
        <ele>460.60998535156</ele>
        <time>2023-09-30T13:30:56.000Z</time>
      </trkpt>
      <trkpt lat="41.63844" lon="20.06497">
        <ele>462.04998779297</ele>
        <time>2023-09-30T13:30:55.000Z</time>
      </trkpt>
      <trkpt lat="41.63835" lon="20.06509">
        <ele>463.01000976562</ele>
        <time>2023-09-30T13:30:54.000Z</time>
      </trkpt>
      <trkpt lat="41.63828" lon="20.0652">
        <ele>463.48999023438</ele>
        <time>2023-09-30T13:30:53.000Z</time>
      </trkpt>
      <trkpt lat="41.63819" lon="20.06528">
        <ele>464.45001220703</ele>
        <time>2023-09-30T13:30:52.000Z</time>
      </trkpt>
      <trkpt lat="41.63813" lon="20.06531">
        <ele>464.45001220703</ele>
        <time>2023-09-30T13:30:51.000Z</time>
      </trkpt>
      <trkpt lat="41.63796" lon="20.06537">
        <ele>464.45001220703</ele>
        <time>2023-09-30T13:30:50.000Z</time>
      </trkpt>
      <trkpt lat="41.63787" lon="20.06542">
        <ele>465.42001342773</ele>
        <time>2023-09-30T13:30:49.000Z</time>
      </trkpt>
      <trkpt lat="41.63775" lon="20.06552">
        <ele>466.38000488281</ele>
        <time>2023-09-30T13:30:48.000Z</time>
      </trkpt>
      <trkpt lat="41.63766" lon="20.06561">
        <ele>467.33999633789</ele>
        <time>2023-09-30T13:30:47.000Z</time>
      </trkpt>
      <trkpt lat="41.63736" lon="20.06599">
        <ele>470.2200012207</ele>
        <time>2023-09-30T13:30:44.000Z</time>
      </trkpt>
      <trkpt lat="41.6373" lon="20.06607">
        <ele>470.70001220703</ele>
        <time>2023-09-30T13:30:43.000Z</time>
      </trkpt>
      <trkpt lat="41.63711" lon="20.06641">
        <ele>470.70001220703</ele>
        <time>2023-09-30T13:30:41.000Z</time>
      </trkpt>
      <trkpt lat="41.63706" lon="20.06656">
        <ele>470.2200012207</ele>
        <time>2023-09-30T13:30:40.000Z</time>
      </trkpt>
      <trkpt lat="41.63703" lon="20.06675">
        <ele>468.7799987793</ele>
        <time>2023-09-30T13:30:39.000Z</time>
      </trkpt>
      <trkpt lat="41.63703" lon="20.06679">
        <ele>468.7799987793</ele>
        <time>2023-09-30T13:30:38.000Z</time>
      </trkpt>
      <trkpt lat="41.63688" lon="20.06834">
        <ele>471.17999267578</ele>
        <time>2023-09-30T13:30:33.000Z</time>
      </trkpt>
      <trkpt lat="41.63685" lon="20.06854">
        <ele>471.66000366211</ele>
        <time>2023-09-30T13:30:32.000Z</time>
      </trkpt>
      <trkpt lat="41.63678" lon="20.06881">
        <ele>473.58999633789</ele>
        <time>2023-09-30T13:30:31.000Z</time>
      </trkpt>
      <trkpt lat="41.6367" lon="20.06902">
        <ele>475.51000976562</ele>
        <time>2023-09-30T13:30:30.000Z</time>
      </trkpt>
      <trkpt lat="41.63662" lon="20.06918">
        <ele>477.42999267578</ele>
        <time>2023-09-30T13:30:29.000Z</time>
      </trkpt>
      <trkpt lat="41.63652" lon="20.06934">
        <ele>479.35000610352</ele>
        <time>2023-09-30T13:30:28.000Z</time>
      </trkpt>
      <trkpt lat="41.63612" lon="20.06991">
        <ele>486.07998657227</ele>
        <time>2023-09-30T13:30:24.000Z</time>
      </trkpt>
      <trkpt lat="41.63591" lon="20.07026">
        <ele>489.45001220703</ele>
        <time>2023-09-30T13:30:22.000Z</time>
      </trkpt>
      <trkpt lat="41.63582" lon="20.07036">
        <ele>491.36999511719</ele>
        <time>2023-09-30T13:30:21.000Z</time>
      </trkpt>
      <trkpt lat="41.6357" lon="20.07041">
        <ele>492.80999755859</ele>
        <time>2023-09-30T13:30:20.000Z</time>
      </trkpt>
      <trkpt lat="41.63558" lon="20.07043">
        <ele>494.26000976562</ele>
        <time>2023-09-30T13:30:19.000Z</time>
      </trkpt>
      <trkpt lat="41.63533" lon="20.07046">
        <ele>496.66000366211</ele>
        <time>2023-09-30T13:30:17.000Z</time>
      </trkpt>
      <trkpt lat="41.63526" lon="20.0705">
        <ele>498.10000610352</ele>
        <time>2023-09-30T13:30:16.000Z</time>
      </trkpt>
      <trkpt lat="41.63521" lon="20.07056">
        <ele>499.05999755859</ele>
        <time>2023-09-30T13:30:15.000Z</time>
      </trkpt>
      <trkpt lat="41.63521" lon="20.07063">
        <ele>500.01998901367</ele>
        <time>2023-09-30T13:30:14.000Z</time>
      </trkpt>
      <trkpt lat="41.63524" lon="20.07069">
        <ele>500.98001098633</ele>
        <time>2023-09-30T13:30:13.000Z</time>
      </trkpt>
      <trkpt lat="41.63531" lon="20.07073">
        <ele>502.42999267578</ele>
        <time>2023-09-30T13:30:12.000Z</time>
      </trkpt>
      <trkpt lat="41.63542" lon="20.07076">
        <ele>503.39001464844</ele>
        <time>2023-09-30T13:30:11.000Z</time>
      </trkpt>
      <trkpt lat="41.63556" lon="20.07077">
        <ele>504.35000610352</ele>
        <time>2023-09-30T13:30:10.000Z</time>
      </trkpt>
      <trkpt lat="41.63569" lon="20.07076">
        <ele>504.82998657227</ele>
        <time>2023-09-30T13:30:09.000Z</time>
      </trkpt>
      <trkpt lat="41.63583" lon="20.07073">
        <ele>505.30999755859</ele>
        <time>2023-09-30T13:30:08.000Z</time>
      </trkpt>
      <trkpt lat="41.63616" lon="20.07063">
        <ele>506.26998901367</ele>
        <time>2023-09-30T13:30:06.000Z</time>
      </trkpt>
      <trkpt lat="41.63628" lon="20.07063">
        <ele>506.75</ele>
        <time>2023-09-30T13:30:05.000Z</time>
      </trkpt>
      <trkpt lat="41.63638" lon="20.07068">
        <ele>507.23001098633</ele>
        <time>2023-09-30T13:30:04.000Z</time>
      </trkpt>
      <trkpt lat="41.63646" lon="20.07078">
        <ele>507.70999145508</ele>
        <time>2023-09-30T13:30:03.000Z</time>
      </trkpt>
      <trkpt lat="41.63651" lon="20.07092">
        <ele>508.19000244141</ele>
        <time>2023-09-30T13:30:02.000Z</time>
      </trkpt>
      <trkpt lat="41.6367" lon="20.0715">
        <ele>510.60000610352</ele>
        <time>2023-09-30T13:29:59.000Z</time>
      </trkpt>
      <trkpt lat="41.63679" lon="20.0717">
        <ele>511.55999755859</ele>
        <time>2023-09-30T13:29:58.000Z</time>
      </trkpt>
      <trkpt lat="41.63687" lon="20.07185">
        <ele>512.52001953125</ele>
        <time>2023-09-30T13:29:57.000Z</time>
      </trkpt>
      <trkpt lat="41.63694" lon="20.072">
        <ele>513</ele>
        <time>2023-09-30T13:29:56.000Z</time>
      </trkpt>
      <trkpt lat="41.63699" lon="20.07215">
        <ele>513.47998046875</ele>
        <time>2023-09-30T13:29:55.000Z</time>
      </trkpt>
      <trkpt lat="41.637" lon="20.07226">
        <ele>513.96002197266</ele>
        <time>2023-09-30T13:29:54.000Z</time>
      </trkpt>
      <trkpt lat="41.63699" lon="20.07235">
        <ele>513.96002197266</ele>
        <time>2023-09-30T13:29:53.000Z</time>
      </trkpt>
      <trkpt lat="41.63694" lon="20.07241">
        <ele>514.44000244141</ele>
        <time>2023-09-30T13:29:52.000Z</time>
      </trkpt>
      <trkpt lat="41.63688" lon="20.07242">
        <ele>514.44000244141</ele>
        <time>2023-09-30T13:29:51.000Z</time>
      </trkpt>
      <trkpt lat="41.63682" lon="20.07238">
        <ele>514.91998291016</ele>
        <time>2023-09-30T13:29:50.000Z</time>
      </trkpt>
      <trkpt lat="41.63677" lon="20.07228">
        <ele>515.88000488281</ele>
        <time>2023-09-30T13:29:49.000Z</time>
      </trkpt>
      <trkpt lat="41.63675" lon="20.07223">
        <ele>515.88000488281</ele>
        <time>2023-09-30T13:29:48.000Z</time>
      </trkpt>
      <trkpt lat="41.63667" lon="20.07203">
        <ele>516.36999511719</ele>
        <time>2023-09-30T13:29:47.000Z</time>
      </trkpt>
      <trkpt lat="41.63659" lon="20.07193">
        <ele>516.84997558594</ele>
        <time>2023-09-30T13:29:46.000Z</time>
      </trkpt>
      <trkpt lat="41.6365" lon="20.07185">
        <ele>517.33001708984</ele>
        <time>2023-09-30T13:29:45.000Z</time>
      </trkpt>
      <trkpt lat="41.63639" lon="20.0718">
        <ele>518.28997802734</ele>
        <time>2023-09-30T13:29:44.000Z</time>
      </trkpt>
      <trkpt lat="41.63627" lon="20.07177">
        <ele>519.25</ele>
        <time>2023-09-30T13:29:43.000Z</time>
      </trkpt>
      <trkpt lat="41.63616" lon="20.07176">
        <ele>519.72998046875</ele>
        <time>2023-09-30T13:29:42.000Z</time>
      </trkpt>
      <trkpt lat="41.63604" lon="20.07179">
        <ele>520.69000244141</ele>
        <time>2023-09-30T13:29:41.000Z</time>
      </trkpt>
      <trkpt lat="41.63592" lon="20.07184">
        <ele>520.69000244141</ele>
        <time>2023-09-30T13:29:40.000Z</time>
      </trkpt>
      <trkpt lat="41.63579" lon="20.07192">
        <ele>520.69000244141</ele>
        <time>2023-09-30T13:29:39.000Z</time>
      </trkpt>
      <trkpt lat="41.63568" lon="20.07196">
        <ele>519.72998046875</ele>
        <time>2023-09-30T13:29:38.000Z</time>
      </trkpt>
      <trkpt lat="41.63557" lon="20.07196">
        <ele>519.25</ele>
        <time>2023-09-30T13:29:37.000Z</time>
      </trkpt>
      <trkpt lat="41.63546" lon="20.07191">
        <ele>518.77001953125</ele>
        <time>2023-09-30T13:29:36.000Z</time>
      </trkpt>
      <trkpt lat="41.63535" lon="20.07184">
        <ele>517.80999755859</ele>
        <time>2023-09-30T13:29:35.000Z</time>
      </trkpt>
      <trkpt lat="41.63523" lon="20.07178">
        <ele>516.84997558594</ele>
        <time>2023-09-30T13:29:34.000Z</time>
      </trkpt>
      <trkpt lat="41.63509" lon="20.07177">
        <ele>515.88000488281</ele>
        <time>2023-09-30T13:29:33.000Z</time>
      </trkpt>
      <trkpt lat="41.63494" lon="20.0718">
        <ele>514.91998291016</ele>
        <time>2023-09-30T13:29:32.000Z</time>
      </trkpt>
      <trkpt lat="41.63491" lon="20.07181">
        <ele>514.91998291016</ele>
        <time>2023-09-30T13:29:31.000Z</time>
      </trkpt>
      <trkpt lat="41.63418" lon="20.07218">
        <ele>516.36999511719</ele>
        <time>2023-09-30T13:29:27.000Z</time>
      </trkpt>
      <trkpt lat="41.63404" lon="20.07228">
        <ele>517.80999755859</ele>
        <time>2023-09-30T13:29:26.000Z</time>
      </trkpt>
      <trkpt lat="41.63392" lon="20.0724">
        <ele>519.25</ele>
        <time>2023-09-30T13:29:25.000Z</time>
      </trkpt>
      <trkpt lat="41.63307" lon="20.07347">
        <ele>532.22998046875</ele>
        <time>2023-09-30T13:29:18.000Z</time>
      </trkpt>
      <trkpt lat="41.63296" lon="20.07358">
        <ele>534.15002441406</ele>
        <time>2023-09-30T13:29:17.000Z</time>
      </trkpt>
      <trkpt lat="41.6329" lon="20.07362">
        <ele>534.63000488281</ele>
        <time>2023-09-30T13:29:16.000Z</time>
      </trkpt>
      <trkpt lat="41.63266" lon="20.07377">
        <ele>537.98999023438</ele>
        <time>2023-09-30T13:29:15.000Z</time>
      </trkpt>
      <trkpt lat="41.63252" lon="20.07389">
        <ele>539.91998291016</ele>
        <time>2023-09-30T13:29:14.000Z</time>
      </trkpt>
      <trkpt lat="41.63244" lon="20.07398">
        <ele>540.88000488281</ele>
        <time>2023-09-30T13:29:13.000Z</time>
      </trkpt>
      <trkpt lat="41.63207" lon="20.07444">
        <ele>542.79998779297</ele>
        <time>2023-09-30T13:29:10.000Z</time>
      </trkpt>
      <trkpt lat="41.63193" lon="20.07465">
        <ele>542.79998779297</ele>
        <time>2023-09-30T13:29:09.000Z</time>
      </trkpt>
      <trkpt lat="41.63184" lon="20.07478">
        <ele>542.32000732422</ele>
        <time>2023-09-30T13:29:08.000Z</time>
      </trkpt>
      <trkpt lat="41.63168" lon="20.07495">
        <ele>541.35998535156</ele>
        <time>2023-09-30T13:29:07.000Z</time>
      </trkpt>
      <trkpt lat="41.63153" lon="20.07506">
        <ele>540.88000488281</ele>
        <time>2023-09-30T13:29:06.000Z</time>
      </trkpt>
      <trkpt lat="41.63137" lon="20.07515">
        <ele>540.40002441406</ele>
        <time>2023-09-30T13:29:05.000Z</time>
      </trkpt>
      <trkpt lat="41.63123" lon="20.0752">
        <ele>539.91998291016</ele>
        <time>2023-09-30T13:29:04.000Z</time>
      </trkpt>
      <trkpt lat="41.63081" lon="20.07532">
        <ele>539.91998291016</ele>
        <time>2023-09-30T13:29:02.000Z</time>
      </trkpt>
      <trkpt lat="41.63025" lon="20.07552">
        <ele>540.40002441406</ele>
        <time>2023-09-30T13:28:59.000Z</time>
      </trkpt>
      <trkpt lat="41.63009" lon="20.07561">
        <ele>540.88000488281</ele>
        <time>2023-09-30T13:28:58.000Z</time>
      </trkpt>
      <trkpt lat="41.62998" lon="20.07568">
        <ele>540.88000488281</ele>
        <time>2023-09-30T13:28:57.000Z</time>
      </trkpt>
      <trkpt lat="41.62979" lon="20.07585">
        <ele>540.88000488281</ele>
        <time>2023-09-30T13:28:56.000Z</time>
      </trkpt>
      <trkpt lat="41.62969" lon="20.07596">
        <ele>540.88000488281</ele>
        <time>2023-09-30T13:28:55.000Z</time>
      </trkpt>
      <trkpt lat="41.62957" lon="20.0761">
        <ele>541.35998535156</ele>
        <time>2023-09-30T13:28:54.000Z</time>
      </trkpt>
      <trkpt lat="41.62949" lon="20.07623">
        <ele>541.84002685547</ele>
        <time>2023-09-30T13:28:53.000Z</time>
      </trkpt>
      <trkpt lat="41.62944" lon="20.07635">
        <ele>541.84002685547</ele>
        <time>2023-09-30T13:28:52.000Z</time>
      </trkpt>
      <trkpt lat="41.62937" lon="20.0765">
        <ele>542.79998779297</ele>
        <time>2023-09-30T13:28:51.000Z</time>
      </trkpt>
      <trkpt lat="41.62934" lon="20.07657">
        <ele>542.79998779297</ele>
        <time>2023-09-30T13:28:50.000Z</time>
      </trkpt>
      <trkpt lat="41.62917" lon="20.07688">
        <ele>543.76000976562</ele>
        <time>2023-09-30T13:28:48.000Z</time>
      </trkpt>
      <trkpt lat="41.62912" lon="20.077">
        <ele>544.23999023438</ele>
        <time>2023-09-30T13:28:47.000Z</time>
      </trkpt>
      <trkpt lat="41.62886" lon="20.07778">
        <ele>547.60998535156</ele>
        <time>2023-09-30T13:28:42.000Z</time>
      </trkpt>
      <trkpt lat="41.6288" lon="20.07791">
        <ele>548.09002685547</ele>
        <time>2023-09-30T13:28:41.000Z</time>
      </trkpt>
      <trkpt lat="41.62878" lon="20.07797">
        <ele>548.09002685547</ele>
        <time>2023-09-30T13:28:40.000Z</time>
      </trkpt>
      <trkpt lat="41.62867" lon="20.07822">
        <ele>547.60998535156</ele>
        <time>2023-09-30T13:28:38.000Z</time>
      </trkpt>
      <trkpt lat="41.62861" lon="20.07836">
        <ele>548.09002685547</ele>
        <time>2023-09-30T13:28:37.000Z</time>
      </trkpt>
      <trkpt lat="41.62858" lon="20.0785">
        <ele>548.09002685547</ele>
        <time>2023-09-30T13:28:36.000Z</time>
      </trkpt>
      <trkpt lat="41.62853" lon="20.07871">
        <ele>548.57000732422</ele>
        <time>2023-09-30T13:28:35.000Z</time>
      </trkpt>
      <trkpt lat="41.62848" lon="20.0789">
        <ele>548.57000732422</ele>
        <time>2023-09-30T13:28:34.000Z</time>
      </trkpt>
      <trkpt lat="41.62841" lon="20.07905">
        <ele>548.57000732422</ele>
        <time>2023-09-30T13:28:33.000Z</time>
      </trkpt>
      <trkpt lat="41.62832" lon="20.07924">
        <ele>549.04998779297</ele>
        <time>2023-09-30T13:28:32.000Z</time>
      </trkpt>
      <trkpt lat="41.62826" lon="20.07939">
        <ele>549.04998779297</ele>
        <time>2023-09-30T13:28:31.000Z</time>
      </trkpt>
      <trkpt lat="41.6281" lon="20.07986">
        <ele>549.04998779297</ele>
        <time>2023-09-30T13:28:29.000Z</time>
      </trkpt>
      <trkpt lat="41.62806" lon="20.08008">
        <ele>549.04998779297</ele>
        <time>2023-09-30T13:28:28.000Z</time>
      </trkpt>
      <trkpt lat="41.62804" lon="20.08023">
        <ele>549.04998779297</ele>
        <time>2023-09-30T13:28:27.000Z</time>
      </trkpt>
      <trkpt lat="41.62803" lon="20.08068">
        <ele>549.04998779297</ele>
        <time>2023-09-30T13:28:25.000Z</time>
      </trkpt>
      <trkpt lat="41.62806" lon="20.08087">
        <ele>549.04998779297</ele>
        <time>2023-09-30T13:28:24.000Z</time>
      </trkpt>
      <trkpt lat="41.62811" lon="20.08105">
        <ele>549.04998779297</ele>
        <time>2023-09-30T13:28:23.000Z</time>
      </trkpt>
      <trkpt lat="41.6282" lon="20.08124">
        <ele>549.04998779297</ele>
        <time>2023-09-30T13:28:22.000Z</time>
      </trkpt>
      <trkpt lat="41.62829" lon="20.0814">
        <ele>549.04998779297</ele>
        <time>2023-09-30T13:28:21.000Z</time>
      </trkpt>
      <trkpt lat="41.62839" lon="20.08153">
        <ele>549.04998779297</ele>
        <time>2023-09-30T13:28:20.000Z</time>
      </trkpt>
      <trkpt lat="41.6285" lon="20.08167">
        <ele>549.04998779297</ele>
        <time>2023-09-30T13:28:19.000Z</time>
      </trkpt>
      <trkpt lat="41.62861" lon="20.08178">
        <ele>548.57000732422</ele>
        <time>2023-09-30T13:28:18.000Z</time>
      </trkpt>
      <trkpt lat="41.62872" lon="20.08191">
        <ele>548.57000732422</ele>
        <time>2023-09-30T13:28:17.000Z</time>
      </trkpt>
      <trkpt lat="41.62885" lon="20.08209">
        <ele>549.04998779297</ele>
        <time>2023-09-30T13:28:16.000Z</time>
      </trkpt>
      <trkpt lat="41.62893" lon="20.08224">
        <ele>549.04998779297</ele>
        <time>2023-09-30T13:28:15.000Z</time>
      </trkpt>
      <trkpt lat="41.62899" lon="20.08236">
        <ele>549.53002929688</ele>
        <time>2023-09-30T13:28:14.000Z</time>
      </trkpt>
      <trkpt lat="41.62904" lon="20.08249">
        <ele>549.53002929688</ele>
        <time>2023-09-30T13:28:13.000Z</time>
      </trkpt>
      <trkpt lat="41.62913" lon="20.08275">
        <ele>550.01000976562</ele>
        <time>2023-09-30T13:28:12.000Z</time>
      </trkpt>
      <trkpt lat="41.62921" lon="20.08297">
        <ele>550.01000976562</ele>
        <time>2023-09-30T13:28:11.000Z</time>
      </trkpt>
      <trkpt lat="41.62925" lon="20.08316">
        <ele>550.01000976562</ele>
        <time>2023-09-30T13:28:10.000Z</time>
      </trkpt>
      <trkpt lat="41.62927" lon="20.08335">
        <ele>549.53002929688</ele>
        <time>2023-09-30T13:28:09.000Z</time>
      </trkpt>
      <trkpt lat="41.62929" lon="20.0841">
        <ele>549.04998779297</ele>
        <time>2023-09-30T13:28:05.000Z</time>
      </trkpt>
      <trkpt lat="41.62931" lon="20.08539">
        <ele>552.90002441406</ele>
        <time>2023-09-30T13:28:00.000Z</time>
      </trkpt>
      <trkpt lat="41.62932" lon="20.08565">
        <ele>553.85998535156</ele>
        <time>2023-09-30T13:27:59.000Z</time>
      </trkpt>
      <trkpt lat="41.62932" lon="20.08584">
        <ele>554.34002685547</ele>
        <time>2023-09-30T13:27:58.000Z</time>
      </trkpt>
      <trkpt lat="41.62931" lon="20.08612">
        <ele>555.78002929688</ele>
        <time>2023-09-30T13:27:57.000Z</time>
      </trkpt>
      <trkpt lat="41.62932" lon="20.08625">
        <ele>556.26000976562</ele>
        <time>2023-09-30T13:27:56.000Z</time>
      </trkpt>
      <trkpt lat="41.62934" lon="20.08648">
        <ele>556.73999023438</ele>
        <time>2023-09-30T13:27:55.000Z</time>
      </trkpt>
      <trkpt lat="41.62936" lon="20.08662">
        <ele>556.73999023438</ele>
        <time>2023-09-30T13:27:54.000Z</time>
      </trkpt>
      <trkpt lat="41.62937" lon="20.08676">
        <ele>556.73999023438</ele>
        <time>2023-09-30T13:27:53.000Z</time>
      </trkpt>
      <trkpt lat="41.62936" lon="20.08692">
        <ele>556.73999023438</ele>
        <time>2023-09-30T13:27:52.000Z</time>
      </trkpt>
      <trkpt lat="41.62934" lon="20.08707">
        <ele>556.73999023438</ele>
        <time>2023-09-30T13:27:51.000Z</time>
      </trkpt>
      <trkpt lat="41.62929" lon="20.08725">
        <ele>556.26000976562</ele>
        <time>2023-09-30T13:27:50.000Z</time>
      </trkpt>
      <trkpt lat="41.62927" lon="20.08728">
        <ele>556.26000976562</ele>
        <time>2023-09-30T13:27:49.000Z</time>
      </trkpt>
      <trkpt lat="41.62916" lon="20.0876">
        <ele>554.82000732422</ele>
        <time>2023-09-30T13:27:48.000Z</time>
      </trkpt>
      <trkpt lat="41.62913" lon="20.08769">
        <ele>554.34002685547</ele>
        <time>2023-09-30T13:27:47.000Z</time>
      </trkpt>
      <trkpt lat="41.62894" lon="20.0883">
        <ele>552.90002441406</ele>
        <time>2023-09-30T13:27:45.000Z</time>
      </trkpt>
      <trkpt lat="41.62889" lon="20.08842">
        <ele>552.90002441406</ele>
        <time>2023-09-30T13:27:44.000Z</time>
      </trkpt>
      <trkpt lat="41.62862" lon="20.08901">
        <ele>555.29998779297</ele>
        <time>2023-09-30T13:27:41.000Z</time>
      </trkpt>
      <trkpt lat="41.62856" lon="20.08918">
        <ele>555.29998779297</ele>
        <time>2023-09-30T13:27:40.000Z</time>
      </trkpt>
      <trkpt lat="41.62854" lon="20.08934">
        <ele>555.78002929688</ele>
        <time>2023-09-30T13:27:39.000Z</time>
      </trkpt>
      <trkpt lat="41.62854" lon="20.08939">
        <ele>555.78002929688</ele>
        <time>2023-09-30T13:27:38.000Z</time>
      </trkpt>
      <trkpt lat="41.62853" lon="20.08974">
        <ele>556.73999023438</ele>
        <time>2023-09-30T13:27:36.000Z</time>
      </trkpt>
      <trkpt lat="41.62854" lon="20.09011">
        <ele>555.29998779297</ele>
        <time>2023-09-30T13:27:34.000Z</time>
      </trkpt>
      <trkpt lat="41.62855" lon="20.09025">
        <ele>554.82000732422</ele>
        <time>2023-09-30T13:27:33.000Z</time>
      </trkpt>
      <trkpt lat="41.62853" lon="20.09038">
        <ele>554.82000732422</ele>
        <time>2023-09-30T13:27:32.000Z</time>
      </trkpt>
      <trkpt lat="41.6285" lon="20.09048">
        <ele>554.82000732422</ele>
        <time>2023-09-30T13:27:31.000Z</time>
      </trkpt>
      <trkpt lat="41.62846" lon="20.09058">
        <ele>555.29998779297</ele>
        <time>2023-09-30T13:27:30.000Z</time>
      </trkpt>
      <trkpt lat="41.62842" lon="20.09065">
        <ele>554.82000732422</ele>
        <time>2023-09-30T13:27:29.000Z</time>
      </trkpt>
      <trkpt lat="41.62833" lon="20.09078">
        <ele>554.82000732422</ele>
        <time>2023-09-30T13:27:28.000Z</time>
      </trkpt>
      <trkpt lat="41.62825" lon="20.09091">
        <ele>554.82000732422</ele>
        <time>2023-09-30T13:27:27.000Z</time>
      </trkpt>
      <trkpt lat="41.62818" lon="20.09102">
        <ele>554.34002685547</ele>
        <time>2023-09-30T13:27:26.000Z</time>
      </trkpt>
      <trkpt lat="41.62809" lon="20.09114">
        <ele>553.85998535156</ele>
        <time>2023-09-30T13:27:25.000Z</time>
      </trkpt>
      <trkpt lat="41.62795" lon="20.09132">
        <ele>553.38000488281</ele>
        <time>2023-09-30T13:27:23.000Z</time>
      </trkpt>
      <trkpt lat="41.62789" lon="20.09142">
        <ele>552.90002441406</ele>
        <time>2023-09-30T13:27:22.000Z</time>
      </trkpt>
      <trkpt lat="41.62779" lon="20.09162">
        <ele>552.40997314453</ele>
        <time>2023-09-30T13:27:20.000Z</time>
      </trkpt>
      <trkpt lat="41.62776" lon="20.09171">
        <ele>552.40997314453</ele>
        <time>2023-09-30T13:27:19.000Z</time>
      </trkpt>
      <trkpt lat="41.62776" lon="20.09179">
        <ele>551.92999267578</ele>
        <time>2023-09-30T13:27:18.000Z</time>
      </trkpt>
      <trkpt lat="41.62778" lon="20.09187">
        <ele>551.45001220703</ele>
        <time>2023-09-30T13:27:17.000Z</time>
      </trkpt>
      <trkpt lat="41.62781" lon="20.09194">
        <ele>550.96997070312</ele>
        <time>2023-09-30T13:27:16.000Z</time>
      </trkpt>
      <trkpt lat="41.62786" lon="20.09199">
        <ele>550.48999023438</ele>
        <time>2023-09-30T13:27:15.000Z</time>
      </trkpt>
      <trkpt lat="41.6279" lon="20.09203">
        <ele>549.53002929688</ele>
        <time>2023-09-30T13:27:14.000Z</time>
      </trkpt>
      <trkpt lat="41.62828" lon="20.09236">
        <ele>545.20001220703</ele>
        <time>2023-09-30T13:27:07.000Z</time>
      </trkpt>
      <trkpt lat="41.62844" lon="20.09251">
        <ele>543.76000976562</ele>
        <time>2023-09-30T13:27:05.000Z</time>
      </trkpt>
      <trkpt lat="41.62849" lon="20.09256">
        <ele>543.28002929688</ele>
        <time>2023-09-30T13:27:04.000Z</time>
      </trkpt>
      <trkpt lat="41.62853" lon="20.09262">
        <ele>542.79998779297</ele>
        <time>2023-09-30T13:27:03.000Z</time>
      </trkpt>
      <trkpt lat="41.62858" lon="20.0927">
        <ele>542.32000732422</ele>
        <time>2023-09-30T13:27:02.000Z</time>
      </trkpt>
      <trkpt lat="41.62861" lon="20.09277">
        <ele>541.84002685547</ele>
        <time>2023-09-30T13:27:01.000Z</time>
      </trkpt>
      <trkpt lat="41.62863" lon="20.09285">
        <ele>541.35998535156</ele>
        <time>2023-09-30T13:27:00.000Z</time>
      </trkpt>
      <trkpt lat="41.62865" lon="20.09296">
        <ele>540.40002441406</ele>
        <time>2023-09-30T13:26:59.000Z</time>
      </trkpt>
      <trkpt lat="41.62867" lon="20.09304">
        <ele>538.96002197266</ele>
        <time>2023-09-30T13:26:58.000Z</time>
      </trkpt>
      <trkpt lat="41.62869" lon="20.0931">
        <ele>538.47998046875</ele>
        <time>2023-09-30T13:26:57.000Z</time>
      </trkpt>
      <trkpt lat="41.62871" lon="20.09319">
        <ele>537.98999023438</ele>
        <time>2023-09-30T13:26:56.000Z</time>
      </trkpt>
      <trkpt lat="41.62874" lon="20.09331">
        <ele>537.51000976562</ele>
        <time>2023-09-30T13:26:55.000Z</time>
      </trkpt>
      <trkpt lat="41.62876" lon="20.09336">
        <ele>537.03002929688</ele>
        <time>2023-09-30T13:26:54.000Z</time>
      </trkpt>
      <trkpt lat="41.62879" lon="20.09349">
        <ele>537.03002929688</ele>
        <time>2023-09-30T13:26:53.000Z</time>
      </trkpt>
      <trkpt lat="41.62881" lon="20.09358">
        <ele>537.03002929688</ele>
        <time>2023-09-30T13:26:52.000Z</time>
      </trkpt>
      <trkpt lat="41.62883" lon="20.09376">
        <ele>537.03002929688</ele>
        <time>2023-09-30T13:26:50.000Z</time>
      </trkpt>
      <trkpt lat="41.62885" lon="20.09391">
        <ele>537.51000976562</ele>
        <time>2023-09-30T13:26:49.000Z</time>
      </trkpt>
      <trkpt lat="41.62891" lon="20.09429">
        <ele>537.98999023438</ele>
        <time>2023-09-30T13:26:46.000Z</time>
      </trkpt>
      <trkpt lat="41.62893" lon="20.09443">
        <ele>538.96002197266</ele>
        <time>2023-09-30T13:26:45.000Z</time>
      </trkpt>
      <trkpt lat="41.62896" lon="20.09454">
        <ele>538.96002197266</ele>
        <time>2023-09-30T13:26:44.000Z</time>
      </trkpt>
      <trkpt lat="41.62908" lon="20.09484">
        <ele>539.44000244141</ele>
        <time>2023-09-30T13:26:41.000Z</time>
      </trkpt>
      <trkpt lat="41.62913" lon="20.09498">
        <ele>538.96002197266</ele>
        <time>2023-09-30T13:26:40.000Z</time>
      </trkpt>
      <trkpt lat="41.62916" lon="20.09511">
        <ele>538.47998046875</ele>
        <time>2023-09-30T13:26:39.000Z</time>
      </trkpt>
      <trkpt lat="41.62917" lon="20.09513">
        <ele>537.98999023438</ele>
        <time>2023-09-30T13:26:38.000Z</time>
      </trkpt>
      <trkpt lat="41.6292" lon="20.09532">
        <ele>537.98999023438</ele>
        <time>2023-09-30T13:26:37.000Z</time>
      </trkpt>
      <trkpt lat="41.62924" lon="20.0955">
        <ele>537.98999023438</ele>
        <time>2023-09-30T13:26:36.000Z</time>
      </trkpt>
      <trkpt lat="41.6293" lon="20.09579">
        <ele>538.47998046875</ele>
        <time>2023-09-30T13:26:34.000Z</time>
      </trkpt>
      <trkpt lat="41.62932" lon="20.09592">
        <ele>538.96002197266</ele>
        <time>2023-09-30T13:26:33.000Z</time>
      </trkpt>
      <trkpt lat="41.62932" lon="20.09605">
        <ele>539.44000244141</ele>
        <time>2023-09-30T13:26:32.000Z</time>
      </trkpt>
      <trkpt lat="41.62931" lon="20.09607">
        <ele>539.44000244141</ele>
        <time>2023-09-30T13:26:31.000Z</time>
      </trkpt>
      <trkpt lat="41.62928" lon="20.09629">
        <ele>540.88000488281</ele>
        <time>2023-09-30T13:26:30.000Z</time>
      </trkpt>
      <trkpt lat="41.62927" lon="20.09639">
        <ele>540.88000488281</ele>
        <time>2023-09-30T13:26:29.000Z</time>
      </trkpt>
      <trkpt lat="41.62924" lon="20.09651">
        <ele>540.40002441406</ele>
        <time>2023-09-30T13:26:28.000Z</time>
      </trkpt>
      <trkpt lat="41.62919" lon="20.09675">
        <ele>539.44000244141</ele>
        <time>2023-09-30T13:26:27.000Z</time>
      </trkpt>
      <trkpt lat="41.62918" lon="20.09684">
        <ele>538.96002197266</ele>
        <time>2023-09-30T13:26:26.000Z</time>
      </trkpt>
      <trkpt lat="41.62914" lon="20.09707">
        <ele>537.51000976562</ele>
        <time>2023-09-30T13:26:25.000Z</time>
      </trkpt>
      <trkpt lat="41.62912" lon="20.09726">
        <ele>536.54998779297</ele>
        <time>2023-09-30T13:26:24.000Z</time>
      </trkpt>
      <trkpt lat="41.62911" lon="20.09744">
        <ele>535.59002685547</ele>
        <time>2023-09-30T13:26:23.000Z</time>
      </trkpt>
      <trkpt lat="41.62912" lon="20.0976">
        <ele>534.63000488281</ele>
        <time>2023-09-30T13:26:22.000Z</time>
      </trkpt>
      <trkpt lat="41.62913" lon="20.09774">
        <ele>533.66998291016</ele>
        <time>2023-09-30T13:26:21.000Z</time>
      </trkpt>
      <trkpt lat="41.62916" lon="20.0979">
        <ele>532.71002197266</ele>
        <time>2023-09-30T13:26:20.000Z</time>
      </trkpt>
      <trkpt lat="41.6292" lon="20.09804">
        <ele>531.75</ele>
        <time>2023-09-30T13:26:19.000Z</time>
      </trkpt>
      <trkpt lat="41.62924" lon="20.09814">
        <ele>531.27001953125</ele>
        <time>2023-09-30T13:26:18.000Z</time>
      </trkpt>
      <trkpt lat="41.62943" lon="20.09858">
        <ele>529.34002685547</ele>
        <time>2023-09-30T13:26:14.000Z</time>
      </trkpt>
      <trkpt lat="41.62948" lon="20.09872">
        <ele>529.34002685547</ele>
        <time>2023-09-30T13:26:13.000Z</time>
      </trkpt>
      <trkpt lat="41.62951" lon="20.09883">
        <ele>529.34002685547</ele>
        <time>2023-09-30T13:26:12.000Z</time>
      </trkpt>
      <trkpt lat="41.62952" lon="20.0989">
        <ele>529.34002685547</ele>
        <time>2023-09-30T13:26:11.000Z</time>
      </trkpt>
      <trkpt lat="41.62954" lon="20.09905">
        <ele>529.34002685547</ele>
        <time>2023-09-30T13:26:10.000Z</time>
      </trkpt>
      <trkpt lat="41.62956" lon="20.09927">
        <ele>529.34002685547</ele>
        <time>2023-09-30T13:26:08.000Z</time>
      </trkpt>
      <trkpt lat="41.62958" lon="20.09947">
        <ele>529.82000732422</ele>
        <time>2023-09-30T13:26:06.000Z</time>
      </trkpt>
      <trkpt lat="41.62958" lon="20.09964">
        <ele>530.29998779297</ele>
        <time>2023-09-30T13:26:04.000Z</time>
      </trkpt>
      <trkpt lat="41.62958" lon="20.09971">
        <ele>530.29998779297</ele>
        <time>2023-09-30T13:26:03.000Z</time>
      </trkpt>
      <trkpt lat="41.62958" lon="20.09984">
        <ele>530.78997802734</ele>
        <time>2023-09-30T13:26:02.000Z</time>
      </trkpt>
      <trkpt lat="41.62954" lon="20.10023">
        <ele>532.71002197266</ele>
        <time>2023-09-30T13:25:58.000Z</time>
      </trkpt>
      <trkpt lat="41.62951" lon="20.10057">
        <ele>534.15002441406</ele>
        <time>2023-09-30T13:25:55.000Z</time>
      </trkpt>
      <trkpt lat="41.62951" lon="20.10066">
        <ele>534.15002441406</ele>
        <time>2023-09-30T13:25:54.000Z</time>
      </trkpt>
      <trkpt lat="41.62952" lon="20.10071">
        <ele>534.63000488281</ele>
        <time>2023-09-30T13:25:53.000Z</time>
      </trkpt>
      <trkpt lat="41.62953" lon="20.10082">
        <ele>534.63000488281</ele>
        <time>2023-09-30T13:25:52.000Z</time>
      </trkpt>
      <trkpt lat="41.62955" lon="20.10103">
        <ele>535.10998535156</ele>
        <time>2023-09-30T13:25:51.000Z</time>
      </trkpt>
      <trkpt lat="41.62957" lon="20.10112">
        <ele>535.10998535156</ele>
        <time>2023-09-30T13:25:50.000Z</time>
      </trkpt>
      <trkpt lat="41.62961" lon="20.10133">
        <ele>535.59002685547</ele>
        <time>2023-09-30T13:25:48.000Z</time>
      </trkpt>
      <trkpt lat="41.62966" lon="20.1015">
        <ele>536.07000732422</ele>
        <time>2023-09-30T13:25:47.000Z</time>
      </trkpt>
      <trkpt lat="41.6297" lon="20.10159">
        <ele>536.54998779297</ele>
        <time>2023-09-30T13:25:46.000Z</time>
      </trkpt>
      <trkpt lat="41.62974" lon="20.10167">
        <ele>537.03002929688</ele>
        <time>2023-09-30T13:25:45.000Z</time>
      </trkpt>
      <trkpt lat="41.6298" lon="20.10173">
        <ele>537.51000976562</ele>
        <time>2023-09-30T13:25:44.000Z</time>
      </trkpt>
      <trkpt lat="41.62986" lon="20.10177">
        <ele>537.98999023438</ele>
        <time>2023-09-30T13:25:43.000Z</time>
      </trkpt>
      <trkpt lat="41.62992" lon="20.1018">
        <ele>538.96002197266</ele>
        <time>2023-09-30T13:25:42.000Z</time>
      </trkpt>
      <trkpt lat="41.63002" lon="20.10184">
        <ele>539.44000244141</ele>
        <time>2023-09-30T13:25:40.000Z</time>
      </trkpt>
      <trkpt lat="41.63006" lon="20.10188">
        <ele>539.91998291016</ele>
        <time>2023-09-30T13:25:39.000Z</time>
      </trkpt>
      <trkpt lat="41.63008" lon="20.10194">
        <ele>540.40002441406</ele>
        <time>2023-09-30T13:25:38.000Z</time>
      </trkpt>
      <trkpt lat="41.63004" lon="20.10207">
        <ele>542.32000732422</ele>
        <time>2023-09-30T13:25:35.000Z</time>
      </trkpt>
      <trkpt lat="41.63" lon="20.1021">
        <ele>542.79998779297</ele>
        <time>2023-09-30T13:25:34.000Z</time>
      </trkpt>
      <trkpt lat="41.62997" lon="20.10212">
        <ele>542.79998779297</ele>
        <time>2023-09-30T13:25:33.000Z</time>
      </trkpt>
      <trkpt lat="41.62991" lon="20.10216">
        <ele>543.76000976562</ele>
        <time>2023-09-30T13:25:32.000Z</time>
      </trkpt>
      <trkpt lat="41.62987" lon="20.1022">
        <ele>544.23999023438</ele>
        <time>2023-09-30T13:25:31.000Z</time>
      </trkpt>
      <trkpt lat="41.62984" lon="20.10225">
        <ele>544.71997070312</ele>
        <time>2023-09-30T13:25:30.000Z</time>
      </trkpt>
      <trkpt lat="41.62982" lon="20.10232">
        <ele>545.69000244141</ele>
        <time>2023-09-30T13:25:29.000Z</time>
      </trkpt>
      <trkpt lat="41.62981" lon="20.10239">
        <ele>546.16998291016</ele>
        <time>2023-09-30T13:25:28.000Z</time>
      </trkpt>
      <trkpt lat="41.62981" lon="20.10247">
        <ele>546.65002441406</ele>
        <time>2023-09-30T13:25:27.000Z</time>
      </trkpt>
      <trkpt lat="41.62981" lon="20.10251">
        <ele>546.65002441406</ele>
        <time>2023-09-30T13:25:26.000Z</time>
      </trkpt>
      <trkpt lat="41.62987" lon="20.10309">
        <ele>550.48999023438</ele>
        <time>2023-09-30T13:25:21.000Z</time>
      </trkpt>
      <trkpt lat="41.63005" lon="20.10428">
        <ele>556.73999023438</ele>
        <time>2023-09-30T13:25:11.000Z</time>
      </trkpt>
      <trkpt lat="41.63012" lon="20.10469">
        <ele>558.17999267578</ele>
        <time>2023-09-30T13:25:07.000Z</time>
      </trkpt>
      <trkpt lat="41.63014" lon="20.10501">
        <ele>559.61999511719</ele>
        <time>2023-09-30T13:25:04.000Z</time>
      </trkpt>
      <trkpt lat="41.63015" lon="20.10512">
        <ele>560.10998535156</ele>
        <time>2023-09-30T13:25:03.000Z</time>
      </trkpt>
      <trkpt lat="41.63015" lon="20.10518">
        <ele>560.10998535156</ele>
        <time>2023-09-30T13:25:02.000Z</time>
      </trkpt>
      <trkpt lat="41.63015" lon="20.10527">
        <ele>561.07000732422</ele>
        <time>2023-09-30T13:25:01.000Z</time>
      </trkpt>
      <trkpt lat="41.63015" lon="20.10532">
        <ele>561.54998779297</ele>
        <time>2023-09-30T13:25:00.000Z</time>
      </trkpt>
      <trkpt lat="41.63012" lon="20.10559">
        <ele>563.46997070312</ele>
        <time>2023-09-30T13:24:58.000Z</time>
      </trkpt>
      <trkpt lat="41.6301" lon="20.10568">
        <ele>563.95001220703</ele>
        <time>2023-09-30T13:24:57.000Z</time>
      </trkpt>
      <trkpt lat="41.63008" lon="20.10574">
        <ele>564.42999267578</ele>
        <time>2023-09-30T13:24:56.000Z</time>
      </trkpt>
      <trkpt lat="41.62997" lon="20.10599">
        <ele>565.86999511719</ele>
        <time>2023-09-30T13:24:53.000Z</time>
      </trkpt>
      <trkpt lat="41.6299" lon="20.10616">
        <ele>566.83001708984</ele>
        <time>2023-09-30T13:24:51.000Z</time>
      </trkpt>
      <trkpt lat="41.62985" lon="20.10625">
        <ele>567.32000732422</ele>
        <time>2023-09-30T13:24:50.000Z</time>
      </trkpt>
      <trkpt lat="41.6298" lon="20.10633">
        <ele>567.79998779297</ele>
        <time>2023-09-30T13:24:49.000Z</time>
      </trkpt>
      <trkpt lat="41.62975" lon="20.10638">
        <ele>568.28002929688</ele>
        <time>2023-09-30T13:24:48.000Z</time>
      </trkpt>
      <trkpt lat="41.62968" lon="20.10644">
        <ele>569.23999023438</ele>
        <time>2023-09-30T13:24:47.000Z</time>
      </trkpt>
      <trkpt lat="41.62966" lon="20.10646">
        <ele>569.23999023438</ele>
        <time>2023-09-30T13:24:46.000Z</time>
      </trkpt>
      <trkpt lat="41.62957" lon="20.10652">
        <ele>570.20001220703</ele>
        <time>2023-09-30T13:24:45.000Z</time>
      </trkpt>
      <trkpt lat="41.62954" lon="20.10656">
        <ele>570.67999267578</ele>
        <time>2023-09-30T13:24:44.000Z</time>
      </trkpt>
      <trkpt lat="41.62951" lon="20.10661">
        <ele>571.15997314453</ele>
        <time>2023-09-30T13:24:43.000Z</time>
      </trkpt>
      <trkpt lat="41.62951" lon="20.10663">
        <ele>571.15997314453</ele>
        <time>2023-09-30T13:24:42.000Z</time>
      </trkpt>
      <trkpt lat="41.62951" lon="20.10671">
        <ele>571.64001464844</ele>
        <time>2023-09-30T13:24:41.000Z</time>
      </trkpt>
      <trkpt lat="41.62955" lon="20.10676">
        <ele>572.59997558594</ele>
        <time>2023-09-30T13:24:40.000Z</time>
      </trkpt>
      <trkpt lat="41.6296" lon="20.10678">
        <ele>573.08001708984</ele>
        <time>2023-09-30T13:24:39.000Z</time>
      </trkpt>
      <trkpt lat="41.62964" lon="20.10678">
        <ele>573.55999755859</ele>
        <time>2023-09-30T13:24:38.000Z</time>
      </trkpt>
      <trkpt lat="41.62971" lon="20.10677">
        <ele>574.03997802734</ele>
        <time>2023-09-30T13:24:37.000Z</time>
      </trkpt>
      <trkpt lat="41.62976" lon="20.10678">
        <ele>574.53002929688</ele>
        <time>2023-09-30T13:24:36.000Z</time>
      </trkpt>
      <trkpt lat="41.62982" lon="20.1068">
        <ele>575.96997070312</ele>
        <time>2023-09-30T13:24:35.000Z</time>
      </trkpt>
      <trkpt lat="41.62987" lon="20.10685">
        <ele>576.45001220703</ele>
        <time>2023-09-30T13:24:34.000Z</time>
      </trkpt>
      <trkpt lat="41.62992" lon="20.1069">
        <ele>577.40997314453</ele>
        <time>2023-09-30T13:24:33.000Z</time>
      </trkpt>
      <trkpt lat="41.62996" lon="20.10694">
        <ele>577.89001464844</ele>
        <time>2023-09-30T13:24:32.000Z</time>
      </trkpt>
      <trkpt lat="41.62999" lon="20.10698">
        <ele>578.84997558594</ele>
        <time>2023-09-30T13:24:31.000Z</time>
      </trkpt>
      <trkpt lat="41.63005" lon="20.10703">
        <ele>579.80999755859</ele>
        <time>2023-09-30T13:24:30.000Z</time>
      </trkpt>
      <trkpt lat="41.6301" lon="20.10707">
        <ele>580.77001953125</ele>
        <time>2023-09-30T13:24:29.000Z</time>
      </trkpt>
      <trkpt lat="41.63017" lon="20.10712">
        <ele>581.72998046875</ele>
        <time>2023-09-30T13:24:28.000Z</time>
      </trkpt>
      <trkpt lat="41.63022" lon="20.10716">
        <ele>582.21997070312</ele>
        <time>2023-09-30T13:24:27.000Z</time>
      </trkpt>
      <trkpt lat="41.63027" lon="20.1072">
        <ele>583.17999267578</ele>
        <time>2023-09-30T13:24:26.000Z</time>
      </trkpt>
      <trkpt lat="41.63032" lon="20.10722">
        <ele>584.14001464844</ele>
        <time>2023-09-30T13:24:25.000Z</time>
      </trkpt>
      <trkpt lat="41.63036" lon="20.10722">
        <ele>584.61999511719</ele>
        <time>2023-09-30T13:24:24.000Z</time>
      </trkpt>
      <trkpt lat="41.63042" lon="20.10721">
        <ele>584.61999511719</ele>
        <time>2023-09-30T13:24:23.000Z</time>
      </trkpt>
      <trkpt lat="41.63048" lon="20.1072">
        <ele>585.09997558594</ele>
        <time>2023-09-30T13:24:22.000Z</time>
      </trkpt>
      <trkpt lat="41.63054" lon="20.1072">
        <ele>585.58001708984</ele>
        <time>2023-09-30T13:24:21.000Z</time>
      </trkpt>
      <trkpt lat="41.63058" lon="20.10723">
        <ele>585.58001708984</ele>
        <time>2023-09-30T13:24:20.000Z</time>
      </trkpt>
      <trkpt lat="41.63062" lon="20.10729">
        <ele>586.05999755859</ele>
        <time>2023-09-30T13:24:19.000Z</time>
      </trkpt>
      <trkpt lat="41.63064" lon="20.10736">
        <ele>586.53997802734</ele>
        <time>2023-09-30T13:24:18.000Z</time>
      </trkpt>
      <trkpt lat="41.63064" lon="20.10745">
        <ele>587.02001953125</ele>
        <time>2023-09-30T13:24:17.000Z</time>
      </trkpt>
      <trkpt lat="41.63063" lon="20.10752">
        <ele>587.5</ele>
        <time>2023-09-30T13:24:16.000Z</time>
      </trkpt>
      <trkpt lat="41.63061" lon="20.10761">
        <ele>588.46002197266</ele>
        <time>2023-09-30T13:24:15.000Z</time>
      </trkpt>
      <trkpt lat="41.63059" lon="20.1077">
        <ele>588.95001220703</ele>
        <time>2023-09-30T13:24:14.000Z</time>
      </trkpt>
      <trkpt lat="41.63055" lon="20.10776">
        <ele>589.90997314453</ele>
        <time>2023-09-30T13:24:13.000Z</time>
      </trkpt>
      <trkpt lat="41.6305" lon="20.10778">
        <ele>590.39001464844</ele>
        <time>2023-09-30T13:24:12.000Z</time>
      </trkpt>
      <trkpt lat="41.63045" lon="20.10777">
        <ele>591.34997558594</ele>
        <time>2023-09-30T13:24:11.000Z</time>
      </trkpt>
      <trkpt lat="41.63039" lon="20.10776">
        <ele>591.83001708984</ele>
        <time>2023-09-30T13:24:10.000Z</time>
      </trkpt>
      <trkpt lat="41.63032" lon="20.10773">
        <ele>592.78997802734</ele>
        <time>2023-09-30T13:24:09.000Z</time>
      </trkpt>
      <trkpt lat="41.63025" lon="20.10772">
        <ele>593.27001953125</ele>
        <time>2023-09-30T13:24:08.000Z</time>
      </trkpt>
      <trkpt lat="41.63019" lon="20.10773">
        <ele>593.75</ele>
        <time>2023-09-30T13:24:07.000Z</time>
      </trkpt>
      <trkpt lat="41.63014" lon="20.10774">
        <ele>594.22998046875</ele>
        <time>2023-09-30T13:24:06.000Z</time>
      </trkpt>
      <trkpt lat="41.63007" lon="20.10775">
        <ele>594.71002197266</ele>
        <time>2023-09-30T13:24:05.000Z</time>
      </trkpt>
      <trkpt lat="41.63001" lon="20.10778">
        <ele>595.19000244141</ele>
        <time>2023-09-30T13:24:04.000Z</time>
      </trkpt>
      <trkpt lat="41.62997" lon="20.1078">
        <ele>595.66998291016</ele>
        <time>2023-09-30T13:24:03.000Z</time>
      </trkpt>
      <trkpt lat="41.62993" lon="20.10784">
        <ele>596.15002441406</ele>
        <time>2023-09-30T13:24:02.000Z</time>
      </trkpt>
      <trkpt lat="41.6299" lon="20.10791">
        <ele>596.64001464844</ele>
        <time>2023-09-30T13:24:01.000Z</time>
      </trkpt>
      <trkpt lat="41.62988" lon="20.10797">
        <ele>597.11999511719</ele>
        <time>2023-09-30T13:24:00.000Z</time>
      </trkpt>
      <trkpt lat="41.62985" lon="20.10805">
        <ele>597.59997558594</ele>
        <time>2023-09-30T13:23:59.000Z</time>
      </trkpt>
      <trkpt lat="41.62982" lon="20.10816">
        <ele>598.55999755859</ele>
        <time>2023-09-30T13:23:58.000Z</time>
      </trkpt>
      <trkpt lat="41.62979" lon="20.10827">
        <ele>599.03997802734</ele>
        <time>2023-09-30T13:23:57.000Z</time>
      </trkpt>
      <trkpt lat="41.62975" lon="20.10839">
        <ele>599.52001953125</ele>
        <time>2023-09-30T13:23:56.000Z</time>
      </trkpt>
      <trkpt lat="41.62971" lon="20.10846">
        <ele>600</ele>
        <time>2023-09-30T13:23:55.000Z</time>
      </trkpt>
      <trkpt lat="41.62966" lon="20.1085">
        <ele>600.47998046875</ele>
        <time>2023-09-30T13:23:54.000Z</time>
      </trkpt>
      <trkpt lat="41.62961" lon="20.10852">
        <ele>600.47998046875</ele>
        <time>2023-09-30T13:23:53.000Z</time>
      </trkpt>
      <trkpt lat="41.62954" lon="20.10851">
        <ele>600.47998046875</ele>
        <time>2023-09-30T13:23:52.000Z</time>
      </trkpt>
      <trkpt lat="41.62948" lon="20.10849">
        <ele>600.96002197266</ele>
        <time>2023-09-30T13:23:51.000Z</time>
      </trkpt>
      <trkpt lat="41.6294" lon="20.10845">
        <ele>601.91998291016</ele>
        <time>2023-09-30T13:23:50.000Z</time>
      </trkpt>
      <trkpt lat="41.6293" lon="20.1084">
        <ele>602.40002441406</ele>
        <time>2023-09-30T13:23:49.000Z</time>
      </trkpt>
      <trkpt lat="41.62918" lon="20.10832">
        <ele>603.84997558594</ele>
        <time>2023-09-30T13:23:48.000Z</time>
      </trkpt>
      <trkpt lat="41.629" lon="20.10819">
        <ele>605.28997802734</ele>
        <time>2023-09-30T13:23:46.000Z</time>
      </trkpt>
      <trkpt lat="41.6289" lon="20.10811">
        <ele>606.72998046875</ele>
        <time>2023-09-30T13:23:45.000Z</time>
      </trkpt>
      <trkpt lat="41.62882" lon="20.10805">
        <ele>607.69000244141</ele>
        <time>2023-09-30T13:23:44.000Z</time>
      </trkpt>
      <trkpt lat="41.62876" lon="20.108">
        <ele>608.16998291016</ele>
        <time>2023-09-30T13:23:43.000Z</time>
      </trkpt>
      <trkpt lat="41.62867" lon="20.10793">
        <ele>609.60998535156</ele>
        <time>2023-09-30T13:23:42.000Z</time>
      </trkpt>
      <trkpt lat="41.62862" lon="20.10791">
        <ele>610.09002685547</ele>
        <time>2023-09-30T13:23:41.000Z</time>
      </trkpt>
      <trkpt lat="41.62857" lon="20.10791">
        <ele>611.05999755859</ele>
        <time>2023-09-30T13:23:40.000Z</time>
      </trkpt>
      <trkpt lat="41.62853" lon="20.10793">
        <ele>611.53997802734</ele>
        <time>2023-09-30T13:23:39.000Z</time>
      </trkpt>
      <trkpt lat="41.62851" lon="20.10798">
        <ele>612.5</ele>
        <time>2023-09-30T13:23:38.000Z</time>
      </trkpt>
      <trkpt lat="41.62851" lon="20.10804">
        <ele>612.97998046875</ele>
        <time>2023-09-30T13:23:37.000Z</time>
      </trkpt>
      <trkpt lat="41.62853" lon="20.1081">
        <ele>613.94000244141</ele>
        <time>2023-09-30T13:23:36.000Z</time>
      </trkpt>
      <trkpt lat="41.62855" lon="20.10813">
        <ele>614.41998291016</ele>
        <time>2023-09-30T13:23:35.000Z</time>
      </trkpt>
      <trkpt lat="41.62863" lon="20.10827">
        <ele>615.85998535156</ele>
        <time>2023-09-30T13:23:34.000Z</time>
      </trkpt>
      <trkpt lat="41.62867" lon="20.10835">
        <ele>616.34002685547</ele>
        <time>2023-09-30T13:23:33.000Z</time>
      </trkpt>
      <trkpt lat="41.62874" lon="20.1085">
        <ele>617.78002929688</ele>
        <time>2023-09-30T13:23:32.000Z</time>
      </trkpt>
      <trkpt lat="41.62882" lon="20.10866">
        <ele>619.22998046875</ele>
        <time>2023-09-30T13:23:31.000Z</time>
      </trkpt>
      <trkpt lat="41.62885" lon="20.10872">
        <ele>619.71002197266</ele>
        <time>2023-09-30T13:23:30.000Z</time>
      </trkpt>
      <trkpt lat="41.62895" lon="20.10889">
        <ele>621.15002441406</ele>
        <time>2023-09-30T13:23:29.000Z</time>
      </trkpt>
      <trkpt lat="41.62901" lon="20.109">
        <ele>622.10998535156</ele>
        <time>2023-09-30T13:23:28.000Z</time>
      </trkpt>
      <trkpt lat="41.62904" lon="20.10912">
        <ele>623.07000732422</ele>
        <time>2023-09-30T13:23:27.000Z</time>
      </trkpt>
      <trkpt lat="41.62905" lon="20.10922">
        <ele>623.07000732422</ele>
        <time>2023-09-30T13:23:26.000Z</time>
      </trkpt>
      <trkpt lat="41.62905" lon="20.10936">
        <ele>624.51000976562</ele>
        <time>2023-09-30T13:23:25.000Z</time>
      </trkpt>
      <trkpt lat="41.62906" lon="20.10947">
        <ele>625.46997070312</ele>
        <time>2023-09-30T13:23:24.000Z</time>
      </trkpt>
      <trkpt lat="41.62909" lon="20.10956">
        <ele>625.96002197266</ele>
        <time>2023-09-30T13:23:23.000Z</time>
      </trkpt>
      <trkpt lat="41.62913" lon="20.10963">
        <ele>626.44000244141</ele>
        <time>2023-09-30T13:23:22.000Z</time>
      </trkpt>
      <trkpt lat="41.62919" lon="20.1097">
        <ele>627.40002441406</ele>
        <time>2023-09-30T13:23:21.000Z</time>
      </trkpt>
      <trkpt lat="41.62926" lon="20.10977">
        <ele>628.35998535156</ele>
        <time>2023-09-30T13:23:20.000Z</time>
      </trkpt>
      <trkpt lat="41.62932" lon="20.10984">
        <ele>629.32000732422</ele>
        <time>2023-09-30T13:23:19.000Z</time>
      </trkpt>
      <trkpt lat="41.62938" lon="20.10992">
        <ele>629.79998779297</ele>
        <time>2023-09-30T13:23:18.000Z</time>
      </trkpt>
      <trkpt lat="41.62945" lon="20.11001">
        <ele>630.76000976562</ele>
        <time>2023-09-30T13:23:17.000Z</time>
      </trkpt>
      <trkpt lat="41.6295" lon="20.11009">
        <ele>631.23999023438</ele>
        <time>2023-09-30T13:23:16.000Z</time>
      </trkpt>
      <trkpt lat="41.62953" lon="20.11019">
        <ele>631.71997070312</ele>
        <time>2023-09-30T13:23:15.000Z</time>
      </trkpt>
      <trkpt lat="41.62956" lon="20.11031">
        <ele>632.20001220703</ele>
        <time>2023-09-30T13:23:14.000Z</time>
      </trkpt>
      <trkpt lat="41.62957" lon="20.11042">
        <ele>632.67999267578</ele>
        <time>2023-09-30T13:23:13.000Z</time>
      </trkpt>
      <trkpt lat="41.62956" lon="20.11052">
        <ele>633.16998291016</ele>
        <time>2023-09-30T13:23:12.000Z</time>
      </trkpt>
      <trkpt lat="41.62955" lon="20.11059">
        <ele>633.65002441406</ele>
        <time>2023-09-30T13:23:11.000Z</time>
      </trkpt>
      <trkpt lat="41.62952" lon="20.11066">
        <ele>633.65002441406</ele>
        <time>2023-09-30T13:23:10.000Z</time>
      </trkpt>
      <trkpt lat="41.6295" lon="20.1107">
        <ele>634.13000488281</ele>
        <time>2023-09-30T13:23:09.000Z</time>
      </trkpt>
      <trkpt lat="41.62944" lon="20.11078">
        <ele>635.09002685547</ele>
        <time>2023-09-30T13:23:08.000Z</time>
      </trkpt>
      <trkpt lat="41.62941" lon="20.11082">
        <ele>635.57000732422</ele>
        <time>2023-09-30T13:23:07.000Z</time>
      </trkpt>
      <trkpt lat="41.62937" lon="20.11087">
        <ele>636.04998779297</ele>
        <time>2023-09-30T13:23:06.000Z</time>
      </trkpt>
      <trkpt lat="41.62933" lon="20.11091">
        <ele>636.53002929688</ele>
        <time>2023-09-30T13:23:05.000Z</time>
      </trkpt>
      <trkpt lat="41.6293" lon="20.11096">
        <ele>637.01000976562</ele>
        <time>2023-09-30T13:23:04.000Z</time>
      </trkpt>
      <trkpt lat="41.62926" lon="20.11101">
        <ele>637.96997070312</ele>
        <time>2023-09-30T13:23:03.000Z</time>
      </trkpt>
      <trkpt lat="41.62922" lon="20.11104">
        <ele>638.45001220703</ele>
        <time>2023-09-30T13:23:02.000Z</time>
      </trkpt>
      <trkpt lat="41.6292" lon="20.11107">
        <ele>638.92999267578</ele>
        <time>2023-09-30T13:23:01.000Z</time>
      </trkpt>
      <trkpt lat="41.62915" lon="20.1111">
        <ele>639.40997314453</ele>
        <time>2023-09-30T13:23:00.000Z</time>
      </trkpt>
      <trkpt lat="41.6291" lon="20.11113">
        <ele>639.89001464844</ele>
        <time>2023-09-30T13:22:59.000Z</time>
      </trkpt>
      <trkpt lat="41.62906" lon="20.11116">
        <ele>640.38000488281</ele>
        <time>2023-09-30T13:22:58.000Z</time>
      </trkpt>
      <trkpt lat="41.62901" lon="20.11117">
        <ele>640.85998535156</ele>
        <time>2023-09-30T13:22:57.000Z</time>
      </trkpt>
      <trkpt lat="41.62897" lon="20.1112">
        <ele>641.82000732422</ele>
        <time>2023-09-30T13:22:56.000Z</time>
      </trkpt>
      <trkpt lat="41.62894" lon="20.11125">
        <ele>642.29998779297</ele>
        <time>2023-09-30T13:22:55.000Z</time>
      </trkpt>
      <trkpt lat="41.62892" lon="20.1113">
        <ele>642.78002929688</ele>
        <time>2023-09-30T13:22:54.000Z</time>
      </trkpt>
      <trkpt lat="41.62892" lon="20.11137">
        <ele>643.26000976562</ele>
        <time>2023-09-30T13:22:53.000Z</time>
      </trkpt>
      <trkpt lat="41.62892" lon="20.11143">
        <ele>643.73999023438</ele>
        <time>2023-09-30T13:22:52.000Z</time>
      </trkpt>
      <trkpt lat="41.62892" lon="20.11146">
        <ele>643.73999023438</ele>
        <time>2023-09-30T13:22:51.000Z</time>
      </trkpt>
      <trkpt lat="41.62892" lon="20.11153">
        <ele>643.73999023438</ele>
        <time>2023-09-30T13:22:50.000Z</time>
      </trkpt>
      <trkpt lat="41.62899" lon="20.11172">
        <ele>644.70001220703</ele>
        <time>2023-09-30T13:22:46.000Z</time>
      </trkpt>
      <trkpt lat="41.62912" lon="20.11167">
        <ele>645.65997314453</ele>
        <time>2023-09-30T13:22:40.000Z</time>
      </trkpt>
      <trkpt lat="41.62913" lon="20.11161">
        <ele>646.14001464844</ele>
        <time>2023-09-30T13:22:39.000Z</time>
      </trkpt>
      <trkpt lat="41.62913" lon="20.11154">
        <ele>646.61999511719</ele>
        <time>2023-09-30T13:22:38.000Z</time>
      </trkpt>
      <trkpt lat="41.62914" lon="20.11147">
        <ele>647.09997558594</ele>
        <time>2023-09-30T13:22:37.000Z</time>
      </trkpt>
      <trkpt lat="41.62917" lon="20.1114">
        <ele>647.59002685547</ele>
        <time>2023-09-30T13:22:36.000Z</time>
      </trkpt>
      <trkpt lat="41.62921" lon="20.11133">
        <ele>648.07000732422</ele>
        <time>2023-09-30T13:22:35.000Z</time>
      </trkpt>
      <trkpt lat="41.62927" lon="20.11128">
        <ele>648.07000732422</ele>
        <time>2023-09-30T13:22:34.000Z</time>
      </trkpt>
      <trkpt lat="41.62935" lon="20.11124">
        <ele>648.07000732422</ele>
        <time>2023-09-30T13:22:33.000Z</time>
      </trkpt>
      <trkpt lat="41.6294" lon="20.11123">
        <ele>648.07000732422</ele>
        <time>2023-09-30T13:22:32.000Z</time>
      </trkpt>
      <trkpt lat="41.62952" lon="20.1112">
        <ele>648.07000732422</ele>
        <time>2023-09-30T13:22:31.000Z</time>
      </trkpt>
      <trkpt lat="41.6296" lon="20.11117">
        <ele>648.54998779297</ele>
        <time>2023-09-30T13:22:30.000Z</time>
      </trkpt>
      <trkpt lat="41.62966" lon="20.11113">
        <ele>648.54998779297</ele>
        <time>2023-09-30T13:22:29.000Z</time>
      </trkpt>
      <trkpt lat="41.62971" lon="20.11105">
        <ele>649.03002929688</ele>
        <time>2023-09-30T13:22:28.000Z</time>
      </trkpt>
      <trkpt lat="41.62974" lon="20.111">
        <ele>649.03002929688</ele>
        <time>2023-09-30T13:22:27.000Z</time>
      </trkpt>
      <trkpt lat="41.6298" lon="20.11088">
        <ele>649.51000976562</ele>
        <time>2023-09-30T13:22:26.000Z</time>
      </trkpt>
      <trkpt lat="41.62983" lon="20.11079">
        <ele>649.51000976562</ele>
        <time>2023-09-30T13:22:25.000Z</time>
      </trkpt>
      <trkpt lat="41.62986" lon="20.11073">
        <ele>649.51000976562</ele>
        <time>2023-09-30T13:22:24.000Z</time>
      </trkpt>
      <trkpt lat="41.6299" lon="20.11066">
        <ele>649.98999023438</ele>
        <time>2023-09-30T13:22:23.000Z</time>
      </trkpt>
      <trkpt lat="41.62991" lon="20.11065">
        <ele>649.98999023438</ele>
        <time>2023-09-30T13:22:22.000Z</time>
      </trkpt>
      <trkpt lat="41.62995" lon="20.11058">
        <ele>649.98999023438</ele>
        <time>2023-09-30T13:22:21.000Z</time>
      </trkpt>
      <trkpt lat="41.62996" lon="20.11057">
        <ele>649.98999023438</ele>
        <time>2023-09-30T13:22:20.000Z</time>
      </trkpt>
      <trkpt lat="41.63013" lon="20.11043">
        <ele>651.42999267578</ele>
        <time>2023-09-30T13:22:15.000Z</time>
      </trkpt>
      <trkpt lat="41.63016" lon="20.11046">
        <ele>651.90997314453</ele>
        <time>2023-09-30T13:22:14.000Z</time>
      </trkpt>
      <trkpt lat="41.63018" lon="20.11053">
        <ele>651.90997314453</ele>
        <time>2023-09-30T13:22:13.000Z</time>
      </trkpt>
      <trkpt lat="41.63016" lon="20.11059">
        <ele>652.39001464844</ele>
        <time>2023-09-30T13:22:12.000Z</time>
      </trkpt>
      <trkpt lat="41.63012" lon="20.11066">
        <ele>653.34997558594</ele>
        <time>2023-09-30T13:22:11.000Z</time>
      </trkpt>
      <trkpt lat="41.63008" lon="20.11071">
        <ele>654.30999755859</ele>
        <time>2023-09-30T13:22:10.000Z</time>
      </trkpt>
      <trkpt lat="41.63004" lon="20.11077">
        <ele>654.79998779297</ele>
        <time>2023-09-30T13:22:09.000Z</time>
      </trkpt>
      <trkpt lat="41.62999" lon="20.11086">
        <ele>655.76000976562</ele>
        <time>2023-09-30T13:22:08.000Z</time>
      </trkpt>
      <trkpt lat="41.62997" lon="20.11091">
        <ele>656.23999023438</ele>
        <time>2023-09-30T13:22:07.000Z</time>
      </trkpt>
      <trkpt lat="41.62993" lon="20.11099">
        <ele>656.71997070312</ele>
        <time>2023-09-30T13:22:06.000Z</time>
      </trkpt>
      <trkpt lat="41.62982" lon="20.11125">
        <ele>659.11999511719</ele>
        <time>2023-09-30T13:22:04.000Z</time>
      </trkpt>
      <trkpt lat="41.62977" lon="20.11134">
        <ele>660.08001708984</ele>
        <time>2023-09-30T13:22:03.000Z</time>
      </trkpt>
      <trkpt lat="41.62971" lon="20.11141">
        <ele>661.03997802734</ele>
        <time>2023-09-30T13:22:02.000Z</time>
      </trkpt>
      <trkpt lat="41.62965" lon="20.11145">
        <ele>661.52001953125</ele>
        <time>2023-09-30T13:22:01.000Z</time>
      </trkpt>
      <trkpt lat="41.62959" lon="20.11147">
        <ele>662.01000976562</ele>
        <time>2023-09-30T13:22:00.000Z</time>
      </trkpt>
      <trkpt lat="41.62953" lon="20.1115">
        <ele>662.96997070312</ele>
        <time>2023-09-30T13:21:59.000Z</time>
      </trkpt>
      <trkpt lat="41.62949" lon="20.11154">
        <ele>663.45001220703</ele>
        <time>2023-09-30T13:21:58.000Z</time>
      </trkpt>
      <trkpt lat="41.62946" lon="20.11159">
        <ele>663.92999267578</ele>
        <time>2023-09-30T13:21:57.000Z</time>
      </trkpt>
      <trkpt lat="41.62945" lon="20.11164">
        <ele>664.40997314453</ele>
        <time>2023-09-30T13:21:56.000Z</time>
      </trkpt>
      <trkpt lat="41.62947" lon="20.1117">
        <ele>664.89001464844</ele>
        <time>2023-09-30T13:21:55.000Z</time>
      </trkpt>
      <trkpt lat="41.6295" lon="20.11174">
        <ele>665.84997558594</ele>
        <time>2023-09-30T13:21:54.000Z</time>
      </trkpt>
      <trkpt lat="41.62954" lon="20.11176">
        <ele>666.33001708984</ele>
        <time>2023-09-30T13:21:53.000Z</time>
      </trkpt>
      <trkpt lat="41.62959" lon="20.11175">
        <ele>666.80999755859</ele>
        <time>2023-09-30T13:21:52.000Z</time>
      </trkpt>
      <trkpt lat="41.62963" lon="20.1117">
        <ele>667.28997802734</ele>
        <time>2023-09-30T13:21:51.000Z</time>
      </trkpt>
      <trkpt lat="41.62968" lon="20.11162">
        <ele>667.77001953125</ele>
        <time>2023-09-30T13:21:50.000Z</time>
      </trkpt>
      <trkpt lat="41.62973" lon="20.11154">
        <ele>668.25</ele>
        <time>2023-09-30T13:21:49.000Z</time>
      </trkpt>
      <trkpt lat="41.62975" lon="20.11152">
        <ele>668.25</ele>
        <time>2023-09-30T13:21:48.000Z</time>
      </trkpt>
      <trkpt lat="41.62986" lon="20.11138">
        <ele>668.72998046875</ele>
        <time>2023-09-30T13:21:47.000Z</time>
      </trkpt>
      <trkpt lat="41.62992" lon="20.11132">
        <ele>669.21997070312</ele>
        <time>2023-09-30T13:21:46.000Z</time>
      </trkpt>
      <trkpt lat="41.62997" lon="20.11128">
        <ele>669.70001220703</ele>
        <time>2023-09-30T13:21:45.000Z</time>
      </trkpt>
      <trkpt lat="41.63002" lon="20.11127">
        <ele>669.70001220703</ele>
        <time>2023-09-30T13:21:44.000Z</time>
      </trkpt>
      <trkpt lat="41.63007" lon="20.11127">
        <ele>670.65997314453</ele>
        <time>2023-09-30T13:21:43.000Z</time>
      </trkpt>
      <trkpt lat="41.6301" lon="20.11129">
        <ele>671.14001464844</ele>
        <time>2023-09-30T13:21:42.000Z</time>
      </trkpt>
      <trkpt lat="41.63016" lon="20.11132">
        <ele>671.14001464844</ele>
        <time>2023-09-30T13:21:41.000Z</time>
      </trkpt>
      <trkpt lat="41.63023" lon="20.11136">
        <ele>671.61999511719</ele>
        <time>2023-09-30T13:21:40.000Z</time>
      </trkpt>
      <trkpt lat="41.63029" lon="20.1114">
        <ele>671.61999511719</ele>
        <time>2023-09-30T13:21:39.000Z</time>
      </trkpt>
      <trkpt lat="41.63033" lon="20.11143">
        <ele>672.09997558594</ele>
        <time>2023-09-30T13:21:38.000Z</time>
      </trkpt>
      <trkpt lat="41.63041" lon="20.1115">
        <ele>672.58001708984</ele>
        <time>2023-09-30T13:21:37.000Z</time>
      </trkpt>
      <trkpt lat="41.63046" lon="20.11154">
        <ele>673.05999755859</ele>
        <time>2023-09-30T13:21:36.000Z</time>
      </trkpt>
      <trkpt lat="41.63052" lon="20.11158">
        <ele>673.53997802734</ele>
        <time>2023-09-30T13:21:35.000Z</time>
      </trkpt>
      <trkpt lat="41.63058" lon="20.1116">
        <ele>673.53997802734</ele>
        <time>2023-09-30T13:21:34.000Z</time>
      </trkpt>
      <trkpt lat="41.63071" lon="20.11163">
        <ele>674.02001953125</ele>
        <time>2023-09-30T13:21:30.000Z</time>
      </trkpt>
      <trkpt lat="41.63084" lon="20.11158">
        <ele>674.97998046875</ele>
        <time>2023-09-30T13:21:24.000Z</time>
      </trkpt>
      <trkpt lat="41.63089" lon="20.11158">
        <ele>674.97998046875</ele>
        <time>2023-09-30T13:21:23.000Z</time>
      </trkpt>
      <trkpt lat="41.63097" lon="20.11157">
        <ele>674.97998046875</ele>
        <time>2023-09-30T13:21:22.000Z</time>
      </trkpt>
      <trkpt lat="41.63098" lon="20.11157">
        <ele>674.97998046875</ele>
        <time>2023-09-30T13:21:21.000Z</time>
      </trkpt>
      <trkpt lat="41.63119" lon="20.11159">
        <ele>675.94000244141</ele>
        <time>2023-09-30T13:21:20.000Z</time>
      </trkpt>
      <trkpt lat="41.63125" lon="20.11159">
        <ele>675.94000244141</ele>
        <time>2023-09-30T13:21:19.000Z</time>
      </trkpt>
      <trkpt lat="41.63138" lon="20.11158">
        <ele>676.41998291016</ele>
        <time>2023-09-30T13:21:18.000Z</time>
      </trkpt>
      <trkpt lat="41.63144" lon="20.11157">
        <ele>676.90997314453</ele>
        <time>2023-09-30T13:21:17.000Z</time>
      </trkpt>
      <trkpt lat="41.63155" lon="20.11154">
        <ele>677.39001464844</ele>
        <time>2023-09-30T13:21:16.000Z</time>
      </trkpt>
      <trkpt lat="41.63161" lon="20.11154">
        <ele>677.86999511719</ele>
        <time>2023-09-30T13:21:15.000Z</time>
      </trkpt>
      <trkpt lat="41.63166" lon="20.11156">
        <ele>677.86999511719</ele>
        <time>2023-09-30T13:21:14.000Z</time>
      </trkpt>
      <trkpt lat="41.63169" lon="20.11161">
        <ele>677.86999511719</ele>
        <time>2023-09-30T13:21:13.000Z</time>
      </trkpt>
      <trkpt lat="41.63171" lon="20.11166">
        <ele>678.34997558594</ele>
        <time>2023-09-30T13:21:12.000Z</time>
      </trkpt>
      <trkpt lat="41.6317" lon="20.11171">
        <ele>678.83001708984</ele>
        <time>2023-09-30T13:21:11.000Z</time>
      </trkpt>
      <trkpt lat="41.63167" lon="20.11177">
        <ele>678.83001708984</ele>
        <time>2023-09-30T13:21:10.000Z</time>
      </trkpt>
      <trkpt lat="41.63161" lon="20.1118">
        <ele>679.78997802734</ele>
        <time>2023-09-30T13:21:09.000Z</time>
      </trkpt>
      <trkpt lat="41.63156" lon="20.11181">
        <ele>680.75</ele>
        <time>2023-09-30T13:21:08.000Z</time>
      </trkpt>
      <trkpt lat="41.63146" lon="20.11181">
        <ele>681.71002197266</ele>
        <time>2023-09-30T13:21:07.000Z</time>
      </trkpt>
      <trkpt lat="41.63139" lon="20.11183">
        <ele>682.19000244141</ele>
        <time>2023-09-30T13:21:06.000Z</time>
      </trkpt>
      <trkpt lat="41.63134" lon="20.11184">
        <ele>682.66998291016</ele>
        <time>2023-09-30T13:21:05.000Z</time>
      </trkpt>
      <trkpt lat="41.63121" lon="20.11186">
        <ele>684.11999511719</ele>
        <time>2023-09-30T13:21:04.000Z</time>
      </trkpt>
      <trkpt lat="41.63114" lon="20.11188">
        <ele>684.11999511719</ele>
        <time>2023-09-30T13:21:03.000Z</time>
      </trkpt>
      <trkpt lat="41.63103" lon="20.11189">
        <ele>685.08001708984</ele>
        <time>2023-09-30T13:21:02.000Z</time>
      </trkpt>
      <trkpt lat="41.63096" lon="20.11191">
        <ele>685.08001708984</ele>
        <time>2023-09-30T13:21:01.000Z</time>
      </trkpt>
      <trkpt lat="41.63089" lon="20.11195">
        <ele>685.55999755859</ele>
        <time>2023-09-30T13:21:00.000Z</time>
      </trkpt>
      <trkpt lat="41.63083" lon="20.11198">
        <ele>685.55999755859</ele>
        <time>2023-09-30T13:20:59.000Z</time>
      </trkpt>
      <trkpt lat="41.63075" lon="20.112">
        <ele>686.03997802734</ele>
        <time>2023-09-30T13:20:58.000Z</time>
      </trkpt>
      <trkpt lat="41.63066" lon="20.11199">
        <ele>686.52001953125</ele>
        <time>2023-09-30T13:20:57.000Z</time>
      </trkpt>
      <trkpt lat="41.6306" lon="20.11197">
        <ele>686.52001953125</ele>
        <time>2023-09-30T13:20:56.000Z</time>
      </trkpt>
      <trkpt lat="41.63051" lon="20.11195">
        <ele>687.47998046875</ele>
        <time>2023-09-30T13:20:55.000Z</time>
      </trkpt>
      <trkpt lat="41.63044" lon="20.11193">
        <ele>687.47998046875</ele>
        <time>2023-09-30T13:20:54.000Z</time>
      </trkpt>
      <trkpt lat="41.63035" lon="20.11191">
        <ele>688.44000244141</ele>
        <time>2023-09-30T13:20:53.000Z</time>
      </trkpt>
      <trkpt lat="41.6303" lon="20.11192">
        <ele>688.91998291016</ele>
        <time>2023-09-30T13:20:52.000Z</time>
      </trkpt>
      <trkpt lat="41.63025" lon="20.11195">
        <ele>689.40002441406</ele>
        <time>2023-09-30T13:20:51.000Z</time>
      </trkpt>
      <trkpt lat="41.63023" lon="20.112">
        <ele>690.35998535156</ele>
        <time>2023-09-30T13:20:50.000Z</time>
      </trkpt>
      <trkpt lat="41.63022" lon="20.11205">
        <ele>690.84002685547</ele>
        <time>2023-09-30T13:20:49.000Z</time>
      </trkpt>
      <trkpt lat="41.63024" lon="20.11212">
        <ele>691.80999755859</ele>
        <time>2023-09-30T13:20:48.000Z</time>
      </trkpt>
      <trkpt lat="41.63028" lon="20.1122">
        <ele>692.77001953125</ele>
        <time>2023-09-30T13:20:47.000Z</time>
      </trkpt>
      <trkpt lat="41.63035" lon="20.11228">
        <ele>693.72998046875</ele>
        <time>2023-09-30T13:20:46.000Z</time>
      </trkpt>
      <trkpt lat="41.63037" lon="20.11231">
        <ele>694.21002197266</ele>
        <time>2023-09-30T13:20:45.000Z</time>
      </trkpt>
      <trkpt lat="41.6305" lon="20.11244">
        <ele>695.16998291016</ele>
        <time>2023-09-30T13:20:44.000Z</time>
      </trkpt>
      <trkpt lat="41.63052" lon="20.11247">
        <ele>695.16998291016</ele>
        <time>2023-09-30T13:20:43.000Z</time>
      </trkpt>
      <trkpt lat="41.63062" lon="20.11256">
        <ele>695.65002441406</ele>
        <time>2023-09-30T13:20:42.000Z</time>
      </trkpt>
      <trkpt lat="41.63069" lon="20.11261">
        <ele>695.65002441406</ele>
        <time>2023-09-30T13:20:41.000Z</time>
      </trkpt>
      <trkpt lat="41.63075" lon="20.11262">
        <ele>696.13000488281</ele>
        <time>2023-09-30T13:20:40.000Z</time>
      </trkpt>
      <trkpt lat="41.63083" lon="20.1126">
        <ele>696.13000488281</ele>
        <time>2023-09-30T13:20:39.000Z</time>
      </trkpt>
      <trkpt lat="41.63091" lon="20.11256">
        <ele>696.13000488281</ele>
        <time>2023-09-30T13:20:38.000Z</time>
      </trkpt>
      <trkpt lat="41.63097" lon="20.11255">
        <ele>696.13000488281</ele>
        <time>2023-09-30T13:20:37.000Z</time>
      </trkpt>
      <trkpt lat="41.63105" lon="20.11256">
        <ele>696.13000488281</ele>
        <time>2023-09-30T13:20:36.000Z</time>
      </trkpt>
      <trkpt lat="41.63113" lon="20.1126">
        <ele>696.13000488281</ele>
        <time>2023-09-30T13:20:35.000Z</time>
      </trkpt>
      <trkpt lat="41.6312" lon="20.11267">
        <ele>696.60998535156</ele>
        <time>2023-09-30T13:20:34.000Z</time>
      </trkpt>
      <trkpt lat="41.63126" lon="20.11276">
        <ele>696.60998535156</ele>
        <time>2023-09-30T13:20:33.000Z</time>
      </trkpt>
      <trkpt lat="41.63133" lon="20.11288">
        <ele>697.09002685547</ele>
        <time>2023-09-30T13:20:32.000Z</time>
      </trkpt>
      <trkpt lat="41.63139" lon="20.11297">
        <ele>698.04998779297</ele>
        <time>2023-09-30T13:20:31.000Z</time>
      </trkpt>
      <trkpt lat="41.63146" lon="20.11307">
        <ele>699.02001953125</ele>
        <time>2023-09-30T13:20:30.000Z</time>
      </trkpt>
      <trkpt lat="41.63158" lon="20.11325">
        <ele>700.94000244141</ele>
        <time>2023-09-30T13:20:29.000Z</time>
      </trkpt>
      <trkpt lat="41.63166" lon="20.11333">
        <ele>701.90002441406</ele>
        <time>2023-09-30T13:20:28.000Z</time>
      </trkpt>
      <trkpt lat="41.63169" lon="20.11335">
        <ele>702.38000488281</ele>
        <time>2023-09-30T13:20:27.000Z</time>
      </trkpt>
      <trkpt lat="41.63183" lon="20.11346">
        <ele>704.29998779297</ele>
        <time>2023-09-30T13:20:26.000Z</time>
      </trkpt>
      <trkpt lat="41.6319" lon="20.11354">
        <ele>705.26000976562</ele>
        <time>2023-09-30T13:20:25.000Z</time>
      </trkpt>
      <trkpt lat="41.63196" lon="20.11363">
        <ele>706.22998046875</ele>
        <time>2023-09-30T13:20:24.000Z</time>
      </trkpt>
      <trkpt lat="41.63198" lon="20.11367">
        <ele>706.71002197266</ele>
        <time>2023-09-30T13:20:23.000Z</time>
      </trkpt>
      <trkpt lat="41.63204" lon="20.1138">
        <ele>708.15002441406</ele>
        <time>2023-09-30T13:20:22.000Z</time>
      </trkpt>
      <trkpt lat="41.63211" lon="20.11393">
        <ele>709.59002685547</ele>
        <time>2023-09-30T13:20:21.000Z</time>
      </trkpt>
      <trkpt lat="41.63218" lon="20.11402">
        <ele>710.07000732422</ele>
        <time>2023-09-30T13:20:20.000Z</time>
      </trkpt>
      <trkpt lat="41.63227" lon="20.1141">
        <ele>711.03002929688</ele>
        <time>2023-09-30T13:20:19.000Z</time>
      </trkpt>
      <trkpt lat="41.63233" lon="20.11417">
        <ele>711.98999023438</ele>
        <time>2023-09-30T13:20:18.000Z</time>
      </trkpt>
      <trkpt lat="41.63241" lon="20.11425">
        <ele>712.95001220703</ele>
        <time>2023-09-30T13:20:17.000Z</time>
      </trkpt>
      <trkpt lat="41.63247" lon="20.11432">
        <ele>713.44000244141</ele>
        <time>2023-09-30T13:20:16.000Z</time>
      </trkpt>
      <trkpt lat="41.63253" lon="20.11438">
        <ele>714.40002441406</ele>
        <time>2023-09-30T13:20:15.000Z</time>
      </trkpt>
      <trkpt lat="41.63261" lon="20.11441">
        <ele>714.88000488281</ele>
        <time>2023-09-30T13:20:14.000Z</time>
      </trkpt>
      <trkpt lat="41.6327" lon="20.11442">
        <ele>715.84002685547</ele>
        <time>2023-09-30T13:20:13.000Z</time>
      </trkpt>
      <trkpt lat="41.63272" lon="20.11442">
        <ele>716.32000732422</ele>
        <time>2023-09-30T13:20:12.000Z</time>
      </trkpt>
      <trkpt lat="41.63284" lon="20.11441">
        <ele>717.28002929688</ele>
        <time>2023-09-30T13:20:11.000Z</time>
      </trkpt>
      <trkpt lat="41.63297" lon="20.1144">
        <ele>719.20001220703</ele>
        <time>2023-09-30T13:20:10.000Z</time>
      </trkpt>
      <trkpt lat="41.63305" lon="20.11439">
        <ele>719.67999267578</ele>
        <time>2023-09-30T13:20:09.000Z</time>
      </trkpt>
      <trkpt lat="41.63312" lon="20.11438">
        <ele>719.67999267578</ele>
        <time>2023-09-30T13:20:08.000Z</time>
      </trkpt>
      <trkpt lat="41.63318" lon="20.11435">
        <ele>719.67999267578</ele>
        <time>2023-09-30T13:20:07.000Z</time>
      </trkpt>
      <trkpt lat="41.63323" lon="20.11429">
        <ele>720.15997314453</ele>
        <time>2023-09-30T13:20:06.000Z</time>
      </trkpt>
      <trkpt lat="41.63326" lon="20.11423">
        <ele>720.15997314453</ele>
        <time>2023-09-30T13:20:05.000Z</time>
      </trkpt>
      <trkpt lat="41.63333" lon="20.11411">
        <ele>720.65002441406</ele>
        <time>2023-09-30T13:20:04.000Z</time>
      </trkpt>
      <trkpt lat="41.63339" lon="20.11401">
        <ele>721.13000488281</ele>
        <time>2023-09-30T13:20:03.000Z</time>
      </trkpt>
      <trkpt lat="41.63344" lon="20.11391">
        <ele>722.09002685547</ele>
        <time>2023-09-30T13:20:02.000Z</time>
      </trkpt>
      <trkpt lat="41.63351" lon="20.11384">
        <ele>722.57000732422</ele>
        <time>2023-09-30T13:20:01.000Z</time>
      </trkpt>
      <trkpt lat="41.63358" lon="20.11379">
        <ele>723.53002929688</ele>
        <time>2023-09-30T13:20:00.000Z</time>
      </trkpt>
      <trkpt lat="41.63366" lon="20.11377">
        <ele>724.01000976562</ele>
        <time>2023-09-30T13:19:59.000Z</time>
      </trkpt>
      <trkpt lat="41.63373" lon="20.11378">
        <ele>724.96997070312</ele>
        <time>2023-09-30T13:19:58.000Z</time>
      </trkpt>
      <trkpt lat="41.63379" lon="20.11379">
        <ele>725.45001220703</ele>
        <time>2023-09-30T13:19:57.000Z</time>
      </trkpt>
      <trkpt lat="41.63384" lon="20.11383">
        <ele>726.40997314453</ele>
        <time>2023-09-30T13:19:56.000Z</time>
      </trkpt>
      <trkpt lat="41.63388" lon="20.11389">
        <ele>726.89001464844</ele>
        <time>2023-09-30T13:19:55.000Z</time>
      </trkpt>
      <trkpt lat="41.63393" lon="20.11397">
        <ele>727.85998535156</ele>
        <time>2023-09-30T13:19:54.000Z</time>
      </trkpt>
      <trkpt lat="41.63399" lon="20.11404">
        <ele>728.82000732422</ele>
        <time>2023-09-30T13:19:53.000Z</time>
      </trkpt>
      <trkpt lat="41.63406" lon="20.11408">
        <ele>729.78002929688</ele>
        <time>2023-09-30T13:19:52.000Z</time>
      </trkpt>
      <trkpt lat="41.63415" lon="20.1141">
        <ele>730.73999023438</ele>
        <time>2023-09-30T13:19:51.000Z</time>
      </trkpt>
      <trkpt lat="41.63417" lon="20.1141">
        <ele>730.73999023438</ele>
        <time>2023-09-30T13:19:50.000Z</time>
      </trkpt>
      <trkpt lat="41.63431" lon="20.11409">
        <ele>732.17999267578</ele>
        <time>2023-09-30T13:19:49.000Z</time>
      </trkpt>
      <trkpt lat="41.63443" lon="20.11409">
        <ele>733.14001464844</ele>
        <time>2023-09-30T13:19:48.000Z</time>
      </trkpt>
      <trkpt lat="41.6345" lon="20.11409">
        <ele>734.09997558594</ele>
        <time>2023-09-30T13:19:47.000Z</time>
      </trkpt>
      <trkpt lat="41.6346" lon="20.1141">
        <ele>734.58001708984</ele>
        <time>2023-09-30T13:19:46.000Z</time>
      </trkpt>
      <trkpt lat="41.63471" lon="20.11412">
        <ele>735.54998779297</ele>
        <time>2023-09-30T13:19:45.000Z</time>
      </trkpt>
      <trkpt lat="41.63478" lon="20.11414">
        <ele>736.51000976562</ele>
        <time>2023-09-30T13:19:44.000Z</time>
      </trkpt>
      <trkpt lat="41.63488" lon="20.11418">
        <ele>737.46997070312</ele>
        <time>2023-09-30T13:19:43.000Z</time>
      </trkpt>
      <trkpt lat="41.63492" lon="20.1142">
        <ele>737.46997070312</ele>
        <time>2023-09-30T13:19:42.000Z</time>
      </trkpt>
      <trkpt lat="41.63502" lon="20.11426">
        <ele>738.42999267578</ele>
        <time>2023-09-30T13:19:41.000Z</time>
      </trkpt>
      <trkpt lat="41.63512" lon="20.11432">
        <ele>739.39001464844</ele>
        <time>2023-09-30T13:19:40.000Z</time>
      </trkpt>
      <trkpt lat="41.6352" lon="20.11435">
        <ele>740.83001708984</ele>
        <time>2023-09-30T13:19:39.000Z</time>
      </trkpt>
      <trkpt lat="41.63527" lon="20.11436">
        <ele>741.30999755859</ele>
        <time>2023-09-30T13:19:38.000Z</time>
      </trkpt>
      <trkpt lat="41.63535" lon="20.11438">
        <ele>741.78997802734</ele>
        <time>2023-09-30T13:19:37.000Z</time>
      </trkpt>
      <trkpt lat="41.63543" lon="20.11442">
        <ele>742.28002929688</ele>
        <time>2023-09-30T13:19:36.000Z</time>
      </trkpt>
      <trkpt lat="41.63545" lon="20.11443">
        <ele>742.28002929688</ele>
        <time>2023-09-30T13:19:35.000Z</time>
      </trkpt>
      <trkpt lat="41.63555" lon="20.11452">
        <ele>743.23999023438</ele>
        <time>2023-09-30T13:19:34.000Z</time>
      </trkpt>
      <trkpt lat="41.63565" lon="20.1146">
        <ele>744.20001220703</ele>
        <time>2023-09-30T13:19:33.000Z</time>
      </trkpt>
      <trkpt lat="41.63571" lon="20.11464">
        <ele>744.67999267578</ele>
        <time>2023-09-30T13:19:32.000Z</time>
      </trkpt>
      <trkpt lat="41.63579" lon="20.11467">
        <ele>745.64001464844</ele>
        <time>2023-09-30T13:19:31.000Z</time>
      </trkpt>
      <trkpt lat="41.63587" lon="20.11467">
        <ele>746.59997558594</ele>
        <time>2023-09-30T13:19:30.000Z</time>
      </trkpt>
      <trkpt lat="41.63594" lon="20.11465">
        <ele>747.08001708984</ele>
        <time>2023-09-30T13:19:29.000Z</time>
      </trkpt>
      <trkpt lat="41.636" lon="20.11465">
        <ele>747.55999755859</ele>
        <time>2023-09-30T13:19:28.000Z</time>
      </trkpt>
      <trkpt lat="41.6361" lon="20.11464">
        <ele>748.52001953125</ele>
        <time>2023-09-30T13:19:27.000Z</time>
      </trkpt>
      <trkpt lat="41.63619" lon="20.11466">
        <ele>749</ele>
        <time>2023-09-30T13:19:26.000Z</time>
      </trkpt>
      <trkpt lat="41.63626" lon="20.11469">
        <ele>749.96997070312</ele>
        <time>2023-09-30T13:19:25.000Z</time>
      </trkpt>
      <trkpt lat="41.63633" lon="20.11474">
        <ele>750.45001220703</ele>
        <time>2023-09-30T13:19:24.000Z</time>
      </trkpt>
      <trkpt lat="41.63641" lon="20.1148">
        <ele>750.92999267578</ele>
        <time>2023-09-30T13:19:23.000Z</time>
      </trkpt>
      <trkpt lat="41.63645" lon="20.11485">
        <ele>751.40997314453</ele>
        <time>2023-09-30T13:19:22.000Z</time>
      </trkpt>
      <trkpt lat="41.63667" lon="20.11508">
        <ele>753.33001708984</ele>
        <time>2023-09-30T13:19:19.000Z</time>
      </trkpt>
      <trkpt lat="41.63671" lon="20.11511">
        <ele>753.80999755859</ele>
        <time>2023-09-30T13:19:18.000Z</time>
      </trkpt>
      <trkpt lat="41.63689" lon="20.11526">
        <ele>756.21002197266</ele>
        <time>2023-09-30T13:19:16.000Z</time>
      </trkpt>
      <trkpt lat="41.63695" lon="20.11531">
        <ele>756.69000244141</ele>
        <time>2023-09-30T13:19:15.000Z</time>
      </trkpt>
      <trkpt lat="41.63699" lon="20.11537">
        <ele>757.17999267578</ele>
        <time>2023-09-30T13:19:14.000Z</time>
      </trkpt>
      <trkpt lat="41.63702" lon="20.11543">
        <ele>757.65997314453</ele>
        <time>2023-09-30T13:19:13.000Z</time>
      </trkpt>
      <trkpt lat="41.63704" lon="20.11549">
        <ele>758.14001464844</ele>
        <time>2023-09-30T13:19:12.000Z</time>
      </trkpt>
      <trkpt lat="41.63702" lon="20.11554">
        <ele>758.61999511719</ele>
        <time>2023-09-30T13:19:11.000Z</time>
      </trkpt>
      <trkpt lat="41.63698" lon="20.1156">
        <ele>759.09997558594</ele>
        <time>2023-09-30T13:19:10.000Z</time>
      </trkpt>
      <trkpt lat="41.63693" lon="20.11562">
        <ele>759.58001708984</ele>
        <time>2023-09-30T13:19:09.000Z</time>
      </trkpt>
      <trkpt lat="41.63688" lon="20.11561">
        <ele>760.53997802734</ele>
        <time>2023-09-30T13:19:08.000Z</time>
      </trkpt>
      <trkpt lat="41.63684" lon="20.11558">
        <ele>761.02001953125</ele>
        <time>2023-09-30T13:19:07.000Z</time>
      </trkpt>
      <trkpt lat="41.6368" lon="20.11553">
        <ele>761.5</ele>
        <time>2023-09-30T13:19:06.000Z</time>
      </trkpt>
      <trkpt lat="41.63675" lon="20.11546">
        <ele>761.5</ele>
        <time>2023-09-30T13:19:05.000Z</time>
      </trkpt>
      <trkpt lat="41.63671" lon="20.11539">
        <ele>761.5</ele>
        <time>2023-09-30T13:19:04.000Z</time>
      </trkpt>
      <trkpt lat="41.63664" lon="20.11529">
        <ele>761.5</ele>
        <time>2023-09-30T13:19:03.000Z</time>
      </trkpt>
      <trkpt lat="41.63658" lon="20.11521">
        <ele>761.5</ele>
        <time>2023-09-30T13:19:02.000Z</time>
      </trkpt>
      <trkpt lat="41.63653" lon="20.11516">
        <ele>761.97998046875</ele>
        <time>2023-09-30T13:19:01.000Z</time>
      </trkpt>
      <trkpt lat="41.63636" lon="20.11505">
        <ele>762.46002197266</ele>
        <time>2023-09-30T13:18:59.000Z</time>
      </trkpt>
      <trkpt lat="41.6363" lon="20.11502">
        <ele>762.94000244141</ele>
        <time>2023-09-30T13:18:58.000Z</time>
      </trkpt>
      <trkpt lat="41.63623" lon="20.115">
        <ele>762.94000244141</ele>
        <time>2023-09-30T13:18:57.000Z</time>
      </trkpt>
      <trkpt lat="41.63616" lon="20.115">
        <ele>763.41998291016</ele>
        <time>2023-09-30T13:18:56.000Z</time>
      </trkpt>
      <trkpt lat="41.63612" lon="20.115">
        <ele>763.41998291016</ele>
        <time>2023-09-30T13:18:55.000Z</time>
      </trkpt>
      <trkpt lat="41.63603" lon="20.11502">
        <ele>763.90002441406</ele>
        <time>2023-09-30T13:18:54.000Z</time>
      </trkpt>
      <trkpt lat="41.63597" lon="20.11503">
        <ele>764.39001464844</ele>
        <time>2023-09-30T13:18:53.000Z</time>
      </trkpt>
      <trkpt lat="41.63586" lon="20.11504">
        <ele>764.86999511719</ele>
        <time>2023-09-30T13:18:52.000Z</time>
      </trkpt>
      <trkpt lat="41.63578" lon="20.11503">
        <ele>765.83001708984</ele>
        <time>2023-09-30T13:18:51.000Z</time>
      </trkpt>
      <trkpt lat="41.63571" lon="20.11501">
        <ele>765.83001708984</ele>
        <time>2023-09-30T13:18:50.000Z</time>
      </trkpt>
      <trkpt lat="41.63556" lon="20.11496">
        <ele>766.78997802734</ele>
        <time>2023-09-30T13:18:48.000Z</time>
      </trkpt>
      <trkpt lat="41.63551" lon="20.11493">
        <ele>767.27001953125</ele>
        <time>2023-09-30T13:18:47.000Z</time>
      </trkpt>
      <trkpt lat="41.63545" lon="20.1149">
        <ele>767.27001953125</ele>
        <time>2023-09-30T13:18:46.000Z</time>
      </trkpt>
      <trkpt lat="41.63539" lon="20.11489">
        <ele>767.27001953125</ele>
        <time>2023-09-30T13:18:45.000Z</time>
      </trkpt>
      <trkpt lat="41.63532" lon="20.11488">
        <ele>767.27001953125</ele>
        <time>2023-09-30T13:18:44.000Z</time>
      </trkpt>
      <trkpt lat="41.63525" lon="20.11489">
        <ele>767.27001953125</ele>
        <time>2023-09-30T13:18:43.000Z</time>
      </trkpt>
      <trkpt lat="41.63518" lon="20.1149">
        <ele>767.27001953125</ele>
        <time>2023-09-30T13:18:42.000Z</time>
      </trkpt>
      <trkpt lat="41.63511" lon="20.1149">
        <ele>767.27001953125</ele>
        <time>2023-09-30T13:18:41.000Z</time>
      </trkpt>
      <trkpt lat="41.63504" lon="20.11491">
        <ele>767.27001953125</ele>
        <time>2023-09-30T13:18:40.000Z</time>
      </trkpt>
      <trkpt lat="41.63495" lon="20.11492">
        <ele>766.78997802734</ele>
        <time>2023-09-30T13:18:39.000Z</time>
      </trkpt>
      <trkpt lat="41.63487" lon="20.11494">
        <ele>767.27001953125</ele>
        <time>2023-09-30T13:18:38.000Z</time>
      </trkpt>
      <trkpt lat="41.63481" lon="20.11496">
        <ele>767.27001953125</ele>
        <time>2023-09-30T13:18:37.000Z</time>
      </trkpt>
      <trkpt lat="41.63475" lon="20.115">
        <ele>767.75</ele>
        <time>2023-09-30T13:18:36.000Z</time>
      </trkpt>
      <trkpt lat="41.6347" lon="20.11504">
        <ele>768.22998046875</ele>
        <time>2023-09-30T13:18:35.000Z</time>
      </trkpt>
      <trkpt lat="41.63463" lon="20.11511">
        <ele>768.22998046875</ele>
        <time>2023-09-30T13:18:34.000Z</time>
      </trkpt>
      <trkpt lat="41.63457" lon="20.11516">
        <ele>768.71002197266</ele>
        <time>2023-09-30T13:18:33.000Z</time>
      </trkpt>
      <trkpt lat="41.63454" lon="20.11518">
        <ele>769.19000244141</ele>
        <time>2023-09-30T13:18:32.000Z</time>
      </trkpt>
      <trkpt lat="41.63443" lon="20.11533">
        <ele>771.59997558594</ele>
        <time>2023-09-30T13:18:27.000Z</time>
      </trkpt>
      <trkpt lat="41.63445" lon="20.11538">
        <ele>772.08001708984</ele>
        <time>2023-09-30T13:18:26.000Z</time>
      </trkpt>
      <trkpt lat="41.63448" lon="20.11543">
        <ele>773.03997802734</ele>
        <time>2023-09-30T13:18:25.000Z</time>
      </trkpt>
      <trkpt lat="41.63453" lon="20.11544">
        <ele>773.52001953125</ele>
        <time>2023-09-30T13:18:24.000Z</time>
      </trkpt>
      <trkpt lat="41.63459" lon="20.11542">
        <ele>773.52001953125</ele>
        <time>2023-09-30T13:18:23.000Z</time>
      </trkpt>
      <trkpt lat="41.63464" lon="20.11537">
        <ele>774</ele>
        <time>2023-09-30T13:18:22.000Z</time>
      </trkpt>
      <trkpt lat="41.63473" lon="20.11528">
        <ele>774.96002197266</ele>
        <time>2023-09-30T13:18:21.000Z</time>
      </trkpt>
      <trkpt lat="41.63479" lon="20.11522">
        <ele>775.44000244141</ele>
        <time>2023-09-30T13:18:20.000Z</time>
      </trkpt>
      <trkpt lat="41.63485" lon="20.11517">
        <ele>775.91998291016</ele>
        <time>2023-09-30T13:18:19.000Z</time>
      </trkpt>
      <trkpt lat="41.63493" lon="20.11514">
        <ele>776.40002441406</ele>
        <time>2023-09-30T13:18:18.000Z</time>
      </trkpt>
      <trkpt lat="41.635" lon="20.11512">
        <ele>776.88000488281</ele>
        <time>2023-09-30T13:18:17.000Z</time>
      </trkpt>
      <trkpt lat="41.63503" lon="20.11512">
        <ele>777.35998535156</ele>
        <time>2023-09-30T13:18:16.000Z</time>
      </trkpt>
      <trkpt lat="41.63516" lon="20.11511">
        <ele>778.32000732422</ele>
        <time>2023-09-30T13:18:15.000Z</time>
      </trkpt>
      <trkpt lat="41.63525" lon="20.11512">
        <ele>778.80999755859</ele>
        <time>2023-09-30T13:18:14.000Z</time>
      </trkpt>
      <trkpt lat="41.63533" lon="20.11513">
        <ele>778.80999755859</ele>
        <time>2023-09-30T13:18:13.000Z</time>
      </trkpt>
      <trkpt lat="41.63538" lon="20.11515">
        <ele>779.28997802734</ele>
        <time>2023-09-30T13:18:12.000Z</time>
      </trkpt>
      <trkpt lat="41.63544" lon="20.11518">
        <ele>779.77001953125</ele>
        <time>2023-09-30T13:18:11.000Z</time>
      </trkpt>
      <trkpt lat="41.63549" lon="20.11521">
        <ele>780.25</ele>
        <time>2023-09-30T13:18:10.000Z</time>
      </trkpt>
      <trkpt lat="41.63591" lon="20.11547">
        <ele>783.60998535156</ele>
        <time>2023-09-30T13:18:06.000Z</time>
      </trkpt>
      <trkpt lat="41.63598" lon="20.11552">
        <ele>784.09002685547</ele>
        <time>2023-09-30T13:18:05.000Z</time>
      </trkpt>
      <trkpt lat="41.63604" lon="20.11558">
        <ele>785.04998779297</ele>
        <time>2023-09-30T13:18:04.000Z</time>
      </trkpt>
      <trkpt lat="41.63609" lon="20.11565">
        <ele>786.02001953125</ele>
        <time>2023-09-30T13:18:03.000Z</time>
      </trkpt>
      <trkpt lat="41.63613" lon="20.11572">
        <ele>786.5</ele>
        <time>2023-09-30T13:18:02.000Z</time>
      </trkpt>
      <trkpt lat="41.63618" lon="20.11582">
        <ele>787.46002197266</ele>
        <time>2023-09-30T13:18:01.000Z</time>
      </trkpt>
      <trkpt lat="41.6362" lon="20.1159">
        <ele>787.94000244141</ele>
        <time>2023-09-30T13:18:00.000Z</time>
      </trkpt>
      <trkpt lat="41.63622" lon="20.11597">
        <ele>788.41998291016</ele>
        <time>2023-09-30T13:17:59.000Z</time>
      </trkpt>
      <trkpt lat="41.63629" lon="20.11616">
        <ele>790.34002685547</ele>
        <time>2023-09-30T13:17:58.000Z</time>
      </trkpt>
      <trkpt lat="41.63633" lon="20.11627">
        <ele>790.82000732422</ele>
        <time>2023-09-30T13:17:57.000Z</time>
      </trkpt>
      <trkpt lat="41.63637" lon="20.11638">
        <ele>791.78002929688</ele>
        <time>2023-09-30T13:17:56.000Z</time>
      </trkpt>
      <trkpt lat="41.63641" lon="20.11644">
        <ele>792.26000976562</ele>
        <time>2023-09-30T13:17:55.000Z</time>
      </trkpt>
      <trkpt lat="41.63648" lon="20.1165">
        <ele>793.21997070312</ele>
        <time>2023-09-30T13:17:54.000Z</time>
      </trkpt>
      <trkpt lat="41.63655" lon="20.11654">
        <ele>794.19000244141</ele>
        <time>2023-09-30T13:17:53.000Z</time>
      </trkpt>
      <trkpt lat="41.63662" lon="20.11659">
        <ele>795.63000488281</ele>
        <time>2023-09-30T13:17:52.000Z</time>
      </trkpt>
      <trkpt lat="41.63666" lon="20.11664">
        <ele>796.10998535156</ele>
        <time>2023-09-30T13:17:51.000Z</time>
      </trkpt>
      <trkpt lat="41.63669" lon="20.11671">
        <ele>796.59002685547</ele>
        <time>2023-09-30T13:17:50.000Z</time>
      </trkpt>
      <trkpt lat="41.6367" lon="20.11678">
        <ele>797.54998779297</ele>
        <time>2023-09-30T13:17:49.000Z</time>
      </trkpt>
      <trkpt lat="41.6367" lon="20.11684">
        <ele>798.03002929688</ele>
        <time>2023-09-30T13:17:48.000Z</time>
      </trkpt>
      <trkpt lat="41.63669" lon="20.11694">
        <ele>798.98999023438</ele>
        <time>2023-09-30T13:17:47.000Z</time>
      </trkpt>
      <trkpt lat="41.63669" lon="20.117">
        <ele>799.46997070312</ele>
        <time>2023-09-30T13:17:46.000Z</time>
      </trkpt>
      <trkpt lat="41.63667" lon="20.11712">
        <ele>799.95001220703</ele>
        <time>2023-09-30T13:17:45.000Z</time>
      </trkpt>
      <trkpt lat="41.63666" lon="20.11723">
        <ele>800.44000244141</ele>
        <time>2023-09-30T13:17:44.000Z</time>
      </trkpt>
      <trkpt lat="41.63661" lon="20.11769">
        <ele>804.28002929688</ele>
        <time>2023-09-30T13:17:41.000Z</time>
      </trkpt>
      <trkpt lat="41.63662" lon="20.11781">
        <ele>805.23999023438</ele>
        <time>2023-09-30T13:17:40.000Z</time>
      </trkpt>
      <trkpt lat="41.63663" lon="20.11791">
        <ele>805.71997070312</ele>
        <time>2023-09-30T13:17:39.000Z</time>
      </trkpt>
      <trkpt lat="41.63664" lon="20.11802">
        <ele>806.67999267578</ele>
        <time>2023-09-30T13:17:38.000Z</time>
      </trkpt>
      <trkpt lat="41.63665" lon="20.11811">
        <ele>807.15997314453</ele>
        <time>2023-09-30T13:17:37.000Z</time>
      </trkpt>
      <trkpt lat="41.63666" lon="20.11821">
        <ele>808.13000488281</ele>
        <time>2023-09-30T13:17:36.000Z</time>
      </trkpt>
      <trkpt lat="41.63669" lon="20.1183">
        <ele>809.09002685547</ele>
        <time>2023-09-30T13:17:35.000Z</time>
      </trkpt>
      <trkpt lat="41.63673" lon="20.11837">
        <ele>809.57000732422</ele>
        <time>2023-09-30T13:17:34.000Z</time>
      </trkpt>
      <trkpt lat="41.63678" lon="20.11845">
        <ele>810.04998779297</ele>
        <time>2023-09-30T13:17:33.000Z</time>
      </trkpt>
      <trkpt lat="41.63684" lon="20.11852">
        <ele>811.01000976562</ele>
        <time>2023-09-30T13:17:32.000Z</time>
      </trkpt>
      <trkpt lat="41.6369" lon="20.11858">
        <ele>811.48999023438</ele>
        <time>2023-09-30T13:17:31.000Z</time>
      </trkpt>
      <trkpt lat="41.63695" lon="20.11863">
        <ele>811.96997070312</ele>
        <time>2023-09-30T13:17:30.000Z</time>
      </trkpt>
      <trkpt lat="41.63699" lon="20.11867">
        <ele>812.45001220703</ele>
        <time>2023-09-30T13:17:29.000Z</time>
      </trkpt>
      <trkpt lat="41.63702" lon="20.11872">
        <ele>812.92999267578</ele>
        <time>2023-09-30T13:17:28.000Z</time>
      </trkpt>
      <trkpt lat="41.63704" lon="20.11878">
        <ele>813.89001464844</ele>
        <time>2023-09-30T13:17:27.000Z</time>
      </trkpt>
      <trkpt lat="41.63706" lon="20.11884">
        <ele>813.89001464844</ele>
        <time>2023-09-30T13:17:26.000Z</time>
      </trkpt>
      <trkpt lat="41.63707" lon="20.1189">
        <ele>814.36999511719</ele>
        <time>2023-09-30T13:17:25.000Z</time>
      </trkpt>
      <trkpt lat="41.63709" lon="20.11896">
        <ele>814.36999511719</ele>
        <time>2023-09-30T13:17:24.000Z</time>
      </trkpt>
      <trkpt lat="41.63709" lon="20.11903">
        <ele>814.84997558594</ele>
        <time>2023-09-30T13:17:23.000Z</time>
      </trkpt>
      <trkpt lat="41.63707" lon="20.11911">
        <ele>814.84997558594</ele>
        <time>2023-09-30T13:17:22.000Z</time>
      </trkpt>
      <trkpt lat="41.63705" lon="20.1192">
        <ele>815.82000732422</ele>
        <time>2023-09-30T13:17:21.000Z</time>
      </trkpt>
      <trkpt lat="41.63702" lon="20.11926">
        <ele>816.29998779297</ele>
        <time>2023-09-30T13:17:20.000Z</time>
      </trkpt>
      <trkpt lat="41.63696" lon="20.1194">
        <ele>818.21997070312</ele>
        <time>2023-09-30T13:17:18.000Z</time>
      </trkpt>
      <trkpt lat="41.63691" lon="20.11953">
        <ele>819.65997314453</ele>
        <time>2023-09-30T13:17:17.000Z</time>
      </trkpt>
      <trkpt lat="41.63688" lon="20.1196">
        <ele>820.14001464844</ele>
        <time>2023-09-30T13:17:16.000Z</time>
      </trkpt>
      <trkpt lat="41.63683" lon="20.1197">
        <ele>821.58001708984</ele>
        <time>2023-09-30T13:17:15.000Z</time>
      </trkpt>
      <trkpt lat="41.63675" lon="20.11983">
        <ele>823.03002929688</ele>
        <time>2023-09-30T13:17:13.000Z</time>
      </trkpt>
      <trkpt lat="41.63671" lon="20.11992">
        <ele>823.98999023438</ele>
        <time>2023-09-30T13:17:12.000Z</time>
      </trkpt>
      <trkpt lat="41.63667" lon="20.12">
        <ele>824.95001220703</ele>
        <time>2023-09-30T13:17:11.000Z</time>
      </trkpt>
      <trkpt lat="41.63665" lon="20.12005">
        <ele>825.42999267578</ele>
        <time>2023-09-30T13:17:10.000Z</time>
      </trkpt>
      <trkpt lat="41.63661" lon="20.12022">
        <ele>826.39001464844</ele>
        <time>2023-09-30T13:17:08.000Z</time>
      </trkpt>
      <trkpt lat="41.63657" lon="20.12035">
        <ele>827.34997558594</ele>
        <time>2023-09-30T13:17:07.000Z</time>
      </trkpt>
      <trkpt lat="41.63655" lon="20.12044">
        <ele>828.30999755859</ele>
        <time>2023-09-30T13:17:06.000Z</time>
      </trkpt>
      <trkpt lat="41.63653" lon="20.12053">
        <ele>828.78997802734</ele>
        <time>2023-09-30T13:17:05.000Z</time>
      </trkpt>
      <trkpt lat="41.63652" lon="20.12055">
        <ele>828.78997802734</ele>
        <time>2023-09-30T13:17:04.000Z</time>
      </trkpt>
      <trkpt lat="41.63646" lon="20.12091">
        <ele>831.20001220703</ele>
        <time>2023-09-30T13:17:01.000Z</time>
      </trkpt>
      <trkpt lat="41.63645" lon="20.121">
        <ele>831.67999267578</ele>
        <time>2023-09-30T13:17:00.000Z</time>
      </trkpt>
      <trkpt lat="41.63644" lon="20.12105">
        <ele>832.15997314453</ele>
        <time>2023-09-30T13:16:59.000Z</time>
      </trkpt>
      <trkpt lat="41.63643" lon="20.12119">
        <ele>833.11999511719</ele>
        <time>2023-09-30T13:16:58.000Z</time>
      </trkpt>
      <trkpt lat="41.63641" lon="20.12132">
        <ele>834.08001708984</ele>
        <time>2023-09-30T13:16:57.000Z</time>
      </trkpt>
      <trkpt lat="41.63637" lon="20.12162">
        <ele>836.47998046875</ele>
        <time>2023-09-30T13:16:54.000Z</time>
      </trkpt>
      <trkpt lat="41.63636" lon="20.12169">
        <ele>836.96002197266</ele>
        <time>2023-09-30T13:16:53.000Z</time>
      </trkpt>
      <trkpt lat="41.63632" lon="20.12191">
        <ele>838.40997314453</ele>
        <time>2023-09-30T13:16:51.000Z</time>
      </trkpt>
      <trkpt lat="41.6363" lon="20.12197">
        <ele>838.89001464844</ele>
        <time>2023-09-30T13:16:50.000Z</time>
      </trkpt>
      <trkpt lat="41.63627" lon="20.12209">
        <ele>839.36999511719</ele>
        <time>2023-09-30T13:16:49.000Z</time>
      </trkpt>
      <trkpt lat="41.63626" lon="20.12211">
        <ele>839.84997558594</ele>
        <time>2023-09-30T13:16:48.000Z</time>
      </trkpt>
      <trkpt lat="41.63624" lon="20.12221">
        <ele>840.33001708984</ele>
        <time>2023-09-30T13:16:47.000Z</time>
      </trkpt>
      <trkpt lat="41.6362" lon="20.12236">
        <ele>841.28997802734</ele>
        <time>2023-09-30T13:16:46.000Z</time>
      </trkpt>
      <trkpt lat="41.63618" lon="20.12244">
        <ele>841.77001953125</ele>
        <time>2023-09-30T13:16:45.000Z</time>
      </trkpt>
      <trkpt lat="41.63613" lon="20.12265">
        <ele>842.25</ele>
        <time>2023-09-30T13:16:43.000Z</time>
      </trkpt>
      <trkpt lat="41.63609" lon="20.12274">
        <ele>843.21002197266</ele>
        <time>2023-09-30T13:16:42.000Z</time>
      </trkpt>
      <trkpt lat="41.63604" lon="20.12282">
        <ele>844.17999267578</ele>
        <time>2023-09-30T13:16:41.000Z</time>
      </trkpt>
      <trkpt lat="41.63598" lon="20.12289">
        <ele>844.65997314453</ele>
        <time>2023-09-30T13:16:40.000Z</time>
      </trkpt>
      <trkpt lat="41.63594" lon="20.12293">
        <ele>845.14001464844</ele>
        <time>2023-09-30T13:16:39.000Z</time>
      </trkpt>
      <trkpt lat="41.63578" lon="20.12308">
        <ele>846.58001708984</ele>
        <time>2023-09-30T13:16:37.000Z</time>
      </trkpt>
      <trkpt lat="41.63573" lon="20.12312">
        <ele>847.05999755859</ele>
        <time>2023-09-30T13:16:36.000Z</time>
      </trkpt>
      <trkpt lat="41.63555" lon="20.12327">
        <ele>848.5</ele>
        <time>2023-09-30T13:16:34.000Z</time>
      </trkpt>
      <trkpt lat="41.63548" lon="20.12334">
        <ele>849.94000244141</ele>
        <time>2023-09-30T13:16:33.000Z</time>
      </trkpt>
      <trkpt lat="41.63543" lon="20.12341">
        <ele>850.41998291016</ele>
        <time>2023-09-30T13:16:32.000Z</time>
      </trkpt>
      <trkpt lat="41.63539" lon="20.12349">
        <ele>850.90002441406</ele>
        <time>2023-09-30T13:16:31.000Z</time>
      </trkpt>
      <trkpt lat="41.63537" lon="20.12356">
        <ele>851.38000488281</ele>
        <time>2023-09-30T13:16:30.000Z</time>
      </trkpt>
      <trkpt lat="41.63535" lon="20.12369">
        <ele>852.34997558594</ele>
        <time>2023-09-30T13:16:29.000Z</time>
      </trkpt>
      <trkpt lat="41.63532" lon="20.12378">
        <ele>853.78997802734</ele>
        <time>2023-09-30T13:16:28.000Z</time>
      </trkpt>
      <trkpt lat="41.63529" lon="20.12384">
        <ele>854.27001953125</ele>
        <time>2023-09-30T13:16:27.000Z</time>
      </trkpt>
      <trkpt lat="41.63526" lon="20.12389">
        <ele>854.75</ele>
        <time>2023-09-30T13:16:26.000Z</time>
      </trkpt>
      <trkpt lat="41.63519" lon="20.124">
        <ele>855.71002197266</ele>
        <time>2023-09-30T13:16:25.000Z</time>
      </trkpt>
      <trkpt lat="41.63516" lon="20.12407">
        <ele>856.19000244141</ele>
        <time>2023-09-30T13:16:24.000Z</time>
      </trkpt>
      <trkpt lat="41.63514" lon="20.12414">
        <ele>856.66998291016</ele>
        <time>2023-09-30T13:16:23.000Z</time>
      </trkpt>
      <trkpt lat="41.63514" lon="20.1242">
        <ele>857.15002441406</ele>
        <time>2023-09-30T13:16:22.000Z</time>
      </trkpt>
      <trkpt lat="41.63516" lon="20.12428">
        <ele>857.63000488281</ele>
        <time>2023-09-30T13:16:21.000Z</time>
      </trkpt>
      <trkpt lat="41.63521" lon="20.12436">
        <ele>858.10998535156</ele>
        <time>2023-09-30T13:16:20.000Z</time>
      </trkpt>
      <trkpt lat="41.63527" lon="20.12447">
        <ele>859.08001708984</ele>
        <time>2023-09-30T13:16:19.000Z</time>
      </trkpt>
      <trkpt lat="41.63529" lon="20.12454">
        <ele>859.55999755859</ele>
        <time>2023-09-30T13:16:18.000Z</time>
      </trkpt>
      <trkpt lat="41.63535" lon="20.12469">
        <ele>861</ele>
        <time>2023-09-30T13:16:17.000Z</time>
      </trkpt>
      <trkpt lat="41.63536" lon="20.12475">
        <ele>861</ele>
        <time>2023-09-30T13:16:16.000Z</time>
      </trkpt>
      <trkpt lat="41.63541" lon="20.12491">
        <ele>862.44000244141</ele>
        <time>2023-09-30T13:16:15.000Z</time>
      </trkpt>
      <trkpt lat="41.63543" lon="20.12499">
        <ele>862.91998291016</ele>
        <time>2023-09-30T13:16:14.000Z</time>
      </trkpt>
      <trkpt lat="41.63547" lon="20.12512">
        <ele>863.88000488281</ele>
        <time>2023-09-30T13:16:13.000Z</time>
      </trkpt>
      <trkpt lat="41.63551" lon="20.12523">
        <ele>864.35998535156</ele>
        <time>2023-09-30T13:16:12.000Z</time>
      </trkpt>
      <trkpt lat="41.63553" lon="20.12532">
        <ele>864.84002685547</ele>
        <time>2023-09-30T13:16:11.000Z</time>
      </trkpt>
      <trkpt lat="41.63554" lon="20.12543">
        <ele>865.32000732422</ele>
        <time>2023-09-30T13:16:10.000Z</time>
      </trkpt>
      <trkpt lat="41.63555" lon="20.12554">
        <ele>866.28997802734</ele>
        <time>2023-09-30T13:16:09.000Z</time>
      </trkpt>
      <trkpt lat="41.63555" lon="20.12565">
        <ele>867.25</ele>
        <time>2023-09-30T13:16:08.000Z</time>
      </trkpt>
      <trkpt lat="41.63555" lon="20.12578">
        <ele>867.72998046875</ele>
        <time>2023-09-30T13:16:07.000Z</time>
      </trkpt>
      <trkpt lat="41.63554" lon="20.12586">
        <ele>868.21002197266</ele>
        <time>2023-09-30T13:16:06.000Z</time>
      </trkpt>
      <trkpt lat="41.63552" lon="20.12603">
        <ele>869.65002441406</ele>
        <time>2023-09-30T13:16:05.000Z</time>
      </trkpt>
      <trkpt lat="41.6355" lon="20.12612">
        <ele>870.13000488281</ele>
        <time>2023-09-30T13:16:04.000Z</time>
      </trkpt>
      <trkpt lat="41.63548" lon="20.12619">
        <ele>871.09002685547</ele>
        <time>2023-09-30T13:16:03.000Z</time>
      </trkpt>
      <trkpt lat="41.63542" lon="20.12639">
        <ele>872.53002929688</ele>
        <time>2023-09-30T13:16:02.000Z</time>
      </trkpt>
      <trkpt lat="41.63539" lon="20.12648">
        <ele>873.01000976562</ele>
        <time>2023-09-30T13:16:01.000Z</time>
      </trkpt>
      <trkpt lat="41.63537" lon="20.12658">
        <ele>873.97998046875</ele>
        <time>2023-09-30T13:16:00.000Z</time>
      </trkpt>
      <trkpt lat="41.63534" lon="20.12674">
        <ele>874.94000244141</ele>
        <time>2023-09-30T13:15:59.000Z</time>
      </trkpt>
      <trkpt lat="41.63532" lon="20.12683">
        <ele>874.94000244141</ele>
        <time>2023-09-30T13:15:58.000Z</time>
      </trkpt>
      <trkpt lat="41.6353" lon="20.12689">
        <ele>875.41998291016</ele>
        <time>2023-09-30T13:15:57.000Z</time>
      </trkpt>
      <trkpt lat="41.63527" lon="20.12694">
        <ele>875.90002441406</ele>
        <time>2023-09-30T13:15:56.000Z</time>
      </trkpt>
      <trkpt lat="41.63523" lon="20.12696">
        <ele>876.38000488281</ele>
        <time>2023-09-30T13:15:55.000Z</time>
      </trkpt>
      <trkpt lat="41.63519" lon="20.12696">
        <ele>876.85998535156</ele>
        <time>2023-09-30T13:15:54.000Z</time>
      </trkpt>
      <trkpt lat="41.63516" lon="20.12693">
        <ele>877.82000732422</ele>
        <time>2023-09-30T13:15:53.000Z</time>
      </trkpt>
      <trkpt lat="41.63513" lon="20.12688">
        <ele>878.29998779297</ele>
        <time>2023-09-30T13:15:52.000Z</time>
      </trkpt>
      <trkpt lat="41.63512" lon="20.12683">
        <ele>878.78002929688</ele>
        <time>2023-09-30T13:15:51.000Z</time>
      </trkpt>
      <trkpt lat="41.63514" lon="20.12675">
        <ele>879.26000976562</ele>
        <time>2023-09-30T13:15:50.000Z</time>
      </trkpt>
      <trkpt lat="41.63517" lon="20.12666">
        <ele>879.73999023438</ele>
        <time>2023-09-30T13:15:49.000Z</time>
      </trkpt>
      <trkpt lat="41.63521" lon="20.12655">
        <ele>880.21997070312</ele>
        <time>2023-09-30T13:15:48.000Z</time>
      </trkpt>
      <trkpt lat="41.63522" lon="20.12651">
        <ele>880.21997070312</ele>
        <time>2023-09-30T13:15:47.000Z</time>
      </trkpt>
      <trkpt lat="41.63525" lon="20.12632">
        <ele>881.19000244141</ele>
        <time>2023-09-30T13:15:46.000Z</time>
      </trkpt>
      <trkpt lat="41.63527" lon="20.12624">
        <ele>881.19000244141</ele>
        <time>2023-09-30T13:15:45.000Z</time>
      </trkpt>
      <trkpt lat="41.63532" lon="20.12598">
        <ele>881.66998291016</ele>
        <time>2023-09-30T13:15:43.000Z</time>
      </trkpt>
      <trkpt lat="41.63533" lon="20.12588">
        <ele>881.66998291016</ele>
        <time>2023-09-30T13:15:42.000Z</time>
      </trkpt>
      <trkpt lat="41.63533" lon="20.12579">
        <ele>882.63000488281</ele>
        <time>2023-09-30T13:15:41.000Z</time>
      </trkpt>
      <trkpt lat="41.63531" lon="20.1257">
        <ele>883.10998535156</ele>
        <time>2023-09-30T13:15:40.000Z</time>
      </trkpt>
      <trkpt lat="41.63529" lon="20.12559">
        <ele>884.07000732422</ele>
        <time>2023-09-30T13:15:39.000Z</time>
      </trkpt>
      <trkpt lat="41.63527" lon="20.12552">
        <ele>884.54998779297</ele>
        <time>2023-09-30T13:15:38.000Z</time>
      </trkpt>
      <trkpt lat="41.63524" lon="20.12542">
        <ele>885.51000976562</ele>
        <time>2023-09-30T13:15:37.000Z</time>
      </trkpt>
      <trkpt lat="41.63521" lon="20.12534">
        <ele>885.98999023438</ele>
        <time>2023-09-30T13:15:36.000Z</time>
      </trkpt>
      <trkpt lat="41.63518" lon="20.12523">
        <ele>886.46997070312</ele>
        <time>2023-09-30T13:15:35.000Z</time>
      </trkpt>
      <trkpt lat="41.63517" lon="20.12519">
        <ele>886.46997070312</ele>
        <time>2023-09-30T13:15:34.000Z</time>
      </trkpt>
      <trkpt lat="41.63511" lon="20.12506">
        <ele>886.95001220703</ele>
        <time>2023-09-30T13:15:33.000Z</time>
      </trkpt>
      <trkpt lat="41.63507" lon="20.12495">
        <ele>887.90997314453</ele>
        <time>2023-09-30T13:15:32.000Z</time>
      </trkpt>
      <trkpt lat="41.63504" lon="20.12487">
        <ele>888.40002441406</ele>
        <time>2023-09-30T13:15:31.000Z</time>
      </trkpt>
      <trkpt lat="41.63501" lon="20.12481">
        <ele>888.40002441406</ele>
        <time>2023-09-30T13:15:30.000Z</time>
      </trkpt>
      <trkpt lat="41.63498" lon="20.12476">
        <ele>888.88000488281</ele>
        <time>2023-09-30T13:15:29.000Z</time>
      </trkpt>
      <trkpt lat="41.63494" lon="20.12472">
        <ele>889.35998535156</ele>
        <time>2023-09-30T13:15:28.000Z</time>
      </trkpt>
      <trkpt lat="41.63488" lon="20.12468">
        <ele>889.84002685547</ele>
        <time>2023-09-30T13:15:27.000Z</time>
      </trkpt>
      <trkpt lat="41.63481" lon="20.12464">
        <ele>889.84002685547</ele>
        <time>2023-09-30T13:15:26.000Z</time>
      </trkpt>
      <trkpt lat="41.63475" lon="20.12461">
        <ele>890.32000732422</ele>
        <time>2023-09-30T13:15:25.000Z</time>
      </trkpt>
      <trkpt lat="41.63471" lon="20.12456">
        <ele>890.79998779297</ele>
        <time>2023-09-30T13:15:24.000Z</time>
      </trkpt>
      <trkpt lat="41.63466" lon="20.1245">
        <ele>891.28002929688</ele>
        <time>2023-09-30T13:15:23.000Z</time>
      </trkpt>
      <trkpt lat="41.63464" lon="20.12448">
        <ele>891.76000976562</ele>
        <time>2023-09-30T13:15:22.000Z</time>
      </trkpt>
      <trkpt lat="41.63454" lon="20.12451">
        <ele>893.20001220703</ele>
        <time>2023-09-30T13:15:19.000Z</time>
      </trkpt>
      <trkpt lat="41.63452" lon="20.12457">
        <ele>893.67999267578</ele>
        <time>2023-09-30T13:15:18.000Z</time>
      </trkpt>
      <trkpt lat="41.63453" lon="20.12463">
        <ele>894.15997314453</ele>
        <time>2023-09-30T13:15:17.000Z</time>
      </trkpt>
      <trkpt lat="41.63456" lon="20.12469">
        <ele>894.64001464844</ele>
        <time>2023-09-30T13:15:16.000Z</time>
      </trkpt>
      <trkpt lat="41.6346" lon="20.12474">
        <ele>895.11999511719</ele>
        <time>2023-09-30T13:15:15.000Z</time>
      </trkpt>
      <trkpt lat="41.63466" lon="20.12476">
        <ele>895.60998535156</ele>
        <time>2023-09-30T13:15:14.000Z</time>
      </trkpt>
      <trkpt lat="41.63473" lon="20.12477">
        <ele>896.09002685547</ele>
        <time>2023-09-30T13:15:13.000Z</time>
      </trkpt>
      <trkpt lat="41.63479" lon="20.12478">
        <ele>896.57000732422</ele>
        <time>2023-09-30T13:15:12.000Z</time>
      </trkpt>
      <trkpt lat="41.63484" lon="20.12481">
        <ele>897.04998779297</ele>
        <time>2023-09-30T13:15:11.000Z</time>
      </trkpt>
      <trkpt lat="41.63489" lon="20.12486">
        <ele>897.53002929688</ele>
        <time>2023-09-30T13:15:10.000Z</time>
      </trkpt>
      <trkpt lat="41.63492" lon="20.12492">
        <ele>897.53002929688</ele>
        <time>2023-09-30T13:15:09.000Z</time>
      </trkpt>
      <trkpt lat="41.63494" lon="20.12499">
        <ele>898.01000976562</ele>
        <time>2023-09-30T13:15:08.000Z</time>
      </trkpt>
      <trkpt lat="41.63496" lon="20.12509">
        <ele>898.96997070312</ele>
        <time>2023-09-30T13:15:07.000Z</time>
      </trkpt>
      <trkpt lat="41.63498" lon="20.12514">
        <ele>898.96997070312</ele>
        <time>2023-09-30T13:15:06.000Z</time>
      </trkpt>
      <trkpt lat="41.63502" lon="20.12527">
        <ele>899.92999267578</ele>
        <time>2023-09-30T13:15:05.000Z</time>
      </trkpt>
      <trkpt lat="41.63504" lon="20.12537">
        <ele>900.40997314453</ele>
        <time>2023-09-30T13:15:04.000Z</time>
      </trkpt>
      <trkpt lat="41.63507" lon="20.12549">
        <ele>901.36999511719</ele>
        <time>2023-09-30T13:15:03.000Z</time>
      </trkpt>
      <trkpt lat="41.63509" lon="20.12558">
        <ele>901.84997558594</ele>
        <time>2023-09-30T13:15:02.000Z</time>
      </trkpt>
      <trkpt lat="41.63509" lon="20.12567">
        <ele>902.33001708984</ele>
        <time>2023-09-30T13:15:01.000Z</time>
      </trkpt>
      <trkpt lat="41.63508" lon="20.12576">
        <ele>902.82000732422</ele>
        <time>2023-09-30T13:15:00.000Z</time>
      </trkpt>
      <trkpt lat="41.63505" lon="20.12586">
        <ele>903.29998779297</ele>
        <time>2023-09-30T13:14:59.000Z</time>
      </trkpt>
      <trkpt lat="41.63504" lon="20.12591">
        <ele>903.29998779297</ele>
        <time>2023-09-30T13:14:58.000Z</time>
      </trkpt>
      <trkpt lat="41.63499" lon="20.12606">
        <ele>904.26000976562</ele>
        <time>2023-09-30T13:14:57.000Z</time>
      </trkpt>
      <trkpt lat="41.63498" lon="20.12611">
        <ele>904.73999023438</ele>
        <time>2023-09-30T13:14:56.000Z</time>
      </trkpt>
      <trkpt lat="41.63493" lon="20.12628">
        <ele>905.70001220703</ele>
        <time>2023-09-30T13:14:55.000Z</time>
      </trkpt>
      <trkpt lat="41.63478" lon="20.12667">
        <ele>908.58001708984</ele>
        <time>2023-09-30T13:14:52.000Z</time>
      </trkpt>
      <trkpt lat="41.63474" lon="20.12679">
        <ele>909.53997802734</ele>
        <time>2023-09-30T13:14:51.000Z</time>
      </trkpt>
      <trkpt lat="41.6347" lon="20.12689">
        <ele>910.51000976562</ele>
        <time>2023-09-30T13:14:50.000Z</time>
      </trkpt>
      <trkpt lat="41.63467" lon="20.127">
        <ele>911.46997070312</ele>
        <time>2023-09-30T13:14:49.000Z</time>
      </trkpt>
      <trkpt lat="41.63465" lon="20.12706">
        <ele>911.95001220703</ele>
        <time>2023-09-30T13:14:48.000Z</time>
      </trkpt>
      <trkpt lat="41.63464" lon="20.12718">
        <ele>912.90997314453</ele>
        <time>2023-09-30T13:14:47.000Z</time>
      </trkpt>
      <trkpt lat="41.63462" lon="20.12728">
        <ele>913.86999511719</ele>
        <time>2023-09-30T13:14:46.000Z</time>
      </trkpt>
      <trkpt lat="41.63458" lon="20.12739">
        <ele>914.83001708984</ele>
        <time>2023-09-30T13:14:45.000Z</time>
      </trkpt>
      <trkpt lat="41.63456" lon="20.12742">
        <ele>915.30999755859</ele>
        <time>2023-09-30T13:14:44.000Z</time>
      </trkpt>
      <trkpt lat="41.63449" lon="20.12755">
        <ele>916.75</ele>
        <time>2023-09-30T13:14:43.000Z</time>
      </trkpt>
      <trkpt lat="41.63445" lon="20.12765">
        <ele>917.71997070312</ele>
        <time>2023-09-30T13:14:42.000Z</time>
      </trkpt>
      <trkpt lat="41.63441" lon="20.12776">
        <ele>918.67999267578</ele>
        <time>2023-09-30T13:14:41.000Z</time>
      </trkpt>
      <trkpt lat="41.63438" lon="20.12785">
        <ele>919.64001464844</ele>
        <time>2023-09-30T13:14:40.000Z</time>
      </trkpt>
      <trkpt lat="41.63434" lon="20.12798">
        <ele>920.59997558594</ele>
        <time>2023-09-30T13:14:39.000Z</time>
      </trkpt>
      <trkpt lat="41.63431" lon="20.12807">
        <ele>921.55999755859</ele>
        <time>2023-09-30T13:14:38.000Z</time>
      </trkpt>
      <trkpt lat="41.6343" lon="20.12816">
        <ele>922.03997802734</ele>
        <time>2023-09-30T13:14:37.000Z</time>
      </trkpt>
      <trkpt lat="41.63429" lon="20.12824">
        <ele>922.52001953125</ele>
        <time>2023-09-30T13:14:36.000Z</time>
      </trkpt>
      <trkpt lat="41.63429" lon="20.12831">
        <ele>923</ele>
        <time>2023-09-30T13:14:35.000Z</time>
      </trkpt>
      <trkpt lat="41.6343" lon="20.1284">
        <ele>923.96002197266</ele>
        <time>2023-09-30T13:14:34.000Z</time>
      </trkpt>
      <trkpt lat="41.63432" lon="20.12863">
        <ele>924.92999267578</ele>
        <time>2023-09-30T13:14:33.000Z</time>
      </trkpt>
      <trkpt lat="41.63433" lon="20.12876">
        <ele>925.89001464844</ele>
        <time>2023-09-30T13:14:32.000Z</time>
      </trkpt>
      <trkpt lat="41.63435" lon="20.12892">
        <ele>926.84997558594</ele>
        <time>2023-09-30T13:14:31.000Z</time>
      </trkpt>
      <trkpt lat="41.63437" lon="20.12904">
        <ele>927.80999755859</ele>
        <time>2023-09-30T13:14:30.000Z</time>
      </trkpt>
      <trkpt lat="41.63438" lon="20.12916">
        <ele>928.28997802734</ele>
        <time>2023-09-30T13:14:29.000Z</time>
      </trkpt>
      <trkpt lat="41.63438" lon="20.12925">
        <ele>928.77001953125</ele>
        <time>2023-09-30T13:14:28.000Z</time>
      </trkpt>
      <trkpt lat="41.63437" lon="20.12938">
        <ele>929.25</ele>
        <time>2023-09-30T13:14:27.000Z</time>
      </trkpt>
      <trkpt lat="41.63437" lon="20.12948">
        <ele>929.72998046875</ele>
        <time>2023-09-30T13:14:26.000Z</time>
      </trkpt>
      <trkpt lat="41.63439" lon="20.12957">
        <ele>930.69000244141</ele>
        <time>2023-09-30T13:14:25.000Z</time>
      </trkpt>
      <trkpt lat="41.63441" lon="20.12964">
        <ele>931.16998291016</ele>
        <time>2023-09-30T13:14:24.000Z</time>
      </trkpt>
      <trkpt lat="41.63443" lon="20.12968">
        <ele>931.65002441406</ele>
        <time>2023-09-30T13:14:23.000Z</time>
      </trkpt>
      <trkpt lat="41.63454" lon="20.12995">
        <ele>932.61999511719</ele>
        <time>2023-09-30T13:14:21.000Z</time>
      </trkpt>
      <trkpt lat="41.63455" lon="20.12998">
        <ele>933.09997558594</ele>
        <time>2023-09-30T13:14:20.000Z</time>
      </trkpt>
      <trkpt lat="41.63459" lon="20.13006">
        <ele>933.09997558594</ele>
        <time>2023-09-30T13:14:19.000Z</time>
      </trkpt>
      <trkpt lat="41.63468" lon="20.13022">
        <ele>933.09997558594</ele>
        <time>2023-09-30T13:14:18.000Z</time>
      </trkpt>
      <trkpt lat="41.63471" lon="20.13028">
        <ele>933.58001708984</ele>
        <time>2023-09-30T13:14:17.000Z</time>
      </trkpt>
      <trkpt lat="41.63475" lon="20.13034">
        <ele>934.05999755859</ele>
        <time>2023-09-30T13:14:16.000Z</time>
      </trkpt>
      <trkpt lat="41.63478" lon="20.1304">
        <ele>934.05999755859</ele>
        <time>2023-09-30T13:14:15.000Z</time>
      </trkpt>
      <trkpt lat="41.63482" lon="20.13045">
        <ele>934.53997802734</ele>
        <time>2023-09-30T13:14:14.000Z</time>
      </trkpt>
      <trkpt lat="41.63486" lon="20.13048">
        <ele>935.02001953125</ele>
        <time>2023-09-30T13:14:13.000Z</time>
      </trkpt>
      <trkpt lat="41.63487" lon="20.13049">
        <ele>935.02001953125</ele>
        <time>2023-09-30T13:14:12.000Z</time>
      </trkpt>
      <trkpt lat="41.63495" lon="20.1305">
        <ele>935.97998046875</ele>
        <time>2023-09-30T13:13:48.000Z</time>
      </trkpt>
      <trkpt lat="41.63505" lon="20.13044">
        <ele>935.97998046875</ele>
        <time>2023-09-30T13:13:41.000Z</time>
      </trkpt>
      <trkpt lat="41.63511" lon="20.1304">
        <ele>935.97998046875</ele>
        <time>2023-09-30T13:13:40.000Z</time>
      </trkpt>
      <trkpt lat="41.63525" lon="20.1303">
        <ele>935.97998046875</ele>
        <time>2023-09-30T13:13:38.000Z</time>
      </trkpt>
      <trkpt lat="41.6353" lon="20.13027">
        <ele>935.97998046875</ele>
        <time>2023-09-30T13:13:37.000Z</time>
      </trkpt>
      <trkpt lat="41.63543" lon="20.13018">
        <ele>936.46002197266</ele>
        <time>2023-09-30T13:13:35.000Z</time>
      </trkpt>
      <trkpt lat="41.63549" lon="20.13014">
        <ele>936.46002197266</ele>
        <time>2023-09-30T13:13:34.000Z</time>
      </trkpt>
      <trkpt lat="41.63556" lon="20.13013">
        <ele>936.46002197266</ele>
        <time>2023-09-30T13:13:33.000Z</time>
      </trkpt>
      <trkpt lat="41.63562" lon="20.13014">
        <ele>936.46002197266</ele>
        <time>2023-09-30T13:13:32.000Z</time>
      </trkpt>
      <trkpt lat="41.63567" lon="20.13018">
        <ele>936.94000244141</ele>
        <time>2023-09-30T13:13:31.000Z</time>
      </trkpt>
      <trkpt lat="41.63573" lon="20.13022">
        <ele>937.41998291016</ele>
        <time>2023-09-30T13:13:30.000Z</time>
      </trkpt>
      <trkpt lat="41.63578" lon="20.13029">
        <ele>937.90002441406</ele>
        <time>2023-09-30T13:13:29.000Z</time>
      </trkpt>
      <trkpt lat="41.63583" lon="20.13035">
        <ele>938.38000488281</ele>
        <time>2023-09-30T13:13:28.000Z</time>
      </trkpt>
      <trkpt lat="41.63586" lon="20.13043">
        <ele>938.85998535156</ele>
        <time>2023-09-30T13:13:27.000Z</time>
      </trkpt>
      <trkpt lat="41.63589" lon="20.13048">
        <ele>939.34997558594</ele>
        <time>2023-09-30T13:13:26.000Z</time>
      </trkpt>
      <trkpt lat="41.63593" lon="20.13057">
        <ele>940.30999755859</ele>
        <time>2023-09-30T13:13:25.000Z</time>
      </trkpt>
      <trkpt lat="41.63595" lon="20.13063">
        <ele>940.78997802734</ele>
        <time>2023-09-30T13:13:24.000Z</time>
      </trkpt>
      <trkpt lat="41.63605" lon="20.13082">
        <ele>942.22998046875</ele>
        <time>2023-09-30T13:13:22.000Z</time>
      </trkpt>
      <trkpt lat="41.63608" lon="20.13088">
        <ele>942.71002197266</ele>
        <time>2023-09-30T13:13:21.000Z</time>
      </trkpt>
      <trkpt lat="41.63611" lon="20.13092">
        <ele>943.19000244141</ele>
        <time>2023-09-30T13:13:20.000Z</time>
      </trkpt>
      <trkpt lat="41.63614" lon="20.13096">
        <ele>943.66998291016</ele>
        <time>2023-09-30T13:13:19.000Z</time>
      </trkpt>
      <trkpt lat="41.63628" lon="20.13113">
        <ele>945.59002685547</ele>
        <time>2023-09-30T13:13:17.000Z</time>
      </trkpt>
      <trkpt lat="41.63633" lon="20.13118">
        <ele>946.55999755859</ele>
        <time>2023-09-30T13:13:16.000Z</time>
      </trkpt>
      <trkpt lat="41.63639" lon="20.13122">
        <ele>947.52001953125</ele>
        <time>2023-09-30T13:13:15.000Z</time>
      </trkpt>
      <trkpt lat="41.63644" lon="20.13124">
        <ele>948</ele>
        <time>2023-09-30T13:13:14.000Z</time>
      </trkpt>
      <trkpt lat="41.6365" lon="20.13125">
        <ele>948.96002197266</ele>
        <time>2023-09-30T13:13:13.000Z</time>
      </trkpt>
      <trkpt lat="41.63654" lon="20.13125">
        <ele>949.44000244141</ele>
        <time>2023-09-30T13:13:12.000Z</time>
      </trkpt>
      <trkpt lat="41.63664" lon="20.13123">
        <ele>950.88000488281</ele>
        <time>2023-09-30T13:13:10.000Z</time>
      </trkpt>
      <trkpt lat="41.63686" lon="20.13118">
        <ele>952.32000732422</ele>
        <time>2023-09-30T13:13:08.000Z</time>
      </trkpt>
      <trkpt lat="41.63692" lon="20.13117">
        <ele>953.28002929688</ele>
        <time>2023-09-30T13:13:07.000Z</time>
      </trkpt>
      <trkpt lat="41.6371" lon="20.13111">
        <ele>954.25</ele>
        <time>2023-09-30T13:13:06.000Z</time>
      </trkpt>
      <trkpt lat="41.63717" lon="20.1311">
        <ele>955.21002197266</ele>
        <time>2023-09-30T13:13:05.000Z</time>
      </trkpt>
      <trkpt lat="41.63734" lon="20.13107">
        <ele>956.65002441406</ele>
        <time>2023-09-30T13:13:03.000Z</time>
      </trkpt>
      <trkpt lat="41.63747" lon="20.13106">
        <ele>957.60998535156</ele>
        <time>2023-09-30T13:13:02.000Z</time>
      </trkpt>
      <trkpt lat="41.63757" lon="20.13106">
        <ele>958.57000732422</ele>
        <time>2023-09-30T13:13:01.000Z</time>
      </trkpt>
      <trkpt lat="41.63767" lon="20.13106">
        <ele>960.01000976562</ele>
        <time>2023-09-30T13:13:00.000Z</time>
      </trkpt>
      <trkpt lat="41.63775" lon="20.13106">
        <ele>960.97998046875</ele>
        <time>2023-09-30T13:12:59.000Z</time>
      </trkpt>
      <trkpt lat="41.63782" lon="20.13108">
        <ele>961.94000244141</ele>
        <time>2023-09-30T13:12:58.000Z</time>
      </trkpt>
      <trkpt lat="41.63788" lon="20.13112">
        <ele>962.90002441406</ele>
        <time>2023-09-30T13:12:57.000Z</time>
      </trkpt>
      <trkpt lat="41.63791" lon="20.13115">
        <ele>963.38000488281</ele>
        <time>2023-09-30T13:12:56.000Z</time>
      </trkpt>
      <trkpt lat="41.63801" lon="20.13125">
        <ele>964.34002685547</ele>
        <time>2023-09-30T13:12:55.000Z</time>
      </trkpt>
      <trkpt lat="41.63808" lon="20.1313">
        <ele>965.29998779297</ele>
        <time>2023-09-30T13:12:54.000Z</time>
      </trkpt>
      <trkpt lat="41.63815" lon="20.13131">
        <ele>965.78002929688</ele>
        <time>2023-09-30T13:12:53.000Z</time>
      </trkpt>
      <trkpt lat="41.63824" lon="20.1313">
        <ele>966.73999023438</ele>
        <time>2023-09-30T13:12:52.000Z</time>
      </trkpt>
      <trkpt lat="41.63833" lon="20.13127">
        <ele>967.70001220703</ele>
        <time>2023-09-30T13:12:51.000Z</time>
      </trkpt>
      <trkpt lat="41.63838" lon="20.13124">
        <ele>968.66998291016</ele>
        <time>2023-09-30T13:12:50.000Z</time>
      </trkpt>
      <trkpt lat="41.63854" lon="20.13116">
        <ele>970.10998535156</ele>
        <time>2023-09-30T13:12:49.000Z</time>
      </trkpt>
      <trkpt lat="41.63865" lon="20.13111">
        <ele>971.07000732422</ele>
        <time>2023-09-30T13:12:48.000Z</time>
      </trkpt>
      <trkpt lat="41.63875" lon="20.13107">
        <ele>972.03002929688</ele>
        <time>2023-09-30T13:12:47.000Z</time>
      </trkpt>
      <trkpt lat="41.63884" lon="20.13107">
        <ele>973.46997070312</ele>
        <time>2023-09-30T13:12:46.000Z</time>
      </trkpt>
      <trkpt lat="41.63894" lon="20.13109">
        <ele>974.90997314453</ele>
        <time>2023-09-30T13:12:45.000Z</time>
      </trkpt>
      <trkpt lat="41.63903" lon="20.13114">
        <ele>975.88000488281</ele>
        <time>2023-09-30T13:12:44.000Z</time>
      </trkpt>
      <trkpt lat="41.63911" lon="20.13119">
        <ele>976.84002685547</ele>
        <time>2023-09-30T13:12:43.000Z</time>
      </trkpt>
      <trkpt lat="41.63913" lon="20.13122">
        <ele>976.84002685547</ele>
        <time>2023-09-30T13:12:42.000Z</time>
      </trkpt>
      <trkpt lat="41.63929" lon="20.13137">
        <ele>978.76000976562</ele>
        <time>2023-09-30T13:12:41.000Z</time>
      </trkpt>
      <trkpt lat="41.63935" lon="20.13145">
        <ele>979.71997070312</ele>
        <time>2023-09-30T13:12:40.000Z</time>
      </trkpt>
      <trkpt lat="41.63941" lon="20.13155">
        <ele>979.71997070312</ele>
        <time>2023-09-30T13:12:39.000Z</time>
      </trkpt>
      <trkpt lat="41.63945" lon="20.13168">
        <ele>980.20001220703</ele>
        <time>2023-09-30T13:12:38.000Z</time>
      </trkpt>
      <trkpt lat="41.63946" lon="20.13176">
        <ele>980.20001220703</ele>
        <time>2023-09-30T13:12:37.000Z</time>
      </trkpt>
      <trkpt lat="41.6395" lon="20.132">
        <ele>980.67999267578</ele>
        <time>2023-09-30T13:12:36.000Z</time>
      </trkpt>
      <trkpt lat="41.63952" lon="20.13215">
        <ele>980.20001220703</ele>
        <time>2023-09-30T13:12:35.000Z</time>
      </trkpt>
      <trkpt lat="41.63953" lon="20.13233">
        <ele>980.67999267578</ele>
        <time>2023-09-30T13:12:34.000Z</time>
      </trkpt>
      <trkpt lat="41.63955" lon="20.13251">
        <ele>980.67999267578</ele>
        <time>2023-09-30T13:12:33.000Z</time>
      </trkpt>
      <trkpt lat="41.63958" lon="20.13266">
        <ele>980.67999267578</ele>
        <time>2023-09-30T13:12:32.000Z</time>
      </trkpt>
      <trkpt lat="41.63962" lon="20.13278">
        <ele>980.67999267578</ele>
        <time>2023-09-30T13:12:31.000Z</time>
      </trkpt>
      <trkpt lat="41.63968" lon="20.13292">
        <ele>981.15997314453</ele>
        <time>2023-09-30T13:12:30.000Z</time>
      </trkpt>
      <trkpt lat="41.63973" lon="20.13305">
        <ele>981.64001464844</ele>
        <time>2023-09-30T13:12:29.000Z</time>
      </trkpt>
      <trkpt lat="41.63977" lon="20.13319">
        <ele>982.11999511719</ele>
        <time>2023-09-30T13:12:28.000Z</time>
      </trkpt>
      <trkpt lat="41.63979" lon="20.13332">
        <ele>982.59997558594</ele>
        <time>2023-09-30T13:12:27.000Z</time>
      </trkpt>
      <trkpt lat="41.63979" lon="20.13347">
        <ele>983.09002685547</ele>
        <time>2023-09-30T13:12:26.000Z</time>
      </trkpt>
      <trkpt lat="41.63979" lon="20.13361">
        <ele>983.57000732422</ele>
        <time>2023-09-30T13:12:25.000Z</time>
      </trkpt>
      <trkpt lat="41.63977" lon="20.13376">
        <ele>984.04998779297</ele>
        <time>2023-09-30T13:12:24.000Z</time>
      </trkpt>
      <trkpt lat="41.63975" lon="20.13388">
        <ele>984.04998779297</ele>
        <time>2023-09-30T13:12:23.000Z</time>
      </trkpt>
      <trkpt lat="41.63972" lon="20.134">
        <ele>984.53002929688</ele>
        <time>2023-09-30T13:12:22.000Z</time>
      </trkpt>
      <trkpt lat="41.63969" lon="20.13406">
        <ele>984.53002929688</ele>
        <time>2023-09-30T13:12:21.000Z</time>
      </trkpt>
      <trkpt lat="41.63962" lon="20.1342">
        <ele>985.01000976562</ele>
        <time>2023-09-30T13:12:20.000Z</time>
      </trkpt>
      <trkpt lat="41.63957" lon="20.13432">
        <ele>985.48999023438</ele>
        <time>2023-09-30T13:12:19.000Z</time>
      </trkpt>
      <trkpt lat="41.63953" lon="20.13442">
        <ele>985.48999023438</ele>
        <time>2023-09-30T13:12:18.000Z</time>
      </trkpt>
      <trkpt lat="41.63951" lon="20.13451">
        <ele>985.96997070312</ele>
        <time>2023-09-30T13:12:17.000Z</time>
      </trkpt>
      <trkpt lat="41.63946" lon="20.1348">
        <ele>986.45001220703</ele>
        <time>2023-09-30T13:12:15.000Z</time>
      </trkpt>
      <trkpt lat="41.63945" lon="20.13491">
        <ele>986.92999267578</ele>
        <time>2023-09-30T13:12:14.000Z</time>
      </trkpt>
      <trkpt lat="41.63945" lon="20.13505">
        <ele>987.40997314453</ele>
        <time>2023-09-30T13:12:13.000Z</time>
      </trkpt>
      <trkpt lat="41.63944" lon="20.13518">
        <ele>987.89001464844</ele>
        <time>2023-09-30T13:12:12.000Z</time>
      </trkpt>
      <trkpt lat="41.63943" lon="20.13531">
        <ele>987.89001464844</ele>
        <time>2023-09-30T13:12:11.000Z</time>
      </trkpt>
      <trkpt lat="41.63941" lon="20.1354">
        <ele>987.89001464844</ele>
        <time>2023-09-30T13:12:10.000Z</time>
      </trkpt>
      <trkpt lat="41.63937" lon="20.13556">
        <ele>988.36999511719</ele>
        <time>2023-09-30T13:12:09.000Z</time>
      </trkpt>
      <trkpt lat="41.63934" lon="20.13571">
        <ele>988.84997558594</ele>
        <time>2023-09-30T13:12:08.000Z</time>
      </trkpt>
      <trkpt lat="41.63932" lon="20.13582">
        <ele>988.84997558594</ele>
        <time>2023-09-30T13:12:07.000Z</time>
      </trkpt>
      <trkpt lat="41.63932" lon="20.13594">
        <ele>989.33001708984</ele>
        <time>2023-09-30T13:12:06.000Z</time>
      </trkpt>
      <trkpt lat="41.63932" lon="20.13613">
        <ele>989.80999755859</ele>
        <time>2023-09-30T13:12:05.000Z</time>
      </trkpt>
      <trkpt lat="41.63932" lon="20.13631">
        <ele>990.29998779297</ele>
        <time>2023-09-30T13:12:04.000Z</time>
      </trkpt>
      <trkpt lat="41.63932" lon="20.13637">
        <ele>990.29998779297</ele>
        <time>2023-09-30T13:12:03.000Z</time>
      </trkpt>
      <trkpt lat="41.63931" lon="20.13658">
        <ele>991.73999023438</ele>
        <time>2023-09-30T13:12:02.000Z</time>
      </trkpt>
      <trkpt lat="41.63931" lon="20.13662">
        <ele>991.73999023438</ele>
        <time>2023-09-30T13:12:01.000Z</time>
      </trkpt>
      <trkpt lat="41.63928" lon="20.13685">
        <ele>993.65997314453</ele>
        <time>2023-09-30T13:12:00.000Z</time>
      </trkpt>
      <trkpt lat="41.63929" lon="20.13693">
        <ele>994.61999511719</ele>
        <time>2023-09-30T13:11:59.000Z</time>
      </trkpt>
      <trkpt lat="41.63931" lon="20.13706">
        <ele>995.09997558594</ele>
        <time>2023-09-30T13:11:58.000Z</time>
      </trkpt>
      <trkpt lat="41.63933" lon="20.13714">
        <ele>996.05999755859</ele>
        <time>2023-09-30T13:11:57.000Z</time>
      </trkpt>
      <trkpt lat="41.63939" lon="20.13729">
        <ele>997.51000976562</ele>
        <time>2023-09-30T13:11:56.000Z</time>
      </trkpt>
      <trkpt lat="41.63943" lon="20.13743">
        <ele>998.95001220703</ele>
        <time>2023-09-30T13:11:55.000Z</time>
      </trkpt>
      <trkpt lat="41.63946" lon="20.13754">
        <ele>999.42999267578</ele>
        <time>2023-09-30T13:11:54.000Z</time>
      </trkpt>
      <trkpt lat="41.63948" lon="20.13769">
        <ele>1000.8699951172</ele>
        <time>2023-09-30T13:11:53.000Z</time>
      </trkpt>
      <trkpt lat="41.63948" lon="20.13782">
        <ele>1001.3499755859</ele>
        <time>2023-09-30T13:11:52.000Z</time>
      </trkpt>
      <trkpt lat="41.63947" lon="20.13796">
        <ele>1001.8300170898</ele>
        <time>2023-09-30T13:11:51.000Z</time>
      </trkpt>
      <trkpt lat="41.63945" lon="20.13809">
        <ele>1002.3099975586</ele>
        <time>2023-09-30T13:11:50.000Z</time>
      </trkpt>
      <trkpt lat="41.63936" lon="20.13842">
        <ele>1003.2700195312</ele>
        <time>2023-09-30T13:11:48.000Z</time>
      </trkpt>
      <trkpt lat="41.63932" lon="20.13855">
        <ele>1005.200012207</ele>
        <time>2023-09-30T13:11:47.000Z</time>
      </trkpt>
      <trkpt lat="41.63927" lon="20.13864">
        <ele>1005.200012207</ele>
        <time>2023-09-30T13:11:46.000Z</time>
      </trkpt>
      <trkpt lat="41.63921" lon="20.13875">
        <ele>1005.6799926758</ele>
        <time>2023-09-30T13:11:45.000Z</time>
      </trkpt>
      <trkpt lat="41.63916" lon="20.13881">
        <ele>1005.6799926758</ele>
        <time>2023-09-30T13:11:44.000Z</time>
      </trkpt>
      <trkpt lat="41.63899" lon="20.13909">
        <ele>1006.1599731445</ele>
        <time>2023-09-30T13:11:42.000Z</time>
      </trkpt>
      <trkpt lat="41.63892" lon="20.1392">
        <ele>1006.6400146484</ele>
        <time>2023-09-30T13:11:41.000Z</time>
      </trkpt>
      <trkpt lat="41.63874" lon="20.13949">
        <ele>1007.1199951172</ele>
        <time>2023-09-30T13:11:39.000Z</time>
      </trkpt>
      <trkpt lat="41.63867" lon="20.1396">
        <ele>1007.5999755859</ele>
        <time>2023-09-30T13:11:38.000Z</time>
      </trkpt>
      <trkpt lat="41.63852" lon="20.13981">
        <ele>1008.5599975586</ele>
        <time>2023-09-30T13:11:36.000Z</time>
      </trkpt>
      <trkpt lat="41.63843" lon="20.13995">
        <ele>1009.5200195312</ele>
        <time>2023-09-30T13:11:35.000Z</time>
      </trkpt>
      <trkpt lat="41.63838" lon="20.14002">
        <ele>1009.5200195312</ele>
        <time>2023-09-30T13:11:34.000Z</time>
      </trkpt>
      <trkpt lat="41.63832" lon="20.14013">
        <ele>1010.4799804688</ele>
        <time>2023-09-30T13:11:33.000Z</time>
      </trkpt>
      <trkpt lat="41.63827" lon="20.14023">
        <ele>1010.9600219727</ele>
        <time>2023-09-30T13:11:32.000Z</time>
      </trkpt>
      <trkpt lat="41.63824" lon="20.14029">
        <ele>1011.4400024414</ele>
        <time>2023-09-30T13:11:31.000Z</time>
      </trkpt>
      <trkpt lat="41.63818" lon="20.14042">
        <ele>1012.4099731445</ele>
        <time>2023-09-30T13:11:29.000Z</time>
      </trkpt>
      <trkpt lat="41.63814" lon="20.14053">
        <ele>1013.3699951172</ele>
        <time>2023-09-30T13:11:28.000Z</time>
      </trkpt>
      <trkpt lat="41.63813" lon="20.14054">
        <ele>1013.3699951172</ele>
        <time>2023-09-30T13:11:27.000Z</time>
      </trkpt>
      <trkpt lat="41.63809" lon="20.14069">
        <ele>1014.3300170898</ele>
        <time>2023-09-30T13:11:24.000Z</time>
      </trkpt>
      <trkpt lat="41.63818" lon="20.14086">
        <ele>1015.7700195312</ele>
        <time>2023-09-30T13:09:43.000Z</time>
      </trkpt>
      <trkpt lat="41.63831" lon="20.14097">
        <ele>1016.7299804688</ele>
        <time>2023-09-30T13:09:35.000Z</time>
      </trkpt>
      <trkpt lat="41.63831" lon="20.14098">
        <ele>1016.7299804688</ele>
        <time>2023-09-30T13:09:34.000Z</time>
      </trkpt>
      <trkpt lat="41.63846" lon="20.14112">
        <ele>1018.1699829102</ele>
        <time>2023-09-30T13:09:30.000Z</time>
      </trkpt>
      <trkpt lat="41.63849" lon="20.14115">
        <ele>1018.1699829102</ele>
        <time>2023-09-30T13:09:29.000Z</time>
      </trkpt>
      <trkpt lat="41.63853" lon="20.1412">
        <ele>1018.6500244141</ele>
        <time>2023-09-30T13:09:28.000Z</time>
      </trkpt>
      <trkpt lat="41.63857" lon="20.14124">
        <ele>1018.6500244141</ele>
        <time>2023-09-30T13:09:27.000Z</time>
      </trkpt>
      <trkpt lat="41.63862" lon="20.14127">
        <ele>1018.6500244141</ele>
        <time>2023-09-30T13:09:26.000Z</time>
      </trkpt>
      <trkpt lat="41.63866" lon="20.1413">
        <ele>1018.6500244141</ele>
        <time>2023-09-30T13:09:25.000Z</time>
      </trkpt>
      <trkpt lat="41.6388" lon="20.14136">
        <ele>1018.6500244141</ele>
        <time>2023-09-30T13:09:23.000Z</time>
      </trkpt>
      <trkpt lat="41.63888" lon="20.1414">
        <ele>1018.1699829102</ele>
        <time>2023-09-30T13:09:22.000Z</time>
      </trkpt>
      <trkpt lat="41.63902" lon="20.14148">
        <ele>1017.6900024414</ele>
        <time>2023-09-30T13:09:20.000Z</time>
      </trkpt>
      <trkpt lat="41.6391" lon="20.14151">
        <ele>1017.2100219727</ele>
        <time>2023-09-30T13:09:19.000Z</time>
      </trkpt>
      <trkpt lat="41.63917" lon="20.14154">
        <ele>1016.7299804688</ele>
        <time>2023-09-30T13:09:18.000Z</time>
      </trkpt>
      <trkpt lat="41.63925" lon="20.14157">
        <ele>1016.7299804688</ele>
        <time>2023-09-30T13:09:17.000Z</time>
      </trkpt>
      <trkpt lat="41.63931" lon="20.14162">
        <ele>1016.25</ele>
        <time>2023-09-30T13:09:16.000Z</time>
      </trkpt>
      <trkpt lat="41.63938" lon="20.14169">
        <ele>1016.25</ele>
        <time>2023-09-30T13:09:15.000Z</time>
      </trkpt>
      <trkpt lat="41.63943" lon="20.14175">
        <ele>1016.25</ele>
        <time>2023-09-30T13:09:14.000Z</time>
      </trkpt>
      <trkpt lat="41.63947" lon="20.14181">
        <ele>1016.25</ele>
        <time>2023-09-30T13:09:13.000Z</time>
      </trkpt>
      <trkpt lat="41.63952" lon="20.14188">
        <ele>1016.7299804688</ele>
        <time>2023-09-30T13:09:12.000Z</time>
      </trkpt>
      <trkpt lat="41.63956" lon="20.14196">
        <ele>1016.7299804688</ele>
        <time>2023-09-30T13:09:11.000Z</time>
      </trkpt>
      <trkpt lat="41.63961" lon="20.14205">
        <ele>1016.25</ele>
        <time>2023-09-30T13:09:10.000Z</time>
      </trkpt>
      <trkpt lat="41.63964" lon="20.14211">
        <ele>1016.25</ele>
        <time>2023-09-30T13:09:09.000Z</time>
      </trkpt>
      <trkpt lat="41.63967" lon="20.14218">
        <ele>1016.7299804688</ele>
        <time>2023-09-30T13:09:08.000Z</time>
      </trkpt>
      <trkpt lat="41.63968" lon="20.14226">
        <ele>1016.7299804688</ele>
        <time>2023-09-30T13:09:07.000Z</time>
      </trkpt>
      <trkpt lat="41.63967" lon="20.14234">
        <ele>1016.7299804688</ele>
        <time>2023-09-30T13:09:06.000Z</time>
      </trkpt>
      <trkpt lat="41.63965" lon="20.14243">
        <ele>1017.2100219727</ele>
        <time>2023-09-30T13:09:05.000Z</time>
      </trkpt>
      <trkpt lat="41.63961" lon="20.1425">
        <ele>1017.6900024414</ele>
        <time>2023-09-30T13:09:04.000Z</time>
      </trkpt>
      <trkpt lat="41.63954" lon="20.14261">
        <ele>1018.1699829102</ele>
        <time>2023-09-30T13:09:02.000Z</time>
      </trkpt>
      <trkpt lat="41.63946" lon="20.14274">
        <ele>1019.1300048828</ele>
        <time>2023-09-30T13:09:01.000Z</time>
      </trkpt>
      <trkpt lat="41.6394" lon="20.14285">
        <ele>1019.6199951172</ele>
        <time>2023-09-30T13:09:00.000Z</time>
      </trkpt>
      <trkpt lat="41.63934" lon="20.14297">
        <ele>1020.5800170898</ele>
        <time>2023-09-30T13:08:59.000Z</time>
      </trkpt>
      <trkpt lat="41.6393" lon="20.14308">
        <ele>1021.0599975586</ele>
        <time>2023-09-30T13:08:58.000Z</time>
      </trkpt>
      <trkpt lat="41.63927" lon="20.14316">
        <ele>1021.5399780273</ele>
        <time>2023-09-30T13:08:57.000Z</time>
      </trkpt>
      <trkpt lat="41.63924" lon="20.14326">
        <ele>1022.0200195312</ele>
        <time>2023-09-30T13:08:56.000Z</time>
      </trkpt>
      <trkpt lat="41.63922" lon="20.14336">
        <ele>1022.9799804688</ele>
        <time>2023-09-30T13:08:55.000Z</time>
      </trkpt>
      <trkpt lat="41.63918" lon="20.14347">
        <ele>1023.4600219727</ele>
        <time>2023-09-30T13:08:54.000Z</time>
      </trkpt>
      <trkpt lat="41.63917" lon="20.14357">
        <ele>1023.9400024414</ele>
        <time>2023-09-30T13:08:53.000Z</time>
      </trkpt>
      <trkpt lat="41.63916" lon="20.14362">
        <ele>1023.9400024414</ele>
        <time>2023-09-30T13:08:52.000Z</time>
      </trkpt>
      <trkpt lat="41.63916" lon="20.1437">
        <ele>1024.4200439453</ele>
        <time>2023-09-30T13:08:51.000Z</time>
      </trkpt>
      <trkpt lat="41.63917" lon="20.14379">
        <ele>1024.9000244141</ele>
        <time>2023-09-30T13:08:50.000Z</time>
      </trkpt>
      <trkpt lat="41.63917" lon="20.14387">
        <ele>1025.3800048828</ele>
        <time>2023-09-30T13:08:49.000Z</time>
      </trkpt>
      <trkpt lat="41.63918" lon="20.14394">
        <ele>1025.3800048828</ele>
        <time>2023-09-30T13:08:48.000Z</time>
      </trkpt>
      <trkpt lat="41.6392" lon="20.14401">
        <ele>1025.3800048828</ele>
        <time>2023-09-30T13:08:47.000Z</time>
      </trkpt>
      <trkpt lat="41.63923" lon="20.14408">
        <ele>1025.3800048828</ele>
        <time>2023-09-30T13:08:46.000Z</time>
      </trkpt>
      <trkpt lat="41.63926" lon="20.14414">
        <ele>1025.3800048828</ele>
        <time>2023-09-30T13:08:45.000Z</time>
      </trkpt>
      <trkpt lat="41.6393" lon="20.1442">
        <ele>1025.8599853516</ele>
        <time>2023-09-30T13:08:44.000Z</time>
      </trkpt>
      <trkpt lat="41.63932" lon="20.14423">
        <ele>1025.8599853516</ele>
        <time>2023-09-30T13:08:43.000Z</time>
      </trkpt>
      <trkpt lat="41.63941" lon="20.14435">
        <ele>1025.8599853516</ele>
        <time>2023-09-30T13:08:42.000Z</time>
      </trkpt>
      <trkpt lat="41.63954" lon="20.14452">
        <ele>1025.8599853516</ele>
        <time>2023-09-30T13:08:40.000Z</time>
      </trkpt>
      <trkpt lat="41.63964" lon="20.14466">
        <ele>1025.8599853516</ele>
        <time>2023-09-30T13:08:39.000Z</time>
      </trkpt>
      <trkpt lat="41.6397" lon="20.14474">
        <ele>1025.8599853516</ele>
        <time>2023-09-30T13:08:38.000Z</time>
      </trkpt>
      <trkpt lat="41.63975" lon="20.14482">
        <ele>1025.3800048828</ele>
        <time>2023-09-30T13:08:37.000Z</time>
      </trkpt>
      <trkpt lat="41.63983" lon="20.14494">
        <ele>1024.9000244141</ele>
        <time>2023-09-30T13:08:36.000Z</time>
      </trkpt>
      <trkpt lat="41.63989" lon="20.14503">
        <ele>1024.4200439453</ele>
        <time>2023-09-30T13:08:35.000Z</time>
      </trkpt>
      <trkpt lat="41.63994" lon="20.14515">
        <ele>1023.9400024414</ele>
        <time>2023-09-30T13:08:34.000Z</time>
      </trkpt>
      <trkpt lat="41.63996" lon="20.14527">
        <ele>1023.9400024414</ele>
        <time>2023-09-30T13:08:33.000Z</time>
      </trkpt>
      <trkpt lat="41.63996" lon="20.14537">
        <ele>1023.4600219727</ele>
        <time>2023-09-30T13:08:32.000Z</time>
      </trkpt>
      <trkpt lat="41.63996" lon="20.14545">
        <ele>1023.4600219727</ele>
        <time>2023-09-30T13:08:31.000Z</time>
      </trkpt>
      <trkpt lat="41.63995" lon="20.14571">
        <ele>1023.9400024414</ele>
        <time>2023-09-30T13:08:30.000Z</time>
      </trkpt>
      <trkpt lat="41.63993" lon="20.1458">
        <ele>1024.4200439453</ele>
        <time>2023-09-30T13:08:29.000Z</time>
      </trkpt>
      <trkpt lat="41.63991" lon="20.14596">
        <ele>1024.9000244141</ele>
        <time>2023-09-30T13:08:28.000Z</time>
      </trkpt>
      <trkpt lat="41.63988" lon="20.14617">
        <ele>1025.8599853516</ele>
        <time>2023-09-30T13:08:27.000Z</time>
      </trkpt>
      <trkpt lat="41.63988" lon="20.14632">
        <ele>1025.8599853516</ele>
        <time>2023-09-30T13:08:26.000Z</time>
      </trkpt>
      <trkpt lat="41.63988" lon="20.14641">
        <ele>1025.8599853516</ele>
        <time>2023-09-30T13:08:25.000Z</time>
      </trkpt>
      <trkpt lat="41.6399" lon="20.14658">
        <ele>1026.8299560547</ele>
        <time>2023-09-30T13:08:24.000Z</time>
      </trkpt>
      <trkpt lat="41.63989" lon="20.14671">
        <ele>1026.8299560547</ele>
        <time>2023-09-30T13:08:23.000Z</time>
      </trkpt>
      <trkpt lat="41.63987" lon="20.14685">
        <ele>1027.7900390625</ele>
        <time>2023-09-30T13:08:22.000Z</time>
      </trkpt>
      <trkpt lat="41.63986" lon="20.14688">
        <ele>1027.7900390625</ele>
        <time>2023-09-30T13:08:21.000Z</time>
      </trkpt>
      <trkpt lat="41.6398" lon="20.14713">
        <ele>1028.75</ele>
        <time>2023-09-30T13:08:20.000Z</time>
      </trkpt>
      <trkpt lat="41.63976" lon="20.14732">
        <ele>1029.7099609375</ele>
        <time>2023-09-30T13:08:19.000Z</time>
      </trkpt>
      <trkpt lat="41.63975" lon="20.14738">
        <ele>1029.7099609375</ele>
        <time>2023-09-30T13:08:18.000Z</time>
      </trkpt>
      <trkpt lat="41.63972" lon="20.1476">
        <ele>1031.1500244141</ele>
        <time>2023-09-30T13:08:17.000Z</time>
      </trkpt>
      <trkpt lat="41.63971" lon="20.14768">
        <ele>1031.6300048828</ele>
        <time>2023-09-30T13:08:16.000Z</time>
      </trkpt>
      <trkpt lat="41.63965" lon="20.1479">
        <ele>1033.0699462891</ele>
        <time>2023-09-30T13:08:15.000Z</time>
      </trkpt>
      <trkpt lat="41.63963" lon="20.14798">
        <ele>1033.5500488281</ele>
        <time>2023-09-30T13:08:14.000Z</time>
      </trkpt>
      <trkpt lat="41.63957" lon="20.14815">
        <ele>1034.5200195312</ele>
        <time>2023-09-30T13:08:13.000Z</time>
      </trkpt>
      <trkpt lat="41.63954" lon="20.1483">
        <ele>1035.4799804688</ele>
        <time>2023-09-30T13:08:12.000Z</time>
      </trkpt>
      <trkpt lat="41.63953" lon="20.14837">
        <ele>1035.4799804688</ele>
        <time>2023-09-30T13:08:11.000Z</time>
      </trkpt>
      <trkpt lat="41.63951" lon="20.14854">
        <ele>1036.9200439453</ele>
        <time>2023-09-30T13:08:10.000Z</time>
      </trkpt>
      <trkpt lat="41.63951" lon="20.14861">
        <ele>1036.9200439453</ele>
        <time>2023-09-30T13:08:09.000Z</time>
      </trkpt>
      <trkpt lat="41.63948" lon="20.14876">
        <ele>1038.3599853516</ele>
        <time>2023-09-30T13:08:08.000Z</time>
      </trkpt>
      <trkpt lat="41.63947" lon="20.14891">
        <ele>1039.3199462891</ele>
        <time>2023-09-30T13:08:07.000Z</time>
      </trkpt>
      <trkpt lat="41.63945" lon="20.14907">
        <ele>1039.8000488281</ele>
        <time>2023-09-30T13:08:06.000Z</time>
      </trkpt>
      <trkpt lat="41.63945" lon="20.14912">
        <ele>1040.2800292969</ele>
        <time>2023-09-30T13:08:05.000Z</time>
      </trkpt>
      <trkpt lat="41.63943" lon="20.14951">
        <ele>1042.2099609375</ele>
        <time>2023-09-30T13:08:03.000Z</time>
      </trkpt>
      <trkpt lat="41.63942" lon="20.14971">
        <ele>1043.1700439453</ele>
        <time>2023-09-30T13:08:02.000Z</time>
      </trkpt>
      <trkpt lat="41.63941" lon="20.14979">
        <ele>1043.6500244141</ele>
        <time>2023-09-30T13:08:01.000Z</time>
      </trkpt>
      <trkpt lat="41.6394" lon="20.14997">
        <ele>1044.1300048828</ele>
        <time>2023-09-30T13:08:00.000Z</time>
      </trkpt>
      <trkpt lat="41.63939" lon="20.15028">
        <ele>1046.0500488281</ele>
        <time>2023-09-30T13:07:58.000Z</time>
      </trkpt>
      <trkpt lat="41.63938" lon="20.15046">
        <ele>1047.4899902344</ele>
        <time>2023-09-30T13:07:57.000Z</time>
      </trkpt>
      <trkpt lat="41.63939" lon="20.15063">
        <ele>1048.4499511719</ele>
        <time>2023-09-30T13:07:56.000Z</time>
      </trkpt>
      <trkpt lat="41.63939" lon="20.15071">
        <ele>1049.4200439453</ele>
        <time>2023-09-30T13:07:55.000Z</time>
      </trkpt>
      <trkpt lat="41.63941" lon="20.15087">
        <ele>1050.3800048828</ele>
        <time>2023-09-30T13:07:54.000Z</time>
      </trkpt>
      <trkpt lat="41.63945" lon="20.15107">
        <ele>1051.8199462891</ele>
        <time>2023-09-30T13:07:53.000Z</time>
      </trkpt>
      <trkpt lat="41.63949" lon="20.15122">
        <ele>1052.7800292969</ele>
        <time>2023-09-30T13:07:52.000Z</time>
      </trkpt>
      <trkpt lat="41.63953" lon="20.15137">
        <ele>1054.2199707031</ele>
        <time>2023-09-30T13:07:51.000Z</time>
      </trkpt>
      <trkpt lat="41.63957" lon="20.15147">
        <ele>1054.6999511719</ele>
        <time>2023-09-30T13:07:50.000Z</time>
      </trkpt>
      <trkpt lat="41.63961" lon="20.15158">
        <ele>1055.6700439453</ele>
        <time>2023-09-30T13:07:49.000Z</time>
      </trkpt>
      <trkpt lat="41.63966" lon="20.15172">
        <ele>1057.1099853516</ele>
        <time>2023-09-30T13:07:48.000Z</time>
      </trkpt>
      <trkpt lat="41.63969" lon="20.1518">
        <ele>1057.5899658203</ele>
        <time>2023-09-30T13:07:47.000Z</time>
      </trkpt>
      <trkpt lat="41.63971" lon="20.15185">
        <ele>1058.0699462891</ele>
        <time>2023-09-30T13:07:46.000Z</time>
      </trkpt>
      <trkpt lat="41.63976" lon="20.15201">
        <ele>1059.5100097656</ele>
        <time>2023-09-30T13:07:45.000Z</time>
      </trkpt>
      <trkpt lat="41.63981" lon="20.15209">
        <ele>1060.4699707031</ele>
        <time>2023-09-30T13:07:44.000Z</time>
      </trkpt>
      <trkpt lat="41.63986" lon="20.15217">
        <ele>1061.4300537109</ele>
        <time>2023-09-30T13:07:43.000Z</time>
      </trkpt>
      <trkpt lat="41.64006" lon="20.15253">
        <ele>1064.3199462891</ele>
        <time>2023-09-30T13:07:40.000Z</time>
      </trkpt>
      <trkpt lat="41.64011" lon="20.15261">
        <ele>1064.8000488281</ele>
        <time>2023-09-30T13:07:39.000Z</time>
      </trkpt>
      <trkpt lat="41.64019" lon="20.15276">
        <ele>1066.2399902344</ele>
        <time>2023-09-30T13:07:38.000Z</time>
      </trkpt>
      <trkpt lat="41.64028" lon="20.15291">
        <ele>1067.6800537109</ele>
        <time>2023-09-30T13:07:36.000Z</time>
      </trkpt>
      <trkpt lat="41.64032" lon="20.15298">
        <ele>1068.1600341797</ele>
        <time>2023-09-30T13:07:35.000Z</time>
      </trkpt>
      <trkpt lat="41.64041" lon="20.15314">
        <ele>1069.5999755859</ele>
        <time>2023-09-30T13:07:34.000Z</time>
      </trkpt>
      <trkpt lat="41.64047" lon="20.15326">
        <ele>1070.5699462891</ele>
        <time>2023-09-30T13:07:33.000Z</time>
      </trkpt>
      <trkpt lat="41.64051" lon="20.15334">
        <ele>1071.5300292969</ele>
        <time>2023-09-30T13:07:32.000Z</time>
      </trkpt>
      <trkpt lat="41.64058" lon="20.15346">
        <ele>1072.4899902344</ele>
        <time>2023-09-30T13:07:31.000Z</time>
      </trkpt>
      <trkpt lat="41.64062" lon="20.15352">
        <ele>1073.4499511719</ele>
        <time>2023-09-30T13:07:30.000Z</time>
      </trkpt>
      <trkpt lat="41.64067" lon="20.1536">
        <ele>1074.4100341797</ele>
        <time>2023-09-30T13:07:29.000Z</time>
      </trkpt>
      <trkpt lat="41.64071" lon="20.15365">
        <ele>1074.8900146484</ele>
        <time>2023-09-30T13:07:28.000Z</time>
      </trkpt>
      <trkpt lat="41.64076" lon="20.15371">
        <ele>1075.8499755859</ele>
        <time>2023-09-30T13:07:27.000Z</time>
      </trkpt>
      <trkpt lat="41.6408" lon="20.15377">
        <ele>1076.8100585938</ele>
        <time>2023-09-30T13:07:26.000Z</time>
      </trkpt>
      <trkpt lat="41.64081" lon="20.15385">
        <ele>1077.2900390625</ele>
        <time>2023-09-30T13:07:25.000Z</time>
      </trkpt>
      <trkpt lat="41.64082" lon="20.15393">
        <ele>1078.2600097656</ele>
        <time>2023-09-30T13:07:24.000Z</time>
      </trkpt>
      <trkpt lat="41.64081" lon="20.154">
        <ele>1078.7399902344</ele>
        <time>2023-09-30T13:07:23.000Z</time>
      </trkpt>
      <trkpt lat="41.6408" lon="20.15409">
        <ele>1079.6999511719</ele>
        <time>2023-09-30T13:07:22.000Z</time>
      </trkpt>
      <trkpt lat="41.64081" lon="20.15416">
        <ele>1080.1800537109</ele>
        <time>2023-09-30T13:07:21.000Z</time>
      </trkpt>
      <trkpt lat="41.64083" lon="20.15424">
        <ele>1080.6600341797</ele>
        <time>2023-09-30T13:07:20.000Z</time>
      </trkpt>
      <trkpt lat="41.64085" lon="20.15428">
        <ele>1081.1400146484</ele>
        <time>2023-09-30T13:07:19.000Z</time>
      </trkpt>
      <trkpt lat="41.6409" lon="20.15437">
        <ele>1081.6199951172</ele>
        <time>2023-09-30T13:07:18.000Z</time>
      </trkpt>
      <trkpt lat="41.64095" lon="20.15445">
        <ele>1082.5799560547</ele>
        <time>2023-09-30T13:07:17.000Z</time>
      </trkpt>
      <trkpt lat="41.64101" lon="20.15453">
        <ele>1083.0600585938</ele>
        <time>2023-09-30T13:07:16.000Z</time>
      </trkpt>
      <trkpt lat="41.64106" lon="20.15459">
        <ele>1083.5400390625</ele>
        <time>2023-09-30T13:07:15.000Z</time>
      </trkpt>
      <trkpt lat="41.64114" lon="20.15466">
        <ele>1084.5</ele>
        <time>2023-09-30T13:07:14.000Z</time>
      </trkpt>
      <trkpt lat="41.6412" lon="20.15472">
        <ele>1085.4699707031</ele>
        <time>2023-09-30T13:07:13.000Z</time>
      </trkpt>
      <trkpt lat="41.64123" lon="20.15478">
        <ele>1085.9499511719</ele>
        <time>2023-09-30T13:07:12.000Z</time>
      </trkpt>
      <trkpt lat="41.64128" lon="20.15486">
        <ele>1086.9100341797</ele>
        <time>2023-09-30T13:07:11.000Z</time>
      </trkpt>
      <trkpt lat="41.64133" lon="20.15493">
        <ele>1087.8699951172</ele>
        <time>2023-09-30T13:07:10.000Z</time>
      </trkpt>
      <trkpt lat="41.64139" lon="20.15502">
        <ele>1088.8299560547</ele>
        <time>2023-09-30T13:07:09.000Z</time>
      </trkpt>
      <trkpt lat="41.64145" lon="20.15509">
        <ele>1089.7900390625</ele>
        <time>2023-09-30T13:07:08.000Z</time>
      </trkpt>
      <trkpt lat="41.6415" lon="20.15513">
        <ele>1090.75</ele>
        <time>2023-09-30T13:07:07.000Z</time>
      </trkpt>
      <trkpt lat="41.64154" lon="20.15515">
        <ele>1091.7099609375</ele>
        <time>2023-09-30T13:07:06.000Z</time>
      </trkpt>
      <trkpt lat="41.64159" lon="20.15517">
        <ele>1092.1999511719</ele>
        <time>2023-09-30T13:07:05.000Z</time>
      </trkpt>
      <trkpt lat="41.64169" lon="20.15522">
        <ele>1093.6400146484</ele>
        <time>2023-09-30T13:07:04.000Z</time>
      </trkpt>
      <trkpt lat="41.64182" lon="20.15526">
        <ele>1095.0799560547</ele>
        <time>2023-09-30T13:07:02.000Z</time>
      </trkpt>
      <trkpt lat="41.64196" lon="20.1553">
        <ele>1096.0400390625</ele>
        <time>2023-09-30T13:05:29.000Z</time>
      </trkpt>
      <trkpt lat="41.6421" lon="20.15534">
        <ele>1097.9599609375</ele>
        <time>2023-09-30T13:05:22.000Z</time>
      </trkpt>
      <trkpt lat="41.64214" lon="20.15535">
        <ele>1098.4399414062</ele>
        <time>2023-09-30T13:05:21.000Z</time>
      </trkpt>
      <trkpt lat="41.64221" lon="20.15539">
        <ele>1098.9200439453</ele>
        <time>2023-09-30T13:05:20.000Z</time>
      </trkpt>
      <trkpt lat="41.64227" lon="20.15544">
        <ele>1099.4000244141</ele>
        <time>2023-09-30T13:05:19.000Z</time>
      </trkpt>
      <trkpt lat="41.64233" lon="20.15549">
        <ele>1099.8900146484</ele>
        <time>2023-09-30T13:05:18.000Z</time>
      </trkpt>
      <trkpt lat="41.64238" lon="20.15557">
        <ele>1100.8499755859</ele>
        <time>2023-09-30T13:05:17.000Z</time>
      </trkpt>
      <trkpt lat="41.64242" lon="20.15562">
        <ele>1100.8499755859</ele>
        <time>2023-09-30T13:05:16.000Z</time>
      </trkpt>
      <trkpt lat="41.64247" lon="20.15569">
        <ele>1101.3299560547</ele>
        <time>2023-09-30T13:05:15.000Z</time>
      </trkpt>
      <trkpt lat="41.64251" lon="20.15576">
        <ele>1101.8100585938</ele>
        <time>2023-09-30T13:05:14.000Z</time>
      </trkpt>
      <trkpt lat="41.64254" lon="20.15583">
        <ele>1102.2900390625</ele>
        <time>2023-09-30T13:05:13.000Z</time>
      </trkpt>
      <trkpt lat="41.64257" lon="20.15591">
        <ele>1102.7700195312</ele>
        <time>2023-09-30T13:05:12.000Z</time>
      </trkpt>
      <trkpt lat="41.64261" lon="20.15597">
        <ele>1103.25</ele>
        <time>2023-09-30T13:05:11.000Z</time>
      </trkpt>
      <trkpt lat="41.64265" lon="20.15601">
        <ele>1103.7299804688</ele>
        <time>2023-09-30T13:05:10.000Z</time>
      </trkpt>
      <trkpt lat="41.64268" lon="20.15603">
        <ele>1103.7299804688</ele>
        <time>2023-09-30T13:05:09.000Z</time>
      </trkpt>
      <trkpt lat="41.64273" lon="20.15605">
        <ele>1104.2099609375</ele>
        <time>2023-09-30T13:05:08.000Z</time>
      </trkpt>
      <trkpt lat="41.6428" lon="20.15607">
        <ele>1104.6899414062</ele>
        <time>2023-09-30T13:05:07.000Z</time>
      </trkpt>
      <trkpt lat="41.64286" lon="20.15609">
        <ele>1104.6899414062</ele>
        <time>2023-09-30T13:05:06.000Z</time>
      </trkpt>
      <trkpt lat="41.64292" lon="20.15611">
        <ele>1105.1700439453</ele>
        <time>2023-09-30T13:05:05.000Z</time>
      </trkpt>
      <trkpt lat="41.64298" lon="20.15614">
        <ele>1105.6500244141</ele>
        <time>2023-09-30T13:05:04.000Z</time>
      </trkpt>
      <trkpt lat="41.64303" lon="20.15618">
        <ele>1105.6500244141</ele>
        <time>2023-09-30T13:05:03.000Z</time>
      </trkpt>
      <trkpt lat="41.64306" lon="20.15624">
        <ele>1106.1300048828</ele>
        <time>2023-09-30T13:05:02.000Z</time>
      </trkpt>
      <trkpt lat="41.64308" lon="20.1563">
        <ele>1106.1300048828</ele>
        <time>2023-09-30T13:05:01.000Z</time>
      </trkpt>
      <trkpt lat="41.64309" lon="20.15637">
        <ele>1106.1300048828</ele>
        <time>2023-09-30T13:05:00.000Z</time>
      </trkpt>
      <trkpt lat="41.64309" lon="20.15646">
        <ele>1106.6099853516</ele>
        <time>2023-09-30T13:04:59.000Z</time>
      </trkpt>
      <trkpt lat="41.6431" lon="20.1567">
        <ele>1107.0999755859</ele>
        <time>2023-09-30T13:04:56.000Z</time>
      </trkpt>
      <trkpt lat="41.6431" lon="20.15676">
        <ele>1107.0999755859</ele>
        <time>2023-09-30T13:04:55.000Z</time>
      </trkpt>
      <trkpt lat="41.64311" lon="20.15682">
        <ele>1107.5799560547</ele>
        <time>2023-09-30T13:04:54.000Z</time>
      </trkpt>
      <trkpt lat="41.64312" lon="20.15691">
        <ele>1108.0600585938</ele>
        <time>2023-09-30T13:04:53.000Z</time>
      </trkpt>
      <trkpt lat="41.64313" lon="20.15696">
        <ele>1108.5400390625</ele>
        <time>2023-09-30T13:04:52.000Z</time>
      </trkpt>
      <trkpt lat="41.64315" lon="20.15702">
        <ele>1108.5400390625</ele>
        <time>2023-09-30T13:04:51.000Z</time>
      </trkpt>
      <trkpt lat="41.64317" lon="20.15706">
        <ele>1109.0200195312</ele>
        <time>2023-09-30T13:04:50.000Z</time>
      </trkpt>
      <trkpt lat="41.64323" lon="20.15709">
        <ele>1109.0200195312</ele>
        <time>2023-09-30T13:04:49.000Z</time>
      </trkpt>
      <trkpt lat="41.64328" lon="20.15711">
        <ele>1109.5</ele>
        <time>2023-09-30T13:04:48.000Z</time>
      </trkpt>
      <trkpt lat="41.64333" lon="20.15712">
        <ele>1109.5</ele>
        <time>2023-09-30T13:04:47.000Z</time>
      </trkpt>
      <trkpt lat="41.64337" lon="20.15715">
        <ele>1109.9799804688</ele>
        <time>2023-09-30T13:04:46.000Z</time>
      </trkpt>
      <trkpt lat="41.64341" lon="20.15719">
        <ele>1110.4599609375</ele>
        <time>2023-09-30T13:04:45.000Z</time>
      </trkpt>
      <trkpt lat="41.64345" lon="20.15725">
        <ele>1110.4599609375</ele>
        <time>2023-09-30T13:04:44.000Z</time>
      </trkpt>
      <trkpt lat="41.64347" lon="20.1573">
        <ele>1110.9399414062</ele>
        <time>2023-09-30T13:04:43.000Z</time>
      </trkpt>
      <trkpt lat="41.6435" lon="20.15737">
        <ele>1110.9399414062</ele>
        <time>2023-09-30T13:04:42.000Z</time>
      </trkpt>
      <trkpt lat="41.64351" lon="20.1574">
        <ele>1110.9399414062</ele>
        <time>2023-09-30T13:04:41.000Z</time>
      </trkpt>
      <trkpt lat="41.64355" lon="20.15749">
        <ele>1111.4200439453</ele>
        <time>2023-09-30T13:04:40.000Z</time>
      </trkpt>
      <trkpt lat="41.64358" lon="20.15755">
        <ele>1111.9000244141</ele>
        <time>2023-09-30T13:04:39.000Z</time>
      </trkpt>
      <trkpt lat="41.64362" lon="20.15762">
        <ele>1112.3800048828</ele>
        <time>2023-09-30T13:04:38.000Z</time>
      </trkpt>
      <trkpt lat="41.64364" lon="20.15768">
        <ele>1112.8599853516</ele>
        <time>2023-09-30T13:04:37.000Z</time>
      </trkpt>
      <trkpt lat="41.64366" lon="20.15772">
        <ele>1112.8599853516</ele>
        <time>2023-09-30T13:04:36.000Z</time>
      </trkpt>
      <trkpt lat="41.6437" lon="20.15779">
        <ele>1113.3399658203</ele>
        <time>2023-09-30T13:04:35.000Z</time>
      </trkpt>
      <trkpt lat="41.64381" lon="20.15792">
        <ele>1115.2700195312</ele>
        <time>2023-09-30T13:04:29.000Z</time>
      </trkpt>
      <trkpt lat="41.64398" lon="20.15812">
        <ele>1117.6700439453</ele>
        <time>2023-09-30T13:04:21.000Z</time>
      </trkpt>
      <trkpt lat="41.64399" lon="20.15827">
        <ele>1119.1099853516</ele>
        <time>2023-09-30T13:04:16.000Z</time>
      </trkpt>
      <trkpt lat="41.64395" lon="20.15829">
        <ele>1119.5899658203</ele>
        <time>2023-09-30T13:04:15.000Z</time>
      </trkpt>
      <trkpt lat="41.64392" lon="20.15831">
        <ele>1120.5500488281</ele>
        <time>2023-09-30T13:04:14.000Z</time>
      </trkpt>
      <trkpt lat="41.64387" lon="20.15834">
        <ele>1121.0300292969</ele>
        <time>2023-09-30T13:04:13.000Z</time>
      </trkpt>
      <trkpt lat="41.64383" lon="20.15836">
        <ele>1122</ele>
        <time>2023-09-30T13:04:12.000Z</time>
      </trkpt>
      <trkpt lat="41.64378" lon="20.15839">
        <ele>1122.9599609375</ele>
        <time>2023-09-30T13:04:11.000Z</time>
      </trkpt>
      <trkpt lat="41.64377" lon="20.15839">
        <ele>1122.9599609375</ele>
        <time>2023-09-30T13:04:10.000Z</time>
      </trkpt>
      <trkpt lat="41.6436" lon="20.15858">
        <ele>1126.3199462891</ele>
        <time>2023-09-30T13:04:04.000Z</time>
      </trkpt>
      <trkpt lat="41.64358" lon="20.15864">
        <ele>1126.8000488281</ele>
        <time>2023-09-30T13:04:03.000Z</time>
      </trkpt>
      <trkpt lat="41.64357" lon="20.15869">
        <ele>1127.2800292969</ele>
        <time>2023-09-30T13:04:02.000Z</time>
      </trkpt>
      <trkpt lat="41.64357" lon="20.15878">
        <ele>1127.7600097656</ele>
        <time>2023-09-30T13:04:01.000Z</time>
      </trkpt>
      <trkpt lat="41.64355" lon="20.1589">
        <ele>1128.2399902344</ele>
        <time>2023-09-30T13:04:00.000Z</time>
      </trkpt>
      <trkpt lat="41.64353" lon="20.15901">
        <ele>1128.7299804688</ele>
        <time>2023-09-30T13:03:59.000Z</time>
      </trkpt>
      <trkpt lat="41.64351" lon="20.15909">
        <ele>1128.7299804688</ele>
        <time>2023-09-30T13:03:58.000Z</time>
      </trkpt>
      <trkpt lat="41.6435" lon="20.15918">
        <ele>1129.2099609375</ele>
        <time>2023-09-30T13:03:57.000Z</time>
      </trkpt>
      <trkpt lat="41.64349" lon="20.15929">
        <ele>1129.6899414062</ele>
        <time>2023-09-30T13:03:56.000Z</time>
      </trkpt>
      <trkpt lat="41.6435" lon="20.15938">
        <ele>1130.1700439453</ele>
        <time>2023-09-30T13:03:55.000Z</time>
      </trkpt>
      <trkpt lat="41.64351" lon="20.15947">
        <ele>1130.1700439453</ele>
        <time>2023-09-30T13:03:54.000Z</time>
      </trkpt>
      <trkpt lat="41.64355" lon="20.1596">
        <ele>1130.6500244141</ele>
        <time>2023-09-30T13:03:53.000Z</time>
      </trkpt>
      <trkpt lat="41.64358" lon="20.15969">
        <ele>1131.6099853516</ele>
        <time>2023-09-30T13:03:52.000Z</time>
      </trkpt>
      <trkpt lat="41.64361" lon="20.15977">
        <ele>1132.0899658203</ele>
        <time>2023-09-30T13:03:51.000Z</time>
      </trkpt>
      <trkpt lat="41.64363" lon="20.15987">
        <ele>1132.5699462891</ele>
        <time>2023-09-30T13:03:50.000Z</time>
      </trkpt>
      <trkpt lat="41.64364" lon="20.15995">
        <ele>1133.0500488281</ele>
        <time>2023-09-30T13:03:49.000Z</time>
      </trkpt>
      <trkpt lat="41.64364" lon="20.16004">
        <ele>1133.5300292969</ele>
        <time>2023-09-30T13:03:48.000Z</time>
      </trkpt>
      <trkpt lat="41.64362" lon="20.16012">
        <ele>1133.5300292969</ele>
        <time>2023-09-30T13:03:47.000Z</time>
      </trkpt>
      <trkpt lat="41.64359" lon="20.16019">
        <ele>1133.5300292969</ele>
        <time>2023-09-30T13:03:46.000Z</time>
      </trkpt>
      <trkpt lat="41.64355" lon="20.16025">
        <ele>1133.5300292969</ele>
        <time>2023-09-30T13:03:45.000Z</time>
      </trkpt>
      <trkpt lat="41.64349" lon="20.16029">
        <ele>1133.0500488281</ele>
        <time>2023-09-30T13:03:44.000Z</time>
      </trkpt>
      <trkpt lat="41.64343" lon="20.1603">
        <ele>1133.0500488281</ele>
        <time>2023-09-30T13:03:43.000Z</time>
      </trkpt>
      <trkpt lat="41.64334" lon="20.16032">
        <ele>1133.0500488281</ele>
        <time>2023-09-30T13:03:42.000Z</time>
      </trkpt>
      <trkpt lat="41.64329" lon="20.16034">
        <ele>1133.0500488281</ele>
        <time>2023-09-30T13:03:41.000Z</time>
      </trkpt>
      <trkpt lat="41.64308" lon="20.16043">
        <ele>1132.5699462891</ele>
        <time>2023-09-30T13:03:39.000Z</time>
      </trkpt>
      <trkpt lat="41.643" lon="20.16046">
        <ele>1133.0500488281</ele>
        <time>2023-09-30T13:03:38.000Z</time>
      </trkpt>
      <trkpt lat="41.64294" lon="20.16051">
        <ele>1133.0500488281</ele>
        <time>2023-09-30T13:03:37.000Z</time>
      </trkpt>
      <trkpt lat="41.64288" lon="20.16058">
        <ele>1132.5699462891</ele>
        <time>2023-09-30T13:03:36.000Z</time>
      </trkpt>
      <trkpt lat="41.64286" lon="20.16062">
        <ele>1132.5699462891</ele>
        <time>2023-09-30T13:03:35.000Z</time>
      </trkpt>
      <trkpt lat="41.64277" lon="20.16076">
        <ele>1132.0899658203</ele>
        <time>2023-09-30T13:03:34.000Z</time>
      </trkpt>
      <trkpt lat="41.64272" lon="20.16085">
        <ele>1132.0899658203</ele>
        <time>2023-09-30T13:03:33.000Z</time>
      </trkpt>
      <trkpt lat="41.6427" lon="20.1609">
        <ele>1132.0899658203</ele>
        <time>2023-09-30T13:03:32.000Z</time>
      </trkpt>
      <trkpt lat="41.64265" lon="20.16099">
        <ele>1132.0899658203</ele>
        <time>2023-09-30T13:03:31.000Z</time>
      </trkpt>
      <trkpt lat="41.64261" lon="20.16108">
        <ele>1132.0899658203</ele>
        <time>2023-09-30T13:03:30.000Z</time>
      </trkpt>
      <trkpt lat="41.64256" lon="20.16119">
        <ele>1132.0899658203</ele>
        <time>2023-09-30T13:03:29.000Z</time>
      </trkpt>
      <trkpt lat="41.64249" lon="20.16133">
        <ele>1132.0899658203</ele>
        <time>2023-09-30T13:03:28.000Z</time>
      </trkpt>
      <trkpt lat="41.64244" lon="20.16143">
        <ele>1132.0899658203</ele>
        <time>2023-09-30T13:03:27.000Z</time>
      </trkpt>
      <trkpt lat="41.6424" lon="20.16155">
        <ele>1132.5699462891</ele>
        <time>2023-09-30T13:03:26.000Z</time>
      </trkpt>
      <trkpt lat="41.64238" lon="20.16166">
        <ele>1132.5699462891</ele>
        <time>2023-09-30T13:03:25.000Z</time>
      </trkpt>
      <trkpt lat="41.64238" lon="20.16176">
        <ele>1132.5699462891</ele>
        <time>2023-09-30T13:03:24.000Z</time>
      </trkpt>
      <trkpt lat="41.64238" lon="20.16186">
        <ele>1132.5699462891</ele>
        <time>2023-09-30T13:03:23.000Z</time>
      </trkpt>
      <trkpt lat="41.64237" lon="20.16192">
        <ele>1132.5699462891</ele>
        <time>2023-09-30T13:03:22.000Z</time>
      </trkpt>
      <trkpt lat="41.64237" lon="20.16204">
        <ele>1132.5699462891</ele>
        <time>2023-09-30T13:03:21.000Z</time>
      </trkpt>
      <trkpt lat="41.64236" lon="20.16219">
        <ele>1132.5699462891</ele>
        <time>2023-09-30T13:03:20.000Z</time>
      </trkpt>
      <trkpt lat="41.64235" lon="20.16227">
        <ele>1132.5699462891</ele>
        <time>2023-09-30T13:03:19.000Z</time>
      </trkpt>
      <trkpt lat="41.64233" lon="20.16238">
        <ele>1132.5699462891</ele>
        <time>2023-09-30T13:03:18.000Z</time>
      </trkpt>
      <trkpt lat="41.64232" lon="20.16246">
        <ele>1132.5699462891</ele>
        <time>2023-09-30T13:03:17.000Z</time>
      </trkpt>
      <trkpt lat="41.6423" lon="20.16252">
        <ele>1133.0500488281</ele>
        <time>2023-09-30T13:03:16.000Z</time>
      </trkpt>
      <trkpt lat="41.64225" lon="20.16263">
        <ele>1133.0500488281</ele>
        <time>2023-09-30T13:03:15.000Z</time>
      </trkpt>
      <trkpt lat="41.64222" lon="20.16271">
        <ele>1133.0500488281</ele>
        <time>2023-09-30T13:03:14.000Z</time>
      </trkpt>
      <trkpt lat="41.64219" lon="20.16279">
        <ele>1133.5300292969</ele>
        <time>2023-09-30T13:03:13.000Z</time>
      </trkpt>
      <trkpt lat="41.64216" lon="20.16287">
        <ele>1133.5300292969</ele>
        <time>2023-09-30T13:03:12.000Z</time>
      </trkpt>
      <trkpt lat="41.64213" lon="20.16295">
        <ele>1133.0500488281</ele>
        <time>2023-09-30T13:03:11.000Z</time>
      </trkpt>
      <trkpt lat="41.64211" lon="20.16301">
        <ele>1133.0500488281</ele>
        <time>2023-09-30T13:03:10.000Z</time>
      </trkpt>
      <trkpt lat="41.64207" lon="20.16312">
        <ele>1133.5300292969</ele>
        <time>2023-09-30T13:03:09.000Z</time>
      </trkpt>
      <trkpt lat="41.64204" lon="20.1632">
        <ele>1133.5300292969</ele>
        <time>2023-09-30T13:03:08.000Z</time>
      </trkpt>
      <trkpt lat="41.64199" lon="20.16328">
        <ele>1133.5300292969</ele>
        <time>2023-09-30T13:03:07.000Z</time>
      </trkpt>
      <trkpt lat="41.64194" lon="20.16334">
        <ele>1133.0500488281</ele>
        <time>2023-09-30T13:03:06.000Z</time>
      </trkpt>
      <trkpt lat="41.64189" lon="20.16341">
        <ele>1133.0500488281</ele>
        <time>2023-09-30T13:03:05.000Z</time>
      </trkpt>
      <trkpt lat="41.64183" lon="20.16351">
        <ele>1133.0500488281</ele>
        <time>2023-09-30T13:03:04.000Z</time>
      </trkpt>
      <trkpt lat="41.64179" lon="20.16358">
        <ele>1134.0100097656</ele>
        <time>2023-09-30T13:03:03.000Z</time>
      </trkpt>
      <trkpt lat="41.64174" lon="20.1637">
        <ele>1134.0100097656</ele>
        <time>2023-09-30T13:03:02.000Z</time>
      </trkpt>
      <trkpt lat="41.64171" lon="20.16381">
        <ele>1134.0100097656</ele>
        <time>2023-09-30T13:03:01.000Z</time>
      </trkpt>
      <trkpt lat="41.64169" lon="20.16389">
        <ele>1134.0100097656</ele>
        <time>2023-09-30T13:03:00.000Z</time>
      </trkpt>
      <trkpt lat="41.64164" lon="20.16401">
        <ele>1134.4899902344</ele>
        <time>2023-09-30T13:02:59.000Z</time>
      </trkpt>
      <trkpt lat="41.64159" lon="20.16411">
        <ele>1134.9699707031</ele>
        <time>2023-09-30T13:02:58.000Z</time>
      </trkpt>
      <trkpt lat="41.64155" lon="20.16421">
        <ele>1134.9699707031</ele>
        <time>2023-09-30T13:02:57.000Z</time>
      </trkpt>
      <trkpt lat="41.64153" lon="20.16428">
        <ele>1134.9699707031</ele>
        <time>2023-09-30T13:02:56.000Z</time>
      </trkpt>
      <trkpt lat="41.64149" lon="20.16443">
        <ele>1134.9699707031</ele>
        <time>2023-09-30T13:02:55.000Z</time>
      </trkpt>
      <trkpt lat="41.64148" lon="20.1645">
        <ele>1135.4499511719</ele>
        <time>2023-09-30T13:02:54.000Z</time>
      </trkpt>
      <trkpt lat="41.64147" lon="20.16459">
        <ele>1134.9699707031</ele>
        <time>2023-09-30T13:02:53.000Z</time>
      </trkpt>
      <trkpt lat="41.64146" lon="20.16466">
        <ele>1134.9699707031</ele>
        <time>2023-09-30T13:02:52.000Z</time>
      </trkpt>
      <trkpt lat="41.64145" lon="20.16476">
        <ele>1134.9699707031</ele>
        <time>2023-09-30T13:02:51.000Z</time>
      </trkpt>
      <trkpt lat="41.64144" lon="20.16487">
        <ele>1135.4499511719</ele>
        <time>2023-09-30T13:02:50.000Z</time>
      </trkpt>
      <trkpt lat="41.64144" lon="20.16491">
        <ele>1135.4499511719</ele>
        <time>2023-09-30T13:02:49.000Z</time>
      </trkpt>
      <trkpt lat="41.64145" lon="20.16505">
        <ele>1135.9399414062</ele>
        <time>2023-09-30T13:02:48.000Z</time>
      </trkpt>
      <trkpt lat="41.64147" lon="20.16528">
        <ele>1135.9399414062</ele>
        <time>2023-09-30T13:02:46.000Z</time>
      </trkpt>
      <trkpt lat="41.64149" lon="20.16542">
        <ele>1135.9399414062</ele>
        <time>2023-09-30T13:02:45.000Z</time>
      </trkpt>
      <trkpt lat="41.64151" lon="20.16552">
        <ele>1135.9399414062</ele>
        <time>2023-09-30T13:02:44.000Z</time>
      </trkpt>
      <trkpt lat="41.64153" lon="20.16568">
        <ele>1135.9399414062</ele>
        <time>2023-09-30T13:02:43.000Z</time>
      </trkpt>
      <trkpt lat="41.64155" lon="20.16578">
        <ele>1135.9399414062</ele>
        <time>2023-09-30T13:02:42.000Z</time>
      </trkpt>
      <trkpt lat="41.64156" lon="20.16587">
        <ele>1135.4499511719</ele>
        <time>2023-09-30T13:02:41.000Z</time>
      </trkpt>
      <trkpt lat="41.6416" lon="20.16603">
        <ele>1135.4499511719</ele>
        <time>2023-09-30T13:02:40.000Z</time>
      </trkpt>
      <trkpt lat="41.64163" lon="20.16612">
        <ele>1135.4499511719</ele>
        <time>2023-09-30T13:02:39.000Z</time>
      </trkpt>
      <trkpt lat="41.64166" lon="20.1662">
        <ele>1135.4499511719</ele>
        <time>2023-09-30T13:02:38.000Z</time>
      </trkpt>
      <trkpt lat="41.64169" lon="20.16628">
        <ele>1135.4499511719</ele>
        <time>2023-09-30T13:02:37.000Z</time>
      </trkpt>
      <trkpt lat="41.64172" lon="20.1664">
        <ele>1135.4499511719</ele>
        <time>2023-09-30T13:02:36.000Z</time>
      </trkpt>
      <trkpt lat="41.64175" lon="20.16652">
        <ele>1135.4499511719</ele>
        <time>2023-09-30T13:02:35.000Z</time>
      </trkpt>
      <trkpt lat="41.64177" lon="20.16658">
        <ele>1134.9699707031</ele>
        <time>2023-09-30T13:02:34.000Z</time>
      </trkpt>
      <trkpt lat="41.6418" lon="20.1667">
        <ele>1134.9699707031</ele>
        <time>2023-09-30T13:02:33.000Z</time>
      </trkpt>
      <trkpt lat="41.64182" lon="20.16678">
        <ele>1134.9699707031</ele>
        <time>2023-09-30T13:02:32.000Z</time>
      </trkpt>
      <trkpt lat="41.64182" lon="20.16686">
        <ele>1134.4899902344</ele>
        <time>2023-09-30T13:02:31.000Z</time>
      </trkpt>
      <trkpt lat="41.64181" lon="20.16694">
        <ele>1134.4899902344</ele>
        <time>2023-09-30T13:02:30.000Z</time>
      </trkpt>
      <trkpt lat="41.6418" lon="20.16702">
        <ele>1134.4899902344</ele>
        <time>2023-09-30T13:02:29.000Z</time>
      </trkpt>
      <trkpt lat="41.64181" lon="20.16708">
        <ele>1134.4899902344</ele>
        <time>2023-09-30T13:02:28.000Z</time>
      </trkpt>
      <trkpt lat="41.64181" lon="20.16716">
        <ele>1134.4899902344</ele>
        <time>2023-09-30T13:02:26.000Z</time>
      </trkpt>
      <trkpt lat="41.64181" lon="20.16717">
        <ele>1134.4899902344</ele>
        <time>2023-09-30T13:00:46.000Z</time>
      </trkpt>
      <trkpt lat="41.6418" lon="20.16721">
        <ele>1134.0100097656</ele>
        <time>2023-09-30T13:00:40.000Z</time>
      </trkpt>
      <trkpt lat="41.64178" lon="20.16727">
        <ele>1134.4899902344</ele>
        <time>2023-09-30T13:00:39.000Z</time>
      </trkpt>
      <trkpt lat="41.64178" lon="20.16733">
        <ele>1134.4899902344</ele>
        <time>2023-09-30T13:00:38.000Z</time>
      </trkpt>
      <trkpt lat="41.64177" lon="20.16747">
        <ele>1134.0100097656</ele>
        <time>2023-09-30T13:00:36.000Z</time>
      </trkpt>
      <trkpt lat="41.64177" lon="20.16754">
        <ele>1134.0100097656</ele>
        <time>2023-09-30T13:00:35.000Z</time>
      </trkpt>
      <trkpt lat="41.64173" lon="20.16781">
        <ele>1134.9699707031</ele>
        <time>2023-09-30T13:00:28.000Z</time>
      </trkpt>
      <trkpt lat="41.64171" lon="20.1679">
        <ele>1134.9699707031</ele>
        <time>2023-09-30T13:00:27.000Z</time>
      </trkpt>
      <trkpt lat="41.64171" lon="20.16794">
        <ele>1134.9699707031</ele>
        <time>2023-09-30T13:00:26.000Z</time>
      </trkpt>
      <trkpt lat="41.64168" lon="20.16809">
        <ele>1135.4499511719</ele>
        <time>2023-09-30T13:00:25.000Z</time>
      </trkpt>
      <trkpt lat="41.6416" lon="20.16844">
        <ele>1135.9399414062</ele>
        <time>2023-09-30T13:00:22.000Z</time>
      </trkpt>
      <trkpt lat="41.64138" lon="20.16946">
        <ele>1139.7800292969</ele>
        <time>2023-09-30T13:00:16.000Z</time>
      </trkpt>
      <trkpt lat="41.64135" lon="20.16956">
        <ele>1140.2600097656</ele>
        <time>2023-09-30T13:00:15.000Z</time>
      </trkpt>
      <trkpt lat="41.64133" lon="20.16962">
        <ele>1140.7399902344</ele>
        <time>2023-09-30T13:00:14.000Z</time>
      </trkpt>
      <trkpt lat="41.64126" lon="20.16985">
        <ele>1141.2199707031</ele>
        <time>2023-09-30T13:00:12.000Z</time>
      </trkpt>
      <trkpt lat="41.64123" lon="20.16997">
        <ele>1141.2199707031</ele>
        <time>2023-09-30T13:00:11.000Z</time>
      </trkpt>
      <trkpt lat="41.64121" lon="20.17004">
        <ele>1141.6999511719</ele>
        <time>2023-09-30T13:00:10.000Z</time>
      </trkpt>
      <trkpt lat="41.64119" lon="20.17013">
        <ele>1141.6999511719</ele>
        <time>2023-09-30T13:00:09.000Z</time>
      </trkpt>
      <trkpt lat="41.64116" lon="20.17024">
        <ele>1141.6999511719</ele>
        <time>2023-09-30T13:00:08.000Z</time>
      </trkpt>
      <trkpt lat="41.64114" lon="20.17033">
        <ele>1141.2199707031</ele>
        <time>2023-09-30T13:00:07.000Z</time>
      </trkpt>
      <trkpt lat="41.6411" lon="20.17042">
        <ele>1141.2199707031</ele>
        <time>2023-09-30T13:00:06.000Z</time>
      </trkpt>
      <trkpt lat="41.64109" lon="20.17045">
        <ele>1141.2199707031</ele>
        <time>2023-09-30T13:00:05.000Z</time>
      </trkpt>
      <trkpt lat="41.64107" lon="20.17053">
        <ele>1140.7399902344</ele>
        <time>2023-09-30T13:00:04.000Z</time>
      </trkpt>
      <trkpt lat="41.64104" lon="20.17059">
        <ele>1140.7399902344</ele>
        <time>2023-09-30T13:00:03.000Z</time>
      </trkpt>
      <trkpt lat="41.64104" lon="20.1706">
        <ele>1140.7399902344</ele>
        <time>2023-09-30T13:00:02.000Z</time>
      </trkpt>
      <trkpt lat="41.64099" lon="20.17068">
        <ele>1140.7399902344</ele>
        <time>2023-09-30T12:59:49.000Z</time>
      </trkpt>
      <trkpt lat="41.64097" lon="20.17078">
        <ele>1139.7800292969</ele>
        <time>2023-09-30T12:59:42.000Z</time>
      </trkpt>
      <trkpt lat="41.64095" lon="20.17082">
        <ele>1139.3000488281</ele>
        <time>2023-09-30T12:59:41.000Z</time>
      </trkpt>
      <trkpt lat="41.64094" lon="20.17088">
        <ele>1138.8199462891</ele>
        <time>2023-09-30T12:59:40.000Z</time>
      </trkpt>
      <trkpt lat="41.64092" lon="20.17094">
        <ele>1138.3399658203</ele>
        <time>2023-09-30T12:59:39.000Z</time>
      </trkpt>
      <trkpt lat="41.64091" lon="20.17099">
        <ele>1138.3399658203</ele>
        <time>2023-09-30T12:59:38.000Z</time>
      </trkpt>
      <trkpt lat="41.6409" lon="20.17108">
        <ele>1138.3399658203</ele>
        <time>2023-09-30T12:59:36.000Z</time>
      </trkpt>
      <trkpt lat="41.6409" lon="20.17108">
        <ele>1138.8199462891</ele>
        <time>2023-09-30T12:59:04.000Z</time>
      </trkpt>
      <trkpt lat="41.64087" lon="20.17118">
        <ele>1138.3399658203</ele>
        <time>2023-09-30T12:58:57.000Z</time>
      </trkpt>
      <trkpt lat="41.64085" lon="20.17125">
        <ele>1137.8599853516</ele>
        <time>2023-09-30T12:58:56.000Z</time>
      </trkpt>
      <trkpt lat="41.64083" lon="20.17131">
        <ele>1137.8599853516</ele>
        <time>2023-09-30T12:58:55.000Z</time>
      </trkpt>
      <trkpt lat="41.64083" lon="20.17134">
        <ele>1137.8599853516</ele>
        <time>2023-09-30T12:58:54.000Z</time>
      </trkpt>
      <trkpt lat="41.64081" lon="20.17146">
        <ele>1137.8599853516</ele>
        <time>2023-09-30T12:58:53.000Z</time>
      </trkpt>
      <trkpt lat="41.64079" lon="20.1716">
        <ele>1137.8599853516</ele>
        <time>2023-09-30T12:58:52.000Z</time>
      </trkpt>
      <trkpt lat="41.64078" lon="20.17168">
        <ele>1137.8599853516</ele>
        <time>2023-09-30T12:58:51.000Z</time>
      </trkpt>
      <trkpt lat="41.64076" lon="20.17178">
        <ele>1137.8599853516</ele>
        <time>2023-09-30T12:58:50.000Z</time>
      </trkpt>
      <trkpt lat="41.64072" lon="20.17196">
        <ele>1137.8599853516</ele>
        <time>2023-09-30T12:58:48.000Z</time>
      </trkpt>
      <trkpt lat="41.64071" lon="20.17201">
        <ele>1137.8599853516</ele>
        <time>2023-09-30T12:58:47.000Z</time>
      </trkpt>
      <trkpt lat="41.6407" lon="20.1721">
        <ele>1137.3800048828</ele>
        <time>2023-09-30T12:58:46.000Z</time>
      </trkpt>
      <trkpt lat="41.64069" lon="20.17214">
        <ele>1137.3800048828</ele>
        <time>2023-09-30T12:58:45.000Z</time>
      </trkpt>
      <trkpt lat="41.64067" lon="20.17217">
        <ele>1137.3800048828</ele>
        <time>2023-09-30T12:58:44.000Z</time>
      </trkpt>
      <trkpt lat="41.64063" lon="20.17222">
        <ele>1137.3800048828</ele>
        <time>2023-09-30T12:58:43.000Z</time>
      </trkpt>
      <trkpt lat="41.64061" lon="20.17226">
        <ele>1136.9000244141</ele>
        <time>2023-09-30T12:58:42.000Z</time>
      </trkpt>
      <trkpt lat="41.64058" lon="20.17232">
        <ele>1136.9000244141</ele>
        <time>2023-09-30T12:58:41.000Z</time>
      </trkpt>
      <trkpt lat="41.64055" lon="20.17237">
        <ele>1136.9000244141</ele>
        <time>2023-09-30T12:58:40.000Z</time>
      </trkpt>
      <trkpt lat="41.6405" lon="20.17244">
        <ele>1136.9000244141</ele>
        <time>2023-09-30T12:58:39.000Z</time>
      </trkpt>
      <trkpt lat="41.64044" lon="20.17252">
        <ele>1136.9000244141</ele>
        <time>2023-09-30T12:58:38.000Z</time>
      </trkpt>
      <trkpt lat="41.64037" lon="20.17261">
        <ele>1136.9000244141</ele>
        <time>2023-09-30T12:58:37.000Z</time>
      </trkpt>
      <trkpt lat="41.64031" lon="20.17269">
        <ele>1136.4200439453</ele>
        <time>2023-09-30T12:58:36.000Z</time>
      </trkpt>
      <trkpt lat="41.64027" lon="20.17276">
        <ele>1136.4200439453</ele>
        <time>2023-09-30T12:58:35.000Z</time>
      </trkpt>
      <trkpt lat="41.64024" lon="20.17283">
        <ele>1136.4200439453</ele>
        <time>2023-09-30T12:58:34.000Z</time>
      </trkpt>
      <trkpt lat="41.64016" lon="20.17298">
        <ele>1135.9399414062</ele>
        <time>2023-09-30T12:58:33.000Z</time>
      </trkpt>
      <trkpt lat="41.64012" lon="20.17308">
        <ele>1135.4499511719</ele>
        <time>2023-09-30T12:58:32.000Z</time>
      </trkpt>
      <trkpt lat="41.64009" lon="20.17315">
        <ele>1135.4499511719</ele>
        <time>2023-09-30T12:58:31.000Z</time>
      </trkpt>
      <trkpt lat="41.64006" lon="20.17329">
        <ele>1134.9699707031</ele>
        <time>2023-09-30T12:58:30.000Z</time>
      </trkpt>
      <trkpt lat="41.64002" lon="20.17344">
        <ele>1134.4899902344</ele>
        <time>2023-09-30T12:58:29.000Z</time>
      </trkpt>
      <trkpt lat="41.64" lon="20.17353">
        <ele>1134.0100097656</ele>
        <time>2023-09-30T12:58:28.000Z</time>
      </trkpt>
      <trkpt lat="41.63997" lon="20.17361">
        <ele>1134.0100097656</ele>
        <time>2023-09-30T12:58:27.000Z</time>
      </trkpt>
      <trkpt lat="41.63996" lon="20.17363">
        <ele>1134.0100097656</ele>
        <time>2023-09-30T12:58:26.000Z</time>
      </trkpt>
      <trkpt lat="41.63992" lon="20.17374">
        <ele>1133.5300292969</ele>
        <time>2023-09-30T12:58:25.000Z</time>
      </trkpt>
      <trkpt lat="41.63991" lon="20.17379">
        <ele>1133.5300292969</ele>
        <time>2023-09-30T12:58:24.000Z</time>
      </trkpt>
      <trkpt lat="41.63992" lon="20.17385">
        <ele>1133.0500488281</ele>
        <time>2023-09-30T12:58:23.000Z</time>
      </trkpt>
      <trkpt lat="41.63994" lon="20.17391">
        <ele>1132.5699462891</ele>
        <time>2023-09-30T12:58:22.000Z</time>
      </trkpt>
      <trkpt lat="41.63998" lon="20.174">
        <ele>1132.0899658203</ele>
        <time>2023-09-30T12:58:21.000Z</time>
      </trkpt>
      <trkpt lat="41.64005" lon="20.1741">
        <ele>1130.6500244141</ele>
        <time>2023-09-30T12:58:20.000Z</time>
      </trkpt>
      <trkpt lat="41.64008" lon="20.17413">
        <ele>1130.6500244141</ele>
        <time>2023-09-30T12:58:19.000Z</time>
      </trkpt>
      <trkpt lat="41.64019" lon="20.17425">
        <ele>1129.6899414062</ele>
        <time>2023-09-30T12:58:18.000Z</time>
      </trkpt>
      <trkpt lat="41.64026" lon="20.17433">
        <ele>1129.2099609375</ele>
        <time>2023-09-30T12:58:17.000Z</time>
      </trkpt>
      <trkpt lat="41.64037" lon="20.17443">
        <ele>1127.7600097656</ele>
        <time>2023-09-30T12:58:16.000Z</time>
      </trkpt>
      <trkpt lat="41.64044" lon="20.17451">
        <ele>1127.2800292969</ele>
        <time>2023-09-30T12:58:15.000Z</time>
      </trkpt>
      <trkpt lat="41.64048" lon="20.17457">
        <ele>1127.2800292969</ele>
        <time>2023-09-30T12:58:14.000Z</time>
      </trkpt>
      <trkpt lat="41.64057" lon="20.17472">
        <ele>1126.8000488281</ele>
        <time>2023-09-30T12:58:13.000Z</time>
      </trkpt>
      <trkpt lat="41.64065" lon="20.17484">
        <ele>1126.3199462891</ele>
        <time>2023-09-30T12:58:12.000Z</time>
      </trkpt>
      <trkpt lat="41.64075" lon="20.17498">
        <ele>1126.3199462891</ele>
        <time>2023-09-30T12:58:11.000Z</time>
      </trkpt>
      <trkpt lat="41.64082" lon="20.17507">
        <ele>1125.8399658203</ele>
        <time>2023-09-30T12:58:10.000Z</time>
      </trkpt>
      <trkpt lat="41.6409" lon="20.17513">
        <ele>1124.8800048828</ele>
        <time>2023-09-30T12:58:09.000Z</time>
      </trkpt>
      <trkpt lat="41.64097" lon="20.1752">
        <ele>1124.8800048828</ele>
        <time>2023-09-30T12:58:08.000Z</time>
      </trkpt>
      <trkpt lat="41.64102" lon="20.17527">
        <ele>1124.8800048828</ele>
        <time>2023-09-30T12:58:07.000Z</time>
      </trkpt>
      <trkpt lat="41.64105" lon="20.17535">
        <ele>1124.8800048828</ele>
        <time>2023-09-30T12:58:06.000Z</time>
      </trkpt>
      <trkpt lat="41.64106" lon="20.17546">
        <ele>1124.4000244141</ele>
        <time>2023-09-30T12:58:05.000Z</time>
      </trkpt>
      <trkpt lat="41.64108" lon="20.17557">
        <ele>1124.4000244141</ele>
        <time>2023-09-30T12:58:04.000Z</time>
      </trkpt>
      <trkpt lat="41.64109" lon="20.17559">
        <ele>1123.9200439453</ele>
        <time>2023-09-30T12:58:03.000Z</time>
      </trkpt>
      <trkpt lat="41.64113" lon="20.17573">
        <ele>1123.4399414062</ele>
        <time>2023-09-30T12:58:02.000Z</time>
      </trkpt>
      <trkpt lat="41.64118" lon="20.17589">
        <ele>1122.9599609375</ele>
        <time>2023-09-30T12:58:01.000Z</time>
      </trkpt>
      <trkpt lat="41.64123" lon="20.17608">
        <ele>1122.4799804688</ele>
        <time>2023-09-30T12:58:00.000Z</time>
      </trkpt>
      <trkpt lat="41.64129" lon="20.17636">
        <ele>1122</ele>
        <time>2023-09-30T12:57:58.000Z</time>
      </trkpt>
      <trkpt lat="41.64131" lon="20.17646">
        <ele>1121.5200195312</ele>
        <time>2023-09-30T12:57:57.000Z</time>
      </trkpt>
      <trkpt lat="41.64132" lon="20.17658">
        <ele>1121.0300292969</ele>
        <time>2023-09-30T12:57:56.000Z</time>
      </trkpt>
      <trkpt lat="41.64131" lon="20.17664">
        <ele>1121.0300292969</ele>
        <time>2023-09-30T12:57:55.000Z</time>
      </trkpt>
      <trkpt lat="41.64129" lon="20.17679">
        <ele>1121.0300292969</ele>
        <time>2023-09-30T12:57:54.000Z</time>
      </trkpt>
      <trkpt lat="41.64127" lon="20.17691">
        <ele>1120.5500488281</ele>
        <time>2023-09-30T12:57:53.000Z</time>
      </trkpt>
      <trkpt lat="41.64127" lon="20.17704">
        <ele>1120.0699462891</ele>
        <time>2023-09-30T12:57:52.000Z</time>
      </trkpt>
      <trkpt lat="41.64129" lon="20.17715">
        <ele>1120.0699462891</ele>
        <time>2023-09-30T12:57:51.000Z</time>
      </trkpt>
      <trkpt lat="41.64131" lon="20.17726">
        <ele>1119.5899658203</ele>
        <time>2023-09-30T12:57:50.000Z</time>
      </trkpt>
      <trkpt lat="41.64133" lon="20.17731">
        <ele>1119.5899658203</ele>
        <time>2023-09-30T12:57:49.000Z</time>
      </trkpt>
      <trkpt lat="41.64135" lon="20.1774">
        <ele>1119.1099853516</ele>
        <time>2023-09-30T12:57:48.000Z</time>
      </trkpt>
      <trkpt lat="41.64141" lon="20.17754">
        <ele>1118.6300048828</ele>
        <time>2023-09-30T12:57:47.000Z</time>
      </trkpt>
      <trkpt lat="41.64146" lon="20.17764">
        <ele>1118.1500244141</ele>
        <time>2023-09-30T12:57:46.000Z</time>
      </trkpt>
      <trkpt lat="41.64151" lon="20.17772">
        <ele>1117.6700439453</ele>
        <time>2023-09-30T12:57:45.000Z</time>
      </trkpt>
      <trkpt lat="41.64157" lon="20.1778">
        <ele>1117.6700439453</ele>
        <time>2023-09-30T12:57:44.000Z</time>
      </trkpt>
      <trkpt lat="41.64162" lon="20.17785">
        <ele>1117.1899414062</ele>
        <time>2023-09-30T12:57:43.000Z</time>
      </trkpt>
      <trkpt lat="41.64168" lon="20.17791">
        <ele>1117.1899414062</ele>
        <time>2023-09-30T12:57:42.000Z</time>
      </trkpt>
      <trkpt lat="41.64176" lon="20.17797">
        <ele>1116.7099609375</ele>
        <time>2023-09-30T12:57:41.000Z</time>
      </trkpt>
      <trkpt lat="41.64182" lon="20.17802">
        <ele>1116.7099609375</ele>
        <time>2023-09-30T12:57:40.000Z</time>
      </trkpt>
      <trkpt lat="41.64189" lon="20.17806">
        <ele>1116.7099609375</ele>
        <time>2023-09-30T12:57:39.000Z</time>
      </trkpt>
      <trkpt lat="41.64192" lon="20.17808">
        <ele>1116.7099609375</ele>
        <time>2023-09-30T12:57:38.000Z</time>
      </trkpt>
      <trkpt lat="41.64203" lon="20.17812">
        <ele>1116.2299804688</ele>
        <time>2023-09-30T12:57:37.000Z</time>
      </trkpt>
      <trkpt lat="41.64208" lon="20.17813">
        <ele>1116.2299804688</ele>
        <time>2023-09-30T12:57:36.000Z</time>
      </trkpt>
      <trkpt lat="41.64222" lon="20.1782">
        <ele>1115.2700195312</ele>
        <time>2023-09-30T12:57:35.000Z</time>
      </trkpt>
      <trkpt lat="41.6423" lon="20.17823">
        <ele>1115.2700195312</ele>
        <time>2023-09-30T12:57:34.000Z</time>
      </trkpt>
      <trkpt lat="41.64237" lon="20.17824">
        <ele>1115.2700195312</ele>
        <time>2023-09-30T12:57:33.000Z</time>
      </trkpt>
      <trkpt lat="41.64242" lon="20.17824">
        <ele>1114.7900390625</ele>
        <time>2023-09-30T12:57:32.000Z</time>
      </trkpt>
      <trkpt lat="41.64249" lon="20.17823">
        <ele>1114.7900390625</ele>
        <time>2023-09-30T12:57:31.000Z</time>
      </trkpt>
      <trkpt lat="41.64254" lon="20.17824">
        <ele>1114.3100585938</ele>
        <time>2023-09-30T12:57:30.000Z</time>
      </trkpt>
      <trkpt lat="41.64258" lon="20.17828">
        <ele>1113.8199462891</ele>
        <time>2023-09-30T12:57:29.000Z</time>
      </trkpt>
      <trkpt lat="41.64262" lon="20.17834">
        <ele>1114.3100585938</ele>
        <time>2023-09-30T12:57:28.000Z</time>
      </trkpt>
      <trkpt lat="41.64265" lon="20.1784">
        <ele>1113.8199462891</ele>
        <time>2023-09-30T12:57:27.000Z</time>
      </trkpt>
      <trkpt lat="41.64266" lon="20.17844">
        <ele>1113.8199462891</ele>
        <time>2023-09-30T12:57:26.000Z</time>
      </trkpt>
      <trkpt lat="41.64271" lon="20.17859">
        <ele>1113.3399658203</ele>
        <time>2023-09-30T12:57:25.000Z</time>
      </trkpt>
      <trkpt lat="41.64274" lon="20.17867">
        <ele>1112.8599853516</ele>
        <time>2023-09-30T12:57:24.000Z</time>
      </trkpt>
      <trkpt lat="41.64278" lon="20.17875">
        <ele>1112.3800048828</ele>
        <time>2023-09-30T12:57:23.000Z</time>
      </trkpt>
      <trkpt lat="41.64281" lon="20.1788">
        <ele>1111.9000244141</ele>
        <time>2023-09-30T12:57:22.000Z</time>
      </trkpt>
      <trkpt lat="41.64291" lon="20.17895">
        <ele>1111.4200439453</ele>
        <time>2023-09-30T12:57:21.000Z</time>
      </trkpt>
      <trkpt lat="41.64292" lon="20.17897">
        <ele>1110.9399414062</ele>
        <time>2023-09-30T12:57:20.000Z</time>
      </trkpt>
      <trkpt lat="41.64303" lon="20.17917">
        <ele>1109.9799804688</ele>
        <time>2023-09-30T12:57:19.000Z</time>
      </trkpt>
      <trkpt lat="41.6431" lon="20.17928">
        <ele>1109.9799804688</ele>
        <time>2023-09-30T12:57:18.000Z</time>
      </trkpt>
      <trkpt lat="41.64316" lon="20.17937">
        <ele>1109.5</ele>
        <time>2023-09-30T12:57:17.000Z</time>
      </trkpt>
      <trkpt lat="41.64319" lon="20.1794">
        <ele>1109.0200195312</ele>
        <time>2023-09-30T12:57:16.000Z</time>
      </trkpt>
      <trkpt lat="41.64332" lon="20.17952">
        <ele>1108.5400390625</ele>
        <time>2023-09-30T12:57:15.000Z</time>
      </trkpt>
      <trkpt lat="41.64347" lon="20.17967">
        <ele>1107.5799560547</ele>
        <time>2023-09-30T12:57:13.000Z</time>
      </trkpt>
      <trkpt lat="41.64349" lon="20.1797">
        <ele>1107.0999755859</ele>
        <time>2023-09-30T12:57:12.000Z</time>
      </trkpt>
      <trkpt lat="41.64361" lon="20.17982">
        <ele>1105.6500244141</ele>
        <time>2023-09-30T12:57:11.000Z</time>
      </trkpt>
      <trkpt lat="41.64365" lon="20.17986">
        <ele>1105.1700439453</ele>
        <time>2023-09-30T12:57:10.000Z</time>
      </trkpt>
      <trkpt lat="41.64372" lon="20.17993">
        <ele>1104.6899414062</ele>
        <time>2023-09-30T12:57:09.000Z</time>
      </trkpt>
      <trkpt lat="41.64382" lon="20.18001">
        <ele>1104.2099609375</ele>
        <time>2023-09-30T12:57:08.000Z</time>
      </trkpt>
      <trkpt lat="41.64387" lon="20.18006">
        <ele>1103.25</ele>
        <time>2023-09-30T12:57:07.000Z</time>
      </trkpt>
      <trkpt lat="41.64392" lon="20.18013">
        <ele>1102.7700195312</ele>
        <time>2023-09-30T12:57:06.000Z</time>
      </trkpt>
      <trkpt lat="41.64393" lon="20.18015">
        <ele>1102.7700195312</ele>
        <time>2023-09-30T12:57:05.000Z</time>
      </trkpt>
      <trkpt lat="41.64401" lon="20.18032">
        <ele>1101.8100585938</ele>
        <time>2023-09-30T12:57:04.000Z</time>
      </trkpt>
      <trkpt lat="41.64405" lon="20.18041">
        <ele>1101.3299560547</ele>
        <time>2023-09-30T12:57:03.000Z</time>
      </trkpt>
      <trkpt lat="41.64411" lon="20.18051">
        <ele>1100.8499755859</ele>
        <time>2023-09-30T12:57:02.000Z</time>
      </trkpt>
      <trkpt lat="41.64416" lon="20.18058">
        <ele>1100.3699951172</ele>
        <time>2023-09-30T12:57:01.000Z</time>
      </trkpt>
      <trkpt lat="41.64422" lon="20.18063">
        <ele>1099.8900146484</ele>
        <time>2023-09-30T12:57:00.000Z</time>
      </trkpt>
      <trkpt lat="41.64429" lon="20.18067">
        <ele>1099.4000244141</ele>
        <time>2023-09-30T12:56:59.000Z</time>
      </trkpt>
      <trkpt lat="41.64434" lon="20.18068">
        <ele>1098.4399414062</ele>
        <time>2023-09-30T12:56:58.000Z</time>
      </trkpt>
      <trkpt lat="41.64443" lon="20.1807">
        <ele>1097.4799804688</ele>
        <time>2023-09-30T12:56:57.000Z</time>
      </trkpt>
      <trkpt lat="41.64449" lon="20.18072">
        <ele>1097</ele>
        <time>2023-09-30T12:56:56.000Z</time>
      </trkpt>
      <trkpt lat="41.64465" lon="20.18083">
        <ele>1096.0400390625</ele>
        <time>2023-09-30T12:56:54.000Z</time>
      </trkpt>
      <trkpt lat="41.64472" lon="20.18088">
        <ele>1096.0400390625</ele>
        <time>2023-09-30T12:56:53.000Z</time>
      </trkpt>
      <trkpt lat="41.64482" lon="20.18095">
        <ele>1095.5600585938</ele>
        <time>2023-09-30T12:56:52.000Z</time>
      </trkpt>
      <trkpt lat="41.64488" lon="20.18099">
        <ele>1095.0799560547</ele>
        <time>2023-09-30T12:56:51.000Z</time>
      </trkpt>
      <trkpt lat="41.64495" lon="20.18106">
        <ele>1095.0799560547</ele>
        <time>2023-09-30T12:56:50.000Z</time>
      </trkpt>
      <trkpt lat="41.645" lon="20.18113">
        <ele>1094.5999755859</ele>
        <time>2023-09-30T12:56:49.000Z</time>
      </trkpt>
      <trkpt lat="41.64504" lon="20.18121">
        <ele>1094.1199951172</ele>
        <time>2023-09-30T12:56:48.000Z</time>
      </trkpt>
      <trkpt lat="41.64509" lon="20.18133">
        <ele>1093.1600341797</ele>
        <time>2023-09-30T12:56:47.000Z</time>
      </trkpt>
      <trkpt lat="41.64513" lon="20.18144">
        <ele>1092.6800537109</ele>
        <time>2023-09-30T12:56:46.000Z</time>
      </trkpt>
      <trkpt lat="41.64516" lon="20.18154">
        <ele>1092.6800537109</ele>
        <time>2023-09-30T12:56:45.000Z</time>
      </trkpt>
      <trkpt lat="41.64519" lon="20.18163">
        <ele>1092.1999511719</ele>
        <time>2023-09-30T12:56:44.000Z</time>
      </trkpt>
      <trkpt lat="41.64521" lon="20.18178">
        <ele>1091.2299804688</ele>
        <time>2023-09-30T12:56:43.000Z</time>
      </trkpt>
      <trkpt lat="41.64521" lon="20.18187">
        <ele>1091.2299804688</ele>
        <time>2023-09-30T12:56:42.000Z</time>
      </trkpt>
      <trkpt lat="41.64519" lon="20.18198">
        <ele>1090.75</ele>
        <time>2023-09-30T12:56:41.000Z</time>
      </trkpt>
      <trkpt lat="41.64516" lon="20.18207">
        <ele>1090.2700195312</ele>
        <time>2023-09-30T12:56:40.000Z</time>
      </trkpt>
      <trkpt lat="41.64512" lon="20.18217">
        <ele>1089.7900390625</ele>
        <time>2023-09-30T12:56:39.000Z</time>
      </trkpt>
      <trkpt lat="41.6451" lon="20.18225">
        <ele>1089.3100585938</ele>
        <time>2023-09-30T12:56:38.000Z</time>
      </trkpt>
      <trkpt lat="41.64509" lon="20.18231">
        <ele>1089.3100585938</ele>
        <time>2023-09-30T12:56:37.000Z</time>
      </trkpt>
      <trkpt lat="41.6451" lon="20.18236">
        <ele>1089.3100585938</ele>
        <time>2023-09-30T12:56:36.000Z</time>
      </trkpt>
      <trkpt lat="41.64513" lon="20.18242">
        <ele>1088.8299560547</ele>
        <time>2023-09-30T12:56:35.000Z</time>
      </trkpt>
      <trkpt lat="41.64519" lon="20.18249">
        <ele>1087.8699951172</ele>
        <time>2023-09-30T12:56:34.000Z</time>
      </trkpt>
      <trkpt lat="41.64524" lon="20.18255">
        <ele>1087.8699951172</ele>
        <time>2023-09-30T12:56:33.000Z</time>
      </trkpt>
      <trkpt lat="41.64529" lon="20.18259">
        <ele>1087.8699951172</ele>
        <time>2023-09-30T12:56:32.000Z</time>
      </trkpt>
      <trkpt lat="41.64532" lon="20.18265">
        <ele>1087.8699951172</ele>
        <time>2023-09-30T12:56:31.000Z</time>
      </trkpt>
      <trkpt lat="41.64537" lon="20.18272">
        <ele>1087.3900146484</ele>
        <time>2023-09-30T12:56:30.000Z</time>
      </trkpt>
      <trkpt lat="41.64541" lon="20.18282">
        <ele>1086.9100341797</ele>
        <time>2023-09-30T12:56:29.000Z</time>
      </trkpt>
      <trkpt lat="41.64542" lon="20.18286">
        <ele>1086.4300537109</ele>
        <time>2023-09-30T12:56:28.000Z</time>
      </trkpt>
      <trkpt lat="41.64548" lon="20.18303">
        <ele>1085.9499511719</ele>
        <time>2023-09-30T12:56:27.000Z</time>
      </trkpt>
      <trkpt lat="41.64552" lon="20.18318">
        <ele>1085.4699707031</ele>
        <time>2023-09-30T12:56:26.000Z</time>
      </trkpt>
      <trkpt lat="41.64557" lon="20.18342">
        <ele>1084.9899902344</ele>
        <time>2023-09-30T12:56:24.000Z</time>
      </trkpt>
      <trkpt lat="41.6456" lon="20.18359">
        <ele>1084.0200195312</ele>
        <time>2023-09-30T12:56:23.000Z</time>
      </trkpt>
      <trkpt lat="41.64565" lon="20.18383">
        <ele>1082.5799560547</ele>
        <time>2023-09-30T12:56:21.000Z</time>
      </trkpt>
      <trkpt lat="41.64568" lon="20.18392">
        <ele>1082.5799560547</ele>
        <time>2023-09-30T12:56:20.000Z</time>
      </trkpt>
      <trkpt lat="41.64569" lon="20.18399">
        <ele>1082.0999755859</ele>
        <time>2023-09-30T12:56:19.000Z</time>
      </trkpt>
      <trkpt lat="41.64571" lon="20.18413">
        <ele>1081.6199951172</ele>
        <time>2023-09-30T12:56:18.000Z</time>
      </trkpt>
      <trkpt lat="41.64574" lon="20.18435">
        <ele>1081.1400146484</ele>
        <time>2023-09-30T12:56:17.000Z</time>
      </trkpt>
      <trkpt lat="41.64577" lon="20.18451">
        <ele>1080.6600341797</ele>
        <time>2023-09-30T12:56:16.000Z</time>
      </trkpt>
      <trkpt lat="41.6458" lon="20.18464">
        <ele>1080.6600341797</ele>
        <time>2023-09-30T12:56:15.000Z</time>
      </trkpt>
      <trkpt lat="41.64582" lon="20.18474">
        <ele>1080.6600341797</ele>
        <time>2023-09-30T12:56:14.000Z</time>
      </trkpt>
      <trkpt lat="41.64585" lon="20.18482">
        <ele>1080.1800537109</ele>
        <time>2023-09-30T12:56:13.000Z</time>
      </trkpt>
      <trkpt lat="41.64587" lon="20.1849">
        <ele>1079.6999511719</ele>
        <time>2023-09-30T12:56:12.000Z</time>
      </trkpt>
      <trkpt lat="41.64589" lon="20.18497">
        <ele>1079.2199707031</ele>
        <time>2023-09-30T12:56:11.000Z</time>
      </trkpt>
      <trkpt lat="41.64583" lon="20.18509">
        <ele>1077.7800292969</ele>
        <time>2023-09-30T12:56:08.000Z</time>
      </trkpt>
      <trkpt lat="41.64578" lon="20.18511">
        <ele>1076.8100585938</ele>
        <time>2023-09-30T12:56:07.000Z</time>
      </trkpt>
      <trkpt lat="41.64572" lon="20.18511">
        <ele>1075.3699951172</ele>
        <time>2023-09-30T12:56:06.000Z</time>
      </trkpt>
      <trkpt lat="41.64566" lon="20.18509">
        <ele>1074.8900146484</ele>
        <time>2023-09-30T12:56:05.000Z</time>
      </trkpt>
      <trkpt lat="41.64561" lon="20.18506">
        <ele>1073.9300537109</ele>
        <time>2023-09-30T12:56:04.000Z</time>
      </trkpt>
      <trkpt lat="41.64557" lon="20.185">
        <ele>1073.4499511719</ele>
        <time>2023-09-30T12:56:03.000Z</time>
      </trkpt>
      <trkpt lat="41.64555" lon="20.18492">
        <ele>1072.9699707031</ele>
        <time>2023-09-30T12:56:02.000Z</time>
      </trkpt>
      <trkpt lat="41.64555" lon="20.18485">
        <ele>1072.4899902344</ele>
        <time>2023-09-30T12:56:01.000Z</time>
      </trkpt>
      <trkpt lat="41.64556" lon="20.18472">
        <ele>1071.5300292969</ele>
        <time>2023-09-30T12:56:00.000Z</time>
      </trkpt>
      <trkpt lat="41.64556" lon="20.18461">
        <ele>1071.0500488281</ele>
        <time>2023-09-30T12:55:59.000Z</time>
      </trkpt>
      <trkpt lat="41.64555" lon="20.18452">
        <ele>1070.5699462891</ele>
        <time>2023-09-30T12:55:58.000Z</time>
      </trkpt>
      <trkpt lat="41.64552" lon="20.1844">
        <ele>1070.0799560547</ele>
        <time>2023-09-30T12:55:57.000Z</time>
      </trkpt>
      <trkpt lat="41.6455" lon="20.18435">
        <ele>1070.0799560547</ele>
        <time>2023-09-30T12:55:56.000Z</time>
      </trkpt>
      <trkpt lat="41.64539" lon="20.18413">
        <ele>1068.1600341797</ele>
        <time>2023-09-30T12:55:54.000Z</time>
      </trkpt>
      <trkpt lat="41.64535" lon="20.18406">
        <ele>1067.6800537109</ele>
        <time>2023-09-30T12:55:53.000Z</time>
      </trkpt>
      <trkpt lat="41.64521" lon="20.18389">
        <ele>1066.2399902344</ele>
        <time>2023-09-30T12:55:51.000Z</time>
      </trkpt>
      <trkpt lat="41.64515" lon="20.1838">
        <ele>1065.7600097656</ele>
        <time>2023-09-30T12:55:50.000Z</time>
      </trkpt>
      <trkpt lat="41.6451" lon="20.18372">
        <ele>1064.8000488281</ele>
        <time>2023-09-30T12:55:49.000Z</time>
      </trkpt>
      <trkpt lat="41.64507" lon="20.18363">
        <ele>1064.3199462891</ele>
        <time>2023-09-30T12:55:48.000Z</time>
      </trkpt>
      <trkpt lat="41.64506" lon="20.18356">
        <ele>1063.8399658203</ele>
        <time>2023-09-30T12:55:47.000Z</time>
      </trkpt>
      <trkpt lat="41.64504" lon="20.18346">
        <ele>1062.8699951172</ele>
        <time>2023-09-30T12:55:46.000Z</time>
      </trkpt>
      <trkpt lat="41.64502" lon="20.18337">
        <ele>1062.3900146484</ele>
        <time>2023-09-30T12:55:45.000Z</time>
      </trkpt>
      <trkpt lat="41.64499" lon="20.1833">
        <ele>1061.4300537109</ele>
        <time>2023-09-30T12:55:44.000Z</time>
      </trkpt>
      <trkpt lat="41.64493" lon="20.18323">
        <ele>1060.9499511719</ele>
        <time>2023-09-30T12:55:43.000Z</time>
      </trkpt>
      <trkpt lat="41.64492" lon="20.18322">
        <ele>1060.4699707031</ele>
        <time>2023-09-30T12:55:42.000Z</time>
      </trkpt>
      <trkpt lat="41.64481" lon="20.18313">
        <ele>1059.5100097656</ele>
        <time>2023-09-30T12:55:41.000Z</time>
      </trkpt>
      <trkpt lat="41.64475" lon="20.18306">
        <ele>1058.0699462891</ele>
        <time>2023-09-30T12:55:40.000Z</time>
      </trkpt>
      <trkpt lat="41.6447" lon="20.18298">
        <ele>1057.1099853516</ele>
        <time>2023-09-30T12:55:39.000Z</time>
      </trkpt>
      <trkpt lat="41.64467" lon="20.18293">
        <ele>1056.6300048828</ele>
        <time>2023-09-30T12:55:38.000Z</time>
      </trkpt>
      <trkpt lat="41.64458" lon="20.18276">
        <ele>1055.1800537109</ele>
        <time>2023-09-30T12:55:36.000Z</time>
      </trkpt>
      <trkpt lat="41.64452" lon="20.18263">
        <ele>1054.2199707031</ele>
        <time>2023-09-30T12:55:35.000Z</time>
      </trkpt>
      <trkpt lat="41.64449" lon="20.18254">
        <ele>1053.7399902344</ele>
        <time>2023-09-30T12:55:34.000Z</time>
      </trkpt>
      <trkpt lat="41.64447" lon="20.18246">
        <ele>1053.2600097656</ele>
        <time>2023-09-30T12:55:33.000Z</time>
      </trkpt>
      <trkpt lat="41.64445" lon="20.1824">
        <ele>1052.7800292969</ele>
        <time>2023-09-30T12:55:32.000Z</time>
      </trkpt>
      <trkpt lat="41.64444" lon="20.18238">
        <ele>1052.7800292969</ele>
        <time>2023-09-30T12:55:31.000Z</time>
      </trkpt>
      <trkpt lat="41.64433" lon="20.18238">
        <ele>1052.3000488281</ele>
        <time>2023-09-30T12:55:28.000Z</time>
      </trkpt>
      <trkpt lat="41.64432" lon="20.18244">
        <ele>1052.3000488281</ele>
        <time>2023-09-30T12:55:27.000Z</time>
      </trkpt>
      <trkpt lat="41.64432" lon="20.1825">
        <ele>1052.3000488281</ele>
        <time>2023-09-30T12:55:26.000Z</time>
      </trkpt>
      <trkpt lat="41.64435" lon="20.1826">
        <ele>1051.8199462891</ele>
        <time>2023-09-30T12:55:25.000Z</time>
      </trkpt>
      <trkpt lat="41.64438" lon="20.18269">
        <ele>1051.8199462891</ele>
        <time>2023-09-30T12:55:24.000Z</time>
      </trkpt>
      <trkpt lat="41.64443" lon="20.18282">
        <ele>1051.3399658203</ele>
        <time>2023-09-30T12:55:23.000Z</time>
      </trkpt>
      <trkpt lat="41.64457" lon="20.18312">
        <ele>1050.8599853516</ele>
        <time>2023-09-30T12:55:20.000Z</time>
      </trkpt>
      <trkpt lat="41.64465" lon="20.18325">
        <ele>1050.3800048828</ele>
        <time>2023-09-30T12:55:19.000Z</time>
      </trkpt>
      <trkpt lat="41.64469" lon="20.1833">
        <ele>1050.3800048828</ele>
        <time>2023-09-30T12:55:18.000Z</time>
      </trkpt>
      <trkpt lat="41.64474" lon="20.1834">
        <ele>1049.9000244141</ele>
        <time>2023-09-30T12:55:17.000Z</time>
      </trkpt>
      <trkpt lat="41.64477" lon="20.18348">
        <ele>1049.9000244141</ele>
        <time>2023-09-30T12:55:16.000Z</time>
      </trkpt>
      <trkpt lat="41.64478" lon="20.18357">
        <ele>1049.4200439453</ele>
        <time>2023-09-30T12:55:15.000Z</time>
      </trkpt>
      <trkpt lat="41.64478" lon="20.18362">
        <ele>1049.4200439453</ele>
        <time>2023-09-30T12:55:14.000Z</time>
      </trkpt>
      <trkpt lat="41.64477" lon="20.18372">
        <ele>1048.9399414062</ele>
        <time>2023-09-30T12:55:13.000Z</time>
      </trkpt>
      <trkpt lat="41.64478" lon="20.18381">
        <ele>1047.9699707031</ele>
        <time>2023-09-30T12:55:12.000Z</time>
      </trkpt>
      <trkpt lat="41.6448" lon="20.18388">
        <ele>1047.4899902344</ele>
        <time>2023-09-30T12:55:11.000Z</time>
      </trkpt>
      <trkpt lat="41.64483" lon="20.18396">
        <ele>1047.0100097656</ele>
        <time>2023-09-30T12:55:10.000Z</time>
      </trkpt>
      <trkpt lat="41.64489" lon="20.18405">
        <ele>1046.0500488281</ele>
        <time>2023-09-30T12:55:09.000Z</time>
      </trkpt>
      <trkpt lat="41.6449" lon="20.18407">
        <ele>1046.0500488281</ele>
        <time>2023-09-30T12:55:08.000Z</time>
      </trkpt>
      <trkpt lat="41.64502" lon="20.18421">
        <ele>1045.0899658203</ele>
        <time>2023-09-30T12:55:07.000Z</time>
      </trkpt>
      <trkpt lat="41.64508" lon="20.18428">
        <ele>1044.6099853516</ele>
        <time>2023-09-30T12:55:06.000Z</time>
      </trkpt>
      <trkpt lat="41.64512" lon="20.18438">
        <ele>1044.1300048828</ele>
        <time>2023-09-30T12:55:05.000Z</time>
      </trkpt>
      <trkpt lat="41.64515" lon="20.18448">
        <ele>1043.1700439453</ele>
        <time>2023-09-30T12:55:04.000Z</time>
      </trkpt>
      <trkpt lat="41.64517" lon="20.18462">
        <ele>1042.6899414062</ele>
        <time>2023-09-30T12:55:03.000Z</time>
      </trkpt>
      <trkpt lat="41.64517" lon="20.18467">
        <ele>1042.2099609375</ele>
        <time>2023-09-30T12:55:02.000Z</time>
      </trkpt>
      <trkpt lat="41.64517" lon="20.18531">
        <ele>1039.8000488281</ele>
        <time>2023-09-30T12:54:58.000Z</time>
      </trkpt>
      <trkpt lat="41.64516" lon="20.18543">
        <ele>1038.8399658203</ele>
        <time>2023-09-30T12:54:57.000Z</time>
      </trkpt>
      <trkpt lat="41.64515" lon="20.18552">
        <ele>1038.8399658203</ele>
        <time>2023-09-30T12:54:56.000Z</time>
      </trkpt>
      <trkpt lat="41.64512" lon="20.18566">
        <ele>1037.8800048828</ele>
        <time>2023-09-30T12:54:55.000Z</time>
      </trkpt>
      <trkpt lat="41.64509" lon="20.18578">
        <ele>1037.4000244141</ele>
        <time>2023-09-30T12:54:54.000Z</time>
      </trkpt>
      <trkpt lat="41.64507" lon="20.18588">
        <ele>1036.9200439453</ele>
        <time>2023-09-30T12:54:53.000Z</time>
      </trkpt>
      <trkpt lat="41.64506" lon="20.18592">
        <ele>1036.4399414062</ele>
        <time>2023-09-30T12:54:52.000Z</time>
      </trkpt>
      <trkpt lat="41.64505" lon="20.18604">
        <ele>1036.4399414062</ele>
        <time>2023-09-30T12:54:51.000Z</time>
      </trkpt>
      <trkpt lat="41.64504" lon="20.18617">
        <ele>1035.4799804688</ele>
        <time>2023-09-30T12:54:50.000Z</time>
      </trkpt>
      <trkpt lat="41.64504" lon="20.18626">
        <ele>1034.5200195312</ele>
        <time>2023-09-30T12:54:49.000Z</time>
      </trkpt>
      <trkpt lat="41.64504" lon="20.18635">
        <ele>1034.0400390625</ele>
        <time>2023-09-30T12:54:48.000Z</time>
      </trkpt>
      <trkpt lat="41.64505" lon="20.18649">
        <ele>1033.5500488281</ele>
        <time>2023-09-30T12:54:47.000Z</time>
      </trkpt>
      <trkpt lat="41.64505" lon="20.18678">
        <ele>1032.1099853516</ele>
        <time>2023-09-30T12:54:44.000Z</time>
      </trkpt>
      <trkpt lat="41.64508" lon="20.18688">
        <ele>1031.6300048828</ele>
        <time>2023-09-30T12:54:43.000Z</time>
      </trkpt>
      <trkpt lat="41.64511" lon="20.18696">
        <ele>1031.6300048828</ele>
        <time>2023-09-30T12:54:42.000Z</time>
      </trkpt>
      <trkpt lat="41.64516" lon="20.18702">
        <ele>1030.6700439453</ele>
        <time>2023-09-30T12:54:41.000Z</time>
      </trkpt>
      <trkpt lat="41.64522" lon="20.18707">
        <ele>1030.1899414062</ele>
        <time>2023-09-30T12:54:40.000Z</time>
      </trkpt>
      <trkpt lat="41.64529" lon="20.1871">
        <ele>1030.1899414062</ele>
        <time>2023-09-30T12:54:39.000Z</time>
      </trkpt>
      <trkpt lat="41.64572" lon="20.18732">
        <ele>1027.7900390625</ele>
        <time>2023-09-30T12:54:34.000Z</time>
      </trkpt>
      <trkpt lat="41.64583" lon="20.18736">
        <ele>1026.8299560547</ele>
        <time>2023-09-30T12:54:33.000Z</time>
      </trkpt>
      <trkpt lat="41.64588" lon="20.18739">
        <ele>1026.8299560547</ele>
        <time>2023-09-30T12:54:32.000Z</time>
      </trkpt>
      <trkpt lat="41.64598" lon="20.18744">
        <ele>1026.3399658203</ele>
        <time>2023-09-30T12:54:31.000Z</time>
      </trkpt>
      <trkpt lat="41.64616" lon="20.18755">
        <ele>1025.8599853516</ele>
        <time>2023-09-30T12:54:29.000Z</time>
      </trkpt>
      <trkpt lat="41.64623" lon="20.18759">
        <ele>1025.3800048828</ele>
        <time>2023-09-30T12:54:28.000Z</time>
      </trkpt>
      <trkpt lat="41.64629" lon="20.18763">
        <ele>1024.9000244141</ele>
        <time>2023-09-30T12:54:27.000Z</time>
      </trkpt>
      <trkpt lat="41.64634" lon="20.18769">
        <ele>1024.4200439453</ele>
        <time>2023-09-30T12:54:26.000Z</time>
      </trkpt>
      <trkpt lat="41.64638" lon="20.18775">
        <ele>1023.9400024414</ele>
        <time>2023-09-30T12:54:25.000Z</time>
      </trkpt>
      <trkpt lat="41.6464" lon="20.18782">
        <ele>1023.4600219727</ele>
        <time>2023-09-30T12:54:24.000Z</time>
      </trkpt>
      <trkpt lat="41.64643" lon="20.1879">
        <ele>1022.9799804688</ele>
        <time>2023-09-30T12:54:23.000Z</time>
      </trkpt>
      <trkpt lat="41.64644" lon="20.18796">
        <ele>1022.5</ele>
        <time>2023-09-30T12:54:22.000Z</time>
      </trkpt>
      <trkpt lat="41.64643" lon="20.18801">
        <ele>1021.5399780273</ele>
        <time>2023-09-30T12:54:21.000Z</time>
      </trkpt>
      <trkpt lat="41.6464" lon="20.18807">
        <ele>1021.0599975586</ele>
        <time>2023-09-30T12:54:20.000Z</time>
      </trkpt>
      <trkpt lat="41.64635" lon="20.18811">
        <ele>1020.5800170898</ele>
        <time>2023-09-30T12:54:19.000Z</time>
      </trkpt>
      <trkpt lat="41.64629" lon="20.18813">
        <ele>1019.6199951172</ele>
        <time>2023-09-30T12:54:18.000Z</time>
      </trkpt>
      <trkpt lat="41.64624" lon="20.18813">
        <ele>1018.6500244141</ele>
        <time>2023-09-30T12:54:17.000Z</time>
      </trkpt>
      <trkpt lat="41.64622" lon="20.18813">
        <ele>1018.6500244141</ele>
        <time>2023-09-30T12:54:16.000Z</time>
      </trkpt>
      <trkpt lat="41.64613" lon="20.18812">
        <ele>1017.2100219727</ele>
        <time>2023-09-30T12:54:14.000Z</time>
      </trkpt>
      <trkpt lat="41.64609" lon="20.18809">
        <ele>1016.7299804688</ele>
        <time>2023-09-30T12:54:13.000Z</time>
      </trkpt>
      <trkpt lat="41.64606" lon="20.18805">
        <ele>1015.7700195312</ele>
        <time>2023-09-30T12:54:12.000Z</time>
      </trkpt>
      <trkpt lat="41.64603" lon="20.188">
        <ele>1015.2899780273</ele>
        <time>2023-09-30T12:54:11.000Z</time>
      </trkpt>
      <trkpt lat="41.64601" lon="20.18793">
        <ele>1014.8099975586</ele>
        <time>2023-09-30T12:54:10.000Z</time>
      </trkpt>
      <trkpt lat="41.64598" lon="20.18787">
        <ele>1013.8499755859</ele>
        <time>2023-09-30T12:54:09.000Z</time>
      </trkpt>
      <trkpt lat="41.64593" lon="20.18784">
        <ele>1013.3699951172</ele>
        <time>2023-09-30T12:54:08.000Z</time>
      </trkpt>
      <trkpt lat="41.64586" lon="20.18781">
        <ele>1012.4099731445</ele>
        <time>2023-09-30T12:54:07.000Z</time>
      </trkpt>
      <trkpt lat="41.6457" lon="20.18776">
        <ele>1010.9600219727</ele>
        <time>2023-09-30T12:54:05.000Z</time>
      </trkpt>
      <trkpt lat="41.64563" lon="20.18773">
        <ele>1010</ele>
        <time>2023-09-30T12:54:04.000Z</time>
      </trkpt>
      <trkpt lat="41.64556" lon="20.18772">
        <ele>1009.5200195312</ele>
        <time>2023-09-30T12:54:03.000Z</time>
      </trkpt>
      <trkpt lat="41.64548" lon="20.18769">
        <ele>1009.0399780273</ele>
        <time>2023-09-30T12:54:02.000Z</time>
      </trkpt>
      <trkpt lat="41.6454" lon="20.18766">
        <ele>1008.5599975586</ele>
        <time>2023-09-30T12:54:01.000Z</time>
      </trkpt>
      <trkpt lat="41.64531" lon="20.18762">
        <ele>1007.5999755859</ele>
        <time>2023-09-30T12:54:00.000Z</time>
      </trkpt>
      <trkpt lat="41.64527" lon="20.18758">
        <ele>1007.1199951172</ele>
        <time>2023-09-30T12:53:59.000Z</time>
      </trkpt>
      <trkpt lat="41.64518" lon="20.18752">
        <ele>1006.1599731445</ele>
        <time>2023-09-30T12:53:58.000Z</time>
      </trkpt>
      <trkpt lat="41.6451" lon="20.18747">
        <ele>1005.6799926758</ele>
        <time>2023-09-30T12:53:57.000Z</time>
      </trkpt>
      <trkpt lat="41.64495" lon="20.18737">
        <ele>1004.7199707031</ele>
        <time>2023-09-30T12:53:55.000Z</time>
      </trkpt>
      <trkpt lat="41.64487" lon="20.18732">
        <ele>1003.75</ele>
        <time>2023-09-30T12:53:54.000Z</time>
      </trkpt>
      <trkpt lat="41.6448" lon="20.1873">
        <ele>1003.2700195312</ele>
        <time>2023-09-30T12:53:53.000Z</time>
      </trkpt>
      <trkpt lat="41.64475" lon="20.1873">
        <ele>1003.2700195312</ele>
        <time>2023-09-30T12:53:52.000Z</time>
      </trkpt>
      <trkpt lat="41.64474" lon="20.18731">
        <ele>1002.7899780273</ele>
        <time>2023-09-30T12:53:51.000Z</time>
      </trkpt>
      <trkpt lat="41.64469" lon="20.18743">
        <ele>1001.8300170898</ele>
        <time>2023-09-30T12:53:49.000Z</time>
      </trkpt>
      <trkpt lat="41.6447" lon="20.18748">
        <ele>1001.3499755859</ele>
        <time>2023-09-30T12:53:48.000Z</time>
      </trkpt>
      <trkpt lat="41.64473" lon="20.18752">
        <ele>1000.8699951172</ele>
        <time>2023-09-30T12:53:47.000Z</time>
      </trkpt>
      <trkpt lat="41.64477" lon="20.18755">
        <ele>999.90997314453</ele>
        <time>2023-09-30T12:53:46.000Z</time>
      </trkpt>
      <trkpt lat="41.64485" lon="20.18757">
        <ele>999.90997314453</ele>
        <time>2023-09-30T12:53:45.000Z</time>
      </trkpt>
      <trkpt lat="41.64492" lon="20.18759">
        <ele>999.42999267578</ele>
        <time>2023-09-30T12:53:44.000Z</time>
      </trkpt>
      <trkpt lat="41.64502" lon="20.18764">
        <ele>999.42999267578</ele>
        <time>2023-09-30T12:53:43.000Z</time>
      </trkpt>
      <trkpt lat="41.64511" lon="20.18769">
        <ele>998.95001220703</ele>
        <time>2023-09-30T12:53:42.000Z</time>
      </trkpt>
      <trkpt lat="41.64518" lon="20.18776">
        <ele>998.46997070312</ele>
        <time>2023-09-30T12:53:41.000Z</time>
      </trkpt>
      <trkpt lat="41.64525" lon="20.18783">
        <ele>997.98999023438</ele>
        <time>2023-09-30T12:53:40.000Z</time>
      </trkpt>
      <trkpt lat="41.64527" lon="20.18787">
        <ele>997.98999023438</ele>
        <time>2023-09-30T12:53:39.000Z</time>
      </trkpt>
      <trkpt lat="41.64539" lon="20.18808">
        <ele>996.53997802734</ele>
        <time>2023-09-30T12:53:37.000Z</time>
      </trkpt>
      <trkpt lat="41.64543" lon="20.18817">
        <ele>995.58001708984</ele>
        <time>2023-09-30T12:53:36.000Z</time>
      </trkpt>
      <trkpt lat="41.64548" lon="20.18828">
        <ele>994.61999511719</ele>
        <time>2023-09-30T12:53:35.000Z</time>
      </trkpt>
      <trkpt lat="41.6455" lon="20.18835">
        <ele>994.61999511719</ele>
        <time>2023-09-30T12:53:34.000Z</time>
      </trkpt>
      <trkpt lat="41.64555" lon="20.18844">
        <ele>994.14001464844</ele>
        <time>2023-09-30T12:53:33.000Z</time>
      </trkpt>
      <trkpt lat="41.64559" lon="20.18855">
        <ele>993.65997314453</ele>
        <time>2023-09-30T12:53:32.000Z</time>
      </trkpt>
      <trkpt lat="41.64562" lon="20.18862">
        <ele>993.17999267578</ele>
        <time>2023-09-30T12:53:31.000Z</time>
      </trkpt>
      <trkpt lat="41.64567" lon="20.1887">
        <ele>992.21997070312</ele>
        <time>2023-09-30T12:53:30.000Z</time>
      </trkpt>
      <trkpt lat="41.64573" lon="20.18876">
        <ele>991.73999023438</ele>
        <time>2023-09-30T12:53:29.000Z</time>
      </trkpt>
      <trkpt lat="41.64578" lon="20.1888">
        <ele>991.26000976562</ele>
        <time>2023-09-30T12:53:28.000Z</time>
      </trkpt>
      <trkpt lat="41.64583" lon="20.18884">
        <ele>990.78002929688</ele>
        <time>2023-09-30T12:53:27.000Z</time>
      </trkpt>
      <trkpt lat="41.64586" lon="20.18888">
        <ele>989.80999755859</ele>
        <time>2023-09-30T12:53:26.000Z</time>
      </trkpt>
      <trkpt lat="41.64587" lon="20.1889">
        <ele>989.33001708984</ele>
        <time>2023-09-30T12:53:25.000Z</time>
      </trkpt>
      <trkpt lat="41.64586" lon="20.18901">
        <ele>987.89001464844</ele>
        <time>2023-09-30T12:53:23.000Z</time>
      </trkpt>
      <trkpt lat="41.64582" lon="20.18903">
        <ele>987.40997314453</ele>
        <time>2023-09-30T12:53:22.000Z</time>
      </trkpt>
      <trkpt lat="41.64577" lon="20.18903">
        <ele>986.92999267578</ele>
        <time>2023-09-30T12:53:21.000Z</time>
      </trkpt>
      <trkpt lat="41.64572" lon="20.18901">
        <ele>985.96997070312</ele>
        <time>2023-09-30T12:53:20.000Z</time>
      </trkpt>
      <trkpt lat="41.64567" lon="20.18898">
        <ele>985.48999023438</ele>
        <time>2023-09-30T12:53:19.000Z</time>
      </trkpt>
      <trkpt lat="41.64563" lon="20.18894">
        <ele>985.48999023438</ele>
        <time>2023-09-30T12:53:18.000Z</time>
      </trkpt>
      <trkpt lat="41.64557" lon="20.18886">
        <ele>985.01000976562</ele>
        <time>2023-09-30T12:53:17.000Z</time>
      </trkpt>
      <trkpt lat="41.64552" lon="20.18879">
        <ele>984.53002929688</ele>
        <time>2023-09-30T12:53:16.000Z</time>
      </trkpt>
      <trkpt lat="41.64548" lon="20.18872">
        <ele>984.04998779297</ele>
        <time>2023-09-30T12:53:15.000Z</time>
      </trkpt>
      <trkpt lat="41.64544" lon="20.18865">
        <ele>984.04998779297</ele>
        <time>2023-09-30T12:53:14.000Z</time>
      </trkpt>
      <trkpt lat="41.64541" lon="20.18861">
        <ele>983.57000732422</ele>
        <time>2023-09-30T12:53:13.000Z</time>
      </trkpt>
      <trkpt lat="41.64537" lon="20.18859">
        <ele>983.57000732422</ele>
        <time>2023-09-30T12:53:12.000Z</time>
      </trkpt>
      <trkpt lat="41.64532" lon="20.18859">
        <ele>983.09002685547</ele>
        <time>2023-09-30T12:53:11.000Z</time>
      </trkpt>
      <trkpt lat="41.64528" lon="20.18862">
        <ele>983.09002685547</ele>
        <time>2023-09-30T12:53:10.000Z</time>
      </trkpt>
      <trkpt lat="41.64525" lon="20.18866">
        <ele>982.59997558594</ele>
        <time>2023-09-30T12:53:09.000Z</time>
      </trkpt>
      <trkpt lat="41.64524" lon="20.18871">
        <ele>982.11999511719</ele>
        <time>2023-09-30T12:53:08.000Z</time>
      </trkpt>
      <trkpt lat="41.64525" lon="20.18877">
        <ele>981.64001464844</ele>
        <time>2023-09-30T12:53:07.000Z</time>
      </trkpt>
      <trkpt lat="41.64527" lon="20.18883">
        <ele>981.15997314453</ele>
        <time>2023-09-30T12:53:06.000Z</time>
      </trkpt>
      <trkpt lat="41.64532" lon="20.18889">
        <ele>980.67999267578</ele>
        <time>2023-09-30T12:53:05.000Z</time>
      </trkpt>
      <trkpt lat="41.64534" lon="20.18894">
        <ele>980.20001220703</ele>
        <time>2023-09-30T12:53:04.000Z</time>
      </trkpt>
      <trkpt lat="41.64545" lon="20.18909">
        <ele>979.71997070312</ele>
        <time>2023-09-30T12:53:03.000Z</time>
      </trkpt>
      <trkpt lat="41.64551" lon="20.18918">
        <ele>978.76000976562</ele>
        <time>2023-09-30T12:53:02.000Z</time>
      </trkpt>
      <trkpt lat="41.64558" lon="20.18925">
        <ele>978.28002929688</ele>
        <time>2023-09-30T12:53:01.000Z</time>
      </trkpt>
      <trkpt lat="41.64561" lon="20.18929">
        <ele>977.79998779297</ele>
        <time>2023-09-30T12:53:00.000Z</time>
      </trkpt>
      <trkpt lat="41.64567" lon="20.18935">
        <ele>976.84002685547</ele>
        <time>2023-09-30T12:52:59.000Z</time>
      </trkpt>
      <trkpt lat="41.64572" lon="20.18939">
        <ele>975.88000488281</ele>
        <time>2023-09-30T12:52:58.000Z</time>
      </trkpt>
      <trkpt lat="41.64577" lon="20.18942">
        <ele>975.39001464844</ele>
        <time>2023-09-30T12:52:57.000Z</time>
      </trkpt>
      <trkpt lat="41.64583" lon="20.18945">
        <ele>975.39001464844</ele>
        <time>2023-09-30T12:52:56.000Z</time>
      </trkpt>
      <trkpt lat="41.64588" lon="20.18945">
        <ele>974.90997314453</ele>
        <time>2023-09-30T12:52:55.000Z</time>
      </trkpt>
      <trkpt lat="41.64595" lon="20.18945">
        <ele>974.42999267578</ele>
        <time>2023-09-30T12:52:54.000Z</time>
      </trkpt>
      <trkpt lat="41.64599" lon="20.18944">
        <ele>973.95001220703</ele>
        <time>2023-09-30T12:52:53.000Z</time>
      </trkpt>
      <trkpt lat="41.64605" lon="20.18942">
        <ele>972.98999023438</ele>
        <time>2023-09-30T12:52:52.000Z</time>
      </trkpt>
      <trkpt lat="41.64613" lon="20.1894">
        <ele>972.51000976562</ele>
        <time>2023-09-30T12:52:51.000Z</time>
      </trkpt>
      <trkpt lat="41.64617" lon="20.18939">
        <ele>972.03002929688</ele>
        <time>2023-09-30T12:52:50.000Z</time>
      </trkpt>
      <trkpt lat="41.64621" lon="20.1894">
        <ele>971.07000732422</ele>
        <time>2023-09-30T12:52:49.000Z</time>
      </trkpt>
      <trkpt lat="41.64623" lon="20.1896">
        <ele>969.15002441406</ele>
        <time>2023-09-30T12:52:44.000Z</time>
      </trkpt>
      <trkpt lat="41.64619" lon="20.18962">
        <ele>968.66998291016</ele>
        <time>2023-09-30T12:52:43.000Z</time>
      </trkpt>
      <trkpt lat="41.64615" lon="20.18963">
        <ele>968.66998291016</ele>
        <time>2023-09-30T12:52:42.000Z</time>
      </trkpt>
      <trkpt lat="41.64611" lon="20.18963">
        <ele>968.17999267578</ele>
        <time>2023-09-30T12:52:41.000Z</time>
      </trkpt>
      <trkpt lat="41.64605" lon="20.18963">
        <ele>968.17999267578</ele>
        <time>2023-09-30T12:52:40.000Z</time>
      </trkpt>
      <trkpt lat="41.64599" lon="20.18963">
        <ele>967.70001220703</ele>
        <time>2023-09-30T12:52:39.000Z</time>
      </trkpt>
      <trkpt lat="41.64595" lon="20.18964">
        <ele>967.70001220703</ele>
        <time>2023-09-30T12:52:38.000Z</time>
      </trkpt>
      <trkpt lat="41.64593" lon="20.18984">
        <ele>966.26000976562</ele>
        <time>2023-09-30T12:52:33.000Z</time>
      </trkpt>
      <trkpt lat="41.64597" lon="20.18986">
        <ele>966.26000976562</ele>
        <time>2023-09-30T12:52:32.000Z</time>
      </trkpt>
      <trkpt lat="41.64601" lon="20.18986">
        <ele>965.78002929688</ele>
        <time>2023-09-30T12:52:31.000Z</time>
      </trkpt>
      <trkpt lat="41.64607" lon="20.18986">
        <ele>965.78002929688</ele>
        <time>2023-09-30T12:52:30.000Z</time>
      </trkpt>
      <trkpt lat="41.64613" lon="20.18984">
        <ele>965.78002929688</ele>
        <time>2023-09-30T12:52:29.000Z</time>
      </trkpt>
      <trkpt lat="41.64618" lon="20.18983">
        <ele>965.29998779297</ele>
        <time>2023-09-30T12:52:28.000Z</time>
      </trkpt>
      <trkpt lat="41.64624" lon="20.18983">
        <ele>964.82000732422</ele>
        <time>2023-09-30T12:52:27.000Z</time>
      </trkpt>
      <trkpt lat="41.64629" lon="20.18984">
        <ele>964.34002685547</ele>
        <time>2023-09-30T12:52:26.000Z</time>
      </trkpt>
      <trkpt lat="41.64634" lon="20.18986">
        <ele>964.34002685547</ele>
        <time>2023-09-30T12:52:25.000Z</time>
      </trkpt>
      <trkpt lat="41.64639" lon="20.1899">
        <ele>964.34002685547</ele>
        <time>2023-09-30T12:52:24.000Z</time>
      </trkpt>
      <trkpt lat="41.64641" lon="20.18993">
        <ele>964.34002685547</ele>
        <time>2023-09-30T12:52:23.000Z</time>
      </trkpt>
      <trkpt lat="41.64649" lon="20.19007">
        <ele>965.29998779297</ele>
        <time>2023-09-30T12:52:19.000Z</time>
      </trkpt>
      <trkpt lat="41.64651" lon="20.19011">
        <ele>964.82000732422</ele>
        <time>2023-09-30T12:52:18.000Z</time>
      </trkpt>
      <trkpt lat="41.64648" lon="20.19027">
        <ele>964.34002685547</ele>
        <time>2023-09-30T12:52:15.000Z</time>
      </trkpt>
      <trkpt lat="41.64645" lon="20.1903">
        <ele>964.34002685547</ele>
        <time>2023-09-30T12:52:14.000Z</time>
      </trkpt>
      <trkpt lat="41.64639" lon="20.19035">
        <ele>964.34002685547</ele>
        <time>2023-09-30T12:52:13.000Z</time>
      </trkpt>
      <trkpt lat="41.64634" lon="20.19038">
        <ele>963.85998535156</ele>
        <time>2023-09-30T12:52:12.000Z</time>
      </trkpt>
      <trkpt lat="41.64631" lon="20.1904">
        <ele>963.85998535156</ele>
        <time>2023-09-30T12:52:11.000Z</time>
      </trkpt>
      <trkpt lat="41.64622" lon="20.19043">
        <ele>963.38000488281</ele>
        <time>2023-09-30T12:52:10.000Z</time>
      </trkpt>
      <trkpt lat="41.64616" lon="20.19045">
        <ele>962.90002441406</ele>
        <time>2023-09-30T12:52:09.000Z</time>
      </trkpt>
      <trkpt lat="41.64609" lon="20.19048">
        <ele>962.41998291016</ele>
        <time>2023-09-30T12:52:08.000Z</time>
      </trkpt>
      <trkpt lat="41.64603" lon="20.19051">
        <ele>962.41998291016</ele>
        <time>2023-09-30T12:52:07.000Z</time>
      </trkpt>
      <trkpt lat="41.64597" lon="20.19055">
        <ele>961.94000244141</ele>
        <time>2023-09-30T12:52:06.000Z</time>
      </trkpt>
      <trkpt lat="41.64591" lon="20.19059">
        <ele>961.94000244141</ele>
        <time>2023-09-30T12:52:05.000Z</time>
      </trkpt>
      <trkpt lat="41.64586" lon="20.19064">
        <ele>961.46002197266</ele>
        <time>2023-09-30T12:52:04.000Z</time>
      </trkpt>
      <trkpt lat="41.64583" lon="20.1907">
        <ele>961.46002197266</ele>
        <time>2023-09-30T12:52:03.000Z</time>
      </trkpt>
      <trkpt lat="41.64581" lon="20.19077">
        <ele>960.97998046875</ele>
        <time>2023-09-30T12:52:02.000Z</time>
      </trkpt>
      <trkpt lat="41.6458" lon="20.19083">
        <ele>960.48999023438</ele>
        <time>2023-09-30T12:52:01.000Z</time>
      </trkpt>
      <trkpt lat="41.64572" lon="20.19092">
        <ele>960.01000976562</ele>
        <time>2023-09-30T12:51:58.000Z</time>
      </trkpt>
      <trkpt lat="41.64567" lon="20.19093">
        <ele>960.01000976562</ele>
        <time>2023-09-30T12:51:57.000Z</time>
      </trkpt>
      <trkpt lat="41.64563" lon="20.19093">
        <ele>960.01000976562</ele>
        <time>2023-09-30T12:51:56.000Z</time>
      </trkpt>
      <trkpt lat="41.64557" lon="20.19094">
        <ele>959.53002929688</ele>
        <time>2023-09-30T12:51:55.000Z</time>
      </trkpt>
      <trkpt lat="41.64554" lon="20.19094">
        <ele>959.53002929688</ele>
        <time>2023-09-30T12:51:54.000Z</time>
      </trkpt>
      <trkpt lat="41.64548" lon="20.19093">
        <ele>959.53002929688</ele>
        <time>2023-09-30T12:51:53.000Z</time>
      </trkpt>
      <trkpt lat="41.64544" lon="20.19092">
        <ele>960.48999023438</ele>
        <time>2023-09-30T12:51:26.000Z</time>
      </trkpt>
      <trkpt lat="41.64537" lon="20.19088">
        <ele>960.01000976562</ele>
        <time>2023-09-30T12:51:20.000Z</time>
      </trkpt>
      <trkpt lat="41.64534" lon="20.19085">
        <ele>959.53002929688</ele>
        <time>2023-09-30T12:51:19.000Z</time>
      </trkpt>
      <trkpt lat="41.64524" lon="20.19079">
        <ele>958.57000732422</ele>
        <time>2023-09-30T12:51:17.000Z</time>
      </trkpt>
      <trkpt lat="41.64517" lon="20.19074">
        <ele>958.09002685547</ele>
        <time>2023-09-30T12:51:16.000Z</time>
      </trkpt>
      <trkpt lat="41.64511" lon="20.1907">
        <ele>957.13000488281</ele>
        <time>2023-09-30T12:51:15.000Z</time>
      </trkpt>
      <trkpt lat="41.64507" lon="20.19067">
        <ele>956.65002441406</ele>
        <time>2023-09-30T12:51:14.000Z</time>
      </trkpt>
      <trkpt lat="41.64499" lon="20.19063">
        <ele>955.69000244141</ele>
        <time>2023-09-30T12:51:13.000Z</time>
      </trkpt>
      <trkpt lat="41.64495" lon="20.19061">
        <ele>955.21002197266</ele>
        <time>2023-09-30T12:51:12.000Z</time>
      </trkpt>
      <trkpt lat="41.64486" lon="20.19057">
        <ele>954.72998046875</ele>
        <time>2023-09-30T12:51:11.000Z</time>
      </trkpt>
      <trkpt lat="41.64478" lon="20.19054">
        <ele>954.25</ele>
        <time>2023-09-30T12:51:10.000Z</time>
      </trkpt>
      <trkpt lat="41.64473" lon="20.19053">
        <ele>954.25</ele>
        <time>2023-09-30T12:51:09.000Z</time>
      </trkpt>
      <trkpt lat="41.64469" lon="20.19052">
        <ele>953.77001953125</ele>
        <time>2023-09-30T12:51:08.000Z</time>
      </trkpt>
      <trkpt lat="41.64465" lon="20.19051">
        <ele>954.25</ele>
        <time>2023-09-30T12:51:07.000Z</time>
      </trkpt>
      <trkpt lat="41.64453" lon="20.19048">
        <ele>955.21002197266</ele>
        <time>2023-09-30T12:51:04.000Z</time>
      </trkpt>
      <trkpt lat="41.64447" lon="20.19047">
        <ele>955.69000244141</ele>
        <time>2023-09-30T12:51:03.000Z</time>
      </trkpt>
      <trkpt lat="41.6444" lon="20.19047">
        <ele>956.16998291016</ele>
        <time>2023-09-30T12:51:02.000Z</time>
      </trkpt>
      <trkpt lat="41.64433" lon="20.19046">
        <ele>956.65002441406</ele>
        <time>2023-09-30T12:51:01.000Z</time>
      </trkpt>
      <trkpt lat="41.64425" lon="20.19044">
        <ele>957.13000488281</ele>
        <time>2023-09-30T12:51:00.000Z</time>
      </trkpt>
      <trkpt lat="41.64419" lon="20.19041">
        <ele>957.60998535156</ele>
        <time>2023-09-30T12:50:59.000Z</time>
      </trkpt>
      <trkpt lat="41.64413" lon="20.19037">
        <ele>958.09002685547</ele>
        <time>2023-09-30T12:50:58.000Z</time>
      </trkpt>
      <trkpt lat="41.64408" lon="20.19033">
        <ele>958.09002685547</ele>
        <time>2023-09-30T12:50:57.000Z</time>
      </trkpt>
      <trkpt lat="41.64405" lon="20.19031">
        <ele>958.09002685547</ele>
        <time>2023-09-30T12:50:56.000Z</time>
      </trkpt>
      <trkpt lat="41.644" lon="20.19028">
        <ele>958.57000732422</ele>
        <time>2023-09-30T12:50:55.000Z</time>
      </trkpt>
      <trkpt lat="41.64394" lon="20.19027">
        <ele>958.57000732422</ele>
        <time>2023-09-30T12:50:54.000Z</time>
      </trkpt>
      <trkpt lat="41.64387" lon="20.19028">
        <ele>959.04998779297</ele>
        <time>2023-09-30T12:50:53.000Z</time>
      </trkpt>
      <trkpt lat="41.64382" lon="20.19029">
        <ele>959.53002929688</ele>
        <time>2023-09-30T12:50:52.000Z</time>
      </trkpt>
      <trkpt lat="41.6437" lon="20.19034">
        <ele>960.01000976562</ele>
        <time>2023-09-30T12:50:51.000Z</time>
      </trkpt>
      <trkpt lat="41.64359" lon="20.19038">
        <ele>960.97998046875</ele>
        <time>2023-09-30T12:50:50.000Z</time>
      </trkpt>
      <trkpt lat="41.6435" lon="20.1904">
        <ele>961.46002197266</ele>
        <time>2023-09-30T12:50:49.000Z</time>
      </trkpt>
      <trkpt lat="41.64342" lon="20.19042">
        <ele>962.41998291016</ele>
        <time>2023-09-30T12:50:48.000Z</time>
      </trkpt>
      <trkpt lat="41.6434" lon="20.19042">
        <ele>962.90002441406</ele>
        <time>2023-09-30T12:50:47.000Z</time>
      </trkpt>
      <trkpt lat="41.64319" lon="20.19052">
        <ele>965.29998779297</ele>
        <time>2023-09-30T12:50:45.000Z</time>
      </trkpt>
      <trkpt lat="41.6431" lon="20.19056">
        <ele>966.26000976562</ele>
        <time>2023-09-30T12:50:44.000Z</time>
      </trkpt>
      <trkpt lat="41.64306" lon="20.19057">
        <ele>966.26000976562</ele>
        <time>2023-09-30T12:50:43.000Z</time>
      </trkpt>
      <trkpt lat="41.64294" lon="20.19059">
        <ele>966.73999023438</ele>
        <time>2023-09-30T12:50:42.000Z</time>
      </trkpt>
      <trkpt lat="41.64286" lon="20.19059">
        <ele>967.70001220703</ele>
        <time>2023-09-30T12:50:41.000Z</time>
      </trkpt>
      <trkpt lat="41.64279" lon="20.19058">
        <ele>967.70001220703</ele>
        <time>2023-09-30T12:50:40.000Z</time>
      </trkpt>
      <trkpt lat="41.64275" lon="20.19057">
        <ele>968.17999267578</ele>
        <time>2023-09-30T12:50:39.000Z</time>
      </trkpt>
      <trkpt lat="41.64266" lon="20.19055">
        <ele>968.66998291016</ele>
        <time>2023-09-30T12:50:38.000Z</time>
      </trkpt>
      <trkpt lat="41.64259" lon="20.19052">
        <ele>969.15002441406</ele>
        <time>2023-09-30T12:50:37.000Z</time>
      </trkpt>
      <trkpt lat="41.64251" lon="20.1905">
        <ele>969.63000488281</ele>
        <time>2023-09-30T12:50:36.000Z</time>
      </trkpt>
      <trkpt lat="41.64243" lon="20.19047">
        <ele>969.63000488281</ele>
        <time>2023-09-30T12:50:35.000Z</time>
      </trkpt>
      <trkpt lat="41.64235" lon="20.19044">
        <ele>970.10998535156</ele>
        <time>2023-09-30T12:50:34.000Z</time>
      </trkpt>
      <trkpt lat="41.64226" lon="20.19041">
        <ele>970.59002685547</ele>
        <time>2023-09-30T12:50:33.000Z</time>
      </trkpt>
      <trkpt lat="41.6422" lon="20.19038">
        <ele>970.59002685547</ele>
        <time>2023-09-30T12:50:32.000Z</time>
      </trkpt>
      <trkpt lat="41.64213" lon="20.19032">
        <ele>971.54998779297</ele>
        <time>2023-09-30T12:50:31.000Z</time>
      </trkpt>
      <trkpt lat="41.64207" lon="20.19025">
        <ele>972.03002929688</ele>
        <time>2023-09-30T12:50:30.000Z</time>
      </trkpt>
      <trkpt lat="41.64203" lon="20.19018">
        <ele>972.51000976562</ele>
        <time>2023-09-30T12:50:29.000Z</time>
      </trkpt>
      <trkpt lat="41.642" lon="20.19015">
        <ele>972.51000976562</ele>
        <time>2023-09-30T12:50:28.000Z</time>
      </trkpt>
      <trkpt lat="41.64195" lon="20.19011">
        <ele>972.98999023438</ele>
        <time>2023-09-30T12:50:27.000Z</time>
      </trkpt>
      <trkpt lat="41.64187" lon="20.19004">
        <ele>972.98999023438</ele>
        <time>2023-09-30T12:50:26.000Z</time>
      </trkpt>
      <trkpt lat="41.64176" lon="20.18994">
        <ele>973.46997070312</ele>
        <time>2023-09-30T12:50:25.000Z</time>
      </trkpt>
      <trkpt lat="41.64171" lon="20.18988">
        <ele>973.95001220703</ele>
        <time>2023-09-30T12:50:24.000Z</time>
      </trkpt>
      <trkpt lat="41.64164" lon="20.1898">
        <ele>974.42999267578</ele>
        <time>2023-09-30T12:50:23.000Z</time>
      </trkpt>
      <trkpt lat="41.64159" lon="20.18973">
        <ele>974.42999267578</ele>
        <time>2023-09-30T12:50:22.000Z</time>
      </trkpt>
      <trkpt lat="41.64153" lon="20.18966">
        <ele>974.42999267578</ele>
        <time>2023-09-30T12:50:21.000Z</time>
      </trkpt>
      <trkpt lat="41.64149" lon="20.1896">
        <ele>974.42999267578</ele>
        <time>2023-09-30T12:50:20.000Z</time>
      </trkpt>
      <trkpt lat="41.64147" lon="20.18956">
        <ele>974.42999267578</ele>
        <time>2023-09-30T12:50:19.000Z</time>
      </trkpt>
      <trkpt lat="41.64142" lon="20.18947">
        <ele>974.90997314453</ele>
        <time>2023-09-30T12:50:18.000Z</time>
      </trkpt>
      <trkpt lat="41.64137" lon="20.18936">
        <ele>974.90997314453</ele>
        <time>2023-09-30T12:50:17.000Z</time>
      </trkpt>
      <trkpt lat="41.64131" lon="20.18924">
        <ele>974.90997314453</ele>
        <time>2023-09-30T12:50:16.000Z</time>
      </trkpt>
      <trkpt lat="41.64129" lon="20.18915">
        <ele>975.39001464844</ele>
        <time>2023-09-30T12:50:15.000Z</time>
      </trkpt>
      <trkpt lat="41.64128" lon="20.18904">
        <ele>975.88000488281</ele>
        <time>2023-09-30T12:50:14.000Z</time>
      </trkpt>
      <trkpt lat="41.64127" lon="20.18895">
        <ele>976.35998535156</ele>
        <time>2023-09-30T12:50:13.000Z</time>
      </trkpt>
      <trkpt lat="41.64127" lon="20.18888">
        <ele>976.84002685547</ele>
        <time>2023-09-30T12:50:12.000Z</time>
      </trkpt>
      <trkpt lat="41.64126" lon="20.18881">
        <ele>977.32000732422</ele>
        <time>2023-09-30T12:50:11.000Z</time>
      </trkpt>
      <trkpt lat="41.64124" lon="20.18875">
        <ele>977.79998779297</ele>
        <time>2023-09-30T12:50:10.000Z</time>
      </trkpt>
      <trkpt lat="41.64124" lon="20.18874">
        <ele>977.79998779297</ele>
        <time>2023-09-30T12:50:09.000Z</time>
      </trkpt>
      <trkpt lat="41.64119" lon="20.18867">
        <ele>978.28002929688</ele>
        <time>2023-09-30T12:50:08.000Z</time>
      </trkpt>
      <trkpt lat="41.64115" lon="20.18865">
        <ele>978.76000976562</ele>
        <time>2023-09-30T12:50:07.000Z</time>
      </trkpt>
      <trkpt lat="41.64109" lon="20.18865">
        <ele>979.23999023438</ele>
        <time>2023-09-30T12:50:06.000Z</time>
      </trkpt>
      <trkpt lat="41.64103" lon="20.18865">
        <ele>979.71997070312</ele>
        <time>2023-09-30T12:50:05.000Z</time>
      </trkpt>
      <trkpt lat="41.64102" lon="20.18866">
        <ele>980.20001220703</ele>
        <time>2023-09-30T12:50:04.000Z</time>
      </trkpt>
      <trkpt lat="41.64089" lon="20.18871">
        <ele>981.15997314453</ele>
        <time>2023-09-30T12:50:03.000Z</time>
      </trkpt>
      <trkpt lat="41.6408" lon="20.18876">
        <ele>981.64001464844</ele>
        <time>2023-09-30T12:50:02.000Z</time>
      </trkpt>
      <trkpt lat="41.64077" lon="20.18879">
        <ele>981.64001464844</ele>
        <time>2023-09-30T12:50:01.000Z</time>
      </trkpt>
      <trkpt lat="41.64068" lon="20.18886">
        <ele>982.59997558594</ele>
        <time>2023-09-30T12:50:00.000Z</time>
      </trkpt>
      <trkpt lat="41.64057" lon="20.18897">
        <ele>983.57000732422</ele>
        <time>2023-09-30T12:49:59.000Z</time>
      </trkpt>
      <trkpt lat="41.64051" lon="20.18904">
        <ele>984.53002929688</ele>
        <time>2023-09-30T12:49:58.000Z</time>
      </trkpt>
      <trkpt lat="41.64046" lon="20.1891">
        <ele>985.01000976562</ele>
        <time>2023-09-30T12:49:57.000Z</time>
      </trkpt>
      <trkpt lat="41.64039" lon="20.18919">
        <ele>985.48999023438</ele>
        <time>2023-09-30T12:49:56.000Z</time>
      </trkpt>
      <trkpt lat="41.64031" lon="20.18926">
        <ele>985.96997070312</ele>
        <time>2023-09-30T12:49:55.000Z</time>
      </trkpt>
      <trkpt lat="41.64024" lon="20.18931">
        <ele>986.45001220703</ele>
        <time>2023-09-30T12:49:54.000Z</time>
      </trkpt>
      <trkpt lat="41.64016" lon="20.18935">
        <ele>986.92999267578</ele>
        <time>2023-09-30T12:49:53.000Z</time>
      </trkpt>
      <trkpt lat="41.6401" lon="20.18937">
        <ele>987.40997314453</ele>
        <time>2023-09-30T12:49:52.000Z</time>
      </trkpt>
      <trkpt lat="41.64002" lon="20.18939">
        <ele>988.36999511719</ele>
        <time>2023-09-30T12:49:51.000Z</time>
      </trkpt>
      <trkpt lat="41.63995" lon="20.1894">
        <ele>988.84997558594</ele>
        <time>2023-09-30T12:49:50.000Z</time>
      </trkpt>
      <trkpt lat="41.63987" lon="20.18939">
        <ele>989.33001708984</ele>
        <time>2023-09-30T12:49:49.000Z</time>
      </trkpt>
      <trkpt lat="41.63978" lon="20.18937">
        <ele>989.80999755859</ele>
        <time>2023-09-30T12:49:48.000Z</time>
      </trkpt>
      <trkpt lat="41.63975" lon="20.18936">
        <ele>989.80999755859</ele>
        <time>2023-09-30T12:49:47.000Z</time>
      </trkpt>
      <trkpt lat="41.63962" lon="20.18932">
        <ele>990.29998779297</ele>
        <time>2023-09-30T12:49:46.000Z</time>
      </trkpt>
      <trkpt lat="41.63956" lon="20.1893">
        <ele>990.78002929688</ele>
        <time>2023-09-30T12:49:45.000Z</time>
      </trkpt>
      <trkpt lat="41.63947" lon="20.18928">
        <ele>991.73999023438</ele>
        <time>2023-09-30T12:49:44.000Z</time>
      </trkpt>
      <trkpt lat="41.63939" lon="20.18928">
        <ele>992.21997070312</ele>
        <time>2023-09-30T12:49:43.000Z</time>
      </trkpt>
      <trkpt lat="41.63932" lon="20.18928">
        <ele>992.21997070312</ele>
        <time>2023-09-30T12:49:42.000Z</time>
      </trkpt>
      <trkpt lat="41.63922" lon="20.18927">
        <ele>992.21997070312</ele>
        <time>2023-09-30T12:49:41.000Z</time>
      </trkpt>
      <trkpt lat="41.63917" lon="20.18927">
        <ele>992.70001220703</ele>
        <time>2023-09-30T12:49:40.000Z</time>
      </trkpt>
      <trkpt lat="41.63906" lon="20.18927">
        <ele>993.17999267578</ele>
        <time>2023-09-30T12:49:39.000Z</time>
      </trkpt>
      <trkpt lat="41.63898" lon="20.18928">
        <ele>992.70001220703</ele>
        <time>2023-09-30T12:49:38.000Z</time>
      </trkpt>
      <trkpt lat="41.63886" lon="20.18929">
        <ele>992.21997070312</ele>
        <time>2023-09-30T12:49:37.000Z</time>
      </trkpt>
      <trkpt lat="41.63876" lon="20.18932">
        <ele>991.73999023438</ele>
        <time>2023-09-30T12:49:36.000Z</time>
      </trkpt>
      <trkpt lat="41.63869" lon="20.18935">
        <ele>991.73999023438</ele>
        <time>2023-09-30T12:49:35.000Z</time>
      </trkpt>
      <trkpt lat="41.63861" lon="20.18939">
        <ele>991.73999023438</ele>
        <time>2023-09-30T12:49:34.000Z</time>
      </trkpt>
      <trkpt lat="41.63858" lon="20.18941">
        <ele>991.73999023438</ele>
        <time>2023-09-30T12:49:33.000Z</time>
      </trkpt>
      <trkpt lat="41.63842" lon="20.18949">
        <ele>991.26000976562</ele>
        <time>2023-09-30T12:49:32.000Z</time>
      </trkpt>
      <trkpt lat="41.63833" lon="20.18954">
        <ele>991.26000976562</ele>
        <time>2023-09-30T12:49:31.000Z</time>
      </trkpt>
      <trkpt lat="41.63825" lon="20.18959">
        <ele>991.26000976562</ele>
        <time>2023-09-30T12:49:30.000Z</time>
      </trkpt>
      <trkpt lat="41.63821" lon="20.18964">
        <ele>990.78002929688</ele>
        <time>2023-09-30T12:49:29.000Z</time>
      </trkpt>
      <trkpt lat="41.63799" lon="20.18988">
        <ele>989.33001708984</ele>
        <time>2023-09-30T12:49:26.000Z</time>
      </trkpt>
      <trkpt lat="41.63793" lon="20.18994">
        <ele>988.84997558594</ele>
        <time>2023-09-30T12:49:25.000Z</time>
      </trkpt>
      <trkpt lat="41.63786" lon="20.19001">
        <ele>988.36999511719</ele>
        <time>2023-09-30T12:49:24.000Z</time>
      </trkpt>
      <trkpt lat="41.63775" lon="20.19009">
        <ele>987.89001464844</ele>
        <time>2023-09-30T12:49:23.000Z</time>
      </trkpt>
      <trkpt lat="41.63769" lon="20.19013">
        <ele>987.40997314453</ele>
        <time>2023-09-30T12:49:22.000Z</time>
      </trkpt>
      <trkpt lat="41.63761" lon="20.19018">
        <ele>986.92999267578</ele>
        <time>2023-09-30T12:49:21.000Z</time>
      </trkpt>
      <trkpt lat="41.63757" lon="20.1902">
        <ele>986.45001220703</ele>
        <time>2023-09-30T12:49:20.000Z</time>
      </trkpt>
      <trkpt lat="41.63746" lon="20.19026">
        <ele>985.48999023438</ele>
        <time>2023-09-30T12:49:19.000Z</time>
      </trkpt>
      <trkpt lat="41.63739" lon="20.1903">
        <ele>985.01000976562</ele>
        <time>2023-09-30T12:49:18.000Z</time>
      </trkpt>
      <trkpt lat="41.63735" lon="20.19033">
        <ele>984.53002929688</ele>
        <time>2023-09-30T12:49:17.000Z</time>
      </trkpt>
      <trkpt lat="41.63726" lon="20.19039">
        <ele>983.57000732422</ele>
        <time>2023-09-30T12:49:16.000Z</time>
      </trkpt>
      <trkpt lat="41.63717" lon="20.19045">
        <ele>983.09002685547</ele>
        <time>2023-09-30T12:49:15.000Z</time>
      </trkpt>
      <trkpt lat="41.63713" lon="20.19047">
        <ele>982.59997558594</ele>
        <time>2023-09-30T12:49:14.000Z</time>
      </trkpt>
      <trkpt lat="41.63694" lon="20.19058">
        <ele>981.15997314453</ele>
        <time>2023-09-30T12:49:12.000Z</time>
      </trkpt>
      <trkpt lat="41.63686" lon="20.19063">
        <ele>980.67999267578</ele>
        <time>2023-09-30T12:49:11.000Z</time>
      </trkpt>
      <trkpt lat="41.63678" lon="20.19067">
        <ele>980.67999267578</ele>
        <time>2023-09-30T12:49:10.000Z</time>
      </trkpt>
      <trkpt lat="41.63671" lon="20.19073">
        <ele>980.20001220703</ele>
        <time>2023-09-30T12:49:09.000Z</time>
      </trkpt>
      <trkpt lat="41.63667" lon="20.19076">
        <ele>980.20001220703</ele>
        <time>2023-09-30T12:49:08.000Z</time>
      </trkpt>
      <trkpt lat="41.63659" lon="20.19085">
        <ele>979.71997070312</ele>
        <time>2023-09-30T12:49:07.000Z</time>
      </trkpt>
      <trkpt lat="41.63655" lon="20.19088">
        <ele>979.71997070312</ele>
        <time>2023-09-30T12:49:06.000Z</time>
      </trkpt>
      <trkpt lat="41.63647" lon="20.19095">
        <ele>979.71997070312</ele>
        <time>2023-09-30T12:49:05.000Z</time>
      </trkpt>
      <trkpt lat="41.6364" lon="20.19101">
        <ele>979.23999023438</ele>
        <time>2023-09-30T12:49:04.000Z</time>
      </trkpt>
      <trkpt lat="41.63633" lon="20.19106">
        <ele>978.28002929688</ele>
        <time>2023-09-30T12:49:03.000Z</time>
      </trkpt>
      <trkpt lat="41.63627" lon="20.19109">
        <ele>978.28002929688</ele>
        <time>2023-09-30T12:49:02.000Z</time>
      </trkpt>
      <trkpt lat="41.63619" lon="20.19113">
        <ele>977.32000732422</ele>
        <time>2023-09-30T12:49:01.000Z</time>
      </trkpt>
      <trkpt lat="41.63615" lon="20.19115">
        <ele>976.84002685547</ele>
        <time>2023-09-30T12:49:00.000Z</time>
      </trkpt>
      <trkpt lat="41.63603" lon="20.19123">
        <ele>975.88000488281</ele>
        <time>2023-09-30T12:48:58.000Z</time>
      </trkpt>
      <trkpt lat="41.63593" lon="20.1913">
        <ele>975.39001464844</ele>
        <time>2023-09-30T12:48:57.000Z</time>
      </trkpt>
      <trkpt lat="41.63582" lon="20.19137">
        <ele>974.90997314453</ele>
        <time>2023-09-30T12:48:56.000Z</time>
      </trkpt>
      <trkpt lat="41.63579" lon="20.19139">
        <ele>974.90997314453</ele>
        <time>2023-09-30T12:48:55.000Z</time>
      </trkpt>
      <trkpt lat="41.63567" lon="20.19144">
        <ele>974.42999267578</ele>
        <time>2023-09-30T12:48:54.000Z</time>
      </trkpt>
      <trkpt lat="41.63556" lon="20.1915">
        <ele>973.95001220703</ele>
        <time>2023-09-30T12:48:53.000Z</time>
      </trkpt>
      <trkpt lat="41.63552" lon="20.19151">
        <ele>973.46997070312</ele>
        <time>2023-09-30T12:48:52.000Z</time>
      </trkpt>
      <trkpt lat="41.63544" lon="20.19153">
        <ele>972.98999023438</ele>
        <time>2023-09-30T12:48:51.000Z</time>
      </trkpt>
      <trkpt lat="41.6353" lon="20.19157">
        <ele>972.51000976562</ele>
        <time>2023-09-30T12:48:49.000Z</time>
      </trkpt>
      <trkpt lat="41.63518" lon="20.1916">
        <ele>971.54998779297</ele>
        <time>2023-09-30T12:48:48.000Z</time>
      </trkpt>
      <trkpt lat="41.6351" lon="20.19161">
        <ele>971.07000732422</ele>
        <time>2023-09-30T12:48:47.000Z</time>
      </trkpt>
      <trkpt lat="41.63502" lon="20.19161">
        <ele>970.59002685547</ele>
        <time>2023-09-30T12:48:46.000Z</time>
      </trkpt>
      <trkpt lat="41.63491" lon="20.19161">
        <ele>970.10998535156</ele>
        <time>2023-09-30T12:48:44.000Z</time>
      </trkpt>
      <trkpt lat="41.63484" lon="20.19161">
        <ele>969.63000488281</ele>
        <time>2023-09-30T12:48:43.000Z</time>
      </trkpt>
      <trkpt lat="41.63469" lon="20.19162">
        <ele>969.15002441406</ele>
        <time>2023-09-30T12:48:42.000Z</time>
      </trkpt>
      <trkpt lat="41.63457" lon="20.19161">
        <ele>968.66998291016</ele>
        <time>2023-09-30T12:48:40.000Z</time>
      </trkpt>
      <trkpt lat="41.63446" lon="20.19161">
        <ele>968.17999267578</ele>
        <time>2023-09-30T12:48:39.000Z</time>
      </trkpt>
      <trkpt lat="41.63436" lon="20.19161">
        <ele>967.70001220703</ele>
        <time>2023-09-30T12:48:38.000Z</time>
      </trkpt>
      <trkpt lat="41.63428" lon="20.19159">
        <ele>967.21997070312</ele>
        <time>2023-09-30T12:48:37.000Z</time>
      </trkpt>
      <trkpt lat="41.63423" lon="20.19157">
        <ele>967.21997070312</ele>
        <time>2023-09-30T12:48:36.000Z</time>
      </trkpt>
      <trkpt lat="41.63418" lon="20.19154">
        <ele>966.73999023438</ele>
        <time>2023-09-30T12:48:35.000Z</time>
      </trkpt>
      <trkpt lat="41.63414" lon="20.1915">
        <ele>966.26000976562</ele>
        <time>2023-09-30T12:48:34.000Z</time>
      </trkpt>
      <trkpt lat="41.63411" lon="20.19144">
        <ele>965.78002929688</ele>
        <time>2023-09-30T12:48:33.000Z</time>
      </trkpt>
      <trkpt lat="41.63408" lon="20.19137">
        <ele>965.78002929688</ele>
        <time>2023-09-30T12:48:32.000Z</time>
      </trkpt>
      <trkpt lat="41.63407" lon="20.19128">
        <ele>965.29998779297</ele>
        <time>2023-09-30T12:48:31.000Z</time>
      </trkpt>
      <trkpt lat="41.63408" lon="20.1912">
        <ele>965.29998779297</ele>
        <time>2023-09-30T12:48:30.000Z</time>
      </trkpt>
      <trkpt lat="41.63408" lon="20.19112">
        <ele>964.82000732422</ele>
        <time>2023-09-30T12:48:29.000Z</time>
      </trkpt>
      <trkpt lat="41.63408" lon="20.19104">
        <ele>964.82000732422</ele>
        <time>2023-09-30T12:48:28.000Z</time>
      </trkpt>
      <trkpt lat="41.63406" lon="20.19098">
        <ele>964.82000732422</ele>
        <time>2023-09-30T12:48:27.000Z</time>
      </trkpt>
      <trkpt lat="41.63403" lon="20.19094">
        <ele>964.82000732422</ele>
        <time>2023-09-30T12:48:26.000Z</time>
      </trkpt>
      <trkpt lat="41.63398" lon="20.19093">
        <ele>964.82000732422</ele>
        <time>2023-09-30T12:48:25.000Z</time>
      </trkpt>
      <trkpt lat="41.63394" lon="20.19094">
        <ele>964.82000732422</ele>
        <time>2023-09-30T12:48:24.000Z</time>
      </trkpt>
      <trkpt lat="41.6339" lon="20.19098">
        <ele>964.82000732422</ele>
        <time>2023-09-30T12:48:23.000Z</time>
      </trkpt>
      <trkpt lat="41.63388" lon="20.19103">
        <ele>964.82000732422</ele>
        <time>2023-09-30T12:48:22.000Z</time>
      </trkpt>
      <trkpt lat="41.63387" lon="20.19111">
        <ele>964.34002685547</ele>
        <time>2023-09-30T12:48:21.000Z</time>
      </trkpt>
      <trkpt lat="41.63387" lon="20.19116">
        <ele>964.34002685547</ele>
        <time>2023-09-30T12:48:20.000Z</time>
      </trkpt>
      <trkpt lat="41.63388" lon="20.19128">
        <ele>963.85998535156</ele>
        <time>2023-09-30T12:48:19.000Z</time>
      </trkpt>
      <trkpt lat="41.63388" lon="20.19138">
        <ele>963.85998535156</ele>
        <time>2023-09-30T12:48:18.000Z</time>
      </trkpt>
      <trkpt lat="41.63388" lon="20.19146">
        <ele>963.38000488281</ele>
        <time>2023-09-30T12:48:17.000Z</time>
      </trkpt>
      <trkpt lat="41.63387" lon="20.19152">
        <ele>963.38000488281</ele>
        <time>2023-09-30T12:48:16.000Z</time>
      </trkpt>
      <trkpt lat="41.63385" lon="20.19159">
        <ele>962.90002441406</ele>
        <time>2023-09-30T12:48:15.000Z</time>
      </trkpt>
      <trkpt lat="41.63382" lon="20.19166">
        <ele>962.41998291016</ele>
        <time>2023-09-30T12:48:14.000Z</time>
      </trkpt>
      <trkpt lat="41.63378" lon="20.19174">
        <ele>962.41998291016</ele>
        <time>2023-09-30T12:48:13.000Z</time>
      </trkpt>
      <trkpt lat="41.63376" lon="20.19177">
        <ele>961.94000244141</ele>
        <time>2023-09-30T12:48:12.000Z</time>
      </trkpt>
      <trkpt lat="41.63367" lon="20.19189">
        <ele>960.97998046875</ele>
        <time>2023-09-30T12:48:11.000Z</time>
      </trkpt>
      <trkpt lat="41.63354" lon="20.19202">
        <ele>960.01000976562</ele>
        <time>2023-09-30T12:48:09.000Z</time>
      </trkpt>
      <trkpt lat="41.63347" lon="20.1921">
        <ele>959.53002929688</ele>
        <time>2023-09-30T12:48:08.000Z</time>
      </trkpt>
      <trkpt lat="41.63342" lon="20.19214">
        <ele>959.04998779297</ele>
        <time>2023-09-30T12:48:07.000Z</time>
      </trkpt>
      <trkpt lat="41.63337" lon="20.19218">
        <ele>958.57000732422</ele>
        <time>2023-09-30T12:48:06.000Z</time>
      </trkpt>
      <trkpt lat="41.6333" lon="20.19223">
        <ele>958.09002685547</ele>
        <time>2023-09-30T12:48:05.000Z</time>
      </trkpt>
      <trkpt lat="41.63325" lon="20.19226">
        <ele>957.60998535156</ele>
        <time>2023-09-30T12:48:04.000Z</time>
      </trkpt>
      <trkpt lat="41.63319" lon="20.19228">
        <ele>957.13000488281</ele>
        <time>2023-09-30T12:48:03.000Z</time>
      </trkpt>
      <trkpt lat="41.63313" lon="20.1923">
        <ele>956.65002441406</ele>
        <time>2023-09-30T12:48:02.000Z</time>
      </trkpt>
      <trkpt lat="41.63312" lon="20.1923">
        <ele>956.65002441406</ele>
        <time>2023-09-30T12:48:01.000Z</time>
      </trkpt>
      <trkpt lat="41.63302" lon="20.19232">
        <ele>955.69000244141</ele>
        <time>2023-09-30T12:48:00.000Z</time>
      </trkpt>
      <trkpt lat="41.63298" lon="20.19233">
        <ele>955.69000244141</ele>
        <time>2023-09-30T12:47:59.000Z</time>
      </trkpt>
      <trkpt lat="41.63293" lon="20.19235">
        <ele>955.69000244141</ele>
        <time>2023-09-30T12:47:58.000Z</time>
      </trkpt>
      <trkpt lat="41.63289" lon="20.19238">
        <ele>955.69000244141</ele>
        <time>2023-09-30T12:47:57.000Z</time>
      </trkpt>
      <trkpt lat="41.63285" lon="20.19244">
        <ele>955.69000244141</ele>
        <time>2023-09-30T12:47:56.000Z</time>
      </trkpt>
      <trkpt lat="41.63284" lon="20.19251">
        <ele>955.69000244141</ele>
        <time>2023-09-30T12:47:55.000Z</time>
      </trkpt>
      <trkpt lat="41.63285" lon="20.19259">
        <ele>955.69000244141</ele>
        <time>2023-09-30T12:47:54.000Z</time>
      </trkpt>
      <trkpt lat="41.63287" lon="20.19266">
        <ele>955.21002197266</ele>
        <time>2023-09-30T12:47:53.000Z</time>
      </trkpt>
      <trkpt lat="41.63291" lon="20.19271">
        <ele>955.21002197266</ele>
        <time>2023-09-30T12:47:52.000Z</time>
      </trkpt>
      <trkpt lat="41.63295" lon="20.19273">
        <ele>954.72998046875</ele>
        <time>2023-09-30T12:47:51.000Z</time>
      </trkpt>
      <trkpt lat="41.633" lon="20.19273">
        <ele>954.72998046875</ele>
        <time>2023-09-30T12:47:50.000Z</time>
      </trkpt>
      <trkpt lat="41.63305" lon="20.19271">
        <ele>954.25</ele>
        <time>2023-09-30T12:47:49.000Z</time>
      </trkpt>
      <trkpt lat="41.6331" lon="20.19267">
        <ele>954.25</ele>
        <time>2023-09-30T12:47:48.000Z</time>
      </trkpt>
      <trkpt lat="41.63316" lon="20.19261">
        <ele>954.25</ele>
        <time>2023-09-30T12:47:47.000Z</time>
      </trkpt>
      <trkpt lat="41.63321" lon="20.19257">
        <ele>954.25</ele>
        <time>2023-09-30T12:47:46.000Z</time>
      </trkpt>
      <trkpt lat="41.63327" lon="20.19254">
        <ele>953.77001953125</ele>
        <time>2023-09-30T12:47:45.000Z</time>
      </trkpt>
      <trkpt lat="41.63333" lon="20.19253">
        <ele>953.77001953125</ele>
        <time>2023-09-30T12:47:44.000Z</time>
      </trkpt>
      <trkpt lat="41.63336" lon="20.19253">
        <ele>953.77001953125</ele>
        <time>2023-09-30T12:47:43.000Z</time>
      </trkpt>
      <trkpt lat="41.63343" lon="20.19253">
        <ele>953.28002929688</ele>
        <time>2023-09-30T12:47:42.000Z</time>
      </trkpt>
      <trkpt lat="41.63351" lon="20.19254">
        <ele>953.28002929688</ele>
        <time>2023-09-30T12:47:41.000Z</time>
      </trkpt>
      <trkpt lat="41.63359" lon="20.19253">
        <ele>952.79998779297</ele>
        <time>2023-09-30T12:47:40.000Z</time>
      </trkpt>
      <trkpt lat="41.63362" lon="20.19253">
        <ele>952.79998779297</ele>
        <time>2023-09-30T12:47:39.000Z</time>
      </trkpt>
      <trkpt lat="41.63371" lon="20.19251">
        <ele>952.79998779297</ele>
        <time>2023-09-30T12:47:38.000Z</time>
      </trkpt>
      <trkpt lat="41.63375" lon="20.19251">
        <ele>952.79998779297</ele>
        <time>2023-09-30T12:47:37.000Z</time>
      </trkpt>
      <trkpt lat="41.63379" lon="20.19252">
        <ele>952.79998779297</ele>
        <time>2023-09-30T12:47:36.000Z</time>
      </trkpt>
      <trkpt lat="41.63383" lon="20.19255">
        <ele>952.32000732422</ele>
        <time>2023-09-30T12:47:35.000Z</time>
      </trkpt>
      <trkpt lat="41.63386" lon="20.19259">
        <ele>952.32000732422</ele>
        <time>2023-09-30T12:47:34.000Z</time>
      </trkpt>
      <trkpt lat="41.63388" lon="20.19265">
        <ele>952.79998779297</ele>
        <time>2023-09-30T12:47:33.000Z</time>
      </trkpt>
      <trkpt lat="41.6339" lon="20.19273">
        <ele>952.79998779297</ele>
        <time>2023-09-30T12:47:32.000Z</time>
      </trkpt>
      <trkpt lat="41.63393" lon="20.19294">
        <ele>952.32000732422</ele>
        <time>2023-09-30T12:47:30.000Z</time>
      </trkpt>
      <trkpt lat="41.63395" lon="20.19303">
        <ele>951.84002685547</ele>
        <time>2023-09-30T12:47:29.000Z</time>
      </trkpt>
      <trkpt lat="41.63399" lon="20.19308">
        <ele>951.84002685547</ele>
        <time>2023-09-30T12:47:28.000Z</time>
      </trkpt>
      <trkpt lat="41.63404" lon="20.19312">
        <ele>951.35998535156</ele>
        <time>2023-09-30T12:47:27.000Z</time>
      </trkpt>
      <trkpt lat="41.63411" lon="20.19313">
        <ele>951.35998535156</ele>
        <time>2023-09-30T12:47:26.000Z</time>
      </trkpt>
      <trkpt lat="41.63417" lon="20.19312">
        <ele>950.88000488281</ele>
        <time>2023-09-30T12:47:25.000Z</time>
      </trkpt>
      <trkpt lat="41.63423" lon="20.1931">
        <ele>950.40002441406</ele>
        <time>2023-09-30T12:47:24.000Z</time>
      </trkpt>
      <trkpt lat="41.63446" lon="20.19302">
        <ele>949.91998291016</ele>
        <time>2023-09-30T12:47:21.000Z</time>
      </trkpt>
      <trkpt lat="41.63455" lon="20.19299">
        <ele>949.44000244141</ele>
        <time>2023-09-30T12:47:20.000Z</time>
      </trkpt>
      <trkpt lat="41.63463" lon="20.19296">
        <ele>948.96002197266</ele>
        <time>2023-09-30T12:47:19.000Z</time>
      </trkpt>
      <trkpt lat="41.63468" lon="20.19295">
        <ele>948.47998046875</ele>
        <time>2023-09-30T12:47:18.000Z</time>
      </trkpt>
      <trkpt lat="41.63473" lon="20.19297">
        <ele>948.47998046875</ele>
        <time>2023-09-30T12:47:17.000Z</time>
      </trkpt>
      <trkpt lat="41.63478" lon="20.19301">
        <ele>948.47998046875</ele>
        <time>2023-09-30T12:47:16.000Z</time>
      </trkpt>
      <trkpt lat="41.63486" lon="20.19307">
        <ele>948.47998046875</ele>
        <time>2023-09-30T12:47:15.000Z</time>
      </trkpt>
      <trkpt lat="41.63492" lon="20.1931">
        <ele>948.47998046875</ele>
        <time>2023-09-30T12:47:14.000Z</time>
      </trkpt>
      <trkpt lat="41.635" lon="20.19313">
        <ele>948</ele>
        <time>2023-09-30T12:47:13.000Z</time>
      </trkpt>
      <trkpt lat="41.63507" lon="20.19314">
        <ele>947.52001953125</ele>
        <time>2023-09-30T12:47:12.000Z</time>
      </trkpt>
      <trkpt lat="41.63513" lon="20.19315">
        <ele>947.52001953125</ele>
        <time>2023-09-30T12:47:11.000Z</time>
      </trkpt>
      <trkpt lat="41.63521" lon="20.19315">
        <ele>947.03997802734</ele>
        <time>2023-09-30T12:47:10.000Z</time>
      </trkpt>
      <trkpt lat="41.63527" lon="20.19314">
        <ele>947.03997802734</ele>
        <time>2023-09-30T12:47:09.000Z</time>
      </trkpt>
      <trkpt lat="41.63533" lon="20.19311">
        <ele>946.55999755859</ele>
        <time>2023-09-30T12:47:08.000Z</time>
      </trkpt>
      <trkpt lat="41.63539" lon="20.19307">
        <ele>946.07000732422</ele>
        <time>2023-09-30T12:47:07.000Z</time>
      </trkpt>
      <trkpt lat="41.63543" lon="20.19305">
        <ele>946.07000732422</ele>
        <time>2023-09-30T12:47:06.000Z</time>
      </trkpt>
      <trkpt lat="41.63547" lon="20.19302">
        <ele>945.59002685547</ele>
        <time>2023-09-30T12:47:05.000Z</time>
      </trkpt>
      <trkpt lat="41.63552" lon="20.19299">
        <ele>945.59002685547</ele>
        <time>2023-09-30T12:47:04.000Z</time>
      </trkpt>
      <trkpt lat="41.63556" lon="20.19313">
        <ele>943.66998291016</ele>
        <time>2023-09-30T12:46:59.000Z</time>
      </trkpt>
      <trkpt lat="41.63549" lon="20.19317">
        <ele>943.19000244141</ele>
        <time>2023-09-30T12:46:58.000Z</time>
      </trkpt>
      <trkpt lat="41.63543" lon="20.19321">
        <ele>943.19000244141</ele>
        <time>2023-09-30T12:46:57.000Z</time>
      </trkpt>
      <trkpt lat="41.63536" lon="20.19324">
        <ele>943.19000244141</ele>
        <time>2023-09-30T12:46:56.000Z</time>
      </trkpt>
      <trkpt lat="41.6353" lon="20.19327">
        <ele>943.19000244141</ele>
        <time>2023-09-30T12:46:55.000Z</time>
      </trkpt>
      <trkpt lat="41.63524" lon="20.19329">
        <ele>943.19000244141</ele>
        <time>2023-09-30T12:46:54.000Z</time>
      </trkpt>
      <trkpt lat="41.63518" lon="20.19329">
        <ele>942.71002197266</ele>
        <time>2023-09-30T12:46:53.000Z</time>
      </trkpt>
      <trkpt lat="41.63509" lon="20.19329">
        <ele>942.71002197266</ele>
        <time>2023-09-30T12:46:52.000Z</time>
      </trkpt>
      <trkpt lat="41.63506" lon="20.19329">
        <ele>942.22998046875</ele>
        <time>2023-09-30T12:46:51.000Z</time>
      </trkpt>
      <trkpt lat="41.63495" lon="20.19329">
        <ele>941.75</ele>
        <time>2023-09-30T12:46:50.000Z</time>
      </trkpt>
      <trkpt lat="41.63489" lon="20.19328">
        <ele>941.75</ele>
        <time>2023-09-30T12:46:49.000Z</time>
      </trkpt>
      <trkpt lat="41.63481" lon="20.19326">
        <ele>940.78997802734</ele>
        <time>2023-09-30T12:46:48.000Z</time>
      </trkpt>
      <trkpt lat="41.63474" lon="20.19326">
        <ele>940.30999755859</ele>
        <time>2023-09-30T12:46:47.000Z</time>
      </trkpt>
      <trkpt lat="41.63467" lon="20.19327">
        <ele>939.83001708984</ele>
        <time>2023-09-30T12:46:46.000Z</time>
      </trkpt>
      <trkpt lat="41.63461" lon="20.19331">
        <ele>939.34997558594</ele>
        <time>2023-09-30T12:46:45.000Z</time>
      </trkpt>
      <trkpt lat="41.63452" lon="20.19338">
        <ele>938.38000488281</ele>
        <time>2023-09-30T12:46:44.000Z</time>
      </trkpt>
      <trkpt lat="41.63449" lon="20.1934">
        <ele>937.90002441406</ele>
        <time>2023-09-30T12:46:43.000Z</time>
      </trkpt>
      <trkpt lat="41.63437" lon="20.1935">
        <ele>936.94000244141</ele>
        <time>2023-09-30T12:46:42.000Z</time>
      </trkpt>
      <trkpt lat="41.63429" lon="20.19355">
        <ele>935.97998046875</ele>
        <time>2023-09-30T12:46:41.000Z</time>
      </trkpt>
      <trkpt lat="41.63422" lon="20.19357">
        <ele>935.97998046875</ele>
        <time>2023-09-30T12:46:40.000Z</time>
      </trkpt>
      <trkpt lat="41.63414" lon="20.1936">
        <ele>935.5</ele>
        <time>2023-09-30T12:46:39.000Z</time>
      </trkpt>
      <trkpt lat="41.6341" lon="20.19361">
        <ele>935.5</ele>
        <time>2023-09-30T12:46:38.000Z</time>
      </trkpt>
      <trkpt lat="41.63393" lon="20.19363">
        <ele>934.05999755859</ele>
        <time>2023-09-30T12:46:36.000Z</time>
      </trkpt>
      <trkpt lat="41.63386" lon="20.19363">
        <ele>933.58001708984</ele>
        <time>2023-09-30T12:46:35.000Z</time>
      </trkpt>
      <trkpt lat="41.6338" lon="20.1936">
        <ele>933.09997558594</ele>
        <time>2023-09-30T12:46:34.000Z</time>
      </trkpt>
      <trkpt lat="41.63374" lon="20.19356">
        <ele>932.61999511719</ele>
        <time>2023-09-30T12:46:33.000Z</time>
      </trkpt>
      <trkpt lat="41.6337" lon="20.19352">
        <ele>932.14001464844</ele>
        <time>2023-09-30T12:46:32.000Z</time>
      </trkpt>
      <trkpt lat="41.63365" lon="20.19348">
        <ele>932.14001464844</ele>
        <time>2023-09-30T12:46:31.000Z</time>
      </trkpt>
      <trkpt lat="41.63359" lon="20.19346">
        <ele>931.65002441406</ele>
        <time>2023-09-30T12:46:30.000Z</time>
      </trkpt>
      <trkpt lat="41.63354" lon="20.19346">
        <ele>931.16998291016</ele>
        <time>2023-09-30T12:46:29.000Z</time>
      </trkpt>
      <trkpt lat="41.63349" lon="20.19348">
        <ele>931.16998291016</ele>
        <time>2023-09-30T12:46:28.000Z</time>
      </trkpt>
      <trkpt lat="41.63346" lon="20.19351">
        <ele>930.69000244141</ele>
        <time>2023-09-30T12:46:27.000Z</time>
      </trkpt>
      <trkpt lat="41.63341" lon="20.19355">
        <ele>930.69000244141</ele>
        <time>2023-09-30T12:46:26.000Z</time>
      </trkpt>
      <trkpt lat="41.63335" lon="20.19361">
        <ele>930.21002197266</ele>
        <time>2023-09-30T12:46:25.000Z</time>
      </trkpt>
      <trkpt lat="41.6333" lon="20.19367">
        <ele>930.21002197266</ele>
        <time>2023-09-30T12:46:24.000Z</time>
      </trkpt>
      <trkpt lat="41.63324" lon="20.19374">
        <ele>929.72998046875</ele>
        <time>2023-09-30T12:46:23.000Z</time>
      </trkpt>
      <trkpt lat="41.6332" lon="20.19379">
        <ele>929.25</ele>
        <time>2023-09-30T12:46:22.000Z</time>
      </trkpt>
      <trkpt lat="41.63315" lon="20.19386">
        <ele>928.77001953125</ele>
        <time>2023-09-30T12:46:21.000Z</time>
      </trkpt>
      <trkpt lat="41.63309" lon="20.19393">
        <ele>928.28997802734</ele>
        <time>2023-09-30T12:46:20.000Z</time>
      </trkpt>
      <trkpt lat="41.63305" lon="20.19397">
        <ele>928.28997802734</ele>
        <time>2023-09-30T12:46:19.000Z</time>
      </trkpt>
      <trkpt lat="41.633" lon="20.19401">
        <ele>927.80999755859</ele>
        <time>2023-09-30T12:46:18.000Z</time>
      </trkpt>
      <trkpt lat="41.63295" lon="20.19405">
        <ele>927.80999755859</ele>
        <time>2023-09-30T12:46:17.000Z</time>
      </trkpt>
      <trkpt lat="41.6329" lon="20.19408">
        <ele>927.33001708984</ele>
        <time>2023-09-30T12:46:16.000Z</time>
      </trkpt>
      <trkpt lat="41.63285" lon="20.1941">
        <ele>927.33001708984</ele>
        <time>2023-09-30T12:46:15.000Z</time>
      </trkpt>
      <trkpt lat="41.63276" lon="20.19414">
        <ele>926.84997558594</ele>
        <time>2023-09-30T12:46:14.000Z</time>
      </trkpt>
      <trkpt lat="41.63273" lon="20.19415">
        <ele>926.84997558594</ele>
        <time>2023-09-30T12:46:13.000Z</time>
      </trkpt>
      <trkpt lat="41.63262" lon="20.19418">
        <ele>926.36999511719</ele>
        <time>2023-09-30T12:46:12.000Z</time>
      </trkpt>
      <trkpt lat="41.63258" lon="20.19419">
        <ele>926.36999511719</ele>
        <time>2023-09-30T12:46:11.000Z</time>
      </trkpt>
      <trkpt lat="41.6325" lon="20.1942">
        <ele>925.89001464844</ele>
        <time>2023-09-30T12:46:10.000Z</time>
      </trkpt>
      <trkpt lat="41.63245" lon="20.1942">
        <ele>925.89001464844</ele>
        <time>2023-09-30T12:46:09.000Z</time>
      </trkpt>
      <trkpt lat="41.6324" lon="20.19419">
        <ele>925.40997314453</ele>
        <time>2023-09-30T12:46:08.000Z</time>
      </trkpt>
      <trkpt lat="41.63237" lon="20.19417">
        <ele>925.40997314453</ele>
        <time>2023-09-30T12:46:07.000Z</time>
      </trkpt>
      <trkpt lat="41.63235" lon="20.19416">
        <ele>925.40997314453</ele>
        <time>2023-09-30T12:46:06.000Z</time>
      </trkpt>
      <trkpt lat="41.63229" lon="20.19407">
        <ele>924.92999267578</ele>
        <time>2023-09-30T12:46:04.000Z</time>
      </trkpt>
      <trkpt lat="41.63226" lon="20.194">
        <ele>924.45001220703</ele>
        <time>2023-09-30T12:46:03.000Z</time>
      </trkpt>
      <trkpt lat="41.63223" lon="20.19393">
        <ele>924.45001220703</ele>
        <time>2023-09-30T12:46:02.000Z</time>
      </trkpt>
      <trkpt lat="41.6322" lon="20.19384">
        <ele>923.96002197266</ele>
        <time>2023-09-30T12:46:01.000Z</time>
      </trkpt>
      <trkpt lat="41.63216" lon="20.19376">
        <ele>923.47998046875</ele>
        <time>2023-09-30T12:46:00.000Z</time>
      </trkpt>
      <trkpt lat="41.6321" lon="20.1936">
        <ele>923.47998046875</ele>
        <time>2023-09-30T12:45:58.000Z</time>
      </trkpt>
      <trkpt lat="41.63209" lon="20.19358">
        <ele>923</ele>
        <time>2023-09-30T12:45:57.000Z</time>
      </trkpt>
      <trkpt lat="41.63205" lon="20.19346">
        <ele>922.52001953125</ele>
        <time>2023-09-30T12:45:56.000Z</time>
      </trkpt>
      <trkpt lat="41.63203" lon="20.19342">
        <ele>922.52001953125</ele>
        <time>2023-09-30T12:45:55.000Z</time>
      </trkpt>
      <trkpt lat="41.63201" lon="20.19337">
        <ele>922.03997802734</ele>
        <time>2023-09-30T12:45:54.000Z</time>
      </trkpt>
      <trkpt lat="41.63198" lon="20.19327">
        <ele>921.55999755859</ele>
        <time>2023-09-30T12:45:53.000Z</time>
      </trkpt>
      <trkpt lat="41.63197" lon="20.19319">
        <ele>921.55999755859</ele>
        <time>2023-09-30T12:45:52.000Z</time>
      </trkpt>
      <trkpt lat="41.63197" lon="20.19312">
        <ele>921.08001708984</ele>
        <time>2023-09-30T12:45:51.000Z</time>
      </trkpt>
      <trkpt lat="41.63197" lon="20.19306">
        <ele>921.08001708984</ele>
        <time>2023-09-30T12:45:50.000Z</time>
      </trkpt>
      <trkpt lat="41.63198" lon="20.19299">
        <ele>921.08001708984</ele>
        <time>2023-09-30T12:45:49.000Z</time>
      </trkpt>
      <trkpt lat="41.632" lon="20.19291">
        <ele>921.08001708984</ele>
        <time>2023-09-30T12:45:48.000Z</time>
      </trkpt>
      <trkpt lat="41.63202" lon="20.19284">
        <ele>921.08001708984</ele>
        <time>2023-09-30T12:45:47.000Z</time>
      </trkpt>
      <trkpt lat="41.63205" lon="20.19278">
        <ele>921.08001708984</ele>
        <time>2023-09-30T12:45:46.000Z</time>
      </trkpt>
      <trkpt lat="41.63209" lon="20.19272">
        <ele>920.59997558594</ele>
        <time>2023-09-30T12:45:45.000Z</time>
      </trkpt>
      <trkpt lat="41.63214" lon="20.19267">
        <ele>921.08001708984</ele>
        <time>2023-09-30T12:45:44.000Z</time>
      </trkpt>
      <trkpt lat="41.63217" lon="20.19262">
        <ele>921.08001708984</ele>
        <time>2023-09-30T12:45:43.000Z</time>
      </trkpt>
      <trkpt lat="41.63218" lon="20.19257">
        <ele>920.59997558594</ele>
        <time>2023-09-30T12:45:42.000Z</time>
      </trkpt>
      <trkpt lat="41.63211" lon="20.19251">
        <ele>919.64001464844</ele>
        <time>2023-09-30T12:45:39.000Z</time>
      </trkpt>
      <trkpt lat="41.63205" lon="20.19252">
        <ele>918.67999267578</ele>
        <time>2023-09-30T12:45:38.000Z</time>
      </trkpt>
      <trkpt lat="41.63198" lon="20.19255">
        <ele>917.71997070312</ele>
        <time>2023-09-30T12:45:37.000Z</time>
      </trkpt>
      <trkpt lat="41.6319" lon="20.19261">
        <ele>916.27001953125</ele>
        <time>2023-09-30T12:45:36.000Z</time>
      </trkpt>
      <trkpt lat="41.63154" lon="20.19298">
        <ele>911.95001220703</ele>
        <time>2023-09-30T12:45:31.000Z</time>
      </trkpt>
      <trkpt lat="41.63143" lon="20.19308">
        <ele>910.51000976562</ele>
        <time>2023-09-30T12:45:29.000Z</time>
      </trkpt>
      <trkpt lat="41.63135" lon="20.19316">
        <ele>909.53997802734</ele>
        <time>2023-09-30T12:45:28.000Z</time>
      </trkpt>
      <trkpt lat="41.6313" lon="20.19322">
        <ele>909.53997802734</ele>
        <time>2023-09-30T12:45:27.000Z</time>
      </trkpt>
      <trkpt lat="41.63127" lon="20.19331">
        <ele>908.58001708984</ele>
        <time>2023-09-30T12:45:26.000Z</time>
      </trkpt>
      <trkpt lat="41.63124" lon="20.19339">
        <ele>906.65997314453</ele>
        <time>2023-09-30T12:45:25.000Z</time>
      </trkpt>
      <trkpt lat="41.63122" lon="20.19352">
        <ele>905.21997070312</ele>
        <time>2023-09-30T12:45:24.000Z</time>
      </trkpt>
      <trkpt lat="41.63121" lon="20.19356">
        <ele>905.21997070312</ele>
        <time>2023-09-30T12:45:23.000Z</time>
      </trkpt>
      <trkpt lat="41.63117" lon="20.19374">
        <ele>904.26000976562</ele>
        <time>2023-09-30T12:45:22.000Z</time>
      </trkpt>
      <trkpt lat="41.63116" lon="20.19382">
        <ele>903.78002929688</ele>
        <time>2023-09-30T12:45:21.000Z</time>
      </trkpt>
      <trkpt lat="41.63115" lon="20.19398">
        <ele>903.29998779297</ele>
        <time>2023-09-30T12:45:20.000Z</time>
      </trkpt>
      <trkpt lat="41.63113" lon="20.19409">
        <ele>902.82000732422</ele>
        <time>2023-09-30T12:45:19.000Z</time>
      </trkpt>
      <trkpt lat="41.63112" lon="20.19422">
        <ele>902.82000732422</ele>
        <time>2023-09-30T12:45:18.000Z</time>
      </trkpt>
      <trkpt lat="41.63112" lon="20.19432">
        <ele>902.33001708984</ele>
        <time>2023-09-30T12:45:17.000Z</time>
      </trkpt>
      <trkpt lat="41.63113" lon="20.19439">
        <ele>901.84997558594</ele>
        <time>2023-09-30T12:45:16.000Z</time>
      </trkpt>
      <trkpt lat="41.6312" lon="20.19469">
        <ele>900.40997314453</ele>
        <time>2023-09-30T12:45:14.000Z</time>
      </trkpt>
      <trkpt lat="41.63125" lon="20.19482">
        <ele>899.92999267578</ele>
        <time>2023-09-30T12:45:13.000Z</time>
      </trkpt>
      <trkpt lat="41.63131" lon="20.19495">
        <ele>899.92999267578</ele>
        <time>2023-09-30T12:45:12.000Z</time>
      </trkpt>
      <trkpt lat="41.63136" lon="20.19505">
        <ele>899.45001220703</ele>
        <time>2023-09-30T12:45:11.000Z</time>
      </trkpt>
      <trkpt lat="41.63144" lon="20.1952">
        <ele>898.96997070312</ele>
        <time>2023-09-30T12:45:10.000Z</time>
      </trkpt>
      <trkpt lat="41.63147" lon="20.19526">
        <ele>898.96997070312</ele>
        <time>2023-09-30T12:45:09.000Z</time>
      </trkpt>
      <trkpt lat="41.63154" lon="20.19539">
        <ele>898.48999023438</ele>
        <time>2023-09-30T12:45:08.000Z</time>
      </trkpt>
      <trkpt lat="41.6316" lon="20.19553">
        <ele>898.01000976562</ele>
        <time>2023-09-30T12:45:07.000Z</time>
      </trkpt>
      <trkpt lat="41.63164" lon="20.19568">
        <ele>897.53002929688</ele>
        <time>2023-09-30T12:45:06.000Z</time>
      </trkpt>
      <trkpt lat="41.63166" lon="20.19576">
        <ele>897.04998779297</ele>
        <time>2023-09-30T12:45:05.000Z</time>
      </trkpt>
      <trkpt lat="41.63169" lon="20.19586">
        <ele>897.04998779297</ele>
        <time>2023-09-30T12:45:04.000Z</time>
      </trkpt>
      <trkpt lat="41.63176" lon="20.196">
        <ele>896.09002685547</ele>
        <time>2023-09-30T12:45:03.000Z</time>
      </trkpt>
      <trkpt lat="41.63184" lon="20.19615">
        <ele>895.60998535156</ele>
        <time>2023-09-30T12:45:01.000Z</time>
      </trkpt>
      <trkpt lat="41.63189" lon="20.19626">
        <ele>895.11999511719</ele>
        <time>2023-09-30T12:45:00.000Z</time>
      </trkpt>
      <trkpt lat="41.63192" lon="20.19631">
        <ele>894.64001464844</ele>
        <time>2023-09-30T12:44:59.000Z</time>
      </trkpt>
      <trkpt lat="41.63194" lon="20.19635">
        <ele>894.15997314453</ele>
        <time>2023-09-30T12:44:58.000Z</time>
      </trkpt>
      <trkpt lat="41.632" lon="20.1965">
        <ele>894.15997314453</ele>
        <time>2023-09-30T12:44:57.000Z</time>
      </trkpt>
      <trkpt lat="41.63204" lon="20.19657">
        <ele>894.15997314453</ele>
        <time>2023-09-30T12:44:56.000Z</time>
      </trkpt>
      <trkpt lat="41.63208" lon="20.19662">
        <ele>894.15997314453</ele>
        <time>2023-09-30T12:44:55.000Z</time>
      </trkpt>
      <trkpt lat="41.63213" lon="20.19665">
        <ele>893.67999267578</ele>
        <time>2023-09-30T12:44:54.000Z</time>
      </trkpt>
      <trkpt lat="41.63219" lon="20.19667">
        <ele>892.71997070312</ele>
        <time>2023-09-30T12:44:53.000Z</time>
      </trkpt>
      <trkpt lat="41.63225" lon="20.19667">
        <ele>892.23999023438</ele>
        <time>2023-09-30T12:44:52.000Z</time>
      </trkpt>
      <trkpt lat="41.63229" lon="20.19667">
        <ele>891.76000976562</ele>
        <time>2023-09-30T12:44:51.000Z</time>
      </trkpt>
      <trkpt lat="41.63233" lon="20.1967">
        <ele>891.76000976562</ele>
        <time>2023-09-30T12:44:50.000Z</time>
      </trkpt>
      <trkpt lat="41.63235" lon="20.19675">
        <ele>891.76000976562</ele>
        <time>2023-09-30T12:44:49.000Z</time>
      </trkpt>
      <trkpt lat="41.63236" lon="20.19681">
        <ele>891.28002929688</ele>
        <time>2023-09-30T12:44:48.000Z</time>
      </trkpt>
      <trkpt lat="41.63236" lon="20.19683">
        <ele>891.28002929688</ele>
        <time>2023-09-30T12:44:47.000Z</time>
      </trkpt>
      <trkpt lat="41.6323" lon="20.19701">
        <ele>890.79998779297</ele>
        <time>2023-09-30T12:44:46.000Z</time>
      </trkpt>
      <trkpt lat="41.63227" lon="20.19712">
        <ele>890.79998779297</ele>
        <time>2023-09-30T12:44:45.000Z</time>
      </trkpt>
      <trkpt lat="41.63226" lon="20.19721">
        <ele>890.32000732422</ele>
        <time>2023-09-30T12:44:44.000Z</time>
      </trkpt>
      <trkpt lat="41.63226" lon="20.1973">
        <ele>889.84002685547</ele>
        <time>2023-09-30T12:44:43.000Z</time>
      </trkpt>
      <trkpt lat="41.63226" lon="20.19744">
        <ele>889.84002685547</ele>
        <time>2023-09-30T12:44:42.000Z</time>
      </trkpt>
      <trkpt lat="41.63227" lon="20.19764">
        <ele>889.35998535156</ele>
        <time>2023-09-30T12:44:40.000Z</time>
      </trkpt>
      <trkpt lat="41.63228" lon="20.19771">
        <ele>888.88000488281</ele>
        <time>2023-09-30T12:44:39.000Z</time>
      </trkpt>
      <trkpt lat="41.63229" lon="20.19774">
        <ele>888.88000488281</ele>
        <time>2023-09-30T12:44:38.000Z</time>
      </trkpt>
      <trkpt lat="41.63233" lon="20.19786">
        <ele>888.40002441406</ele>
        <time>2023-09-30T12:44:37.000Z</time>
      </trkpt>
      <trkpt lat="41.63238" lon="20.19806">
        <ele>887.90997314453</ele>
        <time>2023-09-30T12:44:36.000Z</time>
      </trkpt>
      <trkpt lat="41.63243" lon="20.19823">
        <ele>887.42999267578</ele>
        <time>2023-09-30T12:44:35.000Z</time>
      </trkpt>
      <trkpt lat="41.63252" lon="20.1985">
        <ele>887.90997314453</ele>
        <time>2023-09-30T12:44:33.000Z</time>
      </trkpt>
      <trkpt lat="41.63256" lon="20.19867">
        <ele>887.90997314453</ele>
        <time>2023-09-30T12:44:32.000Z</time>
      </trkpt>
      <trkpt lat="41.63258" lon="20.19877">
        <ele>887.90997314453</ele>
        <time>2023-09-30T12:44:31.000Z</time>
      </trkpt>
      <trkpt lat="41.63265" lon="20.19911">
        <ele>886.95001220703</ele>
        <time>2023-09-30T12:44:29.000Z</time>
      </trkpt>
      <trkpt lat="41.63269" lon="20.19924">
        <ele>886.46997070312</ele>
        <time>2023-09-30T12:44:28.000Z</time>
      </trkpt>
      <trkpt lat="41.63275" lon="20.19936">
        <ele>885.98999023438</ele>
        <time>2023-09-30T12:44:27.000Z</time>
      </trkpt>
      <trkpt lat="41.6328" lon="20.19944">
        <ele>885.51000976562</ele>
        <time>2023-09-30T12:44:26.000Z</time>
      </trkpt>
      <trkpt lat="41.63285" lon="20.1995">
        <ele>885.03002929688</ele>
        <time>2023-09-30T12:44:25.000Z</time>
      </trkpt>
      <trkpt lat="41.63291" lon="20.19957">
        <ele>885.03002929688</ele>
        <time>2023-09-30T12:44:24.000Z</time>
      </trkpt>
      <trkpt lat="41.633" lon="20.19966">
        <ele>884.54998779297</ele>
        <time>2023-09-30T12:44:23.000Z</time>
      </trkpt>
      <trkpt lat="41.63314" lon="20.19981">
        <ele>884.54998779297</ele>
        <time>2023-09-30T12:44:22.000Z</time>
      </trkpt>
      <trkpt lat="41.63316" lon="20.19984">
        <ele>884.07000732422</ele>
        <time>2023-09-30T12:44:21.000Z</time>
      </trkpt>
      <trkpt lat="41.63342" lon="20.20012">
        <ele>883.10998535156</ele>
        <time>2023-09-30T12:44:19.000Z</time>
      </trkpt>
      <trkpt lat="41.63348" lon="20.20021">
        <ele>882.63000488281</ele>
        <time>2023-09-30T12:44:18.000Z</time>
      </trkpt>
      <trkpt lat="41.63353" lon="20.20032">
        <ele>882.15002441406</ele>
        <time>2023-09-30T12:44:17.000Z</time>
      </trkpt>
      <trkpt lat="41.63357" lon="20.20044">
        <ele>881.19000244141</ele>
        <time>2023-09-30T12:44:16.000Z</time>
      </trkpt>
      <trkpt lat="41.63362" lon="20.20052">
        <ele>880.71002197266</ele>
        <time>2023-09-30T12:44:15.000Z</time>
      </trkpt>
      <trkpt lat="41.63369" lon="20.20061">
        <ele>880.21997070312</ele>
        <time>2023-09-30T12:44:14.000Z</time>
      </trkpt>
      <trkpt lat="41.63376" lon="20.20067">
        <ele>879.73999023438</ele>
        <time>2023-09-30T12:44:13.000Z</time>
      </trkpt>
      <trkpt lat="41.634" lon="20.2008">
        <ele>877.82000732422</ele>
        <time>2023-09-30T12:44:11.000Z</time>
      </trkpt>
      <trkpt lat="41.63408" lon="20.20086">
        <ele>876.85998535156</ele>
        <time>2023-09-30T12:44:10.000Z</time>
      </trkpt>
      <trkpt lat="41.63415" lon="20.20093">
        <ele>875.90002441406</ele>
        <time>2023-09-30T12:44:09.000Z</time>
      </trkpt>
      <trkpt lat="41.63422" lon="20.20102">
        <ele>874.94000244141</ele>
        <time>2023-09-30T12:44:08.000Z</time>
      </trkpt>
      <trkpt lat="41.63429" lon="20.20111">
        <ele>873.97998046875</ele>
        <time>2023-09-30T12:44:07.000Z</time>
      </trkpt>
      <trkpt lat="41.63433" lon="20.2012">
        <ele>873.5</ele>
        <time>2023-09-30T12:44:06.000Z</time>
      </trkpt>
      <trkpt lat="41.63437" lon="20.20129">
        <ele>872.53002929688</ele>
        <time>2023-09-30T12:44:05.000Z</time>
      </trkpt>
      <trkpt lat="41.63439" lon="20.2014">
        <ele>871.57000732422</ele>
        <time>2023-09-30T12:44:04.000Z</time>
      </trkpt>
      <trkpt lat="41.63439" lon="20.20151">
        <ele>871.09002685547</ele>
        <time>2023-09-30T12:44:03.000Z</time>
      </trkpt>
      <trkpt lat="41.63437" lon="20.20163">
        <ele>870.13000488281</ele>
        <time>2023-09-30T12:44:02.000Z</time>
      </trkpt>
      <trkpt lat="41.63435" lon="20.20175">
        <ele>869.65002441406</ele>
        <time>2023-09-30T12:44:01.000Z</time>
      </trkpt>
      <trkpt lat="41.63431" lon="20.20186">
        <ele>869.65002441406</ele>
        <time>2023-09-30T12:44:00.000Z</time>
      </trkpt>
      <trkpt lat="41.63429" lon="20.20191">
        <ele>869.16998291016</ele>
        <time>2023-09-30T12:43:59.000Z</time>
      </trkpt>
      <trkpt lat="41.63417" lon="20.20214">
        <ele>868.21002197266</ele>
        <time>2023-09-30T12:43:57.000Z</time>
      </trkpt>
      <trkpt lat="41.63413" lon="20.20221">
        <ele>867.25</ele>
        <time>2023-09-30T12:43:56.000Z</time>
      </trkpt>
      <trkpt lat="41.63407" lon="20.20228">
        <ele>866.77001953125</ele>
        <time>2023-09-30T12:43:55.000Z</time>
      </trkpt>
      <trkpt lat="41.63403" lon="20.20232">
        <ele>866.28997802734</ele>
        <time>2023-09-30T12:43:54.000Z</time>
      </trkpt>
      <trkpt lat="41.63397" lon="20.20236">
        <ele>865.32000732422</ele>
        <time>2023-09-30T12:43:53.000Z</time>
      </trkpt>
      <trkpt lat="41.63391" lon="20.2024">
        <ele>864.84002685547</ele>
        <time>2023-09-30T12:43:52.000Z</time>
      </trkpt>
      <trkpt lat="41.63388" lon="20.20246">
        <ele>864.35998535156</ele>
        <time>2023-09-30T12:43:51.000Z</time>
      </trkpt>
      <trkpt lat="41.63387" lon="20.20252">
        <ele>863.88000488281</ele>
        <time>2023-09-30T12:43:50.000Z</time>
      </trkpt>
      <trkpt lat="41.63387" lon="20.20261">
        <ele>862.44000244141</ele>
        <time>2023-09-30T12:43:49.000Z</time>
      </trkpt>
      <trkpt lat="41.63391" lon="20.20268">
        <ele>861.47998046875</ele>
        <time>2023-09-30T12:43:48.000Z</time>
      </trkpt>
      <trkpt lat="41.63396" lon="20.20275">
        <ele>861</ele>
        <time>2023-09-30T12:43:47.000Z</time>
      </trkpt>
      <trkpt lat="41.63401" lon="20.20283">
        <ele>860.52001953125</ele>
        <time>2023-09-30T12:43:46.000Z</time>
      </trkpt>
      <trkpt lat="41.63404" lon="20.20291">
        <ele>860.03997802734</ele>
        <time>2023-09-30T12:43:45.000Z</time>
      </trkpt>
      <trkpt lat="41.63406" lon="20.20299">
        <ele>859.55999755859</ele>
        <time>2023-09-30T12:43:44.000Z</time>
      </trkpt>
      <trkpt lat="41.63414" lon="20.20332">
        <ele>858.59002685547</ele>
        <time>2023-09-30T12:43:42.000Z</time>
      </trkpt>
      <trkpt lat="41.63417" lon="20.20344">
        <ele>858.10998535156</ele>
        <time>2023-09-30T12:43:41.000Z</time>
      </trkpt>
      <trkpt lat="41.6342" lon="20.20358">
        <ele>857.63000488281</ele>
        <time>2023-09-30T12:43:40.000Z</time>
      </trkpt>
      <trkpt lat="41.63422" lon="20.2037">
        <ele>856.66998291016</ele>
        <time>2023-09-30T12:43:39.000Z</time>
      </trkpt>
      <trkpt lat="41.63423" lon="20.20379">
        <ele>856.66998291016</ele>
        <time>2023-09-30T12:43:38.000Z</time>
      </trkpt>
      <trkpt lat="41.63422" lon="20.20394">
        <ele>856.19000244141</ele>
        <time>2023-09-30T12:43:37.000Z</time>
      </trkpt>
      <trkpt lat="41.63423" lon="20.20405">
        <ele>856.19000244141</ele>
        <time>2023-09-30T12:43:36.000Z</time>
      </trkpt>
      <trkpt lat="41.63425" lon="20.20416">
        <ele>855.71002197266</ele>
        <time>2023-09-30T12:43:35.000Z</time>
      </trkpt>
      <trkpt lat="41.63428" lon="20.20426">
        <ele>855.71002197266</ele>
        <time>2023-09-30T12:43:34.000Z</time>
      </trkpt>
      <trkpt lat="41.63431" lon="20.20432">
        <ele>855.71002197266</ele>
        <time>2023-09-30T12:43:33.000Z</time>
      </trkpt>
      <trkpt lat="41.63437" lon="20.20445">
        <ele>855.22998046875</ele>
        <time>2023-09-30T12:43:32.000Z</time>
      </trkpt>
      <trkpt lat="41.63439" lon="20.20453">
        <ele>855.22998046875</ele>
        <time>2023-09-30T12:43:31.000Z</time>
      </trkpt>
      <trkpt lat="41.63439" lon="20.20462">
        <ele>854.75</ele>
        <time>2023-09-30T12:43:30.000Z</time>
      </trkpt>
      <trkpt lat="41.63438" lon="20.2047">
        <ele>855.22998046875</ele>
        <time>2023-09-30T12:43:29.000Z</time>
      </trkpt>
      <trkpt lat="41.63434" lon="20.2048">
        <ele>855.22998046875</ele>
        <time>2023-09-30T12:43:28.000Z</time>
      </trkpt>
      <trkpt lat="41.63431" lon="20.20486">
        <ele>854.75</ele>
        <time>2023-09-30T12:43:27.000Z</time>
      </trkpt>
      <trkpt lat="41.63418" lon="20.20516">
        <ele>854.27001953125</ele>
        <time>2023-09-30T12:43:25.000Z</time>
      </trkpt>
      <trkpt lat="41.63414" lon="20.20526">
        <ele>853.78997802734</ele>
        <time>2023-09-30T12:43:24.000Z</time>
      </trkpt>
      <trkpt lat="41.63407" lon="20.20546">
        <ele>852.34997558594</ele>
        <time>2023-09-30T12:43:22.000Z</time>
      </trkpt>
      <trkpt lat="41.63403" lon="20.20552">
        <ele>851.86999511719</ele>
        <time>2023-09-30T12:43:21.000Z</time>
      </trkpt>
      <trkpt lat="41.63398" lon="20.20556">
        <ele>850.90002441406</ele>
        <time>2023-09-30T12:43:20.000Z</time>
      </trkpt>
      <trkpt lat="41.63394" lon="20.20559">
        <ele>850.41998291016</ele>
        <time>2023-09-30T12:43:19.000Z</time>
      </trkpt>
      <trkpt lat="41.63388" lon="20.20563">
        <ele>849.46002197266</ele>
        <time>2023-09-30T12:43:18.000Z</time>
      </trkpt>
      <trkpt lat="41.63384" lon="20.20567">
        <ele>848.97998046875</ele>
        <time>2023-09-30T12:43:17.000Z</time>
      </trkpt>
      <trkpt lat="41.6338" lon="20.20575">
        <ele>848.02001953125</ele>
        <time>2023-09-30T12:43:16.000Z</time>
      </trkpt>
      <trkpt lat="41.63379" lon="20.20586">
        <ele>847.05999755859</ele>
        <time>2023-09-30T12:43:15.000Z</time>
      </trkpt>
      <trkpt lat="41.63379" lon="20.20595">
        <ele>846.58001708984</ele>
        <time>2023-09-30T12:43:14.000Z</time>
      </trkpt>
      <trkpt lat="41.6338" lon="20.20609">
        <ele>845.61999511719</ele>
        <time>2023-09-30T12:43:13.000Z</time>
      </trkpt>
      <trkpt lat="41.63381" lon="20.20616">
        <ele>845.61999511719</ele>
        <time>2023-09-30T12:43:12.000Z</time>
      </trkpt>
      <trkpt lat="41.63383" lon="20.20642">
        <ele>844.17999267578</ele>
        <time>2023-09-30T12:43:11.000Z</time>
      </trkpt>
      <trkpt lat="41.63384" lon="20.20652">
        <ele>843.69000244141</ele>
        <time>2023-09-30T12:43:10.000Z</time>
      </trkpt>
      <trkpt lat="41.63385" lon="20.20664">
        <ele>842.72998046875</ele>
        <time>2023-09-30T12:43:09.000Z</time>
      </trkpt>
      <trkpt lat="41.63385" lon="20.20686">
        <ele>841.77001953125</ele>
        <time>2023-09-30T12:43:08.000Z</time>
      </trkpt>
      <trkpt lat="41.63385" lon="20.20697">
        <ele>841.28997802734</ele>
        <time>2023-09-30T12:43:07.000Z</time>
      </trkpt>
      <trkpt lat="41.63387" lon="20.20709">
        <ele>840.80999755859</ele>
        <time>2023-09-30T12:43:06.000Z</time>
      </trkpt>
      <trkpt lat="41.6339" lon="20.2072">
        <ele>840.33001708984</ele>
        <time>2023-09-30T12:43:05.000Z</time>
      </trkpt>
      <trkpt lat="41.63395" lon="20.20732">
        <ele>839.36999511719</ele>
        <time>2023-09-30T12:43:04.000Z</time>
      </trkpt>
      <trkpt lat="41.63401" lon="20.20741">
        <ele>839.36999511719</ele>
        <time>2023-09-30T12:43:03.000Z</time>
      </trkpt>
      <trkpt lat="41.63405" lon="20.20747">
        <ele>839.36999511719</ele>
        <time>2023-09-30T12:43:02.000Z</time>
      </trkpt>
      <trkpt lat="41.6341" lon="20.20755">
        <ele>839.36999511719</ele>
        <time>2023-09-30T12:43:01.000Z</time>
      </trkpt>
      <trkpt lat="41.63415" lon="20.20762">
        <ele>839.36999511719</ele>
        <time>2023-09-30T12:43:00.000Z</time>
      </trkpt>
      <trkpt lat="41.63425" lon="20.20775">
        <ele>838.89001464844</ele>
        <time>2023-09-30T12:42:59.000Z</time>
      </trkpt>
      <trkpt lat="41.63431" lon="20.20781">
        <ele>838.89001464844</ele>
        <time>2023-09-30T12:42:58.000Z</time>
      </trkpt>
      <trkpt lat="41.63437" lon="20.20784">
        <ele>838.40997314453</ele>
        <time>2023-09-30T12:42:57.000Z</time>
      </trkpt>
      <trkpt lat="41.63442" lon="20.20784">
        <ele>838.40997314453</ele>
        <time>2023-09-30T12:42:56.000Z</time>
      </trkpt>
      <trkpt lat="41.63446" lon="20.20784">
        <ele>837.92999267578</ele>
        <time>2023-09-30T12:42:55.000Z</time>
      </trkpt>
      <trkpt lat="41.63452" lon="20.20782">
        <ele>837.45001220703</ele>
        <time>2023-09-30T12:42:54.000Z</time>
      </trkpt>
      <trkpt lat="41.63453" lon="20.20782">
        <ele>837.45001220703</ele>
        <time>2023-09-30T12:42:53.000Z</time>
      </trkpt>
      <trkpt lat="41.6346" lon="20.20787">
        <ele>836.96002197266</ele>
        <time>2023-09-30T12:42:51.000Z</time>
      </trkpt>
      <trkpt lat="41.6346" lon="20.20795">
        <ele>836.47998046875</ele>
        <time>2023-09-30T12:42:50.000Z</time>
      </trkpt>
      <trkpt lat="41.6346" lon="20.20799">
        <ele>836.47998046875</ele>
        <time>2023-09-30T12:42:49.000Z</time>
      </trkpt>
      <trkpt lat="41.63456" lon="20.20817">
        <ele>835.52001953125</ele>
        <time>2023-09-30T12:42:48.000Z</time>
      </trkpt>
      <trkpt lat="41.63455" lon="20.20829">
        <ele>835.03997802734</ele>
        <time>2023-09-30T12:42:47.000Z</time>
      </trkpt>
      <trkpt lat="41.63455" lon="20.20841">
        <ele>834.08001708984</ele>
        <time>2023-09-30T12:42:46.000Z</time>
      </trkpt>
      <trkpt lat="41.63456" lon="20.2085">
        <ele>833.59997558594</ele>
        <time>2023-09-30T12:42:45.000Z</time>
      </trkpt>
      <trkpt lat="41.63458" lon="20.20857">
        <ele>833.59997558594</ele>
        <time>2023-09-30T12:42:44.000Z</time>
      </trkpt>
      <trkpt lat="41.63461" lon="20.20863">
        <ele>833.11999511719</ele>
        <time>2023-09-30T12:42:43.000Z</time>
      </trkpt>
      <trkpt lat="41.63466" lon="20.2087">
        <ele>832.64001464844</ele>
        <time>2023-09-30T12:42:42.000Z</time>
      </trkpt>
      <trkpt lat="41.6347" lon="20.20876">
        <ele>832.15997314453</ele>
        <time>2023-09-30T12:42:41.000Z</time>
      </trkpt>
      <trkpt lat="41.63472" lon="20.20882">
        <ele>832.15997314453</ele>
        <time>2023-09-30T12:42:40.000Z</time>
      </trkpt>
      <trkpt lat="41.63473" lon="20.20888">
        <ele>831.67999267578</ele>
        <time>2023-09-30T12:42:39.000Z</time>
      </trkpt>
      <trkpt lat="41.63473" lon="20.20894">
        <ele>831.67999267578</ele>
        <time>2023-09-30T12:42:38.000Z</time>
      </trkpt>
      <trkpt lat="41.63471" lon="20.20899">
        <ele>831.67999267578</ele>
        <time>2023-09-30T12:42:37.000Z</time>
      </trkpt>
      <trkpt lat="41.63465" lon="20.20906">
        <ele>831.20001220703</ele>
        <time>2023-09-30T12:42:36.000Z</time>
      </trkpt>
      <trkpt lat="41.63462" lon="20.20908">
        <ele>831.20001220703</ele>
        <time>2023-09-30T12:42:35.000Z</time>
      </trkpt>
      <trkpt lat="41.63447" lon="20.2092">
        <ele>830.23999023438</ele>
        <time>2023-09-30T12:42:34.000Z</time>
      </trkpt>
      <trkpt lat="41.63445" lon="20.20922">
        <ele>830.23999023438</ele>
        <time>2023-09-30T12:42:33.000Z</time>
      </trkpt>
      <trkpt lat="41.63424" lon="20.20936">
        <ele>828.78997802734</ele>
        <time>2023-09-30T12:42:31.000Z</time>
      </trkpt>
      <trkpt lat="41.63401" lon="20.20952">
        <ele>826.86999511719</ele>
        <time>2023-09-30T12:42:29.000Z</time>
      </trkpt>
      <trkpt lat="41.63395" lon="20.20957">
        <ele>826.39001464844</ele>
        <time>2023-09-30T12:42:28.000Z</time>
      </trkpt>
      <trkpt lat="41.63391" lon="20.20962">
        <ele>825.90997314453</ele>
        <time>2023-09-30T12:42:27.000Z</time>
      </trkpt>
      <trkpt lat="41.63379" lon="20.20976">
        <ele>824.46997070312</ele>
        <time>2023-09-30T12:42:26.000Z</time>
      </trkpt>
      <trkpt lat="41.63372" lon="20.20988">
        <ele>823.98999023438</ele>
        <time>2023-09-30T12:42:25.000Z</time>
      </trkpt>
      <trkpt lat="41.63365" lon="20.21001">
        <ele>823.51000976562</ele>
        <time>2023-09-30T12:42:24.000Z</time>
      </trkpt>
      <trkpt lat="41.63363" lon="20.21007">
        <ele>823.51000976562</ele>
        <time>2023-09-30T12:42:23.000Z</time>
      </trkpt>
      <trkpt lat="41.63357" lon="20.21025">
        <ele>823.03002929688</ele>
        <time>2023-09-30T12:42:22.000Z</time>
      </trkpt>
      <trkpt lat="41.63352" lon="20.21035">
        <ele>822.54998779297</ele>
        <time>2023-09-30T12:42:21.000Z</time>
      </trkpt>
      <trkpt lat="41.63347" lon="20.21044">
        <ele>822.05999755859</ele>
        <time>2023-09-30T12:42:20.000Z</time>
      </trkpt>
      <trkpt lat="41.63339" lon="20.21056">
        <ele>820.61999511719</ele>
        <time>2023-09-30T12:42:19.000Z</time>
      </trkpt>
      <trkpt lat="41.63329" lon="20.2107">
        <ele>819.17999267578</ele>
        <time>2023-09-30T12:42:18.000Z</time>
      </trkpt>
      <trkpt lat="41.63323" lon="20.2108">
        <ele>818.21997070312</ele>
        <time>2023-09-30T12:42:17.000Z</time>
      </trkpt>
      <trkpt lat="41.63316" lon="20.21093">
        <ele>817.73999023438</ele>
        <time>2023-09-30T12:42:16.000Z</time>
      </trkpt>
      <trkpt lat="41.63311" lon="20.21106">
        <ele>817.26000976562</ele>
        <time>2023-09-30T12:42:15.000Z</time>
      </trkpt>
      <trkpt lat="41.63306" lon="20.21117">
        <ele>816.78002929688</ele>
        <time>2023-09-30T12:42:14.000Z</time>
      </trkpt>
      <trkpt lat="41.63303" lon="20.21129">
        <ele>816.78002929688</ele>
        <time>2023-09-30T12:42:13.000Z</time>
      </trkpt>
      <trkpt lat="41.63301" lon="20.2114">
        <ele>816.29998779297</ele>
        <time>2023-09-30T12:42:12.000Z</time>
      </trkpt>
      <trkpt lat="41.63298" lon="20.21157">
        <ele>815.82000732422</ele>
        <time>2023-09-30T12:42:11.000Z</time>
      </trkpt>
      <trkpt lat="41.63296" lon="20.21171">
        <ele>815.34002685547</ele>
        <time>2023-09-30T12:42:10.000Z</time>
      </trkpt>
      <trkpt lat="41.63294" lon="20.21185">
        <ele>815.34002685547</ele>
        <time>2023-09-30T12:42:09.000Z</time>
      </trkpt>
      <trkpt lat="41.63285" lon="20.21222">
        <ele>814.36999511719</ele>
        <time>2023-09-30T12:42:07.000Z</time>
      </trkpt>
      <trkpt lat="41.63282" lon="20.21231">
        <ele>813.89001464844</ele>
        <time>2023-09-30T12:42:06.000Z</time>
      </trkpt>
      <trkpt lat="41.63278" lon="20.21251">
        <ele>813.40997314453</ele>
        <time>2023-09-30T12:42:05.000Z</time>
      </trkpt>
      <trkpt lat="41.63275" lon="20.21267">
        <ele>813.40997314453</ele>
        <time>2023-09-30T12:42:04.000Z</time>
      </trkpt>
      <trkpt lat="41.63272" lon="20.21276">
        <ele>812.92999267578</ele>
        <time>2023-09-30T12:42:03.000Z</time>
      </trkpt>
      <trkpt lat="41.63267" lon="20.21308">
        <ele>812.45001220703</ele>
        <time>2023-09-30T12:42:01.000Z</time>
      </trkpt>
      <trkpt lat="41.63266" lon="20.21321">
        <ele>811.96997070312</ele>
        <time>2023-09-30T12:42:00.000Z</time>
      </trkpt>
      <trkpt lat="41.63267" lon="20.21334">
        <ele>811.48999023438</ele>
        <time>2023-09-30T12:41:59.000Z</time>
      </trkpt>
      <trkpt lat="41.63268" lon="20.21342">
        <ele>811.01000976562</ele>
        <time>2023-09-30T12:41:58.000Z</time>
      </trkpt>
      <trkpt lat="41.63272" lon="20.2136">
        <ele>810.53002929688</ele>
        <time>2023-09-30T12:41:57.000Z</time>
      </trkpt>
      <trkpt lat="41.63276" lon="20.21378">
        <ele>810.04998779297</ele>
        <time>2023-09-30T12:41:56.000Z</time>
      </trkpt>
      <trkpt lat="41.63278" lon="20.21392">
        <ele>809.57000732422</ele>
        <time>2023-09-30T12:41:55.000Z</time>
      </trkpt>
      <trkpt lat="41.63278" lon="20.21407">
        <ele>809.09002685547</ele>
        <time>2023-09-30T12:41:54.000Z</time>
      </trkpt>
      <trkpt lat="41.63277" lon="20.21418">
        <ele>808.60998535156</ele>
        <time>2023-09-30T12:41:53.000Z</time>
      </trkpt>
      <trkpt lat="41.63276" lon="20.21422">
        <ele>808.13000488281</ele>
        <time>2023-09-30T12:41:52.000Z</time>
      </trkpt>
      <trkpt lat="41.63271" lon="20.21446">
        <ele>807.64001464844</ele>
        <time>2023-09-30T12:41:51.000Z</time>
      </trkpt>
      <trkpt lat="41.63269" lon="20.2146">
        <ele>807.64001464844</ele>
        <time>2023-09-30T12:41:50.000Z</time>
      </trkpt>
      <trkpt lat="41.63268" lon="20.21476">
        <ele>807.64001464844</ele>
        <time>2023-09-30T12:41:49.000Z</time>
      </trkpt>
      <trkpt lat="41.63268" lon="20.21493">
        <ele>807.64001464844</ele>
        <time>2023-09-30T12:41:48.000Z</time>
      </trkpt>
      <trkpt lat="41.63267" lon="20.21507">
        <ele>807.64001464844</ele>
        <time>2023-09-30T12:41:47.000Z</time>
      </trkpt>
      <trkpt lat="41.63265" lon="20.21527">
        <ele>807.64001464844</ele>
        <time>2023-09-30T12:41:46.000Z</time>
      </trkpt>
      <trkpt lat="41.63264" lon="20.21544">
        <ele>807.64001464844</ele>
        <time>2023-09-30T12:41:45.000Z</time>
      </trkpt>
      <trkpt lat="41.63262" lon="20.21564">
        <ele>807.15997314453</ele>
        <time>2023-09-30T12:41:44.000Z</time>
      </trkpt>
      <trkpt lat="41.6326" lon="20.21577">
        <ele>806.67999267578</ele>
        <time>2023-09-30T12:41:43.000Z</time>
      </trkpt>
      <trkpt lat="41.63258" lon="20.21596">
        <ele>806.20001220703</ele>
        <time>2023-09-30T12:41:42.000Z</time>
      </trkpt>
      <trkpt lat="41.63257" lon="20.21607">
        <ele>805.71997070312</ele>
        <time>2023-09-30T12:41:41.000Z</time>
      </trkpt>
      <trkpt lat="41.63253" lon="20.21621">
        <ele>804.76000976562</ele>
        <time>2023-09-30T12:41:40.000Z</time>
      </trkpt>
      <trkpt lat="41.6325" lon="20.21631">
        <ele>804.28002929688</ele>
        <time>2023-09-30T12:41:39.000Z</time>
      </trkpt>
      <trkpt lat="41.63245" lon="20.21641">
        <ele>803.79998779297</ele>
        <time>2023-09-30T12:41:38.000Z</time>
      </trkpt>
      <trkpt lat="41.63226" lon="20.21684">
        <ele>801.88000488281</ele>
        <time>2023-09-30T12:41:35.000Z</time>
      </trkpt>
      <trkpt lat="41.63219" lon="20.217">
        <ele>801.40002441406</ele>
        <time>2023-09-30T12:41:34.000Z</time>
      </trkpt>
      <trkpt lat="41.63214" lon="20.21709">
        <ele>801.40002441406</ele>
        <time>2023-09-30T12:41:33.000Z</time>
      </trkpt>
      <trkpt lat="41.63206" lon="20.21722">
        <ele>801.40002441406</ele>
        <time>2023-09-30T12:41:32.000Z</time>
      </trkpt>
      <trkpt lat="41.63199" lon="20.21734">
        <ele>800.91998291016</ele>
        <time>2023-09-30T12:41:31.000Z</time>
      </trkpt>
      <trkpt lat="41.63194" lon="20.21747">
        <ele>799.95001220703</ele>
        <time>2023-09-30T12:41:30.000Z</time>
      </trkpt>
      <trkpt lat="41.6319" lon="20.21758">
        <ele>799.95001220703</ele>
        <time>2023-09-30T12:41:29.000Z</time>
      </trkpt>
      <trkpt lat="41.63185" lon="20.21774">
        <ele>798.98999023438</ele>
        <time>2023-09-30T12:41:28.000Z</time>
      </trkpt>
      <trkpt lat="41.63182" lon="20.21784">
        <ele>798.51000976562</ele>
        <time>2023-09-30T12:41:27.000Z</time>
      </trkpt>
      <trkpt lat="41.63178" lon="20.21794">
        <ele>798.03002929688</ele>
        <time>2023-09-30T12:41:26.000Z</time>
      </trkpt>
      <trkpt lat="41.63172" lon="20.21805">
        <ele>797.54998779297</ele>
        <time>2023-09-30T12:41:25.000Z</time>
      </trkpt>
      <trkpt lat="41.63167" lon="20.21815">
        <ele>797.07000732422</ele>
        <time>2023-09-30T12:41:24.000Z</time>
      </trkpt>
      <trkpt lat="41.63166" lon="20.21822">
        <ele>797.07000732422</ele>
        <time>2023-09-30T12:41:23.000Z</time>
      </trkpt>
      <trkpt lat="41.63164" lon="20.21829">
        <ele>796.59002685547</ele>
        <time>2023-09-30T12:41:22.000Z</time>
      </trkpt>
      <trkpt lat="41.63161" lon="20.21845">
        <ele>796.59002685547</ele>
        <time>2023-09-30T12:41:21.000Z</time>
      </trkpt>
      <trkpt lat="41.63159" lon="20.21861">
        <ele>796.59002685547</ele>
        <time>2023-09-30T12:41:20.000Z</time>
      </trkpt>
      <trkpt lat="41.63158" lon="20.21876">
        <ele>796.10998535156</ele>
        <time>2023-09-30T12:41:19.000Z</time>
      </trkpt>
      <trkpt lat="41.63158" lon="20.21894">
        <ele>796.10998535156</ele>
        <time>2023-09-30T12:41:18.000Z</time>
      </trkpt>
      <trkpt lat="41.63157" lon="20.21907">
        <ele>796.10998535156</ele>
        <time>2023-09-30T12:41:17.000Z</time>
      </trkpt>
      <trkpt lat="41.63157" lon="20.21915">
        <ele>796.10998535156</ele>
        <time>2023-09-30T12:41:16.000Z</time>
      </trkpt>
      <trkpt lat="41.63155" lon="20.21931">
        <ele>795.63000488281</ele>
        <time>2023-09-30T12:41:15.000Z</time>
      </trkpt>
      <trkpt lat="41.63153" lon="20.21948">
        <ele>795.63000488281</ele>
        <time>2023-09-30T12:41:14.000Z</time>
      </trkpt>
      <trkpt lat="41.63152" lon="20.21964">
        <ele>795.63000488281</ele>
        <time>2023-09-30T12:41:13.000Z</time>
      </trkpt>
      <trkpt lat="41.63151" lon="20.2198">
        <ele>796.10998535156</ele>
        <time>2023-09-30T12:41:12.000Z</time>
      </trkpt>
      <trkpt lat="41.63149" lon="20.22012">
        <ele>796.59002685547</ele>
        <time>2023-09-30T12:41:10.000Z</time>
      </trkpt>
      <trkpt lat="41.63149" lon="20.22022">
        <ele>796.59002685547</ele>
        <time>2023-09-30T12:41:09.000Z</time>
      </trkpt>
      <trkpt lat="41.63149" lon="20.22036">
        <ele>796.59002685547</ele>
        <time>2023-09-30T12:41:08.000Z</time>
      </trkpt>
      <trkpt lat="41.63149" lon="20.2205">
        <ele>796.10998535156</ele>
        <time>2023-09-30T12:41:07.000Z</time>
      </trkpt>
      <trkpt lat="41.6315" lon="20.22066">
        <ele>796.10998535156</ele>
        <time>2023-09-30T12:41:06.000Z</time>
      </trkpt>
      <trkpt lat="41.63152" lon="20.22079">
        <ele>796.59002685547</ele>
        <time>2023-09-30T12:41:05.000Z</time>
      </trkpt>
      <trkpt lat="41.63155" lon="20.22107">
        <ele>796.10998535156</ele>
        <time>2023-09-30T12:41:03.000Z</time>
      </trkpt>
      <trkpt lat="41.63155" lon="20.22113">
        <ele>796.10998535156</ele>
        <time>2023-09-30T12:41:02.000Z</time>
      </trkpt>
      <trkpt lat="41.63157" lon="20.22128">
        <ele>795.63000488281</ele>
        <time>2023-09-30T12:41:01.000Z</time>
      </trkpt>
      <trkpt lat="41.63159" lon="20.22136">
        <ele>795.63000488281</ele>
        <time>2023-09-30T12:41:00.000Z</time>
      </trkpt>
      <trkpt lat="41.63162" lon="20.22142">
        <ele>795.15002441406</ele>
        <time>2023-09-30T12:40:59.000Z</time>
      </trkpt>
      <trkpt lat="41.63167" lon="20.22147">
        <ele>795.15002441406</ele>
        <time>2023-09-30T12:40:58.000Z</time>
      </trkpt>
      <trkpt lat="41.6317" lon="20.2215">
        <ele>794.66998291016</ele>
        <time>2023-09-30T12:40:57.000Z</time>
      </trkpt>
      <trkpt lat="41.63182" lon="20.22159">
        <ele>795.15002441406</ele>
        <time>2023-09-30T12:40:56.000Z</time>
      </trkpt>
      <trkpt lat="41.63188" lon="20.22163">
        <ele>794.66998291016</ele>
        <time>2023-09-30T12:40:55.000Z</time>
      </trkpt>
      <trkpt lat="41.63195" lon="20.22165">
        <ele>794.66998291016</ele>
        <time>2023-09-30T12:40:54.000Z</time>
      </trkpt>
      <trkpt lat="41.63202" lon="20.22167">
        <ele>794.66998291016</ele>
        <time>2023-09-30T12:40:53.000Z</time>
      </trkpt>
      <trkpt lat="41.63207" lon="20.22169">
        <ele>795.15002441406</ele>
        <time>2023-09-30T12:40:52.000Z</time>
      </trkpt>
      <trkpt lat="41.63213" lon="20.22171">
        <ele>795.15002441406</ele>
        <time>2023-09-30T12:40:51.000Z</time>
      </trkpt>
      <trkpt lat="41.63217" lon="20.22172">
        <ele>795.15002441406</ele>
        <time>2023-09-30T12:40:50.000Z</time>
      </trkpt>
      <trkpt lat="41.63221" lon="20.22175">
        <ele>795.15002441406</ele>
        <time>2023-09-30T12:40:49.000Z</time>
      </trkpt>
      <trkpt lat="41.63225" lon="20.22181">
        <ele>795.15002441406</ele>
        <time>2023-09-30T12:40:48.000Z</time>
      </trkpt>
      <trkpt lat="41.63227" lon="20.22187">
        <ele>795.15002441406</ele>
        <time>2023-09-30T12:40:47.000Z</time>
      </trkpt>
      <trkpt lat="41.63227" lon="20.22192">
        <ele>794.66998291016</ele>
        <time>2023-09-30T12:40:46.000Z</time>
      </trkpt>
      <trkpt lat="41.63226" lon="20.22198">
        <ele>794.66998291016</ele>
        <time>2023-09-30T12:40:45.000Z</time>
      </trkpt>
      <trkpt lat="41.63222" lon="20.22205">
        <ele>794.66998291016</ele>
        <time>2023-09-30T12:40:44.000Z</time>
      </trkpt>
      <trkpt lat="41.63215" lon="20.22212">
        <ele>794.66998291016</ele>
        <time>2023-09-30T12:40:43.000Z</time>
      </trkpt>
      <trkpt lat="41.63207" lon="20.22219">
        <ele>794.19000244141</ele>
        <time>2023-09-30T12:40:42.000Z</time>
      </trkpt>
      <trkpt lat="41.63205" lon="20.2222">
        <ele>794.19000244141</ele>
        <time>2023-09-30T12:40:41.000Z</time>
      </trkpt>
      <trkpt lat="41.63188" lon="20.22231">
        <ele>793.71002197266</ele>
        <time>2023-09-30T12:40:40.000Z</time>
      </trkpt>
      <trkpt lat="41.63176" lon="20.22239">
        <ele>793.71002197266</ele>
        <time>2023-09-30T12:40:39.000Z</time>
      </trkpt>
      <trkpt lat="41.63167" lon="20.22246">
        <ele>794.19000244141</ele>
        <time>2023-09-30T12:40:38.000Z</time>
      </trkpt>
      <trkpt lat="41.63159" lon="20.22252">
        <ele>794.19000244141</ele>
        <time>2023-09-30T12:40:37.000Z</time>
      </trkpt>
      <trkpt lat="41.63152" lon="20.22259">
        <ele>794.66998291016</ele>
        <time>2023-09-30T12:40:36.000Z</time>
      </trkpt>
      <trkpt lat="41.63147" lon="20.22267">
        <ele>795.15002441406</ele>
        <time>2023-09-30T12:40:35.000Z</time>
      </trkpt>
      <trkpt lat="41.63132" lon="20.22296">
        <ele>796.59002685547</ele>
        <time>2023-09-30T12:40:32.000Z</time>
      </trkpt>
      <trkpt lat="41.6313" lon="20.22304">
        <ele>797.07000732422</ele>
        <time>2023-09-30T12:40:31.000Z</time>
      </trkpt>
      <trkpt lat="41.63129" lon="20.22314">
        <ele>797.54998779297</ele>
        <time>2023-09-30T12:40:30.000Z</time>
      </trkpt>
      <trkpt lat="41.63131" lon="20.22327">
        <ele>798.03002929688</ele>
        <time>2023-09-30T12:40:29.000Z</time>
      </trkpt>
      <trkpt lat="41.63133" lon="20.22341">
        <ele>798.03002929688</ele>
        <time>2023-09-30T12:40:28.000Z</time>
      </trkpt>
      <trkpt lat="41.63135" lon="20.22355">
        <ele>798.03002929688</ele>
        <time>2023-09-30T12:40:27.000Z</time>
      </trkpt>
      <trkpt lat="41.63135" lon="20.22368">
        <ele>798.98999023438</ele>
        <time>2023-09-30T12:40:26.000Z</time>
      </trkpt>
      <trkpt lat="41.63134" lon="20.22385">
        <ele>799.46997070312</ele>
        <time>2023-09-30T12:40:25.000Z</time>
      </trkpt>
      <trkpt lat="41.63135" lon="20.22415">
        <ele>800.44000244141</ele>
        <time>2023-09-30T12:40:23.000Z</time>
      </trkpt>
      <trkpt lat="41.63135" lon="20.22434">
        <ele>800.91998291016</ele>
        <time>2023-09-30T12:40:22.000Z</time>
      </trkpt>
      <trkpt lat="41.63134" lon="20.22449">
        <ele>801.40002441406</ele>
        <time>2023-09-30T12:40:21.000Z</time>
      </trkpt>
      <trkpt lat="41.63133" lon="20.22469">
        <ele>802.35998535156</ele>
        <time>2023-09-30T12:40:20.000Z</time>
      </trkpt>
      <trkpt lat="41.63131" lon="20.22485">
        <ele>803.32000732422</ele>
        <time>2023-09-30T12:40:19.000Z</time>
      </trkpt>
      <trkpt lat="41.63129" lon="20.22503">
        <ele>803.79998779297</ele>
        <time>2023-09-30T12:40:18.000Z</time>
      </trkpt>
      <trkpt lat="41.63126" lon="20.22525">
        <ele>804.76000976562</ele>
        <time>2023-09-30T12:40:17.000Z</time>
      </trkpt>
      <trkpt lat="41.63123" lon="20.22552">
        <ele>804.76000976562</ele>
        <time>2023-09-30T12:40:15.000Z</time>
      </trkpt>
      <trkpt lat="41.6312" lon="20.22575">
        <ele>805.23999023438</ele>
        <time>2023-09-30T12:40:13.000Z</time>
      </trkpt>
      <trkpt lat="41.63115" lon="20.22602">
        <ele>805.71997070312</ele>
        <time>2023-09-30T12:40:12.000Z</time>
      </trkpt>
      <trkpt lat="41.63114" lon="20.22612">
        <ele>806.20001220703</ele>
        <time>2023-09-30T12:40:11.000Z</time>
      </trkpt>
      <trkpt lat="41.63113" lon="20.22626">
        <ele>805.71997070312</ele>
        <time>2023-09-30T12:40:10.000Z</time>
      </trkpt>
      <trkpt lat="41.63112" lon="20.22634">
        <ele>805.71997070312</ele>
        <time>2023-09-30T12:40:09.000Z</time>
      </trkpt>
      <trkpt lat="41.6311" lon="20.22663">
        <ele>805.71997070312</ele>
        <time>2023-09-30T12:40:07.000Z</time>
      </trkpt>
      <trkpt lat="41.63109" lon="20.22683">
        <ele>805.71997070312</ele>
        <time>2023-09-30T12:40:06.000Z</time>
      </trkpt>
      <trkpt lat="41.63107" lon="20.22699">
        <ele>805.71997070312</ele>
        <time>2023-09-30T12:40:05.000Z</time>
      </trkpt>
      <trkpt lat="41.63106" lon="20.22717">
        <ele>805.71997070312</ele>
        <time>2023-09-30T12:40:04.000Z</time>
      </trkpt>
      <trkpt lat="41.63105" lon="20.22728">
        <ele>805.71997070312</ele>
        <time>2023-09-30T12:40:03.000Z</time>
      </trkpt>
      <trkpt lat="41.63102" lon="20.22752">
        <ele>805.23999023438</ele>
        <time>2023-09-30T12:40:02.000Z</time>
      </trkpt>
      <trkpt lat="41.63102" lon="20.22768">
        <ele>804.76000976562</ele>
        <time>2023-09-30T12:40:01.000Z</time>
      </trkpt>
      <trkpt lat="41.63102" lon="20.22787">
        <ele>805.23999023438</ele>
        <time>2023-09-30T12:40:00.000Z</time>
      </trkpt>
      <trkpt lat="41.63102" lon="20.22806">
        <ele>805.23999023438</ele>
        <time>2023-09-30T12:39:59.000Z</time>
      </trkpt>
      <trkpt lat="41.63098" lon="20.22822">
        <ele>806.20001220703</ele>
        <time>2023-09-30T12:39:58.000Z</time>
      </trkpt>
      <trkpt lat="41.63094" lon="20.22835">
        <ele>806.67999267578</ele>
        <time>2023-09-30T12:39:57.000Z</time>
      </trkpt>
      <trkpt lat="41.63089" lon="20.22852">
        <ele>806.67999267578</ele>
        <time>2023-09-30T12:39:56.000Z</time>
      </trkpt>
      <trkpt lat="41.63082" lon="20.22874">
        <ele>806.67999267578</ele>
        <time>2023-09-30T12:39:55.000Z</time>
      </trkpt>
      <trkpt lat="41.63076" lon="20.22889">
        <ele>806.67999267578</ele>
        <time>2023-09-30T12:39:54.000Z</time>
      </trkpt>
      <trkpt lat="41.6307" lon="20.22905">
        <ele>806.20001220703</ele>
        <time>2023-09-30T12:39:53.000Z</time>
      </trkpt>
      <trkpt lat="41.63063" lon="20.22922">
        <ele>806.20001220703</ele>
        <time>2023-09-30T12:39:52.000Z</time>
      </trkpt>
      <trkpt lat="41.63059" lon="20.22936">
        <ele>805.71997070312</ele>
        <time>2023-09-30T12:39:51.000Z</time>
      </trkpt>
      <trkpt lat="41.63054" lon="20.22957">
        <ele>805.71997070312</ele>
        <time>2023-09-30T12:39:50.000Z</time>
      </trkpt>
      <trkpt lat="41.63052" lon="20.22969">
        <ele>805.71997070312</ele>
        <time>2023-09-30T12:39:49.000Z</time>
      </trkpt>
      <trkpt lat="41.63048" lon="20.22987">
        <ele>804.76000976562</ele>
        <time>2023-09-30T12:39:48.000Z</time>
      </trkpt>
      <trkpt lat="41.63042" lon="20.23003">
        <ele>804.28002929688</ele>
        <time>2023-09-30T12:39:47.000Z</time>
      </trkpt>
      <trkpt lat="41.63038" lon="20.23016">
        <ele>803.32000732422</ele>
        <time>2023-09-30T12:39:46.000Z</time>
      </trkpt>
      <trkpt lat="41.63033" lon="20.23026">
        <ele>802.84002685547</ele>
        <time>2023-09-30T12:39:45.000Z</time>
      </trkpt>
      <trkpt lat="41.63027" lon="20.23038">
        <ele>802.35998535156</ele>
        <time>2023-09-30T12:39:44.000Z</time>
      </trkpt>
      <trkpt lat="41.62999" lon="20.23088">
        <ele>798.98999023438</ele>
        <time>2023-09-30T12:39:40.000Z</time>
      </trkpt>
      <trkpt lat="41.62993" lon="20.23099">
        <ele>798.51000976562</ele>
        <time>2023-09-30T12:39:39.000Z</time>
      </trkpt>
      <trkpt lat="41.62991" lon="20.23103">
        <ele>798.03002929688</ele>
        <time>2023-09-30T12:39:38.000Z</time>
      </trkpt>
      <trkpt lat="41.62984" lon="20.23115">
        <ele>797.07000732422</ele>
        <time>2023-09-30T12:39:37.000Z</time>
      </trkpt>
      <trkpt lat="41.62973" lon="20.23136">
        <ele>796.10998535156</ele>
        <time>2023-09-30T12:39:36.000Z</time>
      </trkpt>
      <trkpt lat="41.62967" lon="20.23146">
        <ele>795.63000488281</ele>
        <time>2023-09-30T12:39:35.000Z</time>
      </trkpt>
      <trkpt lat="41.6296" lon="20.23155">
        <ele>795.15002441406</ele>
        <time>2023-09-30T12:39:34.000Z</time>
      </trkpt>
      <trkpt lat="41.62952" lon="20.23165">
        <ele>794.19000244141</ele>
        <time>2023-09-30T12:39:33.000Z</time>
      </trkpt>
      <trkpt lat="41.62947" lon="20.23175">
        <ele>793.71002197266</ele>
        <time>2023-09-30T12:39:32.000Z</time>
      </trkpt>
      <trkpt lat="41.62943" lon="20.23184">
        <ele>793.21997070312</ele>
        <time>2023-09-30T12:39:31.000Z</time>
      </trkpt>
      <trkpt lat="41.62938" lon="20.23197">
        <ele>793.21997070312</ele>
        <time>2023-09-30T12:39:30.000Z</time>
      </trkpt>
      <trkpt lat="41.62932" lon="20.23211">
        <ele>792.73999023438</ele>
        <time>2023-09-30T12:39:29.000Z</time>
      </trkpt>
      <trkpt lat="41.62929" lon="20.23223">
        <ele>792.26000976562</ele>
        <time>2023-09-30T12:39:28.000Z</time>
      </trkpt>
      <trkpt lat="41.62928" lon="20.2323">
        <ele>792.26000976562</ele>
        <time>2023-09-30T12:39:27.000Z</time>
      </trkpt>
      <trkpt lat="41.62927" lon="20.23247">
        <ele>792.26000976562</ele>
        <time>2023-09-30T12:39:26.000Z</time>
      </trkpt>
      <trkpt lat="41.62924" lon="20.23261">
        <ele>792.73999023438</ele>
        <time>2023-09-30T12:39:25.000Z</time>
      </trkpt>
      <trkpt lat="41.62914" lon="20.23285">
        <ele>792.73999023438</ele>
        <time>2023-09-30T12:39:23.000Z</time>
      </trkpt>
      <trkpt lat="41.62907" lon="20.23301">
        <ele>792.73999023438</ele>
        <time>2023-09-30T12:39:22.000Z</time>
      </trkpt>
      <trkpt lat="41.62901" lon="20.23315">
        <ele>792.26000976562</ele>
        <time>2023-09-30T12:39:21.000Z</time>
      </trkpt>
      <trkpt lat="41.62896" lon="20.2333">
        <ele>792.26000976562</ele>
        <time>2023-09-30T12:39:20.000Z</time>
      </trkpt>
      <trkpt lat="41.62893" lon="20.23338">
        <ele>791.78002929688</ele>
        <time>2023-09-30T12:39:19.000Z</time>
      </trkpt>
      <trkpt lat="41.62885" lon="20.23371">
        <ele>790.34002685547</ele>
        <time>2023-09-30T12:39:17.000Z</time>
      </trkpt>
      <trkpt lat="41.62881" lon="20.23391">
        <ele>789.38000488281</ele>
        <time>2023-09-30T12:39:16.000Z</time>
      </trkpt>
      <trkpt lat="41.62878" lon="20.23403">
        <ele>789.38000488281</ele>
        <time>2023-09-30T12:39:15.000Z</time>
      </trkpt>
      <trkpt lat="41.62872" lon="20.2342">
        <ele>789.38000488281</ele>
        <time>2023-09-30T12:39:14.000Z</time>
      </trkpt>
      <trkpt lat="41.62867" lon="20.23432">
        <ele>789.38000488281</ele>
        <time>2023-09-30T12:39:13.000Z</time>
      </trkpt>
      <trkpt lat="41.62864" lon="20.23444">
        <ele>788.90002441406</ele>
        <time>2023-09-30T12:39:12.000Z</time>
      </trkpt>
      <trkpt lat="41.62861" lon="20.23463">
        <ele>787.94000244141</ele>
        <time>2023-09-30T12:39:11.000Z</time>
      </trkpt>
      <trkpt lat="41.62858" lon="20.23479">
        <ele>787.46002197266</ele>
        <time>2023-09-30T12:39:10.000Z</time>
      </trkpt>
      <trkpt lat="41.62853" lon="20.23496">
        <ele>787.46002197266</ele>
        <time>2023-09-30T12:39:09.000Z</time>
      </trkpt>
      <trkpt lat="41.62851" lon="20.23505">
        <ele>787.46002197266</ele>
        <time>2023-09-30T12:39:08.000Z</time>
      </trkpt>
      <trkpt lat="41.62847" lon="20.23524">
        <ele>787.46002197266</ele>
        <time>2023-09-30T12:39:07.000Z</time>
      </trkpt>
      <trkpt lat="41.62845" lon="20.23542">
        <ele>786.97998046875</ele>
        <time>2023-09-30T12:39:06.000Z</time>
      </trkpt>
      <trkpt lat="41.62843" lon="20.23556">
        <ele>786.5</ele>
        <time>2023-09-30T12:39:05.000Z</time>
      </trkpt>
      <trkpt lat="41.6284" lon="20.23569">
        <ele>786.02001953125</ele>
        <time>2023-09-30T12:39:04.000Z</time>
      </trkpt>
      <trkpt lat="41.62836" lon="20.23585">
        <ele>785.04998779297</ele>
        <time>2023-09-30T12:39:03.000Z</time>
      </trkpt>
      <trkpt lat="41.62832" lon="20.23598">
        <ele>784.09002685547</ele>
        <time>2023-09-30T12:39:02.000Z</time>
      </trkpt>
      <trkpt lat="41.62825" lon="20.23615">
        <ele>783.13000488281</ele>
        <time>2023-09-30T12:39:01.000Z</time>
      </trkpt>
      <trkpt lat="41.62821" lon="20.23621">
        <ele>783.13000488281</ele>
        <time>2023-09-30T12:39:00.000Z</time>
      </trkpt>
      <trkpt lat="41.62811" lon="20.23639">
        <ele>781.69000244141</ele>
        <time>2023-09-30T12:38:59.000Z</time>
      </trkpt>
      <trkpt lat="41.62807" lon="20.23649">
        <ele>781.21002197266</ele>
        <time>2023-09-30T12:38:58.000Z</time>
      </trkpt>
      <trkpt lat="41.62804" lon="20.23657">
        <ele>780.72998046875</ele>
        <time>2023-09-30T12:38:57.000Z</time>
      </trkpt>
      <trkpt lat="41.62797" lon="20.23676">
        <ele>779.28997802734</ele>
        <time>2023-09-30T12:38:56.000Z</time>
      </trkpt>
      <trkpt lat="41.62794" lon="20.23684">
        <ele>778.32000732422</ele>
        <time>2023-09-30T12:38:55.000Z</time>
      </trkpt>
      <trkpt lat="41.62791" lon="20.23697">
        <ele>777.35998535156</ele>
        <time>2023-09-30T12:38:54.000Z</time>
      </trkpt>
      <trkpt lat="41.62788" lon="20.23707">
        <ele>776.40002441406</ele>
        <time>2023-09-30T12:38:53.000Z</time>
      </trkpt>
      <trkpt lat="41.62785" lon="20.23717">
        <ele>775.44000244141</ele>
        <time>2023-09-30T12:38:52.000Z</time>
      </trkpt>
      <trkpt lat="41.62781" lon="20.23735">
        <ele>774</ele>
        <time>2023-09-30T12:38:51.000Z</time>
      </trkpt>
      <trkpt lat="41.62779" lon="20.23744">
        <ele>773.52001953125</ele>
        <time>2023-09-30T12:38:50.000Z</time>
      </trkpt>
      <trkpt lat="41.62778" lon="20.23755">
        <ele>773.03997802734</ele>
        <time>2023-09-30T12:38:49.000Z</time>
      </trkpt>
      <trkpt lat="41.62775" lon="20.23777">
        <ele>772.08001708984</ele>
        <time>2023-09-30T12:38:48.000Z</time>
      </trkpt>
      <trkpt lat="41.62774" lon="20.23812">
        <ele>770.63000488281</ele>
        <time>2023-09-30T12:38:46.000Z</time>
      </trkpt>
      <trkpt lat="41.62774" lon="20.23827">
        <ele>769.66998291016</ele>
        <time>2023-09-30T12:38:45.000Z</time>
      </trkpt>
      <trkpt lat="41.62774" lon="20.23834">
        <ele>769.19000244141</ele>
        <time>2023-09-30T12:38:44.000Z</time>
      </trkpt>
      <trkpt lat="41.62777" lon="20.23858">
        <ele>768.22998046875</ele>
        <time>2023-09-30T12:38:43.000Z</time>
      </trkpt>
      <trkpt lat="41.62778" lon="20.23872">
        <ele>767.75</ele>
        <time>2023-09-30T12:38:42.000Z</time>
      </trkpt>
      <trkpt lat="41.62777" lon="20.23886">
        <ele>767.27001953125</ele>
        <time>2023-09-30T12:38:41.000Z</time>
      </trkpt>
      <trkpt lat="41.62774" lon="20.23898">
        <ele>766.30999755859</ele>
        <time>2023-09-30T12:38:40.000Z</time>
      </trkpt>
      <trkpt lat="41.62768" lon="20.2391">
        <ele>765.83001708984</ele>
        <time>2023-09-30T12:38:39.000Z</time>
      </trkpt>
      <trkpt lat="41.62765" lon="20.23916">
        <ele>765.34997558594</ele>
        <time>2023-09-30T12:38:38.000Z</time>
      </trkpt>
      <trkpt lat="41.62756" lon="20.23929">
        <ele>764.86999511719</ele>
        <time>2023-09-30T12:38:37.000Z</time>
      </trkpt>
      <trkpt lat="41.62749" lon="20.23939">
        <ele>764.39001464844</ele>
        <time>2023-09-30T12:38:36.000Z</time>
      </trkpt>
      <trkpt lat="41.62742" lon="20.23951">
        <ele>763.90002441406</ele>
        <time>2023-09-30T12:38:35.000Z</time>
      </trkpt>
      <trkpt lat="41.62738" lon="20.23961">
        <ele>763.41998291016</ele>
        <time>2023-09-30T12:38:34.000Z</time>
      </trkpt>
      <trkpt lat="41.62735" lon="20.23971">
        <ele>763.41998291016</ele>
        <time>2023-09-30T12:38:33.000Z</time>
      </trkpt>
      <trkpt lat="41.62732" lon="20.23982">
        <ele>762.94000244141</ele>
        <time>2023-09-30T12:38:32.000Z</time>
      </trkpt>
      <trkpt lat="41.62729" lon="20.24013">
        <ele>762.46002197266</ele>
        <time>2023-09-30T12:38:29.000Z</time>
      </trkpt>
      <trkpt lat="41.62728" lon="20.24024">
        <ele>762.46002197266</ele>
        <time>2023-09-30T12:38:28.000Z</time>
      </trkpt>
      <trkpt lat="41.62729" lon="20.24034">
        <ele>761.97998046875</ele>
        <time>2023-09-30T12:38:27.000Z</time>
      </trkpt>
      <trkpt lat="41.62731" lon="20.24043">
        <ele>761.5</ele>
        <time>2023-09-30T12:38:26.000Z</time>
      </trkpt>
      <trkpt lat="41.62733" lon="20.24049">
        <ele>761.5</ele>
        <time>2023-09-30T12:38:25.000Z</time>
      </trkpt>
      <trkpt lat="41.62735" lon="20.24056">
        <ele>761.02001953125</ele>
        <time>2023-09-30T12:38:24.000Z</time>
      </trkpt>
      <trkpt lat="41.6274" lon="20.24069">
        <ele>760.53997802734</ele>
        <time>2023-09-30T12:38:23.000Z</time>
      </trkpt>
      <trkpt lat="41.62743" lon="20.24076">
        <ele>760.53997802734</ele>
        <time>2023-09-30T12:38:22.000Z</time>
      </trkpt>
      <trkpt lat="41.62747" lon="20.24087">
        <ele>760.05999755859</ele>
        <time>2023-09-30T12:38:21.000Z</time>
      </trkpt>
      <trkpt lat="41.62749" lon="20.24098">
        <ele>759.58001708984</ele>
        <time>2023-09-30T12:38:20.000Z</time>
      </trkpt>
      <trkpt lat="41.6275" lon="20.24109">
        <ele>759.09997558594</ele>
        <time>2023-09-30T12:38:19.000Z</time>
      </trkpt>
      <trkpt lat="41.62749" lon="20.2412">
        <ele>759.58001708984</ele>
        <time>2023-09-30T12:38:18.000Z</time>
      </trkpt>
      <trkpt lat="41.62747" lon="20.24133">
        <ele>759.58001708984</ele>
        <time>2023-09-30T12:38:17.000Z</time>
      </trkpt>
      <trkpt lat="41.62746" lon="20.24141">
        <ele>759.58001708984</ele>
        <time>2023-09-30T12:38:16.000Z</time>
      </trkpt>
      <trkpt lat="41.62742" lon="20.24161">
        <ele>759.58001708984</ele>
        <time>2023-09-30T12:38:15.000Z</time>
      </trkpt>
      <trkpt lat="41.62742" lon="20.24163">
        <ele>759.58001708984</ele>
        <time>2023-09-30T12:38:14.000Z</time>
      </trkpt>
      <trkpt lat="41.62737" lon="20.24186">
        <ele>759.58001708984</ele>
        <time>2023-09-30T12:38:13.000Z</time>
      </trkpt>
      <trkpt lat="41.62736" lon="20.24198">
        <ele>759.09997558594</ele>
        <time>2023-09-30T12:38:12.000Z</time>
      </trkpt>
      <trkpt lat="41.62737" lon="20.24207">
        <ele>759.09997558594</ele>
        <time>2023-09-30T12:38:11.000Z</time>
      </trkpt>
      <trkpt lat="41.62738" lon="20.24216">
        <ele>759.09997558594</ele>
        <time>2023-09-30T12:38:10.000Z</time>
      </trkpt>
      <trkpt lat="41.6274" lon="20.24233">
        <ele>758.61999511719</ele>
        <time>2023-09-30T12:38:09.000Z</time>
      </trkpt>
      <trkpt lat="41.62741" lon="20.24244">
        <ele>758.14001464844</ele>
        <time>2023-09-30T12:38:08.000Z</time>
      </trkpt>
      <trkpt lat="41.6274" lon="20.24254">
        <ele>758.14001464844</ele>
        <time>2023-09-30T12:38:07.000Z</time>
      </trkpt>
      <trkpt lat="41.62738" lon="20.24265">
        <ele>757.65997314453</ele>
        <time>2023-09-30T12:38:06.000Z</time>
      </trkpt>
      <trkpt lat="41.62734" lon="20.24276">
        <ele>757.17999267578</ele>
        <time>2023-09-30T12:38:05.000Z</time>
      </trkpt>
      <trkpt lat="41.6273" lon="20.24286">
        <ele>756.69000244141</ele>
        <time>2023-09-30T12:38:04.000Z</time>
      </trkpt>
      <trkpt lat="41.62721" lon="20.24304">
        <ele>756.21002197266</ele>
        <time>2023-09-30T12:38:03.000Z</time>
      </trkpt>
      <trkpt lat="41.6271" lon="20.24328">
        <ele>755.72998046875</ele>
        <time>2023-09-30T12:38:01.000Z</time>
      </trkpt>
      <trkpt lat="41.62704" lon="20.2434">
        <ele>754.77001953125</ele>
        <time>2023-09-30T12:38:00.000Z</time>
      </trkpt>
      <trkpt lat="41.62697" lon="20.24351">
        <ele>754.28997802734</ele>
        <time>2023-09-30T12:37:59.000Z</time>
      </trkpt>
      <trkpt lat="41.62692" lon="20.24357">
        <ele>754.28997802734</ele>
        <time>2023-09-30T12:37:58.000Z</time>
      </trkpt>
      <trkpt lat="41.62676" lon="20.24372">
        <ele>752.84997558594</ele>
        <time>2023-09-30T12:37:56.000Z</time>
      </trkpt>
      <trkpt lat="41.62668" lon="20.24378">
        <ele>752.36999511719</ele>
        <time>2023-09-30T12:37:55.000Z</time>
      </trkpt>
      <trkpt lat="41.62662" lon="20.24381">
        <ele>751.89001464844</ele>
        <time>2023-09-30T12:37:54.000Z</time>
      </trkpt>
      <trkpt lat="41.62656" lon="20.24383">
        <ele>751.40997314453</ele>
        <time>2023-09-30T12:37:53.000Z</time>
      </trkpt>
      <trkpt lat="41.62649" lon="20.24385">
        <ele>750.45001220703</ele>
        <time>2023-09-30T12:37:52.000Z</time>
      </trkpt>
      <trkpt lat="41.62639" lon="20.24388">
        <ele>749.48999023438</ele>
        <time>2023-09-30T12:37:51.000Z</time>
      </trkpt>
      <trkpt lat="41.62632" lon="20.24392">
        <ele>749</ele>
        <time>2023-09-30T12:37:50.000Z</time>
      </trkpt>
      <trkpt lat="41.62627" lon="20.24398">
        <ele>748.52001953125</ele>
        <time>2023-09-30T12:37:49.000Z</time>
      </trkpt>
      <trkpt lat="41.62622" lon="20.24407">
        <ele>748.03997802734</ele>
        <time>2023-09-30T12:37:48.000Z</time>
      </trkpt>
      <trkpt lat="41.62619" lon="20.24417">
        <ele>747.08001708984</ele>
        <time>2023-09-30T12:37:47.000Z</time>
      </trkpt>
      <trkpt lat="41.62616" lon="20.24429">
        <ele>746.11999511719</ele>
        <time>2023-09-30T12:37:46.000Z</time>
      </trkpt>
      <trkpt lat="41.62612" lon="20.24451">
        <ele>744.67999267578</ele>
        <time>2023-09-30T12:37:44.000Z</time>
      </trkpt>
      <trkpt lat="41.6261" lon="20.24468">
        <ele>743.71997070312</ele>
        <time>2023-09-30T12:37:43.000Z</time>
      </trkpt>
      <trkpt lat="41.62608" lon="20.2448">
        <ele>743.23999023438</ele>
        <time>2023-09-30T12:37:42.000Z</time>
      </trkpt>
      <trkpt lat="41.62605" lon="20.24495">
        <ele>742.28002929688</ele>
        <time>2023-09-30T12:37:41.000Z</time>
      </trkpt>
      <trkpt lat="41.62603" lon="20.24502">
        <ele>741.78997802734</ele>
        <time>2023-09-30T12:37:40.000Z</time>
      </trkpt>
      <trkpt lat="41.62599" lon="20.24519">
        <ele>741.30999755859</ele>
        <time>2023-09-30T12:37:39.000Z</time>
      </trkpt>
      <trkpt lat="41.62595" lon="20.24531">
        <ele>740.83001708984</ele>
        <time>2023-09-30T12:37:38.000Z</time>
      </trkpt>
      <trkpt lat="41.62591" lon="20.24545">
        <ele>740.34997558594</ele>
        <time>2023-09-30T12:37:37.000Z</time>
      </trkpt>
      <trkpt lat="41.62586" lon="20.24557">
        <ele>739.86999511719</ele>
        <time>2023-09-30T12:37:36.000Z</time>
      </trkpt>
      <trkpt lat="41.62583" lon="20.24564">
        <ele>739.39001464844</ele>
        <time>2023-09-30T12:37:35.000Z</time>
      </trkpt>
      <trkpt lat="41.62575" lon="20.24581">
        <ele>738.90997314453</ele>
        <time>2023-09-30T12:37:34.000Z</time>
      </trkpt>
      <trkpt lat="41.62567" lon="20.24594">
        <ele>737.95001220703</ele>
        <time>2023-09-30T12:37:33.000Z</time>
      </trkpt>
      <trkpt lat="41.62564" lon="20.24598">
        <ele>737.95001220703</ele>
        <time>2023-09-30T12:37:32.000Z</time>
      </trkpt>
      <trkpt lat="41.62557" lon="20.24607">
        <ele>737.95001220703</ele>
        <time>2023-09-30T12:37:31.000Z</time>
      </trkpt>
      <trkpt lat="41.62545" lon="20.24623">
        <ele>735.54998779297</ele>
        <time>2023-09-30T12:37:30.000Z</time>
      </trkpt>
      <trkpt lat="41.62539" lon="20.24631">
        <ele>735.07000732422</ele>
        <time>2023-09-30T12:37:29.000Z</time>
      </trkpt>
      <trkpt lat="41.62532" lon="20.24643">
        <ele>734.09997558594</ele>
        <time>2023-09-30T12:37:28.000Z</time>
      </trkpt>
      <trkpt lat="41.62529" lon="20.24649">
        <ele>734.09997558594</ele>
        <time>2023-09-30T12:37:27.000Z</time>
      </trkpt>
      <trkpt lat="41.62522" lon="20.24666">
        <ele>732.65997314453</ele>
        <time>2023-09-30T12:37:26.000Z</time>
      </trkpt>
      <trkpt lat="41.62518" lon="20.24677">
        <ele>731.70001220703</ele>
        <time>2023-09-30T12:37:25.000Z</time>
      </trkpt>
      <trkpt lat="41.62516" lon="20.24687">
        <ele>731.21997070312</ele>
        <time>2023-09-30T12:37:24.000Z</time>
      </trkpt>
      <trkpt lat="41.62515" lon="20.24697">
        <ele>730.73999023438</ele>
        <time>2023-09-30T12:37:23.000Z</time>
      </trkpt>
      <trkpt lat="41.62514" lon="20.24706">
        <ele>730.26000976562</ele>
        <time>2023-09-30T12:37:22.000Z</time>
      </trkpt>
      <trkpt lat="41.62516" lon="20.24715">
        <ele>729.78002929688</ele>
        <time>2023-09-30T12:37:21.000Z</time>
      </trkpt>
      <trkpt lat="41.62519" lon="20.24725">
        <ele>729.78002929688</ele>
        <time>2023-09-30T12:37:20.000Z</time>
      </trkpt>
      <trkpt lat="41.62527" lon="20.24748">
        <ele>728.82000732422</ele>
        <time>2023-09-30T12:37:18.000Z</time>
      </trkpt>
      <trkpt lat="41.62531" lon="20.24758">
        <ele>728.34002685547</ele>
        <time>2023-09-30T12:37:17.000Z</time>
      </trkpt>
      <trkpt lat="41.6254" lon="20.24791">
        <ele>727.36999511719</ele>
        <time>2023-09-30T12:37:14.000Z</time>
      </trkpt>
      <trkpt lat="41.62541" lon="20.24799">
        <ele>727.36999511719</ele>
        <time>2023-09-30T12:37:13.000Z</time>
      </trkpt>
      <trkpt lat="41.62541" lon="20.24806">
        <ele>726.89001464844</ele>
        <time>2023-09-30T12:37:12.000Z</time>
      </trkpt>
      <trkpt lat="41.62541" lon="20.24812">
        <ele>726.89001464844</ele>
        <time>2023-09-30T12:37:11.000Z</time>
      </trkpt>
      <trkpt lat="41.6254" lon="20.24827">
        <ele>728.34002685547</ele>
        <time>2023-09-30T12:36:06.000Z</time>
      </trkpt>
      <trkpt lat="41.62537" lon="20.24841">
        <ele>728.34002685547</ele>
        <time>2023-09-30T12:35:58.000Z</time>
      </trkpt>
      <trkpt lat="41.62536" lon="20.24844">
        <ele>727.85998535156</ele>
        <time>2023-09-30T12:35:57.000Z</time>
      </trkpt>
      <trkpt lat="41.62535" lon="20.24854">
        <ele>727.36999511719</ele>
        <time>2023-09-30T12:35:56.000Z</time>
      </trkpt>
      <trkpt lat="41.62533" lon="20.24866">
        <ele>726.89001464844</ele>
        <time>2023-09-30T12:35:55.000Z</time>
      </trkpt>
      <trkpt lat="41.62528" lon="20.24888">
        <ele>725.92999267578</ele>
        <time>2023-09-30T12:35:53.000Z</time>
      </trkpt>
      <trkpt lat="41.62525" lon="20.24902">
        <ele>725.45001220703</ele>
        <time>2023-09-30T12:35:52.000Z</time>
      </trkpt>
      <trkpt lat="41.62524" lon="20.2491">
        <ele>725.45001220703</ele>
        <time>2023-09-30T12:35:51.000Z</time>
      </trkpt>
      <trkpt lat="41.62523" lon="20.2492">
        <ele>724.96997070312</ele>
        <time>2023-09-30T12:35:50.000Z</time>
      </trkpt>
      <trkpt lat="41.62523" lon="20.24929">
        <ele>724.48999023438</ele>
        <time>2023-09-30T12:35:49.000Z</time>
      </trkpt>
      <trkpt lat="41.62523" lon="20.24937">
        <ele>724.48999023438</ele>
        <time>2023-09-30T12:35:48.000Z</time>
      </trkpt>
      <trkpt lat="41.62525" lon="20.24944">
        <ele>724.01000976562</ele>
        <time>2023-09-30T12:35:47.000Z</time>
      </trkpt>
      <trkpt lat="41.62528" lon="20.24951">
        <ele>723.53002929688</ele>
        <time>2023-09-30T12:35:46.000Z</time>
      </trkpt>
      <trkpt lat="41.62533" lon="20.24959">
        <ele>723.04998779297</ele>
        <time>2023-09-30T12:35:45.000Z</time>
      </trkpt>
      <trkpt lat="41.62542" lon="20.24969">
        <ele>722.57000732422</ele>
        <time>2023-09-30T12:35:43.000Z</time>
      </trkpt>
      <trkpt lat="41.62547" lon="20.24975">
        <ele>722.09002685547</ele>
        <time>2023-09-30T12:35:42.000Z</time>
      </trkpt>
      <trkpt lat="41.62553" lon="20.24979">
        <ele>721.60998535156</ele>
        <time>2023-09-30T12:35:41.000Z</time>
      </trkpt>
      <trkpt lat="41.62559" lon="20.24982">
        <ele>721.13000488281</ele>
        <time>2023-09-30T12:35:40.000Z</time>
      </trkpt>
      <trkpt lat="41.62564" lon="20.24986">
        <ele>720.15997314453</ele>
        <time>2023-09-30T12:35:39.000Z</time>
      </trkpt>
      <trkpt lat="41.62569" lon="20.24991">
        <ele>719.67999267578</ele>
        <time>2023-09-30T12:35:38.000Z</time>
      </trkpt>
      <trkpt lat="41.62572" lon="20.24999">
        <ele>720.15997314453</ele>
        <time>2023-09-30T12:35:37.000Z</time>
      </trkpt>
      <trkpt lat="41.62574" lon="20.25007">
        <ele>720.15997314453</ele>
        <time>2023-09-30T12:35:36.000Z</time>
      </trkpt>
      <trkpt lat="41.62575" lon="20.25021">
        <ele>720.15997314453</ele>
        <time>2023-09-30T12:35:35.000Z</time>
      </trkpt>
      <trkpt lat="41.62576" lon="20.25031">
        <ele>720.65002441406</ele>
        <time>2023-09-30T12:35:34.000Z</time>
      </trkpt>
      <trkpt lat="41.62577" lon="20.25041">
        <ele>721.13000488281</ele>
        <time>2023-09-30T12:35:33.000Z</time>
      </trkpt>
      <trkpt lat="41.62576" lon="20.25048">
        <ele>721.60998535156</ele>
        <time>2023-09-30T12:35:32.000Z</time>
      </trkpt>
      <trkpt lat="41.62574" lon="20.25054">
        <ele>722.09002685547</ele>
        <time>2023-09-30T12:35:31.000Z</time>
      </trkpt>
      <trkpt lat="41.62571" lon="20.2506">
        <ele>722.57000732422</ele>
        <time>2023-09-30T12:35:30.000Z</time>
      </trkpt>
      <trkpt lat="41.62569" lon="20.25062">
        <ele>722.57000732422</ele>
        <time>2023-09-30T12:35:29.000Z</time>
      </trkpt>
      <trkpt lat="41.62565" lon="20.25065">
        <ele>723.53002929688</ele>
        <time>2023-09-30T12:33:23.000Z</time>
      </trkpt>
      <trkpt lat="41.62559" lon="20.25067">
        <ele>723.53002929688</ele>
        <time>2023-09-30T12:33:17.000Z</time>
      </trkpt>
      <trkpt lat="41.62556" lon="20.25067">
        <ele>723.53002929688</ele>
        <time>2023-09-30T12:33:16.000Z</time>
      </trkpt>
      <trkpt lat="41.62549" lon="20.25067">
        <ele>724.48999023438</ele>
        <time>2023-09-30T12:33:15.000Z</time>
      </trkpt>
      <trkpt lat="41.62541" lon="20.25068">
        <ele>724.96997070312</ele>
        <time>2023-09-30T12:33:14.000Z</time>
      </trkpt>
      <trkpt lat="41.62522" lon="20.25068">
        <ele>726.40997314453</ele>
        <time>2023-09-30T12:33:12.000Z</time>
      </trkpt>
      <trkpt lat="41.62517" lon="20.25069">
        <ele>726.40997314453</ele>
        <time>2023-09-30T12:33:11.000Z</time>
      </trkpt>
      <trkpt lat="41.62505" lon="20.25068">
        <ele>727.36999511719</ele>
        <time>2023-09-30T12:33:09.000Z</time>
      </trkpt>
      <trkpt lat="41.62494" lon="20.25068">
        <ele>728.34002685547</ele>
        <time>2023-09-30T12:33:08.000Z</time>
      </trkpt>
      <trkpt lat="41.62488" lon="20.25069">
        <ele>728.82000732422</ele>
        <time>2023-09-30T12:33:07.000Z</time>
      </trkpt>
      <trkpt lat="41.62479" lon="20.2507">
        <ele>729.29998779297</ele>
        <time>2023-09-30T12:33:06.000Z</time>
      </trkpt>
      <trkpt lat="41.62472" lon="20.25072">
        <ele>730.26000976562</ele>
        <time>2023-09-30T12:33:05.000Z</time>
      </trkpt>
      <trkpt lat="41.62467" lon="20.25073">
        <ele>730.26000976562</ele>
        <time>2023-09-30T12:33:04.000Z</time>
      </trkpt>
      <trkpt lat="41.6246" lon="20.25077">
        <ele>730.73999023438</ele>
        <time>2023-09-30T12:33:03.000Z</time>
      </trkpt>
      <trkpt lat="41.62455" lon="20.25079">
        <ele>731.21997070312</ele>
        <time>2023-09-30T12:33:02.000Z</time>
      </trkpt>
      <trkpt lat="41.6245" lon="20.2508">
        <ele>731.70001220703</ele>
        <time>2023-09-30T12:33:01.000Z</time>
      </trkpt>
      <trkpt lat="41.62443" lon="20.25081">
        <ele>732.17999267578</ele>
        <time>2023-09-30T12:33:00.000Z</time>
      </trkpt>
      <trkpt lat="41.62437" lon="20.25081">
        <ele>732.17999267578</ele>
        <time>2023-09-30T12:32:59.000Z</time>
      </trkpt>
      <trkpt lat="41.6243" lon="20.2508">
        <ele>732.65997314453</ele>
        <time>2023-09-30T12:32:58.000Z</time>
      </trkpt>
      <trkpt lat="41.62424" lon="20.2508">
        <ele>733.14001464844</ele>
        <time>2023-09-30T12:32:57.000Z</time>
      </trkpt>
      <trkpt lat="41.62422" lon="20.2508">
        <ele>733.61999511719</ele>
        <time>2023-09-30T12:32:56.000Z</time>
      </trkpt>
      <trkpt lat="41.62416" lon="20.2508">
        <ele>734.09997558594</ele>
        <time>2023-09-30T12:32:55.000Z</time>
      </trkpt>
      <trkpt lat="41.62408" lon="20.2508">
        <ele>734.58001708984</ele>
        <time>2023-09-30T12:32:54.000Z</time>
      </trkpt>
      <trkpt lat="41.62399" lon="20.25081">
        <ele>735.07000732422</ele>
        <time>2023-09-30T12:32:53.000Z</time>
      </trkpt>
      <trkpt lat="41.62387" lon="20.25081">
        <ele>736.03002929688</ele>
        <time>2023-09-30T12:32:51.000Z</time>
      </trkpt>
      <trkpt lat="41.62381" lon="20.2508">
        <ele>736.51000976562</ele>
        <time>2023-09-30T12:32:50.000Z</time>
      </trkpt>
      <trkpt lat="41.62375" lon="20.25079">
        <ele>736.98999023438</ele>
        <time>2023-09-30T12:32:49.000Z</time>
      </trkpt>
      <trkpt lat="41.6237" lon="20.25078">
        <ele>736.98999023438</ele>
        <time>2023-09-30T12:32:48.000Z</time>
      </trkpt>
      <trkpt lat="41.62365" lon="20.25079">
        <ele>737.46997070312</ele>
        <time>2023-09-30T12:32:47.000Z</time>
      </trkpt>
      <trkpt lat="41.62362" lon="20.25081">
        <ele>737.95001220703</ele>
        <time>2023-09-30T12:32:46.000Z</time>
      </trkpt>
      <trkpt lat="41.62356" lon="20.25091">
        <ele>738.42999267578</ele>
        <time>2023-09-30T12:32:43.000Z</time>
      </trkpt>
      <trkpt lat="41.62359" lon="20.25098">
        <ele>738.42999267578</ele>
        <time>2023-09-30T12:32:42.000Z</time>
      </trkpt>
      <trkpt lat="41.62363" lon="20.25101">
        <ele>738.90997314453</ele>
        <time>2023-09-30T12:32:41.000Z</time>
      </trkpt>
      <trkpt lat="41.62369" lon="20.25103">
        <ele>738.90997314453</ele>
        <time>2023-09-30T12:32:40.000Z</time>
      </trkpt>
      <trkpt lat="41.62384" lon="20.25103">
        <ele>739.39001464844</ele>
        <time>2023-09-30T12:32:38.000Z</time>
      </trkpt>
      <trkpt lat="41.62388" lon="20.25103">
        <ele>739.39001464844</ele>
        <time>2023-09-30T12:32:37.000Z</time>
      </trkpt>
      <trkpt lat="41.62408" lon="20.25107">
        <ele>740.83001708984</ele>
        <time>2023-09-30T12:32:35.000Z</time>
      </trkpt>
      <trkpt lat="41.62421" lon="20.25109">
        <ele>741.78997802734</ele>
        <time>2023-09-30T12:32:34.000Z</time>
      </trkpt>
      <trkpt lat="41.6244" lon="20.25112">
        <ele>742.76000976562</ele>
        <time>2023-09-30T12:32:32.000Z</time>
      </trkpt>
      <trkpt lat="41.62443" lon="20.25112">
        <ele>743.23999023438</ele>
        <time>2023-09-30T12:32:31.000Z</time>
      </trkpt>
      <trkpt lat="41.62463" lon="20.25111">
        <ele>744.20001220703</ele>
        <time>2023-09-30T12:32:29.000Z</time>
      </trkpt>
      <trkpt lat="41.62466" lon="20.25111">
        <ele>744.67999267578</ele>
        <time>2023-09-30T12:32:28.000Z</time>
      </trkpt>
      <trkpt lat="41.62483" lon="20.2511">
        <ele>745.64001464844</ele>
        <time>2023-09-30T12:32:26.000Z</time>
      </trkpt>
      <trkpt lat="41.62497" lon="20.2511">
        <ele>746.59997558594</ele>
        <time>2023-09-30T12:32:24.000Z</time>
      </trkpt>
      <trkpt lat="41.62503" lon="20.2511">
        <ele>747.08001708984</ele>
        <time>2023-09-30T12:32:23.000Z</time>
      </trkpt>
      <trkpt lat="41.62509" lon="20.25112">
        <ele>747.55999755859</ele>
        <time>2023-09-30T12:32:22.000Z</time>
      </trkpt>
      <trkpt lat="41.62514" lon="20.25115">
        <ele>748.03997802734</ele>
        <time>2023-09-30T12:32:21.000Z</time>
      </trkpt>
      <trkpt lat="41.62517" lon="20.25117">
        <ele>748.52001953125</ele>
        <time>2023-09-30T12:32:20.000Z</time>
      </trkpt>
      <trkpt lat="41.62522" lon="20.25123">
        <ele>749.48999023438</ele>
        <time>2023-09-30T12:32:19.000Z</time>
      </trkpt>
      <trkpt lat="41.62527" lon="20.25129">
        <ele>749.96997070312</ele>
        <time>2023-09-30T12:32:18.000Z</time>
      </trkpt>
      <trkpt lat="41.62529" lon="20.25133">
        <ele>750.45001220703</ele>
        <time>2023-09-30T12:32:17.000Z</time>
      </trkpt>
      <trkpt lat="41.62533" lon="20.2514">
        <ele>751.40997314453</ele>
        <time>2023-09-30T12:32:16.000Z</time>
      </trkpt>
      <trkpt lat="41.62537" lon="20.25146">
        <ele>752.36999511719</ele>
        <time>2023-09-30T12:32:15.000Z</time>
      </trkpt>
      <trkpt lat="41.62541" lon="20.25151">
        <ele>752.36999511719</ele>
        <time>2023-09-30T12:32:14.000Z</time>
      </trkpt>
      <trkpt lat="41.62544" lon="20.25153">
        <ele>752.84997558594</ele>
        <time>2023-09-30T12:32:13.000Z</time>
      </trkpt>
      <trkpt lat="41.62552" lon="20.25157">
        <ele>753.33001708984</ele>
        <time>2023-09-30T12:32:12.000Z</time>
      </trkpt>
      <trkpt lat="41.62557" lon="20.25161">
        <ele>753.33001708984</ele>
        <time>2023-09-30T12:32:11.000Z</time>
      </trkpt>
      <trkpt lat="41.62561" lon="20.25164">
        <ele>753.80999755859</ele>
        <time>2023-09-30T12:32:10.000Z</time>
      </trkpt>
      <trkpt lat="41.62568" lon="20.2517">
        <ele>754.28997802734</ele>
        <time>2023-09-30T12:32:09.000Z</time>
      </trkpt>
      <trkpt lat="41.6257" lon="20.25173">
        <ele>754.28997802734</ele>
        <time>2023-09-30T12:32:08.000Z</time>
      </trkpt>
      <trkpt lat="41.62576" lon="20.2518">
        <ele>754.77001953125</ele>
        <time>2023-09-30T12:32:07.000Z</time>
      </trkpt>
      <trkpt lat="41.62581" lon="20.25183">
        <ele>754.77001953125</ele>
        <time>2023-09-30T12:32:06.000Z</time>
      </trkpt>
      <trkpt lat="41.62585" lon="20.25183">
        <ele>755.25</ele>
        <time>2023-09-30T12:32:05.000Z</time>
      </trkpt>
      <trkpt lat="41.62589" lon="20.25183">
        <ele>755.25</ele>
        <time>2023-09-30T12:32:04.000Z</time>
      </trkpt>
      <trkpt lat="41.62595" lon="20.2518">
        <ele>754.77001953125</ele>
        <time>2023-09-30T12:32:03.000Z</time>
      </trkpt>
      <trkpt lat="41.62601" lon="20.25178">
        <ele>754.77001953125</ele>
        <time>2023-09-30T12:32:02.000Z</time>
      </trkpt>
      <trkpt lat="41.62606" lon="20.25177">
        <ele>754.77001953125</ele>
        <time>2023-09-30T12:32:01.000Z</time>
      </trkpt>
      <trkpt lat="41.62611" lon="20.25178">
        <ele>754.77001953125</ele>
        <time>2023-09-30T12:32:00.000Z</time>
      </trkpt>
      <trkpt lat="41.62616" lon="20.25182">
        <ele>754.28997802734</ele>
        <time>2023-09-30T12:31:59.000Z</time>
      </trkpt>
      <trkpt lat="41.6262" lon="20.25189">
        <ele>754.28997802734</ele>
        <time>2023-09-30T12:31:58.000Z</time>
      </trkpt>
      <trkpt lat="41.62622" lon="20.25197">
        <ele>753.80999755859</ele>
        <time>2023-09-30T12:31:57.000Z</time>
      </trkpt>
      <trkpt lat="41.6262" lon="20.25207">
        <ele>753.33001708984</ele>
        <time>2023-09-30T12:31:56.000Z</time>
      </trkpt>
      <trkpt lat="41.62616" lon="20.25217">
        <ele>752.84997558594</ele>
        <time>2023-09-30T12:31:55.000Z</time>
      </trkpt>
      <trkpt lat="41.62611" lon="20.25226">
        <ele>752.84997558594</ele>
        <time>2023-09-30T12:31:54.000Z</time>
      </trkpt>
      <trkpt lat="41.62606" lon="20.25236">
        <ele>752.84997558594</ele>
        <time>2023-09-30T12:31:53.000Z</time>
      </trkpt>
      <trkpt lat="41.62604" lon="20.25243">
        <ele>752.84997558594</ele>
        <time>2023-09-30T12:31:52.000Z</time>
      </trkpt>
      <trkpt lat="41.62596" lon="20.25263">
        <ele>751.89001464844</ele>
        <time>2023-09-30T12:31:51.000Z</time>
      </trkpt>
      <trkpt lat="41.62591" lon="20.25272">
        <ele>751.40997314453</ele>
        <time>2023-09-30T12:31:50.000Z</time>
      </trkpt>
      <trkpt lat="41.6258" lon="20.25287">
        <ele>751.40997314453</ele>
        <time>2023-09-30T12:31:49.000Z</time>
      </trkpt>
      <trkpt lat="41.62572" lon="20.25299">
        <ele>750.92999267578</ele>
        <time>2023-09-30T12:31:48.000Z</time>
      </trkpt>
      <trkpt lat="41.62566" lon="20.2531">
        <ele>751.40997314453</ele>
        <time>2023-09-30T12:31:47.000Z</time>
      </trkpt>
      <trkpt lat="41.62547" lon="20.25349">
        <ele>751.89001464844</ele>
        <time>2023-09-30T12:31:44.000Z</time>
      </trkpt>
      <trkpt lat="41.62542" lon="20.25362">
        <ele>751.89001464844</ele>
        <time>2023-09-30T12:31:43.000Z</time>
      </trkpt>
      <trkpt lat="41.6254" lon="20.25371">
        <ele>751.89001464844</ele>
        <time>2023-09-30T12:31:42.000Z</time>
      </trkpt>
      <trkpt lat="41.62538" lon="20.2538">
        <ele>751.89001464844</ele>
        <time>2023-09-30T12:31:41.000Z</time>
      </trkpt>
      <trkpt lat="41.62533" lon="20.25408">
        <ele>751.89001464844</ele>
        <time>2023-09-30T12:31:40.000Z</time>
      </trkpt>
      <trkpt lat="41.62532" lon="20.25417">
        <ele>751.89001464844</ele>
        <time>2023-09-30T12:31:39.000Z</time>
      </trkpt>
      <trkpt lat="41.62529" lon="20.25431">
        <ele>751.40997314453</ele>
        <time>2023-09-30T12:31:38.000Z</time>
      </trkpt>
      <trkpt lat="41.62524" lon="20.25447">
        <ele>750.92999267578</ele>
        <time>2023-09-30T12:31:37.000Z</time>
      </trkpt>
      <trkpt lat="41.62519" lon="20.25459">
        <ele>751.40997314453</ele>
        <time>2023-09-30T12:31:36.000Z</time>
      </trkpt>
      <trkpt lat="41.62511" lon="20.25477">
        <ele>751.40997314453</ele>
        <time>2023-09-30T12:31:35.000Z</time>
      </trkpt>
      <trkpt lat="41.62506" lon="20.25492">
        <ele>751.40997314453</ele>
        <time>2023-09-30T12:31:34.000Z</time>
      </trkpt>
      <trkpt lat="41.62505" lon="20.25495">
        <ele>751.40997314453</ele>
        <time>2023-09-30T12:31:33.000Z</time>
      </trkpt>
      <trkpt lat="41.62485" lon="20.25568">
        <ele>751.89001464844</ele>
        <time>2023-09-30T12:31:29.000Z</time>
      </trkpt>
      <trkpt lat="41.6248" lon="20.25579">
        <ele>751.89001464844</ele>
        <time>2023-09-30T12:31:28.000Z</time>
      </trkpt>
      <trkpt lat="41.62475" lon="20.25587">
        <ele>751.89001464844</ele>
        <time>2023-09-30T12:31:27.000Z</time>
      </trkpt>
      <trkpt lat="41.62468" lon="20.25593">
        <ele>751.40997314453</ele>
        <time>2023-09-30T12:31:26.000Z</time>
      </trkpt>
      <trkpt lat="41.62461" lon="20.25599">
        <ele>751.89001464844</ele>
        <time>2023-09-30T12:31:25.000Z</time>
      </trkpt>
      <trkpt lat="41.62454" lon="20.25605">
        <ele>751.89001464844</ele>
        <time>2023-09-30T12:31:24.000Z</time>
      </trkpt>
      <trkpt lat="41.62449" lon="20.25613">
        <ele>751.89001464844</ele>
        <time>2023-09-30T12:31:23.000Z</time>
      </trkpt>
      <trkpt lat="41.62445" lon="20.25624">
        <ele>752.36999511719</ele>
        <time>2023-09-30T12:31:22.000Z</time>
      </trkpt>
      <trkpt lat="41.62442" lon="20.25634">
        <ele>752.36999511719</ele>
        <time>2023-09-30T12:31:21.000Z</time>
      </trkpt>
      <trkpt lat="41.62438" lon="20.2565">
        <ele>751.89001464844</ele>
        <time>2023-09-30T12:31:20.000Z</time>
      </trkpt>
      <trkpt lat="41.62436" lon="20.25658">
        <ele>750.92999267578</ele>
        <time>2023-09-30T12:31:19.000Z</time>
      </trkpt>
      <trkpt lat="41.62436" lon="20.25668">
        <ele>750.92999267578</ele>
        <time>2023-09-30T12:31:18.000Z</time>
      </trkpt>
      <trkpt lat="41.62437" lon="20.25677">
        <ele>750.92999267578</ele>
        <time>2023-09-30T12:31:17.000Z</time>
      </trkpt>
      <trkpt lat="41.62441" lon="20.25686">
        <ele>750.92999267578</ele>
        <time>2023-09-30T12:31:16.000Z</time>
      </trkpt>
      <trkpt lat="41.62448" lon="20.25695">
        <ele>751.89001464844</ele>
        <time>2023-09-30T12:31:15.000Z</time>
      </trkpt>
      <trkpt lat="41.62456" lon="20.25703">
        <ele>752.36999511719</ele>
        <time>2023-09-30T12:31:14.000Z</time>
      </trkpt>
      <trkpt lat="41.62463" lon="20.2571">
        <ele>752.36999511719</ele>
        <time>2023-09-30T12:31:13.000Z</time>
      </trkpt>
      <trkpt lat="41.62472" lon="20.25716">
        <ele>752.84997558594</ele>
        <time>2023-09-30T12:31:12.000Z</time>
      </trkpt>
      <trkpt lat="41.62481" lon="20.25723">
        <ele>753.33001708984</ele>
        <time>2023-09-30T12:31:11.000Z</time>
      </trkpt>
      <trkpt lat="41.62486" lon="20.25728">
        <ele>753.33001708984</ele>
        <time>2023-09-30T12:31:10.000Z</time>
      </trkpt>
      <trkpt lat="41.62489" lon="20.25735">
        <ele>753.33001708984</ele>
        <time>2023-09-30T12:31:09.000Z</time>
      </trkpt>
      <trkpt lat="41.6249" lon="20.25744">
        <ele>753.80999755859</ele>
        <time>2023-09-30T12:31:08.000Z</time>
      </trkpt>
      <trkpt lat="41.62488" lon="20.25755">
        <ele>754.28997802734</ele>
        <time>2023-09-30T12:31:07.000Z</time>
      </trkpt>
      <trkpt lat="41.62485" lon="20.25763">
        <ele>754.77001953125</ele>
        <time>2023-09-30T12:31:06.000Z</time>
      </trkpt>
      <trkpt lat="41.62479" lon="20.25775">
        <ele>756.21002197266</ele>
        <time>2023-09-30T12:31:05.000Z</time>
      </trkpt>
      <trkpt lat="41.62472" lon="20.25786">
        <ele>756.69000244141</ele>
        <time>2023-09-30T12:31:04.000Z</time>
      </trkpt>
      <trkpt lat="41.62466" lon="20.25797">
        <ele>757.65997314453</ele>
        <time>2023-09-30T12:31:03.000Z</time>
      </trkpt>
      <trkpt lat="41.62465" lon="20.25799">
        <ele>757.65997314453</ele>
        <time>2023-09-30T12:31:02.000Z</time>
      </trkpt>
      <trkpt lat="41.62458" lon="20.25817">
        <ele>760.05999755859</ele>
        <time>2023-09-30T12:31:01.000Z</time>
      </trkpt>
      <trkpt lat="41.62456" lon="20.25824">
        <ele>760.53997802734</ele>
        <time>2023-09-30T12:31:00.000Z</time>
      </trkpt>
      <trkpt lat="41.62456" lon="20.25832">
        <ele>761.02001953125</ele>
        <time>2023-09-30T12:30:59.000Z</time>
      </trkpt>
      <trkpt lat="41.62458" lon="20.2584">
        <ele>761.97998046875</ele>
        <time>2023-09-30T12:30:58.000Z</time>
      </trkpt>
      <trkpt lat="41.62461" lon="20.25845">
        <ele>761.97998046875</ele>
        <time>2023-09-30T12:30:57.000Z</time>
      </trkpt>
      <trkpt lat="41.62467" lon="20.25849">
        <ele>762.46002197266</ele>
        <time>2023-09-30T12:30:56.000Z</time>
      </trkpt>
      <trkpt lat="41.62473" lon="20.2585">
        <ele>761.97998046875</ele>
        <time>2023-09-30T12:30:55.000Z</time>
      </trkpt>
      <trkpt lat="41.62482" lon="20.25849">
        <ele>761.97998046875</ele>
        <time>2023-09-30T12:30:54.000Z</time>
      </trkpt>
      <trkpt lat="41.62484" lon="20.25848">
        <ele>761.97998046875</ele>
        <time>2023-09-30T12:30:53.000Z</time>
      </trkpt>
      <trkpt lat="41.62509" lon="20.25841">
        <ele>761.5</ele>
        <time>2023-09-30T12:30:51.000Z</time>
      </trkpt>
      <trkpt lat="41.62524" lon="20.25838">
        <ele>761.02001953125</ele>
        <time>2023-09-30T12:30:50.000Z</time>
      </trkpt>
      <trkpt lat="41.62535" lon="20.25837">
        <ele>761.02001953125</ele>
        <time>2023-09-30T12:30:49.000Z</time>
      </trkpt>
      <trkpt lat="41.62544" lon="20.25836">
        <ele>760.53997802734</ele>
        <time>2023-09-30T12:30:48.000Z</time>
      </trkpt>
      <trkpt lat="41.62551" lon="20.25838">
        <ele>760.53997802734</ele>
        <time>2023-09-30T12:30:47.000Z</time>
      </trkpt>
      <trkpt lat="41.62556" lon="20.25842">
        <ele>760.05999755859</ele>
        <time>2023-09-30T12:30:46.000Z</time>
      </trkpt>
      <trkpt lat="41.62559" lon="20.25849">
        <ele>759.58001708984</ele>
        <time>2023-09-30T12:30:45.000Z</time>
      </trkpt>
      <trkpt lat="41.6256" lon="20.25858">
        <ele>759.58001708984</ele>
        <time>2023-09-30T12:30:44.000Z</time>
      </trkpt>
      <trkpt lat="41.62559" lon="20.25865">
        <ele>759.09997558594</ele>
        <time>2023-09-30T12:30:43.000Z</time>
      </trkpt>
      <trkpt lat="41.62557" lon="20.25877">
        <ele>759.09997558594</ele>
        <time>2023-09-30T12:30:42.000Z</time>
      </trkpt>
      <trkpt lat="41.62555" lon="20.25891">
        <ele>759.09997558594</ele>
        <time>2023-09-30T12:30:41.000Z</time>
      </trkpt>
      <trkpt lat="41.62551" lon="20.25905">
        <ele>758.14001464844</ele>
        <time>2023-09-30T12:30:40.000Z</time>
      </trkpt>
      <trkpt lat="41.62548" lon="20.25913">
        <ele>758.14001464844</ele>
        <time>2023-09-30T12:30:39.000Z</time>
      </trkpt>
      <trkpt lat="41.62542" lon="20.25929">
        <ele>758.14001464844</ele>
        <time>2023-09-30T12:30:38.000Z</time>
      </trkpt>
      <trkpt lat="41.6254" lon="20.25936">
        <ele>758.14001464844</ele>
        <time>2023-09-30T12:30:37.000Z</time>
      </trkpt>
      <trkpt lat="41.62534" lon="20.25954">
        <ele>758.61999511719</ele>
        <time>2023-09-30T12:30:36.000Z</time>
      </trkpt>
      <trkpt lat="41.62531" lon="20.25962">
        <ele>758.61999511719</ele>
        <time>2023-09-30T12:30:35.000Z</time>
      </trkpt>
      <trkpt lat="41.62526" lon="20.2598">
        <ele>758.61999511719</ele>
        <time>2023-09-30T12:30:34.000Z</time>
      </trkpt>
      <trkpt lat="41.62522" lon="20.25994">
        <ele>759.09997558594</ele>
        <time>2023-09-30T12:30:33.000Z</time>
      </trkpt>
      <trkpt lat="41.6252" lon="20.26004">
        <ele>759.09997558594</ele>
        <time>2023-09-30T12:30:32.000Z</time>
      </trkpt>
      <trkpt lat="41.6252" lon="20.26013">
        <ele>759.09997558594</ele>
        <time>2023-09-30T12:30:31.000Z</time>
      </trkpt>
      <trkpt lat="41.62523" lon="20.2602">
        <ele>759.09997558594</ele>
        <time>2023-09-30T12:30:30.000Z</time>
      </trkpt>
      <trkpt lat="41.62528" lon="20.26026">
        <ele>759.09997558594</ele>
        <time>2023-09-30T12:30:29.000Z</time>
      </trkpt>
      <trkpt lat="41.62534" lon="20.2603">
        <ele>759.58001708984</ele>
        <time>2023-09-30T12:30:28.000Z</time>
      </trkpt>
      <trkpt lat="41.62543" lon="20.26033">
        <ele>759.58001708984</ele>
        <time>2023-09-30T12:30:27.000Z</time>
      </trkpt>
      <trkpt lat="41.62552" lon="20.26035">
        <ele>760.05999755859</ele>
        <time>2023-09-30T12:30:26.000Z</time>
      </trkpt>
      <trkpt lat="41.62558" lon="20.26036">
        <ele>760.05999755859</ele>
        <time>2023-09-30T12:30:25.000Z</time>
      </trkpt>
      <trkpt lat="41.62569" lon="20.26037">
        <ele>760.05999755859</ele>
        <time>2023-09-30T12:30:24.000Z</time>
      </trkpt>
      <trkpt lat="41.62576" lon="20.26039">
        <ele>760.05999755859</ele>
        <time>2023-09-30T12:30:23.000Z</time>
      </trkpt>
      <trkpt lat="41.62582" lon="20.26043">
        <ele>760.05999755859</ele>
        <time>2023-09-30T12:30:22.000Z</time>
      </trkpt>
      <trkpt lat="41.62586" lon="20.26049">
        <ele>760.05999755859</ele>
        <time>2023-09-30T12:30:21.000Z</time>
      </trkpt>
      <trkpt lat="41.62589" lon="20.26058">
        <ele>760.05999755859</ele>
        <time>2023-09-30T12:30:20.000Z</time>
      </trkpt>
      <trkpt lat="41.62591" lon="20.26068">
        <ele>760.53997802734</ele>
        <time>2023-09-30T12:30:19.000Z</time>
      </trkpt>
      <trkpt lat="41.62593" lon="20.26079">
        <ele>760.05999755859</ele>
        <time>2023-09-30T12:30:18.000Z</time>
      </trkpt>
      <trkpt lat="41.62595" lon="20.2609">
        <ele>760.05999755859</ele>
        <time>2023-09-30T12:30:17.000Z</time>
      </trkpt>
      <trkpt lat="41.62595" lon="20.26102">
        <ele>760.53997802734</ele>
        <time>2023-09-30T12:30:16.000Z</time>
      </trkpt>
      <trkpt lat="41.62593" lon="20.26115">
        <ele>761.5</ele>
        <time>2023-09-30T12:30:15.000Z</time>
      </trkpt>
      <trkpt lat="41.62592" lon="20.26118">
        <ele>761.5</ele>
        <time>2023-09-30T12:30:14.000Z</time>
      </trkpt>
      <trkpt lat="41.62587" lon="20.26133">
        <ele>761.97998046875</ele>
        <time>2023-09-30T12:30:13.000Z</time>
      </trkpt>
      <trkpt lat="41.62584" lon="20.26144">
        <ele>761.97998046875</ele>
        <time>2023-09-30T12:30:12.000Z</time>
      </trkpt>
      <trkpt lat="41.62582" lon="20.26155">
        <ele>762.46002197266</ele>
        <time>2023-09-30T12:30:11.000Z</time>
      </trkpt>
      <trkpt lat="41.62582" lon="20.26163">
        <ele>762.46002197266</ele>
        <time>2023-09-30T12:30:10.000Z</time>
      </trkpt>
      <trkpt lat="41.62583" lon="20.26172">
        <ele>762.46002197266</ele>
        <time>2023-09-30T12:30:09.000Z</time>
      </trkpt>
      <trkpt lat="41.62587" lon="20.2618">
        <ele>762.46002197266</ele>
        <time>2023-09-30T12:30:08.000Z</time>
      </trkpt>
      <trkpt lat="41.62592" lon="20.26186">
        <ele>762.46002197266</ele>
        <time>2023-09-30T12:30:07.000Z</time>
      </trkpt>
      <trkpt lat="41.62599" lon="20.26191">
        <ele>762.46002197266</ele>
        <time>2023-09-30T12:30:06.000Z</time>
      </trkpt>
      <trkpt lat="41.62606" lon="20.26194">
        <ele>762.94000244141</ele>
        <time>2023-09-30T12:30:05.000Z</time>
      </trkpt>
      <trkpt lat="41.62615" lon="20.26196">
        <ele>762.94000244141</ele>
        <time>2023-09-30T12:30:04.000Z</time>
      </trkpt>
      <trkpt lat="41.62621" lon="20.26196">
        <ele>762.94000244141</ele>
        <time>2023-09-30T12:30:03.000Z</time>
      </trkpt>
      <trkpt lat="41.62632" lon="20.26196">
        <ele>762.46002197266</ele>
        <time>2023-09-30T12:30:02.000Z</time>
      </trkpt>
      <trkpt lat="41.62641" lon="20.26194">
        <ele>762.46002197266</ele>
        <time>2023-09-30T12:30:01.000Z</time>
      </trkpt>
      <trkpt lat="41.62648" lon="20.26191">
        <ele>762.46002197266</ele>
        <time>2023-09-30T12:30:00.000Z</time>
      </trkpt>
      <trkpt lat="41.62655" lon="20.26189">
        <ele>762.46002197266</ele>
        <time>2023-09-30T12:29:59.000Z</time>
      </trkpt>
      <trkpt lat="41.6266" lon="20.26188">
        <ele>762.94000244141</ele>
        <time>2023-09-30T12:29:58.000Z</time>
      </trkpt>
      <trkpt lat="41.62664" lon="20.2619">
        <ele>762.46002197266</ele>
        <time>2023-09-30T12:29:57.000Z</time>
      </trkpt>
      <trkpt lat="41.62668" lon="20.26196">
        <ele>761.97998046875</ele>
        <time>2023-09-30T12:29:56.000Z</time>
      </trkpt>
      <trkpt lat="41.62669" lon="20.26203">
        <ele>761.97998046875</ele>
        <time>2023-09-30T12:29:55.000Z</time>
      </trkpt>
      <trkpt lat="41.62668" lon="20.2621">
        <ele>761.97998046875</ele>
        <time>2023-09-30T12:29:54.000Z</time>
      </trkpt>
      <trkpt lat="41.62666" lon="20.26221">
        <ele>761.97998046875</ele>
        <time>2023-09-30T12:29:53.000Z</time>
      </trkpt>
      <trkpt lat="41.62662" lon="20.26231">
        <ele>761.97998046875</ele>
        <time>2023-09-30T12:29:52.000Z</time>
      </trkpt>
      <trkpt lat="41.6265" lon="20.26263">
        <ele>761.5</ele>
        <time>2023-09-30T12:29:50.000Z</time>
      </trkpt>
      <trkpt lat="41.62646" lon="20.26274">
        <ele>761.97998046875</ele>
        <time>2023-09-30T12:29:49.000Z</time>
      </trkpt>
      <trkpt lat="41.62643" lon="20.26285">
        <ele>761.97998046875</ele>
        <time>2023-09-30T12:29:48.000Z</time>
      </trkpt>
      <trkpt lat="41.62642" lon="20.26294">
        <ele>762.46002197266</ele>
        <time>2023-09-30T12:29:47.000Z</time>
      </trkpt>
      <trkpt lat="41.62644" lon="20.26302">
        <ele>762.46002197266</ele>
        <time>2023-09-30T12:29:46.000Z</time>
      </trkpt>
      <trkpt lat="41.62648" lon="20.26308">
        <ele>762.46002197266</ele>
        <time>2023-09-30T12:29:45.000Z</time>
      </trkpt>
      <trkpt lat="41.62654" lon="20.26312">
        <ele>762.94000244141</ele>
        <time>2023-09-30T12:29:44.000Z</time>
      </trkpt>
      <trkpt lat="41.62663" lon="20.26316">
        <ele>762.94000244141</ele>
        <time>2023-09-30T12:29:43.000Z</time>
      </trkpt>
      <trkpt lat="41.62669" lon="20.26321">
        <ele>762.94000244141</ele>
        <time>2023-09-30T12:29:42.000Z</time>
      </trkpt>
      <trkpt lat="41.62672" lon="20.26327">
        <ele>762.94000244141</ele>
        <time>2023-09-30T12:29:41.000Z</time>
      </trkpt>
      <trkpt lat="41.62674" lon="20.26336">
        <ele>762.94000244141</ele>
        <time>2023-09-30T12:29:40.000Z</time>
      </trkpt>
      <trkpt lat="41.62672" lon="20.26346">
        <ele>762.94000244141</ele>
        <time>2023-09-30T12:29:39.000Z</time>
      </trkpt>
      <trkpt lat="41.62671" lon="20.2635">
        <ele>763.41998291016</ele>
        <time>2023-09-30T12:29:38.000Z</time>
      </trkpt>
      <trkpt lat="41.62667" lon="20.26359">
        <ele>763.41998291016</ele>
        <time>2023-09-30T12:29:37.000Z</time>
      </trkpt>
      <trkpt lat="41.62658" lon="20.26388">
        <ele>763.41998291016</ele>
        <time>2023-09-30T12:29:35.000Z</time>
      </trkpt>
      <trkpt lat="41.62655" lon="20.26399">
        <ele>763.41998291016</ele>
        <time>2023-09-30T12:29:34.000Z</time>
      </trkpt>
      <trkpt lat="41.62653" lon="20.26409">
        <ele>763.41998291016</ele>
        <time>2023-09-30T12:29:33.000Z</time>
      </trkpt>
      <trkpt lat="41.62653" lon="20.26418">
        <ele>763.41998291016</ele>
        <time>2023-09-30T12:29:32.000Z</time>
      </trkpt>
      <trkpt lat="41.62654" lon="20.26429">
        <ele>763.41998291016</ele>
        <time>2023-09-30T12:29:31.000Z</time>
      </trkpt>
      <trkpt lat="41.62654" lon="20.26438">
        <ele>763.41998291016</ele>
        <time>2023-09-30T12:29:30.000Z</time>
      </trkpt>
      <trkpt lat="41.62652" lon="20.26447">
        <ele>763.41998291016</ele>
        <time>2023-09-30T12:29:29.000Z</time>
      </trkpt>
      <trkpt lat="41.62648" lon="20.26458">
        <ele>763.41998291016</ele>
        <time>2023-09-30T12:29:28.000Z</time>
      </trkpt>
      <trkpt lat="41.62642" lon="20.26467">
        <ele>763.41998291016</ele>
        <time>2023-09-30T12:29:27.000Z</time>
      </trkpt>
      <trkpt lat="41.62624" lon="20.26498">
        <ele>762.46002197266</ele>
        <time>2023-09-30T12:29:24.000Z</time>
      </trkpt>
      <trkpt lat="41.62616" lon="20.26512">
        <ele>761.97998046875</ele>
        <time>2023-09-30T12:29:23.000Z</time>
      </trkpt>
      <trkpt lat="41.62611" lon="20.26524">
        <ele>761.5</ele>
        <time>2023-09-30T12:29:22.000Z</time>
      </trkpt>
      <trkpt lat="41.62605" lon="20.26535">
        <ele>760.53997802734</ele>
        <time>2023-09-30T12:29:21.000Z</time>
      </trkpt>
      <trkpt lat="41.62602" lon="20.26538">
        <ele>760.53997802734</ele>
        <time>2023-09-30T12:29:20.000Z</time>
      </trkpt>
      <trkpt lat="41.6259" lon="20.26551">
        <ele>760.05999755859</ele>
        <time>2023-09-30T12:29:19.000Z</time>
      </trkpt>
      <trkpt lat="41.62584" lon="20.26561">
        <ele>760.05999755859</ele>
        <time>2023-09-30T12:29:18.000Z</time>
      </trkpt>
      <trkpt lat="41.6258" lon="20.2657">
        <ele>759.58001708984</ele>
        <time>2023-09-30T12:29:17.000Z</time>
      </trkpt>
      <trkpt lat="41.62575" lon="20.2658">
        <ele>759.58001708984</ele>
        <time>2023-09-30T12:29:16.000Z</time>
      </trkpt>
      <trkpt lat="41.6257" lon="20.26593">
        <ele>759.09997558594</ele>
        <time>2023-09-30T12:29:15.000Z</time>
      </trkpt>
      <trkpt lat="41.62566" lon="20.26599">
        <ele>759.09997558594</ele>
        <time>2023-09-30T12:29:14.000Z</time>
      </trkpt>
      <trkpt lat="41.62555" lon="20.26621">
        <ele>758.14001464844</ele>
        <time>2023-09-30T12:29:12.000Z</time>
      </trkpt>
      <trkpt lat="41.62543" lon="20.26643">
        <ele>757.17999267578</ele>
        <time>2023-09-30T12:29:10.000Z</time>
      </trkpt>
      <trkpt lat="41.6254" lon="20.2665">
        <ele>756.69000244141</ele>
        <time>2023-09-30T12:29:09.000Z</time>
      </trkpt>
      <trkpt lat="41.62537" lon="20.26661">
        <ele>756.21002197266</ele>
        <time>2023-09-30T12:29:08.000Z</time>
      </trkpt>
      <trkpt lat="41.62535" lon="20.26671">
        <ele>755.72998046875</ele>
        <time>2023-09-30T12:29:07.000Z</time>
      </trkpt>
      <trkpt lat="41.62534" lon="20.26682">
        <ele>755.25</ele>
        <time>2023-09-30T12:29:06.000Z</time>
      </trkpt>
      <trkpt lat="41.62536" lon="20.26694">
        <ele>754.77001953125</ele>
        <time>2023-09-30T12:29:05.000Z</time>
      </trkpt>
      <trkpt lat="41.62538" lon="20.26704">
        <ele>754.28997802734</ele>
        <time>2023-09-30T12:29:04.000Z</time>
      </trkpt>
      <trkpt lat="41.62541" lon="20.26714">
        <ele>753.80999755859</ele>
        <time>2023-09-30T12:29:03.000Z</time>
      </trkpt>
      <trkpt lat="41.62543" lon="20.26724">
        <ele>753.80999755859</ele>
        <time>2023-09-30T12:29:02.000Z</time>
      </trkpt>
      <trkpt lat="41.62544" lon="20.26734">
        <ele>752.84997558594</ele>
        <time>2023-09-30T12:29:01.000Z</time>
      </trkpt>
      <trkpt lat="41.62542" lon="20.26743">
        <ele>752.36999511719</ele>
        <time>2023-09-30T12:29:00.000Z</time>
      </trkpt>
      <trkpt lat="41.62538" lon="20.2675">
        <ele>752.36999511719</ele>
        <time>2023-09-30T12:28:59.000Z</time>
      </trkpt>
      <trkpt lat="41.62533" lon="20.26758">
        <ele>751.40997314453</ele>
        <time>2023-09-30T12:28:58.000Z</time>
      </trkpt>
      <trkpt lat="41.62526" lon="20.2677">
        <ele>751.40997314453</ele>
        <time>2023-09-30T12:28:57.000Z</time>
      </trkpt>
      <trkpt lat="41.62523" lon="20.26778">
        <ele>751.40997314453</ele>
        <time>2023-09-30T12:28:56.000Z</time>
      </trkpt>
      <trkpt lat="41.62523" lon="20.26786">
        <ele>751.40997314453</ele>
        <time>2023-09-30T12:28:55.000Z</time>
      </trkpt>
      <trkpt lat="41.62525" lon="20.26794">
        <ele>750.92999267578</ele>
        <time>2023-09-30T12:28:54.000Z</time>
      </trkpt>
      <trkpt lat="41.6253" lon="20.26802">
        <ele>750.45001220703</ele>
        <time>2023-09-30T12:28:53.000Z</time>
      </trkpt>
      <trkpt lat="41.62537" lon="20.26809">
        <ele>750.45001220703</ele>
        <time>2023-09-30T12:28:52.000Z</time>
      </trkpt>
      <trkpt lat="41.62545" lon="20.26815">
        <ele>749.96997070312</ele>
        <time>2023-09-30T12:28:51.000Z</time>
      </trkpt>
      <trkpt lat="41.62552" lon="20.26823">
        <ele>749.96997070312</ele>
        <time>2023-09-30T12:28:50.000Z</time>
      </trkpt>
      <trkpt lat="41.62557" lon="20.26833">
        <ele>749.48999023438</ele>
        <time>2023-09-30T12:28:49.000Z</time>
      </trkpt>
      <trkpt lat="41.6256" lon="20.26842">
        <ele>749.48999023438</ele>
        <time>2023-09-30T12:28:48.000Z</time>
      </trkpt>
      <trkpt lat="41.62562" lon="20.26851">
        <ele>749.48999023438</ele>
        <time>2023-09-30T12:28:47.000Z</time>
      </trkpt>
      <trkpt lat="41.62562" lon="20.26858">
        <ele>749</ele>
        <time>2023-09-30T12:28:46.000Z</time>
      </trkpt>
      <trkpt lat="41.62561" lon="20.26865">
        <ele>748.52001953125</ele>
        <time>2023-09-30T12:28:45.000Z</time>
      </trkpt>
      <trkpt lat="41.62559" lon="20.26871">
        <ele>748.52001953125</ele>
        <time>2023-09-30T12:28:44.000Z</time>
      </trkpt>
      <trkpt lat="41.62555" lon="20.2688">
        <ele>748.03997802734</ele>
        <time>2023-09-30T12:28:43.000Z</time>
      </trkpt>
      <trkpt lat="41.62553" lon="20.26888">
        <ele>748.03997802734</ele>
        <time>2023-09-30T12:28:42.000Z</time>
      </trkpt>
      <trkpt lat="41.62553" lon="20.26897">
        <ele>748.03997802734</ele>
        <time>2023-09-30T12:28:41.000Z</time>
      </trkpt>
      <trkpt lat="41.62555" lon="20.26904">
        <ele>748.52001953125</ele>
        <time>2023-09-30T12:28:40.000Z</time>
      </trkpt>
      <trkpt lat="41.62559" lon="20.26911">
        <ele>748.52001953125</ele>
        <time>2023-09-30T12:28:39.000Z</time>
      </trkpt>
      <trkpt lat="41.62561" lon="20.26914">
        <ele>749</ele>
        <time>2023-09-30T12:28:38.000Z</time>
      </trkpt>
      <trkpt lat="41.6257" lon="20.26924">
        <ele>749</ele>
        <time>2023-09-30T12:28:37.000Z</time>
      </trkpt>
      <trkpt lat="41.62577" lon="20.26932">
        <ele>750.45001220703</ele>
        <time>2023-09-30T12:28:36.000Z</time>
      </trkpt>
      <trkpt lat="41.62585" lon="20.26937">
        <ele>750.92999267578</ele>
        <time>2023-09-30T12:28:35.000Z</time>
      </trkpt>
      <trkpt lat="41.62591" lon="20.26939">
        <ele>751.40997314453</ele>
        <time>2023-09-30T12:28:34.000Z</time>
      </trkpt>
      <trkpt lat="41.62598" lon="20.26939">
        <ele>751.89001464844</ele>
        <time>2023-09-30T12:28:33.000Z</time>
      </trkpt>
      <trkpt lat="41.62604" lon="20.26937">
        <ele>752.36999511719</ele>
        <time>2023-09-30T12:28:32.000Z</time>
      </trkpt>
      <trkpt lat="41.6261" lon="20.26933">
        <ele>752.84997558594</ele>
        <time>2023-09-30T12:28:31.000Z</time>
      </trkpt>
      <trkpt lat="41.62614" lon="20.26927">
        <ele>752.84997558594</ele>
        <time>2023-09-30T12:28:30.000Z</time>
      </trkpt>
      <trkpt lat="41.62615" lon="20.26925">
        <ele>752.84997558594</ele>
        <time>2023-09-30T12:28:29.000Z</time>
      </trkpt>
      <trkpt lat="41.62624" lon="20.2691">
        <ele>753.80999755859</ele>
        <time>2023-09-30T12:28:28.000Z</time>
      </trkpt>
      <trkpt lat="41.62628" lon="20.26903">
        <ele>754.28997802734</ele>
        <time>2023-09-30T12:28:27.000Z</time>
      </trkpt>
      <trkpt lat="41.62631" lon="20.26896">
        <ele>754.77001953125</ele>
        <time>2023-09-30T12:28:26.000Z</time>
      </trkpt>
      <trkpt lat="41.62633" lon="20.26889">
        <ele>755.25</ele>
        <time>2023-09-30T12:28:25.000Z</time>
      </trkpt>
      <trkpt lat="41.62635" lon="20.26882">
        <ele>755.72998046875</ele>
        <time>2023-09-30T12:28:24.000Z</time>
      </trkpt>
      <trkpt lat="41.62638" lon="20.26873">
        <ele>756.21002197266</ele>
        <time>2023-09-30T12:28:23.000Z</time>
      </trkpt>
      <trkpt lat="41.6264" lon="20.26865">
        <ele>756.69000244141</ele>
        <time>2023-09-30T12:28:22.000Z</time>
      </trkpt>
      <trkpt lat="41.62643" lon="20.2686">
        <ele>757.65997314453</ele>
        <time>2023-09-30T12:28:21.000Z</time>
      </trkpt>
      <trkpt lat="41.62645" lon="20.26857">
        <ele>758.14001464844</ele>
        <time>2023-09-30T12:28:20.000Z</time>
      </trkpt>
      <trkpt lat="41.62655" lon="20.26859">
        <ele>759.58001708984</ele>
        <time>2023-09-30T12:28:17.000Z</time>
      </trkpt>
      <trkpt lat="41.62656" lon="20.26865">
        <ele>760.05999755859</ele>
        <time>2023-09-30T12:28:16.000Z</time>
      </trkpt>
      <trkpt lat="41.62657" lon="20.26873">
        <ele>760.05999755859</ele>
        <time>2023-09-30T12:28:15.000Z</time>
      </trkpt>
      <trkpt lat="41.62658" lon="20.26883">
        <ele>761.02001953125</ele>
        <time>2023-09-30T12:28:14.000Z</time>
      </trkpt>
      <trkpt lat="41.62657" lon="20.26893">
        <ele>761.97998046875</ele>
        <time>2023-09-30T12:28:13.000Z</time>
      </trkpt>
      <trkpt lat="41.62656" lon="20.26903">
        <ele>762.94000244141</ele>
        <time>2023-09-30T12:28:12.000Z</time>
      </trkpt>
      <trkpt lat="41.62651" lon="20.26911">
        <ele>763.90002441406</ele>
        <time>2023-09-30T12:28:11.000Z</time>
      </trkpt>
      <trkpt lat="41.62646" lon="20.26919">
        <ele>764.39001464844</ele>
        <time>2023-09-30T12:28:10.000Z</time>
      </trkpt>
      <trkpt lat="41.6264" lon="20.26928">
        <ele>765.34997558594</ele>
        <time>2023-09-30T12:28:09.000Z</time>
      </trkpt>
      <trkpt lat="41.62635" lon="20.26938">
        <ele>765.83001708984</ele>
        <time>2023-09-30T12:28:08.000Z</time>
      </trkpt>
      <trkpt lat="41.62632" lon="20.26945">
        <ele>766.30999755859</ele>
        <time>2023-09-30T12:28:07.000Z</time>
      </trkpt>
      <trkpt lat="41.6263" lon="20.26953">
        <ele>766.30999755859</ele>
        <time>2023-09-30T12:28:06.000Z</time>
      </trkpt>
      <trkpt lat="41.62624" lon="20.26971">
        <ele>767.27001953125</ele>
        <time>2023-09-30T12:28:05.000Z</time>
      </trkpt>
      <trkpt lat="41.6262" lon="20.26987">
        <ele>768.22998046875</ele>
        <time>2023-09-30T12:28:04.000Z</time>
      </trkpt>
      <trkpt lat="41.62617" lon="20.26998">
        <ele>769.19000244141</ele>
        <time>2023-09-30T12:28:03.000Z</time>
      </trkpt>
      <trkpt lat="41.62616" lon="20.27007">
        <ele>769.19000244141</ele>
        <time>2023-09-30T12:28:02.000Z</time>
      </trkpt>
      <trkpt lat="41.62614" lon="20.27021">
        <ele>770.15002441406</ele>
        <time>2023-09-30T12:28:01.000Z</time>
      </trkpt>
      <trkpt lat="41.62614" lon="20.2703">
        <ele>770.63000488281</ele>
        <time>2023-09-30T12:28:00.000Z</time>
      </trkpt>
      <trkpt lat="41.62614" lon="20.27035">
        <ele>771.10998535156</ele>
        <time>2023-09-30T12:27:59.000Z</time>
      </trkpt>
      <trkpt lat="41.62615" lon="20.27059">
        <ele>772.55999755859</ele>
        <time>2023-09-30T12:27:58.000Z</time>
      </trkpt>
      <trkpt lat="41.62615" lon="20.27069">
        <ele>773.03997802734</ele>
        <time>2023-09-30T12:27:57.000Z</time>
      </trkpt>
      <trkpt lat="41.62614" lon="20.2708">
        <ele>774</ele>
        <time>2023-09-30T12:27:56.000Z</time>
      </trkpt>
      <trkpt lat="41.62612" lon="20.27097">
        <ele>775.44000244141</ele>
        <time>2023-09-30T12:27:55.000Z</time>
      </trkpt>
      <trkpt lat="41.62612" lon="20.27106">
        <ele>775.91998291016</ele>
        <time>2023-09-30T12:27:54.000Z</time>
      </trkpt>
      <trkpt lat="41.6261" lon="20.2712">
        <ele>777.35998535156</ele>
        <time>2023-09-30T12:27:53.000Z</time>
      </trkpt>
      <trkpt lat="41.62608" lon="20.27126">
        <ele>778.32000732422</ele>
        <time>2023-09-30T12:27:52.000Z</time>
      </trkpt>
      <trkpt lat="41.62602" lon="20.27131">
        <ele>778.80999755859</ele>
        <time>2023-09-30T12:27:51.000Z</time>
      </trkpt>
      <trkpt lat="41.62594" lon="20.27135">
        <ele>779.77001953125</ele>
        <time>2023-09-30T12:27:50.000Z</time>
      </trkpt>
      <trkpt lat="41.62586" lon="20.27137">
        <ele>780.25</ele>
        <time>2023-09-30T12:27:49.000Z</time>
      </trkpt>
      <trkpt lat="41.62579" lon="20.2714">
        <ele>781.21002197266</ele>
        <time>2023-09-30T12:27:48.000Z</time>
      </trkpt>
      <trkpt lat="41.6257" lon="20.27145">
        <ele>782.16998291016</ele>
        <time>2023-09-30T12:27:47.000Z</time>
      </trkpt>
      <trkpt lat="41.62563" lon="20.27147">
        <ele>782.65002441406</ele>
        <time>2023-09-30T12:27:46.000Z</time>
      </trkpt>
      <trkpt lat="41.62557" lon="20.27146">
        <ele>783.13000488281</ele>
        <time>2023-09-30T12:27:45.000Z</time>
      </trkpt>
      <trkpt lat="41.62552" lon="20.27142">
        <ele>783.60998535156</ele>
        <time>2023-09-30T12:27:44.000Z</time>
      </trkpt>
      <trkpt lat="41.62547" lon="20.27135">
        <ele>784.57000732422</ele>
        <time>2023-09-30T12:27:43.000Z</time>
      </trkpt>
      <trkpt lat="41.62542" lon="20.27128">
        <ele>785.53002929688</ele>
        <time>2023-09-30T12:27:42.000Z</time>
      </trkpt>
      <trkpt lat="41.62539" lon="20.27121">
        <ele>786.5</ele>
        <time>2023-09-30T12:27:41.000Z</time>
      </trkpt>
      <trkpt lat="41.62534" lon="20.27116">
        <ele>787.46002197266</ele>
        <time>2023-09-30T12:27:40.000Z</time>
      </trkpt>
      <trkpt lat="41.6253" lon="20.27114">
        <ele>787.94000244141</ele>
        <time>2023-09-30T12:27:39.000Z</time>
      </trkpt>
      <trkpt lat="41.62526" lon="20.27113">
        <ele>788.41998291016</ele>
        <time>2023-09-30T12:27:38.000Z</time>
      </trkpt>
      <trkpt lat="41.62521" lon="20.27112">
        <ele>789.38000488281</ele>
        <time>2023-09-30T12:27:37.000Z</time>
      </trkpt>
      <trkpt lat="41.62517" lon="20.27113">
        <ele>789.85998535156</ele>
        <time>2023-09-30T12:27:36.000Z</time>
      </trkpt>
      <trkpt lat="41.62512" lon="20.27116">
        <ele>790.82000732422</ele>
        <time>2023-09-30T12:27:35.000Z</time>
      </trkpt>
      <trkpt lat="41.62507" lon="20.27121">
        <ele>791.29998779297</ele>
        <time>2023-09-30T12:27:34.000Z</time>
      </trkpt>
      <trkpt lat="41.62503" lon="20.27127">
        <ele>791.78002929688</ele>
        <time>2023-09-30T12:27:33.000Z</time>
      </trkpt>
      <trkpt lat="41.62498" lon="20.27136">
        <ele>792.73999023438</ele>
        <time>2023-09-30T12:27:32.000Z</time>
      </trkpt>
      <trkpt lat="41.62494" lon="20.27143">
        <ele>793.71002197266</ele>
        <time>2023-09-30T12:27:31.000Z</time>
      </trkpt>
      <trkpt lat="41.62488" lon="20.27152">
        <ele>794.66998291016</ele>
        <time>2023-09-30T12:27:30.000Z</time>
      </trkpt>
      <trkpt lat="41.62485" lon="20.27157">
        <ele>795.63000488281</ele>
        <time>2023-09-30T12:27:29.000Z</time>
      </trkpt>
      <trkpt lat="41.62482" lon="20.27163">
        <ele>796.59002685547</ele>
        <time>2023-09-30T12:27:28.000Z</time>
      </trkpt>
      <trkpt lat="41.62482" lon="20.27169">
        <ele>796.59002685547</ele>
        <time>2023-09-30T12:27:27.000Z</time>
      </trkpt>
      <trkpt lat="41.62483" lon="20.27175">
        <ele>796.59002685547</ele>
        <time>2023-09-30T12:27:26.000Z</time>
      </trkpt>
      <trkpt lat="41.62486" lon="20.27183">
        <ele>797.07000732422</ele>
        <time>2023-09-30T12:27:25.000Z</time>
      </trkpt>
      <trkpt lat="41.62488" lon="20.27191">
        <ele>797.54998779297</ele>
        <time>2023-09-30T12:27:24.000Z</time>
      </trkpt>
      <trkpt lat="41.62489" lon="20.27202">
        <ele>798.98999023438</ele>
        <time>2023-09-30T12:27:23.000Z</time>
      </trkpt>
      <trkpt lat="41.62489" lon="20.27213">
        <ele>799.95001220703</ele>
        <time>2023-09-30T12:27:22.000Z</time>
      </trkpt>
      <trkpt lat="41.6249" lon="20.27222">
        <ele>800.91998291016</ele>
        <time>2023-09-30T12:27:21.000Z</time>
      </trkpt>
      <trkpt lat="41.62491" lon="20.27229">
        <ele>801.88000488281</ele>
        <time>2023-09-30T12:27:20.000Z</time>
      </trkpt>
      <trkpt lat="41.62492" lon="20.27243">
        <ele>802.84002685547</ele>
        <time>2023-09-30T12:27:19.000Z</time>
      </trkpt>
      <trkpt lat="41.62492" lon="20.27254">
        <ele>803.32000732422</ele>
        <time>2023-09-30T12:27:18.000Z</time>
      </trkpt>
      <trkpt lat="41.6249" lon="20.27264">
        <ele>804.76000976562</ele>
        <time>2023-09-30T12:27:17.000Z</time>
      </trkpt>
      <trkpt lat="41.62488" lon="20.27274">
        <ele>805.23999023438</ele>
        <time>2023-09-30T12:27:16.000Z</time>
      </trkpt>
      <trkpt lat="41.62488" lon="20.27281">
        <ele>805.71997070312</ele>
        <time>2023-09-30T12:27:15.000Z</time>
      </trkpt>
      <trkpt lat="41.62489" lon="20.27287">
        <ele>806.20001220703</ele>
        <time>2023-09-30T12:27:14.000Z</time>
      </trkpt>
      <trkpt lat="41.62492" lon="20.27292">
        <ele>807.15997314453</ele>
        <time>2023-09-30T12:27:13.000Z</time>
      </trkpt>
      <trkpt lat="41.62497" lon="20.27293">
        <ele>807.64001464844</ele>
        <time>2023-09-30T12:27:12.000Z</time>
      </trkpt>
      <trkpt lat="41.62504" lon="20.27293">
        <ele>808.60998535156</ele>
        <time>2023-09-30T12:27:11.000Z</time>
      </trkpt>
      <trkpt lat="41.6251" lon="20.27292">
        <ele>809.09002685547</ele>
        <time>2023-09-30T12:27:10.000Z</time>
      </trkpt>
      <trkpt lat="41.62518" lon="20.27291">
        <ele>809.57000732422</ele>
        <time>2023-09-30T12:27:08.000Z</time>
      </trkpt>
      <trkpt lat="41.62529" lon="20.27289">
        <ele>809.57000732422</ele>
        <time>2023-09-30T12:27:07.000Z</time>
      </trkpt>
      <trkpt lat="41.62535" lon="20.27288">
        <ele>809.57000732422</ele>
        <time>2023-09-30T12:27:06.000Z</time>
      </trkpt>
      <trkpt lat="41.62539" lon="20.27288">
        <ele>809.57000732422</ele>
        <time>2023-09-30T12:27:05.000Z</time>
      </trkpt>
      <trkpt lat="41.62543" lon="20.27289">
        <ele>809.57000732422</ele>
        <time>2023-09-30T12:27:04.000Z</time>
      </trkpt>
      <trkpt lat="41.62547" lon="20.2729">
        <ele>809.57000732422</ele>
        <time>2023-09-30T12:27:03.000Z</time>
      </trkpt>
      <trkpt lat="41.62548" lon="20.27291">
        <ele>809.57000732422</ele>
        <time>2023-09-30T12:27:02.000Z</time>
      </trkpt>
      <trkpt lat="41.62558" lon="20.27313">
        <ele>811.48999023438</ele>
        <time>2023-09-30T12:26:57.000Z</time>
      </trkpt>
      <trkpt lat="41.62556" lon="20.27319">
        <ele>811.96997070312</ele>
        <time>2023-09-30T12:26:56.000Z</time>
      </trkpt>
      <trkpt lat="41.62553" lon="20.27325">
        <ele>812.45001220703</ele>
        <time>2023-09-30T12:26:55.000Z</time>
      </trkpt>
      <trkpt lat="41.62549" lon="20.2733">
        <ele>812.92999267578</ele>
        <time>2023-09-30T12:26:54.000Z</time>
      </trkpt>
      <trkpt lat="41.62543" lon="20.27336">
        <ele>813.40997314453</ele>
        <time>2023-09-30T12:26:53.000Z</time>
      </trkpt>
      <trkpt lat="41.62538" lon="20.27341">
        <ele>813.89001464844</ele>
        <time>2023-09-30T12:26:52.000Z</time>
      </trkpt>
      <trkpt lat="41.62533" lon="20.27348">
        <ele>814.36999511719</ele>
        <time>2023-09-30T12:26:51.000Z</time>
      </trkpt>
      <trkpt lat="41.62529" lon="20.27355">
        <ele>814.36999511719</ele>
        <time>2023-09-30T12:26:50.000Z</time>
      </trkpt>
      <trkpt lat="41.62527" lon="20.27364">
        <ele>814.84997558594</ele>
        <time>2023-09-30T12:26:49.000Z</time>
      </trkpt>
      <trkpt lat="41.62526" lon="20.27367">
        <ele>814.84997558594</ele>
        <time>2023-09-30T12:26:48.000Z</time>
      </trkpt>
      <trkpt lat="41.62524" lon="20.2738">
        <ele>814.84997558594</ele>
        <time>2023-09-30T12:26:47.000Z</time>
      </trkpt>
      <trkpt lat="41.62523" lon="20.27384">
        <ele>814.84997558594</ele>
        <time>2023-09-30T12:26:46.000Z</time>
      </trkpt>
      <trkpt lat="41.62523" lon="20.27401">
        <ele>814.36999511719</ele>
        <time>2023-09-30T12:26:23.000Z</time>
      </trkpt>
      <trkpt lat="41.62522" lon="20.27422">
        <ele>813.89001464844</ele>
        <time>2023-09-30T12:26:14.000Z</time>
      </trkpt>
      <trkpt lat="41.62521" lon="20.27459">
        <ele>813.89001464844</ele>
        <time>2023-09-30T12:26:07.000Z</time>
      </trkpt>
      <trkpt lat="41.6252" lon="20.27463">
        <ele>814.36999511719</ele>
        <time>2023-09-30T12:26:06.000Z</time>
      </trkpt>
      <trkpt lat="41.62517" lon="20.27469">
        <ele>814.36999511719</ele>
        <time>2023-09-30T12:26:05.000Z</time>
      </trkpt>
      <trkpt lat="41.62513" lon="20.27473">
        <ele>814.36999511719</ele>
        <time>2023-09-30T12:26:04.000Z</time>
      </trkpt>
      <trkpt lat="41.62508" lon="20.27476">
        <ele>813.89001464844</ele>
        <time>2023-09-30T12:26:03.000Z</time>
      </trkpt>
      <trkpt lat="41.62501" lon="20.2748">
        <ele>813.40997314453</ele>
        <time>2023-09-30T12:26:02.000Z</time>
      </trkpt>
      <trkpt lat="41.62495" lon="20.27483">
        <ele>812.92999267578</ele>
        <time>2023-09-30T12:26:01.000Z</time>
      </trkpt>
      <trkpt lat="41.62489" lon="20.27487">
        <ele>812.92999267578</ele>
        <time>2023-09-30T12:26:00.000Z</time>
      </trkpt>
      <trkpt lat="41.62486" lon="20.27488">
        <ele>812.45001220703</ele>
        <time>2023-09-30T12:25:59.000Z</time>
      </trkpt>
      <trkpt lat="41.6248" lon="20.2749">
        <ele>811.96997070312</ele>
        <time>2023-09-30T12:25:58.000Z</time>
      </trkpt>
      <trkpt lat="41.62476" lon="20.27492">
        <ele>811.48999023438</ele>
        <time>2023-09-30T12:25:57.000Z</time>
      </trkpt>
      <trkpt lat="41.6247" lon="20.27494">
        <ele>810.53002929688</ele>
        <time>2023-09-30T12:25:56.000Z</time>
      </trkpt>
      <trkpt lat="41.62467" lon="20.27496">
        <ele>810.53002929688</ele>
        <time>2023-09-30T12:25:55.000Z</time>
      </trkpt>
      <trkpt lat="41.6246" lon="20.27501">
        <ele>809.57000732422</ele>
        <time>2023-09-30T12:25:53.000Z</time>
      </trkpt>
      <trkpt lat="41.62456" lon="20.27506">
        <ele>807.64001464844</ele>
        <time>2023-09-30T12:25:52.000Z</time>
      </trkpt>
      <trkpt lat="41.62453" lon="20.27512">
        <ele>807.64001464844</ele>
        <time>2023-09-30T12:25:51.000Z</time>
      </trkpt>
      <trkpt lat="41.62451" lon="20.27517">
        <ele>807.64001464844</ele>
        <time>2023-09-30T12:25:50.000Z</time>
      </trkpt>
      <trkpt lat="41.62445" lon="20.27534">
        <ele>807.64001464844</ele>
        <time>2023-09-30T12:25:49.000Z</time>
      </trkpt>
      <trkpt lat="41.62441" lon="20.27544">
        <ele>808.13000488281</ele>
        <time>2023-09-30T12:25:48.000Z</time>
      </trkpt>
      <trkpt lat="41.62436" lon="20.27558">
        <ele>808.60998535156</ele>
        <time>2023-09-30T12:25:47.000Z</time>
      </trkpt>
      <trkpt lat="41.62431" lon="20.27572">
        <ele>809.09002685547</ele>
        <time>2023-09-30T12:25:46.000Z</time>
      </trkpt>
      <trkpt lat="41.62428" lon="20.27584">
        <ele>809.57000732422</ele>
        <time>2023-09-30T12:25:45.000Z</time>
      </trkpt>
      <trkpt lat="41.62425" lon="20.27592">
        <ele>809.57000732422</ele>
        <time>2023-09-30T12:25:44.000Z</time>
      </trkpt>
      <trkpt lat="41.62412" lon="20.27639">
        <ele>811.48999023438</ele>
        <time>2023-09-30T12:25:41.000Z</time>
      </trkpt>
      <trkpt lat="41.62409" lon="20.27649">
        <ele>811.96997070312</ele>
        <time>2023-09-30T12:25:40.000Z</time>
      </trkpt>
      <trkpt lat="41.62405" lon="20.27663">
        <ele>812.92999267578</ele>
        <time>2023-09-30T12:25:39.000Z</time>
      </trkpt>
      <trkpt lat="41.62403" lon="20.27673">
        <ele>813.40997314453</ele>
        <time>2023-09-30T12:25:38.000Z</time>
      </trkpt>
      <trkpt lat="41.62399" lon="20.27685">
        <ele>814.36999511719</ele>
        <time>2023-09-30T12:25:37.000Z</time>
      </trkpt>
      <trkpt lat="41.62397" lon="20.27696">
        <ele>815.34002685547</ele>
        <time>2023-09-30T12:25:36.000Z</time>
      </trkpt>
      <trkpt lat="41.62396" lon="20.277">
        <ele>815.82000732422</ele>
        <time>2023-09-30T12:25:35.000Z</time>
      </trkpt>
      <trkpt lat="41.62392" lon="20.2771">
        <ele>816.78002929688</ele>
        <time>2023-09-30T12:25:34.000Z</time>
      </trkpt>
      <trkpt lat="41.6239" lon="20.27717">
        <ele>817.26000976562</ele>
        <time>2023-09-30T12:25:33.000Z</time>
      </trkpt>
      <trkpt lat="41.62379" lon="20.27738">
        <ele>817.73999023438</ele>
        <time>2023-09-30T12:25:27.000Z</time>
      </trkpt>
      <trkpt lat="41.62376" lon="20.27743">
        <ele>817.26000976562</ele>
        <time>2023-09-30T12:25:26.000Z</time>
      </trkpt>
      <trkpt lat="41.62371" lon="20.27748">
        <ele>816.78002929688</ele>
        <time>2023-09-30T12:25:25.000Z</time>
      </trkpt>
      <trkpt lat="41.62345" lon="20.27771">
        <ele>815.34002685547</ele>
        <time>2023-09-30T12:25:21.000Z</time>
      </trkpt>
      <trkpt lat="41.6234" lon="20.27776">
        <ele>815.34002685547</ele>
        <time>2023-09-30T12:25:20.000Z</time>
      </trkpt>
      <trkpt lat="41.62336" lon="20.27781">
        <ele>815.34002685547</ele>
        <time>2023-09-30T12:25:19.000Z</time>
      </trkpt>
      <trkpt lat="41.62332" lon="20.27788">
        <ele>815.34002685547</ele>
        <time>2023-09-30T12:25:18.000Z</time>
      </trkpt>
      <trkpt lat="41.62329" lon="20.27794">
        <ele>814.84997558594</ele>
        <time>2023-09-30T12:25:17.000Z</time>
      </trkpt>
      <trkpt lat="41.62328" lon="20.27801">
        <ele>815.34002685547</ele>
        <time>2023-09-30T12:25:16.000Z</time>
      </trkpt>
      <trkpt lat="41.62327" lon="20.27808">
        <ele>815.34002685547</ele>
        <time>2023-09-30T12:25:15.000Z</time>
      </trkpt>
      <trkpt lat="41.62327" lon="20.27815">
        <ele>815.34002685547</ele>
        <time>2023-09-30T12:25:14.000Z</time>
      </trkpt>
      <trkpt lat="41.62328" lon="20.27824">
        <ele>815.82000732422</ele>
        <time>2023-09-30T12:25:13.000Z</time>
      </trkpt>
      <trkpt lat="41.62329" lon="20.27832">
        <ele>815.82000732422</ele>
        <time>2023-09-30T12:25:12.000Z</time>
      </trkpt>
      <trkpt lat="41.6233" lon="20.27842">
        <ele>816.29998779297</ele>
        <time>2023-09-30T12:25:11.000Z</time>
      </trkpt>
      <trkpt lat="41.62331" lon="20.27849">
        <ele>816.29998779297</ele>
        <time>2023-09-30T12:25:10.000Z</time>
      </trkpt>
      <trkpt lat="41.62333" lon="20.2786">
        <ele>816.29998779297</ele>
        <time>2023-09-30T12:25:09.000Z</time>
      </trkpt>
      <trkpt lat="41.62335" lon="20.2787">
        <ele>816.29998779297</ele>
        <time>2023-09-30T12:25:08.000Z</time>
      </trkpt>
      <trkpt lat="41.62338" lon="20.27878">
        <ele>816.78002929688</ele>
        <time>2023-09-30T12:25:07.000Z</time>
      </trkpt>
      <trkpt lat="41.62341" lon="20.27884">
        <ele>816.78002929688</ele>
        <time>2023-09-30T12:25:06.000Z</time>
      </trkpt>
      <trkpt lat="41.62348" lon="20.27899">
        <ele>816.29998779297</ele>
        <time>2023-09-30T12:25:05.000Z</time>
      </trkpt>
      <trkpt lat="41.62352" lon="20.27911">
        <ele>815.82000732422</ele>
        <time>2023-09-30T12:25:04.000Z</time>
      </trkpt>
      <trkpt lat="41.62355" lon="20.27919">
        <ele>815.34002685547</ele>
        <time>2023-09-30T12:25:03.000Z</time>
      </trkpt>
      <trkpt lat="41.62359" lon="20.27931">
        <ele>814.36999511719</ele>
        <time>2023-09-30T12:25:02.000Z</time>
      </trkpt>
      <trkpt lat="41.62365" lon="20.27945">
        <ele>813.40997314453</ele>
        <time>2023-09-30T12:25:01.000Z</time>
      </trkpt>
      <trkpt lat="41.62371" lon="20.27956">
        <ele>812.92999267578</ele>
        <time>2023-09-30T12:25:00.000Z</time>
      </trkpt>
      <trkpt lat="41.62375" lon="20.27962">
        <ele>812.45001220703</ele>
        <time>2023-09-30T12:24:59.000Z</time>
      </trkpt>
      <trkpt lat="41.62403" lon="20.28002">
        <ele>810.04998779297</ele>
        <time>2023-09-30T12:24:56.000Z</time>
      </trkpt>
      <trkpt lat="41.62409" lon="20.28013">
        <ele>809.57000732422</ele>
        <time>2023-09-30T12:24:55.000Z</time>
      </trkpt>
      <trkpt lat="41.62412" lon="20.28017">
        <ele>809.57000732422</ele>
        <time>2023-09-30T12:24:54.000Z</time>
      </trkpt>
      <trkpt lat="41.62426" lon="20.28051">
        <ele>808.13000488281</ele>
        <time>2023-09-30T12:24:52.000Z</time>
      </trkpt>
      <trkpt lat="41.6243" lon="20.28063">
        <ele>808.13000488281</ele>
        <time>2023-09-30T12:24:51.000Z</time>
      </trkpt>
      <trkpt lat="41.62433" lon="20.28076">
        <ele>807.64001464844</ele>
        <time>2023-09-30T12:24:50.000Z</time>
      </trkpt>
      <trkpt lat="41.62436" lon="20.28091">
        <ele>807.15997314453</ele>
        <time>2023-09-30T12:24:49.000Z</time>
      </trkpt>
      <trkpt lat="41.62439" lon="20.28103">
        <ele>807.15997314453</ele>
        <time>2023-09-30T12:24:48.000Z</time>
      </trkpt>
      <trkpt lat="41.62441" lon="20.28113">
        <ele>806.67999267578</ele>
        <time>2023-09-30T12:24:47.000Z</time>
      </trkpt>
      <trkpt lat="41.62444" lon="20.28122">
        <ele>806.67999267578</ele>
        <time>2023-09-30T12:24:46.000Z</time>
      </trkpt>
      <trkpt lat="41.62449" lon="20.28139">
        <ele>806.67999267578</ele>
        <time>2023-09-30T12:24:45.000Z</time>
      </trkpt>
      <trkpt lat="41.62452" lon="20.28151">
        <ele>805.71997070312</ele>
        <time>2023-09-30T12:24:44.000Z</time>
      </trkpt>
      <trkpt lat="41.62453" lon="20.28161">
        <ele>804.76000976562</ele>
        <time>2023-09-30T12:24:43.000Z</time>
      </trkpt>
      <trkpt lat="41.62452" lon="20.28171">
        <ele>804.28002929688</ele>
        <time>2023-09-30T12:24:42.000Z</time>
      </trkpt>
      <trkpt lat="41.6245" lon="20.28185">
        <ele>803.79998779297</ele>
        <time>2023-09-30T12:24:41.000Z</time>
      </trkpt>
      <trkpt lat="41.62449" lon="20.28198">
        <ele>803.32000732422</ele>
        <time>2023-09-30T12:24:40.000Z</time>
      </trkpt>
      <trkpt lat="41.62448" lon="20.2821">
        <ele>802.84002685547</ele>
        <time>2023-09-30T12:24:39.000Z</time>
      </trkpt>
      <trkpt lat="41.6245" lon="20.28223">
        <ele>802.35998535156</ele>
        <time>2023-09-30T12:24:38.000Z</time>
      </trkpt>
      <trkpt lat="41.62453" lon="20.28234">
        <ele>802.35998535156</ele>
        <time>2023-09-30T12:24:37.000Z</time>
      </trkpt>
      <trkpt lat="41.62457" lon="20.28242">
        <ele>801.88000488281</ele>
        <time>2023-09-30T12:24:36.000Z</time>
      </trkpt>
      <trkpt lat="41.62463" lon="20.28252">
        <ele>801.40002441406</ele>
        <time>2023-09-30T12:24:35.000Z</time>
      </trkpt>
      <trkpt lat="41.6247" lon="20.28264">
        <ele>801.40002441406</ele>
        <time>2023-09-30T12:24:34.000Z</time>
      </trkpt>
      <trkpt lat="41.62475" lon="20.28272">
        <ele>800.91998291016</ele>
        <time>2023-09-30T12:24:33.000Z</time>
      </trkpt>
      <trkpt lat="41.62479" lon="20.28281">
        <ele>800.44000244141</ele>
        <time>2023-09-30T12:24:32.000Z</time>
      </trkpt>
      <trkpt lat="41.62482" lon="20.28291">
        <ele>799.95001220703</ele>
        <time>2023-09-30T12:24:31.000Z</time>
      </trkpt>
      <trkpt lat="41.62483" lon="20.28302">
        <ele>799.46997070312</ele>
        <time>2023-09-30T12:24:30.000Z</time>
      </trkpt>
      <trkpt lat="41.62484" lon="20.28311">
        <ele>798.98999023438</ele>
        <time>2023-09-30T12:24:29.000Z</time>
      </trkpt>
      <trkpt lat="41.62483" lon="20.28323">
        <ele>798.51000976562</ele>
        <time>2023-09-30T12:24:28.000Z</time>
      </trkpt>
      <trkpt lat="41.62482" lon="20.28333">
        <ele>798.51000976562</ele>
        <time>2023-09-30T12:24:27.000Z</time>
      </trkpt>
      <trkpt lat="41.62481" lon="20.28345">
        <ele>798.03002929688</ele>
        <time>2023-09-30T12:24:26.000Z</time>
      </trkpt>
      <trkpt lat="41.62481" lon="20.28356">
        <ele>798.03002929688</ele>
        <time>2023-09-30T12:24:25.000Z</time>
      </trkpt>
      <trkpt lat="41.62483" lon="20.28366">
        <ele>797.54998779297</ele>
        <time>2023-09-30T12:24:24.000Z</time>
      </trkpt>
      <trkpt lat="41.62486" lon="20.28376">
        <ele>796.59002685547</ele>
        <time>2023-09-30T12:24:23.000Z</time>
      </trkpt>
      <trkpt lat="41.62491" lon="20.28385">
        <ele>796.10998535156</ele>
        <time>2023-09-30T12:24:22.000Z</time>
      </trkpt>
      <trkpt lat="41.62497" lon="20.28392">
        <ele>796.10998535156</ele>
        <time>2023-09-30T12:24:21.000Z</time>
      </trkpt>
      <trkpt lat="41.62505" lon="20.28396">
        <ele>795.15002441406</ele>
        <time>2023-09-30T12:24:20.000Z</time>
      </trkpt>
      <trkpt lat="41.62513" lon="20.28398">
        <ele>795.15002441406</ele>
        <time>2023-09-30T12:24:19.000Z</time>
      </trkpt>
      <trkpt lat="41.62521" lon="20.28398">
        <ele>794.66998291016</ele>
        <time>2023-09-30T12:24:18.000Z</time>
      </trkpt>
      <trkpt lat="41.6253" lon="20.28397">
        <ele>794.19000244141</ele>
        <time>2023-09-30T12:24:17.000Z</time>
      </trkpt>
      <trkpt lat="41.62539" lon="20.28395">
        <ele>794.19000244141</ele>
        <time>2023-09-30T12:24:16.000Z</time>
      </trkpt>
      <trkpt lat="41.62544" lon="20.28393">
        <ele>794.19000244141</ele>
        <time>2023-09-30T12:24:15.000Z</time>
      </trkpt>
      <trkpt lat="41.62557" lon="20.28387">
        <ele>793.71002197266</ele>
        <time>2023-09-30T12:24:14.000Z</time>
      </trkpt>
      <trkpt lat="41.62581" lon="20.28374">
        <ele>792.26000976562</ele>
        <time>2023-09-30T12:24:11.000Z</time>
      </trkpt>
      <trkpt lat="41.62587" lon="20.28372">
        <ele>792.26000976562</ele>
        <time>2023-09-30T12:24:10.000Z</time>
      </trkpt>
      <trkpt lat="41.626" lon="20.28369">
        <ele>791.78002929688</ele>
        <time>2023-09-30T12:24:08.000Z</time>
      </trkpt>
      <trkpt lat="41.6261" lon="20.28366">
        <ele>791.29998779297</ele>
        <time>2023-09-30T12:24:07.000Z</time>
      </trkpt>
      <trkpt lat="41.62649" lon="20.28357">
        <ele>790.34002685547</ele>
        <time>2023-09-30T12:24:03.000Z</time>
      </trkpt>
      <trkpt lat="41.62656" lon="20.28356">
        <ele>789.85998535156</ele>
        <time>2023-09-30T12:24:02.000Z</time>
      </trkpt>
      <trkpt lat="41.62662" lon="20.28353">
        <ele>789.85998535156</ele>
        <time>2023-09-30T12:24:01.000Z</time>
      </trkpt>
      <trkpt lat="41.62671" lon="20.28348">
        <ele>788.90002441406</ele>
        <time>2023-09-30T12:23:59.000Z</time>
      </trkpt>
      <trkpt lat="41.62678" lon="20.28344">
        <ele>788.41998291016</ele>
        <time>2023-09-30T12:23:58.000Z</time>
      </trkpt>
      <trkpt lat="41.62685" lon="20.2834">
        <ele>787.46002197266</ele>
        <time>2023-09-30T12:23:57.000Z</time>
      </trkpt>
      <trkpt lat="41.62691" lon="20.2834">
        <ele>786.97998046875</ele>
        <time>2023-09-30T12:23:56.000Z</time>
      </trkpt>
      <trkpt lat="41.62697" lon="20.28342">
        <ele>786.02001953125</ele>
        <time>2023-09-30T12:23:55.000Z</time>
      </trkpt>
      <trkpt lat="41.62704" lon="20.28346">
        <ele>785.53002929688</ele>
        <time>2023-09-30T12:23:54.000Z</time>
      </trkpt>
      <trkpt lat="41.62709" lon="20.2835">
        <ele>785.04998779297</ele>
        <time>2023-09-30T12:23:53.000Z</time>
      </trkpt>
      <trkpt lat="41.62712" lon="20.28352">
        <ele>785.04998779297</ele>
        <time>2023-09-30T12:23:52.000Z</time>
      </trkpt>
      <trkpt lat="41.62719" lon="20.28357">
        <ele>784.57000732422</ele>
        <time>2023-09-30T12:23:51.000Z</time>
      </trkpt>
      <trkpt lat="41.62735" lon="20.28365">
        <ele>783.13000488281</ele>
        <time>2023-09-30T12:23:49.000Z</time>
      </trkpt>
      <trkpt lat="41.62741" lon="20.28367">
        <ele>782.65002441406</ele>
        <time>2023-09-30T12:23:48.000Z</time>
      </trkpt>
      <trkpt lat="41.62745" lon="20.28368">
        <ele>782.65002441406</ele>
        <time>2023-09-30T12:23:47.000Z</time>
      </trkpt>
      <trkpt lat="41.62749" lon="20.2837">
        <ele>782.16998291016</ele>
        <time>2023-09-30T12:23:46.000Z</time>
      </trkpt>
      <trkpt lat="41.62752" lon="20.28371">
        <ele>782.16998291016</ele>
        <time>2023-09-30T12:23:45.000Z</time>
      </trkpt>
      <trkpt lat="41.62761" lon="20.28377">
        <ele>781.69000244141</ele>
        <time>2023-09-30T12:23:21.000Z</time>
      </trkpt>
      <trkpt lat="41.62764" lon="20.28388">
        <ele>780.72998046875</ele>
        <time>2023-09-30T12:23:12.000Z</time>
      </trkpt>
      <trkpt lat="41.62759" lon="20.28422">
        <ele>779.28997802734</ele>
        <time>2023-09-30T12:23:03.000Z</time>
      </trkpt>
      <trkpt lat="41.62762" lon="20.28461">
        <ele>777.84002685547</ele>
        <time>2023-09-30T12:22:54.000Z</time>
      </trkpt>
      <trkpt lat="41.62761" lon="20.285">
        <ele>777.84002685547</ele>
        <time>2023-09-30T12:22:45.000Z</time>
      </trkpt>
      <trkpt lat="41.6276" lon="20.28502">
        <ele>777.84002685547</ele>
        <time>2023-09-30T12:22:44.000Z</time>
      </trkpt>
      <trkpt lat="41.62756" lon="20.28517">
        <ele>778.32000732422</ele>
        <time>2023-09-30T12:22:42.000Z</time>
      </trkpt>
      <trkpt lat="41.62752" lon="20.28531">
        <ele>778.32000732422</ele>
        <time>2023-09-30T12:22:41.000Z</time>
      </trkpt>
      <trkpt lat="41.62745" lon="20.28557">
        <ele>778.32000732422</ele>
        <time>2023-09-30T12:22:38.000Z</time>
      </trkpt>
      <trkpt lat="41.62741" lon="20.28568">
        <ele>778.32000732422</ele>
        <time>2023-09-30T12:22:37.000Z</time>
      </trkpt>
      <trkpt lat="41.62738" lon="20.28576">
        <ele>778.80999755859</ele>
        <time>2023-09-30T12:22:36.000Z</time>
      </trkpt>
      <trkpt lat="41.62734" lon="20.28583">
        <ele>778.80999755859</ele>
        <time>2023-09-30T12:22:35.000Z</time>
      </trkpt>
      <trkpt lat="41.62727" lon="20.28593">
        <ele>778.80999755859</ele>
        <time>2023-09-30T12:22:34.000Z</time>
      </trkpt>
      <trkpt lat="41.62721" lon="20.28599">
        <ele>778.80999755859</ele>
        <time>2023-09-30T12:22:33.000Z</time>
      </trkpt>
      <trkpt lat="41.62714" lon="20.28606">
        <ele>778.32000732422</ele>
        <time>2023-09-30T12:22:32.000Z</time>
      </trkpt>
      <trkpt lat="41.62706" lon="20.28613">
        <ele>777.84002685547</ele>
        <time>2023-09-30T12:22:31.000Z</time>
      </trkpt>
      <trkpt lat="41.62697" lon="20.28617">
        <ele>777.84002685547</ele>
        <time>2023-09-30T12:22:30.000Z</time>
      </trkpt>
      <trkpt lat="41.62695" lon="20.28619">
        <ele>777.35998535156</ele>
        <time>2023-09-30T12:22:29.000Z</time>
      </trkpt>
      <trkpt lat="41.62687" lon="20.28622">
        <ele>777.35998535156</ele>
        <time>2023-09-30T12:22:28.000Z</time>
      </trkpt>
      <trkpt lat="41.62667" lon="20.28632">
        <ele>776.40002441406</ele>
        <time>2023-09-30T12:22:27.000Z</time>
      </trkpt>
      <trkpt lat="41.6266" lon="20.28635">
        <ele>775.91998291016</ele>
        <time>2023-09-30T12:22:26.000Z</time>
      </trkpt>
      <trkpt lat="41.62613" lon="20.28649">
        <ele>774.47998046875</ele>
        <time>2023-09-30T12:22:22.000Z</time>
      </trkpt>
      <trkpt lat="41.62566" lon="20.28673">
        <ele>773.52001953125</ele>
        <time>2023-09-30T12:22:17.000Z</time>
      </trkpt>
      <trkpt lat="41.62556" lon="20.28678">
        <ele>773.52001953125</ele>
        <time>2023-09-30T12:22:16.000Z</time>
      </trkpt>
      <trkpt lat="41.62543" lon="20.28685">
        <ele>773.52001953125</ele>
        <time>2023-09-30T12:22:15.000Z</time>
      </trkpt>
      <trkpt lat="41.62531" lon="20.28693">
        <ele>773.03997802734</ele>
        <time>2023-09-30T12:22:14.000Z</time>
      </trkpt>
      <trkpt lat="41.62482" lon="20.28724">
        <ele>772.08001708984</ele>
        <time>2023-09-30T12:22:08.000Z</time>
      </trkpt>
      <trkpt lat="41.62479" lon="20.28726">
        <ele>772.08001708984</ele>
        <time>2023-09-30T12:22:07.000Z</time>
      </trkpt>
      <trkpt lat="41.62468" lon="20.28735">
        <ele>771.59997558594</ele>
        <time>2023-09-30T12:21:27.000Z</time>
      </trkpt>
      <trkpt lat="41.62463" lon="20.28738">
        <ele>771.10998535156</ele>
        <time>2023-09-30T12:21:20.000Z</time>
      </trkpt>
      <trkpt lat="41.62455" lon="20.28743">
        <ele>770.63000488281</ele>
        <time>2023-09-30T12:21:19.000Z</time>
      </trkpt>
      <trkpt lat="41.62449" lon="20.28745">
        <ele>770.63000488281</ele>
        <time>2023-09-30T12:21:18.000Z</time>
      </trkpt>
      <trkpt lat="41.62444" lon="20.28747">
        <ele>770.15002441406</ele>
        <time>2023-09-30T12:21:17.000Z</time>
      </trkpt>
      <trkpt lat="41.62438" lon="20.28748">
        <ele>770.15002441406</ele>
        <time>2023-09-30T12:21:16.000Z</time>
      </trkpt>
      <trkpt lat="41.62429" lon="20.28749">
        <ele>769.66998291016</ele>
        <time>2023-09-30T12:21:15.000Z</time>
      </trkpt>
      <trkpt lat="41.62421" lon="20.28749">
        <ele>769.66998291016</ele>
        <time>2023-09-30T12:21:14.000Z</time>
      </trkpt>
      <trkpt lat="41.62418" lon="20.28749">
        <ele>769.66998291016</ele>
        <time>2023-09-30T12:21:13.000Z</time>
      </trkpt>
      <trkpt lat="41.62412" lon="20.28748">
        <ele>769.19000244141</ele>
        <time>2023-09-30T12:21:12.000Z</time>
      </trkpt>
      <trkpt lat="41.62392" lon="20.28742">
        <ele>768.22998046875</ele>
        <time>2023-09-30T12:21:10.000Z</time>
      </trkpt>
      <trkpt lat="41.62385" lon="20.28741">
        <ele>767.75</ele>
        <time>2023-09-30T12:21:09.000Z</time>
      </trkpt>
      <trkpt lat="41.62378" lon="20.28739">
        <ele>767.75</ele>
        <time>2023-09-30T12:21:08.000Z</time>
      </trkpt>
      <trkpt lat="41.62365" lon="20.28738">
        <ele>766.78997802734</ele>
        <time>2023-09-30T12:21:07.000Z</time>
      </trkpt>
      <trkpt lat="41.62355" lon="20.28738">
        <ele>766.78997802734</ele>
        <time>2023-09-30T12:21:05.000Z</time>
      </trkpt>
      <trkpt lat="41.62341" lon="20.28739">
        <ele>766.30999755859</ele>
        <time>2023-09-30T12:21:04.000Z</time>
      </trkpt>
      <trkpt lat="41.62326" lon="20.2874">
        <ele>766.30999755859</ele>
        <time>2023-09-30T12:21:02.000Z</time>
      </trkpt>
      <trkpt lat="41.62316" lon="20.28742">
        <ele>766.30999755859</ele>
        <time>2023-09-30T12:21:01.000Z</time>
      </trkpt>
      <trkpt lat="41.62309" lon="20.28743">
        <ele>766.30999755859</ele>
        <time>2023-09-30T12:21:00.000Z</time>
      </trkpt>
      <trkpt lat="41.62302" lon="20.28745">
        <ele>766.30999755859</ele>
        <time>2023-09-30T12:20:59.000Z</time>
      </trkpt>
      <trkpt lat="41.62287" lon="20.28751">
        <ele>766.30999755859</ele>
        <time>2023-09-30T12:20:57.000Z</time>
      </trkpt>
      <trkpt lat="41.6228" lon="20.28754">
        <ele>766.78997802734</ele>
        <time>2023-09-30T12:20:56.000Z</time>
      </trkpt>
      <trkpt lat="41.62272" lon="20.28756">
        <ele>767.27001953125</ele>
        <time>2023-09-30T12:20:55.000Z</time>
      </trkpt>
      <trkpt lat="41.62266" lon="20.28758">
        <ele>767.75</ele>
        <time>2023-09-30T12:20:54.000Z</time>
      </trkpt>
      <trkpt lat="41.62262" lon="20.2876">
        <ele>767.75</ele>
        <time>2023-09-30T12:20:53.000Z</time>
      </trkpt>
      <trkpt lat="41.62258" lon="20.28763">
        <ele>768.22998046875</ele>
        <time>2023-09-30T12:20:52.000Z</time>
      </trkpt>
      <trkpt lat="41.62254" lon="20.28767">
        <ele>768.22998046875</ele>
        <time>2023-09-30T12:20:51.000Z</time>
      </trkpt>
      <trkpt lat="41.62251" lon="20.2877">
        <ele>768.22998046875</ele>
        <time>2023-09-30T12:20:50.000Z</time>
      </trkpt>
      <trkpt lat="41.62246" lon="20.28775">
        <ele>769.19000244141</ele>
        <time>2023-09-30T12:20:49.000Z</time>
      </trkpt>
      <trkpt lat="41.62243" lon="20.28779">
        <ele>769.66998291016</ele>
        <time>2023-09-30T12:20:48.000Z</time>
      </trkpt>
      <trkpt lat="41.6224" lon="20.28783">
        <ele>770.63000488281</ele>
        <time>2023-09-30T12:20:47.000Z</time>
      </trkpt>
      <trkpt lat="41.62238" lon="20.28789">
        <ele>771.59997558594</ele>
        <time>2023-09-30T12:20:46.000Z</time>
      </trkpt>
      <trkpt lat="41.62237" lon="20.28795">
        <ele>772.08001708984</ele>
        <time>2023-09-30T12:20:45.000Z</time>
      </trkpt>
      <trkpt lat="41.62237" lon="20.288">
        <ele>772.55999755859</ele>
        <time>2023-09-30T12:20:44.000Z</time>
      </trkpt>
      <trkpt lat="41.62238" lon="20.28806">
        <ele>772.55999755859</ele>
        <time>2023-09-30T12:20:43.000Z</time>
      </trkpt>
      <trkpt lat="41.62242" lon="20.28809">
        <ele>772.55999755859</ele>
        <time>2023-09-30T12:20:42.000Z</time>
      </trkpt>
      <trkpt lat="41.62248" lon="20.28811">
        <ele>772.08001708984</ele>
        <time>2023-09-30T12:20:41.000Z</time>
      </trkpt>
      <trkpt lat="41.62255" lon="20.28811">
        <ele>772.08001708984</ele>
        <time>2023-09-30T12:20:40.000Z</time>
      </trkpt>
      <trkpt lat="41.62262" lon="20.28811">
        <ele>771.59997558594</ele>
        <time>2023-09-30T12:20:39.000Z</time>
      </trkpt>
      <trkpt lat="41.62269" lon="20.28813">
        <ele>771.10998535156</ele>
        <time>2023-09-30T12:20:38.000Z</time>
      </trkpt>
      <trkpt lat="41.62275" lon="20.28817">
        <ele>771.10998535156</ele>
        <time>2023-09-30T12:20:37.000Z</time>
      </trkpt>
      <trkpt lat="41.62276" lon="20.28819">
        <ele>771.59997558594</ele>
        <time>2023-09-30T12:20:36.000Z</time>
      </trkpt>
      <trkpt lat="41.62288" lon="20.2883">
        <ele>771.59997558594</ele>
        <time>2023-09-30T12:20:35.000Z</time>
      </trkpt>
      <trkpt lat="41.62292" lon="20.28835">
        <ele>771.10998535156</ele>
        <time>2023-09-30T12:20:34.000Z</time>
      </trkpt>
      <trkpt lat="41.62305" lon="20.28848">
        <ele>769.66998291016</ele>
        <time>2023-09-30T12:20:33.000Z</time>
      </trkpt>
      <trkpt lat="41.62312" lon="20.28855">
        <ele>769.19000244141</ele>
        <time>2023-09-30T12:20:32.000Z</time>
      </trkpt>
      <trkpt lat="41.62355" lon="20.28909">
        <ele>763.90002441406</ele>
        <time>2023-09-30T12:20:28.000Z</time>
      </trkpt>
      <trkpt lat="41.62372" lon="20.28932">
        <ele>762.94000244141</ele>
        <time>2023-09-30T12:20:25.000Z</time>
      </trkpt>
      <trkpt lat="41.62385" lon="20.28948">
        <ele>762.46002197266</ele>
        <time>2023-09-30T12:20:24.000Z</time>
      </trkpt>
      <trkpt lat="41.62392" lon="20.28954">
        <ele>762.46002197266</ele>
        <time>2023-09-30T12:20:23.000Z</time>
      </trkpt>
      <trkpt lat="41.62399" lon="20.28956">
        <ele>762.94000244141</ele>
        <time>2023-09-30T12:20:22.000Z</time>
      </trkpt>
      <trkpt lat="41.62403" lon="20.28957">
        <ele>762.46002197266</ele>
        <time>2023-09-30T12:20:21.000Z</time>
      </trkpt>
      <trkpt lat="41.62415" lon="20.28958">
        <ele>761.97998046875</ele>
        <time>2023-09-30T12:20:20.000Z</time>
      </trkpt>
      <trkpt lat="41.62428" lon="20.28959">
        <ele>761.5</ele>
        <time>2023-09-30T12:20:19.000Z</time>
      </trkpt>
      <trkpt lat="41.62436" lon="20.28961">
        <ele>761.02001953125</ele>
        <time>2023-09-30T12:20:18.000Z</time>
      </trkpt>
      <trkpt lat="41.6248" lon="20.28976">
        <ele>759.09997558594</ele>
        <time>2023-09-30T12:20:14.000Z</time>
      </trkpt>
      <trkpt lat="41.62493" lon="20.2898">
        <ele>759.09997558594</ele>
        <time>2023-09-30T12:20:13.000Z</time>
      </trkpt>
      <trkpt lat="41.62534" lon="20.28987">
        <ele>758.14001464844</ele>
        <time>2023-09-30T12:20:11.000Z</time>
      </trkpt>
      <trkpt lat="41.62559" lon="20.28991">
        <ele>758.14001464844</ele>
        <time>2023-09-30T12:20:09.000Z</time>
      </trkpt>
      <trkpt lat="41.62573" lon="20.28993">
        <ele>758.14001464844</ele>
        <time>2023-09-30T12:20:08.000Z</time>
      </trkpt>
      <trkpt lat="41.62581" lon="20.28993">
        <ele>758.14001464844</ele>
        <time>2023-09-30T12:20:07.000Z</time>
      </trkpt>
      <trkpt lat="41.62597" lon="20.28992">
        <ele>758.14001464844</ele>
        <time>2023-09-30T12:20:06.000Z</time>
      </trkpt>
      <trkpt lat="41.62606" lon="20.28992">
        <ele>758.14001464844</ele>
        <time>2023-09-30T12:20:05.000Z</time>
      </trkpt>
      <trkpt lat="41.62615" lon="20.28993">
        <ele>758.14001464844</ele>
        <time>2023-09-30T12:20:04.000Z</time>
      </trkpt>
      <trkpt lat="41.62621" lon="20.28996">
        <ele>758.14001464844</ele>
        <time>2023-09-30T12:20:03.000Z</time>
      </trkpt>
      <trkpt lat="41.62627" lon="20.28999">
        <ele>758.14001464844</ele>
        <time>2023-09-30T12:20:02.000Z</time>
      </trkpt>
      <trkpt lat="41.62641" lon="20.29008">
        <ele>758.61999511719</ele>
        <time>2023-09-30T12:20:01.000Z</time>
      </trkpt>
      <trkpt lat="41.62646" lon="20.29011">
        <ele>758.61999511719</ele>
        <time>2023-09-30T12:20:00.000Z</time>
      </trkpt>
      <trkpt lat="41.62652" lon="20.29014">
        <ele>758.61999511719</ele>
        <time>2023-09-30T12:19:59.000Z</time>
      </trkpt>
      <trkpt lat="41.62674" lon="20.29023">
        <ele>759.09997558594</ele>
        <time>2023-09-30T12:19:57.000Z</time>
      </trkpt>
      <trkpt lat="41.62683" lon="20.29027">
        <ele>759.09997558594</ele>
        <time>2023-09-30T12:19:56.000Z</time>
      </trkpt>
      <trkpt lat="41.62692" lon="20.29032">
        <ele>759.58001708984</ele>
        <time>2023-09-30T12:19:55.000Z</time>
      </trkpt>
      <trkpt lat="41.62698" lon="20.29037">
        <ele>759.58001708984</ele>
        <time>2023-09-30T12:19:54.000Z</time>
      </trkpt>
      <trkpt lat="41.62703" lon="20.29044">
        <ele>760.05999755859</ele>
        <time>2023-09-30T12:19:53.000Z</time>
      </trkpt>
      <trkpt lat="41.62706" lon="20.29052">
        <ele>760.05999755859</ele>
        <time>2023-09-30T12:19:52.000Z</time>
      </trkpt>
      <trkpt lat="41.62709" lon="20.29062">
        <ele>760.53997802734</ele>
        <time>2023-09-30T12:19:51.000Z</time>
      </trkpt>
      <trkpt lat="41.62713" lon="20.29076">
        <ele>760.53997802734</ele>
        <time>2023-09-30T12:19:50.000Z</time>
      </trkpt>
      <trkpt lat="41.62716" lon="20.29086">
        <ele>760.53997802734</ele>
        <time>2023-09-30T12:19:49.000Z</time>
      </trkpt>
      <trkpt lat="41.6272" lon="20.29095">
        <ele>761.02001953125</ele>
        <time>2023-09-30T12:19:48.000Z</time>
      </trkpt>
      <trkpt lat="41.62726" lon="20.29107">
        <ele>761.02001953125</ele>
        <time>2023-09-30T12:19:47.000Z</time>
      </trkpt>
      <trkpt lat="41.62731" lon="20.29117">
        <ele>761.5</ele>
        <time>2023-09-30T12:19:46.000Z</time>
      </trkpt>
      <trkpt lat="41.62739" lon="20.29138">
        <ele>761.97998046875</ele>
        <time>2023-09-30T12:19:45.000Z</time>
      </trkpt>
      <trkpt lat="41.62747" lon="20.29164">
        <ele>761.97998046875</ele>
        <time>2023-09-30T12:19:43.000Z</time>
      </trkpt>
      <trkpt lat="41.62749" lon="20.29174">
        <ele>761.97998046875</ele>
        <time>2023-09-30T12:19:42.000Z</time>
      </trkpt>
      <trkpt lat="41.62753" lon="20.29191">
        <ele>762.46002197266</ele>
        <time>2023-09-30T12:19:41.000Z</time>
      </trkpt>
      <trkpt lat="41.62755" lon="20.29202">
        <ele>762.94000244141</ele>
        <time>2023-09-30T12:19:40.000Z</time>
      </trkpt>
      <trkpt lat="41.62755" lon="20.29213">
        <ele>763.90002441406</ele>
        <time>2023-09-30T12:19:39.000Z</time>
      </trkpt>
      <trkpt lat="41.62753" lon="20.29223">
        <ele>763.90002441406</ele>
        <time>2023-09-30T12:19:38.000Z</time>
      </trkpt>
      <trkpt lat="41.62752" lon="20.29225">
        <ele>764.39001464844</ele>
        <time>2023-09-30T12:19:37.000Z</time>
      </trkpt>
      <trkpt lat="41.62747" lon="20.2924">
        <ele>764.39001464844</ele>
        <time>2023-09-30T12:19:36.000Z</time>
      </trkpt>
      <trkpt lat="41.62744" lon="20.2925">
        <ele>764.86999511719</ele>
        <time>2023-09-30T12:19:35.000Z</time>
      </trkpt>
      <trkpt lat="41.6274" lon="20.29264">
        <ele>765.34997558594</ele>
        <time>2023-09-30T12:19:34.000Z</time>
      </trkpt>
      <trkpt lat="41.62737" lon="20.2927">
        <ele>765.83001708984</ele>
        <time>2023-09-30T12:19:33.000Z</time>
      </trkpt>
      <trkpt lat="41.62731" lon="20.29281">
        <ele>765.34997558594</ele>
        <time>2023-09-30T12:19:32.000Z</time>
      </trkpt>
      <trkpt lat="41.62724" lon="20.29293">
        <ele>765.34997558594</ele>
        <time>2023-09-30T12:19:31.000Z</time>
      </trkpt>
      <trkpt lat="41.6272" lon="20.29301">
        <ele>765.34997558594</ele>
        <time>2023-09-30T12:19:30.000Z</time>
      </trkpt>
      <trkpt lat="41.62714" lon="20.29312">
        <ele>765.34997558594</ele>
        <time>2023-09-30T12:19:29.000Z</time>
      </trkpt>
      <trkpt lat="41.62711" lon="20.29318">
        <ele>765.83001708984</ele>
        <time>2023-09-30T12:19:28.000Z</time>
      </trkpt>
      <trkpt lat="41.62703" lon="20.29336">
        <ele>765.83001708984</ele>
        <time>2023-09-30T12:19:27.000Z</time>
      </trkpt>
      <trkpt lat="41.62698" lon="20.2935">
        <ele>766.30999755859</ele>
        <time>2023-09-30T12:19:26.000Z</time>
      </trkpt>
      <trkpt lat="41.62693" lon="20.29364">
        <ele>766.78997802734</ele>
        <time>2023-09-30T12:19:25.000Z</time>
      </trkpt>
      <trkpt lat="41.62691" lon="20.29372">
        <ele>766.78997802734</ele>
        <time>2023-09-30T12:19:24.000Z</time>
      </trkpt>
      <trkpt lat="41.62687" lon="20.29389">
        <ele>766.78997802734</ele>
        <time>2023-09-30T12:19:23.000Z</time>
      </trkpt>
      <trkpt lat="41.62684" lon="20.29403">
        <ele>767.27001953125</ele>
        <time>2023-09-30T12:19:22.000Z</time>
      </trkpt>
      <trkpt lat="41.62682" lon="20.29415">
        <ele>768.22998046875</ele>
        <time>2023-09-30T12:19:21.000Z</time>
      </trkpt>
      <trkpt lat="41.62681" lon="20.29427">
        <ele>768.71002197266</ele>
        <time>2023-09-30T12:19:20.000Z</time>
      </trkpt>
      <trkpt lat="41.62682" lon="20.29436">
        <ele>769.19000244141</ele>
        <time>2023-09-30T12:19:19.000Z</time>
      </trkpt>
      <trkpt lat="41.62684" lon="20.29444">
        <ele>769.66998291016</ele>
        <time>2023-09-30T12:19:18.000Z</time>
      </trkpt>
      <trkpt lat="41.62688" lon="20.29449">
        <ele>770.15002441406</ele>
        <time>2023-09-30T12:19:17.000Z</time>
      </trkpt>
      <trkpt lat="41.62695" lon="20.29452">
        <ele>770.15002441406</ele>
        <time>2023-09-30T12:19:16.000Z</time>
      </trkpt>
      <trkpt lat="41.62702" lon="20.29452">
        <ele>770.15002441406</ele>
        <time>2023-09-30T12:19:15.000Z</time>
      </trkpt>
      <trkpt lat="41.6271" lon="20.29453">
        <ele>770.15002441406</ele>
        <time>2023-09-30T12:19:14.000Z</time>
      </trkpt>
      <trkpt lat="41.6272" lon="20.29455">
        <ele>770.63000488281</ele>
        <time>2023-09-30T12:19:13.000Z</time>
      </trkpt>
      <trkpt lat="41.62728" lon="20.29458">
        <ele>770.63000488281</ele>
        <time>2023-09-30T12:19:12.000Z</time>
      </trkpt>
      <trkpt lat="41.62735" lon="20.29461">
        <ele>771.10998535156</ele>
        <time>2023-09-30T12:19:11.000Z</time>
      </trkpt>
      <trkpt lat="41.62741" lon="20.29466">
        <ele>771.10998535156</ele>
        <time>2023-09-30T12:19:10.000Z</time>
      </trkpt>
      <trkpt lat="41.62746" lon="20.29472">
        <ele>771.59997558594</ele>
        <time>2023-09-30T12:19:09.000Z</time>
      </trkpt>
      <trkpt lat="41.62748" lon="20.29478">
        <ele>771.59997558594</ele>
        <time>2023-09-30T12:19:08.000Z</time>
      </trkpt>
      <trkpt lat="41.62749" lon="20.2949">
        <ele>771.59997558594</ele>
        <time>2023-09-30T12:19:07.000Z</time>
      </trkpt>
      <trkpt lat="41.62749" lon="20.295">
        <ele>771.59997558594</ele>
        <time>2023-09-30T12:19:06.000Z</time>
      </trkpt>
      <trkpt lat="41.62749" lon="20.29512">
        <ele>771.10998535156</ele>
        <time>2023-09-30T12:19:05.000Z</time>
      </trkpt>
      <trkpt lat="41.62747" lon="20.29522">
        <ele>771.59997558594</ele>
        <time>2023-09-30T12:19:04.000Z</time>
      </trkpt>
      <trkpt lat="41.62745" lon="20.29531">
        <ele>771.59997558594</ele>
        <time>2023-09-30T12:19:03.000Z</time>
      </trkpt>
      <trkpt lat="41.62741" lon="20.29543">
        <ele>771.59997558594</ele>
        <time>2023-09-30T12:19:02.000Z</time>
      </trkpt>
      <trkpt lat="41.62736" lon="20.29554">
        <ele>772.08001708984</ele>
        <time>2023-09-30T12:19:01.000Z</time>
      </trkpt>
      <trkpt lat="41.6273" lon="20.29565">
        <ele>772.55999755859</ele>
        <time>2023-09-30T12:19:00.000Z</time>
      </trkpt>
      <trkpt lat="41.62727" lon="20.29573">
        <ele>772.55999755859</ele>
        <time>2023-09-30T12:18:59.000Z</time>
      </trkpt>
      <trkpt lat="41.62724" lon="20.29579">
        <ele>772.55999755859</ele>
        <time>2023-09-30T12:18:58.000Z</time>
      </trkpt>
      <trkpt lat="41.62717" lon="20.29593">
        <ele>773.03997802734</ele>
        <time>2023-09-30T12:18:57.000Z</time>
      </trkpt>
      <trkpt lat="41.62711" lon="20.29606">
        <ele>773.03997802734</ele>
        <time>2023-09-30T12:18:56.000Z</time>
      </trkpt>
      <trkpt lat="41.62708" lon="20.29617">
        <ele>773.52001953125</ele>
        <time>2023-09-30T12:18:55.000Z</time>
      </trkpt>
      <trkpt lat="41.62707" lon="20.29621">
        <ele>773.52001953125</ele>
        <time>2023-09-30T12:18:54.000Z</time>
      </trkpt>
      <trkpt lat="41.62705" lon="20.29632">
        <ele>774.47998046875</ele>
        <time>2023-09-30T12:18:53.000Z</time>
      </trkpt>
      <trkpt lat="41.62702" lon="20.29643">
        <ele>774.47998046875</ele>
        <time>2023-09-30T12:18:52.000Z</time>
      </trkpt>
      <trkpt lat="41.62699" lon="20.29654">
        <ele>775.44000244141</ele>
        <time>2023-09-30T12:18:51.000Z</time>
      </trkpt>
      <trkpt lat="41.62695" lon="20.29666">
        <ele>775.91998291016</ele>
        <time>2023-09-30T12:18:50.000Z</time>
      </trkpt>
      <trkpt lat="41.62693" lon="20.29674">
        <ele>775.91998291016</ele>
        <time>2023-09-30T12:18:49.000Z</time>
      </trkpt>
      <trkpt lat="41.62691" lon="20.29682">
        <ele>776.40002441406</ele>
        <time>2023-09-30T12:18:48.000Z</time>
      </trkpt>
      <trkpt lat="41.6269" lon="20.2969">
        <ele>776.40002441406</ele>
        <time>2023-09-30T12:18:47.000Z</time>
      </trkpt>
      <trkpt lat="41.6269" lon="20.29696">
        <ele>776.40002441406</ele>
        <time>2023-09-30T12:18:46.000Z</time>
      </trkpt>
      <trkpt lat="41.6269" lon="20.29698">
        <ele>776.88000488281</ele>
        <time>2023-09-30T12:18:45.000Z</time>
      </trkpt>
      <trkpt lat="41.62696" lon="20.29708">
        <ele>776.40002441406</ele>
        <time>2023-09-30T12:18:43.000Z</time>
      </trkpt>
      <trkpt lat="41.62699" lon="20.29709">
        <ele>776.40002441406</ele>
        <time>2023-09-30T12:18:42.000Z</time>
      </trkpt>
      <trkpt lat="41.62708" lon="20.29708">
        <ele>775.44000244141</ele>
        <time>2023-09-30T12:18:37.000Z</time>
      </trkpt>
      <trkpt lat="41.62729" lon="20.29702">
        <ele>773.52001953125</ele>
        <time>2023-09-30T12:18:27.000Z</time>
      </trkpt>
      <trkpt lat="41.62732" lon="20.29701">
        <ele>773.52001953125</ele>
        <time>2023-09-30T12:18:26.000Z</time>
      </trkpt>
      <trkpt lat="41.62736" lon="20.29699">
        <ele>773.03997802734</ele>
        <time>2023-09-30T12:18:25.000Z</time>
      </trkpt>
      <trkpt lat="41.6274" lon="20.29698">
        <ele>773.03997802734</ele>
        <time>2023-09-30T12:18:24.000Z</time>
      </trkpt>
      <trkpt lat="41.62746" lon="20.29696">
        <ele>772.55999755859</ele>
        <time>2023-09-30T12:18:23.000Z</time>
      </trkpt>
      <trkpt lat="41.6275" lon="20.29694">
        <ele>772.55999755859</ele>
        <time>2023-09-30T12:18:22.000Z</time>
      </trkpt>
      <trkpt lat="41.62753" lon="20.29693">
        <ele>772.08001708984</ele>
        <time>2023-09-30T12:18:21.000Z</time>
      </trkpt>
      <trkpt lat="41.62757" lon="20.29691">
        <ele>771.59997558594</ele>
        <time>2023-09-30T12:18:20.000Z</time>
      </trkpt>
      <trkpt lat="41.62759" lon="20.2969">
        <ele>771.59997558594</ele>
        <time>2023-09-30T12:18:19.000Z</time>
      </trkpt>
      <trkpt lat="41.62768" lon="20.29686">
        <ele>771.10998535156</ele>
        <time>2023-09-30T12:18:18.000Z</time>
      </trkpt>
      <trkpt lat="41.62772" lon="20.29684">
        <ele>770.63000488281</ele>
        <time>2023-09-30T12:18:17.000Z</time>
      </trkpt>
      <trkpt lat="41.62778" lon="20.2968">
        <ele>770.15002441406</ele>
        <time>2023-09-30T12:18:16.000Z</time>
      </trkpt>
      <trkpt lat="41.62782" lon="20.29679">
        <ele>770.15002441406</ele>
        <time>2023-09-30T12:18:15.000Z</time>
      </trkpt>
      <trkpt lat="41.62787" lon="20.29678">
        <ele>769.66998291016</ele>
        <time>2023-09-30T12:18:14.000Z</time>
      </trkpt>
      <trkpt lat="41.62793" lon="20.29678">
        <ele>769.66998291016</ele>
        <time>2023-09-30T12:18:13.000Z</time>
      </trkpt>
      <trkpt lat="41.62798" lon="20.2968">
        <ele>769.19000244141</ele>
        <time>2023-09-30T12:18:12.000Z</time>
      </trkpt>
      <trkpt lat="41.62802" lon="20.29682">
        <ele>769.19000244141</ele>
        <time>2023-09-30T12:18:11.000Z</time>
      </trkpt>
      <trkpt lat="41.62808" lon="20.29686">
        <ele>768.71002197266</ele>
        <time>2023-09-30T12:18:10.000Z</time>
      </trkpt>
      <trkpt lat="41.62814" lon="20.29687">
        <ele>768.71002197266</ele>
        <time>2023-09-30T12:18:09.000Z</time>
      </trkpt>
      <trkpt lat="41.62821" lon="20.29684">
        <ele>768.22998046875</ele>
        <time>2023-09-30T12:18:08.000Z</time>
      </trkpt>
      <trkpt lat="41.62826" lon="20.29681">
        <ele>768.22998046875</ele>
        <time>2023-09-30T12:18:07.000Z</time>
      </trkpt>
      <trkpt lat="41.6283" lon="20.29677">
        <ele>768.22998046875</ele>
        <time>2023-09-30T12:18:06.000Z</time>
      </trkpt>
      <trkpt lat="41.62843" lon="20.29662">
        <ele>767.27001953125</ele>
        <time>2023-09-30T12:18:05.000Z</time>
      </trkpt>
      <trkpt lat="41.62853" lon="20.29653">
        <ele>766.30999755859</ele>
        <time>2023-09-30T12:18:04.000Z</time>
      </trkpt>
      <trkpt lat="41.62855" lon="20.29651">
        <ele>766.30999755859</ele>
        <time>2023-09-30T12:18:03.000Z</time>
      </trkpt>
      <trkpt lat="41.6287" lon="20.29638">
        <ele>765.34997558594</ele>
        <time>2023-09-30T12:18:02.000Z</time>
      </trkpt>
      <trkpt lat="41.62878" lon="20.29633">
        <ele>764.86999511719</ele>
        <time>2023-09-30T12:18:01.000Z</time>
      </trkpt>
      <trkpt lat="41.62885" lon="20.2963">
        <ele>764.39001464844</ele>
        <time>2023-09-30T12:18:00.000Z</time>
      </trkpt>
      <trkpt lat="41.62892" lon="20.29629">
        <ele>763.90002441406</ele>
        <time>2023-09-30T12:17:59.000Z</time>
      </trkpt>
      <trkpt lat="41.62897" lon="20.29629">
        <ele>763.41998291016</ele>
        <time>2023-09-30T12:17:58.000Z</time>
      </trkpt>
      <trkpt lat="41.62909" lon="20.2963">
        <ele>762.94000244141</ele>
        <time>2023-09-30T12:17:57.000Z</time>
      </trkpt>
      <trkpt lat="41.62917" lon="20.29631">
        <ele>762.46002197266</ele>
        <time>2023-09-30T12:17:56.000Z</time>
      </trkpt>
      <trkpt lat="41.62924" lon="20.29634">
        <ele>762.46002197266</ele>
        <time>2023-09-30T12:17:55.000Z</time>
      </trkpt>
      <trkpt lat="41.62931" lon="20.29638">
        <ele>761.97998046875</ele>
        <time>2023-09-30T12:17:54.000Z</time>
      </trkpt>
      <trkpt lat="41.62937" lon="20.29646">
        <ele>761.5</ele>
        <time>2023-09-30T12:17:53.000Z</time>
      </trkpt>
      <trkpt lat="41.62944" lon="20.29656">
        <ele>761.02001953125</ele>
        <time>2023-09-30T12:17:52.000Z</time>
      </trkpt>
      <trkpt lat="41.62949" lon="20.29666">
        <ele>761.02001953125</ele>
        <time>2023-09-30T12:17:51.000Z</time>
      </trkpt>
      <trkpt lat="41.62957" lon="20.29681">
        <ele>761.02001953125</ele>
        <time>2023-09-30T12:17:50.000Z</time>
      </trkpt>
      <trkpt lat="41.62963" lon="20.29693">
        <ele>760.53997802734</ele>
        <time>2023-09-30T12:17:49.000Z</time>
      </trkpt>
      <trkpt lat="41.62971" lon="20.29705">
        <ele>761.02001953125</ele>
        <time>2023-09-30T12:17:48.000Z</time>
      </trkpt>
      <trkpt lat="41.62984" lon="20.29729">
        <ele>761.5</ele>
        <time>2023-09-30T12:17:46.000Z</time>
      </trkpt>
      <trkpt lat="41.6299" lon="20.29739">
        <ele>761.97998046875</ele>
        <time>2023-09-30T12:17:45.000Z</time>
      </trkpt>
      <trkpt lat="41.62995" lon="20.2975">
        <ele>761.97998046875</ele>
        <time>2023-09-30T12:17:44.000Z</time>
      </trkpt>
      <trkpt lat="41.63002" lon="20.29759">
        <ele>761.97998046875</ele>
        <time>2023-09-30T12:17:43.000Z</time>
      </trkpt>
      <trkpt lat="41.63008" lon="20.29766">
        <ele>761.97998046875</ele>
        <time>2023-09-30T12:17:42.000Z</time>
      </trkpt>
      <trkpt lat="41.63015" lon="20.29772">
        <ele>762.46002197266</ele>
        <time>2023-09-30T12:17:41.000Z</time>
      </trkpt>
      <trkpt lat="41.63021" lon="20.29777">
        <ele>762.46002197266</ele>
        <time>2023-09-30T12:17:40.000Z</time>
      </trkpt>
      <trkpt lat="41.63031" lon="20.29784">
        <ele>762.46002197266</ele>
        <time>2023-09-30T12:17:39.000Z</time>
      </trkpt>
      <trkpt lat="41.6304" lon="20.29791">
        <ele>762.46002197266</ele>
        <time>2023-09-30T12:17:38.000Z</time>
      </trkpt>
      <trkpt lat="41.63041" lon="20.29792">
        <ele>762.46002197266</ele>
        <time>2023-09-30T12:17:37.000Z</time>
      </trkpt>
      <trkpt lat="41.63053" lon="20.29805">
        <ele>762.46002197266</ele>
        <time>2023-09-30T12:17:36.000Z</time>
      </trkpt>
      <trkpt lat="41.63063" lon="20.29815">
        <ele>762.46002197266</ele>
        <time>2023-09-30T12:17:35.000Z</time>
      </trkpt>
      <trkpt lat="41.63069" lon="20.29822">
        <ele>762.94000244141</ele>
        <time>2023-09-30T12:17:34.000Z</time>
      </trkpt>
      <trkpt lat="41.63073" lon="20.2983">
        <ele>763.41998291016</ele>
        <time>2023-09-30T12:17:33.000Z</time>
      </trkpt>
      <trkpt lat="41.63076" lon="20.29836">
        <ele>763.41998291016</ele>
        <time>2023-09-30T12:17:32.000Z</time>
      </trkpt>
      <trkpt lat="41.63077" lon="20.29845">
        <ele>762.94000244141</ele>
        <time>2023-09-30T12:17:31.000Z</time>
      </trkpt>
      <trkpt lat="41.63079" lon="20.29858">
        <ele>762.94000244141</ele>
        <time>2023-09-30T12:17:30.000Z</time>
      </trkpt>
      <trkpt lat="41.63081" lon="20.29868">
        <ele>763.41998291016</ele>
        <time>2023-09-30T12:17:29.000Z</time>
      </trkpt>
      <trkpt lat="41.63086" lon="20.29881">
        <ele>763.41998291016</ele>
        <time>2023-09-30T12:17:28.000Z</time>
      </trkpt>
      <trkpt lat="41.6309" lon="20.29891">
        <ele>763.41998291016</ele>
        <time>2023-09-30T12:17:27.000Z</time>
      </trkpt>
      <trkpt lat="41.63096" lon="20.29902">
        <ele>763.90002441406</ele>
        <time>2023-09-30T12:17:26.000Z</time>
      </trkpt>
      <trkpt lat="41.63102" lon="20.29909">
        <ele>763.90002441406</ele>
        <time>2023-09-30T12:17:25.000Z</time>
      </trkpt>
      <trkpt lat="41.63107" lon="20.29914">
        <ele>763.90002441406</ele>
        <time>2023-09-30T12:17:24.000Z</time>
      </trkpt>
      <trkpt lat="41.63115" lon="20.29922">
        <ele>763.90002441406</ele>
        <time>2023-09-30T12:17:23.000Z</time>
      </trkpt>
      <trkpt lat="41.63123" lon="20.2993">
        <ele>763.41998291016</ele>
        <time>2023-09-30T12:17:22.000Z</time>
      </trkpt>
      <trkpt lat="41.63131" lon="20.29939">
        <ele>763.41998291016</ele>
        <time>2023-09-30T12:17:21.000Z</time>
      </trkpt>
      <trkpt lat="41.63132" lon="20.2994">
        <ele>763.41998291016</ele>
        <time>2023-09-30T12:17:20.000Z</time>
      </trkpt>
      <trkpt lat="41.63142" lon="20.29948">
        <ele>762.94000244141</ele>
        <time>2023-09-30T12:17:19.000Z</time>
      </trkpt>
      <trkpt lat="41.63156" lon="20.29961">
        <ele>762.46002197266</ele>
        <time>2023-09-30T12:17:18.000Z</time>
      </trkpt>
      <trkpt lat="41.63168" lon="20.29971">
        <ele>761.97998046875</ele>
        <time>2023-09-30T12:17:17.000Z</time>
      </trkpt>
      <trkpt lat="41.6318" lon="20.29981">
        <ele>761.5</ele>
        <time>2023-09-30T12:17:16.000Z</time>
      </trkpt>
      <trkpt lat="41.6321" lon="20.30006">
        <ele>760.53997802734</ele>
        <time>2023-09-30T12:17:13.000Z</time>
      </trkpt>
      <trkpt lat="41.6322" lon="20.30013">
        <ele>760.53997802734</ele>
        <time>2023-09-30T12:17:12.000Z</time>
      </trkpt>
      <trkpt lat="41.6323" lon="20.30018">
        <ele>760.53997802734</ele>
        <time>2023-09-30T12:17:11.000Z</time>
      </trkpt>
      <trkpt lat="41.6324" lon="20.3002">
        <ele>760.05999755859</ele>
        <time>2023-09-30T12:17:10.000Z</time>
      </trkpt>
      <trkpt lat="41.6325" lon="20.3002">
        <ele>760.05999755859</ele>
        <time>2023-09-30T12:17:09.000Z</time>
      </trkpt>
      <trkpt lat="41.63258" lon="20.30019">
        <ele>759.58001708984</ele>
        <time>2023-09-30T12:17:08.000Z</time>
      </trkpt>
      <trkpt lat="41.63269" lon="20.30016">
        <ele>759.09997558594</ele>
        <time>2023-09-30T12:17:07.000Z</time>
      </trkpt>
      <trkpt lat="41.63275" lon="20.30014">
        <ele>759.09997558594</ele>
        <time>2023-09-30T12:17:06.000Z</time>
      </trkpt>
      <trkpt lat="41.63284" lon="20.3001">
        <ele>758.61999511719</ele>
        <time>2023-09-30T12:17:05.000Z</time>
      </trkpt>
      <trkpt lat="41.63291" lon="20.3001">
        <ele>758.14001464844</ele>
        <time>2023-09-30T12:17:04.000Z</time>
      </trkpt>
      <trkpt lat="41.63297" lon="20.30012">
        <ele>758.14001464844</ele>
        <time>2023-09-30T12:17:03.000Z</time>
      </trkpt>
      <trkpt lat="41.63302" lon="20.30016">
        <ele>757.65997314453</ele>
        <time>2023-09-30T12:17:02.000Z</time>
      </trkpt>
      <trkpt lat="41.63306" lon="20.30021">
        <ele>757.65997314453</ele>
        <time>2023-09-30T12:17:01.000Z</time>
      </trkpt>
      <trkpt lat="41.63312" lon="20.30029">
        <ele>757.17999267578</ele>
        <time>2023-09-30T12:17:00.000Z</time>
      </trkpt>
      <trkpt lat="41.6332" lon="20.30042">
        <ele>756.69000244141</ele>
        <time>2023-09-30T12:16:59.000Z</time>
      </trkpt>
      <trkpt lat="41.63328" lon="20.30055">
        <ele>756.21002197266</ele>
        <time>2023-09-30T12:16:58.000Z</time>
      </trkpt>
      <trkpt lat="41.63336" lon="20.30067">
        <ele>755.72998046875</ele>
        <time>2023-09-30T12:16:57.000Z</time>
      </trkpt>
      <trkpt lat="41.63344" lon="20.30077">
        <ele>755.25</ele>
        <time>2023-09-30T12:16:56.000Z</time>
      </trkpt>
      <trkpt lat="41.63373" lon="20.30101">
        <ele>754.28997802734</ele>
        <time>2023-09-30T12:16:53.000Z</time>
      </trkpt>
      <trkpt lat="41.63378" lon="20.30106">
        <ele>753.80999755859</ele>
        <time>2023-09-30T12:16:52.000Z</time>
      </trkpt>
      <trkpt lat="41.634" lon="20.30126">
        <ele>752.84997558594</ele>
        <time>2023-09-30T12:16:50.000Z</time>
      </trkpt>
      <trkpt lat="41.63405" lon="20.30133">
        <ele>752.84997558594</ele>
        <time>2023-09-30T12:16:49.000Z</time>
      </trkpt>
      <trkpt lat="41.63409" lon="20.30142">
        <ele>752.36999511719</ele>
        <time>2023-09-30T12:16:48.000Z</time>
      </trkpt>
      <trkpt lat="41.63411" lon="20.30152">
        <ele>751.89001464844</ele>
        <time>2023-09-30T12:16:47.000Z</time>
      </trkpt>
      <trkpt lat="41.63412" lon="20.3016">
        <ele>751.89001464844</ele>
        <time>2023-09-30T12:16:46.000Z</time>
      </trkpt>
      <trkpt lat="41.63413" lon="20.30174">
        <ele>750.92999267578</ele>
        <time>2023-09-30T12:16:45.000Z</time>
      </trkpt>
      <trkpt lat="41.63415" lon="20.30185">
        <ele>751.40997314453</ele>
        <time>2023-09-30T12:16:44.000Z</time>
      </trkpt>
      <trkpt lat="41.63418" lon="20.30191">
        <ele>750.92999267578</ele>
        <time>2023-09-30T12:16:43.000Z</time>
      </trkpt>
      <trkpt lat="41.63423" lon="20.30197">
        <ele>750.92999267578</ele>
        <time>2023-09-30T12:16:42.000Z</time>
      </trkpt>
      <trkpt lat="41.6343" lon="20.302">
        <ele>750.92999267578</ele>
        <time>2023-09-30T12:16:41.000Z</time>
      </trkpt>
      <trkpt lat="41.63433" lon="20.30202">
        <ele>750.45001220703</ele>
        <time>2023-09-30T12:16:40.000Z</time>
      </trkpt>
      <trkpt lat="41.63448" lon="20.30206">
        <ele>749.96997070312</ele>
        <time>2023-09-30T12:16:39.000Z</time>
      </trkpt>
      <trkpt lat="41.63456" lon="20.30212">
        <ele>749.48999023438</ele>
        <time>2023-09-30T12:16:38.000Z</time>
      </trkpt>
      <trkpt lat="41.63462" lon="20.30218">
        <ele>749.48999023438</ele>
        <time>2023-09-30T12:16:37.000Z</time>
      </trkpt>
      <trkpt lat="41.63468" lon="20.30227">
        <ele>749</ele>
        <time>2023-09-30T12:16:36.000Z</time>
      </trkpt>
      <trkpt lat="41.63471" lon="20.30238">
        <ele>748.03997802734</ele>
        <time>2023-09-30T12:16:35.000Z</time>
      </trkpt>
      <trkpt lat="41.63474" lon="20.30251">
        <ele>747.55999755859</ele>
        <time>2023-09-30T12:16:34.000Z</time>
      </trkpt>
      <trkpt lat="41.63474" lon="20.30259">
        <ele>747.55999755859</ele>
        <time>2023-09-30T12:16:33.000Z</time>
      </trkpt>
      <trkpt lat="41.63476" lon="20.30276">
        <ele>747.08001708984</ele>
        <time>2023-09-30T12:16:32.000Z</time>
      </trkpt>
      <trkpt lat="41.63477" lon="20.30285">
        <ele>746.59997558594</ele>
        <time>2023-09-30T12:16:31.000Z</time>
      </trkpt>
      <trkpt lat="41.63481" lon="20.30296">
        <ele>746.59997558594</ele>
        <time>2023-09-30T12:16:30.000Z</time>
      </trkpt>
      <trkpt lat="41.63484" lon="20.30306">
        <ele>746.59997558594</ele>
        <time>2023-09-30T12:16:29.000Z</time>
      </trkpt>
      <trkpt lat="41.63484" lon="20.30315">
        <ele>746.11999511719</ele>
        <time>2023-09-30T12:16:28.000Z</time>
      </trkpt>
      <trkpt lat="41.63482" lon="20.30325">
        <ele>745.64001464844</ele>
        <time>2023-09-30T12:16:27.000Z</time>
      </trkpt>
      <trkpt lat="41.63479" lon="20.30332">
        <ele>745.15997314453</ele>
        <time>2023-09-30T12:16:26.000Z</time>
      </trkpt>
      <trkpt lat="41.63473" lon="20.30342">
        <ele>744.67999267578</ele>
        <time>2023-09-30T12:16:25.000Z</time>
      </trkpt>
      <trkpt lat="41.63467" lon="20.30351">
        <ele>744.67999267578</ele>
        <time>2023-09-30T12:16:24.000Z</time>
      </trkpt>
      <trkpt lat="41.63462" lon="20.3036">
        <ele>744.67999267578</ele>
        <time>2023-09-30T12:16:23.000Z</time>
      </trkpt>
      <trkpt lat="41.63458" lon="20.30368">
        <ele>745.64001464844</ele>
        <time>2023-09-30T12:16:22.000Z</time>
      </trkpt>
      <trkpt lat="41.63457" lon="20.30377">
        <ele>745.64001464844</ele>
        <time>2023-09-30T12:16:21.000Z</time>
      </trkpt>
      <trkpt lat="41.63458" lon="20.30383">
        <ele>745.64001464844</ele>
        <time>2023-09-30T12:16:20.000Z</time>
      </trkpt>
      <trkpt lat="41.63461" lon="20.30391">
        <ele>745.64001464844</ele>
        <time>2023-09-30T12:16:19.000Z</time>
      </trkpt>
      <trkpt lat="41.63465" lon="20.30395">
        <ele>745.64001464844</ele>
        <time>2023-09-30T12:16:18.000Z</time>
      </trkpt>
      <trkpt lat="41.63475" lon="20.30406">
        <ele>745.64001464844</ele>
        <time>2023-09-30T12:16:17.000Z</time>
      </trkpt>
      <trkpt lat="41.6348" lon="20.30413">
        <ele>745.64001464844</ele>
        <time>2023-09-30T12:16:16.000Z</time>
      </trkpt>
      <trkpt lat="41.63485" lon="20.30421">
        <ele>745.64001464844</ele>
        <time>2023-09-30T12:16:15.000Z</time>
      </trkpt>
      <trkpt lat="41.63487" lon="20.30427">
        <ele>745.64001464844</ele>
        <time>2023-09-30T12:16:14.000Z</time>
      </trkpt>
      <trkpt lat="41.63489" lon="20.30439">
        <ele>745.64001464844</ele>
        <time>2023-09-30T12:16:13.000Z</time>
      </trkpt>
      <trkpt lat="41.63489" lon="20.30449">
        <ele>745.64001464844</ele>
        <time>2023-09-30T12:16:12.000Z</time>
      </trkpt>
      <trkpt lat="41.63488" lon="20.30461">
        <ele>745.64001464844</ele>
        <time>2023-09-30T12:16:11.000Z</time>
      </trkpt>
      <trkpt lat="41.63487" lon="20.30475">
        <ele>745.64001464844</ele>
        <time>2023-09-30T12:16:10.000Z</time>
      </trkpt>
      <trkpt lat="41.63487" lon="20.30506">
        <ele>745.64001464844</ele>
        <time>2023-09-30T12:16:08.000Z</time>
      </trkpt>
      <trkpt lat="41.63489" lon="20.30518">
        <ele>745.64001464844</ele>
        <time>2023-09-30T12:16:07.000Z</time>
      </trkpt>
      <trkpt lat="41.63491" lon="20.3053">
        <ele>745.64001464844</ele>
        <time>2023-09-30T12:16:06.000Z</time>
      </trkpt>
      <trkpt lat="41.63497" lon="20.30553">
        <ele>745.64001464844</ele>
        <time>2023-09-30T12:16:04.000Z</time>
      </trkpt>
      <trkpt lat="41.63501" lon="20.30568">
        <ele>745.64001464844</ele>
        <time>2023-09-30T12:16:03.000Z</time>
      </trkpt>
      <trkpt lat="41.63505" lon="20.30591">
        <ele>746.11999511719</ele>
        <time>2023-09-30T12:16:01.000Z</time>
      </trkpt>
      <trkpt lat="41.63506" lon="20.30601">
        <ele>746.11999511719</ele>
        <time>2023-09-30T12:16:00.000Z</time>
      </trkpt>
      <trkpt lat="41.63505" lon="20.3061">
        <ele>746.59997558594</ele>
        <time>2023-09-30T12:15:59.000Z</time>
      </trkpt>
      <trkpt lat="41.63503" lon="20.30615">
        <ele>747.08001708984</ele>
        <time>2023-09-30T12:15:58.000Z</time>
      </trkpt>
      <trkpt lat="41.63502" lon="20.30622">
        <ele>747.08001708984</ele>
        <time>2023-09-30T12:15:57.000Z</time>
      </trkpt>
      <trkpt lat="41.63501" lon="20.30628">
        <ele>747.08001708984</ele>
        <time>2023-09-30T12:15:56.000Z</time>
      </trkpt>
      <trkpt lat="41.63501" lon="20.30633">
        <ele>747.08001708984</ele>
        <time>2023-09-30T12:15:55.000Z</time>
      </trkpt>
      <trkpt lat="41.63501" lon="20.30639">
        <ele>747.08001708984</ele>
        <time>2023-09-30T12:15:54.000Z</time>
      </trkpt>
      <trkpt lat="41.63503" lon="20.30645">
        <ele>746.11999511719</ele>
        <time>2023-09-30T12:15:53.000Z</time>
      </trkpt>
      <trkpt lat="41.63508" lon="20.3065">
        <ele>745.64001464844</ele>
        <time>2023-09-30T12:15:52.000Z</time>
      </trkpt>
      <trkpt lat="41.63513" lon="20.30653">
        <ele>745.64001464844</ele>
        <time>2023-09-30T12:15:51.000Z</time>
      </trkpt>
      <trkpt lat="41.6352" lon="20.30653">
        <ele>745.64001464844</ele>
        <time>2023-09-30T12:15:50.000Z</time>
      </trkpt>
      <trkpt lat="41.63526" lon="20.30651">
        <ele>745.64001464844</ele>
        <time>2023-09-30T12:15:49.000Z</time>
      </trkpt>
      <trkpt lat="41.63534" lon="20.30647">
        <ele>746.11999511719</ele>
        <time>2023-09-30T12:15:48.000Z</time>
      </trkpt>
      <trkpt lat="41.63542" lon="20.3064">
        <ele>746.11999511719</ele>
        <time>2023-09-30T12:15:47.000Z</time>
      </trkpt>
      <trkpt lat="41.63549" lon="20.30633">
        <ele>745.64001464844</ele>
        <time>2023-09-30T12:15:46.000Z</time>
      </trkpt>
      <trkpt lat="41.63557" lon="20.30623">
        <ele>745.15997314453</ele>
        <time>2023-09-30T12:15:45.000Z</time>
      </trkpt>
      <trkpt lat="41.63567" lon="20.30609">
        <ele>745.15997314453</ele>
        <time>2023-09-30T12:15:43.000Z</time>
      </trkpt>
      <trkpt lat="41.63576" lon="20.30596">
        <ele>745.15997314453</ele>
        <time>2023-09-30T12:15:42.000Z</time>
      </trkpt>
      <trkpt lat="41.6358" lon="20.3059">
        <ele>745.15997314453</ele>
        <time>2023-09-30T12:15:41.000Z</time>
      </trkpt>
      <trkpt lat="41.63585" lon="20.30588">
        <ele>745.15997314453</ele>
        <time>2023-09-30T12:15:40.000Z</time>
      </trkpt>
      <trkpt lat="41.6359" lon="20.30588">
        <ele>745.15997314453</ele>
        <time>2023-09-30T12:15:39.000Z</time>
      </trkpt>
      <trkpt lat="41.63596" lon="20.30591">
        <ele>745.64001464844</ele>
        <time>2023-09-30T12:15:38.000Z</time>
      </trkpt>
      <trkpt lat="41.63601" lon="20.30595">
        <ele>745.64001464844</ele>
        <time>2023-09-30T12:15:37.000Z</time>
      </trkpt>
      <trkpt lat="41.63609" lon="20.30604">
        <ele>745.64001464844</ele>
        <time>2023-09-30T12:15:36.000Z</time>
      </trkpt>
      <trkpt lat="41.63614" lon="20.30609">
        <ele>746.11999511719</ele>
        <time>2023-09-30T12:15:35.000Z</time>
      </trkpt>
      <trkpt lat="41.63631" lon="20.30626">
        <ele>747.08001708984</ele>
        <time>2023-09-30T12:15:33.000Z</time>
      </trkpt>
      <trkpt lat="41.63663" lon="20.3066">
        <ele>749</ele>
        <time>2023-09-30T12:15:30.000Z</time>
      </trkpt>
      <trkpt lat="41.63671" lon="20.30667">
        <ele>749.96997070312</ele>
        <time>2023-09-30T12:15:29.000Z</time>
      </trkpt>
      <trkpt lat="41.63674" lon="20.30669">
        <ele>749.96997070312</ele>
        <time>2023-09-30T12:15:28.000Z</time>
      </trkpt>
      <trkpt lat="41.63687" lon="20.30678">
        <ele>750.45001220703</ele>
        <time>2023-09-30T12:15:27.000Z</time>
      </trkpt>
      <trkpt lat="41.63695" lon="20.30682">
        <ele>750.45001220703</ele>
        <time>2023-09-30T12:15:26.000Z</time>
      </trkpt>
      <trkpt lat="41.63703" lon="20.30688">
        <ele>750.92999267578</ele>
        <time>2023-09-30T12:15:25.000Z</time>
      </trkpt>
      <trkpt lat="41.63709" lon="20.30694">
        <ele>751.40997314453</ele>
        <time>2023-09-30T12:15:24.000Z</time>
      </trkpt>
      <trkpt lat="41.63712" lon="20.30701">
        <ele>751.89001464844</ele>
        <time>2023-09-30T12:15:23.000Z</time>
      </trkpt>
      <trkpt lat="41.63714" lon="20.30711">
        <ele>751.89001464844</ele>
        <time>2023-09-30T12:15:22.000Z</time>
      </trkpt>
      <trkpt lat="41.63714" lon="20.30719">
        <ele>751.89001464844</ele>
        <time>2023-09-30T12:15:21.000Z</time>
      </trkpt>
      <trkpt lat="41.63714" lon="20.3073">
        <ele>752.36999511719</ele>
        <time>2023-09-30T12:15:20.000Z</time>
      </trkpt>
      <trkpt lat="41.63714" lon="20.30748">
        <ele>753.33001708984</ele>
        <time>2023-09-30T12:15:19.000Z</time>
      </trkpt>
      <trkpt lat="41.63713" lon="20.30759">
        <ele>753.80999755859</ele>
        <time>2023-09-30T12:15:18.000Z</time>
      </trkpt>
      <trkpt lat="41.63714" lon="20.30771">
        <ele>753.80999755859</ele>
        <time>2023-09-30T12:15:17.000Z</time>
      </trkpt>
      <trkpt lat="41.63715" lon="20.30776">
        <ele>754.28997802734</ele>
        <time>2023-09-30T12:15:16.000Z</time>
      </trkpt>
      <trkpt lat="41.63718" lon="20.30786">
        <ele>754.77001953125</ele>
        <time>2023-09-30T12:15:15.000Z</time>
      </trkpt>
      <trkpt lat="41.63723" lon="20.3081">
        <ele>755.72998046875</ele>
        <time>2023-09-30T12:15:14.000Z</time>
      </trkpt>
      <trkpt lat="41.63724" lon="20.30819">
        <ele>756.21002197266</ele>
        <time>2023-09-30T12:15:13.000Z</time>
      </trkpt>
      <trkpt lat="41.63725" lon="20.30836">
        <ele>756.21002197266</ele>
        <time>2023-09-30T12:15:12.000Z</time>
      </trkpt>
      <trkpt lat="41.63726" lon="20.30841">
        <ele>756.69000244141</ele>
        <time>2023-09-30T12:15:11.000Z</time>
      </trkpt>
      <trkpt lat="41.63729" lon="20.30867">
        <ele>757.65997314453</ele>
        <time>2023-09-30T12:15:10.000Z</time>
      </trkpt>
      <trkpt lat="41.63729" lon="20.30873">
        <ele>757.65997314453</ele>
        <time>2023-09-30T12:15:09.000Z</time>
      </trkpt>
      <trkpt lat="41.63729" lon="20.30893">
        <ele>758.14001464844</ele>
        <time>2023-09-30T12:15:08.000Z</time>
      </trkpt>
      <trkpt lat="41.6373" lon="20.30904">
        <ele>759.09997558594</ele>
        <time>2023-09-30T12:15:07.000Z</time>
      </trkpt>
      <trkpt lat="41.63733" lon="20.30914">
        <ele>760.05999755859</ele>
        <time>2023-09-30T12:15:06.000Z</time>
      </trkpt>
      <trkpt lat="41.63736" lon="20.30921">
        <ele>760.05999755859</ele>
        <time>2023-09-30T12:15:05.000Z</time>
      </trkpt>
      <trkpt lat="41.63742" lon="20.30926">
        <ele>760.53997802734</ele>
        <time>2023-09-30T12:15:04.000Z</time>
      </trkpt>
      <trkpt lat="41.63746" lon="20.30928">
        <ele>760.53997802734</ele>
        <time>2023-09-30T12:15:03.000Z</time>
      </trkpt>
      <trkpt lat="41.63751" lon="20.30927">
        <ele>760.53997802734</ele>
        <time>2023-09-30T12:15:02.000Z</time>
      </trkpt>
      <trkpt lat="41.63756" lon="20.30923">
        <ele>760.53997802734</ele>
        <time>2023-09-30T12:15:01.000Z</time>
      </trkpt>
      <trkpt lat="41.63759" lon="20.30918">
        <ele>760.53997802734</ele>
        <time>2023-09-30T12:15:00.000Z</time>
      </trkpt>
      <trkpt lat="41.63764" lon="20.30907">
        <ele>761.02001953125</ele>
        <time>2023-09-30T12:14:59.000Z</time>
      </trkpt>
      <trkpt lat="41.63765" lon="20.30904">
        <ele>760.53997802734</ele>
        <time>2023-09-30T12:14:58.000Z</time>
      </trkpt>
      <trkpt lat="41.63773" lon="20.30888">
        <ele>759.58001708984</ele>
        <time>2023-09-30T12:14:57.000Z</time>
      </trkpt>
      <trkpt lat="41.63776" lon="20.30878">
        <ele>759.09997558594</ele>
        <time>2023-09-30T12:14:56.000Z</time>
      </trkpt>
      <trkpt lat="41.63777" lon="20.30873">
        <ele>758.61999511719</ele>
        <time>2023-09-30T12:14:55.000Z</time>
      </trkpt>
      <trkpt lat="41.6378" lon="20.30855">
        <ele>757.17999267578</ele>
        <time>2023-09-30T12:14:54.000Z</time>
      </trkpt>
      <trkpt lat="41.63782" lon="20.30844">
        <ele>756.21002197266</ele>
        <time>2023-09-30T12:14:53.000Z</time>
      </trkpt>
      <trkpt lat="41.63786" lon="20.30833">
        <ele>755.72998046875</ele>
        <time>2023-09-30T12:14:52.000Z</time>
      </trkpt>
      <trkpt lat="41.63789" lon="20.30826">
        <ele>756.21002197266</ele>
        <time>2023-09-30T12:14:51.000Z</time>
      </trkpt>
      <trkpt lat="41.63793" lon="20.30819">
        <ele>756.21002197266</ele>
        <time>2023-09-30T12:14:50.000Z</time>
      </trkpt>
      <trkpt lat="41.63799" lon="20.30811">
        <ele>756.69000244141</ele>
        <time>2023-09-30T12:14:49.000Z</time>
      </trkpt>
      <trkpt lat="41.63801" lon="20.30805">
        <ele>756.69000244141</ele>
        <time>2023-09-30T12:14:48.000Z</time>
      </trkpt>
      <trkpt lat="41.63803" lon="20.30799">
        <ele>756.69000244141</ele>
        <time>2023-09-30T12:14:47.000Z</time>
      </trkpt>
      <trkpt lat="41.63803" lon="20.30794">
        <ele>756.21002197266</ele>
        <time>2023-09-30T12:14:46.000Z</time>
      </trkpt>
      <trkpt lat="41.63803" lon="20.30788">
        <ele>755.72998046875</ele>
        <time>2023-09-30T12:14:45.000Z</time>
      </trkpt>
      <trkpt lat="41.63802" lon="20.30783">
        <ele>755.72998046875</ele>
        <time>2023-09-30T12:14:44.000Z</time>
      </trkpt>
      <trkpt lat="41.63801" lon="20.30777">
        <ele>755.25</ele>
        <time>2023-09-30T12:14:43.000Z</time>
      </trkpt>
      <trkpt lat="41.638" lon="20.30771">
        <ele>755.25</ele>
        <time>2023-09-30T12:14:42.000Z</time>
      </trkpt>
      <trkpt lat="41.63799" lon="20.30763">
        <ele>754.28997802734</ele>
        <time>2023-09-30T12:14:41.000Z</time>
      </trkpt>
      <trkpt lat="41.63797" lon="20.30756">
        <ele>753.80999755859</ele>
        <time>2023-09-30T12:14:40.000Z</time>
      </trkpt>
      <trkpt lat="41.63794" lon="20.30748">
        <ele>753.80999755859</ele>
        <time>2023-09-30T12:14:39.000Z</time>
      </trkpt>
      <trkpt lat="41.63792" lon="20.30739">
        <ele>753.33001708984</ele>
        <time>2023-09-30T12:14:38.000Z</time>
      </trkpt>
      <trkpt lat="41.63791" lon="20.3073">
        <ele>752.84997558594</ele>
        <time>2023-09-30T12:14:37.000Z</time>
      </trkpt>
      <trkpt lat="41.63791" lon="20.30719">
        <ele>752.84997558594</ele>
        <time>2023-09-30T12:14:36.000Z</time>
      </trkpt>
      <trkpt lat="41.63793" lon="20.30708">
        <ele>752.36999511719</ele>
        <time>2023-09-30T12:14:35.000Z</time>
      </trkpt>
      <trkpt lat="41.63796" lon="20.30699">
        <ele>752.36999511719</ele>
        <time>2023-09-30T12:14:34.000Z</time>
      </trkpt>
      <trkpt lat="41.63799" lon="20.30692">
        <ele>751.89001464844</ele>
        <time>2023-09-30T12:14:33.000Z</time>
      </trkpt>
      <trkpt lat="41.63804" lon="20.30688">
        <ele>751.89001464844</ele>
        <time>2023-09-30T12:14:32.000Z</time>
      </trkpt>
      <trkpt lat="41.63812" lon="20.30683">
        <ele>751.89001464844</ele>
        <time>2023-09-30T12:14:31.000Z</time>
      </trkpt>
      <trkpt lat="41.63818" lon="20.30677">
        <ele>751.89001464844</ele>
        <time>2023-09-30T12:14:30.000Z</time>
      </trkpt>
      <trkpt lat="41.63823" lon="20.30669">
        <ele>751.89001464844</ele>
        <time>2023-09-30T12:14:29.000Z</time>
      </trkpt>
      <trkpt lat="41.63826" lon="20.30659">
        <ele>751.89001464844</ele>
        <time>2023-09-30T12:14:28.000Z</time>
      </trkpt>
      <trkpt lat="41.63829" lon="20.30649">
        <ele>751.89001464844</ele>
        <time>2023-09-30T12:14:27.000Z</time>
      </trkpt>
      <trkpt lat="41.63831" lon="20.30639">
        <ele>752.36999511719</ele>
        <time>2023-09-30T12:14:26.000Z</time>
      </trkpt>
      <trkpt lat="41.63832" lon="20.30628">
        <ele>752.36999511719</ele>
        <time>2023-09-30T12:14:25.000Z</time>
      </trkpt>
      <trkpt lat="41.63834" lon="20.30619">
        <ele>752.84997558594</ele>
        <time>2023-09-30T12:14:24.000Z</time>
      </trkpt>
      <trkpt lat="41.63838" lon="20.30612">
        <ele>752.84997558594</ele>
        <time>2023-09-30T12:14:23.000Z</time>
      </trkpt>
      <trkpt lat="41.63843" lon="20.30606">
        <ele>753.33001708984</ele>
        <time>2023-09-30T12:14:22.000Z</time>
      </trkpt>
      <trkpt lat="41.63849" lon="20.30602">
        <ele>753.33001708984</ele>
        <time>2023-09-30T12:14:21.000Z</time>
      </trkpt>
      <trkpt lat="41.63856" lon="20.306">
        <ele>754.28997802734</ele>
        <time>2023-09-30T12:14:20.000Z</time>
      </trkpt>
      <trkpt lat="41.63863" lon="20.306">
        <ele>754.77001953125</ele>
        <time>2023-09-30T12:14:19.000Z</time>
      </trkpt>
      <trkpt lat="41.63869" lon="20.30598">
        <ele>755.25</ele>
        <time>2023-09-30T12:14:18.000Z</time>
      </trkpt>
      <trkpt lat="41.63874" lon="20.30593">
        <ele>755.72998046875</ele>
        <time>2023-09-30T12:14:17.000Z</time>
      </trkpt>
      <trkpt lat="41.63878" lon="20.30584">
        <ele>756.21002197266</ele>
        <time>2023-09-30T12:14:16.000Z</time>
      </trkpt>
      <trkpt lat="41.63881" lon="20.30574">
        <ele>756.69000244141</ele>
        <time>2023-09-30T12:14:15.000Z</time>
      </trkpt>
      <trkpt lat="41.63885" lon="20.3056">
        <ele>757.65997314453</ele>
        <time>2023-09-30T12:14:14.000Z</time>
      </trkpt>
      <trkpt lat="41.63886" lon="20.3055">
        <ele>758.14001464844</ele>
        <time>2023-09-30T12:14:13.000Z</time>
      </trkpt>
      <trkpt lat="41.63886" lon="20.30546">
        <ele>758.14001464844</ele>
        <time>2023-09-30T12:14:12.000Z</time>
      </trkpt>
      <trkpt lat="41.63887" lon="20.30503">
        <ele>760.05999755859</ele>
        <time>2023-09-30T12:14:10.000Z</time>
      </trkpt>
      <trkpt lat="41.63887" lon="20.30489">
        <ele>760.53997802734</ele>
        <time>2023-09-30T12:14:09.000Z</time>
      </trkpt>
      <trkpt lat="41.63886" lon="20.30461">
        <ele>761.5</ele>
        <time>2023-09-30T12:14:07.000Z</time>
      </trkpt>
      <trkpt lat="41.63887" lon="20.3045">
        <ele>762.46002197266</ele>
        <time>2023-09-30T12:14:06.000Z</time>
      </trkpt>
      <trkpt lat="41.63888" lon="20.30443">
        <ele>762.94000244141</ele>
        <time>2023-09-30T12:14:05.000Z</time>
      </trkpt>
      <trkpt lat="41.63889" lon="20.30436">
        <ele>763.41998291016</ele>
        <time>2023-09-30T12:14:04.000Z</time>
      </trkpt>
      <trkpt lat="41.63892" lon="20.30431">
        <ele>763.90002441406</ele>
        <time>2023-09-30T12:14:03.000Z</time>
      </trkpt>
      <trkpt lat="41.63896" lon="20.30429">
        <ele>763.90002441406</ele>
        <time>2023-09-30T12:14:02.000Z</time>
      </trkpt>
      <trkpt lat="41.63901" lon="20.3043">
        <ele>764.39001464844</ele>
        <time>2023-09-30T12:14:01.000Z</time>
      </trkpt>
      <trkpt lat="41.63907" lon="20.30433">
        <ele>764.39001464844</ele>
        <time>2023-09-30T12:14:00.000Z</time>
      </trkpt>
      <trkpt lat="41.63913" lon="20.30438">
        <ele>764.86999511719</ele>
        <time>2023-09-30T12:13:59.000Z</time>
      </trkpt>
      <trkpt lat="41.63917" lon="20.30443">
        <ele>765.34997558594</ele>
        <time>2023-09-30T12:13:58.000Z</time>
      </trkpt>
      <trkpt lat="41.63922" lon="20.30449">
        <ele>765.83001708984</ele>
        <time>2023-09-30T12:13:57.000Z</time>
      </trkpt>
      <trkpt lat="41.6393" lon="20.30459">
        <ele>766.30999755859</ele>
        <time>2023-09-30T12:13:56.000Z</time>
      </trkpt>
      <trkpt lat="41.63936" lon="20.30464">
        <ele>766.78997802734</ele>
        <time>2023-09-30T12:13:55.000Z</time>
      </trkpt>
      <trkpt lat="41.63942" lon="20.30467">
        <ele>767.27001953125</ele>
        <time>2023-09-30T12:13:54.000Z</time>
      </trkpt>
      <trkpt lat="41.63949" lon="20.3047">
        <ele>768.22998046875</ele>
        <time>2023-09-30T12:13:53.000Z</time>
      </trkpt>
      <trkpt lat="41.63966" lon="20.30477">
        <ele>769.19000244141</ele>
        <time>2023-09-30T12:13:51.000Z</time>
      </trkpt>
      <trkpt lat="41.63971" lon="20.3048">
        <ele>769.66998291016</ele>
        <time>2023-09-30T12:13:50.000Z</time>
      </trkpt>
      <trkpt lat="41.63982" lon="20.30485">
        <ele>770.63000488281</ele>
        <time>2023-09-30T12:13:49.000Z</time>
      </trkpt>
      <trkpt lat="41.63992" lon="20.3049">
        <ele>771.10998535156</ele>
        <time>2023-09-30T12:13:48.000Z</time>
      </trkpt>
      <trkpt lat="41.64021" lon="20.30503">
        <ele>772.55999755859</ele>
        <time>2023-09-30T12:13:45.000Z</time>
      </trkpt>
      <trkpt lat="41.64029" lon="20.30508">
        <ele>773.03997802734</ele>
        <time>2023-09-30T12:13:44.000Z</time>
      </trkpt>
      <trkpt lat="41.64034" lon="20.30512">
        <ele>773.52001953125</ele>
        <time>2023-09-30T12:13:43.000Z</time>
      </trkpt>
      <trkpt lat="41.64043" lon="20.30522">
        <ele>774</ele>
        <time>2023-09-30T12:13:42.000Z</time>
      </trkpt>
      <trkpt lat="41.64051" lon="20.30527">
        <ele>774.96002197266</ele>
        <time>2023-09-30T12:13:41.000Z</time>
      </trkpt>
      <trkpt lat="41.6406" lon="20.30529">
        <ele>775.44000244141</ele>
        <time>2023-09-30T12:13:40.000Z</time>
      </trkpt>
      <trkpt lat="41.64068" lon="20.30529">
        <ele>775.91998291016</ele>
        <time>2023-09-30T12:13:39.000Z</time>
      </trkpt>
      <trkpt lat="41.64077" lon="20.30527">
        <ele>776.88000488281</ele>
        <time>2023-09-30T12:13:38.000Z</time>
      </trkpt>
      <trkpt lat="41.64088" lon="20.30525">
        <ele>777.35998535156</ele>
        <time>2023-09-30T12:13:37.000Z</time>
      </trkpt>
      <trkpt lat="41.64099" lon="20.30521">
        <ele>778.32000732422</ele>
        <time>2023-09-30T12:13:36.000Z</time>
      </trkpt>
      <trkpt lat="41.64109" lon="20.30517">
        <ele>778.80999755859</ele>
        <time>2023-09-30T12:13:35.000Z</time>
      </trkpt>
      <trkpt lat="41.64115" lon="20.30516">
        <ele>779.28997802734</ele>
        <time>2023-09-30T12:13:34.000Z</time>
      </trkpt>
      <trkpt lat="41.64131" lon="20.30515">
        <ele>779.77001953125</ele>
        <time>2023-09-30T12:13:33.000Z</time>
      </trkpt>
      <trkpt lat="41.64138" lon="20.30515">
        <ele>780.25</ele>
        <time>2023-09-30T12:13:32.000Z</time>
      </trkpt>
      <trkpt lat="41.64147" lon="20.30517">
        <ele>780.25</ele>
        <time>2023-09-30T12:13:31.000Z</time>
      </trkpt>
      <trkpt lat="41.64154" lon="20.3052">
        <ele>780.72998046875</ele>
        <time>2023-09-30T12:13:30.000Z</time>
      </trkpt>
      <trkpt lat="41.6416" lon="20.30526">
        <ele>781.21002197266</ele>
        <time>2023-09-30T12:13:29.000Z</time>
      </trkpt>
      <trkpt lat="41.64167" lon="20.30534">
        <ele>782.16998291016</ele>
        <time>2023-09-30T12:13:28.000Z</time>
      </trkpt>
      <trkpt lat="41.64174" lon="20.30544">
        <ele>783.13000488281</ele>
        <time>2023-09-30T12:13:27.000Z</time>
      </trkpt>
      <trkpt lat="41.642" lon="20.30579">
        <ele>786.5</ele>
        <time>2023-09-30T12:13:23.000Z</time>
      </trkpt>
      <trkpt lat="41.64219" lon="20.30604">
        <ele>788.41998291016</ele>
        <time>2023-09-30T12:13:21.000Z</time>
      </trkpt>
      <trkpt lat="41.64224" lon="20.30612">
        <ele>789.38000488281</ele>
        <time>2023-09-30T12:13:20.000Z</time>
      </trkpt>
      <trkpt lat="41.64231" lon="20.3062">
        <ele>790.34002685547</ele>
        <time>2023-09-30T12:13:19.000Z</time>
      </trkpt>
      <trkpt lat="41.6424" lon="20.30625">
        <ele>791.29998779297</ele>
        <time>2023-09-30T12:13:18.000Z</time>
      </trkpt>
      <trkpt lat="41.6425" lon="20.3063">
        <ele>792.73999023438</ele>
        <time>2023-09-30T12:13:17.000Z</time>
      </trkpt>
      <trkpt lat="41.64258" lon="20.30632">
        <ele>793.21997070312</ele>
        <time>2023-09-30T12:13:16.000Z</time>
      </trkpt>
      <trkpt lat="41.64273" lon="20.30636">
        <ele>794.66998291016</ele>
        <time>2023-09-30T12:13:14.000Z</time>
      </trkpt>
      <trkpt lat="41.64285" lon="20.30641">
        <ele>796.10998535156</ele>
        <time>2023-09-30T12:13:13.000Z</time>
      </trkpt>
      <trkpt lat="41.64294" lon="20.30646">
        <ele>797.07000732422</ele>
        <time>2023-09-30T12:13:12.000Z</time>
      </trkpt>
      <trkpt lat="41.64336" lon="20.30675">
        <ele>801.40002441406</ele>
        <time>2023-09-30T12:13:07.000Z</time>
      </trkpt>
      <trkpt lat="41.64351" lon="20.30683">
        <ele>803.32000732422</ele>
        <time>2023-09-30T12:13:06.000Z</time>
      </trkpt>
      <trkpt lat="41.6436" lon="20.30686">
        <ele>804.28002929688</ele>
        <time>2023-09-30T12:13:05.000Z</time>
      </trkpt>
      <trkpt lat="41.64372" lon="20.30689">
        <ele>805.23999023438</ele>
        <time>2023-09-30T12:13:04.000Z</time>
      </trkpt>
      <trkpt lat="41.64407" lon="20.30695">
        <ele>808.60998535156</ele>
        <time>2023-09-30T12:13:01.000Z</time>
      </trkpt>
      <trkpt lat="41.64416" lon="20.30695">
        <ele>809.57000732422</ele>
        <time>2023-09-30T12:13:00.000Z</time>
      </trkpt>
      <trkpt lat="41.64424" lon="20.30691">
        <ele>810.53002929688</ele>
        <time>2023-09-30T12:12:59.000Z</time>
      </trkpt>
      <trkpt lat="41.64432" lon="20.30684">
        <ele>811.01000976562</ele>
        <time>2023-09-30T12:12:58.000Z</time>
      </trkpt>
      <trkpt lat="41.64438" lon="20.30674">
        <ele>811.48999023438</ele>
        <time>2023-09-30T12:12:57.000Z</time>
      </trkpt>
      <trkpt lat="41.64443" lon="20.30666">
        <ele>811.96997070312</ele>
        <time>2023-09-30T12:12:56.000Z</time>
      </trkpt>
      <trkpt lat="41.64449" lon="20.30654">
        <ele>813.40997314453</ele>
        <time>2023-09-30T12:12:55.000Z</time>
      </trkpt>
      <trkpt lat="41.64455" lon="20.30643">
        <ele>814.36999511719</ele>
        <time>2023-09-30T12:12:54.000Z</time>
      </trkpt>
      <trkpt lat="41.64461" lon="20.30636">
        <ele>814.84997558594</ele>
        <time>2023-09-30T12:12:53.000Z</time>
      </trkpt>
      <trkpt lat="41.64467" lon="20.30629">
        <ele>815.82000732422</ele>
        <time>2023-09-30T12:12:52.000Z</time>
      </trkpt>
      <trkpt lat="41.64473" lon="20.30626">
        <ele>816.29998779297</ele>
        <time>2023-09-30T12:12:51.000Z</time>
      </trkpt>
      <trkpt lat="41.64479" lon="20.30624">
        <ele>817.26000976562</ele>
        <time>2023-09-30T12:12:50.000Z</time>
      </trkpt>
      <trkpt lat="41.64485" lon="20.30625">
        <ele>817.26000976562</ele>
        <time>2023-09-30T12:12:49.000Z</time>
      </trkpt>
      <trkpt lat="41.64487" lon="20.30625">
        <ele>817.26000976562</ele>
        <time>2023-09-30T12:12:48.000Z</time>
      </trkpt>
      <trkpt lat="41.64503" lon="20.30629">
        <ele>818.21997070312</ele>
        <time>2023-09-30T12:12:46.000Z</time>
      </trkpt>
      <trkpt lat="41.64516" lon="20.30633">
        <ele>818.70001220703</ele>
        <time>2023-09-30T12:12:45.000Z</time>
      </trkpt>
      <trkpt lat="41.64525" lon="20.30634">
        <ele>819.65997314453</ele>
        <time>2023-09-30T12:12:44.000Z</time>
      </trkpt>
      <trkpt lat="41.64533" lon="20.30634">
        <ele>820.61999511719</ele>
        <time>2023-09-30T12:12:43.000Z</time>
      </trkpt>
      <trkpt lat="41.64541" lon="20.30634">
        <ele>821.09997558594</ele>
        <time>2023-09-30T12:12:42.000Z</time>
      </trkpt>
      <trkpt lat="41.64548" lon="20.30634">
        <ele>821.58001708984</ele>
        <time>2023-09-30T12:12:41.000Z</time>
      </trkpt>
      <trkpt lat="41.64554" lon="20.30634">
        <ele>822.05999755859</ele>
        <time>2023-09-30T12:12:40.000Z</time>
      </trkpt>
      <trkpt lat="41.64559" lon="20.30634">
        <ele>822.54998779297</ele>
        <time>2023-09-30T12:12:39.000Z</time>
      </trkpt>
      <trkpt lat="41.64562" lon="20.30635">
        <ele>822.54998779297</ele>
        <time>2023-09-30T12:12:38.000Z</time>
      </trkpt>
      <trkpt lat="41.6457" lon="20.30636">
        <ele>823.03002929688</ele>
        <time>2023-09-30T12:12:37.000Z</time>
      </trkpt>
      <trkpt lat="41.64576" lon="20.30635">
        <ele>824.46997070312</ele>
        <time>2023-09-30T12:12:36.000Z</time>
      </trkpt>
      <trkpt lat="41.6458" lon="20.30635">
        <ele>824.95001220703</ele>
        <time>2023-09-30T12:12:35.000Z</time>
      </trkpt>
      <trkpt lat="41.64587" lon="20.30633">
        <ele>825.42999267578</ele>
        <time>2023-09-30T12:12:34.000Z</time>
      </trkpt>
      <trkpt lat="41.64591" lon="20.30631">
        <ele>825.90997314453</ele>
        <time>2023-09-30T12:12:33.000Z</time>
      </trkpt>
      <trkpt lat="41.64595" lon="20.30629">
        <ele>826.86999511719</ele>
        <time>2023-09-30T12:12:32.000Z</time>
      </trkpt>
      <trkpt lat="41.646" lon="20.30628">
        <ele>827.34997558594</ele>
        <time>2023-09-30T12:12:31.000Z</time>
      </trkpt>
      <trkpt lat="41.64603" lon="20.30626">
        <ele>827.34997558594</ele>
        <time>2023-09-30T12:12:30.000Z</time>
      </trkpt>
      <trkpt lat="41.64615" lon="20.30624">
        <ele>828.30999755859</ele>
        <time>2023-09-30T12:12:27.000Z</time>
      </trkpt>
      <trkpt lat="41.6462" lon="20.30625">
        <ele>828.30999755859</ele>
        <time>2023-09-30T12:12:26.000Z</time>
      </trkpt>
      <trkpt lat="41.64625" lon="20.30627">
        <ele>828.30999755859</ele>
        <time>2023-09-30T12:12:25.000Z</time>
      </trkpt>
      <trkpt lat="41.6463" lon="20.30629">
        <ele>828.78997802734</ele>
        <time>2023-09-30T12:12:24.000Z</time>
      </trkpt>
      <trkpt lat="41.64648" lon="20.30639">
        <ele>829.27001953125</ele>
        <time>2023-09-30T12:12:22.000Z</time>
      </trkpt>
      <trkpt lat="41.64653" lon="20.30642">
        <ele>829.27001953125</ele>
        <time>2023-09-30T12:12:21.000Z</time>
      </trkpt>
      <trkpt lat="41.64671" lon="20.30655">
        <ele>830.23999023438</ele>
        <time>2023-09-30T12:12:19.000Z</time>
      </trkpt>
      <trkpt lat="41.64676" lon="20.30659">
        <ele>830.23999023438</ele>
        <time>2023-09-30T12:12:18.000Z</time>
      </trkpt>
      <trkpt lat="41.64683" lon="20.30666">
        <ele>830.23999023438</ele>
        <time>2023-09-30T12:12:17.000Z</time>
      </trkpt>
      <trkpt lat="41.64688" lon="20.30671">
        <ele>829.76000976562</ele>
        <time>2023-09-30T12:12:16.000Z</time>
      </trkpt>
      <trkpt lat="41.64689" lon="20.30677">
        <ele>829.76000976562</ele>
        <time>2023-09-30T12:12:15.000Z</time>
      </trkpt>
      <trkpt lat="41.64689" lon="20.30685">
        <ele>829.27001953125</ele>
        <time>2023-09-30T12:12:14.000Z</time>
      </trkpt>
      <trkpt lat="41.64687" lon="20.30692">
        <ele>828.78997802734</ele>
        <time>2023-09-30T12:12:13.000Z</time>
      </trkpt>
      <trkpt lat="41.64684" lon="20.30698">
        <ele>827.83001708984</ele>
        <time>2023-09-30T12:12:12.000Z</time>
      </trkpt>
      <trkpt lat="41.64678" lon="20.30706">
        <ele>826.86999511719</ele>
        <time>2023-09-30T12:12:11.000Z</time>
      </trkpt>
      <trkpt lat="41.64674" lon="20.30716">
        <ele>825.90997314453</ele>
        <time>2023-09-30T12:12:10.000Z</time>
      </trkpt>
      <trkpt lat="41.64673" lon="20.30721">
        <ele>825.90997314453</ele>
        <time>2023-09-30T12:12:09.000Z</time>
      </trkpt>
      <trkpt lat="41.64669" lon="20.30743">
        <ele>823.98999023438</ele>
        <time>2023-09-30T12:12:08.000Z</time>
      </trkpt>
      <trkpt lat="41.64668" lon="20.3076">
        <ele>823.03002929688</ele>
        <time>2023-09-30T12:12:07.000Z</time>
      </trkpt>
      <trkpt lat="41.64667" lon="20.30763">
        <ele>822.54998779297</ele>
        <time>2023-09-30T12:12:06.000Z</time>
      </trkpt>
      <trkpt lat="41.64667" lon="20.30789">
        <ele>820.14001464844</ele>
        <time>2023-09-30T12:12:05.000Z</time>
      </trkpt>
      <trkpt lat="41.64667" lon="20.30801">
        <ele>819.17999267578</ele>
        <time>2023-09-30T12:12:04.000Z</time>
      </trkpt>
      <trkpt lat="41.64669" lon="20.30813">
        <ele>818.21997070312</ele>
        <time>2023-09-30T12:12:03.000Z</time>
      </trkpt>
      <trkpt lat="41.64672" lon="20.30824">
        <ele>816.78002929688</ele>
        <time>2023-09-30T12:12:02.000Z</time>
      </trkpt>
      <trkpt lat="41.64675" lon="20.30834">
        <ele>815.82000732422</ele>
        <time>2023-09-30T12:12:01.000Z</time>
      </trkpt>
      <trkpt lat="41.64681" lon="20.30846">
        <ele>814.36999511719</ele>
        <time>2023-09-30T12:12:00.000Z</time>
      </trkpt>
      <trkpt lat="41.64688" lon="20.30856">
        <ele>812.92999267578</ele>
        <time>2023-09-30T12:11:59.000Z</time>
      </trkpt>
      <trkpt lat="41.64692" lon="20.30862">
        <ele>812.45001220703</ele>
        <time>2023-09-30T12:11:58.000Z</time>
      </trkpt>
      <trkpt lat="41.64704" lon="20.30877">
        <ele>810.04998779297</ele>
        <time>2023-09-30T12:11:56.000Z</time>
      </trkpt>
      <trkpt lat="41.64714" lon="20.30889">
        <ele>808.13000488281</ele>
        <time>2023-09-30T12:11:55.000Z</time>
      </trkpt>
      <trkpt lat="41.6472" lon="20.30896">
        <ele>807.15997314453</ele>
        <time>2023-09-30T12:11:54.000Z</time>
      </trkpt>
      <trkpt lat="41.64727" lon="20.30905">
        <ele>806.20001220703</ele>
        <time>2023-09-30T12:11:53.000Z</time>
      </trkpt>
      <trkpt lat="41.64733" lon="20.30911">
        <ele>805.23999023438</ele>
        <time>2023-09-30T12:11:52.000Z</time>
      </trkpt>
      <trkpt lat="41.64737" lon="20.30913">
        <ele>804.28002929688</ele>
        <time>2023-09-30T12:11:51.000Z</time>
      </trkpt>
      <trkpt lat="41.64746" lon="20.30918">
        <ele>802.84002685547</ele>
        <time>2023-09-30T12:11:50.000Z</time>
      </trkpt>
      <trkpt lat="41.64754" lon="20.30922">
        <ele>801.88000488281</ele>
        <time>2023-09-30T12:11:49.000Z</time>
      </trkpt>
      <trkpt lat="41.6476" lon="20.30925">
        <ele>800.91998291016</ele>
        <time>2023-09-30T12:11:48.000Z</time>
      </trkpt>
      <trkpt lat="41.64764" lon="20.30928">
        <ele>799.95001220703</ele>
        <time>2023-09-30T12:11:47.000Z</time>
      </trkpt>
      <trkpt lat="41.64768" lon="20.30932">
        <ele>798.98999023438</ele>
        <time>2023-09-30T12:11:46.000Z</time>
      </trkpt>
      <trkpt lat="41.64772" lon="20.30938">
        <ele>798.03002929688</ele>
        <time>2023-09-30T12:11:45.000Z</time>
      </trkpt>
      <trkpt lat="41.64778" lon="20.30946">
        <ele>796.59002685547</ele>
        <time>2023-09-30T12:11:44.000Z</time>
      </trkpt>
      <trkpt lat="41.64786" lon="20.30956">
        <ele>795.15002441406</ele>
        <time>2023-09-30T12:11:43.000Z</time>
      </trkpt>
      <trkpt lat="41.64793" lon="20.30967">
        <ele>793.71002197266</ele>
        <time>2023-09-30T12:11:42.000Z</time>
      </trkpt>
      <trkpt lat="41.64798" lon="20.30976">
        <ele>793.21997070312</ele>
        <time>2023-09-30T12:11:41.000Z</time>
      </trkpt>
      <trkpt lat="41.6481" lon="20.31001">
        <ele>791.29998779297</ele>
        <time>2023-09-30T12:11:39.000Z</time>
      </trkpt>
      <trkpt lat="41.64817" lon="20.31011">
        <ele>790.34002685547</ele>
        <time>2023-09-30T12:11:38.000Z</time>
      </trkpt>
      <trkpt lat="41.64826" lon="20.31019">
        <ele>789.38000488281</ele>
        <time>2023-09-30T12:11:37.000Z</time>
      </trkpt>
      <trkpt lat="41.64835" lon="20.31024">
        <ele>788.90002441406</ele>
        <time>2023-09-30T12:11:36.000Z</time>
      </trkpt>
      <trkpt lat="41.64846" lon="20.3103">
        <ele>787.46002197266</ele>
        <time>2023-09-30T12:11:35.000Z</time>
      </trkpt>
      <trkpt lat="41.64853" lon="20.31036">
        <ele>786.97998046875</ele>
        <time>2023-09-30T12:11:34.000Z</time>
      </trkpt>
      <trkpt lat="41.64873" lon="20.31054">
        <ele>784.09002685547</ele>
        <time>2023-09-30T12:11:32.000Z</time>
      </trkpt>
      <trkpt lat="41.64884" lon="20.3106">
        <ele>783.13000488281</ele>
        <time>2023-09-30T12:11:31.000Z</time>
      </trkpt>
      <trkpt lat="41.6489" lon="20.31063">
        <ele>782.65002441406</ele>
        <time>2023-09-30T12:11:30.000Z</time>
      </trkpt>
      <trkpt lat="41.64911" lon="20.31072">
        <ele>780.72998046875</ele>
        <time>2023-09-30T12:11:28.000Z</time>
      </trkpt>
      <trkpt lat="41.6495" lon="20.31091">
        <ele>777.35998535156</ele>
        <time>2023-09-30T12:11:25.000Z</time>
      </trkpt>
      <trkpt lat="41.64954" lon="20.31093">
        <ele>776.88000488281</ele>
        <time>2023-09-30T12:11:24.000Z</time>
      </trkpt>
      <trkpt lat="41.6497" lon="20.31103">
        <ele>775.44000244141</ele>
        <time>2023-09-30T12:11:23.000Z</time>
      </trkpt>
      <trkpt lat="41.6498" lon="20.31109">
        <ele>774</ele>
        <time>2023-09-30T12:11:22.000Z</time>
      </trkpt>
      <trkpt lat="41.64991" lon="20.31112">
        <ele>773.03997802734</ele>
        <time>2023-09-30T12:11:21.000Z</time>
      </trkpt>
      <trkpt lat="41.65007" lon="20.31114">
        <ele>771.59997558594</ele>
        <time>2023-09-30T12:11:19.000Z</time>
      </trkpt>
      <trkpt lat="41.65022" lon="20.31117">
        <ele>770.63000488281</ele>
        <time>2023-09-30T12:11:18.000Z</time>
      </trkpt>
      <trkpt lat="41.65035" lon="20.3112">
        <ele>769.19000244141</ele>
        <time>2023-09-30T12:11:17.000Z</time>
      </trkpt>
      <trkpt lat="41.65043" lon="20.31123">
        <ele>768.22998046875</ele>
        <time>2023-09-30T12:11:16.000Z</time>
      </trkpt>
      <trkpt lat="41.65046" lon="20.31125">
        <ele>768.22998046875</ele>
        <time>2023-09-30T12:11:15.000Z</time>
      </trkpt>
      <trkpt lat="41.65065" lon="20.31134">
        <ele>766.30999755859</ele>
        <time>2023-09-30T12:11:14.000Z</time>
      </trkpt>
      <trkpt lat="41.65076" lon="20.31138">
        <ele>764.86999511719</ele>
        <time>2023-09-30T12:11:12.000Z</time>
      </trkpt>
      <trkpt lat="41.65088" lon="20.31142">
        <ele>763.90002441406</ele>
        <time>2023-09-30T12:11:11.000Z</time>
      </trkpt>
      <trkpt lat="41.65115" lon="20.3115">
        <ele>761.5</ele>
        <time>2023-09-30T12:11:09.000Z</time>
      </trkpt>
      <trkpt lat="41.65125" lon="20.31153">
        <ele>760.53997802734</ele>
        <time>2023-09-30T12:11:08.000Z</time>
      </trkpt>
      <trkpt lat="41.65134" lon="20.31156">
        <ele>759.58001708984</ele>
        <time>2023-09-30T12:11:07.000Z</time>
      </trkpt>
      <trkpt lat="41.65143" lon="20.31161">
        <ele>758.61999511719</ele>
        <time>2023-09-30T12:11:06.000Z</time>
      </trkpt>
      <trkpt lat="41.65151" lon="20.31167">
        <ele>757.65997314453</ele>
        <time>2023-09-30T12:11:05.000Z</time>
      </trkpt>
      <trkpt lat="41.65157" lon="20.31173">
        <ele>756.69000244141</ele>
        <time>2023-09-30T12:11:04.000Z</time>
      </trkpt>
      <trkpt lat="41.65164" lon="20.31177">
        <ele>756.21002197266</ele>
        <time>2023-09-30T12:11:03.000Z</time>
      </trkpt>
      <trkpt lat="41.65171" lon="20.31179">
        <ele>755.72998046875</ele>
        <time>2023-09-30T12:11:02.000Z</time>
      </trkpt>
      <trkpt lat="41.65177" lon="20.31178">
        <ele>755.25</ele>
        <time>2023-09-30T12:11:01.000Z</time>
      </trkpt>
      <trkpt lat="41.65183" lon="20.31175">
        <ele>754.77001953125</ele>
        <time>2023-09-30T12:11:00.000Z</time>
      </trkpt>
      <trkpt lat="41.65188" lon="20.31171">
        <ele>754.28997802734</ele>
        <time>2023-09-30T12:10:59.000Z</time>
      </trkpt>
      <trkpt lat="41.6519" lon="20.31164">
        <ele>753.80999755859</ele>
        <time>2023-09-30T12:10:58.000Z</time>
      </trkpt>
      <trkpt lat="41.65191" lon="20.31158">
        <ele>753.33001708984</ele>
        <time>2023-09-30T12:10:57.000Z</time>
      </trkpt>
      <trkpt lat="41.65189" lon="20.3115">
        <ele>752.36999511719</ele>
        <time>2023-09-30T12:10:56.000Z</time>
      </trkpt>
      <trkpt lat="41.65186" lon="20.31145">
        <ele>751.89001464844</ele>
        <time>2023-09-30T12:10:55.000Z</time>
      </trkpt>
      <trkpt lat="41.65182" lon="20.3114">
        <ele>751.40997314453</ele>
        <time>2023-09-30T12:10:54.000Z</time>
      </trkpt>
      <trkpt lat="41.65172" lon="20.31128">
        <ele>750.45001220703</ele>
        <time>2023-09-30T12:10:52.000Z</time>
      </trkpt>
      <trkpt lat="41.6516" lon="20.31112">
        <ele>749</ele>
        <time>2023-09-30T12:10:51.000Z</time>
      </trkpt>
      <trkpt lat="41.65158" lon="20.3111">
        <ele>749</ele>
        <time>2023-09-30T12:10:50.000Z</time>
      </trkpt>
      <trkpt lat="41.6515" lon="20.31101">
        <ele>747.55999755859</ele>
        <time>2023-09-30T12:10:49.000Z</time>
      </trkpt>
      <trkpt lat="41.6513" lon="20.31081">
        <ele>745.64001464844</ele>
        <time>2023-09-30T12:10:47.000Z</time>
      </trkpt>
      <trkpt lat="41.65117" lon="20.31065">
        <ele>743.71997070312</ele>
        <time>2023-09-30T12:10:46.000Z</time>
      </trkpt>
      <trkpt lat="41.65109" lon="20.31056">
        <ele>742.76000976562</ele>
        <time>2023-09-30T12:10:45.000Z</time>
      </trkpt>
      <trkpt lat="41.65101" lon="20.31049">
        <ele>741.78997802734</ele>
        <time>2023-09-30T12:10:44.000Z</time>
      </trkpt>
      <trkpt lat="41.6509" lon="20.31041">
        <ele>741.30999755859</ele>
        <time>2023-09-30T12:10:43.000Z</time>
      </trkpt>
      <trkpt lat="41.65082" lon="20.31037">
        <ele>739.86999511719</ele>
        <time>2023-09-30T12:10:42.000Z</time>
      </trkpt>
      <trkpt lat="41.65069" lon="20.31031">
        <ele>738.42999267578</ele>
        <time>2023-09-30T12:10:41.000Z</time>
      </trkpt>
      <trkpt lat="41.65056" lon="20.31027">
        <ele>737.46997070312</ele>
        <time>2023-09-30T12:10:40.000Z</time>
      </trkpt>
      <trkpt lat="41.65045" lon="20.3102">
        <ele>736.03002929688</ele>
        <time>2023-09-30T12:10:39.000Z</time>
      </trkpt>
      <trkpt lat="41.65036" lon="20.31011">
        <ele>735.07000732422</ele>
        <time>2023-09-30T12:10:38.000Z</time>
      </trkpt>
      <trkpt lat="41.65029" lon="20.31003">
        <ele>734.09997558594</ele>
        <time>2023-09-30T12:10:37.000Z</time>
      </trkpt>
      <trkpt lat="41.65022" lon="20.30994">
        <ele>733.14001464844</ele>
        <time>2023-09-30T12:10:36.000Z</time>
      </trkpt>
      <trkpt lat="41.65016" lon="20.30985">
        <ele>732.17999267578</ele>
        <time>2023-09-30T12:10:35.000Z</time>
      </trkpt>
      <trkpt lat="41.65002" lon="20.30963">
        <ele>729.78002929688</ele>
        <time>2023-09-30T12:10:34.000Z</time>
      </trkpt>
      <trkpt lat="41.64993" lon="20.30953">
        <ele>728.82000732422</ele>
        <time>2023-09-30T12:10:33.000Z</time>
      </trkpt>
      <trkpt lat="41.64975" lon="20.30938">
        <ele>726.40997314453</ele>
        <time>2023-09-30T12:10:31.000Z</time>
      </trkpt>
      <trkpt lat="41.6495" lon="20.30912">
        <ele>724.01000976562</ele>
        <time>2023-09-30T12:10:28.000Z</time>
      </trkpt>
      <trkpt lat="41.64944" lon="20.30905">
        <ele>723.04998779297</ele>
        <time>2023-09-30T12:10:27.000Z</time>
      </trkpt>
      <trkpt lat="41.64941" lon="20.30897">
        <ele>722.57000732422</ele>
        <time>2023-09-30T12:10:26.000Z</time>
      </trkpt>
      <trkpt lat="41.64941" lon="20.30891">
        <ele>722.57000732422</ele>
        <time>2023-09-30T12:10:25.000Z</time>
      </trkpt>
      <trkpt lat="41.64942" lon="20.30885">
        <ele>723.04998779297</ele>
        <time>2023-09-30T12:10:24.000Z</time>
      </trkpt>
      <trkpt lat="41.64946" lon="20.30882">
        <ele>722.57000732422</ele>
        <time>2023-09-30T12:10:23.000Z</time>
      </trkpt>
      <trkpt lat="41.64951" lon="20.30881">
        <ele>722.09002685547</ele>
        <time>2023-09-30T12:10:22.000Z</time>
      </trkpt>
      <trkpt lat="41.64957" lon="20.30884">
        <ele>721.60998535156</ele>
        <time>2023-09-30T12:10:21.000Z</time>
      </trkpt>
      <trkpt lat="41.64963" lon="20.30888">
        <ele>721.13000488281</ele>
        <time>2023-09-30T12:10:20.000Z</time>
      </trkpt>
      <trkpt lat="41.64968" lon="20.30892">
        <ele>720.65002441406</ele>
        <time>2023-09-30T12:10:19.000Z</time>
      </trkpt>
      <trkpt lat="41.64981" lon="20.30903">
        <ele>720.15997314453</ele>
        <time>2023-09-30T12:10:18.000Z</time>
      </trkpt>
      <trkpt lat="41.64987" lon="20.30908">
        <ele>719.67999267578</ele>
        <time>2023-09-30T12:10:17.000Z</time>
      </trkpt>
      <trkpt lat="41.64997" lon="20.30916">
        <ele>718.71997070312</ele>
        <time>2023-09-30T12:10:16.000Z</time>
      </trkpt>
      <trkpt lat="41.65019" lon="20.30931">
        <ele>717.76000976562</ele>
        <time>2023-09-30T12:10:14.000Z</time>
      </trkpt>
      <trkpt lat="41.65032" lon="20.30938">
        <ele>717.28002929688</ele>
        <time>2023-09-30T12:10:13.000Z</time>
      </trkpt>
      <trkpt lat="41.65044" lon="20.30943">
        <ele>716.79998779297</ele>
        <time>2023-09-30T12:10:12.000Z</time>
      </trkpt>
      <trkpt lat="41.65059" lon="20.30947">
        <ele>715.84002685547</ele>
        <time>2023-09-30T12:10:11.000Z</time>
      </trkpt>
      <trkpt lat="41.65072" lon="20.3095">
        <ele>715.35998535156</ele>
        <time>2023-09-30T12:10:10.000Z</time>
      </trkpt>
      <trkpt lat="41.65098" lon="20.30955">
        <ele>713.91998291016</ele>
        <time>2023-09-30T12:10:08.000Z</time>
      </trkpt>
      <trkpt lat="41.65108" lon="20.30958">
        <ele>712.95001220703</ele>
        <time>2023-09-30T12:10:07.000Z</time>
      </trkpt>
      <trkpt lat="41.65136" lon="20.30969">
        <ele>711.03002929688</ele>
        <time>2023-09-30T12:10:05.000Z</time>
      </trkpt>
      <trkpt lat="41.65147" lon="20.30975">
        <ele>710.54998779297</ele>
        <time>2023-09-30T12:10:04.000Z</time>
      </trkpt>
      <trkpt lat="41.65165" lon="20.30986">
        <ele>709.10998535156</ele>
        <time>2023-09-30T12:10:02.000Z</time>
      </trkpt>
      <trkpt lat="41.65194" lon="20.31001">
        <ele>707.19000244141</ele>
        <time>2023-09-30T12:10:00.000Z</time>
      </trkpt>
      <trkpt lat="41.65205" lon="20.31008">
        <ele>706.22998046875</ele>
        <time>2023-09-30T12:09:59.000Z</time>
      </trkpt>
      <trkpt lat="41.65227" lon="20.31022">
        <ele>704.78002929688</ele>
        <time>2023-09-30T12:09:57.000Z</time>
      </trkpt>
      <trkpt lat="41.65247" lon="20.31034">
        <ele>703.34002685547</ele>
        <time>2023-09-30T12:09:55.000Z</time>
      </trkpt>
      <trkpt lat="41.65249" lon="20.31036">
        <ele>702.85998535156</ele>
        <time>2023-09-30T12:09:54.000Z</time>
      </trkpt>
      <trkpt lat="41.6529" lon="20.31073">
        <ele>700.94000244141</ele>
        <time>2023-09-30T12:09:50.000Z</time>
      </trkpt>
      <trkpt lat="41.65298" lon="20.31082">
        <ele>700.46002197266</ele>
        <time>2023-09-30T12:09:49.000Z</time>
      </trkpt>
      <trkpt lat="41.653" lon="20.31085">
        <ele>700.46002197266</ele>
        <time>2023-09-30T12:09:48.000Z</time>
      </trkpt>
      <trkpt lat="41.65308" lon="20.31097">
        <ele>700.46002197266</ele>
        <time>2023-09-30T12:09:47.000Z</time>
      </trkpt>
      <trkpt lat="41.65325" lon="20.31125">
        <ele>699.97998046875</ele>
        <time>2023-09-30T12:09:45.000Z</time>
      </trkpt>
      <trkpt lat="41.6533" lon="20.3113">
        <ele>699.97998046875</ele>
        <time>2023-09-30T12:09:44.000Z</time>
      </trkpt>
      <trkpt lat="41.6534" lon="20.31141">
        <ele>699.5</ele>
        <time>2023-09-30T12:09:43.000Z</time>
      </trkpt>
      <trkpt lat="41.65345" lon="20.31148">
        <ele>699.5</ele>
        <time>2023-09-30T12:09:42.000Z</time>
      </trkpt>
      <trkpt lat="41.65348" lon="20.31155">
        <ele>699.02001953125</ele>
        <time>2023-09-30T12:09:41.000Z</time>
      </trkpt>
      <trkpt lat="41.65349" lon="20.31161">
        <ele>698.53002929688</ele>
        <time>2023-09-30T12:09:40.000Z</time>
      </trkpt>
      <trkpt lat="41.65347" lon="20.31169">
        <ele>698.04998779297</ele>
        <time>2023-09-30T12:09:39.000Z</time>
      </trkpt>
      <trkpt lat="41.65344" lon="20.31176">
        <ele>698.04998779297</ele>
        <time>2023-09-30T12:09:38.000Z</time>
      </trkpt>
      <trkpt lat="41.65338" lon="20.31183">
        <ele>697.57000732422</ele>
        <time>2023-09-30T12:09:37.000Z</time>
      </trkpt>
      <trkpt lat="41.65331" lon="20.31188">
        <ele>697.09002685547</ele>
        <time>2023-09-30T12:09:36.000Z</time>
      </trkpt>
      <trkpt lat="41.6532" lon="20.31195">
        <ele>696.13000488281</ele>
        <time>2023-09-30T12:09:35.000Z</time>
      </trkpt>
      <trkpt lat="41.65294" lon="20.31208">
        <ele>694.21002197266</ele>
        <time>2023-09-30T12:09:32.000Z</time>
      </trkpt>
      <trkpt lat="41.65285" lon="20.31212">
        <ele>693.72998046875</ele>
        <time>2023-09-30T12:09:31.000Z</time>
      </trkpt>
      <trkpt lat="41.65257" lon="20.31227">
        <ele>690.84002685547</ele>
        <time>2023-09-30T12:09:29.000Z</time>
      </trkpt>
      <trkpt lat="41.65246" lon="20.31233">
        <ele>689.40002441406</ele>
        <time>2023-09-30T12:09:28.000Z</time>
      </trkpt>
      <trkpt lat="41.65237" lon="20.31239">
        <ele>688.44000244141</ele>
        <time>2023-09-30T12:09:27.000Z</time>
      </trkpt>
      <trkpt lat="41.65227" lon="20.31249">
        <ele>687.47998046875</ele>
        <time>2023-09-30T12:09:26.000Z</time>
      </trkpt>
      <trkpt lat="41.65211" lon="20.31268">
        <ele>685.08001708984</ele>
        <time>2023-09-30T12:09:24.000Z</time>
      </trkpt>
      <trkpt lat="41.65205" lon="20.31278">
        <ele>684.11999511719</ele>
        <time>2023-09-30T12:09:23.000Z</time>
      </trkpt>
      <trkpt lat="41.65202" lon="20.31287">
        <ele>683.15002441406</ele>
        <time>2023-09-30T12:09:22.000Z</time>
      </trkpt>
      <trkpt lat="41.65198" lon="20.31299">
        <ele>681.71002197266</ele>
        <time>2023-09-30T12:09:21.000Z</time>
      </trkpt>
      <trkpt lat="41.65195" lon="20.31307">
        <ele>680.75</ele>
        <time>2023-09-30T12:09:20.000Z</time>
      </trkpt>
      <trkpt lat="41.65191" lon="20.31315">
        <ele>680.27001953125</ele>
        <time>2023-09-30T12:09:19.000Z</time>
      </trkpt>
      <trkpt lat="41.65185" lon="20.31322">
        <ele>679.30999755859</ele>
        <time>2023-09-30T12:09:18.000Z</time>
      </trkpt>
      <trkpt lat="41.65179" lon="20.31326">
        <ele>678.34997558594</ele>
        <time>2023-09-30T12:09:17.000Z</time>
      </trkpt>
      <trkpt lat="41.65169" lon="20.31332">
        <ele>676.41998291016</ele>
        <time>2023-09-30T12:09:16.000Z</time>
      </trkpt>
      <trkpt lat="41.6516" lon="20.31338">
        <ele>674.97998046875</ele>
        <time>2023-09-30T12:09:15.000Z</time>
      </trkpt>
      <trkpt lat="41.65152" lon="20.31344">
        <ele>674.02001953125</ele>
        <time>2023-09-30T12:09:14.000Z</time>
      </trkpt>
      <trkpt lat="41.65146" lon="20.3135">
        <ele>673.53997802734</ele>
        <time>2023-09-30T12:09:13.000Z</time>
      </trkpt>
      <trkpt lat="41.65139" lon="20.31358">
        <ele>672.58001708984</ele>
        <time>2023-09-30T12:09:12.000Z</time>
      </trkpt>
      <trkpt lat="41.65133" lon="20.31366">
        <ele>672.09997558594</ele>
        <time>2023-09-30T12:09:11.000Z</time>
      </trkpt>
      <trkpt lat="41.65128" lon="20.31373">
        <ele>672.58001708984</ele>
        <time>2023-09-30T12:09:10.000Z</time>
      </trkpt>
      <trkpt lat="41.65124" lon="20.3138">
        <ele>672.58001708984</ele>
        <time>2023-09-30T12:09:09.000Z</time>
      </trkpt>
      <trkpt lat="41.65124" lon="20.31387">
        <ele>672.09997558594</ele>
        <time>2023-09-30T12:09:08.000Z</time>
      </trkpt>
      <trkpt lat="41.65125" lon="20.31393">
        <ele>671.61999511719</ele>
        <time>2023-09-30T12:09:07.000Z</time>
      </trkpt>
      <trkpt lat="41.65128" lon="20.31397">
        <ele>671.14001464844</ele>
        <time>2023-09-30T12:09:06.000Z</time>
      </trkpt>
      <trkpt lat="41.65133" lon="20.314">
        <ele>670.65997314453</ele>
        <time>2023-09-30T12:09:05.000Z</time>
      </trkpt>
      <trkpt lat="41.65138" lon="20.31399">
        <ele>669.70001220703</ele>
        <time>2023-09-30T12:09:04.000Z</time>
      </trkpt>
      <trkpt lat="41.65145" lon="20.31394">
        <ele>668.72998046875</ele>
        <time>2023-09-30T12:09:03.000Z</time>
      </trkpt>
      <trkpt lat="41.65151" lon="20.31387">
        <ele>667.77001953125</ele>
        <time>2023-09-30T12:09:02.000Z</time>
      </trkpt>
      <trkpt lat="41.65156" lon="20.31381">
        <ele>667.28997802734</ele>
        <time>2023-09-30T12:09:01.000Z</time>
      </trkpt>
      <trkpt lat="41.65166" lon="20.31368">
        <ele>666.80999755859</ele>
        <time>2023-09-30T12:09:00.000Z</time>
      </trkpt>
      <trkpt lat="41.65173" lon="20.3136">
        <ele>666.33001708984</ele>
        <time>2023-09-30T12:08:59.000Z</time>
      </trkpt>
      <trkpt lat="41.6518" lon="20.31355">
        <ele>665.84997558594</ele>
        <time>2023-09-30T12:08:58.000Z</time>
      </trkpt>
      <trkpt lat="41.65185" lon="20.31354">
        <ele>665.84997558594</ele>
        <time>2023-09-30T12:08:57.000Z</time>
      </trkpt>
      <trkpt lat="41.65195" lon="20.31351">
        <ele>664.89001464844</ele>
        <time>2023-09-30T12:08:56.000Z</time>
      </trkpt>
      <trkpt lat="41.65202" lon="20.31348">
        <ele>664.40997314453</ele>
        <time>2023-09-30T12:08:55.000Z</time>
      </trkpt>
      <trkpt lat="41.65209" lon="20.31343">
        <ele>663.92999267578</ele>
        <time>2023-09-30T12:08:54.000Z</time>
      </trkpt>
      <trkpt lat="41.65214" lon="20.31336">
        <ele>662.96997070312</ele>
        <time>2023-09-30T12:08:53.000Z</time>
      </trkpt>
      <trkpt lat="41.65218" lon="20.31327">
        <ele>662.01000976562</ele>
        <time>2023-09-30T12:08:52.000Z</time>
      </trkpt>
      <trkpt lat="41.65224" lon="20.31315">
        <ele>661.52001953125</ele>
        <time>2023-09-30T12:08:51.000Z</time>
      </trkpt>
      <trkpt lat="41.6523" lon="20.31305">
        <ele>661.03997802734</ele>
        <time>2023-09-30T12:08:50.000Z</time>
      </trkpt>
      <trkpt lat="41.65232" lon="20.31304">
        <ele>660.55999755859</ele>
        <time>2023-09-30T12:08:49.000Z</time>
      </trkpt>
      <trkpt lat="41.65246" lon="20.3129">
        <ele>659.59997558594</ele>
        <time>2023-09-30T12:08:48.000Z</time>
      </trkpt>
      <trkpt lat="41.65254" lon="20.31285">
        <ele>659.59997558594</ele>
        <time>2023-09-30T12:08:47.000Z</time>
      </trkpt>
      <trkpt lat="41.65263" lon="20.31282">
        <ele>659.11999511719</ele>
        <time>2023-09-30T12:08:46.000Z</time>
      </trkpt>
      <trkpt lat="41.65265" lon="20.31282">
        <ele>659.11999511719</ele>
        <time>2023-09-30T12:08:45.000Z</time>
      </trkpt>
      <trkpt lat="41.65283" lon="20.31279">
        <ele>658.64001464844</ele>
        <time>2023-09-30T12:08:44.000Z</time>
      </trkpt>
      <trkpt lat="41.65294" lon="20.31277">
        <ele>657.20001220703</ele>
        <time>2023-09-30T12:08:43.000Z</time>
      </trkpt>
      <trkpt lat="41.65301" lon="20.31275">
        <ele>656.71997070312</ele>
        <time>2023-09-30T12:08:42.000Z</time>
      </trkpt>
      <trkpt lat="41.65317" lon="20.31266">
        <ele>655.76000976562</ele>
        <time>2023-09-30T12:08:40.000Z</time>
      </trkpt>
      <trkpt lat="41.6533" lon="20.31259">
        <ele>655.28002929688</ele>
        <time>2023-09-30T12:08:39.000Z</time>
      </trkpt>
      <trkpt lat="41.65335" lon="20.31257">
        <ele>654.79998779297</ele>
        <time>2023-09-30T12:08:38.000Z</time>
      </trkpt>
      <trkpt lat="41.65358" lon="20.31252">
        <ele>653.34997558594</ele>
        <time>2023-09-30T12:08:36.000Z</time>
      </trkpt>
      <trkpt lat="41.65367" lon="20.3125">
        <ele>653.34997558594</ele>
        <time>2023-09-30T12:08:35.000Z</time>
      </trkpt>
      <trkpt lat="41.65374" lon="20.31248">
        <ele>652.86999511719</ele>
        <time>2023-09-30T12:08:34.000Z</time>
      </trkpt>
      <trkpt lat="41.6538" lon="20.31245">
        <ele>652.39001464844</ele>
        <time>2023-09-30T12:08:33.000Z</time>
      </trkpt>
      <trkpt lat="41.65385" lon="20.31241">
        <ele>651.90997314453</ele>
        <time>2023-09-30T12:08:32.000Z</time>
      </trkpt>
      <trkpt lat="41.65392" lon="20.31232">
        <ele>651.42999267578</ele>
        <time>2023-09-30T12:08:31.000Z</time>
      </trkpt>
      <trkpt lat="41.65398" lon="20.31225">
        <ele>650.95001220703</ele>
        <time>2023-09-30T12:08:30.000Z</time>
      </trkpt>
      <trkpt lat="41.65405" lon="20.31219">
        <ele>650.46997070312</ele>
        <time>2023-09-30T12:08:29.000Z</time>
      </trkpt>
      <trkpt lat="41.65411" lon="20.31216">
        <ele>650.46997070312</ele>
        <time>2023-09-30T12:08:28.000Z</time>
      </trkpt>
      <trkpt lat="41.65418" lon="20.31212">
        <ele>649.98999023438</ele>
        <time>2023-09-30T12:08:27.000Z</time>
      </trkpt>
      <trkpt lat="41.65424" lon="20.31208">
        <ele>649.51000976562</ele>
        <time>2023-09-30T12:08:26.000Z</time>
      </trkpt>
      <trkpt lat="41.65428" lon="20.31202">
        <ele>649.03002929688</ele>
        <time>2023-09-30T12:08:25.000Z</time>
      </trkpt>
      <trkpt lat="41.65432" lon="20.31194">
        <ele>648.54998779297</ele>
        <time>2023-09-30T12:08:24.000Z</time>
      </trkpt>
      <trkpt lat="41.65434" lon="20.31185">
        <ele>648.07000732422</ele>
        <time>2023-09-30T12:08:23.000Z</time>
      </trkpt>
      <trkpt lat="41.65436" lon="20.31178">
        <ele>647.59002685547</ele>
        <time>2023-09-30T12:08:22.000Z</time>
      </trkpt>
      <trkpt lat="41.6544" lon="20.31163">
        <ele>646.61999511719</ele>
        <time>2023-09-30T12:08:21.000Z</time>
      </trkpt>
      <trkpt lat="41.65445" lon="20.31143">
        <ele>645.65997314453</ele>
        <time>2023-09-30T12:08:20.000Z</time>
      </trkpt>
      <trkpt lat="41.65449" lon="20.31129">
        <ele>645.17999267578</ele>
        <time>2023-09-30T12:08:19.000Z</time>
      </trkpt>
      <trkpt lat="41.65452" lon="20.31117">
        <ele>644.70001220703</ele>
        <time>2023-09-30T12:08:18.000Z</time>
      </trkpt>
      <trkpt lat="41.65454" lon="20.31108">
        <ele>644.21997070312</ele>
        <time>2023-09-30T12:08:17.000Z</time>
      </trkpt>
      <trkpt lat="41.65456" lon="20.31094">
        <ele>643.73999023438</ele>
        <time>2023-09-30T12:08:16.000Z</time>
      </trkpt>
      <trkpt lat="41.65456" lon="20.31082">
        <ele>643.26000976562</ele>
        <time>2023-09-30T12:08:15.000Z</time>
      </trkpt>
      <trkpt lat="41.65456" lon="20.31073">
        <ele>642.78002929688</ele>
        <time>2023-09-30T12:08:14.000Z</time>
      </trkpt>
      <trkpt lat="41.65454" lon="20.31066">
        <ele>642.29998779297</ele>
        <time>2023-09-30T12:08:13.000Z</time>
      </trkpt>
      <trkpt lat="41.65451" lon="20.31059">
        <ele>642.29998779297</ele>
        <time>2023-09-30T12:08:12.000Z</time>
      </trkpt>
      <trkpt lat="41.65446" lon="20.31051">
        <ele>641.82000732422</ele>
        <time>2023-09-30T12:08:11.000Z</time>
      </trkpt>
      <trkpt lat="41.65438" lon="20.31044">
        <ele>641.34002685547</ele>
        <time>2023-09-30T12:08:10.000Z</time>
      </trkpt>
      <trkpt lat="41.65437" lon="20.31042">
        <ele>641.34002685547</ele>
        <time>2023-09-30T12:08:09.000Z</time>
      </trkpt>
      <trkpt lat="41.65413" lon="20.31025">
        <ele>638.92999267578</ele>
        <time>2023-09-30T12:08:07.000Z</time>
      </trkpt>
      <trkpt lat="41.65402" lon="20.31019">
        <ele>637.48999023438</ele>
        <time>2023-09-30T12:08:06.000Z</time>
      </trkpt>
      <trkpt lat="41.65392" lon="20.31015">
        <ele>637.01000976562</ele>
        <time>2023-09-30T12:08:05.000Z</time>
      </trkpt>
      <trkpt lat="41.65384" lon="20.31012">
        <ele>636.04998779297</ele>
        <time>2023-09-30T12:08:04.000Z</time>
      </trkpt>
      <trkpt lat="41.65378" lon="20.31009">
        <ele>635.57000732422</ele>
        <time>2023-09-30T12:08:03.000Z</time>
      </trkpt>
      <trkpt lat="41.65373" lon="20.31005">
        <ele>635.09002685547</ele>
        <time>2023-09-30T12:08:02.000Z</time>
      </trkpt>
      <trkpt lat="41.6537" lon="20.31">
        <ele>634.13000488281</ele>
        <time>2023-09-30T12:08:01.000Z</time>
      </trkpt>
      <trkpt lat="41.65369" lon="20.30994">
        <ele>633.16998291016</ele>
        <time>2023-09-30T12:08:00.000Z</time>
      </trkpt>
      <trkpt lat="41.6537" lon="20.30989">
        <ele>632.67999267578</ele>
        <time>2023-09-30T12:07:59.000Z</time>
      </trkpt>
      <trkpt lat="41.65374" lon="20.30984">
        <ele>631.71997070312</ele>
        <time>2023-09-30T12:07:58.000Z</time>
      </trkpt>
      <trkpt lat="41.65379" lon="20.30983">
        <ele>631.23999023438</ele>
        <time>2023-09-30T12:07:57.000Z</time>
      </trkpt>
      <trkpt lat="41.65386" lon="20.30984">
        <ele>630.28002929688</ele>
        <time>2023-09-30T12:07:56.000Z</time>
      </trkpt>
      <trkpt lat="41.6539" lon="20.30986">
        <ele>629.79998779297</ele>
        <time>2023-09-30T12:07:55.000Z</time>
      </trkpt>
      <trkpt lat="41.65401" lon="20.30991">
        <ele>628.84002685547</ele>
        <time>2023-09-30T12:07:54.000Z</time>
      </trkpt>
      <trkpt lat="41.65409" lon="20.30995">
        <ele>627.88000488281</ele>
        <time>2023-09-30T12:07:53.000Z</time>
      </trkpt>
      <trkpt lat="41.65435" lon="20.31006">
        <ele>625.96002197266</ele>
        <time>2023-09-30T12:07:51.000Z</time>
      </trkpt>
      <trkpt lat="41.65443" lon="20.31009">
        <ele>625.46997070312</ele>
        <time>2023-09-30T12:07:50.000Z</time>
      </trkpt>
      <trkpt lat="41.65447" lon="20.31012">
        <ele>624.98999023438</ele>
        <time>2023-09-30T12:07:49.000Z</time>
      </trkpt>
      <trkpt lat="41.65464" lon="20.31024">
        <ele>623.07000732422</ele>
        <time>2023-09-30T12:07:47.000Z</time>
      </trkpt>
      <trkpt lat="41.65468" lon="20.31028">
        <ele>622.59002685547</ele>
        <time>2023-09-30T12:07:46.000Z</time>
      </trkpt>
      <trkpt lat="41.65473" lon="20.31034">
        <ele>622.10998535156</ele>
        <time>2023-09-30T12:07:45.000Z</time>
      </trkpt>
      <trkpt lat="41.65476" lon="20.31041">
        <ele>621.63000488281</ele>
        <time>2023-09-30T12:07:44.000Z</time>
      </trkpt>
      <trkpt lat="41.65479" lon="20.31051">
        <ele>620.66998291016</ele>
        <time>2023-09-30T12:07:43.000Z</time>
      </trkpt>
      <trkpt lat="41.65481" lon="20.3106">
        <ele>620.19000244141</ele>
        <time>2023-09-30T12:07:42.000Z</time>
      </trkpt>
      <trkpt lat="41.65483" lon="20.31073">
        <ele>619.22998046875</ele>
        <time>2023-09-30T12:07:41.000Z</time>
      </trkpt>
      <trkpt lat="41.65485" lon="20.31086">
        <ele>618.26000976562</ele>
        <time>2023-09-30T12:07:40.000Z</time>
      </trkpt>
      <trkpt lat="41.65486" lon="20.31098">
        <ele>617.78002929688</ele>
        <time>2023-09-30T12:07:39.000Z</time>
      </trkpt>
      <trkpt lat="41.65486" lon="20.31109">
        <ele>617.29998779297</ele>
        <time>2023-09-30T12:07:38.000Z</time>
      </trkpt>
      <trkpt lat="41.65485" lon="20.31125">
        <ele>616.34002685547</ele>
        <time>2023-09-30T12:07:37.000Z</time>
      </trkpt>
      <trkpt lat="41.65485" lon="20.3113">
        <ele>615.85998535156</ele>
        <time>2023-09-30T12:07:36.000Z</time>
      </trkpt>
      <trkpt lat="41.65479" lon="20.3116">
        <ele>613.94000244141</ele>
        <time>2023-09-30T12:07:34.000Z</time>
      </trkpt>
      <trkpt lat="41.65477" lon="20.31171">
        <ele>612.97998046875</ele>
        <time>2023-09-30T12:07:33.000Z</time>
      </trkpt>
      <trkpt lat="41.65475" lon="20.31181">
        <ele>612.02001953125</ele>
        <time>2023-09-30T12:07:32.000Z</time>
      </trkpt>
      <trkpt lat="41.65474" lon="20.31188">
        <ele>611.05999755859</ele>
        <time>2023-09-30T12:07:31.000Z</time>
      </trkpt>
      <trkpt lat="41.65474" lon="20.31199">
        <ele>610.09002685547</ele>
        <time>2023-09-30T12:07:30.000Z</time>
      </trkpt>
      <trkpt lat="41.65473" lon="20.31206">
        <ele>609.60998535156</ele>
        <time>2023-09-30T12:07:29.000Z</time>
      </trkpt>
      <trkpt lat="41.65473" lon="20.31218">
        <ele>608.65002441406</ele>
        <time>2023-09-30T12:07:28.000Z</time>
      </trkpt>
      <trkpt lat="41.65473" lon="20.31227">
        <ele>607.69000244141</ele>
        <time>2023-09-30T12:07:27.000Z</time>
      </trkpt>
      <trkpt lat="41.65471" lon="20.31234">
        <ele>606.72998046875</ele>
        <time>2023-09-30T12:07:26.000Z</time>
      </trkpt>
      <trkpt lat="41.65469" lon="20.3124">
        <ele>606.25</ele>
        <time>2023-09-30T12:07:25.000Z</time>
      </trkpt>
      <trkpt lat="41.65467" lon="20.31244">
        <ele>605.28997802734</ele>
        <time>2023-09-30T12:07:24.000Z</time>
      </trkpt>
      <trkpt lat="41.65463" lon="20.31248">
        <ele>604.33001708984</ele>
        <time>2023-09-30T12:07:23.000Z</time>
      </trkpt>
      <trkpt lat="41.65455" lon="20.31254">
        <ele>603.35998535156</ele>
        <time>2023-09-30T12:07:22.000Z</time>
      </trkpt>
      <trkpt lat="41.65448" lon="20.3126">
        <ele>602.40002441406</ele>
        <time>2023-09-30T12:07:21.000Z</time>
      </trkpt>
      <trkpt lat="41.65439" lon="20.3127">
        <ele>601.44000244141</ele>
        <time>2023-09-30T12:07:20.000Z</time>
      </trkpt>
      <trkpt lat="41.65433" lon="20.31279">
        <ele>600</ele>
        <time>2023-09-30T12:07:19.000Z</time>
      </trkpt>
      <trkpt lat="41.65429" lon="20.31285">
        <ele>598.55999755859</ele>
        <time>2023-09-30T12:07:18.000Z</time>
      </trkpt>
      <trkpt lat="41.65424" lon="20.31296">
        <ele>597.11999511719</ele>
        <time>2023-09-30T12:07:17.000Z</time>
      </trkpt>
      <trkpt lat="41.6542" lon="20.31307">
        <ele>595.66998291016</ele>
        <time>2023-09-30T12:07:16.000Z</time>
      </trkpt>
      <trkpt lat="41.65415" lon="20.31319">
        <ele>594.71002197266</ele>
        <time>2023-09-30T12:07:15.000Z</time>
      </trkpt>
      <trkpt lat="41.65415" lon="20.31322">
        <ele>594.22998046875</ele>
        <time>2023-09-30T12:07:14.000Z</time>
      </trkpt>
      <trkpt lat="41.65409" lon="20.31343">
        <ele>592.30999755859</ele>
        <time>2023-09-30T12:07:13.000Z</time>
      </trkpt>
      <trkpt lat="41.65406" lon="20.31354">
        <ele>590.86999511719</ele>
        <time>2023-09-30T12:07:12.000Z</time>
      </trkpt>
      <trkpt lat="41.65404" lon="20.31361">
        <ele>589.90997314453</ele>
        <time>2023-09-30T12:07:11.000Z</time>
      </trkpt>
      <trkpt lat="41.65399" lon="20.31369">
        <ele>588.95001220703</ele>
        <time>2023-09-30T12:07:10.000Z</time>
      </trkpt>
      <trkpt lat="41.65395" lon="20.31377">
        <ele>587.97998046875</ele>
        <time>2023-09-30T12:07:09.000Z</time>
      </trkpt>
      <trkpt lat="41.65391" lon="20.31385">
        <ele>587.5</ele>
        <time>2023-09-30T12:07:08.000Z</time>
      </trkpt>
      <trkpt lat="41.65387" lon="20.31394">
        <ele>587.02001953125</ele>
        <time>2023-09-30T12:07:07.000Z</time>
      </trkpt>
      <trkpt lat="41.65385" lon="20.31404">
        <ele>586.05999755859</ele>
        <time>2023-09-30T12:07:06.000Z</time>
      </trkpt>
      <trkpt lat="41.65385" lon="20.31415">
        <ele>585.09997558594</ele>
        <time>2023-09-30T12:07:05.000Z</time>
      </trkpt>
      <trkpt lat="41.65387" lon="20.31425">
        <ele>585.09997558594</ele>
        <time>2023-09-30T12:07:04.000Z</time>
      </trkpt>
      <trkpt lat="41.65389" lon="20.31435">
        <ele>584.61999511719</ele>
        <time>2023-09-30T12:07:03.000Z</time>
      </trkpt>
      <trkpt lat="41.65391" lon="20.31443">
        <ele>583.65997314453</ele>
        <time>2023-09-30T12:07:02.000Z</time>
      </trkpt>
      <trkpt lat="41.65394" lon="20.31449">
        <ele>583.17999267578</ele>
        <time>2023-09-30T12:07:01.000Z</time>
      </trkpt>
      <trkpt lat="41.65398" lon="20.31452">
        <ele>582.70001220703</ele>
        <time>2023-09-30T12:07:00.000Z</time>
      </trkpt>
      <trkpt lat="41.65403" lon="20.31452">
        <ele>582.21997070312</ele>
        <time>2023-09-30T12:06:59.000Z</time>
      </trkpt>
      <trkpt lat="41.65409" lon="20.31451">
        <ele>581.25</ele>
        <time>2023-09-30T12:06:58.000Z</time>
      </trkpt>
      <trkpt lat="41.65416" lon="20.31448">
        <ele>579.80999755859</ele>
        <time>2023-09-30T12:06:57.000Z</time>
      </trkpt>
      <trkpt lat="41.65423" lon="20.31445">
        <ele>578.36999511719</ele>
        <time>2023-09-30T12:06:56.000Z</time>
      </trkpt>
      <trkpt lat="41.65431" lon="20.31444">
        <ele>576.92999267578</ele>
        <time>2023-09-30T12:06:55.000Z</time>
      </trkpt>
      <trkpt lat="41.65438" lon="20.31443">
        <ele>575.48999023438</ele>
        <time>2023-09-30T12:06:54.000Z</time>
      </trkpt>
      <trkpt lat="41.65445" lon="20.31444">
        <ele>574.53002929688</ele>
        <time>2023-09-30T12:06:53.000Z</time>
      </trkpt>
      <trkpt lat="41.65446" lon="20.31444">
        <ele>574.03997802734</ele>
        <time>2023-09-30T12:06:52.000Z</time>
      </trkpt>
      <trkpt lat="41.65459" lon="20.31446">
        <ele>572.59997558594</ele>
        <time>2023-09-30T12:06:51.000Z</time>
      </trkpt>
      <trkpt lat="41.65465" lon="20.31445">
        <ele>571.15997314453</ele>
        <time>2023-09-30T12:06:50.000Z</time>
      </trkpt>
      <trkpt lat="41.65471" lon="20.31441">
        <ele>570.20001220703</ele>
        <time>2023-09-30T12:06:49.000Z</time>
      </trkpt>
      <trkpt lat="41.65477" lon="20.31437">
        <ele>569.23999023438</ele>
        <time>2023-09-30T12:06:48.000Z</time>
      </trkpt>
      <trkpt lat="41.65483" lon="20.31433">
        <ele>567.79998779297</ele>
        <time>2023-09-30T12:06:47.000Z</time>
      </trkpt>
      <trkpt lat="41.65491" lon="20.3143">
        <ele>566.34997558594</ele>
        <time>2023-09-30T12:06:46.000Z</time>
      </trkpt>
      <trkpt lat="41.65499" lon="20.3143">
        <ele>564.90997314453</ele>
        <time>2023-09-30T12:06:45.000Z</time>
      </trkpt>
      <trkpt lat="41.65507" lon="20.3143">
        <ele>563.46997070312</ele>
        <time>2023-09-30T12:06:44.000Z</time>
      </trkpt>
      <trkpt lat="41.65519" lon="20.3143">
        <ele>562.51000976562</ele>
        <time>2023-09-30T12:06:43.000Z</time>
      </trkpt>
      <trkpt lat="41.65528" lon="20.31431">
        <ele>561.07000732422</ele>
        <time>2023-09-30T12:06:42.000Z</time>
      </trkpt>
      <trkpt lat="41.65538" lon="20.31434">
        <ele>560.10998535156</ele>
        <time>2023-09-30T12:06:41.000Z</time>
      </trkpt>
      <trkpt lat="41.65547" lon="20.31439">
        <ele>558.65997314453</ele>
        <time>2023-09-30T12:06:40.000Z</time>
      </trkpt>
      <trkpt lat="41.65558" lon="20.31444">
        <ele>557.70001220703</ele>
        <time>2023-09-30T12:06:39.000Z</time>
      </trkpt>
      <trkpt lat="41.65568" lon="20.31447">
        <ele>556.73999023438</ele>
        <time>2023-09-30T12:06:38.000Z</time>
      </trkpt>
      <trkpt lat="41.65578" lon="20.31448">
        <ele>555.78002929688</ele>
        <time>2023-09-30T12:06:37.000Z</time>
      </trkpt>
      <trkpt lat="41.65588" lon="20.31447">
        <ele>554.82000732422</ele>
        <time>2023-09-30T12:06:36.000Z</time>
      </trkpt>
      <trkpt lat="41.65596" lon="20.31446">
        <ele>553.85998535156</ele>
        <time>2023-09-30T12:06:35.000Z</time>
      </trkpt>
      <trkpt lat="41.65606" lon="20.31442">
        <ele>553.38000488281</ele>
        <time>2023-09-30T12:06:34.000Z</time>
      </trkpt>
      <trkpt lat="41.65611" lon="20.31439">
        <ele>552.90002441406</ele>
        <time>2023-09-30T12:06:33.000Z</time>
      </trkpt>
      <trkpt lat="41.65622" lon="20.31432">
        <ele>551.45001220703</ele>
        <time>2023-09-30T12:06:32.000Z</time>
      </trkpt>
      <trkpt lat="41.6563" lon="20.31428">
        <ele>550.48999023438</ele>
        <time>2023-09-30T12:06:31.000Z</time>
      </trkpt>
      <trkpt lat="41.65637" lon="20.31425">
        <ele>549.53002929688</ele>
        <time>2023-09-30T12:06:30.000Z</time>
      </trkpt>
      <trkpt lat="41.65643" lon="20.31425">
        <ele>548.57000732422</ele>
        <time>2023-09-30T12:06:29.000Z</time>
      </trkpt>
      <trkpt lat="41.65651" lon="20.31426">
        <ele>547.60998535156</ele>
        <time>2023-09-30T12:06:28.000Z</time>
      </trkpt>
      <trkpt lat="41.65657" lon="20.31428">
        <ele>547.13000488281</ele>
        <time>2023-09-30T12:06:27.000Z</time>
      </trkpt>
      <trkpt lat="41.65661" lon="20.31432">
        <ele>546.16998291016</ele>
        <time>2023-09-30T12:06:26.000Z</time>
      </trkpt>
      <trkpt lat="41.65663" lon="20.31436">
        <ele>545.69000244141</ele>
        <time>2023-09-30T12:06:25.000Z</time>
      </trkpt>
      <trkpt lat="41.65664" lon="20.31442">
        <ele>544.71997070312</ele>
        <time>2023-09-30T12:06:24.000Z</time>
      </trkpt>
      <trkpt lat="41.65661" lon="20.3145">
        <ele>543.76000976562</ele>
        <time>2023-09-30T12:06:23.000Z</time>
      </trkpt>
      <trkpt lat="41.65656" lon="20.31458">
        <ele>542.79998779297</ele>
        <time>2023-09-30T12:06:22.000Z</time>
      </trkpt>
      <trkpt lat="41.6565" lon="20.31464">
        <ele>541.84002685547</ele>
        <time>2023-09-30T12:06:21.000Z</time>
      </trkpt>
      <trkpt lat="41.65644" lon="20.31472">
        <ele>540.88000488281</ele>
        <time>2023-09-30T12:06:20.000Z</time>
      </trkpt>
      <trkpt lat="41.65633" lon="20.31485">
        <ele>538.96002197266</ele>
        <time>2023-09-30T12:06:19.000Z</time>
      </trkpt>
      <trkpt lat="41.65627" lon="20.31493">
        <ele>538.47998046875</ele>
        <time>2023-09-30T12:06:18.000Z</time>
      </trkpt>
      <trkpt lat="41.65616" lon="20.31506">
        <ele>537.51000976562</ele>
        <time>2023-09-30T12:06:17.000Z</time>
      </trkpt>
      <trkpt lat="41.65609" lon="20.31516">
        <ele>536.54998779297</ele>
        <time>2023-09-30T12:06:16.000Z</time>
      </trkpt>
      <trkpt lat="41.65607" lon="20.31519">
        <ele>536.07000732422</ele>
        <time>2023-09-30T12:06:15.000Z</time>
      </trkpt>
      <trkpt lat="41.65597" lon="20.31537">
        <ele>535.10998535156</ele>
        <time>2023-09-30T12:06:14.000Z</time>
      </trkpt>
      <trkpt lat="41.65593" lon="20.31545">
        <ele>535.10998535156</ele>
        <time>2023-09-30T12:06:13.000Z</time>
      </trkpt>
      <trkpt lat="41.65591" lon="20.31553">
        <ele>535.59002685547</ele>
        <time>2023-09-30T12:06:12.000Z</time>
      </trkpt>
      <trkpt lat="41.6559" lon="20.31561">
        <ele>536.07000732422</ele>
        <time>2023-09-30T12:06:11.000Z</time>
      </trkpt>
      <trkpt lat="41.6559" lon="20.31569">
        <ele>536.07000732422</ele>
        <time>2023-09-30T12:06:10.000Z</time>
      </trkpt>
      <trkpt lat="41.65592" lon="20.31576">
        <ele>536.54998779297</ele>
        <time>2023-09-30T12:06:09.000Z</time>
      </trkpt>
      <trkpt lat="41.65595" lon="20.31582">
        <ele>536.54998779297</ele>
        <time>2023-09-30T12:06:08.000Z</time>
      </trkpt>
      <trkpt lat="41.65599" lon="20.31586">
        <ele>536.54998779297</ele>
        <time>2023-09-30T12:06:07.000Z</time>
      </trkpt>
      <trkpt lat="41.65604" lon="20.31589">
        <ele>537.03002929688</ele>
        <time>2023-09-30T12:06:06.000Z</time>
      </trkpt>
      <trkpt lat="41.65608" lon="20.31589">
        <ele>537.03002929688</ele>
        <time>2023-09-30T12:06:05.000Z</time>
      </trkpt>
      <trkpt lat="41.65614" lon="20.31586">
        <ele>537.51000976562</ele>
        <time>2023-09-30T12:06:04.000Z</time>
      </trkpt>
      <trkpt lat="41.65621" lon="20.3158">
        <ele>537.51000976562</ele>
        <time>2023-09-30T12:06:03.000Z</time>
      </trkpt>
      <trkpt lat="41.65628" lon="20.31575">
        <ele>537.51000976562</ele>
        <time>2023-09-30T12:06:02.000Z</time>
      </trkpt>
      <trkpt lat="41.65634" lon="20.31571">
        <ele>537.51000976562</ele>
        <time>2023-09-30T12:06:01.000Z</time>
      </trkpt>
      <trkpt lat="41.65642" lon="20.31568">
        <ele>537.98999023438</ele>
        <time>2023-09-30T12:06:00.000Z</time>
      </trkpt>
      <trkpt lat="41.65654" lon="20.31563">
        <ele>537.98999023438</ele>
        <time>2023-09-30T12:05:59.000Z</time>
      </trkpt>
      <trkpt lat="41.65662" lon="20.3156">
        <ele>537.98999023438</ele>
        <time>2023-09-30T12:05:58.000Z</time>
      </trkpt>
      <trkpt lat="41.65671" lon="20.31556">
        <ele>537.98999023438</ele>
        <time>2023-09-30T12:05:57.000Z</time>
      </trkpt>
      <trkpt lat="41.65685" lon="20.31551">
        <ele>537.51000976562</ele>
        <time>2023-09-30T12:05:56.000Z</time>
      </trkpt>
      <trkpt lat="41.65694" lon="20.31547">
        <ele>537.03002929688</ele>
        <time>2023-09-30T12:05:55.000Z</time>
      </trkpt>
      <trkpt lat="41.65706" lon="20.31542">
        <ele>537.03002929688</ele>
        <time>2023-09-30T12:05:53.000Z</time>
      </trkpt>
      <trkpt lat="41.65732" lon="20.3153">
        <ele>536.07000732422</ele>
        <time>2023-09-30T12:05:51.000Z</time>
      </trkpt>
      <trkpt lat="41.65753" lon="20.31521">
        <ele>535.10998535156</ele>
        <time>2023-09-30T12:05:49.000Z</time>
      </trkpt>
      <trkpt lat="41.65761" lon="20.31517">
        <ele>535.10998535156</ele>
        <time>2023-09-30T12:05:48.000Z</time>
      </trkpt>
      <trkpt lat="41.65766" lon="20.31514">
        <ele>535.10998535156</ele>
        <time>2023-09-30T12:05:47.000Z</time>
      </trkpt>
      <trkpt lat="41.65786" lon="20.315">
        <ele>534.15002441406</ele>
        <time>2023-09-30T12:05:45.000Z</time>
      </trkpt>
      <trkpt lat="41.65793" lon="20.31494">
        <ele>533.66998291016</ele>
        <time>2023-09-30T12:05:44.000Z</time>
      </trkpt>
      <trkpt lat="41.65809" lon="20.31479">
        <ele>533.19000244141</ele>
        <time>2023-09-30T12:05:42.000Z</time>
      </trkpt>
      <trkpt lat="41.65816" lon="20.31473">
        <ele>532.71002197266</ele>
        <time>2023-09-30T12:05:41.000Z</time>
      </trkpt>
      <trkpt lat="41.65825" lon="20.31467">
        <ele>532.71002197266</ele>
        <time>2023-09-30T12:05:40.000Z</time>
      </trkpt>
      <trkpt lat="41.65833" lon="20.31462">
        <ele>532.22998046875</ele>
        <time>2023-09-30T12:05:39.000Z</time>
      </trkpt>
      <trkpt lat="41.6584" lon="20.31455">
        <ele>531.75</ele>
        <time>2023-09-30T12:05:38.000Z</time>
      </trkpt>
      <trkpt lat="41.65843" lon="20.31452">
        <ele>531.75</ele>
        <time>2023-09-30T12:05:37.000Z</time>
      </trkpt>
      <trkpt lat="41.65848" lon="20.31446">
        <ele>531.75</ele>
        <time>2023-09-30T12:05:36.000Z</time>
      </trkpt>
      <trkpt lat="41.65857" lon="20.31435">
        <ele>531.27001953125</ele>
        <time>2023-09-30T12:05:35.000Z</time>
      </trkpt>
      <trkpt lat="41.65861" lon="20.31429">
        <ele>530.78997802734</ele>
        <time>2023-09-30T12:05:34.000Z</time>
      </trkpt>
      <trkpt lat="41.65866" lon="20.31424">
        <ele>530.29998779297</ele>
        <time>2023-09-30T12:05:33.000Z</time>
      </trkpt>
      <trkpt lat="41.65871" lon="20.31421">
        <ele>529.82000732422</ele>
        <time>2023-09-30T12:05:32.000Z</time>
      </trkpt>
      <trkpt lat="41.65876" lon="20.31419">
        <ele>529.34002685547</ele>
        <time>2023-09-30T12:05:31.000Z</time>
      </trkpt>
      <trkpt lat="41.65881" lon="20.31418">
        <ele>529.34002685547</ele>
        <time>2023-09-30T12:05:30.000Z</time>
      </trkpt>
      <trkpt lat="41.65886" lon="20.31419">
        <ele>529.34002685547</ele>
        <time>2023-09-30T12:05:29.000Z</time>
      </trkpt>
      <trkpt lat="41.65891" lon="20.31424">
        <ele>528.85998535156</ele>
        <time>2023-09-30T12:05:28.000Z</time>
      </trkpt>
      <trkpt lat="41.65895" lon="20.31432">
        <ele>528.38000488281</ele>
        <time>2023-09-30T12:05:27.000Z</time>
      </trkpt>
      <trkpt lat="41.65897" lon="20.31438">
        <ele>527.90002441406</ele>
        <time>2023-09-30T12:05:26.000Z</time>
      </trkpt>
      <trkpt lat="41.65902" lon="20.31454">
        <ele>527.90002441406</ele>
        <time>2023-09-30T12:05:25.000Z</time>
      </trkpt>
      <trkpt lat="41.65906" lon="20.31463">
        <ele>527.41998291016</ele>
        <time>2023-09-30T12:05:24.000Z</time>
      </trkpt>
      <trkpt lat="41.65911" lon="20.3147">
        <ele>526.94000244141</ele>
        <time>2023-09-30T12:05:23.000Z</time>
      </trkpt>
      <trkpt lat="41.65917" lon="20.31477">
        <ele>525.97998046875</ele>
        <time>2023-09-30T12:05:22.000Z</time>
      </trkpt>
      <trkpt lat="41.65927" lon="20.31489">
        <ele>524.53997802734</ele>
        <time>2023-09-30T12:05:21.000Z</time>
      </trkpt>
      <trkpt lat="41.65932" lon="20.31497">
        <ele>524.05999755859</ele>
        <time>2023-09-30T12:05:20.000Z</time>
      </trkpt>
      <trkpt lat="41.65936" lon="20.31504">
        <ele>523.58001708984</ele>
        <time>2023-09-30T12:05:19.000Z</time>
      </trkpt>
      <trkpt lat="41.65945" lon="20.3152">
        <ele>522.13000488281</ele>
        <time>2023-09-30T12:05:18.000Z</time>
      </trkpt>
      <trkpt lat="41.65952" lon="20.31528">
        <ele>521.65002441406</ele>
        <time>2023-09-30T12:05:17.000Z</time>
      </trkpt>
      <trkpt lat="41.65954" lon="20.3153">
        <ele>521.65002441406</ele>
        <time>2023-09-30T12:05:16.000Z</time>
      </trkpt>
      <trkpt lat="41.6599" lon="20.31558">
        <ele>520.21002197266</ele>
        <time>2023-09-30T12:05:13.000Z</time>
      </trkpt>
      <trkpt lat="41.66007" lon="20.3157">
        <ele>519.72998046875</ele>
        <time>2023-09-30T12:05:11.000Z</time>
      </trkpt>
      <trkpt lat="41.66019" lon="20.31579">
        <ele>519.25</ele>
        <time>2023-09-30T12:05:10.000Z</time>
      </trkpt>
      <trkpt lat="41.66021" lon="20.31581">
        <ele>519.25</ele>
        <time>2023-09-30T12:05:09.000Z</time>
      </trkpt>
      <trkpt lat="41.66044" lon="20.31596">
        <ele>519.25</ele>
        <time>2023-09-30T12:05:07.000Z</time>
      </trkpt>
      <trkpt lat="41.66053" lon="20.31604">
        <ele>519.25</ele>
        <time>2023-09-30T12:05:06.000Z</time>
      </trkpt>
      <trkpt lat="41.66054" lon="20.31605">
        <ele>518.77001953125</ele>
        <time>2023-09-30T12:05:05.000Z</time>
      </trkpt>
      <trkpt lat="41.66066" lon="20.31618">
        <ele>518.77001953125</ele>
        <time>2023-09-30T12:05:04.000Z</time>
      </trkpt>
      <trkpt lat="41.66074" lon="20.31623">
        <ele>519.25</ele>
        <time>2023-09-30T12:05:03.000Z</time>
      </trkpt>
      <trkpt lat="41.66079" lon="20.31625">
        <ele>519.25</ele>
        <time>2023-09-30T12:05:02.000Z</time>
      </trkpt>
      <trkpt lat="41.66091" lon="20.3163">
        <ele>519.72998046875</ele>
        <time>2023-09-30T12:05:01.000Z</time>
      </trkpt>
      <trkpt lat="41.66099" lon="20.31634">
        <ele>520.21002197266</ele>
        <time>2023-09-30T12:05:00.000Z</time>
      </trkpt>
      <trkpt lat="41.66106" lon="20.31638">
        <ele>520.69000244141</ele>
        <time>2023-09-30T12:04:59.000Z</time>
      </trkpt>
      <trkpt lat="41.6612" lon="20.31649">
        <ele>521.65002441406</ele>
        <time>2023-09-30T12:04:57.000Z</time>
      </trkpt>
      <trkpt lat="41.66128" lon="20.31655">
        <ele>522.13000488281</ele>
        <time>2023-09-30T12:04:56.000Z</time>
      </trkpt>
      <trkpt lat="41.66135" lon="20.31658">
        <ele>522.13000488281</ele>
        <time>2023-09-30T12:04:55.000Z</time>
      </trkpt>
      <trkpt lat="41.66143" lon="20.31661">
        <ele>522.60998535156</ele>
        <time>2023-09-30T12:04:54.000Z</time>
      </trkpt>
      <trkpt lat="41.6615" lon="20.31662">
        <ele>523.09002685547</ele>
        <time>2023-09-30T12:04:53.000Z</time>
      </trkpt>
      <trkpt lat="41.66156" lon="20.31661">
        <ele>523.09002685547</ele>
        <time>2023-09-30T12:04:52.000Z</time>
      </trkpt>
      <trkpt lat="41.66167" lon="20.31659">
        <ele>523.09002685547</ele>
        <time>2023-09-30T12:04:51.000Z</time>
      </trkpt>
      <trkpt lat="41.66173" lon="20.31657">
        <ele>523.58001708984</ele>
        <time>2023-09-30T12:04:50.000Z</time>
      </trkpt>
      <trkpt lat="41.66179" lon="20.31656">
        <ele>523.58001708984</ele>
        <time>2023-09-30T12:04:49.000Z</time>
      </trkpt>
      <trkpt lat="41.66184" lon="20.31656">
        <ele>523.58001708984</ele>
        <time>2023-09-30T12:04:48.000Z</time>
      </trkpt>
      <trkpt lat="41.6619" lon="20.31658">
        <ele>524.05999755859</ele>
        <time>2023-09-30T12:04:47.000Z</time>
      </trkpt>
      <trkpt lat="41.66195" lon="20.31663">
        <ele>524.05999755859</ele>
        <time>2023-09-30T12:04:46.000Z</time>
      </trkpt>
      <trkpt lat="41.66199" lon="20.31667">
        <ele>524.05999755859</ele>
        <time>2023-09-30T12:04:45.000Z</time>
      </trkpt>
      <trkpt lat="41.6621" lon="20.31683">
        <ele>525.5</ele>
        <time>2023-09-30T12:04:43.000Z</time>
      </trkpt>
      <trkpt lat="41.66216" lon="20.31688">
        <ele>525.5</ele>
        <time>2023-09-30T12:04:42.000Z</time>
      </trkpt>
      <trkpt lat="41.66222" lon="20.31692">
        <ele>525.5</ele>
        <time>2023-09-30T12:04:41.000Z</time>
      </trkpt>
      <trkpt lat="41.66227" lon="20.31697">
        <ele>525.5</ele>
        <time>2023-09-30T12:04:40.000Z</time>
      </trkpt>
      <trkpt lat="41.66232" lon="20.31704">
        <ele>525.02001953125</ele>
        <time>2023-09-30T12:04:39.000Z</time>
      </trkpt>
      <trkpt lat="41.66236" lon="20.31712">
        <ele>525.02001953125</ele>
        <time>2023-09-30T12:04:38.000Z</time>
      </trkpt>
      <trkpt lat="41.6624" lon="20.31723">
        <ele>525.5</ele>
        <time>2023-09-30T12:04:37.000Z</time>
      </trkpt>
      <trkpt lat="41.66242" lon="20.31733">
        <ele>525.5</ele>
        <time>2023-09-30T12:04:36.000Z</time>
      </trkpt>
      <trkpt lat="41.66243" lon="20.31744">
        <ele>524.53997802734</ele>
        <time>2023-09-30T12:04:35.000Z</time>
      </trkpt>
      <trkpt lat="41.66244" lon="20.31754">
        <ele>524.05999755859</ele>
        <time>2023-09-30T12:04:34.000Z</time>
      </trkpt>
      <trkpt lat="41.66245" lon="20.31765">
        <ele>523.58001708984</ele>
        <time>2023-09-30T12:04:33.000Z</time>
      </trkpt>
      <trkpt lat="41.66246" lon="20.31792">
        <ele>523.09002685547</ele>
        <time>2023-09-30T12:04:31.000Z</time>
      </trkpt>
      <trkpt lat="41.66247" lon="20.31808">
        <ele>523.09002685547</ele>
        <time>2023-09-30T12:04:30.000Z</time>
      </trkpt>
      <trkpt lat="41.66247" lon="20.3182">
        <ele>523.09002685547</ele>
        <time>2023-09-30T12:04:29.000Z</time>
      </trkpt>
      <trkpt lat="41.66247" lon="20.31835">
        <ele>522.13000488281</ele>
        <time>2023-09-30T12:04:28.000Z</time>
      </trkpt>
      <trkpt lat="41.66247" lon="20.31845">
        <ele>521.65002441406</ele>
        <time>2023-09-30T12:04:27.000Z</time>
      </trkpt>
      <trkpt lat="41.66248" lon="20.31855">
        <ele>521.65002441406</ele>
        <time>2023-09-30T12:04:26.000Z</time>
      </trkpt>
      <trkpt lat="41.6625" lon="20.31866">
        <ele>520.69000244141</ele>
        <time>2023-09-30T12:04:25.000Z</time>
      </trkpt>
      <trkpt lat="41.66251" lon="20.31876">
        <ele>520.21002197266</ele>
        <time>2023-09-30T12:04:24.000Z</time>
      </trkpt>
      <trkpt lat="41.66254" lon="20.31882">
        <ele>519.25</ele>
        <time>2023-09-30T12:04:23.000Z</time>
      </trkpt>
      <trkpt lat="41.66258" lon="20.31888">
        <ele>518.28997802734</ele>
        <time>2023-09-30T12:04:22.000Z</time>
      </trkpt>
      <trkpt lat="41.66263" lon="20.31893">
        <ele>517.80999755859</ele>
        <time>2023-09-30T12:04:21.000Z</time>
      </trkpt>
      <trkpt lat="41.66269" lon="20.319">
        <ele>516.36999511719</ele>
        <time>2023-09-30T12:04:20.000Z</time>
      </trkpt>
      <trkpt lat="41.66271" lon="20.31902">
        <ele>515.88000488281</ele>
        <time>2023-09-30T12:04:19.000Z</time>
      </trkpt>
      <trkpt lat="41.66279" lon="20.31913">
        <ele>513.47998046875</ele>
        <time>2023-09-30T12:04:18.000Z</time>
      </trkpt>
      <trkpt lat="41.66284" lon="20.31917">
        <ele>513</ele>
        <time>2023-09-30T12:04:17.000Z</time>
      </trkpt>
      <trkpt lat="41.66296" lon="20.31929">
        <ele>512.03997802734</ele>
        <time>2023-09-30T12:04:15.000Z</time>
      </trkpt>
      <trkpt lat="41.66304" lon="20.31937">
        <ele>510.11999511719</ele>
        <time>2023-09-30T12:04:14.000Z</time>
      </trkpt>
      <trkpt lat="41.66311" lon="20.31944">
        <ele>508.67001342773</ele>
        <time>2023-09-30T12:04:13.000Z</time>
      </trkpt>
      <trkpt lat="41.66317" lon="20.3195">
        <ele>508.19000244141</ele>
        <time>2023-09-30T12:04:12.000Z</time>
      </trkpt>
      <trkpt lat="41.66337" lon="20.31966">
        <ele>506.75</ele>
        <time>2023-09-30T12:04:10.000Z</time>
      </trkpt>
      <trkpt lat="41.66348" lon="20.31975">
        <ele>505.79000854492</ele>
        <time>2023-09-30T12:04:09.000Z</time>
      </trkpt>
      <trkpt lat="41.66355" lon="20.31982">
        <ele>504.82998657227</ele>
        <time>2023-09-30T12:04:08.000Z</time>
      </trkpt>
      <trkpt lat="41.66362" lon="20.31991">
        <ele>503.86999511719</ele>
        <time>2023-09-30T12:04:07.000Z</time>
      </trkpt>
      <trkpt lat="41.6637" lon="20.32001">
        <ele>502.91000366211</ele>
        <time>2023-09-30T12:04:06.000Z</time>
      </trkpt>
      <trkpt lat="41.66378" lon="20.32008">
        <ele>501.95001220703</ele>
        <time>2023-09-30T12:04:05.000Z</time>
      </trkpt>
      <trkpt lat="41.6639" lon="20.32017">
        <ele>501.45999145508</ele>
        <time>2023-09-30T12:04:04.000Z</time>
      </trkpt>
      <trkpt lat="41.66398" lon="20.32025">
        <ele>500.01998901367</ele>
        <time>2023-09-30T12:04:03.000Z</time>
      </trkpt>
      <trkpt lat="41.66406" lon="20.32033">
        <ele>499.54000854492</ele>
        <time>2023-09-30T12:04:02.000Z</time>
      </trkpt>
      <trkpt lat="41.66412" lon="20.32043">
        <ele>499.05999755859</ele>
        <time>2023-09-30T12:04:01.000Z</time>
      </trkpt>
      <trkpt lat="41.66416" lon="20.32053">
        <ele>499.05999755859</ele>
        <time>2023-09-30T12:04:00.000Z</time>
      </trkpt>
      <trkpt lat="41.6642" lon="20.32063">
        <ele>498.57998657227</ele>
        <time>2023-09-30T12:03:59.000Z</time>
      </trkpt>
      <trkpt lat="41.66422" lon="20.32073">
        <ele>498.10000610352</ele>
        <time>2023-09-30T12:03:58.000Z</time>
      </trkpt>
      <trkpt lat="41.66423" lon="20.32084">
        <ele>497.61999511719</ele>
        <time>2023-09-30T12:03:57.000Z</time>
      </trkpt>
      <trkpt lat="41.66424" lon="20.32091">
        <ele>497.61999511719</ele>
        <time>2023-09-30T12:03:56.000Z</time>
      </trkpt>
      <trkpt lat="41.66424" lon="20.32103">
        <ele>496.66000366211</ele>
        <time>2023-09-30T12:03:55.000Z</time>
      </trkpt>
      <trkpt lat="41.66426" lon="20.32114">
        <ele>496.17999267578</ele>
        <time>2023-09-30T12:03:54.000Z</time>
      </trkpt>
      <trkpt lat="41.66429" lon="20.32123">
        <ele>495.70001220703</ele>
        <time>2023-09-30T12:03:53.000Z</time>
      </trkpt>
      <trkpt lat="41.66433" lon="20.3213">
        <ele>495.70001220703</ele>
        <time>2023-09-30T12:03:52.000Z</time>
      </trkpt>
      <trkpt lat="41.66438" lon="20.32135">
        <ele>495.2200012207</ele>
        <time>2023-09-30T12:03:51.000Z</time>
      </trkpt>
      <trkpt lat="41.66443" lon="20.32137">
        <ele>494.73999023438</ele>
        <time>2023-09-30T12:03:50.000Z</time>
      </trkpt>
      <trkpt lat="41.66449" lon="20.32137">
        <ele>494.26000976562</ele>
        <time>2023-09-30T12:03:49.000Z</time>
      </trkpt>
      <trkpt lat="41.66455" lon="20.32135">
        <ele>493.76998901367</ele>
        <time>2023-09-30T12:03:48.000Z</time>
      </trkpt>
      <trkpt lat="41.6646" lon="20.32129">
        <ele>493.29000854492</ele>
        <time>2023-09-30T12:03:47.000Z</time>
      </trkpt>
      <trkpt lat="41.66465" lon="20.32121">
        <ele>493.29000854492</ele>
        <time>2023-09-30T12:03:46.000Z</time>
      </trkpt>
      <trkpt lat="41.66468" lon="20.32112">
        <ele>493.29000854492</ele>
        <time>2023-09-30T12:03:45.000Z</time>
      </trkpt>
      <trkpt lat="41.66472" lon="20.32097">
        <ele>493.29000854492</ele>
        <time>2023-09-30T12:03:44.000Z</time>
      </trkpt>
      <trkpt lat="41.66475" lon="20.32088">
        <ele>493.29000854492</ele>
        <time>2023-09-30T12:03:43.000Z</time>
      </trkpt>
      <trkpt lat="41.66477" lon="20.32079">
        <ele>493.29000854492</ele>
        <time>2023-09-30T12:03:42.000Z</time>
      </trkpt>
      <trkpt lat="41.66481" lon="20.32065">
        <ele>493.29000854492</ele>
        <time>2023-09-30T12:03:41.000Z</time>
      </trkpt>
      <trkpt lat="41.66485" lon="20.32044">
        <ele>493.76998901367</ele>
        <time>2023-09-30T12:03:40.000Z</time>
      </trkpt>
      <trkpt lat="41.66488" lon="20.32035">
        <ele>493.76998901367</ele>
        <time>2023-09-30T12:03:39.000Z</time>
      </trkpt>
      <trkpt lat="41.66491" lon="20.32026">
        <ele>494.26000976562</ele>
        <time>2023-09-30T12:03:38.000Z</time>
      </trkpt>
      <trkpt lat="41.66496" lon="20.32019">
        <ele>494.73999023438</ele>
        <time>2023-09-30T12:03:37.000Z</time>
      </trkpt>
      <trkpt lat="41.66503" lon="20.32015">
        <ele>494.73999023438</ele>
        <time>2023-09-30T12:03:36.000Z</time>
      </trkpt>
      <trkpt lat="41.66511" lon="20.32012">
        <ele>494.26000976562</ele>
        <time>2023-09-30T12:03:35.000Z</time>
      </trkpt>
      <trkpt lat="41.66518" lon="20.32012">
        <ele>494.26000976562</ele>
        <time>2023-09-30T12:03:34.000Z</time>
      </trkpt>
      <trkpt lat="41.66527" lon="20.32015">
        <ele>493.29000854492</ele>
        <time>2023-09-30T12:03:33.000Z</time>
      </trkpt>
      <trkpt lat="41.6653" lon="20.32017">
        <ele>493.29000854492</ele>
        <time>2023-09-30T12:03:32.000Z</time>
      </trkpt>
      <trkpt lat="41.66546" lon="20.32027">
        <ele>492.32998657227</ele>
        <time>2023-09-30T12:03:31.000Z</time>
      </trkpt>
      <trkpt lat="41.66549" lon="20.32028">
        <ele>492.32998657227</ele>
        <time>2023-09-30T12:03:30.000Z</time>
      </trkpt>
      <trkpt lat="41.66567" lon="20.32037">
        <ele>491.85000610352</ele>
        <time>2023-09-30T12:03:29.000Z</time>
      </trkpt>
      <trkpt lat="41.66578" lon="20.32041">
        <ele>491.36999511719</ele>
        <time>2023-09-30T12:03:28.000Z</time>
      </trkpt>
      <trkpt lat="41.66588" lon="20.32043">
        <ele>490.89001464844</ele>
        <time>2023-09-30T12:03:27.000Z</time>
      </trkpt>
      <trkpt lat="41.66596" lon="20.32043">
        <ele>490.41000366211</ele>
        <time>2023-09-30T12:03:26.000Z</time>
      </trkpt>
      <trkpt lat="41.66609" lon="20.3204">
        <ele>489.92999267578</ele>
        <time>2023-09-30T12:03:25.000Z</time>
      </trkpt>
      <trkpt lat="41.6662" lon="20.32039">
        <ele>489.92999267578</ele>
        <time>2023-09-30T12:03:24.000Z</time>
      </trkpt>
      <trkpt lat="41.66631" lon="20.32041">
        <ele>489.45001220703</ele>
        <time>2023-09-30T12:03:23.000Z</time>
      </trkpt>
      <trkpt lat="41.66642" lon="20.32044">
        <ele>489.45001220703</ele>
        <time>2023-09-30T12:03:22.000Z</time>
      </trkpt>
      <trkpt lat="41.66652" lon="20.32046">
        <ele>488.9700012207</ele>
        <time>2023-09-30T12:03:21.000Z</time>
      </trkpt>
      <trkpt lat="41.66657" lon="20.32046">
        <ele>488.9700012207</ele>
        <time>2023-09-30T12:03:20.000Z</time>
      </trkpt>
      <trkpt lat="41.66683" lon="20.32046">
        <ele>489.45001220703</ele>
        <time>2023-09-30T12:03:18.000Z</time>
      </trkpt>
      <trkpt lat="41.66692" lon="20.32048">
        <ele>489.45001220703</ele>
        <time>2023-09-30T12:03:17.000Z</time>
      </trkpt>
      <trkpt lat="41.66699" lon="20.3205">
        <ele>488.9700012207</ele>
        <time>2023-09-30T12:03:16.000Z</time>
      </trkpt>
      <trkpt lat="41.66711" lon="20.32054">
        <ele>488.48999023438</ele>
        <time>2023-09-30T12:03:15.000Z</time>
      </trkpt>
      <trkpt lat="41.6672" lon="20.32057">
        <ele>488.48999023438</ele>
        <time>2023-09-30T12:03:14.000Z</time>
      </trkpt>
      <trkpt lat="41.66727" lon="20.32059">
        <ele>488.9700012207</ele>
        <time>2023-09-30T12:03:13.000Z</time>
      </trkpt>
      <trkpt lat="41.66747" lon="20.32065">
        <ele>488.9700012207</ele>
        <time>2023-09-30T12:03:11.000Z</time>
      </trkpt>
      <trkpt lat="41.66754" lon="20.32067">
        <ele>488.9700012207</ele>
        <time>2023-09-30T12:03:10.000Z</time>
      </trkpt>
      <trkpt lat="41.66762" lon="20.32069">
        <ele>488.9700012207</ele>
        <time>2023-09-30T12:03:09.000Z</time>
      </trkpt>
      <trkpt lat="41.66768" lon="20.32073">
        <ele>488.9700012207</ele>
        <time>2023-09-30T12:03:08.000Z</time>
      </trkpt>
      <trkpt lat="41.66773" lon="20.32077">
        <ele>488.48999023438</ele>
        <time>2023-09-30T12:03:07.000Z</time>
      </trkpt>
      <trkpt lat="41.66776" lon="20.32082">
        <ele>488.48999023438</ele>
        <time>2023-09-30T12:03:06.000Z</time>
      </trkpt>
      <trkpt lat="41.66779" lon="20.3209">
        <ele>488.01000976562</ele>
        <time>2023-09-30T12:03:05.000Z</time>
      </trkpt>
      <trkpt lat="41.66781" lon="20.32099">
        <ele>488.01000976562</ele>
        <time>2023-09-30T12:03:04.000Z</time>
      </trkpt>
      <trkpt lat="41.66783" lon="20.32107">
        <ele>488.48999023438</ele>
        <time>2023-09-30T12:03:03.000Z</time>
      </trkpt>
      <trkpt lat="41.66786" lon="20.32114">
        <ele>488.9700012207</ele>
        <time>2023-09-30T12:03:02.000Z</time>
      </trkpt>
      <trkpt lat="41.6679" lon="20.32118">
        <ele>489.45001220703</ele>
        <time>2023-09-30T12:03:01.000Z</time>
      </trkpt>
      <trkpt lat="41.66796" lon="20.3212">
        <ele>489.92999267578</ele>
        <time>2023-09-30T12:03:00.000Z</time>
      </trkpt>
      <trkpt lat="41.66803" lon="20.32119">
        <ele>490.41000366211</ele>
        <time>2023-09-30T12:02:59.000Z</time>
      </trkpt>
      <trkpt lat="41.66811" lon="20.32116">
        <ele>490.41000366211</ele>
        <time>2023-09-30T12:02:58.000Z</time>
      </trkpt>
      <trkpt lat="41.66818" lon="20.32112">
        <ele>490.41000366211</ele>
        <time>2023-09-30T12:02:57.000Z</time>
      </trkpt>
      <trkpt lat="41.66822" lon="20.32109">
        <ele>490.89001464844</ele>
        <time>2023-09-30T12:02:56.000Z</time>
      </trkpt>
      <trkpt lat="41.66844" lon="20.3209">
        <ele>491.36999511719</ele>
        <time>2023-09-30T12:02:54.000Z</time>
      </trkpt>
      <trkpt lat="41.66851" lon="20.32083">
        <ele>491.85000610352</ele>
        <time>2023-09-30T12:02:53.000Z</time>
      </trkpt>
      <trkpt lat="41.66874" lon="20.32056">
        <ele>492.80999755859</ele>
        <time>2023-09-30T12:02:50.000Z</time>
      </trkpt>
      <trkpt lat="41.66878" lon="20.3205">
        <ele>492.80999755859</ele>
        <time>2023-09-30T12:02:49.000Z</time>
      </trkpt>
      <trkpt lat="41.66885" lon="20.3204">
        <ele>493.29000854492</ele>
        <time>2023-09-30T12:02:48.000Z</time>
      </trkpt>
      <trkpt lat="41.6689" lon="20.32035">
        <ele>493.76998901367</ele>
        <time>2023-09-30T12:02:47.000Z</time>
      </trkpt>
      <trkpt lat="41.66895" lon="20.32033">
        <ele>493.76998901367</ele>
        <time>2023-09-30T12:02:46.000Z</time>
      </trkpt>
      <trkpt lat="41.66903" lon="20.32031">
        <ele>493.76998901367</ele>
        <time>2023-09-30T12:02:45.000Z</time>
      </trkpt>
      <trkpt lat="41.6691" lon="20.32028">
        <ele>494.26000976562</ele>
        <time>2023-09-30T12:02:44.000Z</time>
      </trkpt>
      <trkpt lat="41.66917" lon="20.32023">
        <ele>494.26000976562</ele>
        <time>2023-09-30T12:02:43.000Z</time>
      </trkpt>
      <trkpt lat="41.66923" lon="20.32015">
        <ele>494.73999023438</ele>
        <time>2023-09-30T12:02:42.000Z</time>
      </trkpt>
      <trkpt lat="41.66927" lon="20.32009">
        <ele>495.2200012207</ele>
        <time>2023-09-30T12:02:41.000Z</time>
      </trkpt>
      <trkpt lat="41.66933" lon="20.32003">
        <ele>495.70001220703</ele>
        <time>2023-09-30T12:02:40.000Z</time>
      </trkpt>
      <trkpt lat="41.66939" lon="20.32">
        <ele>496.17999267578</ele>
        <time>2023-09-30T12:02:39.000Z</time>
      </trkpt>
      <trkpt lat="41.66947" lon="20.31998">
        <ele>496.17999267578</ele>
        <time>2023-09-30T12:02:38.000Z</time>
      </trkpt>
      <trkpt lat="41.66953" lon="20.31997">
        <ele>496.66000366211</ele>
        <time>2023-09-30T12:02:37.000Z</time>
      </trkpt>
      <trkpt lat="41.66959" lon="20.31995">
        <ele>496.66000366211</ele>
        <time>2023-09-30T12:02:36.000Z</time>
      </trkpt>
      <trkpt lat="41.66964" lon="20.31994">
        <ele>496.17999267578</ele>
        <time>2023-09-30T12:02:35.000Z</time>
      </trkpt>
      <trkpt lat="41.6697" lon="20.31992">
        <ele>496.17999267578</ele>
        <time>2023-09-30T12:02:34.000Z</time>
      </trkpt>
      <trkpt lat="41.66975" lon="20.31991">
        <ele>496.17999267578</ele>
        <time>2023-09-30T12:02:33.000Z</time>
      </trkpt>
      <trkpt lat="41.66978" lon="20.3199">
        <ele>496.17999267578</ele>
        <time>2023-09-30T12:02:32.000Z</time>
      </trkpt>
      <trkpt lat="41.66982" lon="20.31989">
        <ele>496.17999267578</ele>
        <time>2023-09-30T12:02:31.000Z</time>
      </trkpt>
      <trkpt lat="41.66988" lon="20.31988">
        <ele>496.17999267578</ele>
        <time>2023-09-30T12:02:30.000Z</time>
      </trkpt>
      <trkpt lat="41.66994" lon="20.31986">
        <ele>496.17999267578</ele>
        <time>2023-09-30T12:02:29.000Z</time>
      </trkpt>
      <trkpt lat="41.66997" lon="20.31986">
        <ele>496.17999267578</ele>
        <time>2023-09-30T12:02:28.000Z</time>
      </trkpt>
      <trkpt lat="41.67004" lon="20.31984">
        <ele>495.70001220703</ele>
        <time>2023-09-30T12:02:27.000Z</time>
      </trkpt>
      <trkpt lat="41.67009" lon="20.31982">
        <ele>495.70001220703</ele>
        <time>2023-09-30T12:02:26.000Z</time>
      </trkpt>
      <trkpt lat="41.6701" lon="20.31981">
        <ele>495.70001220703</ele>
        <time>2023-09-30T12:02:25.000Z</time>
      </trkpt>
      <trkpt lat="41.67016" lon="20.31978">
        <ele>495.70001220703</ele>
        <time>2023-09-30T12:02:24.000Z</time>
      </trkpt>
      <trkpt lat="41.67021" lon="20.31974">
        <ele>495.70001220703</ele>
        <time>2023-09-30T12:02:23.000Z</time>
      </trkpt>
      <trkpt lat="41.67025" lon="20.31971">
        <ele>495.70001220703</ele>
        <time>2023-09-30T12:02:22.000Z</time>
      </trkpt>
      <trkpt lat="41.67029" lon="20.31967">
        <ele>495.70001220703</ele>
        <time>2023-09-30T12:02:21.000Z</time>
      </trkpt>
      <trkpt lat="41.67032" lon="20.31963">
        <ele>495.2200012207</ele>
        <time>2023-09-30T12:02:20.000Z</time>
      </trkpt>
      <trkpt lat="41.67035" lon="20.31958">
        <ele>495.2200012207</ele>
        <time>2023-09-30T12:02:19.000Z</time>
      </trkpt>
      <trkpt lat="41.67038" lon="20.31953">
        <ele>495.70001220703</ele>
        <time>2023-09-30T12:02:18.000Z</time>
      </trkpt>
      <trkpt lat="41.67039" lon="20.31951">
        <ele>495.70001220703</ele>
        <time>2023-09-30T12:02:17.000Z</time>
      </trkpt>
      <trkpt lat="41.67043" lon="20.31943">
        <ele>495.70001220703</ele>
        <time>2023-09-30T12:02:16.000Z</time>
      </trkpt>
      <trkpt lat="41.67047" lon="20.31937">
        <ele>495.70001220703</ele>
        <time>2023-09-30T12:02:15.000Z</time>
      </trkpt>
      <trkpt lat="41.67051" lon="20.31933">
        <ele>495.70001220703</ele>
        <time>2023-09-30T12:02:14.000Z</time>
      </trkpt>
      <trkpt lat="41.67056" lon="20.3193">
        <ele>495.70001220703</ele>
        <time>2023-09-30T12:02:13.000Z</time>
      </trkpt>
      <trkpt lat="41.67061" lon="20.31929">
        <ele>495.70001220703</ele>
        <time>2023-09-30T12:02:12.000Z</time>
      </trkpt>
      <trkpt lat="41.67066" lon="20.3193">
        <ele>495.70001220703</ele>
        <time>2023-09-30T12:02:11.000Z</time>
      </trkpt>
      <trkpt lat="41.67069" lon="20.31931">
        <ele>495.70001220703</ele>
        <time>2023-09-30T12:02:10.000Z</time>
      </trkpt>
      <trkpt lat="41.67074" lon="20.31934">
        <ele>495.70001220703</ele>
        <time>2023-09-30T12:02:09.000Z</time>
      </trkpt>
      <trkpt lat="41.67078" lon="20.31938">
        <ele>496.17999267578</ele>
        <time>2023-09-30T12:02:08.000Z</time>
      </trkpt>
      <trkpt lat="41.6708" lon="20.3194">
        <ele>495.70001220703</ele>
        <time>2023-09-30T12:02:07.000Z</time>
      </trkpt>
      <trkpt lat="41.67086" lon="20.31946">
        <ele>495.70001220703</ele>
        <time>2023-09-30T12:02:06.000Z</time>
      </trkpt>
      <trkpt lat="41.6709" lon="20.31952">
        <ele>496.17999267578</ele>
        <time>2023-09-30T12:02:05.000Z</time>
      </trkpt>
      <trkpt lat="41.67093" lon="20.31956">
        <ele>495.70001220703</ele>
        <time>2023-09-30T12:02:04.000Z</time>
      </trkpt>
      <trkpt lat="41.67098" lon="20.31966">
        <ele>495.70001220703</ele>
        <time>2023-09-30T12:02:03.000Z</time>
      </trkpt>
      <trkpt lat="41.67106" lon="20.31983">
        <ele>494.73999023438</ele>
        <time>2023-09-30T12:02:01.000Z</time>
      </trkpt>
      <trkpt lat="41.67112" lon="20.31994">
        <ele>493.76998901367</ele>
        <time>2023-09-30T12:02:00.000Z</time>
      </trkpt>
      <trkpt lat="41.67117" lon="20.32002">
        <ele>493.76998901367</ele>
        <time>2023-09-30T12:01:59.000Z</time>
      </trkpt>
      <trkpt lat="41.67119" lon="20.32006">
        <ele>493.29000854492</ele>
        <time>2023-09-30T12:01:58.000Z</time>
      </trkpt>
      <trkpt lat="41.67126" lon="20.3202">
        <ele>492.32998657227</ele>
        <time>2023-09-30T12:01:57.000Z</time>
      </trkpt>
      <trkpt lat="41.6713" lon="20.3203">
        <ele>491.85000610352</ele>
        <time>2023-09-30T12:01:56.000Z</time>
      </trkpt>
      <trkpt lat="41.67134" lon="20.32037">
        <ele>491.36999511719</ele>
        <time>2023-09-30T12:01:55.000Z</time>
      </trkpt>
      <trkpt lat="41.67138" lon="20.32047">
        <ele>490.89001464844</ele>
        <time>2023-09-30T12:01:54.000Z</time>
      </trkpt>
      <trkpt lat="41.6714" lon="20.32052">
        <ele>490.41000366211</ele>
        <time>2023-09-30T12:01:53.000Z</time>
      </trkpt>
      <trkpt lat="41.67155" lon="20.32081">
        <ele>489.45001220703</ele>
        <time>2023-09-30T12:01:50.000Z</time>
      </trkpt>
      <trkpt lat="41.67161" lon="20.32093">
        <ele>488.9700012207</ele>
        <time>2023-09-30T12:01:49.000Z</time>
      </trkpt>
      <trkpt lat="41.67165" lon="20.321">
        <ele>488.48999023438</ele>
        <time>2023-09-30T12:01:48.000Z</time>
      </trkpt>
      <trkpt lat="41.67173" lon="20.32112">
        <ele>487.5299987793</ele>
        <time>2023-09-30T12:01:47.000Z</time>
      </trkpt>
      <trkpt lat="41.67183" lon="20.32128">
        <ele>485.11999511719</ele>
        <time>2023-09-30T12:01:45.000Z</time>
      </trkpt>
      <trkpt lat="41.67187" lon="20.32135">
        <ele>484.64001464844</ele>
        <time>2023-09-30T12:01:44.000Z</time>
      </trkpt>
      <trkpt lat="41.67192" lon="20.32141">
        <ele>483.67999267578</ele>
        <time>2023-09-30T12:01:43.000Z</time>
      </trkpt>
      <trkpt lat="41.67197" lon="20.32146">
        <ele>483.20001220703</ele>
        <time>2023-09-30T12:01:42.000Z</time>
      </trkpt>
      <trkpt lat="41.67203" lon="20.32149">
        <ele>482.7200012207</ele>
        <time>2023-09-30T12:01:41.000Z</time>
      </trkpt>
      <trkpt lat="41.67209" lon="20.32149">
        <ele>482.23999023438</ele>
        <time>2023-09-30T12:01:40.000Z</time>
      </trkpt>
      <trkpt lat="41.67216" lon="20.32147">
        <ele>481.76000976562</ele>
        <time>2023-09-30T12:01:39.000Z</time>
      </trkpt>
      <trkpt lat="41.67223" lon="20.32143">
        <ele>481.2799987793</ele>
        <time>2023-09-30T12:01:38.000Z</time>
      </trkpt>
      <trkpt lat="41.67231" lon="20.32138">
        <ele>480.32000732422</ele>
        <time>2023-09-30T12:01:37.000Z</time>
      </trkpt>
      <trkpt lat="41.67239" lon="20.32133">
        <ele>479.83999633789</ele>
        <time>2023-09-30T12:01:36.000Z</time>
      </trkpt>
      <trkpt lat="41.67249" lon="20.32131">
        <ele>478.86999511719</ele>
        <time>2023-09-30T12:01:35.000Z</time>
      </trkpt>
      <trkpt lat="41.67254" lon="20.3213">
        <ele>478.39001464844</ele>
        <time>2023-09-30T12:01:34.000Z</time>
      </trkpt>
      <trkpt lat="41.67264" lon="20.3213">
        <ele>477.42999267578</ele>
        <time>2023-09-30T12:01:33.000Z</time>
      </trkpt>
      <trkpt lat="41.67275" lon="20.32131">
        <ele>476.4700012207</ele>
        <time>2023-09-30T12:01:32.000Z</time>
      </trkpt>
      <trkpt lat="41.67282" lon="20.32134">
        <ele>475.98999023438</ele>
        <time>2023-09-30T12:01:31.000Z</time>
      </trkpt>
      <trkpt lat="41.67287" lon="20.32138">
        <ele>475.51000976562</ele>
        <time>2023-09-30T12:01:30.000Z</time>
      </trkpt>
      <trkpt lat="41.67291" lon="20.32144">
        <ele>474.54998779297</ele>
        <time>2023-09-30T12:01:29.000Z</time>
      </trkpt>
      <trkpt lat="41.67294" lon="20.3215">
        <ele>473.58999633789</ele>
        <time>2023-09-30T12:01:28.000Z</time>
      </trkpt>
      <trkpt lat="41.67296" lon="20.32162">
        <ele>473.10998535156</ele>
        <time>2023-09-30T12:01:27.000Z</time>
      </trkpt>
      <trkpt lat="41.67299" lon="20.32173">
        <ele>472.63000488281</ele>
        <time>2023-09-30T12:01:26.000Z</time>
      </trkpt>
      <trkpt lat="41.67304" lon="20.32183">
        <ele>472.63000488281</ele>
        <time>2023-09-30T12:01:25.000Z</time>
      </trkpt>
      <trkpt lat="41.67307" lon="20.32188">
        <ele>472.63000488281</ele>
        <time>2023-09-30T12:01:24.000Z</time>
      </trkpt>
      <trkpt lat="41.67316" lon="20.322">
        <ele>472.63000488281</ele>
        <time>2023-09-30T12:01:23.000Z</time>
      </trkpt>
      <trkpt lat="41.6732" lon="20.32209">
        <ele>472.14001464844</ele>
        <time>2023-09-30T12:01:22.000Z</time>
      </trkpt>
      <trkpt lat="41.67323" lon="20.32216">
        <ele>471.66000366211</ele>
        <time>2023-09-30T12:01:21.000Z</time>
      </trkpt>
      <trkpt lat="41.67326" lon="20.32228">
        <ele>471.66000366211</ele>
        <time>2023-09-30T12:01:20.000Z</time>
      </trkpt>
      <trkpt lat="41.67331" lon="20.32239">
        <ele>471.66000366211</ele>
        <time>2023-09-30T12:01:19.000Z</time>
      </trkpt>
      <trkpt lat="41.67332" lon="20.32241">
        <ele>471.66000366211</ele>
        <time>2023-09-30T12:01:18.000Z</time>
      </trkpt>
      <trkpt lat="41.67342" lon="20.32259">
        <ele>471.66000366211</ele>
        <time>2023-09-30T12:01:17.000Z</time>
      </trkpt>
      <trkpt lat="41.67358" lon="20.32285">
        <ele>471.17999267578</ele>
        <time>2023-09-30T12:01:14.000Z</time>
      </trkpt>
      <trkpt lat="41.67369" lon="20.32301">
        <ele>471.17999267578</ele>
        <time>2023-09-30T12:01:13.000Z</time>
      </trkpt>
      <trkpt lat="41.67375" lon="20.32311">
        <ele>470.70001220703</ele>
        <time>2023-09-30T12:01:12.000Z</time>
      </trkpt>
      <trkpt lat="41.67377" lon="20.32315">
        <ele>470.70001220703</ele>
        <time>2023-09-30T12:01:11.000Z</time>
      </trkpt>
      <trkpt lat="41.67384" lon="20.32331">
        <ele>469.73999023438</ele>
        <time>2023-09-30T12:01:10.000Z</time>
      </trkpt>
      <trkpt lat="41.67388" lon="20.32337">
        <ele>469.73999023438</ele>
        <time>2023-09-30T12:01:09.000Z</time>
      </trkpt>
      <trkpt lat="41.67393" lon="20.32341">
        <ele>469.26000976562</ele>
        <time>2023-09-30T12:01:08.000Z</time>
      </trkpt>
      <trkpt lat="41.67399" lon="20.32342">
        <ele>468.7799987793</ele>
        <time>2023-09-30T12:01:07.000Z</time>
      </trkpt>
      <trkpt lat="41.67402" lon="20.32343">
        <ele>468.7799987793</ele>
        <time>2023-09-30T12:01:06.000Z</time>
      </trkpt>
      <trkpt lat="41.67408" lon="20.32343">
        <ele>468.29998779297</ele>
        <time>2023-09-30T12:01:05.000Z</time>
      </trkpt>
      <trkpt lat="41.67424" lon="20.32342">
        <ele>467.33999633789</ele>
        <time>2023-09-30T12:01:04.000Z</time>
      </trkpt>
      <trkpt lat="41.67468" lon="20.32345">
        <ele>464.45001220703</ele>
        <time>2023-09-30T12:01:00.000Z</time>
      </trkpt>
      <trkpt lat="41.67475" lon="20.32347">
        <ele>464.45001220703</ele>
        <time>2023-09-30T12:00:59.000Z</time>
      </trkpt>
      <trkpt lat="41.67481" lon="20.32351">
        <ele>463.9700012207</ele>
        <time>2023-09-30T12:00:58.000Z</time>
      </trkpt>
      <trkpt lat="41.67485" lon="20.32357">
        <ele>463.48999023438</ele>
        <time>2023-09-30T12:00:57.000Z</time>
      </trkpt>
      <trkpt lat="41.67488" lon="20.32364">
        <ele>463.01000976562</ele>
        <time>2023-09-30T12:00:56.000Z</time>
      </trkpt>
      <trkpt lat="41.67488" lon="20.32372">
        <ele>462.5299987793</ele>
        <time>2023-09-30T12:00:55.000Z</time>
      </trkpt>
      <trkpt lat="41.67488" lon="20.3238">
        <ele>462.04998779297</ele>
        <time>2023-09-30T12:00:54.000Z</time>
      </trkpt>
      <trkpt lat="41.67487" lon="20.32391">
        <ele>461.08999633789</ele>
        <time>2023-09-30T12:00:53.000Z</time>
      </trkpt>
      <trkpt lat="41.67486" lon="20.32401">
        <ele>460.60998535156</ele>
        <time>2023-09-30T12:00:52.000Z</time>
      </trkpt>
      <trkpt lat="41.67487" lon="20.32416">
        <ele>459.64999389648</ele>
        <time>2023-09-30T12:00:51.000Z</time>
      </trkpt>
      <trkpt lat="41.67488" lon="20.32427">
        <ele>459.64999389648</ele>
        <time>2023-09-30T12:00:50.000Z</time>
      </trkpt>
      <trkpt lat="41.67491" lon="20.3244">
        <ele>459.17001342773</ele>
        <time>2023-09-30T12:00:49.000Z</time>
      </trkpt>
      <trkpt lat="41.67495" lon="20.32449">
        <ele>459.17001342773</ele>
        <time>2023-09-30T12:00:48.000Z</time>
      </trkpt>
      <trkpt lat="41.67498" lon="20.32459">
        <ele>458.69000244141</ele>
        <time>2023-09-30T12:00:47.000Z</time>
      </trkpt>
      <trkpt lat="41.67499" lon="20.3247">
        <ele>458.20999145508</ele>
        <time>2023-09-30T12:00:46.000Z</time>
      </trkpt>
      <trkpt lat="41.675" lon="20.32472">
        <ele>458.20999145508</ele>
        <time>2023-09-30T12:00:45.000Z</time>
      </trkpt>
      <trkpt lat="41.67501" lon="20.32511">
        <ele>457.23999023438</ele>
        <time>2023-09-30T12:00:42.000Z</time>
      </trkpt>
      <trkpt lat="41.67502" lon="20.3252">
        <ele>456.76000976562</ele>
        <time>2023-09-30T12:00:41.000Z</time>
      </trkpt>
      <trkpt lat="41.67504" lon="20.32528">
        <ele>456.76000976562</ele>
        <time>2023-09-30T12:00:40.000Z</time>
      </trkpt>
      <trkpt lat="41.67509" lon="20.32534">
        <ele>456.76000976562</ele>
        <time>2023-09-30T12:00:39.000Z</time>
      </trkpt>
      <trkpt lat="41.67513" lon="20.32536">
        <ele>456.76000976562</ele>
        <time>2023-09-30T12:00:38.000Z</time>
      </trkpt>
      <trkpt lat="41.67521" lon="20.32542">
        <ele>456.2799987793</ele>
        <time>2023-09-30T12:00:37.000Z</time>
      </trkpt>
      <trkpt lat="41.67527" lon="20.32549">
        <ele>455.79998779297</ele>
        <time>2023-09-30T12:00:36.000Z</time>
      </trkpt>
      <trkpt lat="41.67533" lon="20.32557">
        <ele>454.83999633789</ele>
        <time>2023-09-30T12:00:35.000Z</time>
      </trkpt>
      <trkpt lat="41.67535" lon="20.3256">
        <ele>454.83999633789</ele>
        <time>2023-09-30T12:00:34.000Z</time>
      </trkpt>
      <trkpt lat="41.67544" lon="20.3258">
        <ele>453.88000488281</ele>
        <time>2023-09-30T12:00:32.000Z</time>
      </trkpt>
      <trkpt lat="41.67551" lon="20.32594">
        <ele>453.39999389648</ele>
        <time>2023-09-30T12:00:31.000Z</time>
      </trkpt>
      <trkpt lat="41.67556" lon="20.32603">
        <ele>452.92001342773</ele>
        <time>2023-09-30T12:00:30.000Z</time>
      </trkpt>
      <trkpt lat="41.67559" lon="20.32612">
        <ele>452.44000244141</ele>
        <time>2023-09-30T12:00:29.000Z</time>
      </trkpt>
      <trkpt lat="41.67561" lon="20.32621">
        <ele>451.95999145508</ele>
        <time>2023-09-30T12:00:28.000Z</time>
      </trkpt>
      <trkpt lat="41.67562" lon="20.32632">
        <ele>451</ele>
        <time>2023-09-30T12:00:27.000Z</time>
      </trkpt>
      <trkpt lat="41.67563" lon="20.3264">
        <ele>450.51998901367</ele>
        <time>2023-09-30T12:00:26.000Z</time>
      </trkpt>
      <trkpt lat="41.67564" lon="20.32664">
        <ele>449.54998779297</ele>
        <time>2023-09-30T12:00:24.000Z</time>
      </trkpt>
      <trkpt lat="41.67564" lon="20.32669">
        <ele>449.54998779297</ele>
        <time>2023-09-30T12:00:23.000Z</time>
      </trkpt>
      <trkpt lat="41.67565" lon="20.32678">
        <ele>449.07000732422</ele>
        <time>2023-09-30T12:00:22.000Z</time>
      </trkpt>
      <trkpt lat="41.67565" lon="20.32697">
        <ele>448.58999633789</ele>
        <time>2023-09-30T12:00:21.000Z</time>
      </trkpt>
      <trkpt lat="41.67564" lon="20.32705">
        <ele>448.58999633789</ele>
        <time>2023-09-30T12:00:20.000Z</time>
      </trkpt>
      <trkpt lat="41.67562" lon="20.32716">
        <ele>448.10998535156</ele>
        <time>2023-09-30T12:00:19.000Z</time>
      </trkpt>
      <trkpt lat="41.67559" lon="20.32724">
        <ele>448.10998535156</ele>
        <time>2023-09-30T12:00:18.000Z</time>
      </trkpt>
      <trkpt lat="41.67556" lon="20.3273">
        <ele>447.63000488281</ele>
        <time>2023-09-30T12:00:17.000Z</time>
      </trkpt>
      <trkpt lat="41.67551" lon="20.32734">
        <ele>447.63000488281</ele>
        <time>2023-09-30T12:00:16.000Z</time>
      </trkpt>
      <trkpt lat="41.67547" lon="20.32738">
        <ele>448.10998535156</ele>
        <time>2023-09-30T12:00:15.000Z</time>
      </trkpt>
      <trkpt lat="41.67541" lon="20.32742">
        <ele>448.58999633789</ele>
        <time>2023-09-30T12:00:14.000Z</time>
      </trkpt>
      <trkpt lat="41.67537" lon="20.32746">
        <ele>449.07000732422</ele>
        <time>2023-09-30T12:00:13.000Z</time>
      </trkpt>
      <trkpt lat="41.67533" lon="20.32751">
        <ele>449.07000732422</ele>
        <time>2023-09-30T12:00:12.000Z</time>
      </trkpt>
      <trkpt lat="41.67531" lon="20.32755">
        <ele>449.07000732422</ele>
        <time>2023-09-30T12:00:11.000Z</time>
      </trkpt>
      <trkpt lat="41.67532" lon="20.32766">
        <ele>449.54998779297</ele>
        <time>2023-09-30T12:00:09.000Z</time>
      </trkpt>
      <trkpt lat="41.67535" lon="20.3277">
        <ele>449.54998779297</ele>
        <time>2023-09-30T12:00:08.000Z</time>
      </trkpt>
      <trkpt lat="41.67539" lon="20.32774">
        <ele>449.54998779297</ele>
        <time>2023-09-30T12:00:07.000Z</time>
      </trkpt>
      <trkpt lat="41.67545" lon="20.32777">
        <ele>449.07000732422</ele>
        <time>2023-09-30T12:00:06.000Z</time>
      </trkpt>
      <trkpt lat="41.67552" lon="20.32779">
        <ele>448.58999633789</ele>
        <time>2023-09-30T12:00:05.000Z</time>
      </trkpt>
      <trkpt lat="41.67559" lon="20.32783">
        <ele>448.10998535156</ele>
        <time>2023-09-30T12:00:04.000Z</time>
      </trkpt>
      <trkpt lat="41.67566" lon="20.32789">
        <ele>447.63000488281</ele>
        <time>2023-09-30T12:00:03.000Z</time>
      </trkpt>
      <trkpt lat="41.67571" lon="20.32796">
        <ele>447.14999389648</ele>
        <time>2023-09-30T12:00:02.000Z</time>
      </trkpt>
      <trkpt lat="41.67576" lon="20.32805">
        <ele>446.67001342773</ele>
        <time>2023-09-30T12:00:01.000Z</time>
      </trkpt>
      <trkpt lat="41.67579" lon="20.32814">
        <ele>446.19000244141</ele>
        <time>2023-09-30T12:00:00.000Z</time>
      </trkpt>
      <trkpt lat="41.67581" lon="20.32824">
        <ele>446.19000244141</ele>
        <time>2023-09-30T11:59:59.000Z</time>
      </trkpt>
      <trkpt lat="41.67585" lon="20.32835">
        <ele>445.70999145508</ele>
        <time>2023-09-30T11:59:58.000Z</time>
      </trkpt>
      <trkpt lat="41.67587" lon="20.32841">
        <ele>445.23001098633</ele>
        <time>2023-09-30T11:59:57.000Z</time>
      </trkpt>
      <trkpt lat="41.67593" lon="20.3285">
        <ele>445.23001098633</ele>
        <time>2023-09-30T11:59:56.000Z</time>
      </trkpt>
      <trkpt lat="41.67597" lon="20.32854">
        <ele>444.75</ele>
        <time>2023-09-30T11:59:55.000Z</time>
      </trkpt>
      <trkpt lat="41.67619" lon="20.32871">
        <ele>443.30999755859</ele>
        <time>2023-09-30T11:59:52.000Z</time>
      </trkpt>
      <trkpt lat="41.67635" lon="20.32885">
        <ele>441.85998535156</ele>
        <time>2023-09-30T11:59:51.000Z</time>
      </trkpt>
      <trkpt lat="41.67641" lon="20.32892">
        <ele>441.38000488281</ele>
        <time>2023-09-30T11:59:50.000Z</time>
      </trkpt>
      <trkpt lat="41.67648" lon="20.32901">
        <ele>440.42001342773</ele>
        <time>2023-09-30T11:59:49.000Z</time>
      </trkpt>
      <trkpt lat="41.67653" lon="20.32909">
        <ele>439.45999145508</ele>
        <time>2023-09-30T11:59:48.000Z</time>
      </trkpt>
      <trkpt lat="41.67658" lon="20.32919">
        <ele>438.5</ele>
        <time>2023-09-30T11:59:47.000Z</time>
      </trkpt>
      <trkpt lat="41.6766" lon="20.32931">
        <ele>437.54000854492</ele>
        <time>2023-09-30T11:59:46.000Z</time>
      </trkpt>
      <trkpt lat="41.67662" lon="20.32942">
        <ele>437.05999755859</ele>
        <time>2023-09-30T11:59:45.000Z</time>
      </trkpt>
      <trkpt lat="41.67662" lon="20.32957">
        <ele>436.10000610352</ele>
        <time>2023-09-30T11:59:44.000Z</time>
      </trkpt>
      <trkpt lat="41.6766" lon="20.32994">
        <ele>435.13000488281</ele>
        <time>2023-09-30T11:59:41.000Z</time>
      </trkpt>
      <trkpt lat="41.6766" lon="20.33009">
        <ele>435.13000488281</ele>
        <time>2023-09-30T11:59:40.000Z</time>
      </trkpt>
      <trkpt lat="41.67659" lon="20.33017">
        <ele>434.64999389648</ele>
        <time>2023-09-30T11:59:39.000Z</time>
      </trkpt>
      <trkpt lat="41.67658" lon="20.33022">
        <ele>434.64999389648</ele>
        <time>2023-09-30T11:59:38.000Z</time>
      </trkpt>
      <trkpt lat="41.67653" lon="20.33044">
        <ele>433.69000244141</ele>
        <time>2023-09-30T11:59:37.000Z</time>
      </trkpt>
      <trkpt lat="41.67651" lon="20.33054">
        <ele>433.20999145508</ele>
        <time>2023-09-30T11:59:36.000Z</time>
      </trkpt>
      <trkpt lat="41.67647" lon="20.33065">
        <ele>432.73001098633</ele>
        <time>2023-09-30T11:59:35.000Z</time>
      </trkpt>
      <trkpt lat="41.67644" lon="20.33072">
        <ele>432.25</ele>
        <time>2023-09-30T11:59:34.000Z</time>
      </trkpt>
      <trkpt lat="41.67637" lon="20.33087">
        <ele>431.29000854492</ele>
        <time>2023-09-30T11:59:33.000Z</time>
      </trkpt>
      <trkpt lat="41.67633" lon="20.33094">
        <ele>430.32998657227</ele>
        <time>2023-09-30T11:59:32.000Z</time>
      </trkpt>
      <trkpt lat="41.67627" lon="20.33101">
        <ele>429.85000610352</ele>
        <time>2023-09-30T11:59:31.000Z</time>
      </trkpt>
      <trkpt lat="41.6762" lon="20.33106">
        <ele>429.36999511719</ele>
        <time>2023-09-30T11:59:30.000Z</time>
      </trkpt>
      <trkpt lat="41.67615" lon="20.3311">
        <ele>428.89001464844</ele>
        <time>2023-09-30T11:59:29.000Z</time>
      </trkpt>
      <trkpt lat="41.6761" lon="20.33116">
        <ele>428.39999389648</ele>
        <time>2023-09-30T11:59:28.000Z</time>
      </trkpt>
      <trkpt lat="41.67607" lon="20.33125">
        <ele>427.92001342773</ele>
        <time>2023-09-30T11:59:27.000Z</time>
      </trkpt>
      <trkpt lat="41.67602" lon="20.3314">
        <ele>426.48001098633</ele>
        <time>2023-09-30T11:59:25.000Z</time>
      </trkpt>
      <trkpt lat="41.676" lon="20.33146">
        <ele>426</ele>
        <time>2023-09-30T11:59:24.000Z</time>
      </trkpt>
      <trkpt lat="41.67598" lon="20.33152">
        <ele>425.04000854492</ele>
        <time>2023-09-30T11:59:23.000Z</time>
      </trkpt>
      <trkpt lat="41.67593" lon="20.33163">
        <ele>424.07998657227</ele>
        <time>2023-09-30T11:59:22.000Z</time>
      </trkpt>
      <trkpt lat="41.67591" lon="20.33167">
        <ele>423.11999511719</ele>
        <time>2023-09-30T11:59:21.000Z</time>
      </trkpt>
      <trkpt lat="41.67587" lon="20.33175">
        <ele>422.16000366211</ele>
        <time>2023-09-30T11:59:20.000Z</time>
      </trkpt>
      <trkpt lat="41.67583" lon="20.33182">
        <ele>421.67999267578</ele>
        <time>2023-09-30T11:59:19.000Z</time>
      </trkpt>
      <trkpt lat="41.67579" lon="20.33188">
        <ele>421.67999267578</ele>
        <time>2023-09-30T11:59:18.000Z</time>
      </trkpt>
      <trkpt lat="41.67575" lon="20.33193">
        <ele>421.19000244141</ele>
        <time>2023-09-30T11:59:17.000Z</time>
      </trkpt>
      <trkpt lat="41.67573" lon="20.33199">
        <ele>421.19000244141</ele>
        <time>2023-09-30T11:59:16.000Z</time>
      </trkpt>
      <trkpt lat="41.67572" lon="20.33204">
        <ele>420.70999145508</ele>
        <time>2023-09-30T11:59:15.000Z</time>
      </trkpt>
      <trkpt lat="41.67573" lon="20.33209">
        <ele>420.70999145508</ele>
        <time>2023-09-30T11:59:14.000Z</time>
      </trkpt>
      <trkpt lat="41.67588" lon="20.33213">
        <ele>418.79000854492</ele>
        <time>2023-09-30T11:59:09.000Z</time>
      </trkpt>
      <trkpt lat="41.6759" lon="20.33211">
        <ele>418.30999755859</ele>
        <time>2023-09-30T11:59:08.000Z</time>
      </trkpt>
      <trkpt lat="41.67598" lon="20.33203">
        <ele>417.35000610352</ele>
        <time>2023-09-30T11:59:07.000Z</time>
      </trkpt>
      <trkpt lat="41.67606" lon="20.33195">
        <ele>416.86999511719</ele>
        <time>2023-09-30T11:59:06.000Z</time>
      </trkpt>
      <trkpt lat="41.67618" lon="20.33185">
        <ele>416.39001464844</ele>
        <time>2023-09-30T11:59:04.000Z</time>
      </trkpt>
      <trkpt lat="41.67623" lon="20.3318">
        <ele>415.91000366211</ele>
        <time>2023-09-30T11:59:03.000Z</time>
      </trkpt>
      <trkpt lat="41.67629" lon="20.33175">
        <ele>415.42999267578</ele>
        <time>2023-09-30T11:59:02.000Z</time>
      </trkpt>
      <trkpt lat="41.67633" lon="20.3317">
        <ele>415.42999267578</ele>
        <time>2023-09-30T11:59:01.000Z</time>
      </trkpt>
      <trkpt lat="41.67637" lon="20.33167">
        <ele>414.95001220703</ele>
        <time>2023-09-30T11:59:00.000Z</time>
      </trkpt>
      <trkpt lat="41.67652" lon="20.33153">
        <ele>413.98001098633</ele>
        <time>2023-09-30T11:58:57.000Z</time>
      </trkpt>
      <trkpt lat="41.67661" lon="20.33143">
        <ele>413.01998901367</ele>
        <time>2023-09-30T11:58:56.000Z</time>
      </trkpt>
      <trkpt lat="41.67663" lon="20.33142">
        <ele>413.01998901367</ele>
        <time>2023-09-30T11:58:55.000Z</time>
      </trkpt>
      <trkpt lat="41.67672" lon="20.33133">
        <ele>412.05999755859</ele>
        <time>2023-09-30T11:58:54.000Z</time>
      </trkpt>
      <trkpt lat="41.67677" lon="20.33129">
        <ele>411.57998657227</ele>
        <time>2023-09-30T11:58:53.000Z</time>
      </trkpt>
      <trkpt lat="41.6768" lon="20.33124">
        <ele>411.10000610352</ele>
        <time>2023-09-30T11:58:52.000Z</time>
      </trkpt>
      <trkpt lat="41.67681" lon="20.33117">
        <ele>410.61999511719</ele>
        <time>2023-09-30T11:58:51.000Z</time>
      </trkpt>
      <trkpt lat="41.67682" lon="20.3311">
        <ele>410.14001464844</ele>
        <time>2023-09-30T11:58:50.000Z</time>
      </trkpt>
      <trkpt lat="41.6768" lon="20.33101">
        <ele>409.17999267578</ele>
        <time>2023-09-30T11:58:49.000Z</time>
      </trkpt>
      <trkpt lat="41.67679" lon="20.33092">
        <ele>408.70001220703</ele>
        <time>2023-09-30T11:58:48.000Z</time>
      </trkpt>
      <trkpt lat="41.6768" lon="20.33084">
        <ele>408.2200012207</ele>
        <time>2023-09-30T11:58:47.000Z</time>
      </trkpt>
      <trkpt lat="41.67681" lon="20.3308">
        <ele>408.2200012207</ele>
        <time>2023-09-30T11:58:46.000Z</time>
      </trkpt>
      <trkpt lat="41.67683" lon="20.33071">
        <ele>407.73999023438</ele>
        <time>2023-09-30T11:58:45.000Z</time>
      </trkpt>
      <trkpt lat="41.67684" lon="20.33066">
        <ele>407.73999023438</ele>
        <time>2023-09-30T11:58:44.000Z</time>
      </trkpt>
      <trkpt lat="41.67686" lon="20.33054">
        <ele>406.76998901367</ele>
        <time>2023-09-30T11:58:43.000Z</time>
      </trkpt>
      <trkpt lat="41.67688" lon="20.33046">
        <ele>406.76998901367</ele>
        <time>2023-09-30T11:58:42.000Z</time>
      </trkpt>
      <trkpt lat="41.67689" lon="20.33042">
        <ele>406.29000854492</ele>
        <time>2023-09-30T11:58:41.000Z</time>
      </trkpt>
      <trkpt lat="41.67691" lon="20.33037">
        <ele>405.80999755859</ele>
        <time>2023-09-30T11:58:40.000Z</time>
      </trkpt>
      <trkpt lat="41.67694" lon="20.33028">
        <ele>405.32998657227</ele>
        <time>2023-09-30T11:58:39.000Z</time>
      </trkpt>
      <trkpt lat="41.67696" lon="20.33021">
        <ele>404.85000610352</ele>
        <time>2023-09-30T11:58:38.000Z</time>
      </trkpt>
      <trkpt lat="41.67698" lon="20.33016">
        <ele>404.36999511719</ele>
        <time>2023-09-30T11:58:37.000Z</time>
      </trkpt>
      <trkpt lat="41.67699" lon="20.33013">
        <ele>404.36999511719</ele>
        <time>2023-09-30T11:58:36.000Z</time>
      </trkpt>
      <trkpt lat="41.67703" lon="20.33005">
        <ele>403.89001464844</ele>
        <time>2023-09-30T11:58:35.000Z</time>
      </trkpt>
      <trkpt lat="41.67705" lon="20.33">
        <ele>403.41000366211</ele>
        <time>2023-09-30T11:58:34.000Z</time>
      </trkpt>
      <trkpt lat="41.67707" lon="20.32997">
        <ele>402.92999267578</ele>
        <time>2023-09-30T11:58:33.000Z</time>
      </trkpt>
      <trkpt lat="41.67711" lon="20.32991">
        <ele>402.45001220703</ele>
        <time>2023-09-30T11:58:32.000Z</time>
      </trkpt>
      <trkpt lat="41.67713" lon="20.32987">
        <ele>402.45001220703</ele>
        <time>2023-09-30T11:58:31.000Z</time>
      </trkpt>
      <trkpt lat="41.67715" lon="20.32983">
        <ele>401.9700012207</ele>
        <time>2023-09-30T11:58:30.000Z</time>
      </trkpt>
      <trkpt lat="41.67717" lon="20.32978">
        <ele>401.48999023438</ele>
        <time>2023-09-30T11:58:29.000Z</time>
      </trkpt>
      <trkpt lat="41.67725" lon="20.3297">
        <ele>401.01000976562</ele>
        <time>2023-09-30T11:58:26.000Z</time>
      </trkpt>
      <trkpt lat="41.67757" lon="20.32971">
        <ele>403.41000366211</ele>
        <time>2023-09-30T11:58:17.000Z</time>
      </trkpt>
      <trkpt lat="41.67765" lon="20.32974">
        <ele>404.36999511719</ele>
        <time>2023-09-30T11:58:15.000Z</time>
      </trkpt>
      <trkpt lat="41.67778" lon="20.32991">
        <ele>408.70001220703</ele>
        <time>2023-09-30T11:58:09.000Z</time>
      </trkpt>
      <trkpt lat="41.67778" lon="20.32995">
        <ele>408.70001220703</ele>
        <time>2023-09-30T11:58:08.000Z</time>
      </trkpt>
      <trkpt lat="41.6778" lon="20.33004">
        <ele>409.66000366211</ele>
        <time>2023-09-30T11:58:07.000Z</time>
      </trkpt>
      <trkpt lat="41.6778" lon="20.33006">
        <ele>409.66000366211</ele>
        <time>2023-09-30T11:58:06.000Z</time>
      </trkpt>
      <trkpt lat="41.67784" lon="20.33024">
        <ele>410.61999511719</ele>
        <time>2023-09-30T11:58:04.000Z</time>
      </trkpt>
      <trkpt lat="41.67785" lon="20.33029">
        <ele>410.61999511719</ele>
        <time>2023-09-30T11:58:03.000Z</time>
      </trkpt>
      <trkpt lat="41.67786" lon="20.33034">
        <ele>411.10000610352</ele>
        <time>2023-09-30T11:58:02.000Z</time>
      </trkpt>
      <trkpt lat="41.6779" lon="20.33048">
        <ele>411.57998657227</ele>
        <time>2023-09-30T11:57:58.000Z</time>
      </trkpt>
      <trkpt lat="41.67791" lon="20.33049">
        <ele>411.57998657227</ele>
        <time>2023-09-30T11:57:54.000Z</time>
      </trkpt>
      <trkpt lat="41.67796" lon="20.33056">
        <ele>413.5</ele>
        <time>2023-09-30T11:57:47.000Z</time>
      </trkpt>
      <trkpt lat="41.67807" lon="20.33072">
        <ele>416.39001464844</ele>
        <time>2023-09-30T11:57:39.000Z</time>
      </trkpt>
      <trkpt lat="41.67809" lon="20.33076">
        <ele>416.86999511719</ele>
        <time>2023-09-30T11:57:38.000Z</time>
      </trkpt>
      <trkpt lat="41.67817" lon="20.33086">
        <ele>415.42999267578</ele>
        <time>2023-09-30T11:57:24.000Z</time>
      </trkpt>
      <trkpt lat="41.67826" lon="20.33095">
        <ele>415.91000366211</ele>
        <time>2023-09-30T11:57:15.000Z</time>
      </trkpt>
      <trkpt lat="41.67829" lon="20.33109">
        <ele>415.42999267578</ele>
        <time>2023-09-30T11:57:09.000Z</time>
      </trkpt>
      <trkpt lat="41.67826" lon="20.33117">
        <ele>414.95001220703</ele>
        <time>2023-09-30T11:57:08.000Z</time>
      </trkpt>
      <trkpt lat="41.67823" lon="20.33124">
        <ele>414.4700012207</ele>
        <time>2023-09-30T11:57:07.000Z</time>
      </trkpt>
      <trkpt lat="41.67819" lon="20.33131">
        <ele>413.98001098633</ele>
        <time>2023-09-30T11:57:06.000Z</time>
      </trkpt>
      <trkpt lat="41.67818" lon="20.33132">
        <ele>413.98001098633</ele>
        <time>2023-09-30T11:57:05.000Z</time>
      </trkpt>
      <trkpt lat="41.67811" lon="20.33144">
        <ele>413.01998901367</ele>
        <time>2023-09-30T11:57:04.000Z</time>
      </trkpt>
      <trkpt lat="41.67803" lon="20.33156">
        <ele>412.54000854492</ele>
        <time>2023-09-30T11:57:03.000Z</time>
      </trkpt>
      <trkpt lat="41.678" lon="20.33163">
        <ele>412.05999755859</ele>
        <time>2023-09-30T11:57:02.000Z</time>
      </trkpt>
      <trkpt lat="41.67783" lon="20.33202">
        <ele>409.66000366211</ele>
        <time>2023-09-30T11:56:58.000Z</time>
      </trkpt>
      <trkpt lat="41.67778" lon="20.3321">
        <ele>409.17999267578</ele>
        <time>2023-09-30T11:56:57.000Z</time>
      </trkpt>
      <trkpt lat="41.67773" lon="20.33219">
        <ele>408.70001220703</ele>
        <time>2023-09-30T11:56:56.000Z</time>
      </trkpt>
      <trkpt lat="41.67769" lon="20.33226">
        <ele>408.2200012207</ele>
        <time>2023-09-30T11:56:55.000Z</time>
      </trkpt>
      <trkpt lat="41.67766" lon="20.33234">
        <ele>407.73999023438</ele>
        <time>2023-09-30T11:56:54.000Z</time>
      </trkpt>
      <trkpt lat="41.67762" lon="20.33243">
        <ele>407.26000976562</ele>
        <time>2023-09-30T11:56:53.000Z</time>
      </trkpt>
      <trkpt lat="41.67761" lon="20.33249">
        <ele>406.76998901367</ele>
        <time>2023-09-30T11:56:52.000Z</time>
      </trkpt>
      <trkpt lat="41.67759" lon="20.33259">
        <ele>406.76998901367</ele>
        <time>2023-09-30T11:56:51.000Z</time>
      </trkpt>
      <trkpt lat="41.67758" lon="20.33267">
        <ele>406.29000854492</ele>
        <time>2023-09-30T11:56:50.000Z</time>
      </trkpt>
      <trkpt lat="41.67756" lon="20.33273">
        <ele>405.80999755859</ele>
        <time>2023-09-30T11:56:49.000Z</time>
      </trkpt>
      <trkpt lat="41.67747" lon="20.33301">
        <ele>404.85000610352</ele>
        <time>2023-09-30T11:56:46.000Z</time>
      </trkpt>
      <trkpt lat="41.67744" lon="20.33316">
        <ele>403.89001464844</ele>
        <time>2023-09-30T11:56:45.000Z</time>
      </trkpt>
      <trkpt lat="41.67743" lon="20.33325">
        <ele>403.41000366211</ele>
        <time>2023-09-30T11:56:44.000Z</time>
      </trkpt>
      <trkpt lat="41.67743" lon="20.33327">
        <ele>402.92999267578</ele>
        <time>2023-09-30T11:56:43.000Z</time>
      </trkpt>
      <trkpt lat="41.67741" lon="20.33343">
        <ele>402.45001220703</ele>
        <time>2023-09-30T11:56:42.000Z</time>
      </trkpt>
      <trkpt lat="41.6774" lon="20.33349">
        <ele>402.45001220703</ele>
        <time>2023-09-30T11:56:41.000Z</time>
      </trkpt>
      <trkpt lat="41.67739" lon="20.33366">
        <ele>401.48999023438</ele>
        <time>2023-09-30T11:56:40.000Z</time>
      </trkpt>
      <trkpt lat="41.67738" lon="20.33374">
        <ele>401.01000976562</ele>
        <time>2023-09-30T11:56:39.000Z</time>
      </trkpt>
      <trkpt lat="41.67738" lon="20.33377">
        <ele>401.01000976562</ele>
        <time>2023-09-30T11:56:38.000Z</time>
      </trkpt>
      <trkpt lat="41.67738" lon="20.33392">
        <ele>399.07998657227</ele>
        <time>2023-09-30T11:56:37.000Z</time>
      </trkpt>
      <trkpt lat="41.67738" lon="20.33398">
        <ele>398.11999511719</ele>
        <time>2023-09-30T11:56:36.000Z</time>
      </trkpt>
      <trkpt lat="41.67738" lon="20.33402">
        <ele>397.64001464844</ele>
        <time>2023-09-30T11:56:35.000Z</time>
      </trkpt>
      <trkpt lat="41.67737" lon="20.3341">
        <ele>397.16000366211</ele>
        <time>2023-09-30T11:56:34.000Z</time>
      </trkpt>
      <trkpt lat="41.67737" lon="20.33417">
        <ele>396.67999267578</ele>
        <time>2023-09-30T11:56:33.000Z</time>
      </trkpt>
      <trkpt lat="41.67736" lon="20.33425">
        <ele>396.67999267578</ele>
        <time>2023-09-30T11:56:32.000Z</time>
      </trkpt>
      <trkpt lat="41.67735" lon="20.33433">
        <ele>396.20001220703</ele>
        <time>2023-09-30T11:56:31.000Z</time>
      </trkpt>
      <trkpt lat="41.67731" lon="20.33442">
        <ele>396.20001220703</ele>
        <time>2023-09-30T11:56:30.000Z</time>
      </trkpt>
      <trkpt lat="41.67724" lon="20.33451">
        <ele>396.20001220703</ele>
        <time>2023-09-30T11:56:29.000Z</time>
      </trkpt>
      <trkpt lat="41.67719" lon="20.33457">
        <ele>396.20001220703</ele>
        <time>2023-09-30T11:56:28.000Z</time>
      </trkpt>
      <trkpt lat="41.67708" lon="20.33468">
        <ele>396.67999267578</ele>
        <time>2023-09-30T11:56:27.000Z</time>
      </trkpt>
      <trkpt lat="41.67687" lon="20.33485">
        <ele>396.67999267578</ele>
        <time>2023-09-30T11:56:25.000Z</time>
      </trkpt>
      <trkpt lat="41.67685" lon="20.33486">
        <ele>396.67999267578</ele>
        <time>2023-09-30T11:56:24.000Z</time>
      </trkpt>
      <trkpt lat="41.67673" lon="20.33497">
        <ele>396.67999267578</ele>
        <time>2023-09-30T11:56:23.000Z</time>
      </trkpt>
      <trkpt lat="41.67668" lon="20.33504">
        <ele>396.20001220703</ele>
        <time>2023-09-30T11:56:22.000Z</time>
      </trkpt>
      <trkpt lat="41.67665" lon="20.33514">
        <ele>396.20001220703</ele>
        <time>2023-09-30T11:56:21.000Z</time>
      </trkpt>
      <trkpt lat="41.67664" lon="20.33516">
        <ele>396.20001220703</ele>
        <time>2023-09-30T11:56:20.000Z</time>
      </trkpt>
      <trkpt lat="41.67661" lon="20.33542">
        <ele>396.20001220703</ele>
        <time>2023-09-30T11:56:19.000Z</time>
      </trkpt>
      <trkpt lat="41.6766" lon="20.33555">
        <ele>396.67999267578</ele>
        <time>2023-09-30T11:56:18.000Z</time>
      </trkpt>
      <trkpt lat="41.67661" lon="20.33566">
        <ele>396.20001220703</ele>
        <time>2023-09-30T11:56:17.000Z</time>
      </trkpt>
      <trkpt lat="41.67663" lon="20.33575">
        <ele>396.67999267578</ele>
        <time>2023-09-30T11:56:16.000Z</time>
      </trkpt>
      <trkpt lat="41.67668" lon="20.33583">
        <ele>396.67999267578</ele>
        <time>2023-09-30T11:56:15.000Z</time>
      </trkpt>
      <trkpt lat="41.67674" lon="20.3359">
        <ele>397.16000366211</ele>
        <time>2023-09-30T11:56:14.000Z</time>
      </trkpt>
      <trkpt lat="41.67682" lon="20.33594">
        <ele>397.16000366211</ele>
        <time>2023-09-30T11:56:13.000Z</time>
      </trkpt>
      <trkpt lat="41.67688" lon="20.33596">
        <ele>397.64001464844</ele>
        <time>2023-09-30T11:56:12.000Z</time>
      </trkpt>
      <trkpt lat="41.67702" lon="20.33599">
        <ele>397.64001464844</ele>
        <time>2023-09-30T11:56:11.000Z</time>
      </trkpt>
      <trkpt lat="41.67708" lon="20.33601">
        <ele>397.64001464844</ele>
        <time>2023-09-30T11:56:10.000Z</time>
      </trkpt>
      <trkpt lat="41.67722" lon="20.33607">
        <ele>398.60000610352</ele>
        <time>2023-09-30T11:56:09.000Z</time>
      </trkpt>
      <trkpt lat="41.6773" lon="20.3361">
        <ele>398.60000610352</ele>
        <time>2023-09-30T11:56:08.000Z</time>
      </trkpt>
      <trkpt lat="41.67742" lon="20.33612">
        <ele>399.07998657227</ele>
        <time>2023-09-30T11:56:07.000Z</time>
      </trkpt>
      <trkpt lat="41.67746" lon="20.33612">
        <ele>399.07998657227</ele>
        <time>2023-09-30T11:56:06.000Z</time>
      </trkpt>
      <trkpt lat="41.67766" lon="20.33613">
        <ele>399.07998657227</ele>
        <time>2023-09-30T11:56:04.000Z</time>
      </trkpt>
      <trkpt lat="41.67785" lon="20.33615">
        <ele>400.04998779297</ele>
        <time>2023-09-30T11:56:02.000Z</time>
      </trkpt>
      <trkpt lat="41.6779" lon="20.33616">
        <ele>400.04998779297</ele>
        <time>2023-09-30T11:56:01.000Z</time>
      </trkpt>
      <trkpt lat="41.67797" lon="20.33616">
        <ele>400.04998779297</ele>
        <time>2023-09-30T11:56:00.000Z</time>
      </trkpt>
      <trkpt lat="41.67816" lon="20.33612">
        <ele>401.01000976562</ele>
        <time>2023-09-30T11:55:54.000Z</time>
      </trkpt>
      <trkpt lat="41.67822" lon="20.33627">
        <ele>401.9700012207</ele>
        <time>2023-09-30T11:55:48.000Z</time>
      </trkpt>
      <trkpt lat="41.67821" lon="20.33633">
        <ele>401.9700012207</ele>
        <time>2023-09-30T11:55:47.000Z</time>
      </trkpt>
      <trkpt lat="41.67821" lon="20.33634">
        <ele>401.9700012207</ele>
        <time>2023-09-30T11:55:46.000Z</time>
      </trkpt>
      <trkpt lat="41.67807" lon="20.33826">
        <ele>403.41000366211</ele>
        <time>2023-09-30T10:07:56.000Z</time>
      </trkpt>
      <trkpt lat="41.67811" lon="20.33829">
        <ele>403.89001464844</ele>
        <time>2023-09-30T10:07:55.000Z</time>
      </trkpt>
      <trkpt lat="41.67817" lon="20.33832">
        <ele>403.89001464844</ele>
        <time>2023-09-30T10:07:54.000Z</time>
      </trkpt>
      <trkpt lat="41.67821" lon="20.33833">
        <ele>403.89001464844</ele>
        <time>2023-09-30T10:07:53.000Z</time>
      </trkpt>
      <trkpt lat="41.67834" lon="20.33837">
        <ele>404.36999511719</ele>
        <time>2023-09-30T10:07:52.000Z</time>
      </trkpt>
      <trkpt lat="41.67843" lon="20.3384">
        <ele>404.36999511719</ele>
        <time>2023-09-30T10:07:51.000Z</time>
      </trkpt>
      <trkpt lat="41.67851" lon="20.33843">
        <ele>404.85000610352</ele>
        <time>2023-09-30T10:07:50.000Z</time>
      </trkpt>
      <trkpt lat="41.67904" lon="20.33871">
        <ele>406.76998901367</ele>
        <time>2023-09-30T10:07:44.000Z</time>
      </trkpt>
      <trkpt lat="41.6792" lon="20.33881">
        <ele>406.76998901367</ele>
        <time>2023-09-30T10:07:43.000Z</time>
      </trkpt>
      <trkpt lat="41.67929" lon="20.33886">
        <ele>407.26000976562</ele>
        <time>2023-09-30T10:07:42.000Z</time>
      </trkpt>
      <trkpt lat="41.67958" lon="20.339">
        <ele>407.73999023438</ele>
        <time>2023-09-30T10:07:39.000Z</time>
      </trkpt>
      <trkpt lat="41.67967" lon="20.33905">
        <ele>407.73999023438</ele>
        <time>2023-09-30T10:07:38.000Z</time>
      </trkpt>
      <trkpt lat="41.67971" lon="20.33908">
        <ele>408.2200012207</ele>
        <time>2023-09-30T10:07:37.000Z</time>
      </trkpt>
      <trkpt lat="41.67982" lon="20.33918">
        <ele>408.2200012207</ele>
        <time>2023-09-30T10:07:36.000Z</time>
      </trkpt>
      <trkpt lat="41.67992" lon="20.33927">
        <ele>408.70001220703</ele>
        <time>2023-09-30T10:07:35.000Z</time>
      </trkpt>
      <trkpt lat="41.67997" lon="20.33933">
        <ele>409.17999267578</ele>
        <time>2023-09-30T10:07:34.000Z</time>
      </trkpt>
      <trkpt lat="41.68016" lon="20.33957">
        <ele>411.57998657227</ele>
        <time>2023-09-30T10:07:32.000Z</time>
      </trkpt>
      <trkpt lat="41.68022" lon="20.33963">
        <ele>412.54000854492</ele>
        <time>2023-09-30T10:07:31.000Z</time>
      </trkpt>
      <trkpt lat="41.68035" lon="20.33975">
        <ele>413.98001098633</ele>
        <time>2023-09-30T10:07:30.000Z</time>
      </trkpt>
      <trkpt lat="41.68047" lon="20.33983">
        <ele>414.95001220703</ele>
        <time>2023-09-30T10:07:29.000Z</time>
      </trkpt>
      <trkpt lat="41.68055" lon="20.33987">
        <ele>415.91000366211</ele>
        <time>2023-09-30T10:07:28.000Z</time>
      </trkpt>
      <trkpt lat="41.6807" lon="20.33991">
        <ele>417.82998657227</ele>
        <time>2023-09-30T10:07:27.000Z</time>
      </trkpt>
      <trkpt lat="41.68082" lon="20.33996">
        <ele>419.26998901367</ele>
        <time>2023-09-30T10:07:26.000Z</time>
      </trkpt>
      <trkpt lat="41.68127" lon="20.34024">
        <ele>424.07998657227</ele>
        <time>2023-09-30T10:07:22.000Z</time>
      </trkpt>
      <trkpt lat="41.68129" lon="20.34026">
        <ele>424.55999755859</ele>
        <time>2023-09-30T10:07:21.000Z</time>
      </trkpt>
      <trkpt lat="41.68166" lon="20.34061">
        <ele>428.89001464844</ele>
        <time>2023-09-30T10:07:18.000Z</time>
      </trkpt>
      <trkpt lat="41.68173" lon="20.34066">
        <ele>429.85000610352</ele>
        <time>2023-09-30T10:07:17.000Z</time>
      </trkpt>
      <trkpt lat="41.68204" lon="20.34087">
        <ele>433.69000244141</ele>
        <time>2023-09-30T10:07:14.000Z</time>
      </trkpt>
      <trkpt lat="41.68211" lon="20.34092">
        <ele>434.64999389648</ele>
        <time>2023-09-30T10:07:13.000Z</time>
      </trkpt>
      <trkpt lat="41.68221" lon="20.34096">
        <ele>435.60998535156</ele>
        <time>2023-09-30T10:07:12.000Z</time>
      </trkpt>
      <trkpt lat="41.6823" lon="20.34098">
        <ele>436.57998657227</ele>
        <time>2023-09-30T10:07:11.000Z</time>
      </trkpt>
      <trkpt lat="41.68233" lon="20.34099">
        <ele>436.57998657227</ele>
        <time>2023-09-30T10:07:10.000Z</time>
      </trkpt>
      <trkpt lat="41.68244" lon="20.341">
        <ele>437.54000854492</ele>
        <time>2023-09-30T10:07:09.000Z</time>
      </trkpt>
      <trkpt lat="41.68253" lon="20.34102">
        <ele>438.01998901367</ele>
        <time>2023-09-30T10:07:08.000Z</time>
      </trkpt>
      <trkpt lat="41.6826" lon="20.34105">
        <ele>438.01998901367</ele>
        <time>2023-09-30T10:07:07.000Z</time>
      </trkpt>
      <trkpt lat="41.68275" lon="20.34114">
        <ele>438.01998901367</ele>
        <time>2023-09-30T10:07:05.000Z</time>
      </trkpt>
      <trkpt lat="41.68283" lon="20.34117">
        <ele>438.01998901367</ele>
        <time>2023-09-30T10:07:04.000Z</time>
      </trkpt>
      <trkpt lat="41.68293" lon="20.34119">
        <ele>438.5</ele>
        <time>2023-09-30T10:07:03.000Z</time>
      </trkpt>
      <trkpt lat="41.68299" lon="20.34121">
        <ele>438.01998901367</ele>
        <time>2023-09-30T10:07:02.000Z</time>
      </trkpt>
      <trkpt lat="41.68307" lon="20.34123">
        <ele>438.01998901367</ele>
        <time>2023-09-30T10:07:01.000Z</time>
      </trkpt>
      <trkpt lat="41.68317" lon="20.34127">
        <ele>437.54000854492</ele>
        <time>2023-09-30T10:07:00.000Z</time>
      </trkpt>
      <trkpt lat="41.68329" lon="20.34134">
        <ele>437.54000854492</ele>
        <time>2023-09-30T10:06:58.000Z</time>
      </trkpt>
      <trkpt lat="41.68396" lon="20.3418">
        <ele>437.54000854492</ele>
        <time>2023-09-30T10:06:53.000Z</time>
      </trkpt>
      <trkpt lat="41.68406" lon="20.34189">
        <ele>437.05999755859</ele>
        <time>2023-09-30T10:06:52.000Z</time>
      </trkpt>
      <trkpt lat="41.68413" lon="20.34198">
        <ele>437.05999755859</ele>
        <time>2023-09-30T10:06:51.000Z</time>
      </trkpt>
      <trkpt lat="41.68422" lon="20.34212">
        <ele>436.57998657227</ele>
        <time>2023-09-30T10:06:49.000Z</time>
      </trkpt>
      <trkpt lat="41.68443" lon="20.34252">
        <ele>433.20999145508</ele>
        <time>2023-09-30T10:06:47.000Z</time>
      </trkpt>
      <trkpt lat="41.6846" lon="20.34287">
        <ele>429.36999511719</ele>
        <time>2023-09-30T10:06:45.000Z</time>
      </trkpt>
      <trkpt lat="41.68465" lon="20.34297">
        <ele>428.89001464844</ele>
        <time>2023-09-30T10:06:44.000Z</time>
      </trkpt>
      <trkpt lat="41.68498" lon="20.34367">
        <ele>426</ele>
        <time>2023-09-30T10:06:40.000Z</time>
      </trkpt>
      <trkpt lat="41.68504" lon="20.34375">
        <ele>426</ele>
        <time>2023-09-30T10:06:39.000Z</time>
      </trkpt>
      <trkpt lat="41.6851" lon="20.34379">
        <ele>426</ele>
        <time>2023-09-30T10:06:38.000Z</time>
      </trkpt>
      <trkpt lat="41.68517" lon="20.3438">
        <ele>426</ele>
        <time>2023-09-30T10:06:37.000Z</time>
      </trkpt>
      <trkpt lat="41.68525" lon="20.34377">
        <ele>426.48001098633</ele>
        <time>2023-09-30T10:06:36.000Z</time>
      </trkpt>
      <trkpt lat="41.68533" lon="20.34372">
        <ele>426.48001098633</ele>
        <time>2023-09-30T10:06:35.000Z</time>
      </trkpt>
      <trkpt lat="41.68541" lon="20.34364">
        <ele>426.48001098633</ele>
        <time>2023-09-30T10:06:34.000Z</time>
      </trkpt>
      <trkpt lat="41.68547" lon="20.34356">
        <ele>426.48001098633</ele>
        <time>2023-09-30T10:06:33.000Z</time>
      </trkpt>
      <trkpt lat="41.68554" lon="20.34344">
        <ele>426.95999145508</ele>
        <time>2023-09-30T10:06:32.000Z</time>
      </trkpt>
      <trkpt lat="41.68561" lon="20.3433">
        <ele>427.44000244141</ele>
        <time>2023-09-30T10:06:31.000Z</time>
      </trkpt>
      <trkpt lat="41.68567" lon="20.34321">
        <ele>427.92001342773</ele>
        <time>2023-09-30T10:06:30.000Z</time>
      </trkpt>
      <trkpt lat="41.68575" lon="20.34313">
        <ele>428.39999389648</ele>
        <time>2023-09-30T10:06:29.000Z</time>
      </trkpt>
      <trkpt lat="41.68583" lon="20.34308">
        <ele>428.89001464844</ele>
        <time>2023-09-30T10:06:28.000Z</time>
      </trkpt>
      <trkpt lat="41.68587" lon="20.34306">
        <ele>429.36999511719</ele>
        <time>2023-09-30T10:06:27.000Z</time>
      </trkpt>
      <trkpt lat="41.686" lon="20.343">
        <ele>430.80999755859</ele>
        <time>2023-09-30T10:06:26.000Z</time>
      </trkpt>
      <trkpt lat="41.6861" lon="20.34297">
        <ele>431.76998901367</ele>
        <time>2023-09-30T10:06:25.000Z</time>
      </trkpt>
      <trkpt lat="41.68617" lon="20.34296">
        <ele>432.25</ele>
        <time>2023-09-30T10:06:24.000Z</time>
      </trkpt>
      <trkpt lat="41.68626" lon="20.34296">
        <ele>432.73001098633</ele>
        <time>2023-09-30T10:06:23.000Z</time>
      </trkpt>
      <trkpt lat="41.68633" lon="20.34298">
        <ele>433.20999145508</ele>
        <time>2023-09-30T10:06:22.000Z</time>
      </trkpt>
      <trkpt lat="41.68641" lon="20.34302">
        <ele>433.69000244141</ele>
        <time>2023-09-30T10:06:21.000Z</time>
      </trkpt>
      <trkpt lat="41.68649" lon="20.34306">
        <ele>434.17001342773</ele>
        <time>2023-09-30T10:06:20.000Z</time>
      </trkpt>
      <trkpt lat="41.68657" lon="20.34314">
        <ele>435.13000488281</ele>
        <time>2023-09-30T10:06:19.000Z</time>
      </trkpt>
      <trkpt lat="41.68663" lon="20.34322">
        <ele>435.60998535156</ele>
        <time>2023-09-30T10:06:18.000Z</time>
      </trkpt>
      <trkpt lat="41.68669" lon="20.34332">
        <ele>435.60998535156</ele>
        <time>2023-09-30T10:06:17.000Z</time>
      </trkpt>
      <trkpt lat="41.68674" lon="20.34344">
        <ele>436.10000610352</ele>
        <time>2023-09-30T10:06:16.000Z</time>
      </trkpt>
      <trkpt lat="41.68674" lon="20.34346">
        <ele>436.10000610352</ele>
        <time>2023-09-30T10:06:15.000Z</time>
      </trkpt>
      <trkpt lat="41.6868" lon="20.34363">
        <ele>436.57998657227</ele>
        <time>2023-09-30T10:06:14.000Z</time>
      </trkpt>
      <trkpt lat="41.68699" lon="20.34414">
        <ele>438.01998901367</ele>
        <time>2023-09-30T10:06:10.000Z</time>
      </trkpt>
      <trkpt lat="41.68704" lon="20.34429">
        <ele>438.5</ele>
        <time>2023-09-30T10:06:09.000Z</time>
      </trkpt>
      <trkpt lat="41.68706" lon="20.34442">
        <ele>438.98001098633</ele>
        <time>2023-09-30T10:06:08.000Z</time>
      </trkpt>
      <trkpt lat="41.68707" lon="20.34451">
        <ele>438.98001098633</ele>
        <time>2023-09-30T10:06:07.000Z</time>
      </trkpt>
      <trkpt lat="41.68707" lon="20.34486">
        <ele>438.98001098633</ele>
        <time>2023-09-30T10:06:05.000Z</time>
      </trkpt>
      <trkpt lat="41.68709" lon="20.34523">
        <ele>438.5</ele>
        <time>2023-09-30T10:06:03.000Z</time>
      </trkpt>
      <trkpt lat="41.68709" lon="20.34534">
        <ele>438.5</ele>
        <time>2023-09-30T10:06:02.000Z</time>
      </trkpt>
      <trkpt lat="41.68712" lon="20.3466">
        <ele>438.01998901367</ele>
        <time>2023-09-30T10:05:56.000Z</time>
      </trkpt>
      <trkpt lat="41.68712" lon="20.34681">
        <ele>437.54000854492</ele>
        <time>2023-09-30T10:05:55.000Z</time>
      </trkpt>
      <trkpt lat="41.68711" lon="20.34696">
        <ele>436.57998657227</ele>
        <time>2023-09-30T10:05:54.000Z</time>
      </trkpt>
      <trkpt lat="41.68706" lon="20.34764">
        <ele>435.13000488281</ele>
        <time>2023-09-30T10:05:50.000Z</time>
      </trkpt>
      <trkpt lat="41.68702" lon="20.34846">
        <ele>434.17001342773</ele>
        <time>2023-09-30T10:05:46.000Z</time>
      </trkpt>
      <trkpt lat="41.68701" lon="20.34863">
        <ele>433.69000244141</ele>
        <time>2023-09-30T10:05:45.000Z</time>
      </trkpt>
      <trkpt lat="41.68699" lon="20.34878">
        <ele>433.20999145508</ele>
        <time>2023-09-30T10:05:44.000Z</time>
      </trkpt>
      <trkpt lat="41.68688" lon="20.34931">
        <ele>429.85000610352</ele>
        <time>2023-09-30T10:05:41.000Z</time>
      </trkpt>
      <trkpt lat="41.68683" lon="20.34948">
        <ele>429.36999511719</ele>
        <time>2023-09-30T10:05:40.000Z</time>
      </trkpt>
      <trkpt lat="41.6868" lon="20.34958">
        <ele>428.89001464844</ele>
        <time>2023-09-30T10:05:39.000Z</time>
      </trkpt>
      <trkpt lat="41.68674" lon="20.34971">
        <ele>428.39999389648</ele>
        <time>2023-09-30T10:05:38.000Z</time>
      </trkpt>
      <trkpt lat="41.6867" lon="20.34981">
        <ele>428.39999389648</ele>
        <time>2023-09-30T10:05:37.000Z</time>
      </trkpt>
      <trkpt lat="41.68642" lon="20.35035">
        <ele>426.95999145508</ele>
        <time>2023-09-30T10:05:34.000Z</time>
      </trkpt>
      <trkpt lat="41.68637" lon="20.35051">
        <ele>426.48001098633</ele>
        <time>2023-09-30T10:05:33.000Z</time>
      </trkpt>
      <trkpt lat="41.68634" lon="20.35066">
        <ele>426.48001098633</ele>
        <time>2023-09-30T10:05:32.000Z</time>
      </trkpt>
      <trkpt lat="41.68632" lon="20.3508">
        <ele>426.48001098633</ele>
        <time>2023-09-30T10:05:31.000Z</time>
      </trkpt>
      <trkpt lat="41.68632" lon="20.35085">
        <ele>426.48001098633</ele>
        <time>2023-09-30T10:05:30.000Z</time>
      </trkpt>
      <trkpt lat="41.68632" lon="20.35117">
        <ele>426.95999145508</ele>
        <time>2023-09-30T10:05:29.000Z</time>
      </trkpt>
      <trkpt lat="41.68631" lon="20.35134">
        <ele>427.44000244141</ele>
        <time>2023-09-30T10:05:28.000Z</time>
      </trkpt>
      <trkpt lat="41.68631" lon="20.35157">
        <ele>427.92001342773</ele>
        <time>2023-09-30T10:05:26.000Z</time>
      </trkpt>
      <trkpt lat="41.68632" lon="20.35185">
        <ele>427.44000244141</ele>
        <time>2023-09-30T10:05:25.000Z</time>
      </trkpt>
      <trkpt lat="41.68632" lon="20.35193">
        <ele>426.95999145508</ele>
        <time>2023-09-30T10:05:24.000Z</time>
      </trkpt>
      <trkpt lat="41.68634" lon="20.35309">
        <ele>426.48001098633</ele>
        <time>2023-09-30T10:05:19.000Z</time>
      </trkpt>
      <trkpt lat="41.68632" lon="20.35336">
        <ele>427.44000244141</ele>
        <time>2023-09-30T10:05:18.000Z</time>
      </trkpt>
      <trkpt lat="41.68628" lon="20.35363">
        <ele>428.39999389648</ele>
        <time>2023-09-30T10:05:17.000Z</time>
      </trkpt>
      <trkpt lat="41.68625" lon="20.35378">
        <ele>428.89001464844</ele>
        <time>2023-09-30T10:05:16.000Z</time>
      </trkpt>
      <trkpt lat="41.68621" lon="20.35393">
        <ele>429.85000610352</ele>
        <time>2023-09-30T10:05:15.000Z</time>
      </trkpt>
      <trkpt lat="41.686" lon="20.3546">
        <ele>431.29000854492</ele>
        <time>2023-09-30T10:05:12.000Z</time>
      </trkpt>
      <trkpt lat="41.68578" lon="20.35524">
        <ele>432.25</ele>
        <time>2023-09-30T10:05:09.000Z</time>
      </trkpt>
      <trkpt lat="41.68572" lon="20.3554">
        <ele>432.73001098633</ele>
        <time>2023-09-30T10:05:08.000Z</time>
      </trkpt>
      <trkpt lat="41.68563" lon="20.35568">
        <ele>433.20999145508</ele>
        <time>2023-09-30T10:05:07.000Z</time>
      </trkpt>
      <trkpt lat="41.6856" lon="20.3558">
        <ele>432.73001098633</ele>
        <time>2023-09-30T10:05:06.000Z</time>
      </trkpt>
      <trkpt lat="41.68558" lon="20.35591">
        <ele>432.73001098633</ele>
        <time>2023-09-30T10:05:05.000Z</time>
      </trkpt>
      <trkpt lat="41.6856" lon="20.35602">
        <ele>432.25</ele>
        <time>2023-09-30T10:05:04.000Z</time>
      </trkpt>
      <trkpt lat="41.68563" lon="20.35611">
        <ele>432.25</ele>
        <time>2023-09-30T10:05:03.000Z</time>
      </trkpt>
      <trkpt lat="41.68569" lon="20.35619">
        <ele>432.25</ele>
        <time>2023-09-30T10:05:02.000Z</time>
      </trkpt>
      <trkpt lat="41.68573" lon="20.35623">
        <ele>432.25</ele>
        <time>2023-09-30T10:05:01.000Z</time>
      </trkpt>
      <trkpt lat="41.68581" lon="20.3563">
        <ele>431.76998901367</ele>
        <time>2023-09-30T10:05:00.000Z</time>
      </trkpt>
      <trkpt lat="41.68592" lon="20.35638">
        <ele>431.76998901367</ele>
        <time>2023-09-30T10:04:59.000Z</time>
      </trkpt>
      <trkpt lat="41.68638" lon="20.35668">
        <ele>431.76998901367</ele>
        <time>2023-09-30T10:04:56.000Z</time>
      </trkpt>
      <trkpt lat="41.68662" lon="20.35683">
        <ele>432.25</ele>
        <time>2023-09-30T10:04:55.000Z</time>
      </trkpt>
      <trkpt lat="41.68675" lon="20.35692">
        <ele>432.25</ele>
        <time>2023-09-30T10:04:54.000Z</time>
      </trkpt>
      <trkpt lat="41.68685" lon="20.35701">
        <ele>432.25</ele>
        <time>2023-09-30T10:04:53.000Z</time>
      </trkpt>
      <trkpt lat="41.68694" lon="20.35712">
        <ele>432.25</ele>
        <time>2023-09-30T10:04:52.000Z</time>
      </trkpt>
      <trkpt lat="41.68701" lon="20.35721">
        <ele>431.76998901367</ele>
        <time>2023-09-30T10:04:51.000Z</time>
      </trkpt>
      <trkpt lat="41.68707" lon="20.35729">
        <ele>431.29000854492</ele>
        <time>2023-09-30T10:04:50.000Z</time>
      </trkpt>
      <trkpt lat="41.68723" lon="20.35754">
        <ele>430.32998657227</ele>
        <time>2023-09-30T10:04:49.000Z</time>
      </trkpt>
      <trkpt lat="41.6875" lon="20.35798">
        <ele>428.89001464844</ele>
        <time>2023-09-30T10:04:46.000Z</time>
      </trkpt>
      <trkpt lat="41.68759" lon="20.3581">
        <ele>428.39999389648</ele>
        <time>2023-09-30T10:04:44.000Z</time>
      </trkpt>
      <trkpt lat="41.68768" lon="20.35822">
        <ele>428.39999389648</ele>
        <time>2023-09-30T10:04:43.000Z</time>
      </trkpt>
      <trkpt lat="41.68771" lon="20.35827">
        <ele>428.39999389648</ele>
        <time>2023-09-30T10:04:42.000Z</time>
      </trkpt>
      <trkpt lat="41.68775" lon="20.35835">
        <ele>428.39999389648</ele>
        <time>2023-09-30T10:04:41.000Z</time>
      </trkpt>
      <trkpt lat="41.68787" lon="20.35861">
        <ele>428.89001464844</ele>
        <time>2023-09-30T10:04:38.000Z</time>
      </trkpt>
      <trkpt lat="41.68806" lon="20.35911">
        <ele>430.80999755859</ele>
        <time>2023-09-30T10:04:34.000Z</time>
      </trkpt>
      <trkpt lat="41.68822" lon="20.3595">
        <ele>431.29000854492</ele>
        <time>2023-09-30T10:04:29.000Z</time>
      </trkpt>
      <trkpt lat="41.68826" lon="20.35961">
        <ele>431.29000854492</ele>
        <time>2023-09-30T10:04:28.000Z</time>
      </trkpt>
      <trkpt lat="41.68828" lon="20.35965">
        <ele>431.29000854492</ele>
        <time>2023-09-30T10:04:27.000Z</time>
      </trkpt>
      <trkpt lat="41.68831" lon="20.35972">
        <ele>431.29000854492</ele>
        <time>2023-09-30T10:04:26.000Z</time>
      </trkpt>
      <trkpt lat="41.68835" lon="20.35982">
        <ele>431.29000854492</ele>
        <time>2023-09-30T10:04:24.000Z</time>
      </trkpt>
      <trkpt lat="41.68837" lon="20.35987">
        <ele>431.29000854492</ele>
        <time>2023-09-30T10:04:23.000Z</time>
      </trkpt>
      <trkpt lat="41.68841" lon="20.35997">
        <ele>431.76998901367</ele>
        <time>2023-09-30T10:04:21.000Z</time>
      </trkpt>
      <trkpt lat="41.68844" lon="20.36005">
        <ele>431.76998901367</ele>
        <time>2023-09-30T10:04:20.000Z</time>
      </trkpt>
      <trkpt lat="41.68846" lon="20.3601">
        <ele>431.76998901367</ele>
        <time>2023-09-30T10:04:19.000Z</time>
      </trkpt>
      <trkpt lat="41.68848" lon="20.36013">
        <ele>431.76998901367</ele>
        <time>2023-09-30T10:04:18.000Z</time>
      </trkpt>
      <trkpt lat="41.68851" lon="20.36021">
        <ele>431.76998901367</ele>
        <time>2023-09-30T10:04:17.000Z</time>
      </trkpt>
      <trkpt lat="41.68851" lon="20.36022">
        <ele>431.76998901367</ele>
        <time>2023-09-30T10:04:16.000Z</time>
      </trkpt>
      <trkpt lat="41.68857" lon="20.36034">
        <ele>432.25</ele>
        <time>2023-09-30T10:04:15.000Z</time>
      </trkpt>
      <trkpt lat="41.68858" lon="20.36037">
        <ele>432.25</ele>
        <time>2023-09-30T10:04:14.000Z</time>
      </trkpt>
      <trkpt lat="41.68878" lon="20.36086">
        <ele>434.17001342773</ele>
        <time>2023-09-30T10:04:09.000Z</time>
      </trkpt>
      <trkpt lat="41.68882" lon="20.36098">
        <ele>434.64999389648</ele>
        <time>2023-09-30T10:04:08.000Z</time>
      </trkpt>
      <trkpt lat="41.68888" lon="20.36111">
        <ele>435.13000488281</ele>
        <time>2023-09-30T10:04:07.000Z</time>
      </trkpt>
      <trkpt lat="41.68893" lon="20.36125">
        <ele>435.60998535156</ele>
        <time>2023-09-30T10:04:06.000Z</time>
      </trkpt>
      <trkpt lat="41.68909" lon="20.36162">
        <ele>437.05999755859</ele>
        <time>2023-09-30T10:04:04.000Z</time>
      </trkpt>
      <trkpt lat="41.68918" lon="20.36183">
        <ele>437.54000854492</ele>
        <time>2023-09-30T10:04:03.000Z</time>
      </trkpt>
      <trkpt lat="41.6892" lon="20.36189">
        <ele>438.01998901367</ele>
        <time>2023-09-30T10:04:02.000Z</time>
      </trkpt>
      <trkpt lat="41.68931" lon="20.36217">
        <ele>438.98001098633</ele>
        <time>2023-09-30T10:04:01.000Z</time>
      </trkpt>
      <trkpt lat="41.68934" lon="20.36224">
        <ele>438.98001098633</ele>
        <time>2023-09-30T10:04:00.000Z</time>
      </trkpt>
      <trkpt lat="41.6898" lon="20.36341">
        <ele>445.70999145508</ele>
        <time>2023-09-30T10:03:55.000Z</time>
      </trkpt>
      <trkpt lat="41.68988" lon="20.36361">
        <ele>447.14999389648</ele>
        <time>2023-09-30T10:03:54.000Z</time>
      </trkpt>
      <trkpt lat="41.68995" lon="20.36375">
        <ele>448.58999633789</ele>
        <time>2023-09-30T10:03:53.000Z</time>
      </trkpt>
      <trkpt lat="41.69001" lon="20.36385">
        <ele>449.54998779297</ele>
        <time>2023-09-30T10:03:52.000Z</time>
      </trkpt>
      <trkpt lat="41.69008" lon="20.36392">
        <ele>450.0299987793</ele>
        <time>2023-09-30T10:03:51.000Z</time>
      </trkpt>
      <trkpt lat="41.69018" lon="20.36394">
        <ele>451</ele>
        <time>2023-09-30T10:03:50.000Z</time>
      </trkpt>
      <trkpt lat="41.69027" lon="20.36392">
        <ele>451.48001098633</ele>
        <time>2023-09-30T10:03:49.000Z</time>
      </trkpt>
      <trkpt lat="41.69036" lon="20.36387">
        <ele>452.44000244141</ele>
        <time>2023-09-30T10:03:48.000Z</time>
      </trkpt>
      <trkpt lat="41.69043" lon="20.36378">
        <ele>452.44000244141</ele>
        <time>2023-09-30T10:03:47.000Z</time>
      </trkpt>
      <trkpt lat="41.69049" lon="20.36365">
        <ele>452.92001342773</ele>
        <time>2023-09-30T10:03:46.000Z</time>
      </trkpt>
      <trkpt lat="41.69052" lon="20.3635">
        <ele>453.39999389648</ele>
        <time>2023-09-30T10:03:45.000Z</time>
      </trkpt>
      <trkpt lat="41.69054" lon="20.36337">
        <ele>453.88000488281</ele>
        <time>2023-09-30T10:03:44.000Z</time>
      </trkpt>
      <trkpt lat="41.69055" lon="20.36324">
        <ele>453.88000488281</ele>
        <time>2023-09-30T10:03:43.000Z</time>
      </trkpt>
      <trkpt lat="41.69057" lon="20.36298">
        <ele>454.35998535156</ele>
        <time>2023-09-30T10:03:42.000Z</time>
      </trkpt>
      <trkpt lat="41.6906" lon="20.36285">
        <ele>454.83999633789</ele>
        <time>2023-09-30T10:03:41.000Z</time>
      </trkpt>
      <trkpt lat="41.69065" lon="20.36274">
        <ele>455.32000732422</ele>
        <time>2023-09-30T10:03:40.000Z</time>
      </trkpt>
      <trkpt lat="41.69074" lon="20.36264">
        <ele>455.32000732422</ele>
        <time>2023-09-30T10:03:39.000Z</time>
      </trkpt>
      <trkpt lat="41.69079" lon="20.3626">
        <ele>455.79998779297</ele>
        <time>2023-09-30T10:03:38.000Z</time>
      </trkpt>
      <trkpt lat="41.69131" lon="20.36218">
        <ele>456.76000976562</ele>
        <time>2023-09-30T10:03:34.000Z</time>
      </trkpt>
      <trkpt lat="41.69212" lon="20.36152">
        <ele>462.5299987793</ele>
        <time>2023-09-30T10:03:29.000Z</time>
      </trkpt>
      <trkpt lat="41.69222" lon="20.36146">
        <ele>463.01000976562</ele>
        <time>2023-09-30T10:03:28.000Z</time>
      </trkpt>
      <trkpt lat="41.69224" lon="20.36145">
        <ele>463.01000976562</ele>
        <time>2023-09-30T10:03:27.000Z</time>
      </trkpt>
      <trkpt lat="41.69237" lon="20.3614">
        <ele>463.01000976562</ele>
        <time>2023-09-30T10:03:26.000Z</time>
      </trkpt>
      <trkpt lat="41.69243" lon="20.36141">
        <ele>462.5299987793</ele>
        <time>2023-09-30T10:03:25.000Z</time>
      </trkpt>
      <trkpt lat="41.69247" lon="20.36145">
        <ele>462.5299987793</ele>
        <time>2023-09-30T10:03:24.000Z</time>
      </trkpt>
      <trkpt lat="41.69252" lon="20.36152">
        <ele>462.5299987793</ele>
        <time>2023-09-30T10:03:23.000Z</time>
      </trkpt>
      <trkpt lat="41.69254" lon="20.36161">
        <ele>462.04998779297</ele>
        <time>2023-09-30T10:03:22.000Z</time>
      </trkpt>
      <trkpt lat="41.69254" lon="20.36172">
        <ele>462.04998779297</ele>
        <time>2023-09-30T10:03:21.000Z</time>
      </trkpt>
      <trkpt lat="41.69254" lon="20.36174">
        <ele>462.04998779297</ele>
        <time>2023-09-30T10:03:20.000Z</time>
      </trkpt>
      <trkpt lat="41.69251" lon="20.36202">
        <ele>462.5299987793</ele>
        <time>2023-09-30T10:03:19.000Z</time>
      </trkpt>
      <trkpt lat="41.6925" lon="20.36215">
        <ele>463.01000976562</ele>
        <time>2023-09-30T10:03:18.000Z</time>
      </trkpt>
      <trkpt lat="41.69249" lon="20.36235">
        <ele>463.9700012207</ele>
        <time>2023-09-30T10:03:17.000Z</time>
      </trkpt>
      <trkpt lat="41.69248" lon="20.3627">
        <ele>464.92999267578</ele>
        <time>2023-09-30T10:03:16.000Z</time>
      </trkpt>
      <trkpt lat="41.69248" lon="20.36282">
        <ele>465.42001342773</ele>
        <time>2023-09-30T10:03:15.000Z</time>
      </trkpt>
      <trkpt lat="41.6925" lon="20.36307">
        <ele>465.89999389648</ele>
        <time>2023-09-30T10:03:14.000Z</time>
      </trkpt>
      <trkpt lat="41.69262" lon="20.36394">
        <ele>468.29998779297</ele>
        <time>2023-09-30T10:03:10.000Z</time>
      </trkpt>
      <trkpt lat="41.69265" lon="20.36422">
        <ele>469.26000976562</ele>
        <time>2023-09-30T10:03:09.000Z</time>
      </trkpt>
      <trkpt lat="41.69266" lon="20.36459">
        <ele>469.73999023438</ele>
        <time>2023-09-30T10:03:07.000Z</time>
      </trkpt>
      <trkpt lat="41.69266" lon="20.36475">
        <ele>470.2200012207</ele>
        <time>2023-09-30T10:03:06.000Z</time>
      </trkpt>
      <trkpt lat="41.69266" lon="20.36495">
        <ele>470.70001220703</ele>
        <time>2023-09-30T10:03:05.000Z</time>
      </trkpt>
      <trkpt lat="41.69266" lon="20.36503">
        <ele>470.70001220703</ele>
        <time>2023-09-30T10:03:04.000Z</time>
      </trkpt>
      <trkpt lat="41.69271" lon="20.36571">
        <ele>472.14001464844</ele>
        <time>2023-09-30T10:03:01.000Z</time>
      </trkpt>
      <trkpt lat="41.6927" lon="20.36717">
        <ele>474.54998779297</ele>
        <time>2023-09-30T10:02:54.000Z</time>
      </trkpt>
      <trkpt lat="41.6927" lon="20.36728">
        <ele>474.54998779297</ele>
        <time>2023-09-30T10:02:53.000Z</time>
      </trkpt>
      <trkpt lat="41.69275" lon="20.36796">
        <ele>475.98999023438</ele>
        <time>2023-09-30T10:02:50.000Z</time>
      </trkpt>
      <trkpt lat="41.69277" lon="20.36824">
        <ele>476.4700012207</ele>
        <time>2023-09-30T10:02:49.000Z</time>
      </trkpt>
      <trkpt lat="41.69276" lon="20.36844">
        <ele>476.95001220703</ele>
        <time>2023-09-30T10:02:48.000Z</time>
      </trkpt>
      <trkpt lat="41.69275" lon="20.36857">
        <ele>477.42999267578</ele>
        <time>2023-09-30T10:02:47.000Z</time>
      </trkpt>
      <trkpt lat="41.69274" lon="20.36866">
        <ele>477.91000366211</ele>
        <time>2023-09-30T10:02:46.000Z</time>
      </trkpt>
      <trkpt lat="41.69266" lon="20.36915">
        <ele>479.83999633789</ele>
        <time>2023-09-30T10:02:44.000Z</time>
      </trkpt>
      <trkpt lat="41.69264" lon="20.36941">
        <ele>480.32000732422</ele>
        <time>2023-09-30T10:02:43.000Z</time>
      </trkpt>
      <trkpt lat="41.69264" lon="20.3696">
        <ele>480.32000732422</ele>
        <time>2023-09-30T10:02:42.000Z</time>
      </trkpt>
      <trkpt lat="41.69265" lon="20.36982">
        <ele>480.79998779297</ele>
        <time>2023-09-30T10:02:41.000Z</time>
      </trkpt>
      <trkpt lat="41.69268" lon="20.37012">
        <ele>480.79998779297</ele>
        <time>2023-09-30T10:02:39.000Z</time>
      </trkpt>
      <trkpt lat="41.6927" lon="20.37041">
        <ele>480.32000732422</ele>
        <time>2023-09-30T10:02:38.000Z</time>
      </trkpt>
      <trkpt lat="41.6927" lon="20.37067">
        <ele>480.32000732422</ele>
        <time>2023-09-30T10:02:37.000Z</time>
      </trkpt>
      <trkpt lat="41.69269" lon="20.37079">
        <ele>479.83999633789</ele>
        <time>2023-09-30T10:02:36.000Z</time>
      </trkpt>
      <trkpt lat="41.69265" lon="20.37106">
        <ele>479.35000610352</ele>
        <time>2023-09-30T10:02:35.000Z</time>
      </trkpt>
      <trkpt lat="41.69264" lon="20.37113">
        <ele>478.86999511719</ele>
        <time>2023-09-30T10:02:34.000Z</time>
      </trkpt>
      <trkpt lat="41.69248" lon="20.37204">
        <ele>477.42999267578</ele>
        <time>2023-09-30T10:02:30.000Z</time>
      </trkpt>
      <trkpt lat="41.69229" lon="20.37348">
        <ele>478.86999511719</ele>
        <time>2023-09-30T10:02:23.000Z</time>
      </trkpt>
      <trkpt lat="41.69226" lon="20.37364">
        <ele>478.39001464844</ele>
        <time>2023-09-30T10:02:22.000Z</time>
      </trkpt>
      <trkpt lat="41.69222" lon="20.37379">
        <ele>477.91000366211</ele>
        <time>2023-09-30T10:02:21.000Z</time>
      </trkpt>
      <trkpt lat="41.6922" lon="20.37384">
        <ele>477.91000366211</ele>
        <time>2023-09-30T10:02:20.000Z</time>
      </trkpt>
      <trkpt lat="41.69212" lon="20.37402">
        <ele>477.42999267578</ele>
        <time>2023-09-30T10:02:19.000Z</time>
      </trkpt>
      <trkpt lat="41.69205" lon="20.37418">
        <ele>477.42999267578</ele>
        <time>2023-09-30T10:02:18.000Z</time>
      </trkpt>
      <trkpt lat="41.69201" lon="20.37429">
        <ele>477.42999267578</ele>
        <time>2023-09-30T10:02:17.000Z</time>
      </trkpt>
      <trkpt lat="41.69199" lon="20.37441">
        <ele>477.42999267578</ele>
        <time>2023-09-30T10:02:16.000Z</time>
      </trkpt>
      <trkpt lat="41.692" lon="20.37454">
        <ele>477.42999267578</ele>
        <time>2023-09-30T10:02:15.000Z</time>
      </trkpt>
      <trkpt lat="41.69204" lon="20.37468">
        <ele>477.42999267578</ele>
        <time>2023-09-30T10:02:14.000Z</time>
      </trkpt>
      <trkpt lat="41.69207" lon="20.37476">
        <ele>477.42999267578</ele>
        <time>2023-09-30T10:02:13.000Z</time>
      </trkpt>
      <trkpt lat="41.69214" lon="20.37493">
        <ele>477.42999267578</ele>
        <time>2023-09-30T10:02:12.000Z</time>
      </trkpt>
      <trkpt lat="41.69224" lon="20.37512">
        <ele>477.42999267578</ele>
        <time>2023-09-30T10:02:11.000Z</time>
      </trkpt>
      <trkpt lat="41.69232" lon="20.37524">
        <ele>477.42999267578</ele>
        <time>2023-09-30T10:02:10.000Z</time>
      </trkpt>
      <trkpt lat="41.69242" lon="20.37534">
        <ele>477.42999267578</ele>
        <time>2023-09-30T10:02:09.000Z</time>
      </trkpt>
      <trkpt lat="41.69251" lon="20.3754">
        <ele>477.42999267578</ele>
        <time>2023-09-30T10:02:08.000Z</time>
      </trkpt>
      <trkpt lat="41.69256" lon="20.37543">
        <ele>477.42999267578</ele>
        <time>2023-09-30T10:02:07.000Z</time>
      </trkpt>
      <trkpt lat="41.69343" lon="20.37587">
        <ele>477.42999267578</ele>
        <time>2023-09-30T10:02:02.000Z</time>
      </trkpt>
      <trkpt lat="41.69441" lon="20.37637">
        <ele>477.91000366211</ele>
        <time>2023-09-30T10:01:55.000Z</time>
      </trkpt>
      <trkpt lat="41.69453" lon="20.37644">
        <ele>477.91000366211</ele>
        <time>2023-09-30T10:01:54.000Z</time>
      </trkpt>
      <trkpt lat="41.69459" lon="20.37649">
        <ele>477.91000366211</ele>
        <time>2023-09-30T10:01:53.000Z</time>
      </trkpt>
      <trkpt lat="41.69471" lon="20.37659">
        <ele>477.91000366211</ele>
        <time>2023-09-30T10:01:52.000Z</time>
      </trkpt>
      <trkpt lat="41.69484" lon="20.37672">
        <ele>478.39001464844</ele>
        <time>2023-09-30T10:01:51.000Z</time>
      </trkpt>
      <trkpt lat="41.69493" lon="20.37682">
        <ele>478.86999511719</ele>
        <time>2023-09-30T10:01:50.000Z</time>
      </trkpt>
      <trkpt lat="41.69499" lon="20.37693">
        <ele>479.35000610352</ele>
        <time>2023-09-30T10:01:49.000Z</time>
      </trkpt>
      <trkpt lat="41.69503" lon="20.37707">
        <ele>479.83999633789</ele>
        <time>2023-09-30T10:01:48.000Z</time>
      </trkpt>
      <trkpt lat="41.69506" lon="20.3772">
        <ele>480.79998779297</ele>
        <time>2023-09-30T10:01:47.000Z</time>
      </trkpt>
      <trkpt lat="41.69518" lon="20.37775">
        <ele>484.64001464844</ele>
        <time>2023-09-30T10:01:44.000Z</time>
      </trkpt>
      <trkpt lat="41.6952" lon="20.37791">
        <ele>485.60000610352</ele>
        <time>2023-09-30T10:01:43.000Z</time>
      </trkpt>
      <trkpt lat="41.69525" lon="20.3783">
        <ele>487.5299987793</ele>
        <time>2023-09-30T10:01:41.000Z</time>
      </trkpt>
      <trkpt lat="41.69529" lon="20.37849">
        <ele>488.48999023438</ele>
        <time>2023-09-30T10:01:40.000Z</time>
      </trkpt>
      <trkpt lat="41.69534" lon="20.37862">
        <ele>488.9700012207</ele>
        <time>2023-09-30T10:01:39.000Z</time>
      </trkpt>
      <trkpt lat="41.6954" lon="20.37876">
        <ele>489.92999267578</ele>
        <time>2023-09-30T10:01:38.000Z</time>
      </trkpt>
      <trkpt lat="41.6955" lon="20.37899">
        <ele>491.36999511719</ele>
        <time>2023-09-30T10:01:37.000Z</time>
      </trkpt>
      <trkpt lat="41.69556" lon="20.37916">
        <ele>492.80999755859</ele>
        <time>2023-09-30T10:01:36.000Z</time>
      </trkpt>
      <trkpt lat="41.69558" lon="20.37933">
        <ele>493.29000854492</ele>
        <time>2023-09-30T10:01:35.000Z</time>
      </trkpt>
      <trkpt lat="41.69559" lon="20.3794">
        <ele>493.76998901367</ele>
        <time>2023-09-30T10:01:34.000Z</time>
      </trkpt>
      <trkpt lat="41.69561" lon="20.37993">
        <ele>495.70001220703</ele>
        <time>2023-09-30T10:01:32.000Z</time>
      </trkpt>
      <trkpt lat="41.69561" lon="20.38015">
        <ele>496.17999267578</ele>
        <time>2023-09-30T10:01:31.000Z</time>
      </trkpt>
      <trkpt lat="41.6956" lon="20.38032">
        <ele>496.66000366211</ele>
        <time>2023-09-30T10:01:30.000Z</time>
      </trkpt>
      <trkpt lat="41.6956" lon="20.38049">
        <ele>497.14001464844</ele>
        <time>2023-09-30T10:01:29.000Z</time>
      </trkpt>
      <trkpt lat="41.69561" lon="20.38065">
        <ele>497.61999511719</ele>
        <time>2023-09-30T10:01:28.000Z</time>
      </trkpt>
      <trkpt lat="41.69566" lon="20.3808">
        <ele>497.61999511719</ele>
        <time>2023-09-30T10:01:27.000Z</time>
      </trkpt>
      <trkpt lat="41.69572" lon="20.38091">
        <ele>498.10000610352</ele>
        <time>2023-09-30T10:01:26.000Z</time>
      </trkpt>
      <trkpt lat="41.6958" lon="20.381">
        <ele>498.10000610352</ele>
        <time>2023-09-30T10:01:25.000Z</time>
      </trkpt>
      <trkpt lat="41.69591" lon="20.38107">
        <ele>498.10000610352</ele>
        <time>2023-09-30T10:01:24.000Z</time>
      </trkpt>
      <trkpt lat="41.69603" lon="20.38111">
        <ele>498.57998657227</ele>
        <time>2023-09-30T10:01:23.000Z</time>
      </trkpt>
      <trkpt lat="41.69614" lon="20.38113">
        <ele>498.57998657227</ele>
        <time>2023-09-30T10:01:22.000Z</time>
      </trkpt>
      <trkpt lat="41.69627" lon="20.38112">
        <ele>499.05999755859</ele>
        <time>2023-09-30T10:01:21.000Z</time>
      </trkpt>
      <trkpt lat="41.6964" lon="20.3811">
        <ele>500.01998901367</ele>
        <time>2023-09-30T10:01:20.000Z</time>
      </trkpt>
      <trkpt lat="41.69652" lon="20.38106">
        <ele>500.5</ele>
        <time>2023-09-30T10:01:19.000Z</time>
      </trkpt>
      <trkpt lat="41.69662" lon="20.38098">
        <ele>500.98001098633</ele>
        <time>2023-09-30T10:01:18.000Z</time>
      </trkpt>
      <trkpt lat="41.69671" lon="20.38088">
        <ele>501.45999145508</ele>
        <time>2023-09-30T10:01:17.000Z</time>
      </trkpt>
      <trkpt lat="41.69682" lon="20.38074">
        <ele>501.95001220703</ele>
        <time>2023-09-30T10:01:16.000Z</time>
      </trkpt>
      <trkpt lat="41.69691" lon="20.38059">
        <ele>502.42999267578</ele>
        <time>2023-09-30T10:01:15.000Z</time>
      </trkpt>
      <trkpt lat="41.69694" lon="20.38054">
        <ele>502.91000366211</ele>
        <time>2023-09-30T10:01:14.000Z</time>
      </trkpt>
      <trkpt lat="41.69704" lon="20.38032">
        <ele>503.86999511719</ele>
        <time>2023-09-30T10:01:13.000Z</time>
      </trkpt>
      <trkpt lat="41.6971" lon="20.38019">
        <ele>504.35000610352</ele>
        <time>2023-09-30T10:01:12.000Z</time>
      </trkpt>
      <trkpt lat="41.69715" lon="20.3801">
        <ele>504.82998657227</ele>
        <time>2023-09-30T10:01:11.000Z</time>
      </trkpt>
      <trkpt lat="41.69721" lon="20.38005">
        <ele>504.82998657227</ele>
        <time>2023-09-30T10:01:10.000Z</time>
      </trkpt>
      <trkpt lat="41.69728" lon="20.38003">
        <ele>505.79000854492</ele>
        <time>2023-09-30T10:01:09.000Z</time>
      </trkpt>
      <trkpt lat="41.69736" lon="20.38006">
        <ele>506.75</ele>
        <time>2023-09-30T10:01:08.000Z</time>
      </trkpt>
      <trkpt lat="41.69744" lon="20.38012">
        <ele>507.23001098633</ele>
        <time>2023-09-30T10:01:07.000Z</time>
      </trkpt>
      <trkpt lat="41.6975" lon="20.38022">
        <ele>508.19000244141</ele>
        <time>2023-09-30T10:01:06.000Z</time>
      </trkpt>
      <trkpt lat="41.69754" lon="20.38034">
        <ele>509.16000366211</ele>
        <time>2023-09-30T10:01:05.000Z</time>
      </trkpt>
      <trkpt lat="41.69757" lon="20.38048">
        <ele>509.64001464844</ele>
        <time>2023-09-30T10:01:04.000Z</time>
      </trkpt>
      <trkpt lat="41.69756" lon="20.38063">
        <ele>510.60000610352</ele>
        <time>2023-09-30T10:01:03.000Z</time>
      </trkpt>
      <trkpt lat="41.69753" lon="20.38079">
        <ele>511.07998657227</ele>
        <time>2023-09-30T10:01:02.000Z</time>
      </trkpt>
      <trkpt lat="41.69752" lon="20.38086">
        <ele>511.07998657227</ele>
        <time>2023-09-30T10:01:01.000Z</time>
      </trkpt>
      <trkpt lat="41.69714" lon="20.382">
        <ele>513.96002197266</ele>
        <time>2023-09-30T10:00:56.000Z</time>
      </trkpt>
      <trkpt lat="41.69694" lon="20.38266">
        <ele>515.88000488281</ele>
        <time>2023-09-30T10:00:53.000Z</time>
      </trkpt>
      <trkpt lat="41.69648" lon="20.38429">
        <ele>521.16998291016</ele>
        <time>2023-09-30T10:00:45.000Z</time>
      </trkpt>
      <trkpt lat="41.6964" lon="20.38465">
        <ele>522.60998535156</ele>
        <time>2023-09-30T10:00:44.000Z</time>
      </trkpt>
      <trkpt lat="41.69638" lon="20.38484">
        <ele>523.58001708984</ele>
        <time>2023-09-30T10:00:43.000Z</time>
      </trkpt>
      <trkpt lat="41.69638" lon="20.385">
        <ele>525.02001953125</ele>
        <time>2023-09-30T10:00:42.000Z</time>
      </trkpt>
      <trkpt lat="41.69641" lon="20.38544">
        <ele>527.90002441406</ele>
        <time>2023-09-30T10:00:40.000Z</time>
      </trkpt>
      <trkpt lat="41.69639" lon="20.38563">
        <ele>528.85998535156</ele>
        <time>2023-09-30T10:00:39.000Z</time>
      </trkpt>
      <trkpt lat="41.69634" lon="20.38581">
        <ele>530.29998779297</ele>
        <time>2023-09-30T10:00:38.000Z</time>
      </trkpt>
      <trkpt lat="41.69622" lon="20.38616">
        <ele>532.22998046875</ele>
        <time>2023-09-30T10:00:36.000Z</time>
      </trkpt>
      <trkpt lat="41.69618" lon="20.38637">
        <ele>533.66998291016</ele>
        <time>2023-09-30T10:00:35.000Z</time>
      </trkpt>
      <trkpt lat="41.69616" lon="20.38646">
        <ele>533.66998291016</ele>
        <time>2023-09-30T10:00:34.000Z</time>
      </trkpt>
      <trkpt lat="41.69611" lon="20.38703">
        <ele>536.54998779297</ele>
        <time>2023-09-30T10:00:32.000Z</time>
      </trkpt>
      <trkpt lat="41.69607" lon="20.38763">
        <ele>538.96002197266</ele>
        <time>2023-09-30T10:00:29.000Z</time>
      </trkpt>
      <trkpt lat="41.69607" lon="20.38802">
        <ele>540.40002441406</ele>
        <time>2023-09-30T10:00:27.000Z</time>
      </trkpt>
      <trkpt lat="41.69609" lon="20.3882">
        <ele>540.40002441406</ele>
        <time>2023-09-30T10:00:26.000Z</time>
      </trkpt>
      <trkpt lat="41.69612" lon="20.38829">
        <ele>540.88000488281</ele>
        <time>2023-09-30T10:00:25.000Z</time>
      </trkpt>
      <trkpt lat="41.6962" lon="20.38853">
        <ele>540.88000488281</ele>
        <time>2023-09-30T10:00:24.000Z</time>
      </trkpt>
      <trkpt lat="41.69623" lon="20.3887">
        <ele>541.35998535156</ele>
        <time>2023-09-30T10:00:23.000Z</time>
      </trkpt>
      <trkpt lat="41.69621" lon="20.38887">
        <ele>541.84002685547</ele>
        <time>2023-09-30T10:00:22.000Z</time>
      </trkpt>
      <trkpt lat="41.69619" lon="20.38906">
        <ele>542.79998779297</ele>
        <time>2023-09-30T10:00:21.000Z</time>
      </trkpt>
      <trkpt lat="41.69618" lon="20.38926">
        <ele>542.79998779297</ele>
        <time>2023-09-30T10:00:20.000Z</time>
      </trkpt>
      <trkpt lat="41.69618" lon="20.38945">
        <ele>543.28002929688</ele>
        <time>2023-09-30T10:00:19.000Z</time>
      </trkpt>
      <trkpt lat="41.6962" lon="20.3897">
        <ele>544.23999023438</ele>
        <time>2023-09-30T10:00:18.000Z</time>
      </trkpt>
      <trkpt lat="41.6962" lon="20.38993">
        <ele>545.20001220703</ele>
        <time>2023-09-30T10:00:17.000Z</time>
      </trkpt>
      <trkpt lat="41.6962" lon="20.39014">
        <ele>546.65002441406</ele>
        <time>2023-09-30T10:00:16.000Z</time>
      </trkpt>
      <trkpt lat="41.69615" lon="20.39071">
        <ele>550.01000976562</ele>
        <time>2023-09-30T10:00:13.000Z</time>
      </trkpt>
      <trkpt lat="41.69613" lon="20.3909">
        <ele>551.45001220703</ele>
        <time>2023-09-30T10:00:12.000Z</time>
      </trkpt>
      <trkpt lat="41.69612" lon="20.39107">
        <ele>552.40997314453</ele>
        <time>2023-09-30T10:00:11.000Z</time>
      </trkpt>
      <trkpt lat="41.69611" lon="20.3918">
        <ele>556.26000976562</ele>
        <time>2023-09-30T10:00:08.000Z</time>
      </trkpt>
      <trkpt lat="41.6961" lon="20.392">
        <ele>557.70001220703</ele>
        <time>2023-09-30T10:00:07.000Z</time>
      </trkpt>
      <trkpt lat="41.69594" lon="20.39359">
        <ele>568.28002929688</ele>
        <time>2023-09-30T10:00:01.000Z</time>
      </trkpt>
      <trkpt lat="41.69574" lon="20.39518">
        <ele>578.36999511719</ele>
        <time>2023-09-30T09:59:53.000Z</time>
      </trkpt>
      <trkpt lat="41.6957" lon="20.39551">
        <ele>580.28997802734</ele>
        <time>2023-09-30T09:59:51.000Z</time>
      </trkpt>
      <trkpt lat="41.69569" lon="20.39566">
        <ele>580.77001953125</ele>
        <time>2023-09-30T09:59:50.000Z</time>
      </trkpt>
      <trkpt lat="41.69568" lon="20.39586">
        <ele>581.72998046875</ele>
        <time>2023-09-30T09:59:49.000Z</time>
      </trkpt>
      <trkpt lat="41.69572" lon="20.39657">
        <ele>586.53997802734</ele>
        <time>2023-09-30T09:59:45.000Z</time>
      </trkpt>
      <trkpt lat="41.69574" lon="20.3968">
        <ele>587.97998046875</ele>
        <time>2023-09-30T09:59:44.000Z</time>
      </trkpt>
      <trkpt lat="41.69576" lon="20.39692">
        <ele>588.95001220703</ele>
        <time>2023-09-30T09:59:43.000Z</time>
      </trkpt>
      <trkpt lat="41.69578" lon="20.39699">
        <ele>589.42999267578</ele>
        <time>2023-09-30T09:59:42.000Z</time>
      </trkpt>
      <trkpt lat="41.69583" lon="20.39726">
        <ele>590.86999511719</ele>
        <time>2023-09-30T09:59:41.000Z</time>
      </trkpt>
      <trkpt lat="41.69586" lon="20.39742">
        <ele>591.34997558594</ele>
        <time>2023-09-30T09:59:40.000Z</time>
      </trkpt>
      <trkpt lat="41.69587" lon="20.39756">
        <ele>591.83001708984</ele>
        <time>2023-09-30T09:59:39.000Z</time>
      </trkpt>
      <trkpt lat="41.69587" lon="20.39768">
        <ele>592.78997802734</ele>
        <time>2023-09-30T09:59:38.000Z</time>
      </trkpt>
      <trkpt lat="41.69586" lon="20.39781">
        <ele>593.27001953125</ele>
        <time>2023-09-30T09:59:37.000Z</time>
      </trkpt>
      <trkpt lat="41.69586" lon="20.39783">
        <ele>593.27001953125</ele>
        <time>2023-09-30T09:59:36.000Z</time>
      </trkpt>
      <trkpt lat="41.69582" lon="20.39815">
        <ele>594.71002197266</ele>
        <time>2023-09-30T09:59:34.000Z</time>
      </trkpt>
      <trkpt lat="41.69581" lon="20.39824">
        <ele>594.71002197266</ele>
        <time>2023-09-30T09:59:33.000Z</time>
      </trkpt>
      <trkpt lat="41.69581" lon="20.39836">
        <ele>595.19000244141</ele>
        <time>2023-09-30T09:59:32.000Z</time>
      </trkpt>
      <trkpt lat="41.69581" lon="20.39844">
        <ele>596.15002441406</ele>
        <time>2023-09-30T09:59:31.000Z</time>
      </trkpt>
      <trkpt lat="41.6958" lon="20.39851">
        <ele>596.15002441406</ele>
        <time>2023-09-30T09:59:30.000Z</time>
      </trkpt>
      <trkpt lat="41.6958" lon="20.39852">
        <ele>596.15002441406</ele>
        <time>2023-09-30T09:59:29.000Z</time>
      </trkpt>
      <trkpt lat="41.69571" lon="20.39857">
        <ele>596.15002441406</ele>
        <time>2023-09-30T09:59:27.000Z</time>
      </trkpt>
      <trkpt lat="41.6957" lon="20.39856">
        <ele>596.15002441406</ele>
        <time>2023-09-30T09:59:26.000Z</time>
      </trkpt>
      <trkpt lat="41.69562" lon="20.39853">
        <ele>596.15002441406</ele>
        <time>2023-09-30T09:59:24.000Z</time>
      </trkpt>
      <trkpt lat="41.69564" lon="20.39851">
        <ele>595.66998291016</ele>
        <time>2023-09-30T09:59:09.000Z</time>
      </trkpt>
      <trkpt lat="41.69562" lon="20.39845">
        <ele>595.66998291016</ele>
        <time>2023-09-30T09:58:59.000Z</time>
      </trkpt>
      <trkpt lat="41.69574" lon="20.39828">
        <ele>595.19000244141</ele>
        <time>2023-09-30T09:58:53.000Z</time>
      </trkpt>
      <trkpt lat="41.6958" lon="20.39853">
        <ele>596.15002441406</ele>
        <time>2023-09-30T09:58:46.000Z</time>
      </trkpt>
      <trkpt lat="41.69579" lon="20.3986">
        <ele>596.64001464844</ele>
        <time>2023-09-30T09:58:45.000Z</time>
      </trkpt>
      <trkpt lat="41.69578" lon="20.39866">
        <ele>597.11999511719</ele>
        <time>2023-09-30T09:58:44.000Z</time>
      </trkpt>
      <trkpt lat="41.69573" lon="20.39886">
        <ele>597.59997558594</ele>
        <time>2023-09-30T09:58:42.000Z</time>
      </trkpt>
      <trkpt lat="41.69571" lon="20.39896">
        <ele>598.08001708984</ele>
        <time>2023-09-30T09:58:41.000Z</time>
      </trkpt>
      <trkpt lat="41.69568" lon="20.39906">
        <ele>598.55999755859</ele>
        <time>2023-09-30T09:58:40.000Z</time>
      </trkpt>
      <trkpt lat="41.69566" lon="20.39911">
        <ele>599.03997802734</ele>
        <time>2023-09-30T09:58:39.000Z</time>
      </trkpt>
      <trkpt lat="41.69556" lon="20.39941">
        <ele>600.47998046875</ele>
        <time>2023-09-30T09:58:37.000Z</time>
      </trkpt>
      <trkpt lat="41.69545" lon="20.39973">
        <ele>601.91998291016</ele>
        <time>2023-09-30T09:58:35.000Z</time>
      </trkpt>
      <trkpt lat="41.69542" lon="20.39982">
        <ele>602.40002441406</ele>
        <time>2023-09-30T09:58:34.000Z</time>
      </trkpt>
      <trkpt lat="41.69533" lon="20.40005">
        <ele>603.35998535156</ele>
        <time>2023-09-30T09:58:33.000Z</time>
      </trkpt>
      <trkpt lat="41.69525" lon="20.4002">
        <ele>604.33001708984</ele>
        <time>2023-09-30T09:58:32.000Z</time>
      </trkpt>
      <trkpt lat="41.69518" lon="20.40034">
        <ele>605.77001953125</ele>
        <time>2023-09-30T09:58:31.000Z</time>
      </trkpt>
      <trkpt lat="41.69507" lon="20.40051">
        <ele>606.72998046875</ele>
        <time>2023-09-30T09:58:30.000Z</time>
      </trkpt>
      <trkpt lat="41.69502" lon="20.40058">
        <ele>607.21002197266</ele>
        <time>2023-09-30T09:58:29.000Z</time>
      </trkpt>
      <trkpt lat="41.69491" lon="20.40071">
        <ele>608.16998291016</ele>
        <time>2023-09-30T09:58:28.000Z</time>
      </trkpt>
      <trkpt lat="41.69474" lon="20.40091">
        <ele>610.57000732422</ele>
        <time>2023-09-30T09:58:27.000Z</time>
      </trkpt>
      <trkpt lat="41.69465" lon="20.40107">
        <ele>612.97998046875</ele>
        <time>2023-09-30T09:58:26.000Z</time>
      </trkpt>
      <trkpt lat="41.69458" lon="20.40124">
        <ele>614.41998291016</ele>
        <time>2023-09-30T09:58:25.000Z</time>
      </trkpt>
      <trkpt lat="41.69454" lon="20.4014">
        <ele>615.85998535156</ele>
        <time>2023-09-30T09:58:24.000Z</time>
      </trkpt>
      <trkpt lat="41.69452" lon="20.40154">
        <ele>617.29998779297</ele>
        <time>2023-09-30T09:58:23.000Z</time>
      </trkpt>
      <trkpt lat="41.69448" lon="20.40186">
        <ele>620.19000244141</ele>
        <time>2023-09-30T09:58:22.000Z</time>
      </trkpt>
      <trkpt lat="41.69444" lon="20.40207">
        <ele>622.59002685547</ele>
        <time>2023-09-30T09:58:21.000Z</time>
      </trkpt>
      <trkpt lat="41.6944" lon="20.4022">
        <ele>624.03002929688</ele>
        <time>2023-09-30T09:58:20.000Z</time>
      </trkpt>
      <trkpt lat="41.69432" lon="20.40242">
        <ele>625.46997070312</ele>
        <time>2023-09-30T09:58:19.000Z</time>
      </trkpt>
      <trkpt lat="41.69426" lon="20.40254">
        <ele>626.91998291016</ele>
        <time>2023-09-30T09:58:18.000Z</time>
      </trkpt>
      <trkpt lat="41.69417" lon="20.4027">
        <ele>628.35998535156</ele>
        <time>2023-09-30T09:58:17.000Z</time>
      </trkpt>
      <trkpt lat="41.69409" lon="20.40286">
        <ele>629.79998779297</ele>
        <time>2023-09-30T09:58:16.000Z</time>
      </trkpt>
      <trkpt lat="41.69402" lon="20.40305">
        <ele>631.23999023438</ele>
        <time>2023-09-30T09:58:15.000Z</time>
      </trkpt>
      <trkpt lat="41.69389" lon="20.40335">
        <ele>633.65002441406</ele>
        <time>2023-09-30T09:58:13.000Z</time>
      </trkpt>
      <trkpt lat="41.69383" lon="20.40352">
        <ele>635.09002685547</ele>
        <time>2023-09-30T09:58:12.000Z</time>
      </trkpt>
      <trkpt lat="41.69356" lon="20.40426">
        <ele>637.48999023438</ele>
        <time>2023-09-30T09:58:09.000Z</time>
      </trkpt>
      <trkpt lat="41.69325" lon="20.40532">
        <ele>638.92999267578</ele>
        <time>2023-09-30T09:58:04.000Z</time>
      </trkpt>
      <trkpt lat="41.6932" lon="20.40547">
        <ele>638.92999267578</ele>
        <time>2023-09-30T09:58:03.000Z</time>
      </trkpt>
      <trkpt lat="41.69276" lon="20.4065">
        <ele>638.92999267578</ele>
        <time>2023-09-30T09:57:54.000Z</time>
      </trkpt>
      <trkpt lat="41.69273" lon="20.40661">
        <ele>638.45001220703</ele>
        <time>2023-09-30T09:57:53.000Z</time>
      </trkpt>
      <trkpt lat="41.69272" lon="20.40674">
        <ele>637.96997070312</ele>
        <time>2023-09-30T09:57:52.000Z</time>
      </trkpt>
      <trkpt lat="41.69272" lon="20.40687">
        <ele>637.48999023438</ele>
        <time>2023-09-30T09:57:51.000Z</time>
      </trkpt>
      <trkpt lat="41.69272" lon="20.40695">
        <ele>637.48999023438</ele>
        <time>2023-09-30T09:57:50.000Z</time>
      </trkpt>
      <trkpt lat="41.69275" lon="20.40715">
        <ele>637.48999023438</ele>
        <time>2023-09-30T09:57:49.000Z</time>
      </trkpt>
      <trkpt lat="41.69275" lon="20.40728">
        <ele>637.48999023438</ele>
        <time>2023-09-30T09:57:48.000Z</time>
      </trkpt>
      <trkpt lat="41.69272" lon="20.4074">
        <ele>637.96997070312</ele>
        <time>2023-09-30T09:57:47.000Z</time>
      </trkpt>
      <trkpt lat="41.69268" lon="20.4075">
        <ele>637.96997070312</ele>
        <time>2023-09-30T09:57:46.000Z</time>
      </trkpt>
      <trkpt lat="41.69262" lon="20.4076">
        <ele>638.45001220703</ele>
        <time>2023-09-30T09:57:45.000Z</time>
      </trkpt>
      <trkpt lat="41.69256" lon="20.40769">
        <ele>638.45001220703</ele>
        <time>2023-09-30T09:57:44.000Z</time>
      </trkpt>
      <trkpt lat="41.69254" lon="20.40772">
        <ele>638.45001220703</ele>
        <time>2023-09-30T09:57:43.000Z</time>
      </trkpt>
      <trkpt lat="41.69241" lon="20.40787">
        <ele>638.92999267578</ele>
        <time>2023-09-30T09:57:42.000Z</time>
      </trkpt>
      <trkpt lat="41.69234" lon="20.40793">
        <ele>638.92999267578</ele>
        <time>2023-09-30T09:57:41.000Z</time>
      </trkpt>
      <trkpt lat="41.69231" lon="20.40796">
        <ele>638.92999267578</ele>
        <time>2023-09-30T09:57:40.000Z</time>
      </trkpt>
      <trkpt lat="41.69227" lon="20.40799">
        <ele>638.92999267578</ele>
        <time>2023-09-30T09:57:39.000Z</time>
      </trkpt>
      <trkpt lat="41.69215" lon="20.40807">
        <ele>638.45001220703</ele>
        <time>2023-09-30T09:57:38.000Z</time>
      </trkpt>
      <trkpt lat="41.692" lon="20.40818">
        <ele>637.96997070312</ele>
        <time>2023-09-30T09:57:36.000Z</time>
      </trkpt>
      <trkpt lat="41.69195" lon="20.40822">
        <ele>637.48999023438</ele>
        <time>2023-09-30T09:57:35.000Z</time>
      </trkpt>
      <trkpt lat="41.69178" lon="20.4084">
        <ele>637.48999023438</ele>
        <time>2023-09-30T09:57:33.000Z</time>
      </trkpt>
      <trkpt lat="41.69172" lon="20.40847">
        <ele>637.48999023438</ele>
        <time>2023-09-30T09:57:32.000Z</time>
      </trkpt>
      <trkpt lat="41.69165" lon="20.40855">
        <ele>637.48999023438</ele>
        <time>2023-09-30T09:57:31.000Z</time>
      </trkpt>
      <trkpt lat="41.69156" lon="20.40867">
        <ele>637.48999023438</ele>
        <time>2023-09-30T09:57:30.000Z</time>
      </trkpt>
      <trkpt lat="41.69149" lon="20.40878">
        <ele>637.48999023438</ele>
        <time>2023-09-30T09:57:29.000Z</time>
      </trkpt>
      <trkpt lat="41.69145" lon="20.40884">
        <ele>637.48999023438</ele>
        <time>2023-09-30T09:57:28.000Z</time>
      </trkpt>
      <trkpt lat="41.69138" lon="20.40903">
        <ele>637.01000976562</ele>
        <time>2023-09-30T09:57:26.000Z</time>
      </trkpt>
      <trkpt lat="41.69125" lon="20.40928">
        <ele>637.01000976562</ele>
        <time>2023-09-30T09:57:24.000Z</time>
      </trkpt>
      <trkpt lat="41.69113" lon="20.40955">
        <ele>636.04998779297</ele>
        <time>2023-09-30T09:57:22.000Z</time>
      </trkpt>
      <trkpt lat="41.6911" lon="20.40967">
        <ele>636.04998779297</ele>
        <time>2023-09-30T09:57:21.000Z</time>
      </trkpt>
      <trkpt lat="41.6911" lon="20.40979">
        <ele>635.57000732422</ele>
        <time>2023-09-30T09:57:20.000Z</time>
      </trkpt>
      <trkpt lat="41.69111" lon="20.40991">
        <ele>635.09002685547</ele>
        <time>2023-09-30T09:57:19.000Z</time>
      </trkpt>
      <trkpt lat="41.69113" lon="20.40998">
        <ele>635.09002685547</ele>
        <time>2023-09-30T09:57:18.000Z</time>
      </trkpt>
      <trkpt lat="41.69122" lon="20.41025">
        <ele>635.09002685547</ele>
        <time>2023-09-30T09:57:16.000Z</time>
      </trkpt>
      <trkpt lat="41.69127" lon="20.41036">
        <ele>634.60998535156</ele>
        <time>2023-09-30T09:57:15.000Z</time>
      </trkpt>
      <trkpt lat="41.69133" lon="20.41049">
        <ele>634.60998535156</ele>
        <time>2023-09-30T09:57:13.000Z</time>
      </trkpt>
      <trkpt lat="41.6915" lon="20.4109">
        <ele>634.13000488281</ele>
        <time>2023-09-30T09:57:10.000Z</time>
      </trkpt>
      <trkpt lat="41.69154" lon="20.41103">
        <ele>634.13000488281</ele>
        <time>2023-09-30T09:57:09.000Z</time>
      </trkpt>
      <trkpt lat="41.69156" lon="20.41115">
        <ele>633.65002441406</ele>
        <time>2023-09-30T09:57:08.000Z</time>
      </trkpt>
      <trkpt lat="41.69155" lon="20.41128">
        <ele>633.65002441406</ele>
        <time>2023-09-30T09:57:07.000Z</time>
      </trkpt>
      <trkpt lat="41.69153" lon="20.41141">
        <ele>633.65002441406</ele>
        <time>2023-09-30T09:57:06.000Z</time>
      </trkpt>
      <trkpt lat="41.69153" lon="20.41144">
        <ele>633.65002441406</ele>
        <time>2023-09-30T09:57:05.000Z</time>
      </trkpt>
      <trkpt lat="41.69147" lon="20.41186">
        <ele>632.20001220703</ele>
        <time>2023-09-30T09:57:02.000Z</time>
      </trkpt>
      <trkpt lat="41.69147" lon="20.41192">
        <ele>631.71997070312</ele>
        <time>2023-09-30T09:57:01.000Z</time>
      </trkpt>
      <trkpt lat="41.69147" lon="20.41203">
        <ele>631.23999023438</ele>
        <time>2023-09-30T09:57:00.000Z</time>
      </trkpt>
      <trkpt lat="41.69146" lon="20.41214">
        <ele>630.76000976562</ele>
        <time>2023-09-30T09:56:59.000Z</time>
      </trkpt>
      <trkpt lat="41.69146" lon="20.41239">
        <ele>628.84002685547</ele>
        <time>2023-09-30T09:56:57.000Z</time>
      </trkpt>
      <trkpt lat="41.69144" lon="20.41251">
        <ele>628.35998535156</ele>
        <time>2023-09-30T09:56:56.000Z</time>
      </trkpt>
      <trkpt lat="41.6914" lon="20.41262">
        <ele>628.35998535156</ele>
        <time>2023-09-30T09:56:55.000Z</time>
      </trkpt>
      <trkpt lat="41.69134" lon="20.41272">
        <ele>627.88000488281</ele>
        <time>2023-09-30T09:56:54.000Z</time>
      </trkpt>
      <trkpt lat="41.69129" lon="20.41279">
        <ele>627.88000488281</ele>
        <time>2023-09-30T09:56:53.000Z</time>
      </trkpt>
      <trkpt lat="41.69122" lon="20.41284">
        <ele>627.40002441406</ele>
        <time>2023-09-30T09:56:52.000Z</time>
      </trkpt>
      <trkpt lat="41.69115" lon="20.41287">
        <ele>626.91998291016</ele>
        <time>2023-09-30T09:56:51.000Z</time>
      </trkpt>
      <trkpt lat="41.69107" lon="20.41289">
        <ele>626.44000244141</ele>
        <time>2023-09-30T09:56:50.000Z</time>
      </trkpt>
      <trkpt lat="41.69101" lon="20.4129">
        <ele>625.96002197266</ele>
        <time>2023-09-30T09:56:49.000Z</time>
      </trkpt>
      <trkpt lat="41.69084" lon="20.4129">
        <ele>625.96002197266</ele>
        <time>2023-09-30T09:56:47.000Z</time>
      </trkpt>
      <trkpt lat="41.69076" lon="20.41291">
        <ele>625.96002197266</ele>
        <time>2023-09-30T09:56:46.000Z</time>
      </trkpt>
      <trkpt lat="41.69068" lon="20.41294">
        <ele>625.96002197266</ele>
        <time>2023-09-30T09:56:45.000Z</time>
      </trkpt>
      <trkpt lat="41.69061" lon="20.413">
        <ele>626.44000244141</ele>
        <time>2023-09-30T09:56:44.000Z</time>
      </trkpt>
      <trkpt lat="41.69055" lon="20.41308">
        <ele>626.91998291016</ele>
        <time>2023-09-30T09:56:43.000Z</time>
      </trkpt>
      <trkpt lat="41.69052" lon="20.41318">
        <ele>627.88000488281</ele>
        <time>2023-09-30T09:56:42.000Z</time>
      </trkpt>
      <trkpt lat="41.69051" lon="20.41329">
        <ele>628.84002685547</ele>
        <time>2023-09-30T09:56:41.000Z</time>
      </trkpt>
      <trkpt lat="41.69051" lon="20.4134">
        <ele>629.32000732422</ele>
        <time>2023-09-30T09:56:40.000Z</time>
      </trkpt>
      <trkpt lat="41.69051" lon="20.41349">
        <ele>629.79998779297</ele>
        <time>2023-09-30T09:56:39.000Z</time>
      </trkpt>
      <trkpt lat="41.69051" lon="20.41357">
        <ele>630.28002929688</ele>
        <time>2023-09-30T09:56:38.000Z</time>
      </trkpt>
      <trkpt lat="41.69051" lon="20.41369">
        <ele>630.76000976562</ele>
        <time>2023-09-30T09:56:37.000Z</time>
      </trkpt>
      <trkpt lat="41.69053" lon="20.41413">
        <ele>633.16998291016</ele>
        <time>2023-09-30T09:56:34.000Z</time>
      </trkpt>
      <trkpt lat="41.69053" lon="20.41422">
        <ele>633.65002441406</ele>
        <time>2023-09-30T09:56:33.000Z</time>
      </trkpt>
      <trkpt lat="41.69054" lon="20.41432">
        <ele>634.13000488281</ele>
        <time>2023-09-30T09:56:32.000Z</time>
      </trkpt>
      <trkpt lat="41.69057" lon="20.41451">
        <ele>634.60998535156</ele>
        <time>2023-09-30T09:56:31.000Z</time>
      </trkpt>
      <trkpt lat="41.69058" lon="20.41461">
        <ele>635.09002685547</ele>
        <time>2023-09-30T09:56:30.000Z</time>
      </trkpt>
      <trkpt lat="41.6906" lon="20.41486">
        <ele>636.04998779297</ele>
        <time>2023-09-30T09:56:29.000Z</time>
      </trkpt>
      <trkpt lat="41.69061" lon="20.41497">
        <ele>636.53002929688</ele>
        <time>2023-09-30T09:56:28.000Z</time>
      </trkpt>
      <trkpt lat="41.69062" lon="20.41518">
        <ele>637.01000976562</ele>
        <time>2023-09-30T09:56:27.000Z</time>
      </trkpt>
      <trkpt lat="41.69061" lon="20.41535">
        <ele>637.96997070312</ele>
        <time>2023-09-30T09:56:26.000Z</time>
      </trkpt>
      <trkpt lat="41.69058" lon="20.41553">
        <ele>639.40997314453</ele>
        <time>2023-09-30T09:56:25.000Z</time>
      </trkpt>
      <trkpt lat="41.69054" lon="20.41567">
        <ele>640.38000488281</ele>
        <time>2023-09-30T09:56:24.000Z</time>
      </trkpt>
      <trkpt lat="41.69048" lon="20.41578">
        <ele>640.85998535156</ele>
        <time>2023-09-30T09:56:23.000Z</time>
      </trkpt>
      <trkpt lat="41.69041" lon="20.41587">
        <ele>641.34002685547</ele>
        <time>2023-09-30T09:56:22.000Z</time>
      </trkpt>
      <trkpt lat="41.69034" lon="20.41593">
        <ele>641.82000732422</ele>
        <time>2023-09-30T09:56:21.000Z</time>
      </trkpt>
      <trkpt lat="41.68993" lon="20.41622">
        <ele>645.17999267578</ele>
        <time>2023-09-30T09:56:17.000Z</time>
      </trkpt>
      <trkpt lat="41.68985" lon="20.41629">
        <ele>645.65997314453</ele>
        <time>2023-09-30T09:56:16.000Z</time>
      </trkpt>
      <trkpt lat="41.68978" lon="20.41636">
        <ele>646.61999511719</ele>
        <time>2023-09-30T09:56:15.000Z</time>
      </trkpt>
      <trkpt lat="41.68967" lon="20.41651">
        <ele>647.59002685547</ele>
        <time>2023-09-30T09:56:14.000Z</time>
      </trkpt>
      <trkpt lat="41.6896" lon="20.4166">
        <ele>647.59002685547</ele>
        <time>2023-09-30T09:56:13.000Z</time>
      </trkpt>
      <trkpt lat="41.68951" lon="20.41675">
        <ele>647.59002685547</ele>
        <time>2023-09-30T09:56:12.000Z</time>
      </trkpt>
      <trkpt lat="41.68944" lon="20.41685">
        <ele>648.07000732422</ele>
        <time>2023-09-30T09:56:11.000Z</time>
      </trkpt>
      <trkpt lat="41.68941" lon="20.4169">
        <ele>648.54998779297</ele>
        <time>2023-09-30T09:56:10.000Z</time>
      </trkpt>
      <trkpt lat="41.68931" lon="20.41703">
        <ele>649.03002929688</ele>
        <time>2023-09-30T09:56:09.000Z</time>
      </trkpt>
      <trkpt lat="41.68924" lon="20.41711">
        <ele>649.51000976562</ele>
        <time>2023-09-30T09:56:08.000Z</time>
      </trkpt>
      <trkpt lat="41.68915" lon="20.41725">
        <ele>649.51000976562</ele>
        <time>2023-09-30T09:56:07.000Z</time>
      </trkpt>
      <trkpt lat="41.68908" lon="20.41736">
        <ele>649.51000976562</ele>
        <time>2023-09-30T09:56:06.000Z</time>
      </trkpt>
      <trkpt lat="41.689" lon="20.4175">
        <ele>649.03002929688</ele>
        <time>2023-09-30T09:56:05.000Z</time>
      </trkpt>
      <trkpt lat="41.68895" lon="20.41762">
        <ele>648.54998779297</ele>
        <time>2023-09-30T09:56:04.000Z</time>
      </trkpt>
      <trkpt lat="41.68862" lon="20.41848">
        <ele>647.09997558594</ele>
        <time>2023-09-30T09:55:58.000Z</time>
      </trkpt>
      <trkpt lat="41.68858" lon="20.41866">
        <ele>647.09997558594</ele>
        <time>2023-09-30T09:55:57.000Z</time>
      </trkpt>
      <trkpt lat="41.68857" lon="20.41869">
        <ele>647.09997558594</ele>
        <time>2023-09-30T09:55:56.000Z</time>
      </trkpt>
      <trkpt lat="41.68843" lon="20.41962">
        <ele>647.59002685547</ele>
        <time>2023-09-30T09:55:51.000Z</time>
      </trkpt>
      <trkpt lat="41.68834" lon="20.42008">
        <ele>648.54998779297</ele>
        <time>2023-09-30T09:55:49.000Z</time>
      </trkpt>
      <trkpt lat="41.68833" lon="20.42014">
        <ele>649.03002929688</ele>
        <time>2023-09-30T09:55:48.000Z</time>
      </trkpt>
      <trkpt lat="41.68832" lon="20.42035">
        <ele>649.03002929688</ele>
        <time>2023-09-30T09:55:47.000Z</time>
      </trkpt>
      <trkpt lat="41.6883" lon="20.42048">
        <ele>649.51000976562</ele>
        <time>2023-09-30T09:55:46.000Z</time>
      </trkpt>
      <trkpt lat="41.68828" lon="20.42058">
        <ele>649.51000976562</ele>
        <time>2023-09-30T09:55:45.000Z</time>
      </trkpt>
      <trkpt lat="41.6882" lon="20.4209">
        <ele>649.03002929688</ele>
        <time>2023-09-30T09:55:42.000Z</time>
      </trkpt>
      <trkpt lat="41.68791" lon="20.42198">
        <ele>648.54998779297</ele>
        <time>2023-09-30T09:55:35.000Z</time>
      </trkpt>
      <trkpt lat="41.6879" lon="20.42202">
        <ele>648.54998779297</ele>
        <time>2023-09-30T09:55:34.000Z</time>
      </trkpt>
      <trkpt lat="41.68786" lon="20.42217">
        <ele>648.54998779297</ele>
        <time>2023-09-30T09:55:33.000Z</time>
      </trkpt>
      <trkpt lat="41.68781" lon="20.42234">
        <ele>648.07000732422</ele>
        <time>2023-09-30T09:55:32.000Z</time>
      </trkpt>
      <trkpt lat="41.68777" lon="20.42247">
        <ele>648.54998779297</ele>
        <time>2023-09-30T09:55:31.000Z</time>
      </trkpt>
      <trkpt lat="41.68776" lon="20.42253">
        <ele>648.07000732422</ele>
        <time>2023-09-30T09:55:30.000Z</time>
      </trkpt>
      <trkpt lat="41.68773" lon="20.42266">
        <ele>648.54998779297</ele>
        <time>2023-09-30T09:55:29.000Z</time>
      </trkpt>
      <trkpt lat="41.6877" lon="20.42283">
        <ele>648.07000732422</ele>
        <time>2023-09-30T09:55:28.000Z</time>
      </trkpt>
      <trkpt lat="41.68769" lon="20.42295">
        <ele>648.07000732422</ele>
        <time>2023-09-30T09:55:27.000Z</time>
      </trkpt>
      <trkpt lat="41.68769" lon="20.42301">
        <ele>648.07000732422</ele>
        <time>2023-09-30T09:55:26.000Z</time>
      </trkpt>
      <trkpt lat="41.68769" lon="20.4232">
        <ele>648.07000732422</ele>
        <time>2023-09-30T09:55:25.000Z</time>
      </trkpt>
      <trkpt lat="41.68769" lon="20.42327">
        <ele>647.59002685547</ele>
        <time>2023-09-30T09:55:24.000Z</time>
      </trkpt>
      <trkpt lat="41.68769" lon="20.42348">
        <ele>648.07000732422</ele>
        <time>2023-09-30T09:55:23.000Z</time>
      </trkpt>
      <trkpt lat="41.68771" lon="20.42404">
        <ele>649.98999023438</ele>
        <time>2023-09-30T09:55:19.000Z</time>
      </trkpt>
      <trkpt lat="41.6877" lon="20.42416">
        <ele>650.46997070312</ele>
        <time>2023-09-30T09:55:18.000Z</time>
      </trkpt>
      <trkpt lat="41.68768" lon="20.42425">
        <ele>651.42999267578</ele>
        <time>2023-09-30T09:55:17.000Z</time>
      </trkpt>
      <trkpt lat="41.68763" lon="20.42434">
        <ele>651.90997314453</ele>
        <time>2023-09-30T09:55:16.000Z</time>
      </trkpt>
      <trkpt lat="41.68758" lon="20.4244">
        <ele>651.90997314453</ele>
        <time>2023-09-30T09:55:15.000Z</time>
      </trkpt>
      <trkpt lat="41.68753" lon="20.42447">
        <ele>652.39001464844</ele>
        <time>2023-09-30T09:55:14.000Z</time>
      </trkpt>
      <trkpt lat="41.68739" lon="20.42462">
        <ele>653.83001708984</ele>
        <time>2023-09-30T09:55:12.000Z</time>
      </trkpt>
      <trkpt lat="41.68733" lon="20.42469">
        <ele>653.83001708984</ele>
        <time>2023-09-30T09:55:11.000Z</time>
      </trkpt>
      <trkpt lat="41.68732" lon="20.4247">
        <ele>653.83001708984</ele>
        <time>2023-09-30T09:55:10.000Z</time>
      </trkpt>
      <trkpt lat="41.68717" lon="20.4248">
        <ele>655.28002929688</ele>
        <time>2023-09-30T09:55:09.000Z</time>
      </trkpt>
      <trkpt lat="41.68711" lon="20.42484">
        <ele>655.76000976562</ele>
        <time>2023-09-30T09:55:08.000Z</time>
      </trkpt>
      <trkpt lat="41.68706" lon="20.42488">
        <ele>655.76000976562</ele>
        <time>2023-09-30T09:55:07.000Z</time>
      </trkpt>
      <trkpt lat="41.68685" lon="20.42502">
        <ele>656.71997070312</ele>
        <time>2023-09-30T09:55:04.000Z</time>
      </trkpt>
      <trkpt lat="41.68679" lon="20.42506">
        <ele>657.20001220703</ele>
        <time>2023-09-30T09:55:03.000Z</time>
      </trkpt>
      <trkpt lat="41.6867" lon="20.42511">
        <ele>657.67999267578</ele>
        <time>2023-09-30T09:55:02.000Z</time>
      </trkpt>
      <trkpt lat="41.68663" lon="20.42515">
        <ele>657.67999267578</ele>
        <time>2023-09-30T09:55:01.000Z</time>
      </trkpt>
      <trkpt lat="41.68656" lon="20.42516">
        <ele>658.15997314453</ele>
        <time>2023-09-30T09:55:00.000Z</time>
      </trkpt>
      <trkpt lat="41.6865" lon="20.42516">
        <ele>658.64001464844</ele>
        <time>2023-09-30T09:54:59.000Z</time>
      </trkpt>
      <trkpt lat="41.68642" lon="20.42515">
        <ele>658.64001464844</ele>
        <time>2023-09-30T09:54:58.000Z</time>
      </trkpt>
      <trkpt lat="41.68635" lon="20.42513">
        <ele>659.11999511719</ele>
        <time>2023-09-30T09:54:57.000Z</time>
      </trkpt>
      <trkpt lat="41.68628" lon="20.4251">
        <ele>659.11999511719</ele>
        <time>2023-09-30T09:54:56.000Z</time>
      </trkpt>
      <trkpt lat="41.68623" lon="20.42508">
        <ele>659.59997558594</ele>
        <time>2023-09-30T09:54:55.000Z</time>
      </trkpt>
      <trkpt lat="41.68608" lon="20.42502">
        <ele>660.08001708984</ele>
        <time>2023-09-30T09:54:53.000Z</time>
      </trkpt>
      <trkpt lat="41.68602" lon="20.425">
        <ele>660.55999755859</ele>
        <time>2023-09-30T09:54:52.000Z</time>
      </trkpt>
      <trkpt lat="41.68594" lon="20.42499">
        <ele>660.55999755859</ele>
        <time>2023-09-30T09:54:51.000Z</time>
      </trkpt>
      <trkpt lat="41.6859" lon="20.42498">
        <ele>660.55999755859</ele>
        <time>2023-09-30T09:54:50.000Z</time>
      </trkpt>
      <trkpt lat="41.68584" lon="20.42498">
        <ele>660.55999755859</ele>
        <time>2023-09-30T09:54:49.000Z</time>
      </trkpt>
      <trkpt lat="41.68582" lon="20.42498">
        <ele>660.55999755859</ele>
        <time>2023-09-30T09:54:48.000Z</time>
      </trkpt>
      <trkpt lat="41.6857" lon="20.42497">
        <ele>661.03997802734</ele>
        <time>2023-09-30T09:54:45.000Z</time>
      </trkpt>
      <trkpt lat="41.68555" lon="20.42503">
        <ele>662.01000976562</ele>
        <time>2023-09-30T09:54:41.000Z</time>
      </trkpt>
      <trkpt lat="41.68551" lon="20.42507">
        <ele>661.52001953125</ele>
        <time>2023-09-30T09:54:40.000Z</time>
      </trkpt>
      <trkpt lat="41.68548" lon="20.42509">
        <ele>661.03997802734</ele>
        <time>2023-09-30T09:54:39.000Z</time>
      </trkpt>
      <trkpt lat="41.68543" lon="20.42512">
        <ele>661.03997802734</ele>
        <time>2023-09-30T09:54:38.000Z</time>
      </trkpt>
      <trkpt lat="41.68538" lon="20.42515">
        <ele>661.03997802734</ele>
        <time>2023-09-30T09:54:37.000Z</time>
      </trkpt>
      <trkpt lat="41.68535" lon="20.42518">
        <ele>660.55999755859</ele>
        <time>2023-09-30T09:54:36.000Z</time>
      </trkpt>
      <trkpt lat="41.68513" lon="20.4253">
        <ele>660.08001708984</ele>
        <time>2023-09-30T09:54:29.000Z</time>
      </trkpt>
      <trkpt lat="41.6851" lon="20.42532">
        <ele>660.08001708984</ele>
        <time>2023-09-30T09:54:28.000Z</time>
      </trkpt>
      <trkpt lat="41.68503" lon="20.42536">
        <ele>660.08001708984</ele>
        <time>2023-09-30T09:54:27.000Z</time>
      </trkpt>
      <trkpt lat="41.685" lon="20.42538">
        <ele>659.59997558594</ele>
        <time>2023-09-30T09:54:26.000Z</time>
      </trkpt>
      <trkpt lat="41.68494" lon="20.4254">
        <ele>659.59997558594</ele>
        <time>2023-09-30T09:54:25.000Z</time>
      </trkpt>
      <trkpt lat="41.6849" lon="20.42542">
        <ele>659.59997558594</ele>
        <time>2023-09-30T09:54:24.000Z</time>
      </trkpt>
      <trkpt lat="41.68484" lon="20.42545">
        <ele>659.59997558594</ele>
        <time>2023-09-30T09:54:23.000Z</time>
      </trkpt>
      <trkpt lat="41.68478" lon="20.42549">
        <ele>659.59997558594</ele>
        <time>2023-09-30T09:54:22.000Z</time>
      </trkpt>
      <trkpt lat="41.68476" lon="20.42551">
        <ele>659.11999511719</ele>
        <time>2023-09-30T09:54:21.000Z</time>
      </trkpt>
      <trkpt lat="41.68471" lon="20.42554">
        <ele>659.59997558594</ele>
        <time>2023-09-30T09:54:20.000Z</time>
      </trkpt>
      <trkpt lat="41.68464" lon="20.42557">
        <ele>659.59997558594</ele>
        <time>2023-09-30T09:54:19.000Z</time>
      </trkpt>
      <trkpt lat="41.68461" lon="20.42559">
        <ele>659.11999511719</ele>
        <time>2023-09-30T09:54:18.000Z</time>
      </trkpt>
      <trkpt lat="41.68454" lon="20.42564">
        <ele>659.11999511719</ele>
        <time>2023-09-30T09:54:17.000Z</time>
      </trkpt>
      <trkpt lat="41.68449" lon="20.42567">
        <ele>658.64001464844</ele>
        <time>2023-09-30T09:54:16.000Z</time>
      </trkpt>
      <trkpt lat="41.68441" lon="20.42572">
        <ele>658.64001464844</ele>
        <time>2023-09-30T09:54:15.000Z</time>
      </trkpt>
      <trkpt lat="41.68435" lon="20.42576">
        <ele>659.11999511719</ele>
        <time>2023-09-30T09:54:14.000Z</time>
      </trkpt>
      <trkpt lat="41.68429" lon="20.4258">
        <ele>659.11999511719</ele>
        <time>2023-09-30T09:54:13.000Z</time>
      </trkpt>
      <trkpt lat="41.68425" lon="20.42584">
        <ele>659.11999511719</ele>
        <time>2023-09-30T09:54:12.000Z</time>
      </trkpt>
      <trkpt lat="41.68421" lon="20.4259">
        <ele>659.59997558594</ele>
        <time>2023-09-30T09:54:11.000Z</time>
      </trkpt>
      <trkpt lat="41.68417" lon="20.42594">
        <ele>660.08001708984</ele>
        <time>2023-09-30T09:54:10.000Z</time>
      </trkpt>
      <trkpt lat="41.68407" lon="20.426">
        <ele>663.45001220703</ele>
        <time>2024-09-25T12:56:42.000Z</time>
      </trkpt>
      <trkpt lat="41.68405" lon="20.42601">
        <ele>662.96997070312</ele>
        <time>2024-09-25T12:56:43.000Z</time>
      </trkpt>
      <trkpt lat="41.68402" lon="20.42604">
        <ele>662.96997070312</ele>
        <time>2024-09-25T12:56:44.000Z</time>
      </trkpt>
      <trkpt lat="41.68397" lon="20.42607">
        <ele>662.48999023438</ele>
        <time>2024-09-25T12:56:45.000Z</time>
      </trkpt>
      <trkpt lat="41.68395" lon="20.42607">
        <ele>662.48999023438</ele>
        <time>2024-09-25T12:56:46.000Z</time>
      </trkpt>
      <trkpt lat="41.68389" lon="20.42607">
        <ele>661.52001953125</ele>
        <time>2024-09-25T12:56:47.000Z</time>
      </trkpt>
      <trkpt lat="41.68385" lon="20.42607">
        <ele>661.03997802734</ele>
        <time>2024-09-25T12:56:48.000Z</time>
      </trkpt>
      <trkpt lat="41.6838" lon="20.42607">
        <ele>660.55999755859</ele>
        <time>2024-09-25T12:56:49.000Z</time>
      </trkpt>
      <trkpt lat="41.68363" lon="20.42601">
        <ele>661.52001953125</ele>
        <time>2024-09-25T12:56:56.000Z</time>
      </trkpt>
      <trkpt lat="41.68354" lon="20.42601">
        <ele>661.52001953125</ele>
        <time>2024-09-25T12:56:58.000Z</time>
      </trkpt>
      <trkpt lat="41.68352" lon="20.426">
        <ele>661.52001953125</ele>
        <time>2024-09-25T12:56:59.000Z</time>
      </trkpt>
      <trkpt lat="41.68346" lon="20.42599">
        <ele>661.03997802734</ele>
        <time>2024-09-25T12:57:00.000Z</time>
      </trkpt>
      <trkpt lat="41.68345" lon="20.42599">
        <ele>661.03997802734</ele>
        <time>2024-09-25T12:57:01.000Z</time>
      </trkpt>
      <trkpt lat="41.68325" lon="20.42594">
        <ele>663.92999267578</ele>
        <time>2024-09-25T12:57:08.000Z</time>
      </trkpt>
      <trkpt lat="41.68317" lon="20.42593">
        <ele>664.40997314453</ele>
        <time>2024-09-25T12:57:10.000Z</time>
      </trkpt>
      <trkpt lat="41.6831" lon="20.42592">
        <ele>664.40997314453</ele>
        <time>2024-09-25T12:57:11.000Z</time>
      </trkpt>
      <trkpt lat="41.68307" lon="20.42592">
        <ele>664.40997314453</ele>
        <time>2024-09-25T12:57:12.000Z</time>
      </trkpt>
      <trkpt lat="41.68299" lon="20.42591">
        <ele>664.89001464844</ele>
        <time>2024-09-25T12:57:13.000Z</time>
      </trkpt>
      <trkpt lat="41.68276" lon="20.4259">
        <ele>665.36999511719</ele>
        <time>2024-09-25T12:57:16.000Z</time>
      </trkpt>
      <trkpt lat="41.68257" lon="20.42589">
        <ele>664.89001464844</ele>
        <time>2024-09-25T12:57:19.000Z</time>
      </trkpt>
      <trkpt lat="41.68253" lon="20.42589">
        <ele>664.40997314453</ele>
        <time>2024-09-25T12:57:20.000Z</time>
      </trkpt>
      <trkpt lat="41.68248" lon="20.42589">
        <ele>663.45001220703</ele>
        <time>2024-09-25T12:57:21.000Z</time>
      </trkpt>
      <trkpt lat="41.68243" lon="20.4259">
        <ele>662.48999023438</ele>
        <time>2024-09-25T12:57:22.000Z</time>
      </trkpt>
      <trkpt lat="41.6824" lon="20.42594">
        <ele>661.52001953125</ele>
        <time>2024-09-25T12:57:23.000Z</time>
      </trkpt>
      <trkpt lat="41.68238" lon="20.426">
        <ele>660.08001708984</ele>
        <time>2024-09-25T12:57:24.000Z</time>
      </trkpt>
      <trkpt lat="41.68235" lon="20.42613">
        <ele>658.15997314453</ele>
        <time>2024-09-25T12:57:26.000Z</time>
      </trkpt>
      <trkpt lat="41.6823" lon="20.42636">
        <ele>657.20001220703</ele>
        <time>2024-09-25T12:57:28.000Z</time>
      </trkpt>
      <trkpt lat="41.68228" lon="20.42643">
        <ele>656.71997070312</ele>
        <time>2024-09-25T12:57:29.000Z</time>
      </trkpt>
      <trkpt lat="41.68226" lon="20.42652">
        <ele>655.76000976562</ele>
        <time>2024-09-25T12:57:30.000Z</time>
      </trkpt>
      <trkpt lat="41.68225" lon="20.42657">
        <ele>655.76000976562</ele>
        <time>2024-09-25T12:57:31.000Z</time>
      </trkpt>
      <trkpt lat="41.68222" lon="20.42665">
        <ele>655.28002929688</ele>
        <time>2024-09-25T12:57:32.000Z</time>
      </trkpt>
      <trkpt lat="41.68222" lon="20.42667">
        <ele>655.28002929688</ele>
        <time>2024-09-25T12:57:33.000Z</time>
      </trkpt>
      <trkpt lat="41.68213" lon="20.42707">
        <ele>653.83001708984</ele>
        <time>2024-09-25T12:57:44.000Z</time>
      </trkpt>
      <trkpt lat="41.68205" lon="20.42739">
        <ele>653.34997558594</ele>
        <time>2024-09-25T12:57:56.000Z</time>
      </trkpt>
      <trkpt lat="41.68197" lon="20.42773">
        <ele>653.83001708984</ele>
        <time>2024-09-25T12:58:09.000Z</time>
      </trkpt>
      <trkpt lat="41.68196" lon="20.42777">
        <ele>653.83001708984</ele>
        <time>2024-09-25T12:58:10.000Z</time>
      </trkpt>
      <trkpt lat="41.68194" lon="20.42783">
        <ele>653.34997558594</ele>
        <time>2024-09-25T12:58:11.000Z</time>
      </trkpt>
      <trkpt lat="41.68193" lon="20.42788">
        <ele>653.34997558594</ele>
        <time>2024-09-25T12:58:12.000Z</time>
      </trkpt>
      <trkpt lat="41.68191" lon="20.42793">
        <ele>653.34997558594</ele>
        <time>2024-09-25T12:58:13.000Z</time>
      </trkpt>
      <trkpt lat="41.68188" lon="20.42808">
        <ele>653.34997558594</ele>
        <time>2024-09-25T12:58:14.000Z</time>
      </trkpt>
      <trkpt lat="41.68182" lon="20.42834">
        <ele>653.83001708984</ele>
        <time>2024-09-25T12:58:20.000Z</time>
      </trkpt>
      <trkpt lat="41.68181" lon="20.42839">
        <ele>653.83001708984</ele>
        <time>2024-09-25T12:58:21.000Z</time>
      </trkpt>
      <trkpt lat="41.68179" lon="20.42845">
        <ele>653.83001708984</ele>
        <time>2024-09-25T12:58:22.000Z</time>
      </trkpt>
      <trkpt lat="41.68178" lon="20.42853">
        <ele>653.83001708984</ele>
        <time>2024-09-25T12:58:23.000Z</time>
      </trkpt>
      <trkpt lat="41.68177" lon="20.42862">
        <ele>653.83001708984</ele>
        <time>2024-09-25T12:58:24.000Z</time>
      </trkpt>
      <trkpt lat="41.68177" lon="20.4287">
        <ele>653.83001708984</ele>
        <time>2024-09-25T12:58:25.000Z</time>
      </trkpt>
      <trkpt lat="41.6818" lon="20.42876">
        <ele>653.83001708984</ele>
        <time>2024-09-25T12:58:26.000Z</time>
      </trkpt>
      <trkpt lat="41.68184" lon="20.42881">
        <ele>654.30999755859</ele>
        <time>2024-09-25T12:58:27.000Z</time>
      </trkpt>
      <trkpt lat="41.68187" lon="20.42886">
        <ele>654.79998779297</ele>
        <time>2024-09-25T12:58:28.000Z</time>
      </trkpt>
      <trkpt lat="41.68191" lon="20.42892">
        <ele>656.71997070312</ele>
        <time>2024-09-25T12:58:33.000Z</time>
      </trkpt>
      <trkpt lat="41.68209" lon="20.42911">
        <ele>658.64001464844</ele>
        <time>2024-09-25T12:58:40.000Z</time>
      </trkpt>
      <trkpt lat="41.68224" lon="20.42927">
        <ele>659.59997558594</ele>
        <time>2024-09-25T12:58:43.000Z</time>
      </trkpt>
      <trkpt lat="41.68228" lon="20.42931">
        <ele>660.08001708984</ele>
        <time>2024-09-25T12:58:44.000Z</time>
      </trkpt>
      <trkpt lat="41.68234" lon="20.42936">
        <ele>660.55999755859</ele>
        <time>2024-09-25T12:58:45.000Z</time>
      </trkpt>
      <trkpt lat="41.68238" lon="20.42941">
        <ele>661.03997802734</ele>
        <time>2024-09-25T12:58:46.000Z</time>
      </trkpt>
      <trkpt lat="41.68244" lon="20.42947">
        <ele>661.03997802734</ele>
        <time>2024-09-25T12:58:47.000Z</time>
      </trkpt>
      <trkpt lat="41.68256" lon="20.42959">
        <ele>662.01000976562</ele>
        <time>2024-09-25T12:58:49.000Z</time>
      </trkpt>
      <trkpt lat="41.68262" lon="20.42965">
        <ele>662.48999023438</ele>
        <time>2024-09-25T12:58:50.000Z</time>
      </trkpt>
      <trkpt lat="41.68265" lon="20.42969">
        <ele>662.96997070312</ele>
        <time>2024-09-25T12:58:51.000Z</time>
      </trkpt>
      <trkpt lat="41.68267" lon="20.4297">
        <ele>662.96997070312</ele>
        <time>2024-09-25T12:58:52.000Z</time>
      </trkpt>
      <trkpt lat="41.68278" lon="20.42981">
        <ele>667.77001953125</ele>
        <time>2024-09-25T12:58:58.000Z</time>
      </trkpt>
      <trkpt lat="41.68282" lon="20.42985">
        <ele>668.72998046875</ele>
        <time>2024-09-25T12:58:59.000Z</time>
      </trkpt>
      <trkpt lat="41.68285" lon="20.42988">
        <ele>669.21997070312</ele>
        <time>2024-09-25T12:59:00.000Z</time>
      </trkpt>
      <trkpt lat="41.68291" lon="20.42995">
        <ele>669.70001220703</ele>
        <time>2024-09-25T12:59:01.000Z</time>
      </trkpt>
      <trkpt lat="41.68296" lon="20.43">
        <ele>670.17999267578</ele>
        <time>2024-09-25T12:59:02.000Z</time>
      </trkpt>
      <trkpt lat="41.683" lon="20.43006">
        <ele>670.17999267578</ele>
        <time>2024-09-25T12:59:03.000Z</time>
      </trkpt>
      <trkpt lat="41.68303" lon="20.43012">
        <ele>670.17999267578</ele>
        <time>2024-09-25T12:59:04.000Z</time>
      </trkpt>
      <trkpt lat="41.68307" lon="20.43019">
        <ele>669.70001220703</ele>
        <time>2024-09-25T12:59:05.000Z</time>
      </trkpt>
      <trkpt lat="41.6831" lon="20.43025">
        <ele>669.21997070312</ele>
        <time>2024-09-25T12:59:06.000Z</time>
      </trkpt>
      <trkpt lat="41.68314" lon="20.43033">
        <ele>668.25</ele>
        <time>2024-09-25T12:59:07.000Z</time>
      </trkpt>
      <trkpt lat="41.68318" lon="20.4304">
        <ele>667.28997802734</ele>
        <time>2024-09-25T12:59:08.000Z</time>
      </trkpt>
      <trkpt lat="41.68325" lon="20.43053">
        <ele>665.84997558594</ele>
        <time>2024-09-25T12:59:09.000Z</time>
      </trkpt>
      <trkpt lat="41.68328" lon="20.43058">
        <ele>665.84997558594</ele>
        <time>2024-09-25T12:59:10.000Z</time>
      </trkpt>
      <trkpt lat="41.68333" lon="20.43067">
        <ele>665.36999511719</ele>
        <time>2024-09-25T12:59:11.000Z</time>
      </trkpt>
      <trkpt lat="41.68339" lon="20.43077">
        <ele>664.89001464844</ele>
        <time>2024-09-25T12:59:12.000Z</time>
      </trkpt>
      <trkpt lat="41.68343" lon="20.43084">
        <ele>664.89001464844</ele>
        <time>2024-09-25T12:59:13.000Z</time>
      </trkpt>
      <trkpt lat="41.68348" lon="20.43093">
        <ele>664.40997314453</ele>
        <time>2024-09-25T12:59:14.000Z</time>
      </trkpt>
      <trkpt lat="41.68351" lon="20.43098">
        <ele>664.40997314453</ele>
        <time>2024-09-25T12:59:15.000Z</time>
      </trkpt>
      <trkpt lat="41.68355" lon="20.43105">
        <ele>664.40997314453</ele>
        <time>2024-09-25T12:59:16.000Z</time>
      </trkpt>
      <trkpt lat="41.6836" lon="20.43112">
        <ele>664.40997314453</ele>
        <time>2024-09-25T12:59:17.000Z</time>
      </trkpt>
      <trkpt lat="41.68364" lon="20.43118">
        <ele>664.40997314453</ele>
        <time>2024-09-25T12:59:18.000Z</time>
      </trkpt>
      <trkpt lat="41.68369" lon="20.43124">
        <ele>664.89001464844</ele>
        <time>2024-09-25T12:59:19.000Z</time>
      </trkpt>
      <trkpt lat="41.68376" lon="20.43131">
        <ele>665.84997558594</ele>
        <time>2024-09-25T12:59:20.000Z</time>
      </trkpt>
      <trkpt lat="41.68381" lon="20.43137">
        <ele>666.80999755859</ele>
        <time>2024-09-25T12:59:21.000Z</time>
      </trkpt>
      <trkpt lat="41.68388" lon="20.43144">
        <ele>667.28997802734</ele>
        <time>2024-09-25T12:59:22.000Z</time>
      </trkpt>
      <trkpt lat="41.68391" lon="20.43149">
        <ele>668.25</ele>
        <time>2024-09-25T12:59:23.000Z</time>
      </trkpt>
      <trkpt lat="41.68398" lon="20.43164">
        <ele>669.21997070312</ele>
        <time>2024-09-25T12:59:24.000Z</time>
      </trkpt>
      <trkpt lat="41.68399" lon="20.43166">
        <ele>669.70001220703</ele>
        <time>2024-09-25T12:59:25.000Z</time>
      </trkpt>
      <trkpt lat="41.6841" lon="20.43188">
        <ele>670.65997314453</ele>
        <time>2024-09-25T12:59:27.000Z</time>
      </trkpt>
      <trkpt lat="41.68412" lon="20.43193">
        <ele>670.65997314453</ele>
        <time>2024-09-25T12:59:28.000Z</time>
      </trkpt>
      <trkpt lat="41.68415" lon="20.43202">
        <ele>670.65997314453</ele>
        <time>2024-09-25T12:59:29.000Z</time>
      </trkpt>
      <trkpt lat="41.68417" lon="20.43212">
        <ele>670.65997314453</ele>
        <time>2024-09-25T12:59:30.000Z</time>
      </trkpt>
      <trkpt lat="41.68419" lon="20.4323">
        <ele>659.11999511719</ele>
        <time>2023-09-30T09:50:00.000Z</time>
      </trkpt>
      <trkpt lat="41.68419" lon="20.43232">
        <ele>659.11999511719</ele>
        <time>2023-09-30T09:49:59.000Z</time>
      </trkpt>
      <trkpt lat="41.6842" lon="20.43243">
        <ele>658.15997314453</ele>
        <time>2023-09-30T09:49:58.000Z</time>
      </trkpt>
      <trkpt lat="41.68422" lon="20.43251">
        <ele>656.71997070312</ele>
        <time>2023-09-30T09:49:57.000Z</time>
      </trkpt>
      <trkpt lat="41.68422" lon="20.43253">
        <ele>656.71997070312</ele>
        <time>2023-09-30T09:49:56.000Z</time>
      </trkpt>
      <trkpt lat="41.68426" lon="20.4327">
        <ele>655.28002929688</ele>
        <time>2023-09-30T09:49:55.000Z</time>
      </trkpt>
      <trkpt lat="41.68428" lon="20.4328">
        <ele>654.30999755859</ele>
        <time>2023-09-30T09:49:54.000Z</time>
      </trkpt>
      <trkpt lat="41.6843" lon="20.43285">
        <ele>653.83001708984</ele>
        <time>2023-09-30T09:49:53.000Z</time>
      </trkpt>
      <trkpt lat="41.68432" lon="20.43299">
        <ele>652.86999511719</ele>
        <time>2023-09-30T09:49:52.000Z</time>
      </trkpt>
      <trkpt lat="41.68435" lon="20.43309">
        <ele>652.39001464844</ele>
        <time>2023-09-30T09:49:51.000Z</time>
      </trkpt>
      <trkpt lat="41.6844" lon="20.43329">
        <ele>650.95001220703</ele>
        <time>2023-09-30T09:49:49.000Z</time>
      </trkpt>
      <trkpt lat="41.68442" lon="20.43342">
        <ele>649.98999023438</ele>
        <time>2023-09-30T09:49:48.000Z</time>
      </trkpt>
      <trkpt lat="41.68443" lon="20.43345">
        <ele>649.98999023438</ele>
        <time>2023-09-30T09:49:47.000Z</time>
      </trkpt>
      <trkpt lat="41.68447" lon="20.43382">
        <ele>649.03002929688</ele>
        <time>2023-09-30T09:49:44.000Z</time>
      </trkpt>
      <trkpt lat="41.68448" lon="20.43399">
        <ele>649.03002929688</ele>
        <time>2023-09-30T09:49:42.000Z</time>
      </trkpt>
      <trkpt lat="41.68449" lon="20.4341">
        <ele>649.03002929688</ele>
        <time>2023-09-30T09:49:41.000Z</time>
      </trkpt>
      <trkpt lat="41.68449" lon="20.43413">
        <ele>649.03002929688</ele>
        <time>2023-09-30T09:49:40.000Z</time>
      </trkpt>
      <trkpt lat="41.6845" lon="20.43435">
        <ele>649.03002929688</ele>
        <time>2023-09-30T09:49:38.000Z</time>
      </trkpt>
      <trkpt lat="41.68453" lon="20.43464">
        <ele>649.51000976562</ele>
        <time>2023-09-30T09:49:35.000Z</time>
      </trkpt>
      <trkpt lat="41.68454" lon="20.43473">
        <ele>649.51000976562</ele>
        <time>2023-09-30T09:49:34.000Z</time>
      </trkpt>
      <trkpt lat="41.68454" lon="20.43474">
        <ele>649.51000976562</ele>
        <time>2023-09-30T09:49:33.000Z</time>
      </trkpt>
      <trkpt lat="41.68454" lon="20.4349">
        <ele>649.98999023438</ele>
        <time>2023-09-30T09:49:32.000Z</time>
      </trkpt>
      <trkpt lat="41.68454" lon="20.43505">
        <ele>650.46997070312</ele>
        <time>2023-09-30T09:49:30.000Z</time>
      </trkpt>
      <trkpt lat="41.68454" lon="20.43509">
        <ele>650.46997070312</ele>
        <time>2023-09-30T09:49:29.000Z</time>
      </trkpt>
      <trkpt lat="41.68453" lon="20.43517">
        <ele>650.95001220703</ele>
        <time>2023-09-30T09:49:28.000Z</time>
      </trkpt>
      <trkpt lat="41.68452" lon="20.43523">
        <ele>651.42999267578</ele>
        <time>2023-09-30T09:49:27.000Z</time>
      </trkpt>
      <trkpt lat="41.6845" lon="20.43529">
        <ele>651.42999267578</ele>
        <time>2023-09-30T09:49:26.000Z</time>
      </trkpt>
      <trkpt lat="41.68449" lon="20.43534">
        <ele>651.90997314453</ele>
        <time>2023-09-30T09:49:25.000Z</time>
      </trkpt>
      <trkpt lat="41.68447" lon="20.43537">
        <ele>651.90997314453</ele>
        <time>2023-09-30T09:49:24.000Z</time>
      </trkpt>
      <trkpt lat="41.68445" lon="20.4354">
        <ele>651.90997314453</ele>
        <time>2023-09-30T09:49:23.000Z</time>
      </trkpt>
      <trkpt lat="41.68442" lon="20.43547">
        <ele>651.90997314453</ele>
        <time>2023-09-30T09:49:22.000Z</time>
      </trkpt>
      <trkpt lat="41.68439" lon="20.43551">
        <ele>651.42999267578</ele>
        <time>2023-09-30T09:49:21.000Z</time>
      </trkpt>
      <trkpt lat="41.68436" lon="20.43557">
        <ele>650.95001220703</ele>
        <time>2023-09-30T09:49:20.000Z</time>
      </trkpt>
      <trkpt lat="41.68434" lon="20.4356">
        <ele>650.95001220703</ele>
        <time>2023-09-30T09:49:19.000Z</time>
      </trkpt>
      <trkpt lat="41.6843" lon="20.43567">
        <ele>650.95001220703</ele>
        <time>2023-09-30T09:49:18.000Z</time>
      </trkpt>
      <trkpt lat="41.68428" lon="20.43573">
        <ele>651.42999267578</ele>
        <time>2023-09-30T09:49:17.000Z</time>
      </trkpt>
      <trkpt lat="41.68426" lon="20.43579">
        <ele>651.42999267578</ele>
        <time>2023-09-30T09:49:16.000Z</time>
      </trkpt>
      <trkpt lat="41.68425" lon="20.43588">
        <ele>651.90997314453</ele>
        <time>2023-09-30T09:49:15.000Z</time>
      </trkpt>
      <trkpt lat="41.68425" lon="20.43597">
        <ele>651.90997314453</ele>
        <time>2023-09-30T09:49:14.000Z</time>
      </trkpt>
      <trkpt lat="41.68426" lon="20.43605">
        <ele>652.39001464844</ele>
        <time>2023-09-30T09:49:13.000Z</time>
      </trkpt>
      <trkpt lat="41.68429" lon="20.43614">
        <ele>653.34997558594</ele>
        <time>2023-09-30T09:49:12.000Z</time>
      </trkpt>
      <trkpt lat="41.68432" lon="20.4362">
        <ele>653.34997558594</ele>
        <time>2023-09-30T09:49:11.000Z</time>
      </trkpt>
      <trkpt lat="41.68435" lon="20.43629">
        <ele>652.86999511719</ele>
        <time>2023-09-30T09:49:10.000Z</time>
      </trkpt>
      <trkpt lat="41.68437" lon="20.43633">
        <ele>652.86999511719</ele>
        <time>2023-09-30T09:49:09.000Z</time>
      </trkpt>
      <trkpt lat="41.68441" lon="20.43646">
        <ele>653.34997558594</ele>
        <time>2023-09-30T09:49:07.000Z</time>
      </trkpt>
      <trkpt lat="41.68448" lon="20.4366">
        <ele>654.30999755859</ele>
        <time>2023-09-30T09:49:05.000Z</time>
      </trkpt>
      <trkpt lat="41.68449" lon="20.43664">
        <ele>654.30999755859</ele>
        <time>2023-09-30T09:49:04.000Z</time>
      </trkpt>
      <trkpt lat="41.68453" lon="20.4367">
        <ele>654.79998779297</ele>
        <time>2023-09-30T09:49:03.000Z</time>
      </trkpt>
      <trkpt lat="41.68456" lon="20.43675">
        <ele>655.28002929688</ele>
        <time>2023-09-30T09:49:02.000Z</time>
      </trkpt>
      <trkpt lat="41.68458" lon="20.43677">
        <ele>655.28002929688</ele>
        <time>2023-09-30T09:49:01.000Z</time>
      </trkpt>
      <trkpt lat="41.68462" lon="20.43685">
        <ele>656.23999023438</ele>
        <time>2023-09-30T09:49:00.000Z</time>
      </trkpt>
      <trkpt lat="41.68464" lon="20.43688">
        <ele>656.23999023438</ele>
        <time>2023-09-30T09:48:59.000Z</time>
      </trkpt>
      <trkpt lat="41.68468" lon="20.43694">
        <ele>656.71997070312</ele>
        <time>2023-09-30T09:48:58.000Z</time>
      </trkpt>
      <trkpt lat="41.68472" lon="20.43701">
        <ele>657.67999267578</ele>
        <time>2023-09-30T09:48:57.000Z</time>
      </trkpt>
      <trkpt lat="41.68476" lon="20.43706">
        <ele>658.15997314453</ele>
        <time>2023-09-30T09:48:56.000Z</time>
      </trkpt>
      <trkpt lat="41.68479" lon="20.4371">
        <ele>658.15997314453</ele>
        <time>2023-09-30T09:48:55.000Z</time>
      </trkpt>
      <trkpt lat="41.68481" lon="20.43714">
        <ele>658.64001464844</ele>
        <time>2023-09-30T09:48:54.000Z</time>
      </trkpt>
      <trkpt lat="41.68489" lon="20.43725">
        <ele>659.59997558594</ele>
        <time>2023-09-30T09:48:52.000Z</time>
      </trkpt>
      <trkpt lat="41.68493" lon="20.43732">
        <ele>660.08001708984</ele>
        <time>2023-09-30T09:48:51.000Z</time>
      </trkpt>
      <trkpt lat="41.68495" lon="20.43739">
        <ele>661.03997802734</ele>
        <time>2023-09-30T09:48:50.000Z</time>
      </trkpt>
      <trkpt lat="41.68495" lon="20.43746">
        <ele>661.52001953125</ele>
        <time>2023-09-30T09:48:49.000Z</time>
      </trkpt>
      <trkpt lat="41.68491" lon="20.4375">
        <ele>662.01000976562</ele>
        <time>2023-09-30T09:48:48.000Z</time>
      </trkpt>
      <trkpt lat="41.68485" lon="20.43751">
        <ele>662.96997070312</ele>
        <time>2023-09-30T09:48:47.000Z</time>
      </trkpt>
      <trkpt lat="41.68479" lon="20.43748">
        <ele>663.45001220703</ele>
        <time>2023-09-30T09:48:46.000Z</time>
      </trkpt>
      <trkpt lat="41.68474" lon="20.43742">
        <ele>664.40997314453</ele>
        <time>2023-09-30T09:48:45.000Z</time>
      </trkpt>
      <trkpt lat="41.6847" lon="20.43736">
        <ele>665.36999511719</ele>
        <time>2023-09-30T09:48:44.000Z</time>
      </trkpt>
      <trkpt lat="41.68464" lon="20.43729">
        <ele>666.33001708984</ele>
        <time>2023-09-30T09:48:43.000Z</time>
      </trkpt>
      <trkpt lat="41.68462" lon="20.43726">
        <ele>666.80999755859</ele>
        <time>2023-09-30T09:48:42.000Z</time>
      </trkpt>
      <trkpt lat="41.68455" lon="20.43718">
        <ele>668.25</ele>
        <time>2023-09-30T09:48:41.000Z</time>
      </trkpt>
      <trkpt lat="41.68449" lon="20.43711">
        <ele>669.21997070312</ele>
        <time>2023-09-30T09:48:40.000Z</time>
      </trkpt>
      <trkpt lat="41.68447" lon="20.43708">
        <ele>669.70001220703</ele>
        <time>2023-09-30T09:48:39.000Z</time>
      </trkpt>
      <trkpt lat="41.68441" lon="20.437">
        <ele>670.65997314453</ele>
        <time>2023-09-30T09:48:38.000Z</time>
      </trkpt>
      <trkpt lat="41.68436" lon="20.43693">
        <ele>671.14001464844</ele>
        <time>2023-09-30T09:48:37.000Z</time>
      </trkpt>
      <trkpt lat="41.68432" lon="20.43686">
        <ele>671.61999511719</ele>
        <time>2023-09-30T09:48:36.000Z</time>
      </trkpt>
      <trkpt lat="41.6843" lon="20.43682">
        <ele>672.09997558594</ele>
        <time>2023-09-30T09:48:35.000Z</time>
      </trkpt>
      <trkpt lat="41.68393" lon="20.43617">
        <ele>675.46002197266</ele>
        <time>2023-09-30T09:48:29.000Z</time>
      </trkpt>
      <trkpt lat="41.68383" lon="20.436">
        <ele>675.94000244141</ele>
        <time>2023-09-30T09:48:27.000Z</time>
      </trkpt>
      <trkpt lat="41.68377" lon="20.4359">
        <ele>675.94000244141</ele>
        <time>2023-09-30T09:48:26.000Z</time>
      </trkpt>
      <trkpt lat="41.68363" lon="20.43573">
        <ele>675.94000244141</ele>
        <time>2023-09-30T09:48:24.000Z</time>
      </trkpt>
      <trkpt lat="41.68358" lon="20.43568">
        <ele>675.94000244141</ele>
        <time>2023-09-30T09:48:23.000Z</time>
      </trkpt>
      <trkpt lat="41.68355" lon="20.43566">
        <ele>675.94000244141</ele>
        <time>2023-09-30T09:48:22.000Z</time>
      </trkpt>
      <trkpt lat="41.68336" lon="20.4355">
        <ele>675.46002197266</ele>
        <time>2023-09-30T09:48:20.000Z</time>
      </trkpt>
      <trkpt lat="41.68324" lon="20.43542">
        <ele>675.46002197266</ele>
        <time>2023-09-30T09:48:18.000Z</time>
      </trkpt>
      <trkpt lat="41.68315" lon="20.43536">
        <ele>675.46002197266</ele>
        <time>2023-09-30T09:48:17.000Z</time>
      </trkpt>
      <trkpt lat="41.68309" lon="20.43532">
        <ele>674.97998046875</ele>
        <time>2023-09-30T09:48:16.000Z</time>
      </trkpt>
      <trkpt lat="41.68303" lon="20.4353">
        <ele>674.97998046875</ele>
        <time>2023-09-30T09:48:15.000Z</time>
      </trkpt>
      <trkpt lat="41.68297" lon="20.43527">
        <ele>674.97998046875</ele>
        <time>2023-09-30T09:48:14.000Z</time>
      </trkpt>
      <trkpt lat="41.68292" lon="20.43526">
        <ele>674.97998046875</ele>
        <time>2023-09-30T09:48:13.000Z</time>
      </trkpt>
      <trkpt lat="41.68286" lon="20.43525">
        <ele>674.97998046875</ele>
        <time>2023-09-30T09:48:12.000Z</time>
      </trkpt>
      <trkpt lat="41.6828" lon="20.43524">
        <ele>674.97998046875</ele>
        <time>2023-09-30T09:48:11.000Z</time>
      </trkpt>
      <trkpt lat="41.68278" lon="20.43524">
        <ele>674.5</ele>
        <time>2023-09-30T09:48:10.000Z</time>
      </trkpt>
      <trkpt lat="41.68268" lon="20.43524">
        <ele>674.02001953125</ele>
        <time>2023-09-30T09:48:09.000Z</time>
      </trkpt>
      <trkpt lat="41.68264" lon="20.43524">
        <ele>673.53997802734</ele>
        <time>2023-09-30T09:48:08.000Z</time>
      </trkpt>
      <trkpt lat="41.68259" lon="20.43525">
        <ele>673.53997802734</ele>
        <time>2023-09-30T09:48:07.000Z</time>
      </trkpt>
      <trkpt lat="41.68258" lon="20.43525">
        <ele>673.53997802734</ele>
        <time>2023-09-30T09:48:06.000Z</time>
      </trkpt>
      <trkpt lat="41.68247" lon="20.43528">
        <ele>673.05999755859</ele>
        <time>2023-09-30T09:48:04.000Z</time>
      </trkpt>
      <trkpt lat="41.68246" lon="20.43529">
        <ele>673.05999755859</ele>
        <time>2023-09-30T09:48:03.000Z</time>
      </trkpt>
      <trkpt lat="41.68237" lon="20.43533">
        <ele>673.05999755859</ele>
        <time>2023-09-30T09:48:02.000Z</time>
      </trkpt>
      <trkpt lat="41.68232" lon="20.43536">
        <ele>672.58001708984</ele>
        <time>2023-09-30T09:48:01.000Z</time>
      </trkpt>
      <trkpt lat="41.68227" lon="20.43539">
        <ele>672.58001708984</ele>
        <time>2023-09-30T09:48:00.000Z</time>
      </trkpt>
      <trkpt lat="41.68191" lon="20.43559">
        <ele>672.09997558594</ele>
        <time>2023-09-30T09:47:57.000Z</time>
      </trkpt>
      <trkpt lat="41.68189" lon="20.4356">
        <ele>672.09997558594</ele>
        <time>2023-09-30T09:47:56.000Z</time>
      </trkpt>
      <trkpt lat="41.68171" lon="20.43569">
        <ele>672.09997558594</ele>
        <time>2023-09-30T09:47:55.000Z</time>
      </trkpt>
      <trkpt lat="41.68156" lon="20.43577">
        <ele>672.09997558594</ele>
        <time>2023-09-30T09:47:53.000Z</time>
      </trkpt>
      <trkpt lat="41.68148" lon="20.43581">
        <ele>672.09997558594</ele>
        <time>2023-09-30T09:47:52.000Z</time>
      </trkpt>
      <trkpt lat="41.68133" lon="20.43589">
        <ele>672.09997558594</ele>
        <time>2023-09-30T09:47:50.000Z</time>
      </trkpt>
      <trkpt lat="41.68128" lon="20.43591">
        <ele>672.09997558594</ele>
        <time>2023-09-30T09:47:49.000Z</time>
      </trkpt>
      <trkpt lat="41.68116" lon="20.43596">
        <ele>671.61999511719</ele>
        <time>2023-09-30T09:47:48.000Z</time>
      </trkpt>
      <trkpt lat="41.68111" lon="20.43598">
        <ele>671.61999511719</ele>
        <time>2023-09-30T09:47:47.000Z</time>
      </trkpt>
      <trkpt lat="41.68103" lon="20.43603">
        <ele>671.61999511719</ele>
        <time>2023-09-30T09:47:46.000Z</time>
      </trkpt>
      <trkpt lat="41.68074" lon="20.43618">
        <ele>670.65997314453</ele>
        <time>2023-09-30T09:47:43.000Z</time>
      </trkpt>
      <trkpt lat="41.68066" lon="20.43623">
        <ele>670.65997314453</ele>
        <time>2023-09-30T09:47:42.000Z</time>
      </trkpt>
      <trkpt lat="41.68059" lon="20.43626">
        <ele>670.17999267578</ele>
        <time>2023-09-30T09:47:41.000Z</time>
      </trkpt>
      <trkpt lat="41.68042" lon="20.43635">
        <ele>669.70001220703</ele>
        <time>2023-09-30T09:47:39.000Z</time>
      </trkpt>
      <trkpt lat="41.68036" lon="20.43639">
        <ele>669.70001220703</ele>
        <time>2023-09-30T09:47:38.000Z</time>
      </trkpt>
      <trkpt lat="41.68015" lon="20.43652">
        <ele>668.72998046875</ele>
        <time>2023-09-30T09:47:36.000Z</time>
      </trkpt>
      <trkpt lat="41.68013" lon="20.43653">
        <ele>668.72998046875</ele>
        <time>2023-09-30T09:47:35.000Z</time>
      </trkpt>
      <trkpt lat="41.68005" lon="20.43657">
        <ele>668.72998046875</ele>
        <time>2023-09-30T09:47:34.000Z</time>
      </trkpt>
      <trkpt lat="41.67995" lon="20.43663">
        <ele>668.25</ele>
        <time>2023-09-30T09:47:33.000Z</time>
      </trkpt>
      <trkpt lat="41.67926" lon="20.43698">
        <ele>667.28997802734</ele>
        <time>2023-09-30T09:47:26.000Z</time>
      </trkpt>
      <trkpt lat="41.67916" lon="20.43702">
        <ele>667.28997802734</ele>
        <time>2023-09-30T09:47:25.000Z</time>
      </trkpt>
      <trkpt lat="41.67909" lon="20.43704">
        <ele>667.28997802734</ele>
        <time>2023-09-30T09:47:24.000Z</time>
      </trkpt>
      <trkpt lat="41.67901" lon="20.43706">
        <ele>667.28997802734</ele>
        <time>2023-09-30T09:47:23.000Z</time>
      </trkpt>
      <trkpt lat="41.67895" lon="20.43706">
        <ele>667.77001953125</ele>
        <time>2023-09-30T09:47:22.000Z</time>
      </trkpt>
      <trkpt lat="41.67887" lon="20.43706">
        <ele>667.28997802734</ele>
        <time>2023-09-30T09:47:21.000Z</time>
      </trkpt>
      <trkpt lat="41.6788" lon="20.43705">
        <ele>667.28997802734</ele>
        <time>2023-09-30T09:47:20.000Z</time>
      </trkpt>
      <trkpt lat="41.67872" lon="20.43705">
        <ele>667.28997802734</ele>
        <time>2023-09-30T09:47:19.000Z</time>
      </trkpt>
      <trkpt lat="41.67866" lon="20.43704">
        <ele>667.28997802734</ele>
        <time>2023-09-30T09:47:18.000Z</time>
      </trkpt>
      <trkpt lat="41.67863" lon="20.43704">
        <ele>667.28997802734</ele>
        <time>2023-09-30T09:47:17.000Z</time>
      </trkpt>
      <trkpt lat="41.6785" lon="20.43704">
        <ele>667.77001953125</ele>
        <time>2023-09-30T09:47:16.000Z</time>
      </trkpt>
      <trkpt lat="41.67842" lon="20.43701">
        <ele>667.77001953125</ele>
        <time>2023-09-30T09:47:15.000Z</time>
      </trkpt>
      <trkpt lat="41.67835" lon="20.43696">
        <ele>668.25</ele>
        <time>2023-09-30T09:47:14.000Z</time>
      </trkpt>
      <trkpt lat="41.6783" lon="20.43689">
        <ele>668.72998046875</ele>
        <time>2023-09-30T09:47:13.000Z</time>
      </trkpt>
      <trkpt lat="41.67826" lon="20.43681">
        <ele>669.21997070312</ele>
        <time>2023-09-30T09:47:12.000Z</time>
      </trkpt>
      <trkpt lat="41.67822" lon="20.43672">
        <ele>669.70001220703</ele>
        <time>2023-09-30T09:47:11.000Z</time>
      </trkpt>
      <trkpt lat="41.67819" lon="20.43663">
        <ele>670.17999267578</ele>
        <time>2023-09-30T09:47:10.000Z</time>
      </trkpt>
      <trkpt lat="41.67814" lon="20.43647">
        <ele>670.17999267578</ele>
        <time>2023-09-30T09:47:09.000Z</time>
      </trkpt>
      <trkpt lat="41.67811" lon="20.43632">
        <ele>671.14001464844</ele>
        <time>2023-09-30T09:47:08.000Z</time>
      </trkpt>
      <trkpt lat="41.67808" lon="20.43617">
        <ele>671.61999511719</ele>
        <time>2023-09-30T09:47:07.000Z</time>
      </trkpt>
      <trkpt lat="41.67807" lon="20.43607">
        <ele>672.09997558594</ele>
        <time>2023-09-30T09:47:06.000Z</time>
      </trkpt>
      <trkpt lat="41.67806" lon="20.43592">
        <ele>673.05999755859</ele>
        <time>2023-09-30T09:47:05.000Z</time>
      </trkpt>
      <trkpt lat="41.67804" lon="20.43581">
        <ele>674.02001953125</ele>
        <time>2023-09-30T09:47:04.000Z</time>
      </trkpt>
      <trkpt lat="41.678" lon="20.4357">
        <ele>674.5</ele>
        <time>2023-09-30T09:47:03.000Z</time>
      </trkpt>
      <trkpt lat="41.67794" lon="20.43559">
        <ele>675.46002197266</ele>
        <time>2023-09-30T09:47:02.000Z</time>
      </trkpt>
      <trkpt lat="41.67784" lon="20.43545">
        <ele>676.41998291016</ele>
        <time>2023-09-30T09:47:00.000Z</time>
      </trkpt>
      <trkpt lat="41.67768" lon="20.43518">
        <ele>678.83001708984</ele>
        <time>2023-09-30T09:46:58.000Z</time>
      </trkpt>
      <trkpt lat="41.67765" lon="20.43513">
        <ele>679.30999755859</ele>
        <time>2023-09-30T09:46:57.000Z</time>
      </trkpt>
      <trkpt lat="41.67755" lon="20.43487">
        <ele>680.75</ele>
        <time>2023-09-30T09:46:55.000Z</time>
      </trkpt>
      <trkpt lat="41.67753" lon="20.43482">
        <ele>680.75</ele>
        <time>2023-09-30T09:46:54.000Z</time>
      </trkpt>
      <trkpt lat="41.67747" lon="20.43466">
        <ele>682.19000244141</ele>
        <time>2023-09-30T09:46:53.000Z</time>
      </trkpt>
      <trkpt lat="41.67743" lon="20.43459">
        <ele>682.66998291016</ele>
        <time>2023-09-30T09:46:52.000Z</time>
      </trkpt>
      <trkpt lat="41.67739" lon="20.43455">
        <ele>683.15002441406</ele>
        <time>2023-09-30T09:46:51.000Z</time>
      </trkpt>
      <trkpt lat="41.67732" lon="20.43449">
        <ele>684.11999511719</ele>
        <time>2023-09-30T09:46:50.000Z</time>
      </trkpt>
      <trkpt lat="41.67727" lon="20.43444">
        <ele>684.59997558594</ele>
        <time>2023-09-30T09:46:49.000Z</time>
      </trkpt>
      <trkpt lat="41.67707" lon="20.43426">
        <ele>686.03997802734</ele>
        <time>2023-09-30T09:46:44.000Z</time>
      </trkpt>
      <trkpt lat="41.677" lon="20.4342">
        <ele>687</ele>
        <time>2023-09-30T09:46:42.000Z</time>
      </trkpt>
      <trkpt lat="41.67682" lon="20.4341">
        <ele>688.44000244141</ele>
        <time>2023-09-30T09:46:39.000Z</time>
      </trkpt>
      <trkpt lat="41.67674" lon="20.43407">
        <ele>688.91998291016</ele>
        <time>2023-09-30T09:46:38.000Z</time>
      </trkpt>
      <trkpt lat="41.67667" lon="20.43406">
        <ele>689.40002441406</ele>
        <time>2023-09-30T09:46:37.000Z</time>
      </trkpt>
      <trkpt lat="41.6766" lon="20.43406">
        <ele>689.88000488281</ele>
        <time>2023-09-30T09:46:36.000Z</time>
      </trkpt>
      <trkpt lat="41.67653" lon="20.43406">
        <ele>690.35998535156</ele>
        <time>2023-09-30T09:46:35.000Z</time>
      </trkpt>
      <trkpt lat="41.67646" lon="20.43404">
        <ele>690.84002685547</ele>
        <time>2023-09-30T09:46:34.000Z</time>
      </trkpt>
      <trkpt lat="41.67638" lon="20.434">
        <ele>691.33001708984</ele>
        <time>2023-09-30T09:46:33.000Z</time>
      </trkpt>
      <trkpt lat="41.67633" lon="20.43394">
        <ele>691.80999755859</ele>
        <time>2023-09-30T09:46:32.000Z</time>
      </trkpt>
      <trkpt lat="41.6763" lon="20.4339">
        <ele>691.80999755859</ele>
        <time>2023-09-30T09:46:31.000Z</time>
      </trkpt>
      <trkpt lat="41.67582" lon="20.43328">
        <ele>697.09002685547</ele>
        <time>2023-09-30T09:46:25.000Z</time>
      </trkpt>
      <trkpt lat="41.67574" lon="20.43319">
        <ele>698.04998779297</ele>
        <time>2023-09-30T09:46:24.000Z</time>
      </trkpt>
      <trkpt lat="41.67567" lon="20.43311">
        <ele>699.02001953125</ele>
        <time>2023-09-30T09:46:23.000Z</time>
      </trkpt>
      <trkpt lat="41.67558" lon="20.43306">
        <ele>699.97998046875</ele>
        <time>2023-09-30T09:46:22.000Z</time>
      </trkpt>
      <trkpt lat="41.67548" lon="20.43303">
        <ele>700.94000244141</ele>
        <time>2023-09-30T09:46:21.000Z</time>
      </trkpt>
      <trkpt lat="41.67541" lon="20.43302">
        <ele>701.41998291016</ele>
        <time>2023-09-30T09:46:20.000Z</time>
      </trkpt>
      <trkpt lat="41.67529" lon="20.43303">
        <ele>702.38000488281</ele>
        <time>2023-09-30T09:46:19.000Z</time>
      </trkpt>
      <trkpt lat="41.67522" lon="20.43305">
        <ele>703.34002685547</ele>
        <time>2023-09-30T09:46:18.000Z</time>
      </trkpt>
      <trkpt lat="41.67511" lon="20.43309">
        <ele>704.29998779297</ele>
        <time>2023-09-30T09:46:17.000Z</time>
      </trkpt>
      <trkpt lat="41.67501" lon="20.43313">
        <ele>705.75</ele>
        <time>2023-09-30T09:46:16.000Z</time>
      </trkpt>
      <trkpt lat="41.67494" lon="20.43317">
        <ele>706.71002197266</ele>
        <time>2023-09-30T09:46:15.000Z</time>
      </trkpt>
      <trkpt lat="41.67484" lon="20.43325">
        <ele>707.66998291016</ele>
        <time>2023-09-30T09:46:14.000Z</time>
      </trkpt>
      <trkpt lat="41.67476" lon="20.43333">
        <ele>708.63000488281</ele>
        <time>2023-09-30T09:46:13.000Z</time>
      </trkpt>
      <trkpt lat="41.67471" lon="20.43341">
        <ele>709.59002685547</ele>
        <time>2023-09-30T09:46:12.000Z</time>
      </trkpt>
      <trkpt lat="41.67466" lon="20.4335">
        <ele>710.07000732422</ele>
        <time>2023-09-30T09:46:11.000Z</time>
      </trkpt>
      <trkpt lat="41.67455" lon="20.43371">
        <ele>711.98999023438</ele>
        <time>2023-09-30T09:46:09.000Z</time>
      </trkpt>
      <trkpt lat="41.67448" lon="20.43387">
        <ele>712.95001220703</ele>
        <time>2023-09-30T09:46:08.000Z</time>
      </trkpt>
      <trkpt lat="41.67444" lon="20.434">
        <ele>713.91998291016</ele>
        <time>2023-09-30T09:46:07.000Z</time>
      </trkpt>
      <trkpt lat="41.67442" lon="20.43414">
        <ele>714.88000488281</ele>
        <time>2023-09-30T09:46:06.000Z</time>
      </trkpt>
      <trkpt lat="41.67441" lon="20.43426">
        <ele>715.84002685547</ele>
        <time>2023-09-30T09:46:05.000Z</time>
      </trkpt>
      <trkpt lat="41.6744" lon="20.43484">
        <ele>719.20001220703</ele>
        <time>2023-09-30T09:46:01.000Z</time>
      </trkpt>
      <trkpt lat="41.67439" lon="20.43492">
        <ele>719.67999267578</ele>
        <time>2023-09-30T09:46:00.000Z</time>
      </trkpt>
      <trkpt lat="41.67437" lon="20.43509">
        <ele>719.67999267578</ele>
        <time>2023-09-30T09:45:58.000Z</time>
      </trkpt>
      <trkpt lat="41.67421" lon="20.43628">
        <ele>723.04998779297</ele>
        <time>2023-09-30T09:45:50.000Z</time>
      </trkpt>
      <trkpt lat="41.67421" lon="20.43641">
        <ele>724.01000976562</ele>
        <time>2023-09-30T09:45:49.000Z</time>
      </trkpt>
      <trkpt lat="41.67421" lon="20.43652">
        <ele>724.01000976562</ele>
        <time>2023-09-30T09:45:48.000Z</time>
      </trkpt>
      <trkpt lat="41.67425" lon="20.43687">
        <ele>724.01000976562</ele>
        <time>2023-09-30T09:45:45.000Z</time>
      </trkpt>
      <trkpt lat="41.67426" lon="20.43694">
        <ele>724.01000976562</ele>
        <time>2023-09-30T09:45:44.000Z</time>
      </trkpt>
      <trkpt lat="41.67427" lon="20.43709">
        <ele>723.53002929688</ele>
        <time>2023-09-30T09:45:43.000Z</time>
      </trkpt>
      <trkpt lat="41.67436" lon="20.43775">
        <ele>722.57000732422</ele>
        <time>2023-09-30T09:45:38.000Z</time>
      </trkpt>
      <trkpt lat="41.67438" lon="20.43788">
        <ele>722.09002685547</ele>
        <time>2023-09-30T09:45:37.000Z</time>
      </trkpt>
      <trkpt lat="41.67438" lon="20.43799">
        <ele>721.13000488281</ele>
        <time>2023-09-30T09:45:36.000Z</time>
      </trkpt>
      <trkpt lat="41.67435" lon="20.4381">
        <ele>721.13000488281</ele>
        <time>2023-09-30T09:45:35.000Z</time>
      </trkpt>
      <trkpt lat="41.67431" lon="20.43818">
        <ele>720.65002441406</ele>
        <time>2023-09-30T09:45:34.000Z</time>
      </trkpt>
      <trkpt lat="41.67426" lon="20.43825">
        <ele>720.15997314453</ele>
        <time>2023-09-30T09:45:33.000Z</time>
      </trkpt>
      <trkpt lat="41.6742" lon="20.43829">
        <ele>720.15997314453</ele>
        <time>2023-09-30T09:45:32.000Z</time>
      </trkpt>
      <trkpt lat="41.67413" lon="20.43832">
        <ele>719.20001220703</ele>
        <time>2023-09-30T09:45:31.000Z</time>
      </trkpt>
      <trkpt lat="41.6741" lon="20.43833">
        <ele>719.20001220703</ele>
        <time>2023-09-30T09:45:30.000Z</time>
      </trkpt>
      <trkpt lat="41.67401" lon="20.43835">
        <ele>718.71997070312</ele>
        <time>2023-09-30T09:45:29.000Z</time>
      </trkpt>
      <trkpt lat="41.67384" lon="20.43839">
        <ele>717.76000976562</ele>
        <time>2023-09-30T09:45:27.000Z</time>
      </trkpt>
      <trkpt lat="41.67379" lon="20.4384">
        <ele>717.76000976562</ele>
        <time>2023-09-30T09:45:26.000Z</time>
      </trkpt>
      <trkpt lat="41.67365" lon="20.43844">
        <ele>716.79998779297</ele>
        <time>2023-09-30T09:45:24.000Z</time>
      </trkpt>
      <trkpt lat="41.67355" lon="20.43846">
        <ele>716.32000732422</ele>
        <time>2023-09-30T09:45:23.000Z</time>
      </trkpt>
      <trkpt lat="41.67348" lon="20.43848">
        <ele>715.84002685547</ele>
        <time>2023-09-30T09:45:22.000Z</time>
      </trkpt>
      <trkpt lat="41.67347" lon="20.43848">
        <ele>715.84002685547</ele>
        <time>2023-09-30T09:45:21.000Z</time>
      </trkpt>
      <trkpt lat="41.6733" lon="20.43851">
        <ele>715.84002685547</ele>
        <time>2023-09-30T09:45:19.000Z</time>
      </trkpt>
      <trkpt lat="41.67309" lon="20.43856">
        <ele>715.35998535156</ele>
        <time>2023-09-30T09:45:16.000Z</time>
      </trkpt>
      <trkpt lat="41.67297" lon="20.43858">
        <ele>715.35998535156</ele>
        <time>2023-09-30T09:45:15.000Z</time>
      </trkpt>
      <trkpt lat="41.67294" lon="20.43859">
        <ele>715.35998535156</ele>
        <time>2023-09-30T09:45:14.000Z</time>
      </trkpt>
      <trkpt lat="41.67285" lon="20.43861">
        <ele>715.84002685547</ele>
        <time>2023-09-30T09:45:13.000Z</time>
      </trkpt>
      <trkpt lat="41.67278" lon="20.43863">
        <ele>715.84002685547</ele>
        <time>2023-09-30T09:45:12.000Z</time>
      </trkpt>
      <trkpt lat="41.67267" lon="20.43865">
        <ele>716.32000732422</ele>
        <time>2023-09-30T09:45:10.000Z</time>
      </trkpt>
      <trkpt lat="41.67258" lon="20.43867">
        <ele>716.32000732422</ele>
        <time>2023-09-30T09:45:08.000Z</time>
      </trkpt>
      <trkpt lat="41.67253" lon="20.43868">
        <ele>716.32000732422</ele>
        <time>2023-09-30T09:45:07.000Z</time>
      </trkpt>
      <trkpt lat="41.67228" lon="20.43872">
        <ele>716.32000732422</ele>
        <time>2023-09-30T09:45:04.000Z</time>
      </trkpt>
      <trkpt lat="41.67219" lon="20.43874">
        <ele>715.84002685547</ele>
        <time>2023-09-30T09:45:03.000Z</time>
      </trkpt>
      <trkpt lat="41.67211" lon="20.43877">
        <ele>715.35998535156</ele>
        <time>2023-09-30T09:45:02.000Z</time>
      </trkpt>
      <trkpt lat="41.67208" lon="20.43878">
        <ele>715.35998535156</ele>
        <time>2023-09-30T09:45:01.000Z</time>
      </trkpt>
      <trkpt lat="41.67199" lon="20.43883">
        <ele>714.40002441406</ele>
        <time>2023-09-30T09:45:00.000Z</time>
      </trkpt>
      <trkpt lat="41.67187" lon="20.43889">
        <ele>713.44000244141</ele>
        <time>2023-09-30T09:44:58.000Z</time>
      </trkpt>
      <trkpt lat="41.67172" lon="20.43898">
        <ele>712.46997070312</ele>
        <time>2023-09-30T09:44:57.000Z</time>
      </trkpt>
      <trkpt lat="41.67163" lon="20.43903">
        <ele>711.98999023438</ele>
        <time>2023-09-30T09:44:56.000Z</time>
      </trkpt>
      <trkpt lat="41.67152" lon="20.43911">
        <ele>711.98999023438</ele>
        <time>2023-09-30T09:44:55.000Z</time>
      </trkpt>
      <trkpt lat="41.67099" lon="20.43952">
        <ele>717.28002929688</ele>
        <time>2023-09-30T09:44:50.000Z</time>
      </trkpt>
      <trkpt lat="41.67088" lon="20.43961">
        <ele>719.20001220703</ele>
        <time>2023-09-30T09:44:49.000Z</time>
      </trkpt>
      <trkpt lat="41.67077" lon="20.4397">
        <ele>721.60998535156</ele>
        <time>2023-09-30T09:44:48.000Z</time>
      </trkpt>
      <trkpt lat="41.67064" lon="20.43978">
        <ele>724.01000976562</ele>
        <time>2023-09-30T09:44:47.000Z</time>
      </trkpt>
      <trkpt lat="41.67054" lon="20.43983">
        <ele>725.45001220703</ele>
        <time>2023-09-30T09:44:46.000Z</time>
      </trkpt>
      <trkpt lat="41.67039" lon="20.4399">
        <ele>727.36999511719</ele>
        <time>2023-09-30T09:44:45.000Z</time>
      </trkpt>
      <trkpt lat="41.67032" lon="20.43995">
        <ele>728.34002685547</ele>
        <time>2023-09-30T09:44:44.000Z</time>
      </trkpt>
      <trkpt lat="41.67021" lon="20.44002">
        <ele>729.78002929688</ele>
        <time>2023-09-30T09:44:43.000Z</time>
      </trkpt>
      <trkpt lat="41.67015" lon="20.44008">
        <ele>731.21997070312</ele>
        <time>2023-09-30T09:44:42.000Z</time>
      </trkpt>
      <trkpt lat="41.66978" lon="20.44041">
        <ele>736.51000976562</ele>
        <time>2023-09-30T09:44:39.000Z</time>
      </trkpt>
      <trkpt lat="41.66969" lon="20.44047">
        <ele>737.46997070312</ele>
        <time>2023-09-30T09:44:38.000Z</time>
      </trkpt>
      <trkpt lat="41.6696" lon="20.44052">
        <ele>738.42999267578</ele>
        <time>2023-09-30T09:44:37.000Z</time>
      </trkpt>
      <trkpt lat="41.66954" lon="20.44054">
        <ele>738.90997314453</ele>
        <time>2023-09-30T09:44:36.000Z</time>
      </trkpt>
      <trkpt lat="41.66942" lon="20.44059">
        <ele>739.39001464844</ele>
        <time>2023-09-30T09:44:35.000Z</time>
      </trkpt>
      <trkpt lat="41.66933" lon="20.44062">
        <ele>739.86999511719</ele>
        <time>2023-09-30T09:44:34.000Z</time>
      </trkpt>
      <trkpt lat="41.66924" lon="20.44067">
        <ele>739.86999511719</ele>
        <time>2023-09-30T09:44:33.000Z</time>
      </trkpt>
      <trkpt lat="41.66895" lon="20.44083">
        <ele>741.30999755859</ele>
        <time>2023-09-30T09:44:29.000Z</time>
      </trkpt>
      <trkpt lat="41.6682" lon="20.44114">
        <ele>740.83001708984</ele>
        <time>2023-09-30T09:44:20.000Z</time>
      </trkpt>
      <trkpt lat="41.66743" lon="20.44142">
        <ele>739.86999511719</ele>
        <time>2023-09-30T09:44:13.000Z</time>
      </trkpt>
      <trkpt lat="41.66709" lon="20.44156">
        <ele>739.39001464844</ele>
        <time>2023-09-30T09:44:10.000Z</time>
      </trkpt>
      <trkpt lat="41.66699" lon="20.44162">
        <ele>739.39001464844</ele>
        <time>2023-09-30T09:44:09.000Z</time>
      </trkpt>
      <trkpt lat="41.6669" lon="20.4417">
        <ele>739.39001464844</ele>
        <time>2023-09-30T09:44:08.000Z</time>
      </trkpt>
      <trkpt lat="41.66682" lon="20.44178">
        <ele>739.39001464844</ele>
        <time>2023-09-30T09:44:07.000Z</time>
      </trkpt>
      <trkpt lat="41.66676" lon="20.44186">
        <ele>738.90997314453</ele>
        <time>2023-09-30T09:44:06.000Z</time>
      </trkpt>
      <trkpt lat="41.66672" lon="20.44194">
        <ele>738.90997314453</ele>
        <time>2023-09-30T09:44:05.000Z</time>
      </trkpt>
      <trkpt lat="41.6667" lon="20.44204">
        <ele>739.39001464844</ele>
        <time>2023-09-30T09:44:04.000Z</time>
      </trkpt>
      <trkpt lat="41.66668" lon="20.44212">
        <ele>739.39001464844</ele>
        <time>2023-09-30T09:44:03.000Z</time>
      </trkpt>
      <trkpt lat="41.66668" lon="20.44219">
        <ele>739.39001464844</ele>
        <time>2023-09-30T09:44:02.000Z</time>
      </trkpt>
      <trkpt lat="41.66668" lon="20.44226">
        <ele>739.86999511719</ele>
        <time>2023-09-30T09:44:01.000Z</time>
      </trkpt>
      <trkpt lat="41.66667" lon="20.44228">
        <ele>739.86999511719</ele>
        <time>2023-09-30T09:44:00.000Z</time>
      </trkpt>
      <trkpt lat="41.66674" lon="20.44257">
        <ele>741.30999755859</ele>
        <time>2023-09-30T09:43:54.000Z</time>
      </trkpt>
      <trkpt lat="41.66672" lon="20.44259">
        <ele>731.21997070312</ele>
        <time>2023-09-30T09:42:56.000Z</time>
      </trkpt>
      <trkpt lat="41.66671" lon="20.44259">
        <ele>730.26000976562</ele>
        <time>2023-09-30T09:42:45.000Z</time>
      </trkpt>
      <trkpt lat="41.6667" lon="20.44267">
        <ele>728.82000732422</ele>
        <time>2023-09-30T09:42:39.000Z</time>
      </trkpt>
      <trkpt lat="41.66671" lon="20.4427">
        <ele>728.34002685547</ele>
        <time>2023-09-30T09:42:36.000Z</time>
      </trkpt>
      <trkpt lat="41.66673" lon="20.44268">
        <ele>729.29998779297</ele>
        <time>2023-09-30T09:42:28.000Z</time>
      </trkpt>
      <trkpt lat="41.66674" lon="20.44263">
        <ele>727.85998535156</ele>
        <time>2023-09-30T09:41:23.000Z</time>
      </trkpt>
      <trkpt lat="41.66671" lon="20.44266">
        <ele>731.70001220703</ele>
        <time>2023-09-30T09:35:56.000Z</time>
      </trkpt>
      <trkpt lat="41.66671" lon="20.44268">
        <ele>732.65997314453</ele>
        <time>2023-09-30T09:35:43.000Z</time>
      </trkpt>
      <trkpt lat="41.6667" lon="20.44269">
        <ele>732.65997314453</ele>
        <time>2023-09-30T09:35:42.000Z</time>
      </trkpt>
      <trkpt lat="41.66668" lon="20.4427">
        <ele>733.14001464844</ele>
        <time>2023-09-30T09:35:34.000Z</time>
      </trkpt>
      <trkpt lat="41.66669" lon="20.44262">
        <ele>733.61999511719</ele>
        <time>2023-09-30T09:35:29.000Z</time>
      </trkpt>
      <trkpt lat="41.66669" lon="20.44262">
        <ele>733.61999511719</ele>
        <time>2023-09-30T09:35:28.000Z</time>
      </trkpt>
      <trkpt lat="41.66671" lon="20.44262">
        <ele>736.98999023438</ele>
        <time>2023-09-30T09:34:48.000Z</time>
      </trkpt>
      <trkpt lat="41.66669" lon="20.44262">
        <ele>737.46997070312</ele>
        <time>2023-09-30T09:34:37.000Z</time>
      </trkpt>
      <trkpt lat="41.66671" lon="20.44261">
        <ele>735.54998779297</ele>
        <time>2023-09-30T09:33:40.000Z</time>
      </trkpt>
      <trkpt lat="41.66659" lon="20.44276">
        <ele>736.51000976562</ele>
        <time>2023-09-30T09:33:33.000Z</time>
      </trkpt>
      <trkpt lat="41.66657" lon="20.44281">
        <ele>736.51000976562</ele>
        <time>2023-09-30T09:33:32.000Z</time>
      </trkpt>
      <trkpt lat="41.66654" lon="20.44285">
        <ele>736.51000976562</ele>
        <time>2023-09-30T09:33:31.000Z</time>
      </trkpt>
      <trkpt lat="41.6665" lon="20.44289">
        <ele>736.51000976562</ele>
        <time>2023-09-30T09:33:30.000Z</time>
      </trkpt>
      <trkpt lat="41.66645" lon="20.44292">
        <ele>736.51000976562</ele>
        <time>2023-09-30T09:33:29.000Z</time>
      </trkpt>
      <trkpt lat="41.66639" lon="20.44293">
        <ele>736.51000976562</ele>
        <time>2023-09-30T09:33:28.000Z</time>
      </trkpt>
      <trkpt lat="41.66633" lon="20.44297">
        <ele>736.51000976562</ele>
        <time>2023-09-30T09:33:27.000Z</time>
      </trkpt>
      <trkpt lat="41.66629" lon="20.44301">
        <ele>736.51000976562</ele>
        <time>2023-09-30T09:33:26.000Z</time>
      </trkpt>
      <trkpt lat="41.66627" lon="20.44302">
        <ele>736.51000976562</ele>
        <time>2023-09-30T09:33:25.000Z</time>
      </trkpt>
      <trkpt lat="41.66604" lon="20.44325">
        <ele>736.51000976562</ele>
        <time>2023-09-30T09:33:23.000Z</time>
      </trkpt>
      <trkpt lat="41.66594" lon="20.44335">
        <ele>736.03002929688</ele>
        <time>2023-09-30T09:33:22.000Z</time>
      </trkpt>
      <trkpt lat="41.66582" lon="20.44343">
        <ele>736.51000976562</ele>
        <time>2023-09-30T09:33:21.000Z</time>
      </trkpt>
      <trkpt lat="41.6657" lon="20.44349">
        <ele>736.51000976562</ele>
        <time>2023-09-30T09:33:20.000Z</time>
      </trkpt>
      <trkpt lat="41.66559" lon="20.44352">
        <ele>736.98999023438</ele>
        <time>2023-09-30T09:33:19.000Z</time>
      </trkpt>
      <trkpt lat="41.6655" lon="20.44353">
        <ele>736.98999023438</ele>
        <time>2023-09-30T09:33:18.000Z</time>
      </trkpt>
      <trkpt lat="41.66537" lon="20.44353">
        <ele>737.95001220703</ele>
        <time>2023-09-30T09:33:17.000Z</time>
      </trkpt>
      <trkpt lat="41.66504" lon="20.4435">
        <ele>742.28002929688</ele>
        <time>2023-09-30T09:33:15.000Z</time>
      </trkpt>
      <trkpt lat="41.66496" lon="20.4435">
        <ele>743.23999023438</ele>
        <time>2023-09-30T09:33:14.000Z</time>
      </trkpt>
      <trkpt lat="41.66483" lon="20.4435">
        <ele>744.67999267578</ele>
        <time>2023-09-30T09:33:13.000Z</time>
      </trkpt>
      <trkpt lat="41.66473" lon="20.44352">
        <ele>745.64001464844</ele>
        <time>2023-09-30T09:33:12.000Z</time>
      </trkpt>
      <trkpt lat="41.66468" lon="20.44354">
        <ele>746.11999511719</ele>
        <time>2023-09-30T09:33:11.000Z</time>
      </trkpt>
      <trkpt lat="41.66463" lon="20.44357">
        <ele>746.59997558594</ele>
        <time>2023-09-30T09:33:10.000Z</time>
      </trkpt>
      <trkpt lat="41.66459" lon="20.4436">
        <ele>747.08001708984</ele>
        <time>2023-09-30T09:33:09.000Z</time>
      </trkpt>
      <trkpt lat="41.66454" lon="20.44363">
        <ele>748.03997802734</ele>
        <time>2023-09-30T09:33:08.000Z</time>
      </trkpt>
      <trkpt lat="41.6645" lon="20.44364">
        <ele>748.52001953125</ele>
        <time>2023-09-30T09:33:07.000Z</time>
      </trkpt>
      <trkpt lat="41.66449" lon="20.44365">
        <ele>748.52001953125</ele>
        <time>2023-09-30T09:33:06.000Z</time>
      </trkpt>
      <trkpt lat="41.6643" lon="20.44374">
        <ele>750.45001220703</ele>
        <time>2023-09-30T09:33:01.000Z</time>
      </trkpt>
      <trkpt lat="41.66429" lon="20.44375">
        <ele>750.45001220703</ele>
        <time>2023-09-30T09:33:00.000Z</time>
      </trkpt>
      <trkpt lat="41.66414" lon="20.44387">
        <ele>750.92999267578</ele>
        <time>2023-09-30T09:32:55.000Z</time>
      </trkpt>
      <trkpt lat="41.66408" lon="20.44392">
        <ele>751.40997314453</ele>
        <time>2023-09-30T09:32:54.000Z</time>
      </trkpt>
      <trkpt lat="41.66404" lon="20.44396">
        <ele>751.40997314453</ele>
        <time>2023-09-30T09:32:53.000Z</time>
      </trkpt>
      <trkpt lat="41.664" lon="20.444">
        <ele>751.40997314453</ele>
        <time>2023-09-30T09:32:52.000Z</time>
      </trkpt>
      <trkpt lat="41.66396" lon="20.44405">
        <ele>751.40997314453</ele>
        <time>2023-09-30T09:32:51.000Z</time>
      </trkpt>
      <trkpt lat="41.66375" lon="20.44427">
        <ele>749.96997070312</ele>
        <time>2023-09-30T09:32:48.000Z</time>
      </trkpt>
      <trkpt lat="41.66372" lon="20.4443">
        <ele>749.48999023438</ele>
        <time>2023-09-30T09:32:47.000Z</time>
      </trkpt>
      <trkpt lat="41.6636" lon="20.44442">
        <ele>749</ele>
        <time>2023-09-30T09:32:46.000Z</time>
      </trkpt>
      <trkpt lat="41.66349" lon="20.44452">
        <ele>748.03997802734</ele>
        <time>2023-09-30T09:32:45.000Z</time>
      </trkpt>
      <trkpt lat="41.66346" lon="20.44454">
        <ele>748.03997802734</ele>
        <time>2023-09-30T09:32:44.000Z</time>
      </trkpt>
      <trkpt lat="41.66329" lon="20.44468">
        <ele>747.08001708984</ele>
        <time>2023-09-30T09:32:43.000Z</time>
      </trkpt>
      <trkpt lat="41.66323" lon="20.44474">
        <ele>747.08001708984</ele>
        <time>2023-09-30T09:32:42.000Z</time>
      </trkpt>
      <trkpt lat="41.66309" lon="20.44487">
        <ele>747.08001708984</ele>
        <time>2023-09-30T09:32:41.000Z</time>
      </trkpt>
      <trkpt lat="41.66297" lon="20.44495">
        <ele>747.55999755859</ele>
        <time>2023-09-30T09:32:40.000Z</time>
      </trkpt>
      <trkpt lat="41.66286" lon="20.445">
        <ele>748.03997802734</ele>
        <time>2023-09-30T09:32:39.000Z</time>
      </trkpt>
      <trkpt lat="41.66275" lon="20.44504">
        <ele>748.52001953125</ele>
        <time>2023-09-30T09:32:38.000Z</time>
      </trkpt>
      <trkpt lat="41.66264" lon="20.44509">
        <ele>749</ele>
        <time>2023-09-30T09:32:37.000Z</time>
      </trkpt>
      <trkpt lat="41.66255" lon="20.44514">
        <ele>749</ele>
        <time>2023-09-30T09:32:36.000Z</time>
      </trkpt>
      <trkpt lat="41.66238" lon="20.44527">
        <ele>749.96997070312</ele>
        <time>2023-09-30T09:32:34.000Z</time>
      </trkpt>
      <trkpt lat="41.66233" lon="20.44531">
        <ele>749.96997070312</ele>
        <time>2023-09-30T09:32:33.000Z</time>
      </trkpt>
      <trkpt lat="41.66212" lon="20.44553">
        <ele>750.92999267578</ele>
        <time>2023-09-30T09:32:31.000Z</time>
      </trkpt>
      <trkpt lat="41.66195" lon="20.44572">
        <ele>751.40997314453</ele>
        <time>2023-09-30T09:32:29.000Z</time>
      </trkpt>
      <trkpt lat="41.66173" lon="20.44601">
        <ele>752.36999511719</ele>
        <time>2023-09-30T09:32:26.000Z</time>
      </trkpt>
      <trkpt lat="41.66151" lon="20.44637">
        <ele>754.28997802734</ele>
        <time>2023-09-30T09:32:22.000Z</time>
      </trkpt>
      <trkpt lat="41.66147" lon="20.44644">
        <ele>754.28997802734</ele>
        <time>2023-09-30T09:32:21.000Z</time>
      </trkpt>
      <trkpt lat="41.66126" lon="20.44689">
        <ele>752.36999511719</ele>
        <time>2023-09-30T09:32:17.000Z</time>
      </trkpt>
      <trkpt lat="41.66075" lon="20.44794">
        <ele>749</ele>
        <time>2023-09-30T09:32:09.000Z</time>
      </trkpt>
      <trkpt lat="41.66072" lon="20.44805">
        <ele>748.52001953125</ele>
        <time>2023-09-30T09:32:08.000Z</time>
      </trkpt>
      <trkpt lat="41.66069" lon="20.44817">
        <ele>747.55999755859</ele>
        <time>2023-09-30T09:32:07.000Z</time>
      </trkpt>
      <trkpt lat="41.66068" lon="20.44829">
        <ele>747.08001708984</ele>
        <time>2023-09-30T09:32:06.000Z</time>
      </trkpt>
      <trkpt lat="41.66066" lon="20.44907">
        <ele>743.23999023438</ele>
        <time>2023-09-30T09:32:01.000Z</time>
      </trkpt>
      <trkpt lat="41.66063" lon="20.44924">
        <ele>742.28002929688</ele>
        <time>2023-09-30T09:32:00.000Z</time>
      </trkpt>
      <trkpt lat="41.66055" lon="20.44941">
        <ele>741.78997802734</ele>
        <time>2023-09-30T09:31:59.000Z</time>
      </trkpt>
      <trkpt lat="41.66044" lon="20.44955">
        <ele>740.83001708984</ele>
        <time>2023-09-30T09:31:58.000Z</time>
      </trkpt>
      <trkpt lat="41.66032" lon="20.44967">
        <ele>740.83001708984</ele>
        <time>2023-09-30T09:31:57.000Z</time>
      </trkpt>
      <trkpt lat="41.6602" lon="20.44979">
        <ele>740.34997558594</ele>
        <time>2023-09-30T09:31:56.000Z</time>
      </trkpt>
      <trkpt lat="41.65963" lon="20.45049">
        <ele>740.34997558594</ele>
        <time>2023-09-30T09:31:52.000Z</time>
      </trkpt>
      <trkpt lat="41.65955" lon="20.45064">
        <ele>740.34997558594</ele>
        <time>2023-09-30T09:31:51.000Z</time>
      </trkpt>
      <trkpt lat="41.65952" lon="20.45071">
        <ele>740.34997558594</ele>
        <time>2023-09-30T09:31:50.000Z</time>
      </trkpt>
      <trkpt lat="41.65944" lon="20.45095">
        <ele>741.30999755859</ele>
        <time>2023-09-30T09:31:49.000Z</time>
      </trkpt>
      <trkpt lat="41.65935" lon="20.45111">
        <ele>741.78997802734</ele>
        <time>2023-09-30T09:31:48.000Z</time>
      </trkpt>
      <trkpt lat="41.65924" lon="20.45122">
        <ele>742.28002929688</ele>
        <time>2023-09-30T09:31:47.000Z</time>
      </trkpt>
      <trkpt lat="41.65913" lon="20.45129">
        <ele>742.28002929688</ele>
        <time>2023-09-30T09:31:46.000Z</time>
      </trkpt>
      <trkpt lat="41.65898" lon="20.45138">
        <ele>742.28002929688</ele>
        <time>2023-09-30T09:31:45.000Z</time>
      </trkpt>
      <trkpt lat="41.65886" lon="20.45146">
        <ele>741.78997802734</ele>
        <time>2023-09-30T09:31:44.000Z</time>
      </trkpt>
      <trkpt lat="41.65877" lon="20.45156">
        <ele>741.30999755859</ele>
        <time>2023-09-30T09:31:43.000Z</time>
      </trkpt>
      <trkpt lat="41.65869" lon="20.45167">
        <ele>740.34997558594</ele>
        <time>2023-09-30T09:31:42.000Z</time>
      </trkpt>
      <trkpt lat="41.65864" lon="20.45182">
        <ele>739.39001464844</ele>
        <time>2023-09-30T09:31:41.000Z</time>
      </trkpt>
      <trkpt lat="41.65861" lon="20.45197">
        <ele>738.42999267578</ele>
        <time>2023-09-30T09:31:40.000Z</time>
      </trkpt>
      <trkpt lat="41.65861" lon="20.45207">
        <ele>737.95001220703</ele>
        <time>2023-09-30T09:31:39.000Z</time>
      </trkpt>
      <trkpt lat="41.65861" lon="20.45237">
        <ele>737.95001220703</ele>
        <time>2023-09-30T09:31:38.000Z</time>
      </trkpt>
      <trkpt lat="41.65861" lon="20.45249">
        <ele>737.46997070312</ele>
        <time>2023-09-30T09:31:37.000Z</time>
      </trkpt>
      <trkpt lat="41.65857" lon="20.45274">
        <ele>736.51000976562</ele>
        <time>2023-09-30T09:31:36.000Z</time>
      </trkpt>
      <trkpt lat="41.65854" lon="20.45288">
        <ele>736.03002929688</ele>
        <time>2023-09-30T09:31:35.000Z</time>
      </trkpt>
      <trkpt lat="41.65847" lon="20.45309">
        <ele>736.03002929688</ele>
        <time>2023-09-30T09:31:34.000Z</time>
      </trkpt>
      <trkpt lat="41.65844" lon="20.45323">
        <ele>735.54998779297</ele>
        <time>2023-09-30T09:31:33.000Z</time>
      </trkpt>
      <trkpt lat="41.65841" lon="20.45341">
        <ele>736.03002929688</ele>
        <time>2023-09-30T09:31:32.000Z</time>
      </trkpt>
      <trkpt lat="41.65841" lon="20.4535">
        <ele>736.03002929688</ele>
        <time>2023-09-30T09:31:31.000Z</time>
      </trkpt>
      <trkpt lat="41.65841" lon="20.4537">
        <ele>736.03002929688</ele>
        <time>2023-09-30T09:31:30.000Z</time>
      </trkpt>
      <trkpt lat="41.6584" lon="20.45382">
        <ele>736.03002929688</ele>
        <time>2023-09-30T09:31:29.000Z</time>
      </trkpt>
      <trkpt lat="41.65836" lon="20.45393">
        <ele>736.03002929688</ele>
        <time>2023-09-30T09:31:28.000Z</time>
      </trkpt>
      <trkpt lat="41.6583" lon="20.45403">
        <ele>735.54998779297</ele>
        <time>2023-09-30T09:31:27.000Z</time>
      </trkpt>
      <trkpt lat="41.65821" lon="20.45411">
        <ele>735.54998779297</ele>
        <time>2023-09-30T09:31:26.000Z</time>
      </trkpt>
      <trkpt lat="41.65815" lon="20.45414">
        <ele>736.03002929688</ele>
        <time>2023-09-30T09:31:25.000Z</time>
      </trkpt>
      <trkpt lat="41.65798" lon="20.45421">
        <ele>736.51000976562</ele>
        <time>2023-09-30T09:31:24.000Z</time>
      </trkpt>
      <trkpt lat="41.65787" lon="20.45427">
        <ele>736.51000976562</ele>
        <time>2023-09-30T09:31:23.000Z</time>
      </trkpt>
      <trkpt lat="41.65778" lon="20.45435">
        <ele>736.51000976562</ele>
        <time>2023-09-30T09:31:22.000Z</time>
      </trkpt>
      <trkpt lat="41.65772" lon="20.45447">
        <ele>735.54998779297</ele>
        <time>2023-09-30T09:31:21.000Z</time>
      </trkpt>
      <trkpt lat="41.65766" lon="20.45461">
        <ele>735.54998779297</ele>
        <time>2023-09-30T09:31:20.000Z</time>
      </trkpt>
      <trkpt lat="41.65762" lon="20.45476">
        <ele>735.54998779297</ele>
        <time>2023-09-30T09:31:19.000Z</time>
      </trkpt>
      <trkpt lat="41.65758" lon="20.45502">
        <ele>735.54998779297</ele>
        <time>2023-09-30T09:31:17.000Z</time>
      </trkpt>
      <trkpt lat="41.65756" lon="20.45514">
        <ele>735.54998779297</ele>
        <time>2023-09-30T09:31:16.000Z</time>
      </trkpt>
      <trkpt lat="41.65753" lon="20.45522">
        <ele>735.07000732422</ele>
        <time>2023-09-30T09:31:15.000Z</time>
      </trkpt>
      <trkpt lat="41.6575" lon="20.45527">
        <ele>734.58001708984</ele>
        <time>2023-09-30T09:31:14.000Z</time>
      </trkpt>
      <trkpt lat="41.65746" lon="20.45532">
        <ele>734.09997558594</ele>
        <time>2023-09-30T09:31:13.000Z</time>
      </trkpt>
      <trkpt lat="41.6574" lon="20.45534">
        <ele>733.61999511719</ele>
        <time>2023-09-30T09:31:12.000Z</time>
      </trkpt>
      <trkpt lat="41.65731" lon="20.45535">
        <ele>732.65997314453</ele>
        <time>2023-09-30T09:31:11.000Z</time>
      </trkpt>
      <trkpt lat="41.65723" lon="20.45534">
        <ele>732.65997314453</ele>
        <time>2023-09-30T09:31:10.000Z</time>
      </trkpt>
      <trkpt lat="41.65715" lon="20.45534">
        <ele>732.17999267578</ele>
        <time>2023-09-30T09:31:09.000Z</time>
      </trkpt>
      <trkpt lat="41.65687" lon="20.45528">
        <ele>730.73999023438</ele>
        <time>2023-09-30T09:31:07.000Z</time>
      </trkpt>
      <trkpt lat="41.65673" lon="20.45524">
        <ele>730.26000976562</ele>
        <time>2023-09-30T09:31:06.000Z</time>
      </trkpt>
      <trkpt lat="41.65662" lon="20.45519">
        <ele>729.78002929688</ele>
        <time>2023-09-30T09:31:05.000Z</time>
      </trkpt>
      <trkpt lat="41.65654" lon="20.4551">
        <ele>729.78002929688</ele>
        <time>2023-09-30T09:31:04.000Z</time>
      </trkpt>
      <trkpt lat="41.65648" lon="20.45498">
        <ele>729.78002929688</ele>
        <time>2023-09-30T09:31:03.000Z</time>
      </trkpt>
      <trkpt lat="41.65645" lon="20.4549">
        <ele>729.78002929688</ele>
        <time>2023-09-30T09:31:02.000Z</time>
      </trkpt>
      <trkpt lat="41.65626" lon="20.45411">
        <ele>729.78002929688</ele>
        <time>2023-09-30T09:30:58.000Z</time>
      </trkpt>
      <trkpt lat="41.65625" lon="20.45402">
        <ele>729.78002929688</ele>
        <time>2023-09-30T09:30:57.000Z</time>
      </trkpt>
      <trkpt lat="41.65622" lon="20.45384">
        <ele>729.78002929688</ele>
        <time>2023-09-30T09:30:56.000Z</time>
      </trkpt>
      <trkpt lat="41.65619" lon="20.45354">
        <ele>730.73999023438</ele>
        <time>2023-09-30T09:30:55.000Z</time>
      </trkpt>
      <trkpt lat="41.65617" lon="20.45339">
        <ele>731.70001220703</ele>
        <time>2023-09-30T09:30:54.000Z</time>
      </trkpt>
      <trkpt lat="41.65614" lon="20.45327">
        <ele>731.70001220703</ele>
        <time>2023-09-30T09:30:53.000Z</time>
      </trkpt>
      <trkpt lat="41.65608" lon="20.45311">
        <ele>732.17999267578</ele>
        <time>2023-09-30T09:30:52.000Z</time>
      </trkpt>
      <trkpt lat="41.65597" lon="20.45282">
        <ele>732.65997314453</ele>
        <time>2023-09-30T09:30:50.000Z</time>
      </trkpt>
      <trkpt lat="41.65593" lon="20.45268">
        <ele>733.61999511719</ele>
        <time>2023-09-30T09:30:49.000Z</time>
      </trkpt>
      <trkpt lat="41.65591" lon="20.45252">
        <ele>735.07000732422</ele>
        <time>2023-09-30T09:30:48.000Z</time>
      </trkpt>
      <trkpt lat="41.65592" lon="20.4524">
        <ele>736.51000976562</ele>
        <time>2023-09-30T09:30:47.000Z</time>
      </trkpt>
      <trkpt lat="41.65593" lon="20.4522">
        <ele>737.46997070312</ele>
        <time>2023-09-30T09:30:46.000Z</time>
      </trkpt>
      <trkpt lat="41.65593" lon="20.45207">
        <ele>738.42999267578</ele>
        <time>2023-09-30T09:30:45.000Z</time>
      </trkpt>
      <trkpt lat="41.65593" lon="20.45191">
        <ele>739.39001464844</ele>
        <time>2023-09-30T09:30:44.000Z</time>
      </trkpt>
      <trkpt lat="41.65593" lon="20.45168">
        <ele>740.83001708984</ele>
        <time>2023-09-30T09:30:43.000Z</time>
      </trkpt>
      <trkpt lat="41.65594" lon="20.45151">
        <ele>741.78997802734</ele>
        <time>2023-09-30T09:30:42.000Z</time>
      </trkpt>
      <trkpt lat="41.65594" lon="20.45137">
        <ele>742.76000976562</ele>
        <time>2023-09-30T09:30:41.000Z</time>
      </trkpt>
      <trkpt lat="41.65593" lon="20.45122">
        <ele>743.23999023438</ele>
        <time>2023-09-30T09:30:40.000Z</time>
      </trkpt>
      <trkpt lat="41.65588" lon="20.45107">
        <ele>744.20001220703</ele>
        <time>2023-09-30T09:30:39.000Z</time>
      </trkpt>
      <trkpt lat="41.65583" lon="20.45094">
        <ele>744.20001220703</ele>
        <time>2023-09-30T09:30:38.000Z</time>
      </trkpt>
      <trkpt lat="41.65579" lon="20.45076">
        <ele>745.15997314453</ele>
        <time>2023-09-30T09:30:37.000Z</time>
      </trkpt>
      <trkpt lat="41.65577" lon="20.45062">
        <ele>745.64001464844</ele>
        <time>2023-09-30T09:30:36.000Z</time>
      </trkpt>
      <trkpt lat="41.65575" lon="20.45048">
        <ele>745.64001464844</ele>
        <time>2023-09-30T09:30:35.000Z</time>
      </trkpt>
      <trkpt lat="41.65571" lon="20.45037">
        <ele>745.64001464844</ele>
        <time>2023-09-30T09:30:34.000Z</time>
      </trkpt>
      <trkpt lat="41.65565" lon="20.45028">
        <ele>745.64001464844</ele>
        <time>2023-09-30T09:30:33.000Z</time>
      </trkpt>
      <trkpt lat="41.65557" lon="20.45022">
        <ele>745.15997314453</ele>
        <time>2023-09-30T09:30:32.000Z</time>
      </trkpt>
      <trkpt lat="41.65546" lon="20.4502">
        <ele>745.15997314453</ele>
        <time>2023-09-30T09:30:31.000Z</time>
      </trkpt>
      <trkpt lat="41.65533" lon="20.45022">
        <ele>745.15997314453</ele>
        <time>2023-09-30T09:30:30.000Z</time>
      </trkpt>
      <trkpt lat="41.6552" lon="20.45025">
        <ele>745.15997314453</ele>
        <time>2023-09-30T09:30:29.000Z</time>
      </trkpt>
      <trkpt lat="41.65514" lon="20.45028">
        <ele>745.15997314453</ele>
        <time>2023-09-30T09:30:28.000Z</time>
      </trkpt>
      <trkpt lat="41.65465" lon="20.45048">
        <ele>744.67999267578</ele>
        <time>2023-09-30T09:30:25.000Z</time>
      </trkpt>
      <trkpt lat="41.65453" lon="20.45055">
        <ele>744.67999267578</ele>
        <time>2023-09-30T09:30:24.000Z</time>
      </trkpt>
      <trkpt lat="41.65442" lon="20.45064">
        <ele>745.64001464844</ele>
        <time>2023-09-30T09:30:23.000Z</time>
      </trkpt>
      <trkpt lat="41.65432" lon="20.45075">
        <ele>747.55999755859</ele>
        <time>2023-09-30T09:30:22.000Z</time>
      </trkpt>
      <trkpt lat="41.65423" lon="20.45088">
        <ele>748.52001953125</ele>
        <time>2023-09-30T09:30:21.000Z</time>
      </trkpt>
      <trkpt lat="41.65418" lon="20.45099">
        <ele>749</ele>
        <time>2023-09-30T09:30:20.000Z</time>
      </trkpt>
      <trkpt lat="41.6539" lon="20.45183">
        <ele>752.36999511719</ele>
        <time>2023-09-30T09:30:15.000Z</time>
      </trkpt>
      <trkpt lat="41.65386" lon="20.45201">
        <ele>753.33001708984</ele>
        <time>2023-09-30T09:30:14.000Z</time>
      </trkpt>
      <trkpt lat="41.65383" lon="20.45216">
        <ele>753.80999755859</ele>
        <time>2023-09-30T09:30:13.000Z</time>
      </trkpt>
      <trkpt lat="41.65382" lon="20.45235">
        <ele>754.77001953125</ele>
        <time>2023-09-30T09:30:12.000Z</time>
      </trkpt>
      <trkpt lat="41.65383" lon="20.45251">
        <ele>755.25</ele>
        <time>2023-09-30T09:30:11.000Z</time>
      </trkpt>
      <trkpt lat="41.65387" lon="20.45289">
        <ele>757.17999267578</ele>
        <time>2023-09-30T09:30:09.000Z</time>
      </trkpt>
      <trkpt lat="41.65387" lon="20.4531">
        <ele>758.14001464844</ele>
        <time>2023-09-30T09:30:08.000Z</time>
      </trkpt>
      <trkpt lat="41.65387" lon="20.45328">
        <ele>759.58001708984</ele>
        <time>2023-09-30T09:30:07.000Z</time>
      </trkpt>
      <trkpt lat="41.65384" lon="20.45347">
        <ele>760.53997802734</ele>
        <time>2023-09-30T09:30:06.000Z</time>
      </trkpt>
      <trkpt lat="41.65378" lon="20.45382">
        <ele>763.41998291016</ele>
        <time>2023-09-30T09:30:04.000Z</time>
      </trkpt>
      <trkpt lat="41.65371" lon="20.45459">
        <ele>768.22998046875</ele>
        <time>2023-09-30T09:30:00.000Z</time>
      </trkpt>
      <trkpt lat="41.65367" lon="20.45475">
        <ele>769.66998291016</ele>
        <time>2023-09-30T09:29:59.000Z</time>
      </trkpt>
      <trkpt lat="41.6536" lon="20.45487">
        <ele>771.10998535156</ele>
        <time>2023-09-30T09:29:58.000Z</time>
      </trkpt>
      <trkpt lat="41.65351" lon="20.45496">
        <ele>772.55999755859</ele>
        <time>2023-09-30T09:29:57.000Z</time>
      </trkpt>
      <trkpt lat="41.6534" lon="20.45504">
        <ele>774</ele>
        <time>2023-09-30T09:29:56.000Z</time>
      </trkpt>
      <trkpt lat="41.65336" lon="20.45506">
        <ele>774.47998046875</ele>
        <time>2023-09-30T09:29:55.000Z</time>
      </trkpt>
      <trkpt lat="41.65297" lon="20.45525">
        <ele>779.28997802734</ele>
        <time>2023-09-30T09:29:51.000Z</time>
      </trkpt>
      <trkpt lat="41.65281" lon="20.45535">
        <ele>780.72998046875</ele>
        <time>2023-09-30T09:29:50.000Z</time>
      </trkpt>
      <trkpt lat="41.65277" lon="20.45538">
        <ele>780.72998046875</ele>
        <time>2023-09-30T09:29:49.000Z</time>
      </trkpt>
      <trkpt lat="41.65264" lon="20.4555">
        <ele>781.69000244141</ele>
        <time>2023-09-30T09:29:48.000Z</time>
      </trkpt>
      <trkpt lat="41.65256" lon="20.45558">
        <ele>782.65002441406</ele>
        <time>2023-09-30T09:29:47.000Z</time>
      </trkpt>
      <trkpt lat="41.65247" lon="20.45568">
        <ele>783.60998535156</ele>
        <time>2023-09-30T09:29:46.000Z</time>
      </trkpt>
      <trkpt lat="41.65223" lon="20.45596">
        <ele>786.02001953125</ele>
        <time>2023-09-30T09:29:43.000Z</time>
      </trkpt>
      <trkpt lat="41.65195" lon="20.45626">
        <ele>786.97998046875</ele>
        <time>2023-09-30T09:29:41.000Z</time>
      </trkpt>
      <trkpt lat="41.6518" lon="20.45638">
        <ele>786.97998046875</ele>
        <time>2023-09-30T09:29:40.000Z</time>
      </trkpt>
      <trkpt lat="41.65175" lon="20.45642">
        <ele>786.97998046875</ele>
        <time>2023-09-30T09:29:39.000Z</time>
      </trkpt>
      <trkpt lat="41.65162" lon="20.45651">
        <ele>786.97998046875</ele>
        <time>2023-09-30T09:29:38.000Z</time>
      </trkpt>
      <trkpt lat="41.651" lon="20.4569">
        <ele>786.5</ele>
        <time>2023-09-30T09:29:34.000Z</time>
      </trkpt>
      <trkpt lat="41.65088" lon="20.45695">
        <ele>786.5</ele>
        <time>2023-09-30T09:29:33.000Z</time>
      </trkpt>
      <trkpt lat="41.65063" lon="20.45702">
        <ele>786.5</ele>
        <time>2023-09-30T09:29:31.000Z</time>
      </trkpt>
      <trkpt lat="41.64962" lon="20.45722">
        <ele>790.82000732422</ele>
        <time>2023-09-30T09:29:24.000Z</time>
      </trkpt>
      <trkpt lat="41.64952" lon="20.45724">
        <ele>790.34002685547</ele>
        <time>2023-09-30T09:29:23.000Z</time>
      </trkpt>
      <trkpt lat="41.64902" lon="20.45736">
        <ele>788.41998291016</ele>
        <time>2023-09-30T09:29:20.000Z</time>
      </trkpt>
      <trkpt lat="41.64852" lon="20.45747">
        <ele>786.5</ele>
        <time>2023-09-30T09:29:17.000Z</time>
      </trkpt>
      <trkpt lat="41.64828" lon="20.45751">
        <ele>786.5</ele>
        <time>2023-09-30T09:29:15.000Z</time>
      </trkpt>
      <trkpt lat="41.64804" lon="20.45753">
        <ele>787.46002197266</ele>
        <time>2023-09-30T09:29:14.000Z</time>
      </trkpt>
      <trkpt lat="41.64787" lon="20.45756">
        <ele>788.90002441406</ele>
        <time>2023-09-30T09:29:13.000Z</time>
      </trkpt>
      <trkpt lat="41.64776" lon="20.45762">
        <ele>789.38000488281</ele>
        <time>2023-09-30T09:29:12.000Z</time>
      </trkpt>
      <trkpt lat="41.64766" lon="20.45772">
        <ele>789.85998535156</ele>
        <time>2023-09-30T09:29:11.000Z</time>
      </trkpt>
      <trkpt lat="41.64759" lon="20.45782">
        <ele>789.85998535156</ele>
        <time>2023-09-30T09:29:10.000Z</time>
      </trkpt>
      <trkpt lat="41.64739" lon="20.45813">
        <ele>788.90002441406</ele>
        <time>2023-09-30T09:29:08.000Z</time>
      </trkpt>
      <trkpt lat="41.6473" lon="20.45823">
        <ele>788.90002441406</ele>
        <time>2023-09-30T09:29:07.000Z</time>
      </trkpt>
      <trkpt lat="41.64715" lon="20.45836">
        <ele>789.38000488281</ele>
        <time>2023-09-30T09:29:06.000Z</time>
      </trkpt>
      <trkpt lat="41.64702" lon="20.45847">
        <ele>789.85998535156</ele>
        <time>2023-09-30T09:29:05.000Z</time>
      </trkpt>
      <trkpt lat="41.64689" lon="20.45857">
        <ele>789.85998535156</ele>
        <time>2023-09-30T09:29:04.000Z</time>
      </trkpt>
      <trkpt lat="41.64676" lon="20.45863">
        <ele>789.38000488281</ele>
        <time>2023-09-30T09:29:03.000Z</time>
      </trkpt>
      <trkpt lat="41.64661" lon="20.45867">
        <ele>789.38000488281</ele>
        <time>2023-09-30T09:29:02.000Z</time>
      </trkpt>
      <trkpt lat="41.64648" lon="20.45872">
        <ele>789.85998535156</ele>
        <time>2023-09-30T09:29:01.000Z</time>
      </trkpt>
      <trkpt lat="41.64644" lon="20.45874">
        <ele>789.85998535156</ele>
        <time>2023-09-30T09:29:00.000Z</time>
      </trkpt>
      <trkpt lat="41.64609" lon="20.45893">
        <ele>789.85998535156</ele>
        <time>2023-09-30T09:28:58.000Z</time>
      </trkpt>
      <trkpt lat="41.64598" lon="20.45896">
        <ele>789.85998535156</ele>
        <time>2023-09-30T09:28:57.000Z</time>
      </trkpt>
      <trkpt lat="41.64587" lon="20.45894">
        <ele>789.85998535156</ele>
        <time>2023-09-30T09:28:56.000Z</time>
      </trkpt>
      <trkpt lat="41.64577" lon="20.45888">
        <ele>789.85998535156</ele>
        <time>2023-09-30T09:28:55.000Z</time>
      </trkpt>
      <trkpt lat="41.64573" lon="20.45885">
        <ele>789.38000488281</ele>
        <time>2023-09-30T09:28:54.000Z</time>
      </trkpt>
      <trkpt lat="41.64546" lon="20.45859">
        <ele>790.34002685547</ele>
        <time>2023-09-30T09:28:52.000Z</time>
      </trkpt>
      <trkpt lat="41.64535" lon="20.45852">
        <ele>791.78002929688</ele>
        <time>2023-09-30T09:28:51.000Z</time>
      </trkpt>
      <trkpt lat="41.64523" lon="20.45847">
        <ele>792.73999023438</ele>
        <time>2023-09-30T09:28:50.000Z</time>
      </trkpt>
      <trkpt lat="41.6452" lon="20.45847">
        <ele>792.73999023438</ele>
        <time>2023-09-30T09:28:49.000Z</time>
      </trkpt>
      <trkpt lat="41.64504" lon="20.45844">
        <ele>794.66998291016</ele>
        <time>2023-09-30T09:28:48.000Z</time>
      </trkpt>
      <trkpt lat="41.64494" lon="20.45842">
        <ele>795.63000488281</ele>
        <time>2023-09-30T09:28:47.000Z</time>
      </trkpt>
      <trkpt lat="41.64472" lon="20.4584">
        <ele>797.54998779297</ele>
        <time>2023-09-30T09:28:46.000Z</time>
      </trkpt>
      <trkpt lat="41.64464" lon="20.45841">
        <ele>798.03002929688</ele>
        <time>2023-09-30T09:28:45.000Z</time>
      </trkpt>
      <trkpt lat="41.64428" lon="20.45846">
        <ele>800.91998291016</ele>
        <time>2023-09-30T09:28:42.000Z</time>
      </trkpt>
      <trkpt lat="41.6442" lon="20.45848">
        <ele>800.91998291016</ele>
        <time>2023-09-30T09:28:41.000Z</time>
      </trkpt>
      <trkpt lat="41.64413" lon="20.4585">
        <ele>801.40002441406</ele>
        <time>2023-09-30T09:28:40.000Z</time>
      </trkpt>
      <trkpt lat="41.64395" lon="20.45856">
        <ele>801.88000488281</ele>
        <time>2023-09-30T09:28:39.000Z</time>
      </trkpt>
      <trkpt lat="41.6438" lon="20.4586">
        <ele>801.88000488281</ele>
        <time>2023-09-30T09:28:37.000Z</time>
      </trkpt>
      <trkpt lat="41.64372" lon="20.45863">
        <ele>801.88000488281</ele>
        <time>2023-09-30T09:28:36.000Z</time>
      </trkpt>
      <trkpt lat="41.64364" lon="20.45865">
        <ele>802.35998535156</ele>
        <time>2023-09-30T09:28:35.000Z</time>
      </trkpt>
      <trkpt lat="41.64316" lon="20.45881">
        <ele>804.28002929688</ele>
        <time>2023-09-30T09:28:31.000Z</time>
      </trkpt>
      <trkpt lat="41.64302" lon="20.45886">
        <ele>804.76000976562</ele>
        <time>2023-09-30T09:28:30.000Z</time>
      </trkpt>
      <trkpt lat="41.64267" lon="20.45902">
        <ele>808.13000488281</ele>
        <time>2023-09-30T09:28:27.000Z</time>
      </trkpt>
      <trkpt lat="41.64256" lon="20.45906">
        <ele>809.09002685547</ele>
        <time>2023-09-30T09:28:26.000Z</time>
      </trkpt>
      <trkpt lat="41.64246" lon="20.45905">
        <ele>809.57000732422</ele>
        <time>2023-09-30T09:28:25.000Z</time>
      </trkpt>
      <trkpt lat="41.64234" lon="20.45902">
        <ele>809.57000732422</ele>
        <time>2023-09-30T09:28:24.000Z</time>
      </trkpt>
      <trkpt lat="41.64225" lon="20.45898">
        <ele>809.57000732422</ele>
        <time>2023-09-30T09:28:23.000Z</time>
      </trkpt>
      <trkpt lat="41.64194" lon="20.45882">
        <ele>807.15997314453</ele>
        <time>2023-09-30T09:28:21.000Z</time>
      </trkpt>
      <trkpt lat="41.6418" lon="20.45878">
        <ele>806.67999267578</ele>
        <time>2023-09-30T09:28:20.000Z</time>
      </trkpt>
      <trkpt lat="41.64173" lon="20.45877">
        <ele>805.71997070312</ele>
        <time>2023-09-30T09:28:19.000Z</time>
      </trkpt>
      <trkpt lat="41.6415" lon="20.45876">
        <ele>803.32000732422</ele>
        <time>2023-09-30T09:28:18.000Z</time>
      </trkpt>
      <trkpt lat="41.64135" lon="20.45872">
        <ele>801.40002441406</ele>
        <time>2023-09-30T09:28:17.000Z</time>
      </trkpt>
      <trkpt lat="41.64121" lon="20.45866">
        <ele>800.44000244141</ele>
        <time>2023-09-30T09:28:16.000Z</time>
      </trkpt>
      <trkpt lat="41.6411" lon="20.45857">
        <ele>798.98999023438</ele>
        <time>2023-09-30T09:28:15.000Z</time>
      </trkpt>
      <trkpt lat="41.64105" lon="20.4585">
        <ele>798.03002929688</ele>
        <time>2023-09-30T09:28:14.000Z</time>
      </trkpt>
      <trkpt lat="41.64093" lon="20.45833">
        <ele>795.63000488281</ele>
        <time>2023-09-30T09:28:13.000Z</time>
      </trkpt>
      <trkpt lat="41.64079" lon="20.45822">
        <ele>792.73999023438</ele>
        <time>2023-09-30T09:28:12.000Z</time>
      </trkpt>
      <trkpt lat="41.64063" lon="20.45815">
        <ele>790.82000732422</ele>
        <time>2023-09-30T09:28:11.000Z</time>
      </trkpt>
      <trkpt lat="41.64047" lon="20.4581">
        <ele>790.34002685547</ele>
        <time>2023-09-30T09:28:10.000Z</time>
      </trkpt>
      <trkpt lat="41.6404" lon="20.45809">
        <ele>790.34002685547</ele>
        <time>2023-09-30T09:28:09.000Z</time>
      </trkpt>
      <trkpt lat="41.64012" lon="20.45806">
        <ele>790.34002685547</ele>
        <time>2023-09-30T09:28:08.000Z</time>
      </trkpt>
      <trkpt lat="41.63997" lon="20.45802">
        <ele>789.85998535156</ele>
        <time>2023-09-30T09:28:07.000Z</time>
      </trkpt>
      <trkpt lat="41.63985" lon="20.45794">
        <ele>790.34002685547</ele>
        <time>2023-09-30T09:28:06.000Z</time>
      </trkpt>
      <trkpt lat="41.63976" lon="20.45784">
        <ele>791.29998779297</ele>
        <time>2023-09-30T09:28:05.000Z</time>
      </trkpt>
      <trkpt lat="41.63969" lon="20.45773">
        <ele>792.26000976562</ele>
        <time>2023-09-30T09:28:04.000Z</time>
      </trkpt>
      <trkpt lat="41.63964" lon="20.45761">
        <ele>793.21997070312</ele>
        <time>2023-09-30T09:28:03.000Z</time>
      </trkpt>
      <trkpt lat="41.63963" lon="20.45758">
        <ele>793.21997070312</ele>
        <time>2023-09-30T09:28:02.000Z</time>
      </trkpt>
      <trkpt lat="41.63957" lon="20.45737">
        <ele>795.15002441406</ele>
        <time>2023-09-30T09:28:01.000Z</time>
      </trkpt>
      <trkpt lat="41.6395" lon="20.45719">
        <ele>796.59002685547</ele>
        <time>2023-09-30T09:28:00.000Z</time>
      </trkpt>
      <trkpt lat="41.63945" lon="20.45708">
        <ele>796.59002685547</ele>
        <time>2023-09-30T09:27:59.000Z</time>
      </trkpt>
      <trkpt lat="41.63939" lon="20.45699">
        <ele>796.59002685547</ele>
        <time>2023-09-30T09:27:58.000Z</time>
      </trkpt>
      <trkpt lat="41.63932" lon="20.4569">
        <ele>796.59002685547</ele>
        <time>2023-09-30T09:27:57.000Z</time>
      </trkpt>
      <trkpt lat="41.63923" lon="20.45681">
        <ele>796.59002685547</ele>
        <time>2023-09-30T09:27:56.000Z</time>
      </trkpt>
      <trkpt lat="41.63913" lon="20.45671">
        <ele>796.59002685547</ele>
        <time>2023-09-30T09:27:55.000Z</time>
      </trkpt>
      <trkpt lat="41.63909" lon="20.45665">
        <ele>796.59002685547</ele>
        <time>2023-09-30T09:27:54.000Z</time>
      </trkpt>
      <trkpt lat="41.63892" lon="20.45642">
        <ele>795.63000488281</ele>
        <time>2023-09-30T09:27:53.000Z</time>
      </trkpt>
      <trkpt lat="41.63882" lon="20.45631">
        <ele>794.66998291016</ele>
        <time>2023-09-30T09:27:52.000Z</time>
      </trkpt>
      <trkpt lat="41.63871" lon="20.4562">
        <ele>794.19000244141</ele>
        <time>2023-09-30T09:27:51.000Z</time>
      </trkpt>
      <trkpt lat="41.63856" lon="20.4561">
        <ele>793.21997070312</ele>
        <time>2023-09-30T09:27:50.000Z</time>
      </trkpt>
      <trkpt lat="41.63845" lon="20.45604">
        <ele>792.26000976562</ele>
        <time>2023-09-30T09:27:49.000Z</time>
      </trkpt>
      <trkpt lat="41.6384" lon="20.45602">
        <ele>792.26000976562</ele>
        <time>2023-09-30T09:27:48.000Z</time>
      </trkpt>
      <trkpt lat="41.63826" lon="20.45598">
        <ele>790.82000732422</ele>
        <time>2023-09-30T09:27:47.000Z</time>
      </trkpt>
      <trkpt lat="41.63749" lon="20.4558">
        <ele>784.57000732422</ele>
        <time>2023-09-30T09:27:42.000Z</time>
      </trkpt>
      <trkpt lat="41.63737" lon="20.45578">
        <ele>784.09002685547</ele>
        <time>2023-09-30T09:27:41.000Z</time>
      </trkpt>
      <trkpt lat="41.63729" lon="20.45578">
        <ele>783.60998535156</ele>
        <time>2023-09-30T09:27:40.000Z</time>
      </trkpt>
      <trkpt lat="41.63718" lon="20.45579">
        <ele>783.13000488281</ele>
        <time>2023-09-30T09:27:39.000Z</time>
      </trkpt>
      <trkpt lat="41.6369" lon="20.45587">
        <ele>783.13000488281</ele>
        <time>2023-09-30T09:27:36.000Z</time>
      </trkpt>
      <trkpt lat="41.6368" lon="20.45589">
        <ele>783.13000488281</ele>
        <time>2023-09-30T09:27:35.000Z</time>
      </trkpt>
      <trkpt lat="41.63669" lon="20.45587">
        <ele>782.16998291016</ele>
        <time>2023-09-30T09:27:34.000Z</time>
      </trkpt>
      <trkpt lat="41.63659" lon="20.45579">
        <ele>782.16998291016</ele>
        <time>2023-09-30T09:27:33.000Z</time>
      </trkpt>
      <trkpt lat="41.63652" lon="20.45567">
        <ele>783.13000488281</ele>
        <time>2023-09-30T09:27:32.000Z</time>
      </trkpt>
      <trkpt lat="41.63649" lon="20.45558">
        <ele>783.13000488281</ele>
        <time>2023-09-30T09:27:31.000Z</time>
      </trkpt>
      <trkpt lat="41.63644" lon="20.45542">
        <ele>783.13000488281</ele>
        <time>2023-09-30T09:27:30.000Z</time>
      </trkpt>
      <trkpt lat="41.63638" lon="20.45529">
        <ele>782.65002441406</ele>
        <time>2023-09-30T09:27:29.000Z</time>
      </trkpt>
      <trkpt lat="41.63628" lon="20.45511">
        <ele>782.16998291016</ele>
        <time>2023-09-30T09:27:28.000Z</time>
      </trkpt>
      <trkpt lat="41.63619" lon="20.455">
        <ele>782.16998291016</ele>
        <time>2023-09-30T09:27:27.000Z</time>
      </trkpt>
      <trkpt lat="41.63609" lon="20.45491">
        <ele>782.16998291016</ele>
        <time>2023-09-30T09:27:26.000Z</time>
      </trkpt>
      <trkpt lat="41.63598" lon="20.45485">
        <ele>782.16998291016</ele>
        <time>2023-09-30T09:27:25.000Z</time>
      </trkpt>
      <trkpt lat="41.63589" lon="20.45483">
        <ele>782.16998291016</ele>
        <time>2023-09-30T09:27:24.000Z</time>
      </trkpt>
      <trkpt lat="41.63575" lon="20.45479">
        <ele>782.16998291016</ele>
        <time>2023-09-30T09:27:23.000Z</time>
      </trkpt>
      <trkpt lat="41.63546" lon="20.45475">
        <ele>782.65002441406</ele>
        <time>2023-09-30T09:27:21.000Z</time>
      </trkpt>
      <trkpt lat="41.63535" lon="20.45472">
        <ele>783.13000488281</ele>
        <time>2023-09-30T09:27:20.000Z</time>
      </trkpt>
      <trkpt lat="41.63525" lon="20.45467">
        <ele>783.13000488281</ele>
        <time>2023-09-30T09:27:19.000Z</time>
      </trkpt>
      <trkpt lat="41.63517" lon="20.45459">
        <ele>782.65002441406</ele>
        <time>2023-09-30T09:27:18.000Z</time>
      </trkpt>
      <trkpt lat="41.63511" lon="20.45449">
        <ele>782.16998291016</ele>
        <time>2023-09-30T09:27:17.000Z</time>
      </trkpt>
      <trkpt lat="41.63507" lon="20.45436">
        <ele>781.69000244141</ele>
        <time>2023-09-30T09:27:16.000Z</time>
      </trkpt>
      <trkpt lat="41.63504" lon="20.45422">
        <ele>781.21002197266</ele>
        <time>2023-09-30T09:27:15.000Z</time>
      </trkpt>
      <trkpt lat="41.63503" lon="20.45408">
        <ele>780.25</ele>
        <time>2023-09-30T09:27:14.000Z</time>
      </trkpt>
      <trkpt lat="41.635" lon="20.45374">
        <ele>778.32000732422</ele>
        <time>2023-09-30T09:27:12.000Z</time>
      </trkpt>
      <trkpt lat="41.63497" lon="20.45358">
        <ele>776.88000488281</ele>
        <time>2023-09-30T09:27:11.000Z</time>
      </trkpt>
      <trkpt lat="41.63493" lon="20.45344">
        <ele>775.91998291016</ele>
        <time>2023-09-30T09:27:10.000Z</time>
      </trkpt>
      <trkpt lat="41.63489" lon="20.45332">
        <ele>775.44000244141</ele>
        <time>2023-09-30T09:27:09.000Z</time>
      </trkpt>
      <trkpt lat="41.63483" lon="20.45324">
        <ele>774.47998046875</ele>
        <time>2023-09-30T09:27:08.000Z</time>
      </trkpt>
      <trkpt lat="41.63474" lon="20.45317">
        <ele>773.52001953125</ele>
        <time>2023-09-30T09:27:07.000Z</time>
      </trkpt>
      <trkpt lat="41.63464" lon="20.45314">
        <ele>772.08001708984</ele>
        <time>2023-09-30T09:27:06.000Z</time>
      </trkpt>
      <trkpt lat="41.63454" lon="20.45314">
        <ele>771.10998535156</ele>
        <time>2023-09-30T09:27:05.000Z</time>
      </trkpt>
      <trkpt lat="41.6344" lon="20.45317">
        <ele>769.19000244141</ele>
        <time>2023-09-30T09:27:04.000Z</time>
      </trkpt>
      <trkpt lat="41.63421" lon="20.45319">
        <ele>766.78997802734</ele>
        <time>2023-09-30T09:27:03.000Z</time>
      </trkpt>
      <trkpt lat="41.63409" lon="20.45319">
        <ele>765.34997558594</ele>
        <time>2023-09-30T09:27:02.000Z</time>
      </trkpt>
      <trkpt lat="41.63393" lon="20.45321">
        <ele>762.94000244141</ele>
        <time>2023-09-30T09:27:01.000Z</time>
      </trkpt>
      <trkpt lat="41.63386" lon="20.45323">
        <ele>761.5</ele>
        <time>2023-09-30T09:27:00.000Z</time>
      </trkpt>
      <trkpt lat="41.63362" lon="20.45333">
        <ele>758.14001464844</ele>
        <time>2023-09-30T09:26:59.000Z</time>
      </trkpt>
      <trkpt lat="41.6335" lon="20.45338">
        <ele>757.17999267578</ele>
        <time>2023-09-30T09:26:58.000Z</time>
      </trkpt>
      <trkpt lat="41.63335" lon="20.45347">
        <ele>755.72998046875</ele>
        <time>2023-09-30T09:26:57.000Z</time>
      </trkpt>
      <trkpt lat="41.63323" lon="20.45357">
        <ele>754.77001953125</ele>
        <time>2023-09-30T09:26:56.000Z</time>
      </trkpt>
      <trkpt lat="41.63315" lon="20.4537">
        <ele>753.33001708984</ele>
        <time>2023-09-30T09:26:55.000Z</time>
      </trkpt>
      <trkpt lat="41.63309" lon="20.45386">
        <ele>752.36999511719</ele>
        <time>2023-09-30T09:26:54.000Z</time>
      </trkpt>
      <trkpt lat="41.63298" lon="20.45429">
        <ele>751.40997314453</ele>
        <time>2023-09-30T09:26:52.000Z</time>
      </trkpt>
      <trkpt lat="41.63291" lon="20.45447">
        <ele>751.40997314453</ele>
        <time>2023-09-30T09:26:51.000Z</time>
      </trkpt>
      <trkpt lat="41.63282" lon="20.4546">
        <ele>750.92999267578</ele>
        <time>2023-09-30T09:26:50.000Z</time>
      </trkpt>
      <trkpt lat="41.63272" lon="20.45472">
        <ele>749.48999023438</ele>
        <time>2023-09-30T09:26:49.000Z</time>
      </trkpt>
      <trkpt lat="41.63262" lon="20.45486">
        <ele>748.03997802734</ele>
        <time>2023-09-30T09:26:48.000Z</time>
      </trkpt>
      <trkpt lat="41.63254" lon="20.455">
        <ele>747.08001708984</ele>
        <time>2023-09-30T09:26:47.000Z</time>
      </trkpt>
      <trkpt lat="41.6325" lon="20.45506">
        <ele>746.59997558594</ele>
        <time>2023-09-30T09:26:46.000Z</time>
      </trkpt>
      <trkpt lat="41.63236" lon="20.45534">
        <ele>745.15997314453</ele>
        <time>2023-09-30T09:26:45.000Z</time>
      </trkpt>
      <trkpt lat="41.63228" lon="20.4555">
        <ele>745.15997314453</ele>
        <time>2023-09-30T09:26:44.000Z</time>
      </trkpt>
      <trkpt lat="41.63219" lon="20.4556">
        <ele>745.64001464844</ele>
        <time>2023-09-30T09:26:43.000Z</time>
      </trkpt>
      <trkpt lat="41.63208" lon="20.45565">
        <ele>746.11999511719</ele>
        <time>2023-09-30T09:26:42.000Z</time>
      </trkpt>
      <trkpt lat="41.63196" lon="20.45564">
        <ele>746.59997558594</ele>
        <time>2023-09-30T09:26:41.000Z</time>
      </trkpt>
      <trkpt lat="41.63183" lon="20.45561">
        <ele>746.11999511719</ele>
        <time>2023-09-30T09:26:40.000Z</time>
      </trkpt>
      <trkpt lat="41.63173" lon="20.45558">
        <ele>745.64001464844</ele>
        <time>2023-09-30T09:26:39.000Z</time>
      </trkpt>
      <trkpt lat="41.63162" lon="20.45558">
        <ele>744.67999267578</ele>
        <time>2023-09-30T09:26:38.000Z</time>
      </trkpt>
      <trkpt lat="41.63151" lon="20.45564">
        <ele>744.67999267578</ele>
        <time>2023-09-30T09:26:37.000Z</time>
      </trkpt>
      <trkpt lat="41.63142" lon="20.45574">
        <ele>743.71997070312</ele>
        <time>2023-09-30T09:26:36.000Z</time>
      </trkpt>
      <trkpt lat="41.63134" lon="20.45586">
        <ele>743.23999023438</ele>
        <time>2023-09-30T09:26:35.000Z</time>
      </trkpt>
      <trkpt lat="41.63128" lon="20.45599">
        <ele>742.76000976562</ele>
        <time>2023-09-30T09:26:34.000Z</time>
      </trkpt>
      <trkpt lat="41.63126" lon="20.45612">
        <ele>742.28002929688</ele>
        <time>2023-09-30T09:26:33.000Z</time>
      </trkpt>
      <trkpt lat="41.63124" lon="20.45635">
        <ele>741.78997802734</ele>
        <time>2023-09-30T09:26:32.000Z</time>
      </trkpt>
      <trkpt lat="41.63123" lon="20.45652">
        <ele>740.83001708984</ele>
        <time>2023-09-30T09:26:31.000Z</time>
      </trkpt>
      <trkpt lat="41.63118" lon="20.45667">
        <ele>739.86999511719</ele>
        <time>2023-09-30T09:26:30.000Z</time>
      </trkpt>
      <trkpt lat="41.63112" lon="20.45679">
        <ele>739.39001464844</ele>
        <time>2023-09-30T09:26:29.000Z</time>
      </trkpt>
      <trkpt lat="41.63104" lon="20.45686">
        <ele>738.90997314453</ele>
        <time>2023-09-30T09:26:28.000Z</time>
      </trkpt>
      <trkpt lat="41.63093" lon="20.45689">
        <ele>738.42999267578</ele>
        <time>2023-09-30T09:26:27.000Z</time>
      </trkpt>
      <trkpt lat="41.63081" lon="20.45686">
        <ele>736.98999023438</ele>
        <time>2023-09-30T09:26:26.000Z</time>
      </trkpt>
      <trkpt lat="41.63068" lon="20.4568">
        <ele>735.07000732422</ele>
        <time>2023-09-30T09:26:25.000Z</time>
      </trkpt>
      <trkpt lat="41.63057" lon="20.45673">
        <ele>734.09997558594</ele>
        <time>2023-09-30T09:26:24.000Z</time>
      </trkpt>
      <trkpt lat="41.63046" lon="20.45663">
        <ele>732.65997314453</ele>
        <time>2023-09-30T09:26:23.000Z</time>
      </trkpt>
      <trkpt lat="41.63038" lon="20.45658">
        <ele>731.70001220703</ele>
        <time>2023-09-30T09:26:22.000Z</time>
      </trkpt>
      <trkpt lat="41.63032" lon="20.45656">
        <ele>730.73999023438</ele>
        <time>2023-09-30T09:26:21.000Z</time>
      </trkpt>
      <trkpt lat="41.63026" lon="20.4566">
        <ele>729.78002929688</ele>
        <time>2023-09-30T09:26:20.000Z</time>
      </trkpt>
      <trkpt lat="41.63024" lon="20.45667">
        <ele>729.29998779297</ele>
        <time>2023-09-30T09:26:19.000Z</time>
      </trkpt>
      <trkpt lat="41.63025" lon="20.45679">
        <ele>729.78002929688</ele>
        <time>2023-09-30T09:26:18.000Z</time>
      </trkpt>
      <trkpt lat="41.63028" lon="20.45693">
        <ele>729.78002929688</ele>
        <time>2023-09-30T09:26:17.000Z</time>
      </trkpt>
      <trkpt lat="41.63033" lon="20.45706">
        <ele>729.29998779297</ele>
        <time>2023-09-30T09:26:16.000Z</time>
      </trkpt>
      <trkpt lat="41.63038" lon="20.45717">
        <ele>728.34002685547</ele>
        <time>2023-09-30T09:26:15.000Z</time>
      </trkpt>
      <trkpt lat="41.63047" lon="20.45734">
        <ele>726.40997314453</ele>
        <time>2023-09-30T09:26:14.000Z</time>
      </trkpt>
      <trkpt lat="41.63055" lon="20.45753">
        <ele>724.96997070312</ele>
        <time>2023-09-30T09:26:13.000Z</time>
      </trkpt>
      <trkpt lat="41.6306" lon="20.45769">
        <ele>724.01000976562</ele>
        <time>2023-09-30T09:26:12.000Z</time>
      </trkpt>
      <trkpt lat="41.63065" lon="20.45791">
        <ele>723.04998779297</ele>
        <time>2023-09-30T09:26:11.000Z</time>
      </trkpt>
      <trkpt lat="41.63071" lon="20.45813">
        <ele>721.60998535156</ele>
        <time>2023-09-30T09:26:10.000Z</time>
      </trkpt>
      <trkpt lat="41.63079" lon="20.45832">
        <ele>720.65002441406</ele>
        <time>2023-09-30T09:26:09.000Z</time>
      </trkpt>
      <trkpt lat="41.63086" lon="20.45847">
        <ele>720.65002441406</ele>
        <time>2023-09-30T09:26:08.000Z</time>
      </trkpt>
      <trkpt lat="41.63091" lon="20.45862">
        <ele>721.13000488281</ele>
        <time>2023-09-30T09:26:07.000Z</time>
      </trkpt>
      <trkpt lat="41.63092" lon="20.45875">
        <ele>721.60998535156</ele>
        <time>2023-09-30T09:26:06.000Z</time>
      </trkpt>
      <trkpt lat="41.63091" lon="20.45889">
        <ele>721.60998535156</ele>
        <time>2023-09-30T09:26:05.000Z</time>
      </trkpt>
      <trkpt lat="41.63087" lon="20.45905">
        <ele>722.09002685547</ele>
        <time>2023-09-30T09:26:04.000Z</time>
      </trkpt>
      <trkpt lat="41.63086" lon="20.45908">
        <ele>722.09002685547</ele>
        <time>2023-09-30T09:26:03.000Z</time>
      </trkpt>
      <trkpt lat="41.63071" lon="20.45948">
        <ele>723.53002929688</ele>
        <time>2023-09-30T09:26:01.000Z</time>
      </trkpt>
      <trkpt lat="41.63064" lon="20.45959">
        <ele>724.01000976562</ele>
        <time>2023-09-30T09:26:00.000Z</time>
      </trkpt>
      <trkpt lat="41.63055" lon="20.45967">
        <ele>724.96997070312</ele>
        <time>2023-09-30T09:25:59.000Z</time>
      </trkpt>
      <trkpt lat="41.6305" lon="20.45969">
        <ele>725.45001220703</ele>
        <time>2023-09-30T09:25:58.000Z</time>
      </trkpt>
      <trkpt lat="41.63033" lon="20.45979">
        <ele>727.36999511719</ele>
        <time>2023-09-30T09:25:57.000Z</time>
      </trkpt>
      <trkpt lat="41.63023" lon="20.45989">
        <ele>727.85998535156</ele>
        <time>2023-09-30T09:25:56.000Z</time>
      </trkpt>
      <trkpt lat="41.63014" lon="20.46">
        <ele>727.85998535156</ele>
        <time>2023-09-30T09:25:55.000Z</time>
      </trkpt>
      <trkpt lat="41.63002" lon="20.46013">
        <ele>727.85998535156</ele>
        <time>2023-09-30T09:25:54.000Z</time>
      </trkpt>
      <trkpt lat="41.62989" lon="20.46024">
        <ele>728.34002685547</ele>
        <time>2023-09-30T09:25:53.000Z</time>
      </trkpt>
      <trkpt lat="41.62977" lon="20.46032">
        <ele>728.34002685547</ele>
        <time>2023-09-30T09:25:52.000Z</time>
      </trkpt>
      <trkpt lat="41.62964" lon="20.46036">
        <ele>728.82000732422</ele>
        <time>2023-09-30T09:25:51.000Z</time>
      </trkpt>
      <trkpt lat="41.6295" lon="20.46037">
        <ele>729.29998779297</ele>
        <time>2023-09-30T09:25:50.000Z</time>
      </trkpt>
      <trkpt lat="41.62935" lon="20.46034">
        <ele>729.29998779297</ele>
        <time>2023-09-30T09:25:49.000Z</time>
      </trkpt>
      <trkpt lat="41.62919" lon="20.46027">
        <ele>728.82000732422</ele>
        <time>2023-09-30T09:25:48.000Z</time>
      </trkpt>
      <trkpt lat="41.62895" lon="20.46017">
        <ele>727.85998535156</ele>
        <time>2023-09-30T09:25:46.000Z</time>
      </trkpt>
      <trkpt lat="41.62886" lon="20.46013">
        <ele>726.89001464844</ele>
        <time>2023-09-30T09:25:45.000Z</time>
      </trkpt>
      <trkpt lat="41.62878" lon="20.46012">
        <ele>725.92999267578</ele>
        <time>2023-09-30T09:25:44.000Z</time>
      </trkpt>
      <trkpt lat="41.62872" lon="20.46015">
        <ele>724.48999023438</ele>
        <time>2023-09-30T09:25:43.000Z</time>
      </trkpt>
      <trkpt lat="41.62869" lon="20.46022">
        <ele>722.09002685547</ele>
        <time>2023-09-30T09:25:42.000Z</time>
      </trkpt>
      <trkpt lat="41.6287" lon="20.46032">
        <ele>720.15997314453</ele>
        <time>2023-09-30T09:25:41.000Z</time>
      </trkpt>
      <trkpt lat="41.62875" lon="20.46044">
        <ele>719.20001220703</ele>
        <time>2023-09-30T09:25:40.000Z</time>
      </trkpt>
      <trkpt lat="41.62884" lon="20.46059">
        <ele>717.76000976562</ele>
        <time>2023-09-30T09:25:39.000Z</time>
      </trkpt>
      <trkpt lat="41.62896" lon="20.46074">
        <ele>716.32000732422</ele>
        <time>2023-09-30T09:25:38.000Z</time>
      </trkpt>
      <trkpt lat="41.62908" lon="20.46088">
        <ele>714.88000488281</ele>
        <time>2023-09-30T09:25:37.000Z</time>
      </trkpt>
      <trkpt lat="41.62919" lon="20.46102">
        <ele>713.44000244141</ele>
        <time>2023-09-30T09:25:36.000Z</time>
      </trkpt>
      <trkpt lat="41.62926" lon="20.46116">
        <ele>712.46997070312</ele>
        <time>2023-09-30T09:25:35.000Z</time>
      </trkpt>
      <trkpt lat="41.62929" lon="20.46132">
        <ele>711.98999023438</ele>
        <time>2023-09-30T09:25:34.000Z</time>
      </trkpt>
      <trkpt lat="41.62929" lon="20.46149">
        <ele>711.51000976562</ele>
        <time>2023-09-30T09:25:33.000Z</time>
      </trkpt>
      <trkpt lat="41.62928" lon="20.4616">
        <ele>711.03002929688</ele>
        <time>2023-09-30T09:25:32.000Z</time>
      </trkpt>
      <trkpt lat="41.62924" lon="20.46174">
        <ele>710.07000732422</ele>
        <time>2023-09-30T09:25:31.000Z</time>
      </trkpt>
      <trkpt lat="41.62919" lon="20.46184">
        <ele>709.10998535156</ele>
        <time>2023-09-30T09:25:30.000Z</time>
      </trkpt>
      <trkpt lat="41.62911" lon="20.46191">
        <ele>708.63000488281</ele>
        <time>2023-09-30T09:25:29.000Z</time>
      </trkpt>
      <trkpt lat="41.62901" lon="20.46193">
        <ele>708.15002441406</ele>
        <time>2023-09-30T09:25:28.000Z</time>
      </trkpt>
      <trkpt lat="41.6289" lon="20.4619">
        <ele>707.66998291016</ele>
        <time>2023-09-30T09:25:27.000Z</time>
      </trkpt>
      <trkpt lat="41.6288" lon="20.46182">
        <ele>706.22998046875</ele>
        <time>2023-09-30T09:25:26.000Z</time>
      </trkpt>
      <trkpt lat="41.62872" lon="20.46173">
        <ele>705.26000976562</ele>
        <time>2023-09-30T09:25:25.000Z</time>
      </trkpt>
      <trkpt lat="41.62862" lon="20.46163">
        <ele>703.82000732422</ele>
        <time>2023-09-30T09:25:24.000Z</time>
      </trkpt>
      <trkpt lat="41.62853" lon="20.46159">
        <ele>702.38000488281</ele>
        <time>2023-09-30T09:25:23.000Z</time>
      </trkpt>
      <trkpt lat="41.62842" lon="20.46159">
        <ele>701.41998291016</ele>
        <time>2023-09-30T09:25:22.000Z</time>
      </trkpt>
      <trkpt lat="41.62829" lon="20.46163">
        <ele>699.97998046875</ele>
        <time>2023-09-30T09:25:21.000Z</time>
      </trkpt>
      <trkpt lat="41.62825" lon="20.46164">
        <ele>699.5</ele>
        <time>2023-09-30T09:25:20.000Z</time>
      </trkpt>
      <trkpt lat="41.6276" lon="20.46195">
        <ele>695.65002441406</ele>
        <time>2023-09-30T09:25:16.000Z</time>
      </trkpt>
      <trkpt lat="41.62749" lon="20.46199">
        <ele>695.16998291016</ele>
        <time>2023-09-30T09:25:15.000Z</time>
      </trkpt>
      <trkpt lat="41.62737" lon="20.46202">
        <ele>695.16998291016</ele>
        <time>2023-09-30T09:25:14.000Z</time>
      </trkpt>
      <trkpt lat="41.62726" lon="20.46201">
        <ele>695.16998291016</ele>
        <time>2023-09-30T09:25:13.000Z</time>
      </trkpt>
      <trkpt lat="41.62721" lon="20.462">
        <ele>695.16998291016</ele>
        <time>2023-09-30T09:25:12.000Z</time>
      </trkpt>
      <trkpt lat="41.62693" lon="20.46193">
        <ele>695.65002441406</ele>
        <time>2023-09-30T09:25:10.000Z</time>
      </trkpt>
      <trkpt lat="41.62676" lon="20.46189">
        <ele>695.16998291016</ele>
        <time>2023-09-30T09:25:09.000Z</time>
      </trkpt>
      <trkpt lat="41.62667" lon="20.46187">
        <ele>694.69000244141</ele>
        <time>2023-09-30T09:25:08.000Z</time>
      </trkpt>
      <trkpt lat="41.62655" lon="20.46183">
        <ele>694.21002197266</ele>
        <time>2023-09-30T09:25:07.000Z</time>
      </trkpt>
      <trkpt lat="41.62639" lon="20.46177">
        <ele>693.25</ele>
        <time>2023-09-30T09:25:06.000Z</time>
      </trkpt>
      <trkpt lat="41.62625" lon="20.46171">
        <ele>692.28997802734</ele>
        <time>2023-09-30T09:25:05.000Z</time>
      </trkpt>
      <trkpt lat="41.62616" lon="20.46164">
        <ele>691.80999755859</ele>
        <time>2023-09-30T09:25:04.000Z</time>
      </trkpt>
      <trkpt lat="41.62613" lon="20.46161">
        <ele>691.33001708984</ele>
        <time>2023-09-30T09:25:03.000Z</time>
      </trkpt>
      <trkpt lat="41.62584" lon="20.46133">
        <ele>688.44000244141</ele>
        <time>2023-09-30T09:25:01.000Z</time>
      </trkpt>
      <trkpt lat="41.62581" lon="20.4613">
        <ele>687.96002197266</ele>
        <time>2023-09-30T09:25:00.000Z</time>
      </trkpt>
      <trkpt lat="41.62528" lon="20.46081">
        <ele>681.71002197266</ele>
        <time>2023-09-30T09:24:56.000Z</time>
      </trkpt>
      <trkpt lat="41.62515" lon="20.46064">
        <ele>678.83001708984</ele>
        <time>2023-09-30T09:24:54.000Z</time>
      </trkpt>
      <trkpt lat="41.62512" lon="20.4606">
        <ele>678.34997558594</ele>
        <time>2023-09-30T09:24:53.000Z</time>
      </trkpt>
      <trkpt lat="41.62497" lon="20.46043">
        <ele>675.94000244141</ele>
        <time>2023-09-30T09:24:52.000Z</time>
      </trkpt>
      <trkpt lat="41.62489" lon="20.46032">
        <ele>674.97998046875</ele>
        <time>2023-09-30T09:24:51.000Z</time>
      </trkpt>
      <trkpt lat="41.62483" lon="20.46022">
        <ele>674.02001953125</ele>
        <time>2023-09-30T09:24:50.000Z</time>
      </trkpt>
      <trkpt lat="41.62478" lon="20.46012">
        <ele>673.53997802734</ele>
        <time>2023-09-30T09:24:49.000Z</time>
      </trkpt>
      <trkpt lat="41.62474" lon="20.46005">
        <ele>672.58001708984</ele>
        <time>2023-09-30T09:24:48.000Z</time>
      </trkpt>
      <trkpt lat="41.6247" lon="20.45998">
        <ele>671.61999511719</ele>
        <time>2023-09-30T09:24:47.000Z</time>
      </trkpt>
      <trkpt lat="41.62469" lon="20.45995">
        <ele>671.14001464844</ele>
        <time>2023-09-30T09:24:46.000Z</time>
      </trkpt>
      <trkpt lat="41.62466" lon="20.45986">
        <ele>670.17999267578</ele>
        <time>2023-09-30T09:24:44.000Z</time>
      </trkpt>
      <trkpt lat="41.62461" lon="20.45972">
        <ele>668.25</ele>
        <time>2023-09-30T09:24:41.000Z</time>
      </trkpt>
      <trkpt lat="41.62449" lon="20.45942">
        <ele>665.84997558594</ele>
        <time>2023-09-30T09:24:32.000Z</time>
      </trkpt>
      <trkpt lat="41.62429" lon="20.45923">
        <ele>663.45001220703</ele>
        <time>2023-09-30T09:24:24.000Z</time>
      </trkpt>
      <trkpt lat="41.62405" lon="20.4591">
        <ele>659.59997558594</ele>
        <time>2023-09-30T09:24:16.000Z</time>
      </trkpt>
      <trkpt lat="41.6238" lon="20.45899">
        <ele>657.20001220703</ele>
        <time>2023-09-30T09:24:07.000Z</time>
      </trkpt>
      <trkpt lat="41.62355" lon="20.459">
        <ele>656.23999023438</ele>
        <time>2023-09-30T09:23:58.000Z</time>
      </trkpt>
      <trkpt lat="41.62337" lon="20.45901">
        <ele>655.28002929688</ele>
        <time>2023-09-30T09:23:51.000Z</time>
      </trkpt>
      <trkpt lat="41.62334" lon="20.45902">
        <ele>655.28002929688</ele>
        <time>2023-09-30T09:23:50.000Z</time>
      </trkpt>
      <trkpt lat="41.62331" lon="20.45902">
        <ele>655.28002929688</ele>
        <time>2023-09-30T09:23:49.000Z</time>
      </trkpt>
      <trkpt lat="41.62267" lon="20.45909">
        <ele>653.34997558594</ele>
        <time>2023-09-30T09:23:43.000Z</time>
      </trkpt>
      <trkpt lat="41.62251" lon="20.45914">
        <ele>653.34997558594</ele>
        <time>2023-09-30T09:23:42.000Z</time>
      </trkpt>
      <trkpt lat="41.62236" lon="20.4592">
        <ele>652.86999511719</ele>
        <time>2023-09-30T09:23:41.000Z</time>
      </trkpt>
      <trkpt lat="41.62222" lon="20.45929">
        <ele>652.86999511719</ele>
        <time>2023-09-30T09:23:40.000Z</time>
      </trkpt>
      <trkpt lat="41.62216" lon="20.45933">
        <ele>652.39001464844</ele>
        <time>2023-09-30T09:23:39.000Z</time>
      </trkpt>
      <trkpt lat="41.62183" lon="20.45958">
        <ele>652.39001464844</ele>
        <time>2023-09-30T09:23:37.000Z</time>
      </trkpt>
      <trkpt lat="41.6217" lon="20.45965">
        <ele>651.90997314453</ele>
        <time>2023-09-30T09:23:36.000Z</time>
      </trkpt>
      <trkpt lat="41.62165" lon="20.45968">
        <ele>651.90997314453</ele>
        <time>2023-09-30T09:23:35.000Z</time>
      </trkpt>
      <trkpt lat="41.62128" lon="20.45981">
        <ele>649.98999023438</ele>
        <time>2023-09-30T09:23:33.000Z</time>
      </trkpt>
      <trkpt lat="41.62079" lon="20.46002">
        <ele>648.07000732422</ele>
        <time>2023-09-30T09:23:29.000Z</time>
      </trkpt>
      <trkpt lat="41.62059" lon="20.46013">
        <ele>647.09997558594</ele>
        <time>2023-09-30T09:23:28.000Z</time>
      </trkpt>
      <trkpt lat="41.62047" lon="20.46021">
        <ele>646.61999511719</ele>
        <time>2023-09-30T09:23:27.000Z</time>
      </trkpt>
      <trkpt lat="41.62042" lon="20.46026">
        <ele>646.14001464844</ele>
        <time>2023-09-30T09:23:26.000Z</time>
      </trkpt>
      <trkpt lat="41.61986" lon="20.46078">
        <ele>642.29998779297</ele>
        <time>2023-09-30T09:23:20.000Z</time>
      </trkpt>
      <trkpt lat="41.61955" lon="20.46111">
        <ele>640.38000488281</ele>
        <time>2023-09-30T09:23:17.000Z</time>
      </trkpt>
      <trkpt lat="41.61947" lon="20.46119">
        <ele>639.89001464844</ele>
        <time>2023-09-30T09:23:16.000Z</time>
      </trkpt>
      <trkpt lat="41.61937" lon="20.46128">
        <ele>638.92999267578</ele>
        <time>2023-09-30T09:23:15.000Z</time>
      </trkpt>
      <trkpt lat="41.61929" lon="20.46138">
        <ele>638.45001220703</ele>
        <time>2023-09-30T09:23:14.000Z</time>
      </trkpt>
      <trkpt lat="41.61916" lon="20.46159">
        <ele>636.53002929688</ele>
        <time>2023-09-30T09:23:12.000Z</time>
      </trkpt>
      <trkpt lat="41.61908" lon="20.46171">
        <ele>635.09002685547</ele>
        <time>2023-09-30T09:23:11.000Z</time>
      </trkpt>
      <trkpt lat="41.619" lon="20.46183">
        <ele>634.13000488281</ele>
        <time>2023-09-30T09:23:10.000Z</time>
      </trkpt>
      <trkpt lat="41.61886" lon="20.46211">
        <ele>632.67999267578</ele>
        <time>2023-09-30T09:23:08.000Z</time>
      </trkpt>
      <trkpt lat="41.6188" lon="20.46222">
        <ele>632.20001220703</ele>
        <time>2023-09-30T09:23:07.000Z</time>
      </trkpt>
      <trkpt lat="41.6187" lon="20.46236">
        <ele>631.71997070312</ele>
        <time>2023-09-30T09:23:06.000Z</time>
      </trkpt>
      <trkpt lat="41.61821" lon="20.46295">
        <ele>629.79998779297</ele>
        <time>2023-09-30T09:22:59.000Z</time>
      </trkpt>
      <trkpt lat="41.61814" lon="20.46303">
        <ele>629.32000732422</ele>
        <time>2023-09-30T09:22:58.000Z</time>
      </trkpt>
      <trkpt lat="41.61811" lon="20.46306">
        <ele>629.32000732422</ele>
        <time>2023-09-30T09:22:57.000Z</time>
      </trkpt>
      <trkpt lat="41.61802" lon="20.46319">
        <ele>627.88000488281</ele>
        <time>2023-09-30T09:22:56.000Z</time>
      </trkpt>
      <trkpt lat="41.61798" lon="20.46327">
        <ele>626.91998291016</ele>
        <time>2023-09-30T09:22:55.000Z</time>
      </trkpt>
      <trkpt lat="41.61795" lon="20.46336">
        <ele>625.96002197266</ele>
        <time>2023-09-30T09:22:54.000Z</time>
      </trkpt>
      <trkpt lat="41.61792" lon="20.46348">
        <ele>624.98999023438</ele>
        <time>2023-09-30T09:22:53.000Z</time>
      </trkpt>
      <trkpt lat="41.61792" lon="20.46361">
        <ele>624.03002929688</ele>
        <time>2023-09-30T09:22:52.000Z</time>
      </trkpt>
      <trkpt lat="41.61794" lon="20.46372">
        <ele>624.03002929688</ele>
        <time>2023-09-30T09:22:51.000Z</time>
      </trkpt>
      <trkpt lat="41.61801" lon="20.46397">
        <ele>624.03002929688</ele>
        <time>2023-09-30T09:22:49.000Z</time>
      </trkpt>
      <trkpt lat="41.61802" lon="20.46408">
        <ele>624.03002929688</ele>
        <time>2023-09-30T09:22:48.000Z</time>
      </trkpt>
      <trkpt lat="41.61802" lon="20.46418">
        <ele>624.51000976562</ele>
        <time>2023-09-30T09:22:47.000Z</time>
      </trkpt>
      <trkpt lat="41.618" lon="20.46427">
        <ele>624.51000976562</ele>
        <time>2023-09-30T09:22:46.000Z</time>
      </trkpt>
      <trkpt lat="41.61795" lon="20.46433">
        <ele>624.98999023438</ele>
        <time>2023-09-30T09:22:45.000Z</time>
      </trkpt>
      <trkpt lat="41.6179" lon="20.46436">
        <ele>625.46997070312</ele>
        <time>2023-09-30T09:22:44.000Z</time>
      </trkpt>
      <trkpt lat="41.61784" lon="20.46438">
        <ele>624.98999023438</ele>
        <time>2023-09-30T09:22:43.000Z</time>
      </trkpt>
      <trkpt lat="41.61777" lon="20.46436">
        <ele>625.46997070312</ele>
        <time>2023-09-30T09:22:42.000Z</time>
      </trkpt>
      <trkpt lat="41.61769" lon="20.46431">
        <ele>625.96002197266</ele>
        <time>2023-09-30T09:22:41.000Z</time>
      </trkpt>
      <trkpt lat="41.61767" lon="20.4643">
        <ele>626.44000244141</ele>
        <time>2023-09-30T09:22:40.000Z</time>
      </trkpt>
      <trkpt lat="41.61692" lon="20.46378">
        <ele>629.79998779297</ele>
        <time>2023-09-30T09:22:33.000Z</time>
      </trkpt>
      <trkpt lat="41.61685" lon="20.46369">
        <ele>629.79998779297</ele>
        <time>2023-09-30T09:22:32.000Z</time>
      </trkpt>
      <trkpt lat="41.61678" lon="20.46359">
        <ele>629.32000732422</ele>
        <time>2023-09-30T09:22:31.000Z</time>
      </trkpt>
      <trkpt lat="41.61669" lon="20.46349">
        <ele>628.84002685547</ele>
        <time>2023-09-30T09:22:30.000Z</time>
      </trkpt>
      <trkpt lat="41.6166" lon="20.46342">
        <ele>627.40002441406</ele>
        <time>2023-09-30T09:22:29.000Z</time>
      </trkpt>
      <trkpt lat="41.61649" lon="20.46338">
        <ele>626.91998291016</ele>
        <time>2023-09-30T09:22:28.000Z</time>
      </trkpt>
      <trkpt lat="41.61637" lon="20.46335">
        <ele>625.96002197266</ele>
        <time>2023-09-30T09:22:27.000Z</time>
      </trkpt>
      <trkpt lat="41.61625" lon="20.46335">
        <ele>624.51000976562</ele>
        <time>2023-09-30T09:22:26.000Z</time>
      </trkpt>
      <trkpt lat="41.61614" lon="20.46338">
        <ele>623.54998779297</ele>
        <time>2023-09-30T09:22:25.000Z</time>
      </trkpt>
      <trkpt lat="41.61605" lon="20.46343">
        <ele>622.59002685547</ele>
        <time>2023-09-30T09:22:24.000Z</time>
      </trkpt>
      <trkpt lat="41.61595" lon="20.46351">
        <ele>621.63000488281</ele>
        <time>2023-09-30T09:22:23.000Z</time>
      </trkpt>
      <trkpt lat="41.61588" lon="20.4636">
        <ele>620.19000244141</ele>
        <time>2023-09-30T09:22:22.000Z</time>
      </trkpt>
      <trkpt lat="41.61584" lon="20.46373">
        <ele>619.22998046875</ele>
        <time>2023-09-30T09:22:21.000Z</time>
      </trkpt>
      <trkpt lat="41.61583" lon="20.46388">
        <ele>618.26000976562</ele>
        <time>2023-09-30T09:22:20.000Z</time>
      </trkpt>
      <trkpt lat="41.61584" lon="20.46403">
        <ele>617.78002929688</ele>
        <time>2023-09-30T09:22:19.000Z</time>
      </trkpt>
      <trkpt lat="41.61585" lon="20.46424">
        <ele>617.29998779297</ele>
        <time>2023-09-30T09:22:18.000Z</time>
      </trkpt>
      <trkpt lat="41.61584" lon="20.46441">
        <ele>616.82000732422</ele>
        <time>2023-09-30T09:22:17.000Z</time>
      </trkpt>
      <trkpt lat="41.61581" lon="20.46457">
        <ele>617.29998779297</ele>
        <time>2023-09-30T09:22:16.000Z</time>
      </trkpt>
      <trkpt lat="41.61576" lon="20.46474">
        <ele>617.29998779297</ele>
        <time>2023-09-30T09:22:15.000Z</time>
      </trkpt>
      <trkpt lat="41.61569" lon="20.46492">
        <ele>617.78002929688</ele>
        <time>2023-09-30T09:22:14.000Z</time>
      </trkpt>
      <trkpt lat="41.61552" lon="20.46527">
        <ele>618.26000976562</ele>
        <time>2023-09-30T09:22:12.000Z</time>
      </trkpt>
      <trkpt lat="41.61547" lon="20.46539">
        <ele>617.78002929688</ele>
        <time>2023-09-30T09:22:11.000Z</time>
      </trkpt>
      <trkpt lat="41.61519" lon="20.4661">
        <ele>613.46002197266</ele>
        <time>2023-09-30T09:22:08.000Z</time>
      </trkpt>
      <trkpt lat="41.61487" lon="20.46676">
        <ele>611.05999755859</ele>
        <time>2023-09-30T09:22:05.000Z</time>
      </trkpt>
      <trkpt lat="41.61406" lon="20.46824">
        <ele>608.16998291016</ele>
        <time>2023-09-30T09:22:00.000Z</time>
      </trkpt>
      <trkpt lat="41.61392" lon="20.46845">
        <ele>607.69000244141</ele>
        <time>2023-09-30T09:21:59.000Z</time>
      </trkpt>
      <trkpt lat="41.61375" lon="20.46862">
        <ele>607.21002197266</ele>
        <time>2023-09-30T09:21:58.000Z</time>
      </trkpt>
      <trkpt lat="41.61362" lon="20.46872">
        <ele>606.72998046875</ele>
        <time>2023-09-30T09:21:57.000Z</time>
      </trkpt>
      <trkpt lat="41.61319" lon="20.46898">
        <ele>606.25</ele>
        <time>2023-09-30T09:21:55.000Z</time>
      </trkpt>
      <trkpt lat="41.61299" lon="20.46905">
        <ele>605.28997802734</ele>
        <time>2023-09-30T09:21:54.000Z</time>
      </trkpt>
      <trkpt lat="41.61278" lon="20.46907">
        <ele>605.28997802734</ele>
        <time>2023-09-30T09:21:53.000Z</time>
      </trkpt>
      <trkpt lat="41.61257" lon="20.46904">
        <ele>604.80999755859</ele>
        <time>2023-09-30T09:21:52.000Z</time>
      </trkpt>
      <trkpt lat="41.61223" lon="20.46895">
        <ele>604.33001708984</ele>
        <time>2023-09-30T09:21:50.000Z</time>
      </trkpt>
      <trkpt lat="41.6119" lon="20.46885">
        <ele>603.84997558594</ele>
        <time>2023-09-30T09:21:49.000Z</time>
      </trkpt>
      <trkpt lat="41.61168" lon="20.4688">
        <ele>604.33001708984</ele>
        <time>2023-09-30T09:21:48.000Z</time>
      </trkpt>
      <trkpt lat="41.61146" lon="20.46878">
        <ele>603.84997558594</ele>
        <time>2023-09-30T09:21:47.000Z</time>
      </trkpt>
      <trkpt lat="41.61125" lon="20.4688">
        <ele>603.84997558594</ele>
        <time>2023-09-30T09:21:46.000Z</time>
      </trkpt>
      <trkpt lat="41.61113" lon="20.46883">
        <ele>603.84997558594</ele>
        <time>2023-09-30T09:21:45.000Z</time>
      </trkpt>
      <trkpt lat="41.61022" lon="20.46912">
        <ele>605.28997802734</ele>
        <time>2023-09-30T09:21:41.000Z</time>
      </trkpt>
      <trkpt lat="41.61011" lon="20.46917">
        <ele>605.77001953125</ele>
        <time>2023-09-30T09:21:40.000Z</time>
      </trkpt>
      <trkpt lat="41.60998" lon="20.46924">
        <ele>606.25</ele>
        <time>2023-09-30T09:21:39.000Z</time>
      </trkpt>
      <trkpt lat="41.60992" lon="20.46928">
        <ele>606.25</ele>
        <time>2023-09-30T09:21:38.000Z</time>
      </trkpt>
      <trkpt lat="41.60974" lon="20.4694">
        <ele>607.21002197266</ele>
        <time>2023-09-30T09:21:37.000Z</time>
      </trkpt>
      <trkpt lat="41.60962" lon="20.46949">
        <ele>607.69000244141</ele>
        <time>2023-09-30T09:21:36.000Z</time>
      </trkpt>
      <trkpt lat="41.60951" lon="20.46958">
        <ele>608.16998291016</ele>
        <time>2023-09-30T09:21:35.000Z</time>
      </trkpt>
      <trkpt lat="41.60913" lon="20.46997">
        <ele>610.09002685547</ele>
        <time>2023-09-30T09:21:31.000Z</time>
      </trkpt>
      <trkpt lat="41.60806" lon="20.47096">
        <ele>614.41998291016</ele>
        <time>2023-09-30T09:21:23.000Z</time>
      </trkpt>
      <trkpt lat="41.60703" lon="20.47184">
        <ele>612.5</ele>
        <time>2023-09-30T09:21:16.000Z</time>
      </trkpt>
      <trkpt lat="41.60609" lon="20.47263">
        <ele>605.28997802734</ele>
        <time>2023-09-30T09:21:10.000Z</time>
      </trkpt>
      <trkpt lat="41.60593" lon="20.47275">
        <ele>604.33001708984</ele>
        <time>2023-09-30T09:21:09.000Z</time>
      </trkpt>
      <trkpt lat="41.60578" lon="20.47282">
        <ele>602.88000488281</ele>
        <time>2023-09-30T09:21:08.000Z</time>
      </trkpt>
      <trkpt lat="41.60563" lon="20.47285">
        <ele>601.91998291016</ele>
        <time>2023-09-30T09:21:07.000Z</time>
      </trkpt>
      <trkpt lat="41.60547" lon="20.47284">
        <ele>601.44000244141</ele>
        <time>2023-09-30T09:21:06.000Z</time>
      </trkpt>
      <trkpt lat="41.60532" lon="20.47279">
        <ele>600.96002197266</ele>
        <time>2023-09-30T09:21:05.000Z</time>
      </trkpt>
      <trkpt lat="41.60518" lon="20.47271">
        <ele>600.96002197266</ele>
        <time>2023-09-30T09:21:04.000Z</time>
      </trkpt>
      <trkpt lat="41.60515" lon="20.47269">
        <ele>600.96002197266</ele>
        <time>2023-09-30T09:21:03.000Z</time>
      </trkpt>
      <trkpt lat="41.60462" lon="20.47226">
        <ele>600.47998046875</ele>
        <time>2023-09-30T09:21:00.000Z</time>
      </trkpt>
      <trkpt lat="41.60447" lon="20.47218">
        <ele>600.47998046875</ele>
        <time>2023-09-30T09:20:59.000Z</time>
      </trkpt>
      <trkpt lat="41.60431" lon="20.47214">
        <ele>600.96002197266</ele>
        <time>2023-09-30T09:20:58.000Z</time>
      </trkpt>
      <trkpt lat="41.60413" lon="20.47214">
        <ele>600.96002197266</ele>
        <time>2023-09-30T09:20:57.000Z</time>
      </trkpt>
      <trkpt lat="41.6039" lon="20.47219">
        <ele>600.96002197266</ele>
        <time>2023-09-30T09:20:56.000Z</time>
      </trkpt>
      <trkpt lat="41.60375" lon="20.47224">
        <ele>600.47998046875</ele>
        <time>2023-09-30T09:20:55.000Z</time>
      </trkpt>
      <trkpt lat="41.60347" lon="20.47236">
        <ele>600.47998046875</ele>
        <time>2023-09-30T09:20:54.000Z</time>
      </trkpt>
      <trkpt lat="41.60291" lon="20.4727">
        <ele>600.47998046875</ele>
        <time>2023-09-30T09:20:51.000Z</time>
      </trkpt>
      <trkpt lat="41.60273" lon="20.47283">
        <ele>600</ele>
        <time>2023-09-30T09:20:50.000Z</time>
      </trkpt>
      <trkpt lat="41.60152" lon="20.47383">
        <ele>598.55999755859</ele>
        <time>2023-09-30T09:20:44.000Z</time>
      </trkpt>
      <trkpt lat="41.60066" lon="20.47446">
        <ele>596.15002441406</ele>
        <time>2023-09-30T09:20:39.000Z</time>
      </trkpt>
      <trkpt lat="41.59895" lon="20.47553">
        <ele>588.95001220703</ele>
        <time>2023-09-30T09:20:31.000Z</time>
      </trkpt>
      <trkpt lat="41.59879" lon="20.47565">
        <ele>587.97998046875</ele>
        <time>2023-09-30T09:20:30.000Z</time>
      </trkpt>
      <trkpt lat="41.59869" lon="20.47574">
        <ele>587.5</ele>
        <time>2023-09-30T09:20:29.000Z</time>
      </trkpt>
      <trkpt lat="41.59777" lon="20.47681">
        <ele>583.17999267578</ele>
        <time>2023-09-30T09:20:23.000Z</time>
      </trkpt>
      <trkpt lat="41.59773" lon="20.47686">
        <ele>583.17999267578</ele>
        <time>2023-09-30T09:20:22.000Z</time>
      </trkpt>
      <trkpt lat="41.59762" lon="20.47704">
        <ele>582.21997070312</ele>
        <time>2023-09-30T09:20:21.000Z</time>
      </trkpt>
      <trkpt lat="41.59702" lon="20.47839">
        <ele>578.36999511719</ele>
        <time>2023-09-30T09:20:15.000Z</time>
      </trkpt>
      <trkpt lat="41.59693" lon="20.47858">
        <ele>577.89001464844</ele>
        <time>2023-09-30T09:20:14.000Z</time>
      </trkpt>
      <trkpt lat="41.59682" lon="20.47874">
        <ele>576.92999267578</ele>
        <time>2023-09-30T09:20:13.000Z</time>
      </trkpt>
      <trkpt lat="41.5967" lon="20.47887">
        <ele>576.45001220703</ele>
        <time>2023-09-30T09:20:12.000Z</time>
      </trkpt>
      <trkpt lat="41.59657" lon="20.47896">
        <ele>576.45001220703</ele>
        <time>2023-09-30T09:20:11.000Z</time>
      </trkpt>
      <trkpt lat="41.59642" lon="20.47904">
        <ele>576.45001220703</ele>
        <time>2023-09-30T09:20:10.000Z</time>
      </trkpt>
      <trkpt lat="41.5963" lon="20.47909">
        <ele>575.96997070312</ele>
        <time>2023-09-30T09:20:09.000Z</time>
      </trkpt>
      <trkpt lat="41.59614" lon="20.47913">
        <ele>575.96997070312</ele>
        <time>2023-09-30T09:20:08.000Z</time>
      </trkpt>
      <trkpt lat="41.59611" lon="20.47913">
        <ele>575.96997070312</ele>
        <time>2023-09-30T09:20:07.000Z</time>
      </trkpt>
      <trkpt lat="41.59577" lon="20.47917">
        <ele>576.45001220703</ele>
        <time>2023-09-30T09:20:05.000Z</time>
      </trkpt>
      <trkpt lat="41.59416" lon="20.47934">
        <ele>582.70001220703</ele>
        <time>2023-09-30T09:19:57.000Z</time>
      </trkpt>
      <trkpt lat="41.59398" lon="20.47932">
        <ele>583.65997314453</ele>
        <time>2023-09-30T09:19:56.000Z</time>
      </trkpt>
      <trkpt lat="41.59392" lon="20.4793">
        <ele>584.14001464844</ele>
        <time>2023-09-30T09:19:55.000Z</time>
      </trkpt>
      <trkpt lat="41.59308" lon="20.47894">
        <ele>588.46002197266</ele>
        <time>2023-09-30T09:19:50.000Z</time>
      </trkpt>
      <trkpt lat="41.59285" lon="20.47887">
        <ele>589.90997314453</ele>
        <time>2023-09-30T09:19:49.000Z</time>
      </trkpt>
      <trkpt lat="41.5914" lon="20.47857">
        <ele>598.55999755859</ele>
        <time>2023-09-30T09:19:41.000Z</time>
      </trkpt>
      <trkpt lat="41.59112" lon="20.47853">
        <ele>600</ele>
        <time>2023-09-30T09:19:40.000Z</time>
      </trkpt>
      <trkpt lat="41.59099" lon="20.47852">
        <ele>600.47998046875</ele>
        <time>2023-09-30T09:19:39.000Z</time>
      </trkpt>
      <trkpt lat="41.59087" lon="20.47852">
        <ele>600.96002197266</ele>
        <time>2023-09-30T09:19:38.000Z</time>
      </trkpt>
      <trkpt lat="41.59072" lon="20.47853">
        <ele>601.44000244141</ele>
        <time>2023-09-30T09:19:37.000Z</time>
      </trkpt>
      <trkpt lat="41.58995" lon="20.47866">
        <ele>602.88000488281</ele>
        <time>2023-09-30T09:19:32.000Z</time>
      </trkpt>
      <trkpt lat="41.58897" lon="20.47886">
        <ele>602.88000488281</ele>
        <time>2023-09-30T09:19:25.000Z</time>
      </trkpt>
      <trkpt lat="41.58887" lon="20.47888">
        <ele>602.88000488281</ele>
        <time>2023-09-30T09:19:24.000Z</time>
      </trkpt>
      <trkpt lat="41.58802" lon="20.47899">
        <ele>601.91998291016</ele>
        <time>2023-09-30T09:19:18.000Z</time>
      </trkpt>
      <trkpt lat="41.58793" lon="20.47901">
        <ele>601.91998291016</ele>
        <time>2023-09-30T09:19:17.000Z</time>
      </trkpt>
      <trkpt lat="41.58785" lon="20.47904">
        <ele>601.91998291016</ele>
        <time>2023-09-30T09:19:16.000Z</time>
      </trkpt>
      <trkpt lat="41.58781" lon="20.47905">
        <ele>601.91998291016</ele>
        <time>2023-09-30T09:19:15.000Z</time>
      </trkpt>
      <trkpt lat="41.58776" lon="20.47904">
        <ele>601.91998291016</ele>
        <time>2023-09-30T09:19:14.000Z</time>
      </trkpt>
      <trkpt lat="41.58773" lon="20.479">
        <ele>601.91998291016</ele>
        <time>2023-09-30T09:19:13.000Z</time>
      </trkpt>
      <trkpt lat="41.58772" lon="20.47895">
        <ele>601.91998291016</ele>
        <time>2023-09-30T09:19:12.000Z</time>
      </trkpt>
      <trkpt lat="41.58772" lon="20.47891">
        <ele>601.91998291016</ele>
        <time>2023-09-30T09:19:11.000Z</time>
      </trkpt>
      <trkpt lat="41.58774" lon="20.47878">
        <ele>601.91998291016</ele>
        <time>2023-09-30T09:19:10.000Z</time>
      </trkpt>
      <trkpt lat="41.58774" lon="20.4787">
        <ele>601.44000244141</ele>
        <time>2023-09-30T09:19:09.000Z</time>
      </trkpt>
      <trkpt lat="41.58772" lon="20.47857">
        <ele>600.96002197266</ele>
        <time>2023-09-30T09:19:08.000Z</time>
      </trkpt>
      <trkpt lat="41.5877" lon="20.47842">
        <ele>600.47998046875</ele>
        <time>2023-09-30T09:19:06.000Z</time>
      </trkpt>
      <trkpt lat="41.58747" lon="20.47722">
        <ele>596.64001464844</ele>
        <time>2023-09-30T09:19:00.000Z</time>
      </trkpt>
      <trkpt lat="41.58722" lon="20.47605">
        <ele>593.27001953125</ele>
        <time>2023-09-30T09:18:55.000Z</time>
      </trkpt>
      <trkpt lat="41.58686" lon="20.47416">
        <ele>587.5</ele>
        <time>2023-09-30T09:18:45.000Z</time>
      </trkpt>
      <trkpt lat="41.58677" lon="20.47367">
        <ele>586.53997802734</ele>
        <time>2023-09-30T09:18:43.000Z</time>
      </trkpt>
      <trkpt lat="41.58664" lon="20.47309">
        <ele>584.61999511719</ele>
        <time>2023-09-30T09:18:40.000Z</time>
      </trkpt>
      <trkpt lat="41.5862" lon="20.47189">
        <ele>579.80999755859</ele>
        <time>2023-09-30T09:18:34.000Z</time>
      </trkpt>
      <trkpt lat="41.58582" lon="20.47093">
        <ele>576.92999267578</ele>
        <time>2023-09-30T09:18:29.000Z</time>
      </trkpt>
      <trkpt lat="41.58576" lon="20.47077">
        <ele>576.45001220703</ele>
        <time>2023-09-30T09:18:27.000Z</time>
      </trkpt>
      <trkpt lat="41.58558" lon="20.47024">
        <ele>575.96997070312</ele>
        <time>2023-09-30T09:18:24.000Z</time>
      </trkpt>
      <trkpt lat="41.58552" lon="20.47001">
        <ele>575.48999023438</ele>
        <time>2023-09-30T09:18:23.000Z</time>
      </trkpt>
      <trkpt lat="41.58549" lon="20.46983">
        <ele>575.48999023438</ele>
        <time>2023-09-30T09:18:22.000Z</time>
      </trkpt>
      <trkpt lat="41.58542" lon="20.46931">
        <ele>574.03997802734</ele>
        <time>2023-09-30T09:18:19.000Z</time>
      </trkpt>
      <trkpt lat="41.58534" lon="20.46887">
        <ele>572.11999511719</ele>
        <time>2023-09-30T09:18:17.000Z</time>
      </trkpt>
      <trkpt lat="41.58529" lon="20.46861">
        <ele>571.15997314453</ele>
        <time>2023-09-30T09:18:16.000Z</time>
      </trkpt>
      <trkpt lat="41.58526" lon="20.46834">
        <ele>570.20001220703</ele>
        <time>2023-09-30T09:18:15.000Z</time>
      </trkpt>
      <trkpt lat="41.58527" lon="20.46816">
        <ele>570.67999267578</ele>
        <time>2023-09-30T09:18:14.000Z</time>
      </trkpt>
      <trkpt lat="41.58529" lon="20.46797">
        <ele>570.67999267578</ele>
        <time>2023-09-30T09:18:13.000Z</time>
      </trkpt>
      <trkpt lat="41.58532" lon="20.46784">
        <ele>570.67999267578</ele>
        <time>2023-09-30T09:18:12.000Z</time>
      </trkpt>
      <trkpt lat="41.58535" lon="20.46766">
        <ele>570.67999267578</ele>
        <time>2023-09-30T09:18:11.000Z</time>
      </trkpt>
      <trkpt lat="41.58536" lon="20.46747">
        <ele>570.67999267578</ele>
        <time>2023-09-30T09:18:10.000Z</time>
      </trkpt>
      <trkpt lat="41.58535" lon="20.46732">
        <ele>570.20001220703</ele>
        <time>2023-09-30T09:18:09.000Z</time>
      </trkpt>
      <trkpt lat="41.58534" lon="20.46725">
        <ele>570.20001220703</ele>
        <time>2023-09-30T09:18:08.000Z</time>
      </trkpt>
      <trkpt lat="41.58531" lon="20.46705">
        <ele>569.71997070312</ele>
        <time>2023-09-30T09:18:07.000Z</time>
      </trkpt>
      <trkpt lat="41.58524" lon="20.46676">
        <ele>568.28002929688</ele>
        <time>2023-09-30T09:18:05.000Z</time>
      </trkpt>
      <trkpt lat="41.58507" lon="20.46606">
        <ele>565.39001464844</ele>
        <time>2023-09-30T09:18:02.000Z</time>
      </trkpt>
      <trkpt lat="41.58497" lon="20.46566">
        <ele>563.46997070312</ele>
        <time>2023-09-30T09:18:00.000Z</time>
      </trkpt>
      <trkpt lat="41.58496" lon="20.46562">
        <ele>563.46997070312</ele>
        <time>2023-09-30T09:17:59.000Z</time>
      </trkpt>
      <trkpt lat="41.58489" lon="20.4654">
        <ele>562.51000976562</ele>
        <time>2023-09-30T09:17:58.000Z</time>
      </trkpt>
      <trkpt lat="41.58433" lon="20.4639">
        <ele>557.21997070312</ele>
        <time>2023-09-30T09:17:51.000Z</time>
      </trkpt>
      <trkpt lat="41.58404" lon="20.46301">
        <ele>553.85998535156</ele>
        <time>2023-09-30T09:17:47.000Z</time>
      </trkpt>
      <trkpt lat="41.58401" lon="20.46291">
        <ele>553.85998535156</ele>
        <time>2023-09-30T09:17:46.000Z</time>
      </trkpt>
      <trkpt lat="41.58356" lon="20.46126">
        <ele>547.13000488281</ele>
        <time>2023-09-30T09:17:38.000Z</time>
      </trkpt>
      <trkpt lat="41.5835" lon="20.4611">
        <ele>546.16998291016</ele>
        <time>2023-09-30T09:17:37.000Z</time>
      </trkpt>
      <trkpt lat="41.58344" lon="20.46097">
        <ele>545.69000244141</ele>
        <time>2023-09-30T09:17:36.000Z</time>
      </trkpt>
      <trkpt lat="41.58317" lon="20.4605">
        <ele>542.79998779297</ele>
        <time>2023-09-30T09:17:33.000Z</time>
      </trkpt>
      <trkpt lat="41.5831" lon="20.46035">
        <ele>542.32000732422</ele>
        <time>2023-09-30T09:17:32.000Z</time>
      </trkpt>
      <trkpt lat="41.58305" lon="20.46019">
        <ele>542.32000732422</ele>
        <time>2023-09-30T09:17:31.000Z</time>
      </trkpt>
      <trkpt lat="41.58302" lon="20.46002">
        <ele>541.84002685547</ele>
        <time>2023-09-30T09:17:30.000Z</time>
      </trkpt>
      <trkpt lat="41.58301" lon="20.45986">
        <ele>541.84002685547</ele>
        <time>2023-09-30T09:17:29.000Z</time>
      </trkpt>
      <trkpt lat="41.583" lon="20.45966">
        <ele>541.35998535156</ele>
        <time>2023-09-30T09:17:28.000Z</time>
      </trkpt>
      <trkpt lat="41.58298" lon="20.45948">
        <ele>540.88000488281</ele>
        <time>2023-09-30T09:17:27.000Z</time>
      </trkpt>
      <trkpt lat="41.58293" lon="20.45925">
        <ele>540.40002441406</ele>
        <time>2023-09-30T09:17:26.000Z</time>
      </trkpt>
      <trkpt lat="41.58289" lon="20.45912">
        <ele>539.91998291016</ele>
        <time>2023-09-30T09:17:25.000Z</time>
      </trkpt>
      <trkpt lat="41.58273" lon="20.45871">
        <ele>538.47998046875</ele>
        <time>2023-09-30T09:17:23.000Z</time>
      </trkpt>
      <trkpt lat="41.58267" lon="20.45853">
        <ele>537.98999023438</ele>
        <time>2023-09-30T09:17:22.000Z</time>
      </trkpt>
      <trkpt lat="41.58263" lon="20.45839">
        <ele>537.98999023438</ele>
        <time>2023-09-30T09:17:21.000Z</time>
      </trkpt>
      <trkpt lat="41.58221" lon="20.45728">
        <ele>536.07000732422</ele>
        <time>2023-09-30T09:17:14.000Z</time>
      </trkpt>
      <trkpt lat="41.58198" lon="20.45658">
        <ele>537.51000976562</ele>
        <time>2023-09-30T09:17:11.000Z</time>
      </trkpt>
      <trkpt lat="41.58194" lon="20.4564">
        <ele>537.51000976562</ele>
        <time>2023-09-30T09:17:10.000Z</time>
      </trkpt>
      <trkpt lat="41.58178" lon="20.45552">
        <ele>537.03002929688</ele>
        <time>2023-09-30T09:17:05.000Z</time>
      </trkpt>
      <trkpt lat="41.58177" lon="20.45535">
        <ele>537.03002929688</ele>
        <time>2023-09-30T09:17:04.000Z</time>
      </trkpt>
      <trkpt lat="41.58177" lon="20.45523">
        <ele>537.51000976562</ele>
        <time>2023-09-30T09:17:03.000Z</time>
      </trkpt>
      <trkpt lat="41.58178" lon="20.45505">
        <ele>537.03002929688</ele>
        <time>2023-09-30T09:17:02.000Z</time>
      </trkpt>
      <trkpt lat="41.58179" lon="20.45494">
        <ele>537.03002929688</ele>
        <time>2023-09-30T09:17:01.000Z</time>
      </trkpt>
      <trkpt lat="41.58181" lon="20.45472">
        <ele>537.51000976562</ele>
        <time>2023-09-30T09:17:00.000Z</time>
      </trkpt>
      <trkpt lat="41.58182" lon="20.45457">
        <ele>537.51000976562</ele>
        <time>2023-09-30T09:16:59.000Z</time>
      </trkpt>
      <trkpt lat="41.58183" lon="20.45443">
        <ele>537.51000976562</ele>
        <time>2023-09-30T09:16:58.000Z</time>
      </trkpt>
      <trkpt lat="41.58185" lon="20.45423">
        <ele>537.51000976562</ele>
        <time>2023-09-30T09:16:57.000Z</time>
      </trkpt>
      <trkpt lat="41.58187" lon="20.45411">
        <ele>537.98999023438</ele>
        <time>2023-09-30T09:16:56.000Z</time>
      </trkpt>
      <trkpt lat="41.58188" lon="20.45398">
        <ele>537.98999023438</ele>
        <time>2023-09-30T09:16:55.000Z</time>
      </trkpt>
      <trkpt lat="41.58189" lon="20.45386">
        <ele>538.47998046875</ele>
        <time>2023-09-30T09:16:54.000Z</time>
      </trkpt>
      <trkpt lat="41.58194" lon="20.45331">
        <ele>538.96002197266</ele>
        <time>2023-09-30T09:16:51.000Z</time>
      </trkpt>
      <trkpt lat="41.58194" lon="20.45322">
        <ele>538.96002197266</ele>
        <time>2023-09-30T09:16:50.000Z</time>
      </trkpt>
      <trkpt lat="41.58194" lon="20.45309">
        <ele>539.44000244141</ele>
        <time>2023-09-30T09:16:49.000Z</time>
      </trkpt>
      <trkpt lat="41.58194" lon="20.45302">
        <ele>539.91998291016</ele>
        <time>2023-09-30T09:16:48.000Z</time>
      </trkpt>
      <trkpt lat="41.5819" lon="20.45211">
        <ele>543.28002929688</ele>
        <time>2023-09-30T09:16:43.000Z</time>
      </trkpt>
      <trkpt lat="41.58188" lon="20.45194">
        <ele>544.23999023438</ele>
        <time>2023-09-30T09:16:42.000Z</time>
      </trkpt>
      <trkpt lat="41.58185" lon="20.45179">
        <ele>545.20001220703</ele>
        <time>2023-09-30T09:16:41.000Z</time>
      </trkpt>
      <trkpt lat="41.58181" lon="20.45167">
        <ele>545.69000244141</ele>
        <time>2023-09-30T09:16:40.000Z</time>
      </trkpt>
      <trkpt lat="41.58175" lon="20.45155">
        <ele>546.65002441406</ele>
        <time>2023-09-30T09:16:39.000Z</time>
      </trkpt>
      <trkpt lat="41.58172" lon="20.45151">
        <ele>547.13000488281</ele>
        <time>2023-09-30T09:16:38.000Z</time>
      </trkpt>
      <trkpt lat="41.58161" lon="20.45133">
        <ele>549.04998779297</ele>
        <time>2023-09-30T09:16:37.000Z</time>
      </trkpt>
      <trkpt lat="41.58154" lon="20.45121">
        <ele>550.48999023438</ele>
        <time>2023-09-30T09:16:36.000Z</time>
      </trkpt>
      <trkpt lat="41.58149" lon="20.45106">
        <ele>551.92999267578</ele>
        <time>2023-09-30T09:16:35.000Z</time>
      </trkpt>
      <trkpt lat="41.58146" lon="20.4509">
        <ele>553.38000488281</ele>
        <time>2023-09-30T09:16:34.000Z</time>
      </trkpt>
      <trkpt lat="41.58139" lon="20.45">
        <ele>553.85998535156</ele>
        <time>2023-09-30T09:16:29.000Z</time>
      </trkpt>
      <trkpt lat="41.58137" lon="20.44975">
        <ele>552.90002441406</ele>
        <time>2023-09-30T09:16:28.000Z</time>
      </trkpt>
      <trkpt lat="41.58134" lon="20.44959">
        <ele>551.45001220703</ele>
        <time>2023-09-30T09:16:27.000Z</time>
      </trkpt>
      <trkpt lat="41.58127" lon="20.44944">
        <ele>550.01000976562</ele>
        <time>2023-09-30T09:16:26.000Z</time>
      </trkpt>
      <trkpt lat="41.58118" lon="20.4493">
        <ele>548.57000732422</ele>
        <time>2023-09-30T09:16:25.000Z</time>
      </trkpt>
      <trkpt lat="41.58109" lon="20.4492">
        <ele>547.60998535156</ele>
        <time>2023-09-30T09:16:24.000Z</time>
      </trkpt>
      <trkpt lat="41.58091" lon="20.44901">
        <ele>546.65002441406</ele>
        <time>2023-09-30T09:16:23.000Z</time>
      </trkpt>
      <trkpt lat="41.5808" lon="20.44887">
        <ele>545.69000244141</ele>
        <time>2023-09-30T09:16:22.000Z</time>
      </trkpt>
      <trkpt lat="41.58072" lon="20.44872">
        <ele>544.23999023438</ele>
        <time>2023-09-30T09:16:21.000Z</time>
      </trkpt>
      <trkpt lat="41.58068" lon="20.44861">
        <ele>543.28002929688</ele>
        <time>2023-09-30T09:16:20.000Z</time>
      </trkpt>
      <trkpt lat="41.5805" lon="20.44807">
        <ele>539.44000244141</ele>
        <time>2023-09-30T09:16:17.000Z</time>
      </trkpt>
      <trkpt lat="41.58044" lon="20.44793">
        <ele>538.47998046875</ele>
        <time>2023-09-30T09:16:16.000Z</time>
      </trkpt>
      <trkpt lat="41.58005" lon="20.44715">
        <ele>531.27001953125</ele>
        <time>2023-09-30T09:16:12.000Z</time>
      </trkpt>
      <trkpt lat="41.57995" lon="20.44701">
        <ele>529.82000732422</ele>
        <time>2023-09-30T09:16:11.000Z</time>
      </trkpt>
      <trkpt lat="41.57983" lon="20.44691">
        <ele>528.85998535156</ele>
        <time>2023-09-30T09:16:10.000Z</time>
      </trkpt>
      <trkpt lat="41.57978" lon="20.44689">
        <ele>528.38000488281</ele>
        <time>2023-09-30T09:16:09.000Z</time>
      </trkpt>
      <trkpt lat="41.57959" lon="20.44678">
        <ele>526.46002197266</ele>
        <time>2023-09-30T09:16:08.000Z</time>
      </trkpt>
      <trkpt lat="41.57949" lon="20.44668">
        <ele>525.5</ele>
        <time>2023-09-30T09:16:07.000Z</time>
      </trkpt>
      <trkpt lat="41.57943" lon="20.44654">
        <ele>524.53997802734</ele>
        <time>2023-09-30T09:16:06.000Z</time>
      </trkpt>
      <trkpt lat="41.57939" lon="20.44636">
        <ele>523.09002685547</ele>
        <time>2023-09-30T09:16:05.000Z</time>
      </trkpt>
      <trkpt lat="41.57938" lon="20.4463">
        <ele>523.09002685547</ele>
        <time>2023-09-30T09:16:04.000Z</time>
      </trkpt>
      <trkpt lat="41.57933" lon="20.44601">
        <ele>520.69000244141</ele>
        <time>2023-09-30T09:16:03.000Z</time>
      </trkpt>
      <trkpt lat="41.57903" lon="20.44435">
        <ele>512.03997802734</ele>
        <time>2023-09-30T09:15:58.000Z</time>
      </trkpt>
      <trkpt lat="41.579" lon="20.4441">
        <ele>510.60000610352</ele>
        <time>2023-09-30T09:15:57.000Z</time>
      </trkpt>
      <trkpt lat="41.57899" lon="20.44388">
        <ele>509.16000366211</ele>
        <time>2023-09-30T09:15:56.000Z</time>
      </trkpt>
      <trkpt lat="41.57899" lon="20.44383">
        <ele>508.67001342773</ele>
        <time>2023-09-30T09:15:55.000Z</time>
      </trkpt>
      <trkpt lat="41.57903" lon="20.44258">
        <ele>504.35000610352</ele>
        <time>2023-09-30T09:15:51.000Z</time>
      </trkpt>
      <trkpt lat="41.57905" lon="20.44045">
        <ele>496.66000366211</ele>
        <time>2023-09-30T09:15:43.000Z</time>
      </trkpt>
      <trkpt lat="41.57902" lon="20.43994">
        <ele>495.2200012207</ele>
        <time>2023-09-30T09:15:41.000Z</time>
      </trkpt>
      <trkpt lat="41.57887" lon="20.43835">
        <ele>486.07998657227</ele>
        <time>2023-09-30T09:15:35.000Z</time>
      </trkpt>
      <trkpt lat="41.57884" lon="20.43814">
        <ele>485.60000610352</ele>
        <time>2023-09-30T09:15:34.000Z</time>
      </trkpt>
      <trkpt lat="41.57881" lon="20.43797">
        <ele>484.64001464844</ele>
        <time>2023-09-30T09:15:33.000Z</time>
      </trkpt>
      <trkpt lat="41.57876" lon="20.43777">
        <ele>483.67999267578</ele>
        <time>2023-09-30T09:15:32.000Z</time>
      </trkpt>
      <trkpt lat="41.5787" lon="20.43759">
        <ele>482.7200012207</ele>
        <time>2023-09-30T09:15:31.000Z</time>
      </trkpt>
      <trkpt lat="41.57863" lon="20.43741">
        <ele>481.76000976562</ele>
        <time>2023-09-30T09:15:30.000Z</time>
      </trkpt>
      <trkpt lat="41.57861" lon="20.43727">
        <ele>480.79998779297</ele>
        <time>2023-09-30T09:15:29.000Z</time>
      </trkpt>
      <trkpt lat="41.57861" lon="20.43713">
        <ele>479.83999633789</ele>
        <time>2023-09-30T09:15:28.000Z</time>
      </trkpt>
      <trkpt lat="41.57866" lon="20.437">
        <ele>478.39001464844</ele>
        <time>2023-09-30T09:15:27.000Z</time>
      </trkpt>
      <trkpt lat="41.5787" lon="20.43691">
        <ele>477.42999267578</ele>
        <time>2023-09-30T09:15:26.000Z</time>
      </trkpt>
      <trkpt lat="41.57875" lon="20.43681">
        <ele>476.4700012207</ele>
        <time>2023-09-30T09:15:25.000Z</time>
      </trkpt>
      <trkpt lat="41.57883" lon="20.43668">
        <ele>475.51000976562</ele>
        <time>2023-09-30T09:15:24.000Z</time>
      </trkpt>
      <trkpt lat="41.57902" lon="20.4363">
        <ele>473.10998535156</ele>
        <time>2023-09-30T09:15:22.000Z</time>
      </trkpt>
      <trkpt lat="41.5791" lon="20.4362">
        <ele>472.14001464844</ele>
        <time>2023-09-30T09:15:21.000Z</time>
      </trkpt>
      <trkpt lat="41.5792" lon="20.43612">
        <ele>470.70001220703</ele>
        <time>2023-09-30T09:15:20.000Z</time>
      </trkpt>
      <trkpt lat="41.5793" lon="20.43606">
        <ele>469.26000976562</ele>
        <time>2023-09-30T09:15:19.000Z</time>
      </trkpt>
      <trkpt lat="41.57933" lon="20.43604">
        <ele>468.7799987793</ele>
        <time>2023-09-30T09:15:18.000Z</time>
      </trkpt>
      <trkpt lat="41.57953" lon="20.43596">
        <ele>466.85998535156</ele>
        <time>2023-09-30T09:15:17.000Z</time>
      </trkpt>
      <trkpt lat="41.57958" lon="20.43593">
        <ele>465.89999389648</ele>
        <time>2023-09-30T09:15:16.000Z</time>
      </trkpt>
      <trkpt lat="41.58032" lon="20.43541">
        <ele>456.2799987793</ele>
        <time>2023-09-30T09:15:11.000Z</time>
      </trkpt>
      <trkpt lat="41.58042" lon="20.4353">
        <ele>455.32000732422</ele>
        <time>2023-09-30T09:15:10.000Z</time>
      </trkpt>
      <trkpt lat="41.58051" lon="20.43519">
        <ele>454.35998535156</ele>
        <time>2023-09-30T09:15:09.000Z</time>
      </trkpt>
      <trkpt lat="41.58066" lon="20.43497">
        <ele>452.92001342773</ele>
        <time>2023-09-30T09:15:07.000Z</time>
      </trkpt>
      <trkpt lat="41.5807" lon="20.43489">
        <ele>452.92001342773</ele>
        <time>2023-09-30T09:15:06.000Z</time>
      </trkpt>
      <trkpt lat="41.58073" lon="20.4348">
        <ele>452.44000244141</ele>
        <time>2023-09-30T09:15:05.000Z</time>
      </trkpt>
      <trkpt lat="41.58074" lon="20.4347">
        <ele>452.44000244141</ele>
        <time>2023-09-30T09:15:04.000Z</time>
      </trkpt>
      <trkpt lat="41.58074" lon="20.43459">
        <ele>451.95999145508</ele>
        <time>2023-09-30T09:15:03.000Z</time>
      </trkpt>
      <trkpt lat="41.58072" lon="20.43448">
        <ele>451.95999145508</ele>
        <time>2023-09-30T09:15:02.000Z</time>
      </trkpt>
      <trkpt lat="41.58068" lon="20.43439">
        <ele>451.95999145508</ele>
        <time>2023-09-30T09:15:01.000Z</time>
      </trkpt>
      <trkpt lat="41.58061" lon="20.43422">
        <ele>452.44000244141</ele>
        <time>2023-09-30T09:14:59.000Z</time>
      </trkpt>
      <trkpt lat="41.58058" lon="20.43416">
        <ele>452.44000244141</ele>
        <time>2023-09-30T09:14:58.000Z</time>
      </trkpt>
      <trkpt lat="41.5805" lon="20.43392">
        <ele>452.92001342773</ele>
        <time>2023-09-30T09:14:56.000Z</time>
      </trkpt>
      <trkpt lat="41.58047" lon="20.43385">
        <ele>452.92001342773</ele>
        <time>2023-09-30T09:14:55.000Z</time>
      </trkpt>
      <trkpt lat="41.58041" lon="20.4338">
        <ele>452.44000244141</ele>
        <time>2023-09-30T09:14:54.000Z</time>
      </trkpt>
      <trkpt lat="41.58034" lon="20.43377">
        <ele>452.44000244141</ele>
        <time>2023-09-30T09:14:53.000Z</time>
      </trkpt>
      <trkpt lat="41.58025" lon="20.43379">
        <ele>452.92001342773</ele>
        <time>2023-09-30T09:14:52.000Z</time>
      </trkpt>
      <trkpt lat="41.58016" lon="20.43384">
        <ele>453.39999389648</ele>
        <time>2023-09-30T09:14:51.000Z</time>
      </trkpt>
      <trkpt lat="41.58006" lon="20.43393">
        <ele>453.88000488281</ele>
        <time>2023-09-30T09:14:50.000Z</time>
      </trkpt>
      <trkpt lat="41.58" lon="20.43399">
        <ele>454.35998535156</ele>
        <time>2023-09-30T09:14:49.000Z</time>
      </trkpt>
      <trkpt lat="41.57976" lon="20.43428">
        <ele>454.83999633789</ele>
        <time>2023-09-30T09:14:47.000Z</time>
      </trkpt>
      <trkpt lat="41.57965" lon="20.43438">
        <ele>454.83999633789</ele>
        <time>2023-09-30T09:14:46.000Z</time>
      </trkpt>
      <trkpt lat="41.57958" lon="20.43443">
        <ele>454.35998535156</ele>
        <time>2023-09-30T09:14:45.000Z</time>
      </trkpt>
      <trkpt lat="41.57866" lon="20.43492">
        <ele>452.44000244141</ele>
        <time>2023-09-30T09:14:39.000Z</time>
      </trkpt>
      <trkpt lat="41.57835" lon="20.43501">
        <ele>452.44000244141</ele>
        <time>2023-09-30T09:14:37.000Z</time>
      </trkpt>
      <trkpt lat="41.57818" lon="20.43504">
        <ele>452.44000244141</ele>
        <time>2023-09-30T09:14:36.000Z</time>
      </trkpt>
      <trkpt lat="41.57805" lon="20.43504">
        <ele>452.92001342773</ele>
        <time>2023-09-30T09:14:35.000Z</time>
      </trkpt>
      <trkpt lat="41.57795" lon="20.43503">
        <ele>453.39999389648</ele>
        <time>2023-09-30T09:14:34.000Z</time>
      </trkpt>
      <trkpt lat="41.57763" lon="20.43493">
        <ele>456.2799987793</ele>
        <time>2023-09-30T09:14:32.000Z</time>
      </trkpt>
      <trkpt lat="41.5775" lon="20.43486">
        <ele>457.7200012207</ele>
        <time>2023-09-30T09:14:31.000Z</time>
      </trkpt>
      <trkpt lat="41.57738" lon="20.43479">
        <ele>458.69000244141</ele>
        <time>2023-09-30T09:14:30.000Z</time>
      </trkpt>
      <trkpt lat="41.57727" lon="20.43471">
        <ele>460.13000488281</ele>
        <time>2023-09-30T09:14:29.000Z</time>
      </trkpt>
      <trkpt lat="41.57718" lon="20.43461">
        <ele>460.60998535156</ele>
        <time>2023-09-30T09:14:28.000Z</time>
      </trkpt>
      <trkpt lat="41.5771" lon="20.43449">
        <ele>461.57000732422</ele>
        <time>2023-09-30T09:14:27.000Z</time>
      </trkpt>
      <trkpt lat="41.57701" lon="20.43439">
        <ele>462.04998779297</ele>
        <time>2023-09-30T09:14:26.000Z</time>
      </trkpt>
      <trkpt lat="41.57691" lon="20.43431">
        <ele>463.01000976562</ele>
        <time>2023-09-30T09:14:25.000Z</time>
      </trkpt>
      <trkpt lat="41.57679" lon="20.43426">
        <ele>463.9700012207</ele>
        <time>2023-09-30T09:14:24.000Z</time>
      </trkpt>
      <trkpt lat="41.57669" lon="20.43424">
        <ele>464.45001220703</ele>
        <time>2023-09-30T09:14:23.000Z</time>
      </trkpt>
      <trkpt lat="41.5766" lon="20.43423">
        <ele>464.92999267578</ele>
        <time>2023-09-30T09:14:22.000Z</time>
      </trkpt>
      <trkpt lat="41.57563" lon="20.43414">
        <ele>468.29998779297</ele>
        <time>2023-09-30T09:14:16.000Z</time>
      </trkpt>
      <trkpt lat="41.57552" lon="20.43411">
        <ele>468.7799987793</ele>
        <time>2023-09-30T09:14:15.000Z</time>
      </trkpt>
      <trkpt lat="41.57544" lon="20.43406">
        <ele>469.26000976562</ele>
        <time>2023-09-30T09:14:14.000Z</time>
      </trkpt>
      <trkpt lat="41.57526" lon="20.43396">
        <ele>469.73999023438</ele>
        <time>2023-09-30T09:14:12.000Z</time>
      </trkpt>
      <trkpt lat="41.57515" lon="20.4339">
        <ele>469.73999023438</ele>
        <time>2023-09-30T09:14:11.000Z</time>
      </trkpt>
      <trkpt lat="41.57504" lon="20.43386">
        <ele>469.73999023438</ele>
        <time>2023-09-30T09:14:10.000Z</time>
      </trkpt>
      <trkpt lat="41.57501" lon="20.43385">
        <ele>470.2200012207</ele>
        <time>2023-09-30T09:14:09.000Z</time>
      </trkpt>
      <trkpt lat="41.57489" lon="20.43383">
        <ele>470.2200012207</ele>
        <time>2023-09-30T09:14:08.000Z</time>
      </trkpt>
      <trkpt lat="41.57466" lon="20.43378">
        <ele>469.73999023438</ele>
        <time>2023-09-30T09:14:07.000Z</time>
      </trkpt>
      <trkpt lat="41.57459" lon="20.43374">
        <ele>469.26000976562</ele>
        <time>2023-09-30T09:14:06.000Z</time>
      </trkpt>
      <trkpt lat="41.57395" lon="20.43342">
        <ele>468.29998779297</ele>
        <time>2023-09-30T09:14:02.000Z</time>
      </trkpt>
      <trkpt lat="41.5738" lon="20.43333">
        <ele>468.29998779297</ele>
        <time>2023-09-30T09:14:01.000Z</time>
      </trkpt>
      <trkpt lat="41.57365" lon="20.43321">
        <ele>468.29998779297</ele>
        <time>2023-09-30T09:14:00.000Z</time>
      </trkpt>
      <trkpt lat="41.5735" lon="20.43306">
        <ele>467.82000732422</ele>
        <time>2023-09-30T09:13:58.000Z</time>
      </trkpt>
      <trkpt lat="41.57328" lon="20.43286">
        <ele>467.82000732422</ele>
        <time>2023-09-30T09:13:57.000Z</time>
      </trkpt>
      <trkpt lat="41.5731" lon="20.43272">
        <ele>467.82000732422</ele>
        <time>2023-09-30T09:13:56.000Z</time>
      </trkpt>
      <trkpt lat="41.57215" lon="20.43211">
        <ele>468.7799987793</ele>
        <time>2023-09-30T09:13:50.000Z</time>
      </trkpt>
      <trkpt lat="41.57201" lon="20.43203">
        <ele>468.7799987793</ele>
        <time>2023-09-30T09:13:49.000Z</time>
      </trkpt>
      <trkpt lat="41.57187" lon="20.43199">
        <ele>469.26000976562</ele>
        <time>2023-09-30T09:13:48.000Z</time>
      </trkpt>
      <trkpt lat="41.57174" lon="20.43199">
        <ele>469.73999023438</ele>
        <time>2023-09-30T09:13:47.000Z</time>
      </trkpt>
      <trkpt lat="41.57161" lon="20.43201">
        <ele>470.2200012207</ele>
        <time>2023-09-30T09:13:46.000Z</time>
      </trkpt>
      <trkpt lat="41.57144" lon="20.43202">
        <ele>470.70001220703</ele>
        <time>2023-09-30T09:13:45.000Z</time>
      </trkpt>
      <trkpt lat="41.57138" lon="20.43201">
        <ele>470.70001220703</ele>
        <time>2023-09-30T09:13:44.000Z</time>
      </trkpt>
      <trkpt lat="41.57116" lon="20.43198">
        <ele>471.66000366211</ele>
        <time>2023-09-30T09:13:43.000Z</time>
      </trkpt>
      <trkpt lat="41.57102" lon="20.43198">
        <ele>472.14001464844</ele>
        <time>2023-09-30T09:13:42.000Z</time>
      </trkpt>
      <trkpt lat="41.57088" lon="20.43202">
        <ele>472.63000488281</ele>
        <time>2023-09-30T09:13:41.000Z</time>
      </trkpt>
      <trkpt lat="41.57085" lon="20.43203">
        <ele>472.63000488281</ele>
        <time>2023-09-30T09:13:40.000Z</time>
      </trkpt>
      <trkpt lat="41.57043" lon="20.43221">
        <ele>474.07000732422</ele>
        <time>2023-09-30T09:13:38.000Z</time>
      </trkpt>
      <trkpt lat="41.57027" lon="20.43225">
        <ele>474.54998779297</ele>
        <time>2023-09-30T09:13:37.000Z</time>
      </trkpt>
      <trkpt lat="41.57014" lon="20.43227">
        <ele>475.0299987793</ele>
        <time>2023-09-30T09:13:36.000Z</time>
      </trkpt>
      <trkpt lat="41.56998" lon="20.43227">
        <ele>475.98999023438</ele>
        <time>2023-09-30T09:13:35.000Z</time>
      </trkpt>
      <trkpt lat="41.56986" lon="20.43225">
        <ele>475.98999023438</ele>
        <time>2023-09-30T09:13:34.000Z</time>
      </trkpt>
      <trkpt lat="41.56974" lon="20.43221">
        <ele>476.4700012207</ele>
        <time>2023-09-30T09:13:33.000Z</time>
      </trkpt>
      <trkpt lat="41.56964" lon="20.43215">
        <ele>476.4700012207</ele>
        <time>2023-09-30T09:13:32.000Z</time>
      </trkpt>
      <trkpt lat="41.5696" lon="20.43213">
        <ele>476.4700012207</ele>
        <time>2023-09-30T09:13:31.000Z</time>
      </trkpt>
      <trkpt lat="41.56894" lon="20.43158">
        <ele>477.91000366211</ele>
        <time>2023-09-30T09:13:25.000Z</time>
      </trkpt>
      <trkpt lat="41.56888" lon="20.43151">
        <ele>477.91000366211</ele>
        <time>2023-09-30T09:13:24.000Z</time>
      </trkpt>
      <trkpt lat="41.56877" lon="20.43139">
        <ele>478.39001464844</ele>
        <time>2023-09-30T09:13:23.000Z</time>
      </trkpt>
      <trkpt lat="41.56861" lon="20.43114">
        <ele>478.39001464844</ele>
        <time>2023-09-30T09:13:21.000Z</time>
      </trkpt>
      <trkpt lat="41.56858" lon="20.4311">
        <ele>478.39001464844</ele>
        <time>2023-09-30T09:13:20.000Z</time>
      </trkpt>
      <trkpt lat="41.56848" lon="20.43091">
        <ele>477.91000366211</ele>
        <time>2023-09-30T09:13:19.000Z</time>
      </trkpt>
      <trkpt lat="41.56843" lon="20.4308">
        <ele>477.91000366211</ele>
        <time>2023-09-30T09:13:18.000Z</time>
      </trkpt>
      <trkpt lat="41.56818" lon="20.43031">
        <ele>476.95001220703</ele>
        <time>2023-09-30T09:13:15.000Z</time>
      </trkpt>
      <trkpt lat="41.56814" lon="20.43022">
        <ele>476.95001220703</ele>
        <time>2023-09-30T09:13:14.000Z</time>
      </trkpt>
      <trkpt lat="41.56808" lon="20.43007">
        <ele>476.95001220703</ele>
        <time>2023-09-30T09:13:13.000Z</time>
      </trkpt>
      <trkpt lat="41.56805" lon="20.42999">
        <ele>476.95001220703</ele>
        <time>2023-09-30T09:13:12.000Z</time>
      </trkpt>
      <trkpt lat="41.56801" lon="20.42988">
        <ele>476.95001220703</ele>
        <time>2023-09-30T09:13:11.000Z</time>
      </trkpt>
      <trkpt lat="41.56797" lon="20.42979">
        <ele>476.95001220703</ele>
        <time>2023-09-30T09:13:10.000Z</time>
      </trkpt>
      <trkpt lat="41.56793" lon="20.42971">
        <ele>476.95001220703</ele>
        <time>2023-09-30T09:13:09.000Z</time>
      </trkpt>
      <trkpt lat="41.56789" lon="20.42963">
        <ele>476.95001220703</ele>
        <time>2023-09-30T09:13:08.000Z</time>
      </trkpt>
      <trkpt lat="41.56784" lon="20.42958">
        <ele>476.95001220703</ele>
        <time>2023-09-30T09:13:07.000Z</time>
      </trkpt>
      <trkpt lat="41.56779" lon="20.42955">
        <ele>476.4700012207</ele>
        <time>2023-09-30T09:13:06.000Z</time>
      </trkpt>
      <trkpt lat="41.56773" lon="20.42954">
        <ele>475.98999023438</ele>
        <time>2023-09-30T09:13:05.000Z</time>
      </trkpt>
      <trkpt lat="41.56768" lon="20.42956">
        <ele>475.98999023438</ele>
        <time>2023-09-30T09:13:04.000Z</time>
      </trkpt>
      <trkpt lat="41.56762" lon="20.4296">
        <ele>475.98999023438</ele>
        <time>2023-09-30T09:13:03.000Z</time>
      </trkpt>
      <trkpt lat="41.56758" lon="20.42969">
        <ele>475.98999023438</ele>
        <time>2023-09-30T09:13:02.000Z</time>
      </trkpt>
      <trkpt lat="41.56754" lon="20.42981">
        <ele>475.98999023438</ele>
        <time>2023-09-30T09:13:01.000Z</time>
      </trkpt>
      <trkpt lat="41.56751" lon="20.42995">
        <ele>476.4700012207</ele>
        <time>2023-09-30T09:13:00.000Z</time>
      </trkpt>
      <trkpt lat="41.56749" lon="20.43015">
        <ele>476.95001220703</ele>
        <time>2023-09-30T09:12:58.000Z</time>
      </trkpt>
      <trkpt lat="41.56744" lon="20.4304">
        <ele>477.42999267578</ele>
        <time>2023-09-30T09:12:57.000Z</time>
      </trkpt>
      <trkpt lat="41.5674" lon="20.43054">
        <ele>477.42999267578</ele>
        <time>2023-09-30T09:12:56.000Z</time>
      </trkpt>
      <trkpt lat="41.56734" lon="20.43067">
        <ele>477.42999267578</ele>
        <time>2023-09-30T09:12:55.000Z</time>
      </trkpt>
      <trkpt lat="41.56727" lon="20.43077">
        <ele>477.91000366211</ele>
        <time>2023-09-30T09:12:54.000Z</time>
      </trkpt>
      <trkpt lat="41.56718" lon="20.43083">
        <ele>478.39001464844</ele>
        <time>2023-09-30T09:12:53.000Z</time>
      </trkpt>
      <trkpt lat="41.56708" lon="20.43086">
        <ele>478.86999511719</ele>
        <time>2023-09-30T09:12:52.000Z</time>
      </trkpt>
      <trkpt lat="41.56701" lon="20.43086">
        <ele>479.35000610352</ele>
        <time>2023-09-30T09:12:51.000Z</time>
      </trkpt>
      <trkpt lat="41.56668" lon="20.43083">
        <ele>480.32000732422</ele>
        <time>2023-09-30T09:12:49.000Z</time>
      </trkpt>
      <trkpt lat="41.56658" lon="20.4308">
        <ele>480.32000732422</ele>
        <time>2023-09-30T09:12:48.000Z</time>
      </trkpt>
      <trkpt lat="41.56645" lon="20.43075">
        <ele>480.32000732422</ele>
        <time>2023-09-30T09:12:47.000Z</time>
      </trkpt>
      <trkpt lat="41.56633" lon="20.43069">
        <ele>480.79998779297</ele>
        <time>2023-09-30T09:12:46.000Z</time>
      </trkpt>
      <trkpt lat="41.56594" lon="20.43043">
        <ele>481.76000976562</ele>
        <time>2023-09-30T09:12:42.000Z</time>
      </trkpt>
      <trkpt lat="41.56576" lon="20.43032">
        <ele>481.76000976562</ele>
        <time>2023-09-30T09:12:40.000Z</time>
      </trkpt>
      <trkpt lat="41.56569" lon="20.43027">
        <ele>482.23999023438</ele>
        <time>2023-09-30T09:12:39.000Z</time>
      </trkpt>
      <trkpt lat="41.56563" lon="20.43023">
        <ele>482.23999023438</ele>
        <time>2023-09-30T09:12:38.000Z</time>
      </trkpt>
      <trkpt lat="41.56539" lon="20.43001">
        <ele>481.2799987793</ele>
        <time>2023-09-30T09:12:35.000Z</time>
      </trkpt>
      <trkpt lat="41.56536" lon="20.42998">
        <ele>481.2799987793</ele>
        <time>2023-09-30T09:12:34.000Z</time>
      </trkpt>
      <trkpt lat="41.56525" lon="20.42986">
        <ele>481.2799987793</ele>
        <time>2023-09-30T09:12:33.000Z</time>
      </trkpt>
      <trkpt lat="41.56522" lon="20.42982">
        <ele>481.2799987793</ele>
        <time>2023-09-30T09:12:32.000Z</time>
      </trkpt>
      <trkpt lat="41.56492" lon="20.42956">
        <ele>481.76000976562</ele>
        <time>2023-09-30T09:12:29.000Z</time>
      </trkpt>
      <trkpt lat="41.56457" lon="20.42927">
        <ele>481.2799987793</ele>
        <time>2023-09-30T09:12:26.000Z</time>
      </trkpt>
      <trkpt lat="41.56453" lon="20.42924">
        <ele>481.2799987793</ele>
        <time>2023-09-30T09:12:25.000Z</time>
      </trkpt>
      <trkpt lat="41.56433" lon="20.4291">
        <ele>481.2799987793</ele>
        <time>2023-09-30T09:12:24.000Z</time>
      </trkpt>
      <trkpt lat="41.56418" lon="20.42902">
        <ele>481.2799987793</ele>
        <time>2023-09-30T09:12:23.000Z</time>
      </trkpt>
      <trkpt lat="41.56407" lon="20.42898">
        <ele>481.2799987793</ele>
        <time>2023-09-30T09:12:22.000Z</time>
      </trkpt>
      <trkpt lat="41.56397" lon="20.42895">
        <ele>481.2799987793</ele>
        <time>2023-09-30T09:12:21.000Z</time>
      </trkpt>
      <trkpt lat="41.56349" lon="20.42885">
        <ele>481.76000976562</ele>
        <time>2023-09-30T09:12:18.000Z</time>
      </trkpt>
      <trkpt lat="41.56322" lon="20.42878">
        <ele>481.76000976562</ele>
        <time>2023-09-30T09:12:16.000Z</time>
      </trkpt>
      <trkpt lat="41.56215" lon="20.42852">
        <ele>480.32000732422</ele>
        <time>2023-09-30T09:12:08.000Z</time>
      </trkpt>
      <trkpt lat="41.56077" lon="20.42817">
        <ele>479.83999633789</ele>
        <time>2023-09-30T09:11:59.000Z</time>
      </trkpt>
      <trkpt lat="41.56" lon="20.42801">
        <ele>479.83999633789</ele>
        <time>2023-09-30T09:11:54.000Z</time>
      </trkpt>
      <trkpt lat="41.55983" lon="20.42796">
        <ele>479.83999633789</ele>
        <time>2023-09-30T09:11:53.000Z</time>
      </trkpt>
      <trkpt lat="41.55966" lon="20.42789">
        <ele>479.35000610352</ele>
        <time>2023-09-30T09:11:52.000Z</time>
      </trkpt>
      <trkpt lat="41.55955" lon="20.42784">
        <ele>479.35000610352</ele>
        <time>2023-09-30T09:11:51.000Z</time>
      </trkpt>
      <trkpt lat="41.55924" lon="20.42765">
        <ele>478.39001464844</ele>
        <time>2023-09-30T09:11:49.000Z</time>
      </trkpt>
      <trkpt lat="41.55909" lon="20.42757">
        <ele>477.91000366211</ele>
        <time>2023-09-30T09:11:48.000Z</time>
      </trkpt>
      <trkpt lat="41.55906" lon="20.42756">
        <ele>477.91000366211</ele>
        <time>2023-09-30T09:11:47.000Z</time>
      </trkpt>
      <trkpt lat="41.55808" lon="20.42727">
        <ele>474.07000732422</ele>
        <time>2023-09-30T09:11:41.000Z</time>
      </trkpt>
      <trkpt lat="41.55703" lon="20.42699">
        <ele>473.10998535156</ele>
        <time>2023-09-30T09:11:34.000Z</time>
      </trkpt>
      <trkpt lat="41.5562" lon="20.4268">
        <ele>472.14001464844</ele>
        <time>2023-09-30T09:11:29.000Z</time>
      </trkpt>
      <trkpt lat="41.55608" lon="20.42675">
        <ele>472.14001464844</ele>
        <time>2023-09-30T09:11:28.000Z</time>
      </trkpt>
      <trkpt lat="41.55599" lon="20.42669">
        <ele>471.66000366211</ele>
        <time>2023-09-30T09:11:27.000Z</time>
      </trkpt>
      <trkpt lat="41.55571" lon="20.42647">
        <ele>471.17999267578</ele>
        <time>2023-09-30T09:11:24.000Z</time>
      </trkpt>
      <trkpt lat="41.55484" lon="20.4257">
        <ele>469.26000976562</ele>
        <time>2023-09-30T09:11:17.000Z</time>
      </trkpt>
      <trkpt lat="41.55476" lon="20.42561">
        <ele>469.26000976562</ele>
        <time>2023-09-30T09:11:16.000Z</time>
      </trkpt>
      <trkpt lat="41.55469" lon="20.42549">
        <ele>469.26000976562</ele>
        <time>2023-09-30T09:11:15.000Z</time>
      </trkpt>
      <trkpt lat="41.55464" lon="20.42537">
        <ele>469.73999023438</ele>
        <time>2023-09-30T09:11:14.000Z</time>
      </trkpt>
      <trkpt lat="41.55462" lon="20.42532">
        <ele>469.73999023438</ele>
        <time>2023-09-30T09:11:13.000Z</time>
      </trkpt>
      <trkpt lat="41.55454" lon="20.42508">
        <ele>469.73999023438</ele>
        <time>2023-09-30T09:11:12.000Z</time>
      </trkpt>
      <trkpt lat="41.55449" lon="20.42495">
        <ele>469.73999023438</ele>
        <time>2023-09-30T09:11:11.000Z</time>
      </trkpt>
      <trkpt lat="41.55441" lon="20.4248">
        <ele>469.73999023438</ele>
        <time>2023-09-30T09:11:10.000Z</time>
      </trkpt>
      <trkpt lat="41.55435" lon="20.42469">
        <ele>469.73999023438</ele>
        <time>2023-09-30T09:11:09.000Z</time>
      </trkpt>
      <trkpt lat="41.55427" lon="20.42458">
        <ele>469.26000976562</ele>
        <time>2023-09-30T09:11:08.000Z</time>
      </trkpt>
      <trkpt lat="41.55419" lon="20.4245">
        <ele>469.26000976562</ele>
        <time>2023-09-30T09:11:07.000Z</time>
      </trkpt>
      <trkpt lat="41.5541" lon="20.42444">
        <ele>469.26000976562</ele>
        <time>2023-09-30T09:11:06.000Z</time>
      </trkpt>
      <trkpt lat="41.554" lon="20.42441">
        <ele>468.7799987793</ele>
        <time>2023-09-30T09:11:05.000Z</time>
      </trkpt>
      <trkpt lat="41.55392" lon="20.42439">
        <ele>468.7799987793</ele>
        <time>2023-09-30T09:11:04.000Z</time>
      </trkpt>
      <trkpt lat="41.55385" lon="20.42439">
        <ele>468.7799987793</ele>
        <time>2023-09-30T09:11:03.000Z</time>
      </trkpt>
      <trkpt lat="41.55365" lon="20.42438">
        <ele>468.29998779297</ele>
        <time>2023-09-30T09:11:01.000Z</time>
      </trkpt>
      <trkpt lat="41.5536" lon="20.42439">
        <ele>468.29998779297</ele>
        <time>2023-09-30T09:11:00.000Z</time>
      </trkpt>
      <trkpt lat="41.55355" lon="20.42441">
        <ele>468.29998779297</ele>
        <time>2023-09-30T09:10:59.000Z</time>
      </trkpt>
      <trkpt lat="41.5535" lon="20.42444">
        <ele>467.82000732422</ele>
        <time>2023-09-30T09:10:58.000Z</time>
      </trkpt>
      <trkpt lat="41.55346" lon="20.42448">
        <ele>467.82000732422</ele>
        <time>2023-09-30T09:10:57.000Z</time>
      </trkpt>
      <trkpt lat="41.55343" lon="20.4245">
        <ele>467.82000732422</ele>
        <time>2023-09-30T09:10:56.000Z</time>
      </trkpt>
      <trkpt lat="41.55341" lon="20.42453">
        <ele>468.29998779297</ele>
        <time>2023-09-30T09:10:55.000Z</time>
      </trkpt>
      <trkpt lat="41.55336" lon="20.42457">
        <ele>468.29998779297</ele>
        <time>2023-09-30T09:10:54.000Z</time>
      </trkpt>
      <trkpt lat="41.55332" lon="20.4246">
        <ele>468.7799987793</ele>
        <time>2023-09-30T09:10:53.000Z</time>
      </trkpt>
      <trkpt lat="41.55314" lon="20.42477">
        <ele>469.26000976562</ele>
        <time>2023-09-30T09:10:46.000Z</time>
      </trkpt>
      <trkpt lat="41.55296" lon="20.42499">
        <ele>469.73999023438</ele>
        <time>2023-09-30T09:10:37.000Z</time>
      </trkpt>
      <trkpt lat="41.55294" lon="20.42501">
        <ele>469.73999023438</ele>
        <time>2023-09-30T09:10:36.000Z</time>
      </trkpt>
      <trkpt lat="41.55283" lon="20.42512">
        <ele>469.73999023438</ele>
        <time>2023-09-30T09:10:34.000Z</time>
      </trkpt>
      <trkpt lat="41.5526" lon="20.42537">
        <ele>470.2200012207</ele>
        <time>2023-09-30T09:10:31.000Z</time>
      </trkpt>
      <trkpt lat="41.55249" lon="20.42551">
        <ele>470.70001220703</ele>
        <time>2023-09-30T09:10:30.000Z</time>
      </trkpt>
      <trkpt lat="41.55239" lon="20.42565">
        <ele>471.17999267578</ele>
        <time>2023-09-30T09:10:29.000Z</time>
      </trkpt>
      <trkpt lat="41.55232" lon="20.42577">
        <ele>471.17999267578</ele>
        <time>2023-09-30T09:10:28.000Z</time>
      </trkpt>
      <trkpt lat="41.55213" lon="20.42615">
        <ele>472.63000488281</ele>
        <time>2023-09-30T09:10:25.000Z</time>
      </trkpt>
      <trkpt lat="41.55198" lon="20.42648">
        <ele>473.58999633789</ele>
        <time>2023-09-30T09:10:24.000Z</time>
      </trkpt>
      <trkpt lat="41.55193" lon="20.42665">
        <ele>474.54998779297</ele>
        <time>2023-09-30T09:10:23.000Z</time>
      </trkpt>
      <trkpt lat="41.55191" lon="20.42672">
        <ele>475.0299987793</ele>
        <time>2023-09-30T09:10:22.000Z</time>
      </trkpt>
      <trkpt lat="41.55184" lon="20.42714">
        <ele>477.91000366211</ele>
        <time>2023-09-30T09:10:19.000Z</time>
      </trkpt>
      <trkpt lat="41.55183" lon="20.42728">
        <ele>478.86999511719</ele>
        <time>2023-09-30T09:10:18.000Z</time>
      </trkpt>
      <trkpt lat="41.55182" lon="20.42743">
        <ele>480.32000732422</ele>
        <time>2023-09-30T09:10:17.000Z</time>
      </trkpt>
      <trkpt lat="41.55183" lon="20.42753">
        <ele>480.79998779297</ele>
        <time>2023-09-30T09:10:16.000Z</time>
      </trkpt>
      <trkpt lat="41.55184" lon="20.42761">
        <ele>481.76000976562</ele>
        <time>2023-09-30T09:10:15.000Z</time>
      </trkpt>
      <trkpt lat="41.55186" lon="20.42768">
        <ele>482.23999023438</ele>
        <time>2023-09-30T09:10:14.000Z</time>
      </trkpt>
      <trkpt lat="41.55189" lon="20.42776">
        <ele>482.7200012207</ele>
        <time>2023-09-30T09:10:13.000Z</time>
      </trkpt>
      <trkpt lat="41.55193" lon="20.42786">
        <ele>483.67999267578</ele>
        <time>2023-09-30T09:10:12.000Z</time>
      </trkpt>
      <trkpt lat="41.55197" lon="20.42792">
        <ele>484.16000366211</ele>
        <time>2023-09-30T09:10:11.000Z</time>
      </trkpt>
      <trkpt lat="41.55202" lon="20.428">
        <ele>484.64001464844</ele>
        <time>2023-09-30T09:10:10.000Z</time>
      </trkpt>
      <trkpt lat="41.55205" lon="20.42808">
        <ele>485.60000610352</ele>
        <time>2023-09-30T09:10:09.000Z</time>
      </trkpt>
      <trkpt lat="41.55206" lon="20.42817">
        <ele>486.07998657227</ele>
        <time>2023-09-30T09:10:08.000Z</time>
      </trkpt>
      <trkpt lat="41.55204" lon="20.42826">
        <ele>486.55999755859</ele>
        <time>2023-09-30T09:10:07.000Z</time>
      </trkpt>
      <trkpt lat="41.55199" lon="20.42834">
        <ele>487.04998779297</ele>
        <time>2023-09-30T09:10:06.000Z</time>
      </trkpt>
      <trkpt lat="41.55192" lon="20.42837">
        <ele>487.5299987793</ele>
        <time>2023-09-30T09:10:05.000Z</time>
      </trkpt>
      <trkpt lat="41.55184" lon="20.42836">
        <ele>487.5299987793</ele>
        <time>2023-09-30T09:10:04.000Z</time>
      </trkpt>
      <trkpt lat="41.55178" lon="20.42834">
        <ele>488.01000976562</ele>
        <time>2023-09-30T09:10:03.000Z</time>
      </trkpt>
      <trkpt lat="41.55165" lon="20.42829">
        <ele>488.01000976562</ele>
        <time>2023-09-30T09:10:02.000Z</time>
      </trkpt>
      <trkpt lat="41.55154" lon="20.42823">
        <ele>488.01000976562</ele>
        <time>2023-09-30T09:10:01.000Z</time>
      </trkpt>
      <trkpt lat="41.55148" lon="20.4282">
        <ele>488.01000976562</ele>
        <time>2023-09-30T09:10:00.000Z</time>
      </trkpt>
      <trkpt lat="41.55129" lon="20.42812">
        <ele>488.01000976562</ele>
        <time>2023-09-30T09:09:59.000Z</time>
      </trkpt>
      <trkpt lat="41.55072" lon="20.42783">
        <ele>489.92999267578</ele>
        <time>2023-09-30T09:09:55.000Z</time>
      </trkpt>
      <trkpt lat="41.55018" lon="20.42759">
        <ele>490.89001464844</ele>
        <time>2023-09-30T09:09:52.000Z</time>
      </trkpt>
      <trkpt lat="41.55002" lon="20.42752">
        <ele>491.36999511719</ele>
        <time>2023-09-30T09:09:51.000Z</time>
      </trkpt>
      <trkpt lat="41.54997" lon="20.42749">
        <ele>491.36999511719</ele>
        <time>2023-09-30T09:09:50.000Z</time>
      </trkpt>
      <trkpt lat="41.54974" lon="20.42738">
        <ele>491.85000610352</ele>
        <time>2023-09-30T09:09:48.000Z</time>
      </trkpt>
      <trkpt lat="41.549" lon="20.42703">
        <ele>492.80999755859</ele>
        <time>2023-09-30T09:09:43.000Z</time>
      </trkpt>
      <trkpt lat="41.54785" lon="20.4265">
        <ele>494.26000976562</ele>
        <time>2023-09-30T09:09:36.000Z</time>
      </trkpt>
      <trkpt lat="41.54694" lon="20.42608">
        <ele>495.70001220703</ele>
        <time>2023-09-30T09:09:29.000Z</time>
      </trkpt>
      <trkpt lat="41.54583" lon="20.42551">
        <ele>497.14001464844</ele>
        <time>2023-09-30T09:09:21.000Z</time>
      </trkpt>
      <trkpt lat="41.54542" lon="20.4253">
        <ele>497.61999511719</ele>
        <time>2023-09-30T09:09:18.000Z</time>
      </trkpt>
      <trkpt lat="41.54421" lon="20.42471">
        <ele>500.5</ele>
        <time>2023-09-30T09:09:09.000Z</time>
      </trkpt>
      <trkpt lat="41.54339" lon="20.4243">
        <ele>502.42999267578</ele>
        <time>2023-09-30T09:09:03.000Z</time>
      </trkpt>
      <trkpt lat="41.54301" lon="20.42411">
        <ele>503.39001464844</ele>
        <time>2023-09-30T09:09:00.000Z</time>
      </trkpt>
      <trkpt lat="41.54276" lon="20.42399">
        <ele>503.86999511719</ele>
        <time>2023-09-30T09:08:57.000Z</time>
      </trkpt>
      <trkpt lat="41.54251" lon="20.42388">
        <ele>504.35000610352</ele>
        <time>2023-09-30T09:08:55.000Z</time>
      </trkpt>
      <trkpt lat="41.54228" lon="20.42376">
        <ele>504.82998657227</ele>
        <time>2023-09-30T09:08:53.000Z</time>
      </trkpt>
      <trkpt lat="41.54191" lon="20.42358">
        <ele>505.30999755859</ele>
        <time>2023-09-30T09:08:50.000Z</time>
      </trkpt>
      <trkpt lat="41.54162" lon="20.42343">
        <ele>505.79000854492</ele>
        <time>2023-09-30T09:08:48.000Z</time>
      </trkpt>
      <trkpt lat="41.54141" lon="20.42332">
        <ele>506.26998901367</ele>
        <time>2023-09-30T09:08:46.000Z</time>
      </trkpt>
      <trkpt lat="41.5413" lon="20.42326">
        <ele>506.26998901367</ele>
        <time>2023-09-30T09:08:45.000Z</time>
      </trkpt>
      <trkpt lat="41.5412" lon="20.42322">
        <ele>506.75</ele>
        <time>2023-09-30T09:08:44.000Z</time>
      </trkpt>
      <trkpt lat="41.5411" lon="20.42321">
        <ele>506.75</ele>
        <time>2023-09-30T09:08:43.000Z</time>
      </trkpt>
      <trkpt lat="41.541" lon="20.42321">
        <ele>506.75</ele>
        <time>2023-09-30T09:08:42.000Z</time>
      </trkpt>
      <trkpt lat="41.54075" lon="20.42325">
        <ele>505.79000854492</ele>
        <time>2023-09-30T09:08:39.000Z</time>
      </trkpt>
      <trkpt lat="41.54063" lon="20.42328">
        <ele>505.79000854492</ele>
        <time>2023-09-30T09:08:38.000Z</time>
      </trkpt>
      <trkpt lat="41.54053" lon="20.42331">
        <ele>505.30999755859</ele>
        <time>2023-09-30T09:08:37.000Z</time>
      </trkpt>
      <trkpt lat="41.5404" lon="20.42335">
        <ele>505.30999755859</ele>
        <time>2023-09-30T09:08:36.000Z</time>
      </trkpt>
      <trkpt lat="41.54032" lon="20.42336">
        <ele>505.30999755859</ele>
        <time>2023-09-30T09:08:35.000Z</time>
      </trkpt>
      <trkpt lat="41.54003" lon="20.4234">
        <ele>505.30999755859</ele>
        <time>2023-09-30T09:08:32.000Z</time>
      </trkpt>
      <trkpt lat="41.53984" lon="20.42343">
        <ele>505.30999755859</ele>
        <time>2023-09-30T09:08:31.000Z</time>
      </trkpt>
      <trkpt lat="41.53971" lon="20.42344">
        <ele>505.79000854492</ele>
        <time>2023-09-30T09:08:30.000Z</time>
      </trkpt>
      <trkpt lat="41.5396" lon="20.42345">
        <ele>505.79000854492</ele>
        <time>2023-09-30T09:08:29.000Z</time>
      </trkpt>
      <trkpt lat="41.53893" lon="20.42342">
        <ele>507.23001098633</ele>
        <time>2023-09-30T09:08:25.000Z</time>
      </trkpt>
      <trkpt lat="41.53757" lon="20.42336">
        <ele>508.19000244141</ele>
        <time>2023-09-30T09:08:17.000Z</time>
      </trkpt>
      <trkpt lat="41.53732" lon="20.42337">
        <ele>507.23001098633</ele>
        <time>2023-09-30T09:08:16.000Z</time>
      </trkpt>
      <trkpt lat="41.53619" lon="20.42356">
        <ele>504.82998657227</ele>
        <time>2023-09-30T09:08:10.000Z</time>
      </trkpt>
      <trkpt lat="41.53586" lon="20.42361">
        <ele>504.82998657227</ele>
        <time>2023-09-30T09:08:08.000Z</time>
      </trkpt>
      <trkpt lat="41.53473" lon="20.42379">
        <ele>505.30999755859</ele>
        <time>2023-09-30T09:08:00.000Z</time>
      </trkpt>
      <trkpt lat="41.53462" lon="20.4238">
        <ele>505.30999755859</ele>
        <time>2023-09-30T09:07:59.000Z</time>
      </trkpt>
      <trkpt lat="41.53448" lon="20.42381">
        <ele>505.30999755859</ele>
        <time>2023-09-30T09:07:58.000Z</time>
      </trkpt>
      <trkpt lat="41.53434" lon="20.4238">
        <ele>505.79000854492</ele>
        <time>2023-09-30T09:07:57.000Z</time>
      </trkpt>
      <trkpt lat="41.53424" lon="20.42379">
        <ele>505.79000854492</ele>
        <time>2023-09-30T09:07:56.000Z</time>
      </trkpt>
      <trkpt lat="41.53409" lon="20.42375">
        <ele>505.79000854492</ele>
        <time>2023-09-30T09:07:55.000Z</time>
      </trkpt>
      <trkpt lat="41.53404" lon="20.42374">
        <ele>505.79000854492</ele>
        <time>2023-09-30T09:07:54.000Z</time>
      </trkpt>
      <trkpt lat="41.53381" lon="20.42365">
        <ele>505.79000854492</ele>
        <time>2023-09-30T09:07:52.000Z</time>
      </trkpt>
      <trkpt lat="41.53363" lon="20.42357">
        <ele>505.79000854492</ele>
        <time>2023-09-30T09:07:51.000Z</time>
      </trkpt>
      <trkpt lat="41.53354" lon="20.42353">
        <ele>505.79000854492</ele>
        <time>2023-09-30T09:07:50.000Z</time>
      </trkpt>
      <trkpt lat="41.53341" lon="20.4235">
        <ele>505.79000854492</ele>
        <time>2023-09-30T09:07:49.000Z</time>
      </trkpt>
      <trkpt lat="41.5332" lon="20.42347">
        <ele>505.79000854492</ele>
        <time>2023-09-30T09:07:46.000Z</time>
      </trkpt>
      <trkpt lat="41.53309" lon="20.42345">
        <ele>505.79000854492</ele>
        <time>2023-09-30T09:07:45.000Z</time>
      </trkpt>
      <trkpt lat="41.53288" lon="20.42341">
        <ele>505.30999755859</ele>
        <time>2023-09-30T09:06:58.000Z</time>
      </trkpt>
      <trkpt lat="41.53281" lon="20.4234">
        <ele>505.79000854492</ele>
        <time>2023-09-30T09:06:57.000Z</time>
      </trkpt>
      <trkpt lat="41.53268" lon="20.42339">
        <ele>505.79000854492</ele>
        <time>2023-09-30T09:06:55.000Z</time>
      </trkpt>
      <trkpt lat="41.53261" lon="20.42339">
        <ele>505.79000854492</ele>
        <time>2023-09-30T09:06:54.000Z</time>
      </trkpt>
      <trkpt lat="41.53165" lon="20.42335">
        <ele>506.75</ele>
        <time>2023-09-30T09:06:46.000Z</time>
      </trkpt>
      <trkpt lat="41.53139" lon="20.42335">
        <ele>507.23001098633</ele>
        <time>2023-09-30T09:06:43.000Z</time>
      </trkpt>
      <trkpt lat="41.53124" lon="20.42334">
        <ele>507.23001098633</ele>
        <time>2023-09-30T09:06:42.000Z</time>
      </trkpt>
      <trkpt lat="41.53113" lon="20.42334">
        <ele>507.23001098633</ele>
        <time>2023-09-30T09:06:41.000Z</time>
      </trkpt>
      <trkpt lat="41.53108" lon="20.42334">
        <ele>507.23001098633</ele>
        <time>2023-09-30T09:06:40.000Z</time>
      </trkpt>
      <trkpt lat="41.53096" lon="20.42333">
        <ele>506.75</ele>
        <time>2023-09-30T09:06:39.000Z</time>
      </trkpt>
      <trkpt lat="41.53081" lon="20.42331">
        <ele>506.75</ele>
        <time>2023-09-30T09:06:37.000Z</time>
      </trkpt>
      <trkpt lat="41.53074" lon="20.42331">
        <ele>506.75</ele>
        <time>2023-09-30T09:06:36.000Z</time>
      </trkpt>
      <trkpt lat="41.53056" lon="20.42331">
        <ele>506.75</ele>
        <time>2023-09-30T09:06:34.000Z</time>
      </trkpt>
      <trkpt lat="41.53021" lon="20.42331">
        <ele>505.30999755859</ele>
        <time>2023-09-30T09:06:32.000Z</time>
      </trkpt>
      <trkpt lat="41.53014" lon="20.4233">
        <ele>504.82998657227</ele>
        <time>2023-09-30T09:06:31.000Z</time>
      </trkpt>
      <trkpt lat="41.52995" lon="20.42328">
        <ele>504.35000610352</ele>
        <time>2023-09-30T09:06:30.000Z</time>
      </trkpt>
      <trkpt lat="41.52985" lon="20.42328">
        <ele>503.86999511719</ele>
        <time>2023-09-30T09:06:29.000Z</time>
      </trkpt>
      <trkpt lat="41.52973" lon="20.4233">
        <ele>503.39001464844</ele>
        <time>2023-09-30T09:06:28.000Z</time>
      </trkpt>
      <trkpt lat="41.52962" lon="20.42333">
        <ele>503.39001464844</ele>
        <time>2023-09-30T09:06:27.000Z</time>
      </trkpt>
      <trkpt lat="41.52952" lon="20.42338">
        <ele>503.39001464844</ele>
        <time>2023-09-30T09:06:26.000Z</time>
      </trkpt>
      <trkpt lat="41.52935" lon="20.42349">
        <ele>504.82998657227</ele>
        <time>2023-09-30T09:06:25.000Z</time>
      </trkpt>
      <trkpt lat="41.52923" lon="20.42355">
        <ele>505.79000854492</ele>
        <time>2023-09-30T09:06:24.000Z</time>
      </trkpt>
      <trkpt lat="41.52919" lon="20.42357">
        <ele>505.79000854492</ele>
        <time>2023-09-30T09:06:23.000Z</time>
      </trkpt>
      <trkpt lat="41.52838" lon="20.42391">
        <ele>507.70999145508</ele>
        <time>2023-09-30T09:06:17.000Z</time>
      </trkpt>
      <trkpt lat="41.52821" lon="20.42397">
        <ele>508.19000244141</ele>
        <time>2023-09-30T09:06:16.000Z</time>
      </trkpt>
      <trkpt lat="41.52812" lon="20.42399">
        <ele>508.19000244141</ele>
        <time>2023-09-30T09:06:15.000Z</time>
      </trkpt>
      <trkpt lat="41.528" lon="20.42401">
        <ele>508.19000244141</ele>
        <time>2023-09-30T09:06:14.000Z</time>
      </trkpt>
      <trkpt lat="41.52793" lon="20.42402">
        <ele>508.19000244141</ele>
        <time>2023-09-30T09:06:13.000Z</time>
      </trkpt>
      <trkpt lat="41.52785" lon="20.42405">
        <ele>507.70999145508</ele>
        <time>2023-09-30T09:06:12.000Z</time>
      </trkpt>
      <trkpt lat="41.5278" lon="20.42407">
        <ele>507.70999145508</ele>
        <time>2023-09-30T09:06:11.000Z</time>
      </trkpt>
      <trkpt lat="41.52775" lon="20.4241">
        <ele>507.70999145508</ele>
        <time>2023-09-30T09:06:10.000Z</time>
      </trkpt>
      <trkpt lat="41.52769" lon="20.42412">
        <ele>507.23001098633</ele>
        <time>2023-09-30T09:06:09.000Z</time>
      </trkpt>
      <trkpt lat="41.52762" lon="20.42415">
        <ele>507.23001098633</ele>
        <time>2023-09-30T09:06:08.000Z</time>
      </trkpt>
      <trkpt lat="41.52759" lon="20.42416">
        <ele>507.23001098633</ele>
        <time>2023-09-30T09:06:07.000Z</time>
      </trkpt>
      <trkpt lat="41.52736" lon="20.42422">
        <ele>507.70999145508</ele>
        <time>2023-09-30T09:06:05.000Z</time>
      </trkpt>
      <trkpt lat="41.52729" lon="20.42424">
        <ele>507.70999145508</ele>
        <time>2023-09-30T09:06:04.000Z</time>
      </trkpt>
      <trkpt lat="41.52717" lon="20.42426">
        <ele>508.19000244141</ele>
        <time>2023-09-30T09:06:03.000Z</time>
      </trkpt>
      <trkpt lat="41.52709" lon="20.42426">
        <ele>508.67001342773</ele>
        <time>2023-09-30T09:06:02.000Z</time>
      </trkpt>
      <trkpt lat="41.527" lon="20.42425">
        <ele>509.16000366211</ele>
        <time>2023-09-30T09:06:01.000Z</time>
      </trkpt>
      <trkpt lat="41.52694" lon="20.42423">
        <ele>509.16000366211</ele>
        <time>2023-09-30T09:06:00.000Z</time>
      </trkpt>
      <trkpt lat="41.52663" lon="20.42415">
        <ele>510.60000610352</ele>
        <time>2023-09-30T09:05:57.000Z</time>
      </trkpt>
      <trkpt lat="41.52653" lon="20.42412">
        <ele>511.55999755859</ele>
        <time>2023-09-30T09:05:56.000Z</time>
      </trkpt>
      <trkpt lat="41.52644" lon="20.42408">
        <ele>512.52001953125</ele>
        <time>2023-09-30T09:05:55.000Z</time>
      </trkpt>
      <trkpt lat="41.52637" lon="20.42404">
        <ele>513.47998046875</ele>
        <time>2023-09-30T09:05:54.000Z</time>
      </trkpt>
      <trkpt lat="41.52628" lon="20.42397">
        <ele>514.44000244141</ele>
        <time>2023-09-30T09:05:53.000Z</time>
      </trkpt>
      <trkpt lat="41.52621" lon="20.42389">
        <ele>514.44000244141</ele>
        <time>2023-09-30T09:05:52.000Z</time>
      </trkpt>
      <trkpt lat="41.52616" lon="20.42382">
        <ele>514.91998291016</ele>
        <time>2023-09-30T09:05:51.000Z</time>
      </trkpt>
      <trkpt lat="41.52613" lon="20.42378">
        <ele>514.91998291016</ele>
        <time>2023-09-30T09:05:50.000Z</time>
      </trkpt>
      <trkpt lat="41.52592" lon="20.42351">
        <ele>512.52001953125</ele>
        <time>2023-09-30T09:05:48.000Z</time>
      </trkpt>
      <trkpt lat="41.52572" lon="20.42324">
        <ele>510.11999511719</ele>
        <time>2023-09-30T09:05:46.000Z</time>
      </trkpt>
      <trkpt lat="41.5257" lon="20.42322">
        <ele>510.11999511719</ele>
        <time>2023-09-30T09:05:45.000Z</time>
      </trkpt>
      <trkpt lat="41.52542" lon="20.42291">
        <ele>508.67001342773</ele>
        <time>2023-09-30T09:05:43.000Z</time>
      </trkpt>
      <trkpt lat="41.52535" lon="20.42284">
        <ele>508.67001342773</ele>
        <time>2023-09-30T09:05:42.000Z</time>
      </trkpt>
      <trkpt lat="41.52524" lon="20.42271">
        <ele>508.67001342773</ele>
        <time>2023-09-30T09:05:41.000Z</time>
      </trkpt>
      <trkpt lat="41.52516" lon="20.42262">
        <ele>508.67001342773</ele>
        <time>2023-09-30T09:05:40.000Z</time>
      </trkpt>
      <trkpt lat="41.52506" lon="20.42256">
        <ele>508.67001342773</ele>
        <time>2023-09-30T09:05:39.000Z</time>
      </trkpt>
      <trkpt lat="41.52497" lon="20.42254">
        <ele>509.16000366211</ele>
        <time>2023-09-30T09:05:38.000Z</time>
      </trkpt>
      <trkpt lat="41.5248" lon="20.42252">
        <ele>509.64001464844</ele>
        <time>2023-09-30T09:05:37.000Z</time>
      </trkpt>
      <trkpt lat="41.52471" lon="20.4225">
        <ele>509.64001464844</ele>
        <time>2023-09-30T09:05:36.000Z</time>
      </trkpt>
      <trkpt lat="41.52457" lon="20.42246">
        <ele>509.64001464844</ele>
        <time>2023-09-30T09:05:35.000Z</time>
      </trkpt>
      <trkpt lat="41.52414" lon="20.42229">
        <ele>509.16000366211</ele>
        <time>2023-09-30T09:05:32.000Z</time>
      </trkpt>
      <trkpt lat="41.52401" lon="20.42226">
        <ele>509.64001464844</ele>
        <time>2023-09-30T09:05:31.000Z</time>
      </trkpt>
      <trkpt lat="41.52389" lon="20.42226">
        <ele>509.16000366211</ele>
        <time>2023-09-30T09:05:30.000Z</time>
      </trkpt>
      <trkpt lat="41.52384" lon="20.42226">
        <ele>508.67001342773</ele>
        <time>2023-09-30T09:05:29.000Z</time>
      </trkpt>
      <trkpt lat="41.52353" lon="20.42234">
        <ele>506.75</ele>
        <time>2023-09-30T09:05:27.000Z</time>
      </trkpt>
      <trkpt lat="41.52287" lon="20.42261">
        <ele>500.5</ele>
        <time>2023-09-30T09:05:21.000Z</time>
      </trkpt>
      <trkpt lat="41.52258" lon="20.4228">
        <ele>497.14001464844</ele>
        <time>2023-09-30T09:05:18.000Z</time>
      </trkpt>
      <trkpt lat="41.52251" lon="20.42287">
        <ele>496.17999267578</ele>
        <time>2023-09-30T09:05:17.000Z</time>
      </trkpt>
      <trkpt lat="41.52245" lon="20.42294">
        <ele>495.70001220703</ele>
        <time>2023-09-30T09:05:16.000Z</time>
      </trkpt>
      <trkpt lat="41.52242" lon="20.423">
        <ele>495.2200012207</ele>
        <time>2023-09-30T09:05:15.000Z</time>
      </trkpt>
      <trkpt lat="41.52234" lon="20.42319">
        <ele>494.26000976562</ele>
        <time>2023-09-30T09:05:13.000Z</time>
      </trkpt>
      <trkpt lat="41.52231" lon="20.42324">
        <ele>494.26000976562</ele>
        <time>2023-09-30T09:05:12.000Z</time>
      </trkpt>
      <trkpt lat="41.52228" lon="20.42325">
        <ele>494.26000976562</ele>
        <time>2023-09-30T09:05:11.000Z</time>
      </trkpt>
      <trkpt lat="41.52216" lon="20.42321">
        <ele>493.76998901367</ele>
        <time>2023-09-30T09:04:54.000Z</time>
      </trkpt>
      <trkpt lat="41.52211" lon="20.42315">
        <ele>494.26000976562</ele>
        <time>2023-09-30T09:04:48.000Z</time>
      </trkpt>
      <trkpt lat="41.52209" lon="20.42308">
        <ele>494.26000976562</ele>
        <time>2023-09-30T09:04:47.000Z</time>
      </trkpt>
      <trkpt lat="41.52208" lon="20.42304">
        <ele>494.26000976562</ele>
        <time>2023-09-30T09:04:46.000Z</time>
      </trkpt>
      <trkpt lat="41.52205" lon="20.42295">
        <ele>494.73999023438</ele>
        <time>2023-09-30T09:04:45.000Z</time>
      </trkpt>
      <trkpt lat="41.52194" lon="20.42235">
        <ele>495.70001220703</ele>
        <time>2023-09-30T09:04:40.000Z</time>
      </trkpt>
      <trkpt lat="41.52172" lon="20.42083">
        <ele>493.76998901367</ele>
        <time>2023-09-30T09:04:32.000Z</time>
      </trkpt>
      <trkpt lat="41.5217" lon="20.42061">
        <ele>493.29000854492</ele>
        <time>2023-09-30T09:04:30.000Z</time>
      </trkpt>
      <trkpt lat="41.52156" lon="20.41937">
        <ele>492.80999755859</ele>
        <time>2023-09-30T09:04:22.000Z</time>
      </trkpt>
      <trkpt lat="41.52145" lon="20.41889">
        <ele>493.29000854492</ele>
        <time>2023-09-30T09:04:19.000Z</time>
      </trkpt>
      <trkpt lat="41.52135" lon="20.41858">
        <ele>493.29000854492</ele>
        <time>2023-09-30T09:04:17.000Z</time>
      </trkpt>
      <trkpt lat="41.52131" lon="20.41848">
        <ele>493.29000854492</ele>
        <time>2023-09-30T09:04:16.000Z</time>
      </trkpt>
      <trkpt lat="41.52127" lon="20.41838">
        <ele>493.29000854492</ele>
        <time>2023-09-30T09:04:15.000Z</time>
      </trkpt>
      <trkpt lat="41.52121" lon="20.41827">
        <ele>493.29000854492</ele>
        <time>2023-09-30T09:04:14.000Z</time>
      </trkpt>
      <trkpt lat="41.52114" lon="20.41816">
        <ele>493.29000854492</ele>
        <time>2023-09-30T09:04:13.000Z</time>
      </trkpt>
      <trkpt lat="41.52112" lon="20.41814">
        <ele>493.29000854492</ele>
        <time>2023-09-30T09:04:12.000Z</time>
      </trkpt>
      <trkpt lat="41.52104" lon="20.41804">
        <ele>492.80999755859</ele>
        <time>2023-09-30T09:04:11.000Z</time>
      </trkpt>
      <trkpt lat="41.52099" lon="20.41799">
        <ele>492.80999755859</ele>
        <time>2023-09-30T09:04:10.000Z</time>
      </trkpt>
      <trkpt lat="41.52095" lon="20.41797">
        <ele>492.80999755859</ele>
        <time>2023-09-30T09:04:09.000Z</time>
      </trkpt>
      <trkpt lat="41.52091" lon="20.41797">
        <ele>492.80999755859</ele>
        <time>2023-09-30T09:04:08.000Z</time>
      </trkpt>
      <trkpt lat="41.52087" lon="20.41799">
        <ele>492.32998657227</ele>
        <time>2023-09-30T09:04:07.000Z</time>
      </trkpt>
      <trkpt lat="41.52082" lon="20.41801">
        <ele>491.85000610352</ele>
        <time>2023-09-30T09:04:06.000Z</time>
      </trkpt>
      <trkpt lat="41.52071" lon="20.41808">
        <ele>491.85000610352</ele>
        <time>2023-09-30T09:04:04.000Z</time>
      </trkpt>
      <trkpt lat="41.5206" lon="20.41815">
        <ele>492.32998657227</ele>
        <time>2023-09-30T09:04:02.000Z</time>
      </trkpt>
      <trkpt lat="41.52054" lon="20.41819">
        <ele>491.85000610352</ele>
        <time>2023-09-30T09:04:01.000Z</time>
      </trkpt>
      <trkpt lat="41.5203" lon="20.41833">
        <ele>491.85000610352</ele>
        <time>2023-09-30T09:03:57.000Z</time>
      </trkpt>
      <trkpt lat="41.52023" lon="20.41838">
        <ele>491.85000610352</ele>
        <time>2023-09-30T09:03:56.000Z</time>
      </trkpt>
      <trkpt lat="41.52018" lon="20.41842">
        <ele>491.85000610352</ele>
        <time>2023-09-30T09:03:55.000Z</time>
      </trkpt>
      <trkpt lat="41.52014" lon="20.41847">
        <ele>491.85000610352</ele>
        <time>2023-09-30T09:03:54.000Z</time>
      </trkpt>
      <trkpt lat="41.52012" lon="20.41852">
        <ele>491.85000610352</ele>
        <time>2023-09-30T09:03:53.000Z</time>
      </trkpt>
      <trkpt lat="41.5201" lon="20.41858">
        <ele>491.85000610352</ele>
        <time>2023-09-30T09:03:52.000Z</time>
      </trkpt>
      <trkpt lat="41.52009" lon="20.41866">
        <ele>491.85000610352</ele>
        <time>2023-09-30T09:03:51.000Z</time>
      </trkpt>
      <trkpt lat="41.52009" lon="20.41872">
        <ele>492.32998657227</ele>
        <time>2023-09-30T09:03:50.000Z</time>
      </trkpt>
      <trkpt lat="41.52009" lon="20.41884">
        <ele>492.80999755859</ele>
        <time>2023-09-30T09:03:49.000Z</time>
      </trkpt>
      <trkpt lat="41.5201" lon="20.4189">
        <ele>492.80999755859</ele>
        <time>2023-09-30T09:03:48.000Z</time>
      </trkpt>
      <trkpt lat="41.52009" lon="20.41902">
        <ele>492.80999755859</ele>
        <time>2023-09-30T09:03:47.000Z</time>
      </trkpt>
      <trkpt lat="41.52009" lon="20.41908">
        <ele>492.80999755859</ele>
        <time>2023-09-30T09:03:46.000Z</time>
      </trkpt>
      <trkpt lat="41.52009" lon="20.41917">
        <ele>493.29000854492</ele>
        <time>2023-09-30T09:03:45.000Z</time>
      </trkpt>
      <trkpt lat="41.5201" lon="20.41925">
        <ele>493.29000854492</ele>
        <time>2023-09-30T09:03:44.000Z</time>
      </trkpt>
      <trkpt lat="41.5201" lon="20.41933">
        <ele>493.76998901367</ele>
        <time>2023-09-30T09:03:43.000Z</time>
      </trkpt>
      <trkpt lat="41.5201" lon="20.41937">
        <ele>493.76998901367</ele>
        <time>2023-09-30T09:03:42.000Z</time>
      </trkpt>
      <trkpt lat="41.52011" lon="20.41947">
        <ele>494.26000976562</ele>
        <time>2023-09-30T09:03:41.000Z</time>
      </trkpt>
      <trkpt lat="41.52011" lon="20.41953">
        <ele>494.73999023438</ele>
        <time>2023-09-30T09:03:40.000Z</time>
      </trkpt>
      <trkpt lat="41.52011" lon="20.4196">
        <ele>494.73999023438</ele>
        <time>2023-09-30T09:03:39.000Z</time>
      </trkpt>
      <trkpt lat="41.52011" lon="20.41966">
        <ele>495.2200012207</ele>
        <time>2023-09-30T09:03:38.000Z</time>
      </trkpt>
      <trkpt lat="41.5201" lon="20.41974">
        <ele>495.70001220703</ele>
        <time>2023-09-30T09:03:37.000Z</time>
      </trkpt>
      <trkpt lat="41.52008" lon="20.4198">
        <ele>496.17999267578</ele>
        <time>2023-09-30T09:03:36.000Z</time>
      </trkpt>
      <trkpt lat="41.52005" lon="20.41989">
        <ele>496.66000366211</ele>
        <time>2023-09-30T09:03:35.000Z</time>
      </trkpt>
      <trkpt lat="41.52" lon="20.41998">
        <ele>497.61999511719</ele>
        <time>2023-09-30T09:03:34.000Z</time>
      </trkpt>
      <trkpt lat="41.51994" lon="20.42004">
        <ele>498.10000610352</ele>
        <time>2023-09-30T09:03:33.000Z</time>
      </trkpt>
      <trkpt lat="41.51986" lon="20.4201">
        <ele>499.05999755859</ele>
        <time>2023-09-30T09:03:32.000Z</time>
      </trkpt>
      <trkpt lat="41.51979" lon="20.42013">
        <ele>499.54000854492</ele>
        <time>2023-09-30T09:03:31.000Z</time>
      </trkpt>
      <trkpt lat="41.51966" lon="20.42018">
        <ele>500.5</ele>
        <time>2023-09-30T09:03:30.000Z</time>
      </trkpt>
      <trkpt lat="41.51953" lon="20.42021">
        <ele>500.98001098633</ele>
        <time>2023-09-30T09:03:29.000Z</time>
      </trkpt>
      <trkpt lat="41.51951" lon="20.42022">
        <ele>500.98001098633</ele>
        <time>2023-09-30T09:03:28.000Z</time>
      </trkpt>
      <trkpt lat="41.51913" lon="20.42028">
        <ele>502.42999267578</ele>
        <time>2023-09-30T09:03:26.000Z</time>
      </trkpt>
      <trkpt lat="41.51902" lon="20.42029">
        <ele>502.91000366211</ele>
        <time>2023-09-30T09:03:25.000Z</time>
      </trkpt>
      <trkpt lat="41.51891" lon="20.42028">
        <ele>503.39001464844</ele>
        <time>2023-09-30T09:03:24.000Z</time>
      </trkpt>
      <trkpt lat="41.51867" lon="20.42024">
        <ele>504.35000610352</ele>
        <time>2023-09-30T09:03:22.000Z</time>
      </trkpt>
      <trkpt lat="41.51856" lon="20.42022">
        <ele>504.82998657227</ele>
        <time>2023-09-30T09:03:21.000Z</time>
      </trkpt>
      <trkpt lat="41.51821" lon="20.42014">
        <ele>506.26998901367</ele>
        <time>2023-09-30T09:03:19.000Z</time>
      </trkpt>
      <trkpt lat="41.51811" lon="20.42011">
        <ele>506.75</ele>
        <time>2023-09-30T09:03:18.000Z</time>
      </trkpt>
      <trkpt lat="41.51792" lon="20.42007">
        <ele>507.23001098633</ele>
        <time>2023-09-30T09:03:17.000Z</time>
      </trkpt>
      <trkpt lat="41.51781" lon="20.42005">
        <ele>508.19000244141</ele>
        <time>2023-09-30T09:03:16.000Z</time>
      </trkpt>
      <trkpt lat="41.51763" lon="20.42004">
        <ele>508.67001342773</ele>
        <time>2023-09-30T09:03:15.000Z</time>
      </trkpt>
      <trkpt lat="41.51755" lon="20.42004">
        <ele>509.16000366211</ele>
        <time>2023-09-30T09:03:14.000Z</time>
      </trkpt>
      <trkpt lat="41.51726" lon="20.42006">
        <ele>510.60000610352</ele>
        <time>2023-09-30T09:03:12.000Z</time>
      </trkpt>
      <trkpt lat="41.51696" lon="20.42006">
        <ele>512.52001953125</ele>
        <time>2023-09-30T09:03:10.000Z</time>
      </trkpt>
      <trkpt lat="41.51685" lon="20.42005">
        <ele>513</ele>
        <time>2023-09-30T09:03:09.000Z</time>
      </trkpt>
      <trkpt lat="41.51676" lon="20.42002">
        <ele>513.96002197266</ele>
        <time>2023-09-30T09:03:08.000Z</time>
      </trkpt>
      <trkpt lat="41.5167" lon="20.42">
        <ele>514.44000244141</ele>
        <time>2023-09-30T09:03:07.000Z</time>
      </trkpt>
      <trkpt lat="41.51656" lon="20.41994">
        <ele>515.40002441406</ele>
        <time>2023-09-30T09:03:06.000Z</time>
      </trkpt>
      <trkpt lat="41.51646" lon="20.41989">
        <ele>515.88000488281</ele>
        <time>2023-09-30T09:03:05.000Z</time>
      </trkpt>
      <trkpt lat="41.51638" lon="20.41983">
        <ele>516.36999511719</ele>
        <time>2023-09-30T09:03:04.000Z</time>
      </trkpt>
      <trkpt lat="41.51631" lon="20.41978">
        <ele>516.84997558594</ele>
        <time>2023-09-30T09:03:03.000Z</time>
      </trkpt>
      <trkpt lat="41.51625" lon="20.41975">
        <ele>517.33001708984</ele>
        <time>2023-09-30T09:03:02.000Z</time>
      </trkpt>
      <trkpt lat="41.51617" lon="20.41972">
        <ele>517.80999755859</ele>
        <time>2023-09-30T09:03:01.000Z</time>
      </trkpt>
      <trkpt lat="41.51611" lon="20.41972">
        <ele>518.28997802734</ele>
        <time>2023-09-30T09:03:00.000Z</time>
      </trkpt>
      <trkpt lat="41.51604" lon="20.41973">
        <ele>518.77001953125</ele>
        <time>2023-09-30T09:02:59.000Z</time>
      </trkpt>
      <trkpt lat="41.51598" lon="20.41977">
        <ele>519.25</ele>
        <time>2023-09-30T09:02:58.000Z</time>
      </trkpt>
      <trkpt lat="41.51594" lon="20.41981">
        <ele>519.72998046875</ele>
        <time>2023-09-30T09:02:57.000Z</time>
      </trkpt>
      <trkpt lat="41.5159" lon="20.41987">
        <ele>520.21002197266</ele>
        <time>2023-09-30T09:02:56.000Z</time>
      </trkpt>
      <trkpt lat="41.51587" lon="20.41993">
        <ele>520.69000244141</ele>
        <time>2023-09-30T09:02:55.000Z</time>
      </trkpt>
      <trkpt lat="41.51586" lon="20.41995">
        <ele>520.69000244141</ele>
        <time>2023-09-30T09:02:54.000Z</time>
      </trkpt>
      <trkpt lat="41.51581" lon="20.42007">
        <ele>521.65002441406</ele>
        <time>2023-09-30T09:02:53.000Z</time>
      </trkpt>
      <trkpt lat="41.51579" lon="20.42014">
        <ele>522.13000488281</ele>
        <time>2023-09-30T09:02:52.000Z</time>
      </trkpt>
      <trkpt lat="41.51579" lon="20.4202">
        <ele>522.60998535156</ele>
        <time>2023-09-30T09:02:51.000Z</time>
      </trkpt>
      <trkpt lat="41.51578" lon="20.42031">
        <ele>523.09002685547</ele>
        <time>2023-09-30T09:02:50.000Z</time>
      </trkpt>
      <trkpt lat="41.51578" lon="20.42051">
        <ele>524.05999755859</ele>
        <time>2023-09-30T09:02:48.000Z</time>
      </trkpt>
      <trkpt lat="41.51577" lon="20.42085">
        <ele>525.5</ele>
        <time>2023-09-30T09:02:46.000Z</time>
      </trkpt>
      <trkpt lat="41.51576" lon="20.42111">
        <ele>526.94000244141</ele>
        <time>2023-09-30T09:02:45.000Z</time>
      </trkpt>
      <trkpt lat="41.51575" lon="20.42138">
        <ele>527.90002441406</ele>
        <time>2023-09-30T09:02:43.000Z</time>
      </trkpt>
      <trkpt lat="41.51575" lon="20.42156">
        <ele>528.85998535156</ele>
        <time>2023-09-30T09:02:42.000Z</time>
      </trkpt>
      <trkpt lat="41.51576" lon="20.42174">
        <ele>529.82000732422</ele>
        <time>2023-09-30T09:02:41.000Z</time>
      </trkpt>
      <trkpt lat="41.51575" lon="20.42274">
        <ele>535.59002685547</ele>
        <time>2023-09-30T09:02:34.000Z</time>
      </trkpt>
      <trkpt lat="41.51575" lon="20.42286">
        <ele>536.54998779297</ele>
        <time>2023-09-30T09:02:33.000Z</time>
      </trkpt>
      <trkpt lat="41.51575" lon="20.42292">
        <ele>537.03002929688</ele>
        <time>2023-09-30T09:02:32.000Z</time>
      </trkpt>
      <trkpt lat="41.51575" lon="20.42306">
        <ele>537.98999023438</ele>
        <time>2023-09-30T09:02:31.000Z</time>
      </trkpt>
      <trkpt lat="41.51575" lon="20.4232">
        <ele>538.96002197266</ele>
        <time>2023-09-30T09:02:30.000Z</time>
      </trkpt>
      <trkpt lat="41.51575" lon="20.42322">
        <ele>538.96002197266</ele>
        <time>2023-09-30T09:02:29.000Z</time>
      </trkpt>
      <trkpt lat="41.51575" lon="20.42342">
        <ele>540.40002441406</ele>
        <time>2023-09-30T09:02:28.000Z</time>
      </trkpt>
      <trkpt lat="41.51575" lon="20.42354">
        <ele>540.88000488281</ele>
        <time>2023-09-30T09:02:27.000Z</time>
      </trkpt>
      <trkpt lat="41.51576" lon="20.42362">
        <ele>541.35998535156</ele>
        <time>2023-09-30T09:02:26.000Z</time>
      </trkpt>
      <trkpt lat="41.51576" lon="20.42373">
        <ele>541.84002685547</ele>
        <time>2023-09-30T09:02:25.000Z</time>
      </trkpt>
      <trkpt lat="41.51577" lon="20.42382">
        <ele>541.84002685547</ele>
        <time>2023-09-30T09:02:24.000Z</time>
      </trkpt>
      <trkpt lat="41.51577" lon="20.42392">
        <ele>542.32000732422</ele>
        <time>2023-09-30T09:02:23.000Z</time>
      </trkpt>
      <trkpt lat="41.51577" lon="20.42401">
        <ele>542.32000732422</ele>
        <time>2023-09-30T09:02:21.000Z</time>
      </trkpt>
      <trkpt lat="41.51578" lon="20.42417">
        <ele>542.79998779297</ele>
        <time>2023-09-30T09:02:20.000Z</time>
      </trkpt>
      <trkpt lat="41.51578" lon="20.42424">
        <ele>543.28002929688</ele>
        <time>2023-09-30T09:02:19.000Z</time>
      </trkpt>
      <trkpt lat="41.51577" lon="20.42431">
        <ele>543.28002929688</ele>
        <time>2023-09-30T09:02:18.000Z</time>
      </trkpt>
      <trkpt lat="41.51574" lon="20.42436">
        <ele>543.76000976562</ele>
        <time>2023-09-30T09:02:17.000Z</time>
      </trkpt>
      <trkpt lat="41.51571" lon="20.4244">
        <ele>543.76000976562</ele>
        <time>2023-09-30T09:02:16.000Z</time>
      </trkpt>
      <trkpt lat="41.51567" lon="20.42444">
        <ele>543.28002929688</ele>
        <time>2023-09-30T09:02:15.000Z</time>
      </trkpt>
      <trkpt lat="41.51563" lon="20.42447">
        <ele>543.28002929688</ele>
        <time>2023-09-30T09:02:14.000Z</time>
      </trkpt>
      <trkpt lat="41.51559" lon="20.42449">
        <ele>543.28002929688</ele>
        <time>2023-09-30T09:02:13.000Z</time>
      </trkpt>
      <trkpt lat="41.51554" lon="20.42451">
        <ele>544.23999023438</ele>
        <time>2023-09-30T09:02:12.000Z</time>
      </trkpt>
      <trkpt lat="41.51547" lon="20.42452">
        <ele>544.71997070312</ele>
        <time>2023-09-30T09:02:11.000Z</time>
      </trkpt>
      <trkpt lat="41.5154" lon="20.42451">
        <ele>545.69000244141</ele>
        <time>2023-09-30T09:02:10.000Z</time>
      </trkpt>
      <trkpt lat="41.51534" lon="20.4245">
        <ele>546.16998291016</ele>
        <time>2023-09-30T09:02:09.000Z</time>
      </trkpt>
      <trkpt lat="41.51528" lon="20.42446">
        <ele>547.13000488281</ele>
        <time>2023-09-30T09:02:08.000Z</time>
      </trkpt>
      <trkpt lat="41.51523" lon="20.42441">
        <ele>547.60998535156</ele>
        <time>2023-09-30T09:02:07.000Z</time>
      </trkpt>
      <trkpt lat="41.5152" lon="20.42436">
        <ele>548.09002685547</ele>
        <time>2023-09-30T09:02:06.000Z</time>
      </trkpt>
      <trkpt lat="41.51514" lon="20.42428">
        <ele>548.57000732422</ele>
        <time>2023-09-30T09:02:05.000Z</time>
      </trkpt>
      <trkpt lat="41.51514" lon="20.42426">
        <ele>548.57000732422</ele>
        <time>2023-09-30T09:02:04.000Z</time>
      </trkpt>
      <trkpt lat="41.51506" lon="20.42415">
        <ele>549.53002929688</ele>
        <time>2023-09-30T09:02:03.000Z</time>
      </trkpt>
      <trkpt lat="41.51498" lon="20.42401">
        <ele>550.01000976562</ele>
        <time>2023-09-30T09:02:02.000Z</time>
      </trkpt>
      <trkpt lat="41.51494" lon="20.42396">
        <ele>550.48999023438</ele>
        <time>2023-09-30T09:02:01.000Z</time>
      </trkpt>
      <trkpt lat="41.51486" lon="20.42387">
        <ele>550.96997070312</ele>
        <time>2023-09-30T09:02:00.000Z</time>
      </trkpt>
      <trkpt lat="41.51472" lon="20.42373">
        <ele>550.96997070312</ele>
        <time>2023-09-30T09:01:59.000Z</time>
      </trkpt>
      <trkpt lat="41.51452" lon="20.42353">
        <ele>552.40997314453</ele>
        <time>2023-09-30T09:01:57.000Z</time>
      </trkpt>
      <trkpt lat="41.51448" lon="20.4235">
        <ele>552.40997314453</ele>
        <time>2023-09-30T09:01:56.000Z</time>
      </trkpt>
      <trkpt lat="41.51429" lon="20.42332">
        <ele>554.82000732422</ele>
        <time>2023-09-30T09:01:54.000Z</time>
      </trkpt>
      <trkpt lat="41.51417" lon="20.4232">
        <ele>555.78002929688</ele>
        <time>2023-09-30T09:01:53.000Z</time>
      </trkpt>
      <trkpt lat="41.51409" lon="20.42311">
        <ele>557.21997070312</ele>
        <time>2023-09-30T09:01:52.000Z</time>
      </trkpt>
      <trkpt lat="41.51401" lon="20.42304">
        <ele>557.70001220703</ele>
        <time>2023-09-30T09:01:51.000Z</time>
      </trkpt>
      <trkpt lat="41.51391" lon="20.42297">
        <ele>558.65997314453</ele>
        <time>2023-09-30T09:01:50.000Z</time>
      </trkpt>
      <trkpt lat="41.51385" lon="20.42294">
        <ele>559.61999511719</ele>
        <time>2023-09-30T09:01:49.000Z</time>
      </trkpt>
      <trkpt lat="41.51371" lon="20.42288">
        <ele>560.59002685547</ele>
        <time>2023-09-30T09:01:48.000Z</time>
      </trkpt>
      <trkpt lat="41.5136" lon="20.42284">
        <ele>561.54998779297</ele>
        <time>2023-09-30T09:01:47.000Z</time>
      </trkpt>
      <trkpt lat="41.51335" lon="20.42274">
        <ele>562.98999023438</ele>
        <time>2023-09-30T09:01:45.000Z</time>
      </trkpt>
      <trkpt lat="41.51324" lon="20.42272">
        <ele>563.95001220703</ele>
        <time>2023-09-30T09:01:44.000Z</time>
      </trkpt>
      <trkpt lat="41.51314" lon="20.4227">
        <ele>564.42999267578</ele>
        <time>2023-09-30T09:01:43.000Z</time>
      </trkpt>
      <trkpt lat="41.51304" lon="20.4227">
        <ele>565.39001464844</ele>
        <time>2023-09-30T09:01:42.000Z</time>
      </trkpt>
      <trkpt lat="41.51296" lon="20.42272">
        <ele>565.86999511719</ele>
        <time>2023-09-30T09:01:41.000Z</time>
      </trkpt>
      <trkpt lat="41.51288" lon="20.42274">
        <ele>566.34997558594</ele>
        <time>2023-09-30T09:01:40.000Z</time>
      </trkpt>
      <trkpt lat="41.51281" lon="20.42279">
        <ele>566.83001708984</ele>
        <time>2023-09-30T09:01:39.000Z</time>
      </trkpt>
      <trkpt lat="41.51275" lon="20.42287">
        <ele>567.32000732422</ele>
        <time>2023-09-30T09:01:38.000Z</time>
      </trkpt>
      <trkpt lat="41.51273" lon="20.42289">
        <ele>567.79998779297</ele>
        <time>2023-09-30T09:01:37.000Z</time>
      </trkpt>
      <trkpt lat="41.5126" lon="20.42309">
        <ele>568.76000976562</ele>
        <time>2023-09-30T09:01:36.000Z</time>
      </trkpt>
      <trkpt lat="41.51253" lon="20.42319">
        <ele>569.23999023438</ele>
        <time>2023-09-30T09:01:35.000Z</time>
      </trkpt>
      <trkpt lat="41.51251" lon="20.42321">
        <ele>569.71997070312</ele>
        <time>2023-09-30T09:01:34.000Z</time>
      </trkpt>
      <trkpt lat="41.51241" lon="20.42332">
        <ele>571.15997314453</ele>
        <time>2023-09-30T09:01:33.000Z</time>
      </trkpt>
      <trkpt lat="41.51227" lon="20.42345">
        <ele>573.08001708984</ele>
        <time>2023-09-30T09:01:32.000Z</time>
      </trkpt>
      <trkpt lat="41.51219" lon="20.42351">
        <ele>574.03997802734</ele>
        <time>2023-09-30T09:01:31.000Z</time>
      </trkpt>
      <trkpt lat="41.5121" lon="20.42355">
        <ele>575.01000976562</ele>
        <time>2023-09-30T09:01:30.000Z</time>
      </trkpt>
      <trkpt lat="41.51201" lon="20.42357">
        <ele>575.96997070312</ele>
        <time>2023-09-30T09:01:29.000Z</time>
      </trkpt>
      <trkpt lat="41.51192" lon="20.42357">
        <ele>577.40997314453</ele>
        <time>2023-09-30T09:01:28.000Z</time>
      </trkpt>
      <trkpt lat="41.51184" lon="20.42356">
        <ele>578.36999511719</ele>
        <time>2023-09-30T09:01:27.000Z</time>
      </trkpt>
      <trkpt lat="41.51174" lon="20.42353">
        <ele>579.33001708984</ele>
        <time>2023-09-30T09:01:26.000Z</time>
      </trkpt>
      <trkpt lat="41.51166" lon="20.4235">
        <ele>580.28997802734</ele>
        <time>2023-09-30T09:01:25.000Z</time>
      </trkpt>
      <trkpt lat="41.51158" lon="20.42349">
        <ele>581.25</ele>
        <time>2023-09-30T09:01:24.000Z</time>
      </trkpt>
      <trkpt lat="41.51148" lon="20.4235">
        <ele>582.70001220703</ele>
        <time>2023-09-30T09:01:23.000Z</time>
      </trkpt>
      <trkpt lat="41.51138" lon="20.42352">
        <ele>583.65997314453</ele>
        <time>2023-09-30T09:01:22.000Z</time>
      </trkpt>
      <trkpt lat="41.51129" lon="20.42358">
        <ele>585.09997558594</ele>
        <time>2023-09-30T09:01:21.000Z</time>
      </trkpt>
      <trkpt lat="41.51124" lon="20.42362">
        <ele>585.58001708984</ele>
        <time>2023-09-30T09:01:20.000Z</time>
      </trkpt>
      <trkpt lat="41.51114" lon="20.42371">
        <ele>587.5</ele>
        <time>2023-09-30T09:01:19.000Z</time>
      </trkpt>
      <trkpt lat="41.51112" lon="20.42373">
        <ele>587.5</ele>
        <time>2023-09-30T09:01:18.000Z</time>
      </trkpt>
      <trkpt lat="41.51097" lon="20.42388">
        <ele>589.90997314453</ele>
        <time>2023-09-30T09:01:17.000Z</time>
      </trkpt>
      <trkpt lat="41.5109" lon="20.42396">
        <ele>590.86999511719</ele>
        <time>2023-09-30T09:01:16.000Z</time>
      </trkpt>
      <trkpt lat="41.51084" lon="20.42405">
        <ele>592.30999755859</ele>
        <time>2023-09-30T09:01:15.000Z</time>
      </trkpt>
      <trkpt lat="41.51079" lon="20.42412">
        <ele>592.78997802734</ele>
        <time>2023-09-30T09:01:14.000Z</time>
      </trkpt>
      <trkpt lat="41.51075" lon="20.42419">
        <ele>593.75</ele>
        <time>2023-09-30T09:01:13.000Z</time>
      </trkpt>
      <trkpt lat="41.51067" lon="20.42434">
        <ele>594.71002197266</ele>
        <time>2023-09-30T09:01:12.000Z</time>
      </trkpt>
      <trkpt lat="41.51058" lon="20.4245">
        <ele>596.64001464844</ele>
        <time>2023-09-30T09:01:10.000Z</time>
      </trkpt>
      <trkpt lat="41.51045" lon="20.42475">
        <ele>599.03997802734</ele>
        <time>2023-09-30T09:01:08.000Z</time>
      </trkpt>
      <trkpt lat="41.51033" lon="20.42495">
        <ele>601.44000244141</ele>
        <time>2023-09-30T09:01:06.000Z</time>
      </trkpt>
      <trkpt lat="41.51017" lon="20.42523">
        <ele>604.33001708984</ele>
        <time>2023-09-30T09:01:03.000Z</time>
      </trkpt>
      <trkpt lat="41.51012" lon="20.4253">
        <ele>605.28997802734</ele>
        <time>2023-09-30T09:01:02.000Z</time>
      </trkpt>
      <trkpt lat="41.51" lon="20.42546">
        <ele>607.21002197266</ele>
        <time>2023-09-30T09:01:00.000Z</time>
      </trkpt>
      <trkpt lat="41.50991" lon="20.42555">
        <ele>608.65002441406</ele>
        <time>2023-09-30T09:00:59.000Z</time>
      </trkpt>
      <trkpt lat="41.50985" lon="20.4256">
        <ele>609.60998535156</ele>
        <time>2023-09-30T09:00:58.000Z</time>
      </trkpt>
      <trkpt lat="41.50978" lon="20.42565">
        <ele>610.57000732422</ele>
        <time>2023-09-30T09:00:57.000Z</time>
      </trkpt>
      <trkpt lat="41.50966" lon="20.42573">
        <ele>612.02001953125</ele>
        <time>2023-09-30T09:00:56.000Z</time>
      </trkpt>
      <trkpt lat="41.50953" lon="20.42582">
        <ele>613.46002197266</ele>
        <time>2023-09-30T09:00:54.000Z</time>
      </trkpt>
      <trkpt lat="41.5094" lon="20.42592">
        <ele>615.38000488281</ele>
        <time>2023-09-30T09:00:53.000Z</time>
      </trkpt>
      <trkpt lat="41.50934" lon="20.42597">
        <ele>616.34002685547</ele>
        <time>2023-09-30T09:00:52.000Z</time>
      </trkpt>
      <trkpt lat="41.50921" lon="20.42607">
        <ele>617.78002929688</ele>
        <time>2023-09-30T09:00:50.000Z</time>
      </trkpt>
      <trkpt lat="41.50911" lon="20.42616">
        <ele>619.22998046875</ele>
        <time>2023-09-30T09:00:49.000Z</time>
      </trkpt>
      <trkpt lat="41.50905" lon="20.42622">
        <ele>620.19000244141</ele>
        <time>2023-09-30T09:00:48.000Z</time>
      </trkpt>
      <trkpt lat="41.50896" lon="20.42632">
        <ele>621.63000488281</ele>
        <time>2023-09-30T09:00:47.000Z</time>
      </trkpt>
      <trkpt lat="41.50891" lon="20.42641">
        <ele>622.59002685547</ele>
        <time>2023-09-30T09:00:46.000Z</time>
      </trkpt>
      <trkpt lat="41.50889" lon="20.42644">
        <ele>623.07000732422</ele>
        <time>2023-09-30T09:00:45.000Z</time>
      </trkpt>
      <trkpt lat="41.50881" lon="20.42659">
        <ele>624.98999023438</ele>
        <time>2023-09-30T09:00:44.000Z</time>
      </trkpt>
      <trkpt lat="41.50875" lon="20.42668">
        <ele>625.96002197266</ele>
        <time>2023-09-30T09:00:43.000Z</time>
      </trkpt>
      <trkpt lat="41.5087" lon="20.42674">
        <ele>626.44000244141</ele>
        <time>2023-09-30T09:00:42.000Z</time>
      </trkpt>
      <trkpt lat="41.50862" lon="20.42682">
        <ele>627.88000488281</ele>
        <time>2023-09-30T09:00:41.000Z</time>
      </trkpt>
      <trkpt lat="41.50845" lon="20.42696">
        <ele>630.28002929688</ele>
        <time>2023-09-30T09:00:39.000Z</time>
      </trkpt>
      <trkpt lat="41.50842" lon="20.42698">
        <ele>630.76000976562</ele>
        <time>2023-09-30T09:00:38.000Z</time>
      </trkpt>
      <trkpt lat="41.50831" lon="20.42706">
        <ele>632.20001220703</ele>
        <time>2023-09-30T09:00:37.000Z</time>
      </trkpt>
      <trkpt lat="41.50814" lon="20.42715">
        <ele>634.60998535156</ele>
        <time>2023-09-30T09:00:35.000Z</time>
      </trkpt>
      <trkpt lat="41.50805" lon="20.4272">
        <ele>636.04998779297</ele>
        <time>2023-09-30T09:00:34.000Z</time>
      </trkpt>
      <trkpt lat="41.50796" lon="20.42726">
        <ele>637.48999023438</ele>
        <time>2023-09-30T09:00:33.000Z</time>
      </trkpt>
      <trkpt lat="41.50787" lon="20.42732">
        <ele>638.92999267578</ele>
        <time>2023-09-30T09:00:32.000Z</time>
      </trkpt>
      <trkpt lat="41.50779" lon="20.42738">
        <ele>639.89001464844</ele>
        <time>2023-09-30T09:00:31.000Z</time>
      </trkpt>
      <trkpt lat="41.50771" lon="20.42744">
        <ele>641.34002685547</ele>
        <time>2023-09-30T09:00:30.000Z</time>
      </trkpt>
      <trkpt lat="41.50763" lon="20.4275">
        <ele>642.29998779297</ele>
        <time>2023-09-30T09:00:29.000Z</time>
      </trkpt>
      <trkpt lat="41.50756" lon="20.42756">
        <ele>643.73999023438</ele>
        <time>2023-09-30T09:00:28.000Z</time>
      </trkpt>
      <trkpt lat="41.50748" lon="20.42764">
        <ele>644.70001220703</ele>
        <time>2023-09-30T09:00:27.000Z</time>
      </trkpt>
      <trkpt lat="41.50742" lon="20.42773">
        <ele>646.14001464844</ele>
        <time>2023-09-30T09:00:26.000Z</time>
      </trkpt>
      <trkpt lat="41.50737" lon="20.42782">
        <ele>647.09997558594</ele>
        <time>2023-09-30T09:00:25.000Z</time>
      </trkpt>
      <trkpt lat="41.50733" lon="20.42792">
        <ele>648.07000732422</ele>
        <time>2023-09-30T09:00:24.000Z</time>
      </trkpt>
      <trkpt lat="41.50731" lon="20.42801">
        <ele>649.03002929688</ele>
        <time>2023-09-30T09:00:23.000Z</time>
      </trkpt>
      <trkpt lat="41.50728" lon="20.42812">
        <ele>649.98999023438</ele>
        <time>2023-09-30T09:00:22.000Z</time>
      </trkpt>
      <trkpt lat="41.50726" lon="20.42821">
        <ele>650.95001220703</ele>
        <time>2023-09-30T09:00:21.000Z</time>
      </trkpt>
      <trkpt lat="41.50724" lon="20.42825">
        <ele>651.42999267578</ele>
        <time>2023-09-30T09:00:20.000Z</time>
      </trkpt>
      <trkpt lat="41.50718" lon="20.42838">
        <ele>652.86999511719</ele>
        <time>2023-09-30T09:00:19.000Z</time>
      </trkpt>
      <trkpt lat="41.50713" lon="20.42847">
        <ele>653.83001708984</ele>
        <time>2023-09-30T09:00:18.000Z</time>
      </trkpt>
      <trkpt lat="41.50709" lon="20.42853">
        <ele>654.79998779297</ele>
        <time>2023-09-30T09:00:17.000Z</time>
      </trkpt>
      <trkpt lat="41.50703" lon="20.42859">
        <ele>655.76000976562</ele>
        <time>2023-09-30T09:00:16.000Z</time>
      </trkpt>
      <trkpt lat="41.50696" lon="20.42867">
        <ele>656.71997070312</ele>
        <time>2023-09-30T09:00:15.000Z</time>
      </trkpt>
      <trkpt lat="41.5069" lon="20.42873">
        <ele>657.67999267578</ele>
        <time>2023-09-30T09:00:14.000Z</time>
      </trkpt>
      <trkpt lat="41.50683" lon="20.42879">
        <ele>659.11999511719</ele>
        <time>2023-09-30T09:00:13.000Z</time>
      </trkpt>
      <trkpt lat="41.50674" lon="20.42887">
        <ele>660.55999755859</ele>
        <time>2023-09-30T09:00:12.000Z</time>
      </trkpt>
      <trkpt lat="41.50656" lon="20.429">
        <ele>662.96997070312</ele>
        <time>2023-09-30T09:00:10.000Z</time>
      </trkpt>
      <trkpt lat="41.50647" lon="20.42907">
        <ele>663.92999267578</ele>
        <time>2023-09-30T09:00:09.000Z</time>
      </trkpt>
      <trkpt lat="41.50645" lon="20.42909">
        <ele>664.40997314453</ele>
        <time>2023-09-30T09:00:08.000Z</time>
      </trkpt>
      <trkpt lat="41.50632" lon="20.4292">
        <ele>666.33001708984</ele>
        <time>2023-09-30T09:00:07.000Z</time>
      </trkpt>
      <trkpt lat="41.50626" lon="20.42926">
        <ele>667.28997802734</ele>
        <time>2023-09-30T09:00:06.000Z</time>
      </trkpt>
      <trkpt lat="41.50612" lon="20.4294">
        <ele>669.21997070312</ele>
        <time>2023-09-30T09:00:05.000Z</time>
      </trkpt>
      <trkpt lat="41.50604" lon="20.4295">
        <ele>670.65997314453</ele>
        <time>2023-09-30T09:00:04.000Z</time>
      </trkpt>
      <trkpt lat="41.50602" lon="20.42953">
        <ele>671.14001464844</ele>
        <time>2023-09-30T09:00:03.000Z</time>
      </trkpt>
      <trkpt lat="41.50566" lon="20.43011">
        <ele>676.41998291016</ele>
        <time>2023-09-30T08:59:59.000Z</time>
      </trkpt>
      <trkpt lat="41.50561" lon="20.43021">
        <ele>677.39001464844</ele>
        <time>2023-09-30T08:59:58.000Z</time>
      </trkpt>
      <trkpt lat="41.50554" lon="20.43038">
        <ele>678.83001708984</ele>
        <time>2023-09-30T08:59:57.000Z</time>
      </trkpt>
      <trkpt lat="41.5055" lon="20.43049">
        <ele>679.78997802734</ele>
        <time>2023-09-30T08:59:56.000Z</time>
      </trkpt>
      <trkpt lat="41.50546" lon="20.43062">
        <ele>680.75</ele>
        <time>2023-09-30T08:59:55.000Z</time>
      </trkpt>
      <trkpt lat="41.50542" lon="20.4307">
        <ele>681.22998046875</ele>
        <time>2023-09-30T08:59:54.000Z</time>
      </trkpt>
      <trkpt lat="41.50539" lon="20.43076">
        <ele>681.71002197266</ele>
        <time>2023-09-30T08:59:53.000Z</time>
      </trkpt>
      <trkpt lat="41.50534" lon="20.43083">
        <ele>682.19000244141</ele>
        <time>2023-09-30T08:59:52.000Z</time>
      </trkpt>
      <trkpt lat="41.5053" lon="20.43088">
        <ele>683.15002441406</ele>
        <time>2023-09-30T08:59:51.000Z</time>
      </trkpt>
      <trkpt lat="41.50529" lon="20.4309">
        <ele>683.15002441406</ele>
        <time>2023-09-30T08:59:50.000Z</time>
      </trkpt>
      <trkpt lat="41.50522" lon="20.43097">
        <ele>684.11999511719</ele>
        <time>2023-09-30T08:59:49.000Z</time>
      </trkpt>
      <trkpt lat="41.50517" lon="20.43102">
        <ele>685.08001708984</ele>
        <time>2023-09-30T08:59:48.000Z</time>
      </trkpt>
      <trkpt lat="41.50512" lon="20.43106">
        <ele>686.03997802734</ele>
        <time>2023-09-30T08:59:47.000Z</time>
      </trkpt>
      <trkpt lat="41.50505" lon="20.43112">
        <ele>687</ele>
        <time>2023-09-30T08:59:46.000Z</time>
      </trkpt>
      <trkpt lat="41.505" lon="20.43115">
        <ele>687.47998046875</ele>
        <time>2023-09-30T08:59:45.000Z</time>
      </trkpt>
      <trkpt lat="41.50497" lon="20.43117">
        <ele>687.96002197266</ele>
        <time>2023-09-30T08:59:44.000Z</time>
      </trkpt>
      <trkpt lat="41.50481" lon="20.43125">
        <ele>690.35998535156</ele>
        <time>2023-09-30T08:59:42.000Z</time>
      </trkpt>
      <trkpt lat="41.50477" lon="20.43127">
        <ele>690.84002685547</ele>
        <time>2023-09-30T08:59:41.000Z</time>
      </trkpt>
      <trkpt lat="41.5047" lon="20.43131">
        <ele>691.33001708984</ele>
        <time>2023-09-30T08:59:40.000Z</time>
      </trkpt>
      <trkpt lat="41.50461" lon="20.43136">
        <ele>692.77001953125</ele>
        <time>2023-09-30T08:59:39.000Z</time>
      </trkpt>
      <trkpt lat="41.50452" lon="20.43143">
        <ele>693.72998046875</ele>
        <time>2023-09-30T08:59:38.000Z</time>
      </trkpt>
      <trkpt lat="41.50445" lon="20.43149">
        <ele>694.69000244141</ele>
        <time>2023-09-30T08:59:37.000Z</time>
      </trkpt>
      <trkpt lat="41.50436" lon="20.43157">
        <ele>696.13000488281</ele>
        <time>2023-09-30T08:59:36.000Z</time>
      </trkpt>
      <trkpt lat="41.50427" lon="20.43163">
        <ele>697.09002685547</ele>
        <time>2023-09-30T08:59:35.000Z</time>
      </trkpt>
      <trkpt lat="41.50416" lon="20.43168">
        <ele>698.53002929688</ele>
        <time>2023-09-30T08:59:34.000Z</time>
      </trkpt>
      <trkpt lat="41.50411" lon="20.43171">
        <ele>699.02001953125</ele>
        <time>2023-09-30T08:59:33.000Z</time>
      </trkpt>
      <trkpt lat="41.50399" lon="20.43175">
        <ele>700.46002197266</ele>
        <time>2023-09-30T08:59:32.000Z</time>
      </trkpt>
      <trkpt lat="41.50386" lon="20.4318">
        <ele>701.41998291016</ele>
        <time>2023-09-30T08:59:31.000Z</time>
      </trkpt>
      <trkpt lat="41.50374" lon="20.43184">
        <ele>702.85998535156</ele>
        <time>2023-09-30T08:59:30.000Z</time>
      </trkpt>
      <trkpt lat="41.50371" lon="20.43185">
        <ele>703.34002685547</ele>
        <time>2023-09-30T08:59:29.000Z</time>
      </trkpt>
      <trkpt lat="41.50356" lon="20.43189">
        <ele>704.78002929688</ele>
        <time>2023-09-30T08:59:28.000Z</time>
      </trkpt>
      <trkpt lat="41.50343" lon="20.43193">
        <ele>706.22998046875</ele>
        <time>2023-09-30T08:59:27.000Z</time>
      </trkpt>
      <trkpt lat="41.50328" lon="20.43199">
        <ele>707.66998291016</ele>
        <time>2023-09-30T08:59:26.000Z</time>
      </trkpt>
      <trkpt lat="41.50318" lon="20.43206">
        <ele>708.63000488281</ele>
        <time>2023-09-30T08:59:25.000Z</time>
      </trkpt>
      <trkpt lat="41.50299" lon="20.43219">
        <ele>710.54998779297</ele>
        <time>2023-09-30T08:59:23.000Z</time>
      </trkpt>
      <trkpt lat="41.50291" lon="20.43227">
        <ele>711.51000976562</ele>
        <time>2023-09-30T08:59:22.000Z</time>
      </trkpt>
      <trkpt lat="41.50285" lon="20.43234">
        <ele>711.98999023438</ele>
        <time>2023-09-30T08:59:21.000Z</time>
      </trkpt>
      <trkpt lat="41.50277" lon="20.43245">
        <ele>712.46997070312</ele>
        <time>2023-09-30T08:59:20.000Z</time>
      </trkpt>
      <trkpt lat="41.50276" lon="20.43248">
        <ele>712.46997070312</ele>
        <time>2023-09-30T08:59:19.000Z</time>
      </trkpt>
      <trkpt lat="41.50257" lon="20.43282">
        <ele>713.44000244141</ele>
        <time>2023-09-30T08:59:17.000Z</time>
      </trkpt>
      <trkpt lat="41.5025" lon="20.43292">
        <ele>713.91998291016</ele>
        <time>2023-09-30T08:59:16.000Z</time>
      </trkpt>
      <trkpt lat="41.5024" lon="20.43304">
        <ele>714.40002441406</ele>
        <time>2023-09-30T08:59:15.000Z</time>
      </trkpt>
      <trkpt lat="41.50229" lon="20.43313">
        <ele>714.88000488281</ele>
        <time>2023-09-30T08:59:14.000Z</time>
      </trkpt>
      <trkpt lat="41.50219" lon="20.4332">
        <ele>715.35998535156</ele>
        <time>2023-09-30T08:59:13.000Z</time>
      </trkpt>
      <trkpt lat="41.50208" lon="20.43326">
        <ele>715.84002685547</ele>
        <time>2023-09-30T08:59:12.000Z</time>
      </trkpt>
      <trkpt lat="41.50199" lon="20.43329">
        <ele>716.32000732422</ele>
        <time>2023-09-30T08:59:11.000Z</time>
      </trkpt>
      <trkpt lat="41.5019" lon="20.43332">
        <ele>716.79998779297</ele>
        <time>2023-09-30T08:59:10.000Z</time>
      </trkpt>
      <trkpt lat="41.50179" lon="20.43335">
        <ele>717.28002929688</ele>
        <time>2023-09-30T08:59:09.000Z</time>
      </trkpt>
      <trkpt lat="41.50157" lon="20.43338">
        <ele>719.20001220703</ele>
        <time>2023-09-30T08:59:08.000Z</time>
      </trkpt>
      <trkpt lat="41.50152" lon="20.43338">
        <ele>719.67999267578</ele>
        <time>2023-09-30T08:59:07.000Z</time>
      </trkpt>
      <trkpt lat="41.50122" lon="20.43339">
        <ele>722.09002685547</ele>
        <time>2023-09-30T08:59:05.000Z</time>
      </trkpt>
      <trkpt lat="41.50093" lon="20.43341">
        <ele>724.01000976562</ele>
        <time>2023-09-30T08:59:03.000Z</time>
      </trkpt>
      <trkpt lat="41.50073" lon="20.43342">
        <ele>725.92999267578</ele>
        <time>2023-09-30T08:59:01.000Z</time>
      </trkpt>
      <trkpt lat="41.50053" lon="20.43342">
        <ele>727.36999511719</ele>
        <time>2023-09-30T08:59:00.000Z</time>
      </trkpt>
      <trkpt lat="41.5004" lon="20.43341">
        <ele>728.82000732422</ele>
        <time>2023-09-30T08:58:59.000Z</time>
      </trkpt>
      <trkpt lat="41.50029" lon="20.4334">
        <ele>729.78002929688</ele>
        <time>2023-09-30T08:58:58.000Z</time>
      </trkpt>
      <trkpt lat="41.49991" lon="20.43338">
        <ele>733.14001464844</ele>
        <time>2023-09-30T08:58:55.000Z</time>
      </trkpt>
      <trkpt lat="41.4998" lon="20.43338">
        <ele>734.09997558594</ele>
        <time>2023-09-30T08:58:54.000Z</time>
      </trkpt>
      <trkpt lat="41.4997" lon="20.43339">
        <ele>735.07000732422</ele>
        <time>2023-09-30T08:58:53.000Z</time>
      </trkpt>
      <trkpt lat="41.49967" lon="20.43339">
        <ele>735.07000732422</ele>
        <time>2023-09-30T08:58:52.000Z</time>
      </trkpt>
      <trkpt lat="41.49939" lon="20.43347">
        <ele>737.95001220703</ele>
        <time>2023-09-30T08:58:50.000Z</time>
      </trkpt>
      <trkpt lat="41.49933" lon="20.43349">
        <ele>738.42999267578</ele>
        <time>2023-09-30T08:58:49.000Z</time>
      </trkpt>
      <trkpt lat="41.49925" lon="20.43352">
        <ele>739.39001464844</ele>
        <time>2023-09-30T08:58:48.000Z</time>
      </trkpt>
      <trkpt lat="41.49916" lon="20.43355">
        <ele>739.86999511719</ele>
        <time>2023-09-30T08:58:47.000Z</time>
      </trkpt>
      <trkpt lat="41.49903" lon="20.4336">
        <ele>741.30999755859</ele>
        <time>2023-09-30T08:58:46.000Z</time>
      </trkpt>
      <trkpt lat="41.49893" lon="20.43364">
        <ele>742.28002929688</ele>
        <time>2023-09-30T08:58:45.000Z</time>
      </trkpt>
      <trkpt lat="41.49887" lon="20.43366">
        <ele>742.76000976562</ele>
        <time>2023-09-30T08:58:44.000Z</time>
      </trkpt>
      <trkpt lat="41.49876" lon="20.43372">
        <ele>743.71997070312</ele>
        <time>2023-09-30T08:58:43.000Z</time>
      </trkpt>
      <trkpt lat="41.4987" lon="20.43375">
        <ele>744.67999267578</ele>
        <time>2023-09-30T08:58:42.000Z</time>
      </trkpt>
      <trkpt lat="41.49853" lon="20.43382">
        <ele>746.11999511719</ele>
        <time>2023-09-30T08:58:41.000Z</time>
      </trkpt>
      <trkpt lat="41.49844" lon="20.43386">
        <ele>746.59997558594</ele>
        <time>2023-09-30T08:58:40.000Z</time>
      </trkpt>
      <trkpt lat="41.49837" lon="20.43387">
        <ele>747.55999755859</ele>
        <time>2023-09-30T08:58:39.000Z</time>
      </trkpt>
      <trkpt lat="41.49828" lon="20.43387">
        <ele>748.52001953125</ele>
        <time>2023-09-30T08:58:38.000Z</time>
      </trkpt>
      <trkpt lat="41.4982" lon="20.43384">
        <ele>749.48999023438</ele>
        <time>2023-09-30T08:58:37.000Z</time>
      </trkpt>
      <trkpt lat="41.49812" lon="20.43381">
        <ele>750.45001220703</ele>
        <time>2023-09-30T08:58:36.000Z</time>
      </trkpt>
      <trkpt lat="41.498" lon="20.43375">
        <ele>751.40997314453</ele>
        <time>2023-09-30T08:58:34.000Z</time>
      </trkpt>
      <trkpt lat="41.49788" lon="20.43369">
        <ele>752.84997558594</ele>
        <time>2023-09-30T08:58:33.000Z</time>
      </trkpt>
      <trkpt lat="41.49779" lon="20.43367">
        <ele>753.80999755859</ele>
        <time>2023-09-30T08:58:32.000Z</time>
      </trkpt>
      <trkpt lat="41.49771" lon="20.43366">
        <ele>754.77001953125</ele>
        <time>2023-09-30T08:58:31.000Z</time>
      </trkpt>
      <trkpt lat="41.49763" lon="20.43366">
        <ele>755.72998046875</ele>
        <time>2023-09-30T08:58:30.000Z</time>
      </trkpt>
      <trkpt lat="41.49754" lon="20.43366">
        <ele>756.69000244141</ele>
        <time>2023-09-30T08:58:29.000Z</time>
      </trkpt>
      <trkpt lat="41.49748" lon="20.43366">
        <ele>757.65997314453</ele>
        <time>2023-09-30T08:58:28.000Z</time>
      </trkpt>
      <trkpt lat="41.49738" lon="20.43365">
        <ele>758.14001464844</ele>
        <time>2023-09-30T08:58:27.000Z</time>
      </trkpt>
      <trkpt lat="41.49731" lon="20.43364">
        <ele>758.61999511719</ele>
        <time>2023-09-30T08:58:26.000Z</time>
      </trkpt>
      <trkpt lat="41.49716" lon="20.43362">
        <ele>760.05999755859</ele>
        <time>2023-09-30T08:58:25.000Z</time>
      </trkpt>
      <trkpt lat="41.49707" lon="20.43362">
        <ele>760.53997802734</ele>
        <time>2023-09-30T08:58:24.000Z</time>
      </trkpt>
      <trkpt lat="41.497" lon="20.43363">
        <ele>761.02001953125</ele>
        <time>2023-09-30T08:58:23.000Z</time>
      </trkpt>
      <trkpt lat="41.49694" lon="20.43366">
        <ele>761.02001953125</ele>
        <time>2023-09-30T08:58:22.000Z</time>
      </trkpt>
      <trkpt lat="41.49689" lon="20.43369">
        <ele>761.5</ele>
        <time>2023-09-30T08:58:21.000Z</time>
      </trkpt>
      <trkpt lat="41.49683" lon="20.43373">
        <ele>761.97998046875</ele>
        <time>2023-09-30T08:58:20.000Z</time>
      </trkpt>
      <trkpt lat="41.4968" lon="20.43375">
        <ele>761.97998046875</ele>
        <time>2023-09-30T08:58:19.000Z</time>
      </trkpt>
      <trkpt lat="41.49672" lon="20.4338">
        <ele>762.46002197266</ele>
        <time>2023-09-30T08:58:18.000Z</time>
      </trkpt>
      <trkpt lat="41.49666" lon="20.43383">
        <ele>762.94000244141</ele>
        <time>2023-09-30T08:58:17.000Z</time>
      </trkpt>
      <trkpt lat="41.49663" lon="20.43384">
        <ele>763.41998291016</ele>
        <time>2023-09-30T08:58:16.000Z</time>
      </trkpt>
      <trkpt lat="41.49655" lon="20.43387">
        <ele>764.39001464844</ele>
        <time>2023-09-30T08:58:15.000Z</time>
      </trkpt>
      <trkpt lat="41.49652" lon="20.43388">
        <ele>764.39001464844</ele>
        <time>2023-09-30T08:58:14.000Z</time>
      </trkpt>
      <trkpt lat="41.49643" lon="20.43391">
        <ele>765.34997558594</ele>
        <time>2023-09-30T08:58:13.000Z</time>
      </trkpt>
      <trkpt lat="41.49634" lon="20.43395">
        <ele>766.30999755859</ele>
        <time>2023-09-30T08:58:12.000Z</time>
      </trkpt>
      <trkpt lat="41.49627" lon="20.43399">
        <ele>767.27001953125</ele>
        <time>2023-09-30T08:58:11.000Z</time>
      </trkpt>
      <trkpt lat="41.49622" lon="20.43406">
        <ele>768.22998046875</ele>
        <time>2023-09-30T08:58:10.000Z</time>
      </trkpt>
      <trkpt lat="41.49616" lon="20.43415">
        <ele>769.19000244141</ele>
        <time>2023-09-30T08:58:09.000Z</time>
      </trkpt>
      <trkpt lat="41.49605" lon="20.43436">
        <ele>771.10998535156</ele>
        <time>2023-09-30T08:58:07.000Z</time>
      </trkpt>
      <trkpt lat="41.49602" lon="20.43443">
        <ele>771.59997558594</ele>
        <time>2023-09-30T08:58:06.000Z</time>
      </trkpt>
      <trkpt lat="41.49596" lon="20.43459">
        <ele>773.03997802734</ele>
        <time>2023-09-30T08:58:05.000Z</time>
      </trkpt>
      <trkpt lat="41.49593" lon="20.43467">
        <ele>774</ele>
        <time>2023-09-30T08:58:04.000Z</time>
      </trkpt>
      <trkpt lat="41.4959" lon="20.43478">
        <ele>774.47998046875</ele>
        <time>2023-09-30T08:58:03.000Z</time>
      </trkpt>
      <trkpt lat="41.49588" lon="20.43486">
        <ele>774.96002197266</ele>
        <time>2023-09-30T08:58:02.000Z</time>
      </trkpt>
      <trkpt lat="41.49586" lon="20.43494">
        <ele>775.91998291016</ele>
        <time>2023-09-30T08:58:01.000Z</time>
      </trkpt>
      <trkpt lat="41.49582" lon="20.43503">
        <ele>776.40002441406</ele>
        <time>2023-09-30T08:58:00.000Z</time>
      </trkpt>
      <trkpt lat="41.49576" lon="20.4351">
        <ele>777.35998535156</ele>
        <time>2023-09-30T08:57:59.000Z</time>
      </trkpt>
      <trkpt lat="41.49569" lon="20.43517">
        <ele>778.32000732422</ele>
        <time>2023-09-30T08:57:58.000Z</time>
      </trkpt>
      <trkpt lat="41.49563" lon="20.43523">
        <ele>779.28997802734</ele>
        <time>2023-09-30T08:57:57.000Z</time>
      </trkpt>
      <trkpt lat="41.49553" lon="20.4353">
        <ele>780.25</ele>
        <time>2023-09-30T08:57:56.000Z</time>
      </trkpt>
      <trkpt lat="41.49546" lon="20.43533">
        <ele>781.21002197266</ele>
        <time>2023-09-30T08:57:55.000Z</time>
      </trkpt>
      <trkpt lat="41.49537" lon="20.43535">
        <ele>781.69000244141</ele>
        <time>2023-09-30T08:57:54.000Z</time>
      </trkpt>
      <trkpt lat="41.49528" lon="20.43537">
        <ele>782.65002441406</ele>
        <time>2023-09-30T08:57:53.000Z</time>
      </trkpt>
      <trkpt lat="41.49521" lon="20.43537">
        <ele>783.13000488281</ele>
        <time>2023-09-30T08:57:52.000Z</time>
      </trkpt>
      <trkpt lat="41.49518" lon="20.43537">
        <ele>783.60998535156</ele>
        <time>2023-09-30T08:57:51.000Z</time>
      </trkpt>
      <trkpt lat="41.49498" lon="20.43541">
        <ele>785.53002929688</ele>
        <time>2023-09-30T08:57:49.000Z</time>
      </trkpt>
      <trkpt lat="41.49491" lon="20.43542">
        <ele>786.02001953125</ele>
        <time>2023-09-30T08:57:48.000Z</time>
      </trkpt>
      <trkpt lat="41.49479" lon="20.43545">
        <ele>786.97998046875</ele>
        <time>2023-09-30T08:57:47.000Z</time>
      </trkpt>
      <trkpt lat="41.49472" lon="20.43547">
        <ele>787.94000244141</ele>
        <time>2023-09-30T08:57:46.000Z</time>
      </trkpt>
      <trkpt lat="41.49465" lon="20.4355">
        <ele>788.90002441406</ele>
        <time>2023-09-30T08:57:45.000Z</time>
      </trkpt>
      <trkpt lat="41.49459" lon="20.43554">
        <ele>789.38000488281</ele>
        <time>2023-09-30T08:57:44.000Z</time>
      </trkpt>
      <trkpt lat="41.49451" lon="20.43559">
        <ele>790.34002685547</ele>
        <time>2023-09-30T08:57:43.000Z</time>
      </trkpt>
      <trkpt lat="41.49446" lon="20.43566">
        <ele>790.82000732422</ele>
        <time>2023-09-30T08:57:42.000Z</time>
      </trkpt>
      <trkpt lat="41.49441" lon="20.43574">
        <ele>791.78002929688</ele>
        <time>2023-09-30T08:57:41.000Z</time>
      </trkpt>
      <trkpt lat="41.49437" lon="20.43584">
        <ele>792.73999023438</ele>
        <time>2023-09-30T08:57:40.000Z</time>
      </trkpt>
      <trkpt lat="41.49434" lon="20.43594">
        <ele>793.21997070312</ele>
        <time>2023-09-30T08:57:39.000Z</time>
      </trkpt>
      <trkpt lat="41.4943" lon="20.43606">
        <ele>794.19000244141</ele>
        <time>2023-09-30T08:57:38.000Z</time>
      </trkpt>
      <trkpt lat="41.49415" lon="20.43642">
        <ele>797.07000732422</ele>
        <time>2023-09-30T08:57:35.000Z</time>
      </trkpt>
      <trkpt lat="41.49413" lon="20.43647">
        <ele>797.54998779297</ele>
        <time>2023-09-30T08:57:34.000Z</time>
      </trkpt>
      <trkpt lat="41.49402" lon="20.43683">
        <ele>799.46997070312</ele>
        <time>2023-09-30T08:57:32.000Z</time>
      </trkpt>
      <trkpt lat="41.49401" lon="20.43687">
        <ele>799.46997070312</ele>
        <time>2023-09-30T08:57:31.000Z</time>
      </trkpt>
      <trkpt lat="41.49388" lon="20.43721">
        <ele>800.91998291016</ele>
        <time>2023-09-30T08:57:29.000Z</time>
      </trkpt>
      <trkpt lat="41.49384" lon="20.43729">
        <ele>801.40002441406</ele>
        <time>2023-09-30T08:57:28.000Z</time>
      </trkpt>
      <trkpt lat="41.49378" lon="20.43745">
        <ele>801.88000488281</ele>
        <time>2023-09-30T08:57:27.000Z</time>
      </trkpt>
      <trkpt lat="41.49369" lon="20.43763">
        <ele>802.84002685547</ele>
        <time>2023-09-30T08:57:25.000Z</time>
      </trkpt>
      <trkpt lat="41.49357" lon="20.43783">
        <ele>804.28002929688</ele>
        <time>2023-09-30T08:57:24.000Z</time>
      </trkpt>
      <trkpt lat="41.49354" lon="20.4379">
        <ele>804.76000976562</ele>
        <time>2023-09-30T08:57:23.000Z</time>
      </trkpt>
      <trkpt lat="41.49342" lon="20.43817">
        <ele>807.15997314453</ele>
        <time>2023-09-30T08:57:21.000Z</time>
      </trkpt>
      <trkpt lat="41.4933" lon="20.43847">
        <ele>810.04998779297</ele>
        <time>2023-09-30T08:57:19.000Z</time>
      </trkpt>
      <trkpt lat="41.49326" lon="20.43861">
        <ele>811.01000976562</ele>
        <time>2023-09-30T08:57:18.000Z</time>
      </trkpt>
      <trkpt lat="41.49323" lon="20.43874">
        <ele>811.96997070312</ele>
        <time>2023-09-30T08:57:17.000Z</time>
      </trkpt>
      <trkpt lat="41.49322" lon="20.43877">
        <ele>811.96997070312</ele>
        <time>2023-09-30T08:57:16.000Z</time>
      </trkpt>
      <trkpt lat="41.4932" lon="20.43894">
        <ele>812.92999267578</ele>
        <time>2023-09-30T08:57:15.000Z</time>
      </trkpt>
      <trkpt lat="41.49316" lon="20.43917">
        <ele>813.89001464844</ele>
        <time>2023-09-30T08:57:14.000Z</time>
      </trkpt>
      <trkpt lat="41.4931" lon="20.43945">
        <ele>814.36999511719</ele>
        <time>2023-09-30T08:57:12.000Z</time>
      </trkpt>
      <trkpt lat="41.49308" lon="20.43958">
        <ele>814.36999511719</ele>
        <time>2023-09-30T08:57:11.000Z</time>
      </trkpt>
      <trkpt lat="41.49305" lon="20.4397">
        <ele>814.36999511719</ele>
        <time>2023-09-30T08:57:10.000Z</time>
      </trkpt>
      <trkpt lat="41.49301" lon="20.43981">
        <ele>814.36999511719</ele>
        <time>2023-09-30T08:57:09.000Z</time>
      </trkpt>
      <trkpt lat="41.49295" lon="20.43991">
        <ele>814.84997558594</ele>
        <time>2023-09-30T08:57:08.000Z</time>
      </trkpt>
      <trkpt lat="41.49287" lon="20.43998">
        <ele>814.84997558594</ele>
        <time>2023-09-30T08:57:07.000Z</time>
      </trkpt>
      <trkpt lat="41.49278" lon="20.44004">
        <ele>814.84997558594</ele>
        <time>2023-09-30T08:57:06.000Z</time>
      </trkpt>
      <trkpt lat="41.49271" lon="20.44007">
        <ele>815.34002685547</ele>
        <time>2023-09-30T08:57:05.000Z</time>
      </trkpt>
      <trkpt lat="41.49261" lon="20.44011">
        <ele>815.34002685547</ele>
        <time>2023-09-30T08:57:04.000Z</time>
      </trkpt>
      <trkpt lat="41.49239" lon="20.4402">
        <ele>816.29998779297</ele>
        <time>2023-09-30T08:57:02.000Z</time>
      </trkpt>
      <trkpt lat="41.49199" lon="20.44031">
        <ele>819.65997314453</ele>
        <time>2023-09-30T08:56:59.000Z</time>
      </trkpt>
      <trkpt lat="41.49186" lon="20.44033">
        <ele>821.09997558594</ele>
        <time>2023-09-30T08:56:58.000Z</time>
      </trkpt>
      <trkpt lat="41.49175" lon="20.44035">
        <ele>822.05999755859</ele>
        <time>2023-09-30T08:56:57.000Z</time>
      </trkpt>
      <trkpt lat="41.49165" lon="20.44036">
        <ele>823.03002929688</ele>
        <time>2023-09-30T08:56:56.000Z</time>
      </trkpt>
      <trkpt lat="41.49158" lon="20.44037">
        <ele>823.98999023438</ele>
        <time>2023-09-30T08:56:55.000Z</time>
      </trkpt>
      <trkpt lat="41.49148" lon="20.44039">
        <ele>825.42999267578</ele>
        <time>2023-09-30T08:56:54.000Z</time>
      </trkpt>
      <trkpt lat="41.4914" lon="20.44041">
        <ele>826.39001464844</ele>
        <time>2023-09-30T08:56:53.000Z</time>
      </trkpt>
      <trkpt lat="41.49137" lon="20.44043">
        <ele>826.39001464844</ele>
        <time>2023-09-30T08:56:52.000Z</time>
      </trkpt>
      <trkpt lat="41.49133" lon="20.44044">
        <ele>826.86999511719</ele>
        <time>2023-09-30T08:56:51.000Z</time>
      </trkpt>
      <trkpt lat="41.49121" lon="20.4405">
        <ele>828.30999755859</ele>
        <time>2023-09-30T08:56:50.000Z</time>
      </trkpt>
      <trkpt lat="41.49115" lon="20.44054">
        <ele>828.78997802734</ele>
        <time>2023-09-30T08:56:49.000Z</time>
      </trkpt>
      <trkpt lat="41.49111" lon="20.44056">
        <ele>829.27001953125</ele>
        <time>2023-09-30T08:56:48.000Z</time>
      </trkpt>
      <trkpt lat="41.49105" lon="20.44059">
        <ele>829.27001953125</ele>
        <time>2023-09-30T08:56:47.000Z</time>
      </trkpt>
      <trkpt lat="41.49097" lon="20.44063">
        <ele>829.76000976562</ele>
        <time>2023-09-30T08:56:46.000Z</time>
      </trkpt>
      <trkpt lat="41.49094" lon="20.44064">
        <ele>829.76000976562</ele>
        <time>2023-09-30T08:56:45.000Z</time>
      </trkpt>
      <trkpt lat="41.49084" lon="20.44069">
        <ele>830.23999023438</ele>
        <time>2023-09-30T08:56:44.000Z</time>
      </trkpt>
      <trkpt lat="41.49079" lon="20.44071">
        <ele>830.23999023438</ele>
        <time>2023-09-30T08:56:43.000Z</time>
      </trkpt>
      <trkpt lat="41.49065" lon="20.44077">
        <ele>830.23999023438</ele>
        <time>2023-09-30T08:56:41.000Z</time>
      </trkpt>
      <trkpt lat="41.49023" lon="20.44092">
        <ele>829.27001953125</ele>
        <time>2023-09-30T08:56:37.000Z</time>
      </trkpt>
      <trkpt lat="41.49002" lon="20.44102">
        <ele>828.30999755859</ele>
        <time>2023-09-30T08:56:35.000Z</time>
      </trkpt>
      <trkpt lat="41.48994" lon="20.44104">
        <ele>828.30999755859</ele>
        <time>2023-09-30T08:56:34.000Z</time>
      </trkpt>
      <trkpt lat="41.48985" lon="20.44106">
        <ele>827.83001708984</ele>
        <time>2023-09-30T08:56:33.000Z</time>
      </trkpt>
      <trkpt lat="41.48977" lon="20.44107">
        <ele>827.83001708984</ele>
        <time>2023-09-30T08:56:32.000Z</time>
      </trkpt>
      <trkpt lat="41.48967" lon="20.44106">
        <ele>827.83001708984</ele>
        <time>2023-09-30T08:56:31.000Z</time>
      </trkpt>
      <trkpt lat="41.48947" lon="20.44104">
        <ele>827.83001708984</ele>
        <time>2023-09-30T08:56:29.000Z</time>
      </trkpt>
      <trkpt lat="41.48938" lon="20.44104">
        <ele>828.30999755859</ele>
        <time>2023-09-30T08:56:28.000Z</time>
      </trkpt>
      <trkpt lat="41.48899" lon="20.44106">
        <ele>830.23999023438</ele>
        <time>2023-09-30T08:56:24.000Z</time>
      </trkpt>
      <trkpt lat="41.48868" lon="20.44108">
        <ele>832.15997314453</ele>
        <time>2023-09-30T08:56:21.000Z</time>
      </trkpt>
      <trkpt lat="41.48859" lon="20.44108">
        <ele>832.64001464844</ele>
        <time>2023-09-30T08:56:20.000Z</time>
      </trkpt>
      <trkpt lat="41.48844" lon="20.4411">
        <ele>833.59997558594</ele>
        <time>2023-09-30T08:56:19.000Z</time>
      </trkpt>
      <trkpt lat="41.48827" lon="20.44112">
        <ele>834.08001708984</ele>
        <time>2023-09-30T08:56:17.000Z</time>
      </trkpt>
      <trkpt lat="41.48814" lon="20.44113">
        <ele>835.03997802734</ele>
        <time>2023-09-30T08:56:16.000Z</time>
      </trkpt>
      <trkpt lat="41.48809" lon="20.44114">
        <ele>835.03997802734</ele>
        <time>2023-09-30T08:56:15.000Z</time>
      </trkpt>
      <trkpt lat="41.48799" lon="20.44118">
        <ele>835.52001953125</ele>
        <time>2023-09-30T08:56:14.000Z</time>
      </trkpt>
      <trkpt lat="41.48792" lon="20.4412">
        <ele>836</ele>
        <time>2023-09-30T08:56:13.000Z</time>
      </trkpt>
      <trkpt lat="41.4879" lon="20.44121">
        <ele>836.47998046875</ele>
        <time>2023-09-30T08:56:12.000Z</time>
      </trkpt>
      <trkpt lat="41.48779" lon="20.44125">
        <ele>836.96002197266</ele>
        <time>2023-09-30T08:56:11.000Z</time>
      </trkpt>
      <trkpt lat="41.48776" lon="20.44127">
        <ele>837.45001220703</ele>
        <time>2023-09-30T08:56:10.000Z</time>
      </trkpt>
      <trkpt lat="41.48766" lon="20.4413">
        <ele>837.92999267578</ele>
        <time>2023-09-30T08:56:09.000Z</time>
      </trkpt>
      <trkpt lat="41.48763" lon="20.44132">
        <ele>837.92999267578</ele>
        <time>2023-09-30T08:56:08.000Z</time>
      </trkpt>
      <trkpt lat="41.48754" lon="20.44135">
        <ele>838.40997314453</ele>
        <time>2023-09-30T08:56:07.000Z</time>
      </trkpt>
      <trkpt lat="41.48741" lon="20.4414">
        <ele>838.89001464844</ele>
        <time>2023-09-30T08:56:05.000Z</time>
      </trkpt>
      <trkpt lat="41.48736" lon="20.44141">
        <ele>838.89001464844</ele>
        <time>2023-09-30T08:56:04.000Z</time>
      </trkpt>
      <trkpt lat="41.48721" lon="20.44145">
        <ele>838.89001464844</ele>
        <time>2023-09-30T08:56:02.000Z</time>
      </trkpt>
      <trkpt lat="41.48712" lon="20.44147">
        <ele>838.89001464844</ele>
        <time>2023-09-30T08:56:01.000Z</time>
      </trkpt>
      <trkpt lat="41.48708" lon="20.44149">
        <ele>838.89001464844</ele>
        <time>2023-09-30T08:56:00.000Z</time>
      </trkpt>
      <trkpt lat="41.48705" lon="20.4415">
        <ele>838.89001464844</ele>
        <time>2023-09-30T08:55:59.000Z</time>
      </trkpt>
      <trkpt lat="41.48698" lon="20.44153">
        <ele>838.40997314453</ele>
        <time>2023-09-30T08:55:58.000Z</time>
      </trkpt>
      <trkpt lat="41.48679" lon="20.44162">
        <ele>838.40997314453</ele>
        <time>2023-09-30T08:55:56.000Z</time>
      </trkpt>
      <trkpt lat="41.48674" lon="20.44164">
        <ele>838.40997314453</ele>
        <time>2023-09-30T08:55:55.000Z</time>
      </trkpt>
      <trkpt lat="41.4865" lon="20.44171">
        <ele>838.40997314453</ele>
        <time>2023-09-30T08:55:52.000Z</time>
      </trkpt>
      <trkpt lat="41.48641" lon="20.44174">
        <ele>838.40997314453</ele>
        <time>2023-09-30T08:55:51.000Z</time>
      </trkpt>
      <trkpt lat="41.48635" lon="20.44177">
        <ele>838.40997314453</ele>
        <time>2023-09-30T08:55:50.000Z</time>
      </trkpt>
      <trkpt lat="41.48632" lon="20.44178">
        <ele>838.40997314453</ele>
        <time>2023-09-30T08:55:49.000Z</time>
      </trkpt>
      <trkpt lat="41.48615" lon="20.44183">
        <ele>839.36999511719</ele>
        <time>2023-09-30T08:55:48.000Z</time>
      </trkpt>
      <trkpt lat="41.48603" lon="20.44186">
        <ele>839.84997558594</ele>
        <time>2023-09-30T08:55:46.000Z</time>
      </trkpt>
      <trkpt lat="41.48582" lon="20.4419">
        <ele>840.80999755859</ele>
        <time>2023-09-30T08:55:44.000Z</time>
      </trkpt>
      <trkpt lat="41.48576" lon="20.4419">
        <ele>841.77001953125</ele>
        <time>2023-09-30T08:55:43.000Z</time>
      </trkpt>
      <trkpt lat="41.48565" lon="20.44191">
        <ele>842.25</ele>
        <time>2023-09-30T08:55:42.000Z</time>
      </trkpt>
      <trkpt lat="41.48552" lon="20.44191">
        <ele>843.69000244141</ele>
        <time>2023-09-30T08:55:41.000Z</time>
      </trkpt>
      <trkpt lat="41.48543" lon="20.44191">
        <ele>844.17999267578</ele>
        <time>2023-09-30T08:55:40.000Z</time>
      </trkpt>
      <trkpt lat="41.48533" lon="20.44189">
        <ele>844.65997314453</ele>
        <time>2023-09-30T08:55:39.000Z</time>
      </trkpt>
      <trkpt lat="41.48525" lon="20.44186">
        <ele>845.14001464844</ele>
        <time>2023-09-30T08:55:38.000Z</time>
      </trkpt>
      <trkpt lat="41.48515" lon="20.44182">
        <ele>846.09997558594</ele>
        <time>2023-09-30T08:55:37.000Z</time>
      </trkpt>
      <trkpt lat="41.48478" lon="20.4416">
        <ele>848.5</ele>
        <time>2023-09-30T08:55:33.000Z</time>
      </trkpt>
      <trkpt lat="41.48464" lon="20.44155">
        <ele>849.46002197266</ele>
        <time>2023-09-30T08:55:32.000Z</time>
      </trkpt>
      <trkpt lat="41.48452" lon="20.44151">
        <ele>850.41998291016</ele>
        <time>2023-09-30T08:55:31.000Z</time>
      </trkpt>
      <trkpt lat="41.4844" lon="20.44149">
        <ele>850.90002441406</ele>
        <time>2023-09-30T08:55:30.000Z</time>
      </trkpt>
      <trkpt lat="41.48429" lon="20.44149">
        <ele>851.86999511719</ele>
        <time>2023-09-30T08:55:29.000Z</time>
      </trkpt>
      <trkpt lat="41.48418" lon="20.4415">
        <ele>852.34997558594</ele>
        <time>2023-09-30T08:55:28.000Z</time>
      </trkpt>
      <trkpt lat="41.48413" lon="20.44151">
        <ele>852.34997558594</ele>
        <time>2023-09-30T08:55:27.000Z</time>
      </trkpt>
      <trkpt lat="41.484" lon="20.44154">
        <ele>852.34997558594</ele>
        <time>2023-09-30T08:55:26.000Z</time>
      </trkpt>
      <trkpt lat="41.48379" lon="20.44157">
        <ele>852.34997558594</ele>
        <time>2023-09-30T08:55:24.000Z</time>
      </trkpt>
      <trkpt lat="41.48353" lon="20.4416">
        <ele>851.86999511719</ele>
        <time>2023-09-30T08:55:22.000Z</time>
      </trkpt>
      <trkpt lat="41.48334" lon="20.44161">
        <ele>851.86999511719</ele>
        <time>2023-09-30T08:55:21.000Z</time>
      </trkpt>
      <trkpt lat="41.48323" lon="20.44161">
        <ele>851.38000488281</ele>
        <time>2023-09-30T08:55:20.000Z</time>
      </trkpt>
      <trkpt lat="41.48309" lon="20.44158">
        <ele>850.90002441406</ele>
        <time>2023-09-30T08:55:19.000Z</time>
      </trkpt>
      <trkpt lat="41.48287" lon="20.44153">
        <ele>850.41998291016</ele>
        <time>2023-09-30T08:55:17.000Z</time>
      </trkpt>
      <trkpt lat="41.48276" lon="20.44152">
        <ele>849.46002197266</ele>
        <time>2023-09-30T08:55:16.000Z</time>
      </trkpt>
      <trkpt lat="41.48267" lon="20.44154">
        <ele>848.97998046875</ele>
        <time>2023-09-30T08:55:15.000Z</time>
      </trkpt>
      <trkpt lat="41.48254" lon="20.44157">
        <ele>848.5</ele>
        <time>2023-09-30T08:55:14.000Z</time>
      </trkpt>
      <trkpt lat="41.48242" lon="20.4416">
        <ele>848.02001953125</ele>
        <time>2023-09-30T08:55:13.000Z</time>
      </trkpt>
      <trkpt lat="41.48232" lon="20.4416">
        <ele>847.53997802734</ele>
        <time>2023-09-30T08:55:12.000Z</time>
      </trkpt>
      <trkpt lat="41.48222" lon="20.44159">
        <ele>847.53997802734</ele>
        <time>2023-09-30T08:55:11.000Z</time>
      </trkpt>
      <trkpt lat="41.48212" lon="20.44156">
        <ele>847.05999755859</ele>
        <time>2023-09-30T08:55:10.000Z</time>
      </trkpt>
      <trkpt lat="41.482" lon="20.4415">
        <ele>847.05999755859</ele>
        <time>2023-09-30T08:55:09.000Z</time>
      </trkpt>
      <trkpt lat="41.48194" lon="20.44145">
        <ele>847.05999755859</ele>
        <time>2023-09-30T08:55:08.000Z</time>
      </trkpt>
      <trkpt lat="41.48172" lon="20.44124">
        <ele>848.02001953125</ele>
        <time>2023-09-30T08:55:06.000Z</time>
      </trkpt>
      <trkpt lat="41.48164" lon="20.44116">
        <ele>848.5</ele>
        <time>2023-09-30T08:55:05.000Z</time>
      </trkpt>
      <trkpt lat="41.48155" lon="20.4411">
        <ele>848.97998046875</ele>
        <time>2023-09-30T08:55:04.000Z</time>
      </trkpt>
      <trkpt lat="41.48145" lon="20.44106">
        <ele>849.46002197266</ele>
        <time>2023-09-30T08:55:03.000Z</time>
      </trkpt>
      <trkpt lat="41.48136" lon="20.44104">
        <ele>849.94000244141</ele>
        <time>2023-09-30T08:55:02.000Z</time>
      </trkpt>
      <trkpt lat="41.48111" lon="20.44102">
        <ele>850.90002441406</ele>
        <time>2023-09-30T08:55:00.000Z</time>
      </trkpt>
      <trkpt lat="41.48101" lon="20.44101">
        <ele>850.90002441406</ele>
        <time>2023-09-30T08:54:59.000Z</time>
      </trkpt>
      <trkpt lat="41.48089" lon="20.44099">
        <ele>851.38000488281</ele>
        <time>2023-09-30T08:54:58.000Z</time>
      </trkpt>
      <trkpt lat="41.48082" lon="20.44098">
        <ele>851.38000488281</ele>
        <time>2023-09-30T08:54:57.000Z</time>
      </trkpt>
      <trkpt lat="41.48068" lon="20.44094">
        <ele>851.86999511719</ele>
        <time>2023-09-30T08:54:56.000Z</time>
      </trkpt>
      <trkpt lat="41.48056" lon="20.44092">
        <ele>851.86999511719</ele>
        <time>2023-09-30T08:54:55.000Z</time>
      </trkpt>
      <trkpt lat="41.48033" lon="20.44091">
        <ele>851.86999511719</ele>
        <time>2023-09-30T08:54:53.000Z</time>
      </trkpt>
      <trkpt lat="41.48026" lon="20.4409">
        <ele>851.86999511719</ele>
        <time>2023-09-30T08:54:52.000Z</time>
      </trkpt>
      <trkpt lat="41.48017" lon="20.44089">
        <ele>851.86999511719</ele>
        <time>2023-09-30T08:54:51.000Z</time>
      </trkpt>
      <trkpt lat="41.48004" lon="20.44087">
        <ele>851.86999511719</ele>
        <time>2023-09-30T08:54:50.000Z</time>
      </trkpt>
      <trkpt lat="41.47997" lon="20.44086">
        <ele>851.86999511719</ele>
        <time>2023-09-30T08:54:49.000Z</time>
      </trkpt>
      <trkpt lat="41.47984" lon="20.44082">
        <ele>851.86999511719</ele>
        <time>2023-09-30T08:54:48.000Z</time>
      </trkpt>
      <trkpt lat="41.4797" lon="20.4408">
        <ele>851.86999511719</ele>
        <time>2023-09-30T08:54:46.000Z</time>
      </trkpt>
      <trkpt lat="41.47956" lon="20.44079">
        <ele>851.86999511719</ele>
        <time>2023-09-30T08:54:45.000Z</time>
      </trkpt>
      <trkpt lat="41.47928" lon="20.4408">
        <ele>851.38000488281</ele>
        <time>2023-09-30T08:54:43.000Z</time>
      </trkpt>
      <trkpt lat="41.47916" lon="20.44081">
        <ele>851.38000488281</ele>
        <time>2023-09-30T08:54:42.000Z</time>
      </trkpt>
      <trkpt lat="41.47896" lon="20.44084">
        <ele>850.90002441406</ele>
        <time>2023-09-30T08:54:40.000Z</time>
      </trkpt>
      <trkpt lat="41.47881" lon="20.44088">
        <ele>850.90002441406</ele>
        <time>2023-09-30T08:54:39.000Z</time>
      </trkpt>
      <trkpt lat="41.47872" lon="20.4409">
        <ele>850.41998291016</ele>
        <time>2023-09-30T08:54:38.000Z</time>
      </trkpt>
      <trkpt lat="41.47861" lon="20.44094">
        <ele>850.41998291016</ele>
        <time>2023-09-30T08:54:37.000Z</time>
      </trkpt>
      <trkpt lat="41.47854" lon="20.44097">
        <ele>850.41998291016</ele>
        <time>2023-09-30T08:54:36.000Z</time>
      </trkpt>
      <trkpt lat="41.47844" lon="20.44101">
        <ele>850.41998291016</ele>
        <time>2023-09-30T08:54:35.000Z</time>
      </trkpt>
      <trkpt lat="41.47837" lon="20.44102">
        <ele>850.41998291016</ele>
        <time>2023-09-30T08:54:34.000Z</time>
      </trkpt>
      <trkpt lat="41.47832" lon="20.44103">
        <ele>850.41998291016</ele>
        <time>2023-09-30T08:54:33.000Z</time>
      </trkpt>
      <trkpt lat="41.47825" lon="20.44104">
        <ele>849.94000244141</ele>
        <time>2023-09-30T08:54:32.000Z</time>
      </trkpt>
      <trkpt lat="41.47822" lon="20.44104">
        <ele>849.94000244141</ele>
        <time>2023-09-30T08:54:31.000Z</time>
      </trkpt>
      <trkpt lat="41.47813" lon="20.44104">
        <ele>849.94000244141</ele>
        <time>2023-09-30T08:54:30.000Z</time>
      </trkpt>
      <trkpt lat="41.47805" lon="20.44104">
        <ele>849.94000244141</ele>
        <time>2023-09-30T08:54:29.000Z</time>
      </trkpt>
      <trkpt lat="41.47797" lon="20.44102">
        <ele>849.46002197266</ele>
        <time>2023-09-30T08:54:28.000Z</time>
      </trkpt>
      <trkpt lat="41.47789" lon="20.44101">
        <ele>849.46002197266</ele>
        <time>2023-09-30T08:54:27.000Z</time>
      </trkpt>
      <trkpt lat="41.47783" lon="20.44099">
        <ele>849.46002197266</ele>
        <time>2023-09-30T08:54:26.000Z</time>
      </trkpt>
      <trkpt lat="41.47774" lon="20.44098">
        <ele>848.97998046875</ele>
        <time>2023-09-30T08:54:25.000Z</time>
      </trkpt>
      <trkpt lat="41.47733" lon="20.44095">
        <ele>848.02001953125</ele>
        <time>2023-09-30T08:54:22.000Z</time>
      </trkpt>
      <trkpt lat="41.4772" lon="20.44096">
        <ele>847.53997802734</ele>
        <time>2023-09-30T08:54:21.000Z</time>
      </trkpt>
      <trkpt lat="41.4771" lon="20.44098">
        <ele>847.05999755859</ele>
        <time>2023-09-30T08:54:20.000Z</time>
      </trkpt>
      <trkpt lat="41.47695" lon="20.44102">
        <ele>846.58001708984</ele>
        <time>2023-09-30T08:54:19.000Z</time>
      </trkpt>
      <trkpt lat="41.47683" lon="20.44108">
        <ele>846.09997558594</ele>
        <time>2023-09-30T08:54:18.000Z</time>
      </trkpt>
      <trkpt lat="41.47674" lon="20.44113">
        <ele>845.61999511719</ele>
        <time>2023-09-30T08:54:17.000Z</time>
      </trkpt>
      <trkpt lat="41.47663" lon="20.44123">
        <ele>844.65997314453</ele>
        <time>2023-09-30T08:54:16.000Z</time>
      </trkpt>
      <trkpt lat="41.47655" lon="20.44132">
        <ele>844.65997314453</ele>
        <time>2023-09-30T08:54:15.000Z</time>
      </trkpt>
      <trkpt lat="41.47651" lon="20.44137">
        <ele>844.17999267578</ele>
        <time>2023-09-30T08:54:14.000Z</time>
      </trkpt>
      <trkpt lat="41.47633" lon="20.44162">
        <ele>843.21002197266</ele>
        <time>2023-09-30T08:54:12.000Z</time>
      </trkpt>
      <trkpt lat="41.47583" lon="20.44231">
        <ele>838.40997314453</ele>
        <time>2023-09-30T08:54:06.000Z</time>
      </trkpt>
      <trkpt lat="41.47574" lon="20.44245">
        <ele>837.45001220703</ele>
        <time>2023-09-30T08:54:05.000Z</time>
      </trkpt>
      <trkpt lat="41.47565" lon="20.44259">
        <ele>836.47998046875</ele>
        <time>2023-09-30T08:54:04.000Z</time>
      </trkpt>
      <trkpt lat="41.47561" lon="20.44265">
        <ele>836</ele>
        <time>2023-09-30T08:54:03.000Z</time>
      </trkpt>
      <trkpt lat="41.47525" lon="20.44316">
        <ele>836.47998046875</ele>
        <time>2023-09-30T08:53:59.000Z</time>
      </trkpt>
      <trkpt lat="41.475" lon="20.44343">
        <ele>837.92999267578</ele>
        <time>2023-09-30T08:53:57.000Z</time>
      </trkpt>
      <trkpt lat="41.47485" lon="20.44359">
        <ele>839.36999511719</ele>
        <time>2023-09-30T08:53:55.000Z</time>
      </trkpt>
      <trkpt lat="41.4747" lon="20.44375">
        <ele>840.33001708984</ele>
        <time>2023-09-30T08:53:54.000Z</time>
      </trkpt>
      <trkpt lat="41.47455" lon="20.44392">
        <ele>841.77001953125</ele>
        <time>2023-09-30T08:53:52.000Z</time>
      </trkpt>
      <trkpt lat="41.4744" lon="20.44411">
        <ele>843.21002197266</ele>
        <time>2023-09-30T08:53:51.000Z</time>
      </trkpt>
      <trkpt lat="41.47429" lon="20.44423">
        <ele>844.17999267578</ele>
        <time>2023-09-30T08:53:50.000Z</time>
      </trkpt>
      <trkpt lat="41.47415" lon="20.44437">
        <ele>845.61999511719</ele>
        <time>2023-09-30T08:53:48.000Z</time>
      </trkpt>
      <trkpt lat="41.47404" lon="20.44448">
        <ele>846.58001708984</ele>
        <time>2023-09-30T08:53:47.000Z</time>
      </trkpt>
      <trkpt lat="41.47385" lon="20.44468">
        <ele>848.5</ele>
        <time>2023-09-30T08:53:45.000Z</time>
      </trkpt>
      <trkpt lat="41.47376" lon="20.44477">
        <ele>849.46002197266</ele>
        <time>2023-09-30T08:53:44.000Z</time>
      </trkpt>
      <trkpt lat="41.47368" lon="20.44487">
        <ele>849.94000244141</ele>
        <time>2023-09-30T08:53:43.000Z</time>
      </trkpt>
      <trkpt lat="41.47362" lon="20.44495">
        <ele>850.90002441406</ele>
        <time>2023-09-30T08:53:42.000Z</time>
      </trkpt>
      <trkpt lat="41.47358" lon="20.44504">
        <ele>851.38000488281</ele>
        <time>2023-09-30T08:53:41.000Z</time>
      </trkpt>
      <trkpt lat="41.47356" lon="20.44512">
        <ele>851.38000488281</ele>
        <time>2023-09-30T08:53:40.000Z</time>
      </trkpt>
      <trkpt lat="41.47356" lon="20.44521">
        <ele>851.38000488281</ele>
        <time>2023-09-30T08:53:39.000Z</time>
      </trkpt>
      <trkpt lat="41.47358" lon="20.44531">
        <ele>851.86999511719</ele>
        <time>2023-09-30T08:53:38.000Z</time>
      </trkpt>
      <trkpt lat="41.47361" lon="20.44539">
        <ele>852.34997558594</ele>
        <time>2023-09-30T08:53:37.000Z</time>
      </trkpt>
      <trkpt lat="41.47364" lon="20.44547">
        <ele>852.83001708984</ele>
        <time>2023-09-30T08:53:36.000Z</time>
      </trkpt>
      <trkpt lat="41.47369" lon="20.44553">
        <ele>853.30999755859</ele>
        <time>2023-09-30T08:53:35.000Z</time>
      </trkpt>
      <trkpt lat="41.47374" lon="20.44559">
        <ele>853.78997802734</ele>
        <time>2023-09-30T08:53:34.000Z</time>
      </trkpt>
      <trkpt lat="41.4738" lon="20.44565">
        <ele>854.27001953125</ele>
        <time>2023-09-30T08:53:33.000Z</time>
      </trkpt>
      <trkpt lat="41.47386" lon="20.44571">
        <ele>854.75</ele>
        <time>2023-09-30T08:53:32.000Z</time>
      </trkpt>
      <trkpt lat="41.47392" lon="20.44579">
        <ele>855.71002197266</ele>
        <time>2023-09-30T08:53:31.000Z</time>
      </trkpt>
      <trkpt lat="41.47397" lon="20.44588">
        <ele>856.19000244141</ele>
        <time>2023-09-30T08:53:30.000Z</time>
      </trkpt>
      <trkpt lat="41.47402" lon="20.44597">
        <ele>857.15002441406</ele>
        <time>2023-09-30T08:53:29.000Z</time>
      </trkpt>
      <trkpt lat="41.47406" lon="20.4461">
        <ele>857.63000488281</ele>
        <time>2023-09-30T08:53:28.000Z</time>
      </trkpt>
      <trkpt lat="41.47409" lon="20.44622">
        <ele>858.59002685547</ele>
        <time>2023-09-30T08:53:27.000Z</time>
      </trkpt>
      <trkpt lat="41.47411" lon="20.44635">
        <ele>859.55999755859</ele>
        <time>2023-09-30T08:53:26.000Z</time>
      </trkpt>
      <trkpt lat="41.47414" lon="20.44651">
        <ele>860.52001953125</ele>
        <time>2023-09-30T08:53:25.000Z</time>
      </trkpt>
      <trkpt lat="41.47414" lon="20.44665">
        <ele>861</ele>
        <time>2023-09-30T08:53:24.000Z</time>
      </trkpt>
      <trkpt lat="41.47414" lon="20.4468">
        <ele>861.47998046875</ele>
        <time>2023-09-30T08:53:23.000Z</time>
      </trkpt>
      <trkpt lat="41.47414" lon="20.44697">
        <ele>861.96002197266</ele>
        <time>2023-09-30T08:53:22.000Z</time>
      </trkpt>
      <trkpt lat="41.47414" lon="20.44712">
        <ele>862.91998291016</ele>
        <time>2023-09-30T08:53:21.000Z</time>
      </trkpt>
      <trkpt lat="41.47414" lon="20.44723">
        <ele>863.40002441406</ele>
        <time>2023-09-30T08:53:20.000Z</time>
      </trkpt>
      <trkpt lat="41.47413" lon="20.44745">
        <ele>864.35998535156</ele>
        <time>2023-09-30T08:53:19.000Z</time>
      </trkpt>
      <trkpt lat="41.47411" lon="20.44757">
        <ele>864.84002685547</ele>
        <time>2023-09-30T08:53:18.000Z</time>
      </trkpt>
      <trkpt lat="41.47408" lon="20.44773">
        <ele>865.79998779297</ele>
        <time>2023-09-30T08:53:17.000Z</time>
      </trkpt>
      <trkpt lat="41.47407" lon="20.4478">
        <ele>866.28997802734</ele>
        <time>2023-09-30T08:53:16.000Z</time>
      </trkpt>
      <trkpt lat="41.47404" lon="20.4479">
        <ele>866.28997802734</ele>
        <time>2023-09-30T08:53:15.000Z</time>
      </trkpt>
      <trkpt lat="41.47394" lon="20.44827">
        <ele>868.21002197266</ele>
        <time>2023-09-30T08:53:13.000Z</time>
      </trkpt>
      <trkpt lat="41.47393" lon="20.44839">
        <ele>868.21002197266</ele>
        <time>2023-09-30T08:53:12.000Z</time>
      </trkpt>
      <trkpt lat="41.47392" lon="20.44849">
        <ele>869.16998291016</ele>
        <time>2023-09-30T08:53:11.000Z</time>
      </trkpt>
      <trkpt lat="41.47393" lon="20.44861">
        <ele>869.65002441406</ele>
        <time>2023-09-30T08:53:10.000Z</time>
      </trkpt>
      <trkpt lat="41.47394" lon="20.4487">
        <ele>870.13000488281</ele>
        <time>2023-09-30T08:53:09.000Z</time>
      </trkpt>
      <trkpt lat="41.47395" lon="20.44876">
        <ele>870.13000488281</ele>
        <time>2023-09-30T08:53:08.000Z</time>
      </trkpt>
      <trkpt lat="41.47398" lon="20.44893">
        <ele>871.57000732422</ele>
        <time>2023-09-30T08:53:07.000Z</time>
      </trkpt>
      <trkpt lat="41.47401" lon="20.44907">
        <ele>872.53002929688</ele>
        <time>2023-09-30T08:53:06.000Z</time>
      </trkpt>
      <trkpt lat="41.47403" lon="20.44918">
        <ele>873.01000976562</ele>
        <time>2023-09-30T08:53:05.000Z</time>
      </trkpt>
      <trkpt lat="41.47403" lon="20.44928">
        <ele>873.97998046875</ele>
        <time>2023-09-30T08:53:04.000Z</time>
      </trkpt>
      <trkpt lat="41.47403" lon="20.44941">
        <ele>874.46002197266</ele>
        <time>2023-09-30T08:53:03.000Z</time>
      </trkpt>
      <trkpt lat="41.47401" lon="20.44952">
        <ele>874.94000244141</ele>
        <time>2023-09-30T08:53:02.000Z</time>
      </trkpt>
      <trkpt lat="41.47398" lon="20.44961">
        <ele>875.41998291016</ele>
        <time>2023-09-30T08:53:01.000Z</time>
      </trkpt>
      <trkpt lat="41.47393" lon="20.4497">
        <ele>875.90002441406</ele>
        <time>2023-09-30T08:53:00.000Z</time>
      </trkpt>
      <trkpt lat="41.47388" lon="20.44981">
        <ele>876.85998535156</ele>
        <time>2023-09-30T08:52:59.000Z</time>
      </trkpt>
      <trkpt lat="41.47386" lon="20.44986">
        <ele>876.85998535156</ele>
        <time>2023-09-30T08:52:58.000Z</time>
      </trkpt>
      <trkpt lat="41.47378" lon="20.45013">
        <ele>878.29998779297</ele>
        <time>2023-09-30T08:52:56.000Z</time>
      </trkpt>
      <trkpt lat="41.47371" lon="20.45038">
        <ele>880.21997070312</ele>
        <time>2023-09-30T08:52:54.000Z</time>
      </trkpt>
      <trkpt lat="41.47367" lon="20.45053">
        <ele>881.19000244141</ele>
        <time>2023-09-30T08:52:53.000Z</time>
      </trkpt>
      <trkpt lat="41.4736" lon="20.45077">
        <ele>882.63000488281</ele>
        <time>2023-09-30T08:52:51.000Z</time>
      </trkpt>
      <trkpt lat="41.47356" lon="20.45091">
        <ele>883.59002685547</ele>
        <time>2023-09-30T08:52:50.000Z</time>
      </trkpt>
      <trkpt lat="41.47355" lon="20.45102">
        <ele>884.54998779297</ele>
        <time>2023-09-30T08:52:49.000Z</time>
      </trkpt>
      <trkpt lat="41.47355" lon="20.45112">
        <ele>885.03002929688</ele>
        <time>2023-09-30T08:52:48.000Z</time>
      </trkpt>
      <trkpt lat="41.47356" lon="20.45121">
        <ele>885.51000976562</ele>
        <time>2023-09-30T08:52:47.000Z</time>
      </trkpt>
      <trkpt lat="41.47358" lon="20.45132">
        <ele>886.46997070312</ele>
        <time>2023-09-30T08:52:46.000Z</time>
      </trkpt>
      <trkpt lat="41.47359" lon="20.45141">
        <ele>886.95001220703</ele>
        <time>2023-09-30T08:52:45.000Z</time>
      </trkpt>
      <trkpt lat="41.4736" lon="20.45153">
        <ele>887.42999267578</ele>
        <time>2023-09-30T08:52:44.000Z</time>
      </trkpt>
      <trkpt lat="41.4736" lon="20.45165">
        <ele>887.90997314453</ele>
        <time>2023-09-30T08:52:43.000Z</time>
      </trkpt>
      <trkpt lat="41.47359" lon="20.45177">
        <ele>888.88000488281</ele>
        <time>2023-09-30T08:52:42.000Z</time>
      </trkpt>
      <trkpt lat="41.47357" lon="20.45191">
        <ele>889.35998535156</ele>
        <time>2023-09-30T08:52:41.000Z</time>
      </trkpt>
      <trkpt lat="41.47354" lon="20.45204">
        <ele>890.32000732422</ele>
        <time>2023-09-30T08:52:40.000Z</time>
      </trkpt>
      <trkpt lat="41.4735" lon="20.45216">
        <ele>890.79998779297</ele>
        <time>2023-09-30T08:52:39.000Z</time>
      </trkpt>
      <trkpt lat="41.47345" lon="20.45228">
        <ele>891.28002929688</ele>
        <time>2023-09-30T08:52:38.000Z</time>
      </trkpt>
      <trkpt lat="41.47339" lon="20.45239">
        <ele>891.76000976562</ele>
        <time>2023-09-30T08:52:37.000Z</time>
      </trkpt>
      <trkpt lat="41.47333" lon="20.45247">
        <ele>892.23999023438</ele>
        <time>2023-09-30T08:52:36.000Z</time>
      </trkpt>
      <trkpt lat="41.47325" lon="20.45255">
        <ele>892.71997070312</ele>
        <time>2023-09-30T08:52:35.000Z</time>
      </trkpt>
      <trkpt lat="41.47323" lon="20.45257">
        <ele>893.20001220703</ele>
        <time>2023-09-30T08:52:34.000Z</time>
      </trkpt>
      <trkpt lat="41.47308" lon="20.45269">
        <ele>894.64001464844</ele>
        <time>2023-09-30T08:52:33.000Z</time>
      </trkpt>
      <trkpt lat="41.47299" lon="20.45277">
        <ele>896.09002685547</ele>
        <time>2023-09-30T08:52:32.000Z</time>
      </trkpt>
      <trkpt lat="41.47294" lon="20.45282">
        <ele>896.57000732422</ele>
        <time>2023-09-30T08:52:31.000Z</time>
      </trkpt>
      <trkpt lat="41.47286" lon="20.45291">
        <ele>897.53002929688</ele>
        <time>2023-09-30T08:52:30.000Z</time>
      </trkpt>
      <trkpt lat="41.47281" lon="20.45299">
        <ele>898.48999023438</ele>
        <time>2023-09-30T08:52:29.000Z</time>
      </trkpt>
      <trkpt lat="41.47278" lon="20.45309">
        <ele>898.96997070312</ele>
        <time>2023-09-30T08:52:28.000Z</time>
      </trkpt>
      <trkpt lat="41.47275" lon="20.45321">
        <ele>899.45001220703</ele>
        <time>2023-09-30T08:52:27.000Z</time>
      </trkpt>
      <trkpt lat="41.47271" lon="20.45333">
        <ele>900.40997314453</ele>
        <time>2023-09-30T08:52:26.000Z</time>
      </trkpt>
      <trkpt lat="41.4727" lon="20.45337">
        <ele>900.89001464844</ele>
        <time>2023-09-30T08:52:25.000Z</time>
      </trkpt>
      <trkpt lat="41.47257" lon="20.45369">
        <ele>903.29998779297</ele>
        <time>2023-09-30T08:52:23.000Z</time>
      </trkpt>
      <trkpt lat="41.47252" lon="20.45377">
        <ele>903.78002929688</ele>
        <time>2023-09-30T08:52:22.000Z</time>
      </trkpt>
      <trkpt lat="41.47246" lon="20.45386">
        <ele>904.73999023438</ele>
        <time>2023-09-30T08:52:21.000Z</time>
      </trkpt>
      <trkpt lat="41.4724" lon="20.45393">
        <ele>905.70001220703</ele>
        <time>2023-09-30T08:52:20.000Z</time>
      </trkpt>
      <trkpt lat="41.47234" lon="20.45398">
        <ele>906.17999267578</ele>
        <time>2023-09-30T08:52:19.000Z</time>
      </trkpt>
      <trkpt lat="41.47227" lon="20.45402">
        <ele>907.14001464844</ele>
        <time>2023-09-30T08:52:18.000Z</time>
      </trkpt>
      <trkpt lat="41.4722" lon="20.45404">
        <ele>907.61999511719</ele>
        <time>2023-09-30T08:52:17.000Z</time>
      </trkpt>
      <trkpt lat="41.47211" lon="20.45405">
        <ele>908.09997558594</ele>
        <time>2023-09-30T08:52:16.000Z</time>
      </trkpt>
      <trkpt lat="41.47203" lon="20.45406">
        <ele>909.05999755859</ele>
        <time>2023-09-30T08:52:15.000Z</time>
      </trkpt>
      <trkpt lat="41.47194" lon="20.45405">
        <ele>909.53997802734</ele>
        <time>2023-09-30T08:52:14.000Z</time>
      </trkpt>
      <trkpt lat="41.47184" lon="20.45401">
        <ele>910.51000976562</ele>
        <time>2023-09-30T08:52:13.000Z</time>
      </trkpt>
      <trkpt lat="41.47174" lon="20.45395">
        <ele>911.46997070312</ele>
        <time>2023-09-30T08:52:12.000Z</time>
      </trkpt>
      <trkpt lat="41.47164" lon="20.45389">
        <ele>912.42999267578</ele>
        <time>2023-09-30T08:52:11.000Z</time>
      </trkpt>
      <trkpt lat="41.47154" lon="20.45381">
        <ele>912.90997314453</ele>
        <time>2023-09-30T08:52:10.000Z</time>
      </trkpt>
      <trkpt lat="41.47144" lon="20.45375">
        <ele>913.39001464844</ele>
        <time>2023-09-30T08:52:09.000Z</time>
      </trkpt>
      <trkpt lat="41.47133" lon="20.45369">
        <ele>913.86999511719</ele>
        <time>2023-09-30T08:52:08.000Z</time>
      </trkpt>
      <trkpt lat="41.47123" lon="20.45364">
        <ele>914.34997558594</ele>
        <time>2023-09-30T08:52:07.000Z</time>
      </trkpt>
      <trkpt lat="41.4708" lon="20.45339">
        <ele>915.30999755859</ele>
        <time>2023-09-30T08:52:03.000Z</time>
      </trkpt>
      <trkpt lat="41.4707" lon="20.45335">
        <ele>915.30999755859</ele>
        <time>2023-09-30T08:52:02.000Z</time>
      </trkpt>
      <trkpt lat="41.47061" lon="20.45333">
        <ele>915.78997802734</ele>
        <time>2023-09-30T08:52:01.000Z</time>
      </trkpt>
      <trkpt lat="41.47052" lon="20.45334">
        <ele>916.27001953125</ele>
        <time>2023-09-30T08:52:00.000Z</time>
      </trkpt>
      <trkpt lat="41.47044" lon="20.45336">
        <ele>916.75</ele>
        <time>2023-09-30T08:51:59.000Z</time>
      </trkpt>
      <trkpt lat="41.47036" lon="20.4534">
        <ele>917.23999023438</ele>
        <time>2023-09-30T08:51:58.000Z</time>
      </trkpt>
      <trkpt lat="41.47028" lon="20.45346">
        <ele>917.71997070312</ele>
        <time>2023-09-30T08:51:57.000Z</time>
      </trkpt>
      <trkpt lat="41.47019" lon="20.45353">
        <ele>919.15997314453</ele>
        <time>2023-09-30T08:51:56.000Z</time>
      </trkpt>
      <trkpt lat="41.47012" lon="20.45357">
        <ele>919.64001464844</ele>
        <time>2023-09-30T08:51:55.000Z</time>
      </trkpt>
      <trkpt lat="41.47002" lon="20.45362">
        <ele>920.11999511719</ele>
        <time>2023-09-30T08:51:54.000Z</time>
      </trkpt>
      <trkpt lat="41.46993" lon="20.45367">
        <ele>920.59997558594</ele>
        <time>2023-09-30T08:51:53.000Z</time>
      </trkpt>
      <trkpt lat="41.46987" lon="20.45369">
        <ele>921.08001708984</ele>
        <time>2023-09-30T08:51:52.000Z</time>
      </trkpt>
      <trkpt lat="41.46975" lon="20.45374">
        <ele>922.03997802734</ele>
        <time>2023-09-30T08:51:51.000Z</time>
      </trkpt>
      <trkpt lat="41.46946" lon="20.45382">
        <ele>923</ele>
        <time>2023-09-30T08:51:48.000Z</time>
      </trkpt>
      <trkpt lat="41.46939" lon="20.45384">
        <ele>923</ele>
        <time>2023-09-30T08:51:47.000Z</time>
      </trkpt>
      <trkpt lat="41.46934" lon="20.45385">
        <ele>923.47998046875</ele>
        <time>2023-09-30T08:51:46.000Z</time>
      </trkpt>
      <trkpt lat="41.46931" lon="20.45386">
        <ele>923.47998046875</ele>
        <time>2023-09-30T08:51:45.000Z</time>
      </trkpt>
      <trkpt lat="41.46914" lon="20.45391">
        <ele>923.96002197266</ele>
        <time>2023-09-30T08:51:43.000Z</time>
      </trkpt>
      <trkpt lat="41.46912" lon="20.45392">
        <ele>923.96002197266</ele>
        <time>2023-09-30T08:51:42.000Z</time>
      </trkpt>
      <trkpt lat="41.46903" lon="20.45393">
        <ele>924.45001220703</ele>
        <time>2023-09-30T08:51:41.000Z</time>
      </trkpt>
      <trkpt lat="41.46899" lon="20.45394">
        <ele>924.92999267578</ele>
        <time>2023-09-30T08:51:40.000Z</time>
      </trkpt>
      <trkpt lat="41.46895" lon="20.45396">
        <ele>924.92999267578</ele>
        <time>2023-09-30T08:51:39.000Z</time>
      </trkpt>
      <trkpt lat="41.46892" lon="20.45397">
        <ele>925.40997314453</ele>
        <time>2023-09-30T08:51:38.000Z</time>
      </trkpt>
      <trkpt lat="41.46887" lon="20.45398">
        <ele>925.40997314453</ele>
        <time>2023-09-30T08:51:37.000Z</time>
      </trkpt>
      <trkpt lat="41.46882" lon="20.45399">
        <ele>925.89001464844</ele>
        <time>2023-09-30T08:51:36.000Z</time>
      </trkpt>
      <trkpt lat="41.46879" lon="20.45399">
        <ele>926.36999511719</ele>
        <time>2023-09-30T08:51:35.000Z</time>
      </trkpt>
      <trkpt lat="41.46869" lon="20.45401">
        <ele>927.33001708984</ele>
        <time>2023-09-30T08:51:34.000Z</time>
      </trkpt>
      <trkpt lat="41.46862" lon="20.45403">
        <ele>927.80999755859</ele>
        <time>2023-09-30T08:51:33.000Z</time>
      </trkpt>
      <trkpt lat="41.46855" lon="20.45405">
        <ele>928.28997802734</ele>
        <time>2023-09-30T08:51:32.000Z</time>
      </trkpt>
      <trkpt lat="41.46844" lon="20.45409">
        <ele>929.25</ele>
        <time>2023-09-30T08:51:31.000Z</time>
      </trkpt>
      <trkpt lat="41.46837" lon="20.45412">
        <ele>929.72998046875</ele>
        <time>2023-09-30T08:51:30.000Z</time>
      </trkpt>
      <trkpt lat="41.46826" lon="20.45418">
        <ele>930.21002197266</ele>
        <time>2023-09-30T08:51:29.000Z</time>
      </trkpt>
      <trkpt lat="41.46811" lon="20.45425">
        <ele>931.65002441406</ele>
        <time>2023-09-30T08:51:28.000Z</time>
      </trkpt>
      <trkpt lat="41.46802" lon="20.45429">
        <ele>932.14001464844</ele>
        <time>2023-09-30T08:51:27.000Z</time>
      </trkpt>
      <trkpt lat="41.4679" lon="20.45436">
        <ele>932.61999511719</ele>
        <time>2023-09-30T08:51:26.000Z</time>
      </trkpt>
      <trkpt lat="41.4678" lon="20.45443">
        <ele>933.09997558594</ele>
        <time>2023-09-30T08:51:25.000Z</time>
      </trkpt>
      <trkpt lat="41.46766" lon="20.45453">
        <ele>933.58001708984</ele>
        <time>2023-09-30T08:51:24.000Z</time>
      </trkpt>
      <trkpt lat="41.46756" lon="20.45461">
        <ele>934.05999755859</ele>
        <time>2023-09-30T08:51:23.000Z</time>
      </trkpt>
      <trkpt lat="41.46746" lon="20.4547">
        <ele>934.05999755859</ele>
        <time>2023-09-30T08:51:22.000Z</time>
      </trkpt>
      <trkpt lat="41.46725" lon="20.45492">
        <ele>935.02001953125</ele>
        <time>2023-09-30T08:51:20.000Z</time>
      </trkpt>
      <trkpt lat="41.46721" lon="20.45496">
        <ele>935.02001953125</ele>
        <time>2023-09-30T08:51:19.000Z</time>
      </trkpt>
      <trkpt lat="41.46696" lon="20.45529">
        <ele>935.5</ele>
        <time>2023-09-30T08:51:17.000Z</time>
      </trkpt>
      <trkpt lat="41.46689" lon="20.45537">
        <ele>935.97998046875</ele>
        <time>2023-09-30T08:51:16.000Z</time>
      </trkpt>
      <trkpt lat="41.46677" lon="20.45548">
        <ele>936.94000244141</ele>
        <time>2023-09-30T08:51:15.000Z</time>
      </trkpt>
      <trkpt lat="41.46667" lon="20.45554">
        <ele>937.41998291016</ele>
        <time>2023-09-30T08:51:14.000Z</time>
      </trkpt>
      <trkpt lat="41.46664" lon="20.45556">
        <ele>937.90002441406</ele>
        <time>2023-09-30T08:51:13.000Z</time>
      </trkpt>
      <trkpt lat="41.46647" lon="20.45564">
        <ele>938.38000488281</ele>
        <time>2023-09-30T08:51:12.000Z</time>
      </trkpt>
      <trkpt lat="41.46638" lon="20.45568">
        <ele>939.34997558594</ele>
        <time>2023-09-30T08:51:11.000Z</time>
      </trkpt>
      <trkpt lat="41.4663" lon="20.45568">
        <ele>939.83001708984</ele>
        <time>2023-09-30T08:51:10.000Z</time>
      </trkpt>
      <trkpt lat="41.46623" lon="20.45567">
        <ele>940.30999755859</ele>
        <time>2023-09-30T08:51:09.000Z</time>
      </trkpt>
      <trkpt lat="41.46615" lon="20.45564">
        <ele>940.30999755859</ele>
        <time>2023-09-30T08:51:08.000Z</time>
      </trkpt>
      <trkpt lat="41.46608" lon="20.45559">
        <ele>941.27001953125</ele>
        <time>2023-09-30T08:51:07.000Z</time>
      </trkpt>
      <trkpt lat="41.46602" lon="20.45553">
        <ele>941.75</ele>
        <time>2023-09-30T08:51:06.000Z</time>
      </trkpt>
      <trkpt lat="41.46596" lon="20.45546">
        <ele>942.71002197266</ele>
        <time>2023-09-30T08:51:05.000Z</time>
      </trkpt>
      <trkpt lat="41.46589" lon="20.45536">
        <ele>943.19000244141</ele>
        <time>2023-09-30T08:51:04.000Z</time>
      </trkpt>
      <trkpt lat="41.46581" lon="20.45528">
        <ele>944.63000488281</ele>
        <time>2023-09-30T08:51:03.000Z</time>
      </trkpt>
      <trkpt lat="41.46575" lon="20.45523">
        <ele>945.10998535156</ele>
        <time>2023-09-30T08:51:02.000Z</time>
      </trkpt>
      <trkpt lat="41.46564" lon="20.45515">
        <ele>946.07000732422</ele>
        <time>2023-09-30T08:51:01.000Z</time>
      </trkpt>
      <trkpt lat="41.46556" lon="20.45511">
        <ele>947.03997802734</ele>
        <time>2023-09-30T08:51:00.000Z</time>
      </trkpt>
      <trkpt lat="41.46549" lon="20.45508">
        <ele>947.52001953125</ele>
        <time>2023-09-30T08:50:59.000Z</time>
      </trkpt>
      <trkpt lat="41.46546" lon="20.45508">
        <ele>948</ele>
        <time>2023-09-30T08:50:58.000Z</time>
      </trkpt>
      <trkpt lat="41.46533" lon="20.45505">
        <ele>949.44000244141</ele>
        <time>2023-09-30T08:50:57.000Z</time>
      </trkpt>
      <trkpt lat="41.4652" lon="20.45502">
        <ele>950.40002441406</ele>
        <time>2023-09-30T08:50:56.000Z</time>
      </trkpt>
      <trkpt lat="41.46511" lon="20.45499">
        <ele>951.35998535156</ele>
        <time>2023-09-30T08:50:55.000Z</time>
      </trkpt>
      <trkpt lat="41.46505" lon="20.45496">
        <ele>951.84002685547</ele>
        <time>2023-09-30T08:50:54.000Z</time>
      </trkpt>
      <trkpt lat="41.46497" lon="20.45492">
        <ele>952.79998779297</ele>
        <time>2023-09-30T08:50:53.000Z</time>
      </trkpt>
      <trkpt lat="41.46487" lon="20.45486">
        <ele>953.77001953125</ele>
        <time>2023-09-30T08:50:52.000Z</time>
      </trkpt>
      <trkpt lat="41.46483" lon="20.45483">
        <ele>954.25</ele>
        <time>2023-09-30T08:50:51.000Z</time>
      </trkpt>
      <trkpt lat="41.46465" lon="20.45471">
        <ele>956.16998291016</ele>
        <time>2023-09-30T08:50:50.000Z</time>
      </trkpt>
      <trkpt lat="41.46457" lon="20.45465">
        <ele>957.13000488281</ele>
        <time>2023-09-30T08:50:49.000Z</time>
      </trkpt>
      <trkpt lat="41.46451" lon="20.45462">
        <ele>957.60998535156</ele>
        <time>2023-09-30T08:50:48.000Z</time>
      </trkpt>
      <trkpt lat="41.46436" lon="20.45455">
        <ele>959.04998779297</ele>
        <time>2023-09-30T08:50:47.000Z</time>
      </trkpt>
      <trkpt lat="41.46424" lon="20.45449">
        <ele>960.48999023438</ele>
        <time>2023-09-30T08:50:46.000Z</time>
      </trkpt>
      <trkpt lat="41.46417" lon="20.45446">
        <ele>961.94000244141</ele>
        <time>2023-09-30T08:50:45.000Z</time>
      </trkpt>
      <trkpt lat="41.46406" lon="20.45438">
        <ele>963.38000488281</ele>
        <time>2023-09-30T08:50:44.000Z</time>
      </trkpt>
      <trkpt lat="41.46398" lon="20.45431">
        <ele>964.82000732422</ele>
        <time>2023-09-30T08:50:43.000Z</time>
      </trkpt>
      <trkpt lat="41.46391" lon="20.45422">
        <ele>965.78002929688</ele>
        <time>2023-09-30T08:50:42.000Z</time>
      </trkpt>
      <trkpt lat="41.46384" lon="20.45411">
        <ele>967.21997070312</ele>
        <time>2023-09-30T08:50:41.000Z</time>
      </trkpt>
      <trkpt lat="41.46377" lon="20.454">
        <ele>968.17999267578</ele>
        <time>2023-09-30T08:50:40.000Z</time>
      </trkpt>
      <trkpt lat="41.46369" lon="20.45389">
        <ele>969.63000488281</ele>
        <time>2023-09-30T08:50:39.000Z</time>
      </trkpt>
      <trkpt lat="41.46361" lon="20.45381">
        <ele>971.07000732422</ele>
        <time>2023-09-30T08:50:38.000Z</time>
      </trkpt>
      <trkpt lat="41.46353" lon="20.45374">
        <ele>972.03002929688</ele>
        <time>2023-09-30T08:50:37.000Z</time>
      </trkpt>
      <trkpt lat="41.46344" lon="20.4537">
        <ele>972.98999023438</ele>
        <time>2023-09-30T08:50:36.000Z</time>
      </trkpt>
      <trkpt lat="41.46335" lon="20.45368">
        <ele>973.95001220703</ele>
        <time>2023-09-30T08:50:35.000Z</time>
      </trkpt>
      <trkpt lat="41.46325" lon="20.45368">
        <ele>974.90997314453</ele>
        <time>2023-09-30T08:50:34.000Z</time>
      </trkpt>
      <trkpt lat="41.46323" lon="20.45368">
        <ele>975.39001464844</ele>
        <time>2023-09-30T08:50:33.000Z</time>
      </trkpt>
      <trkpt lat="41.4629" lon="20.45374">
        <ele>978.28002929688</ele>
        <time>2023-09-30T08:50:31.000Z</time>
      </trkpt>
      <trkpt lat="41.46273" lon="20.45378">
        <ele>980.20001220703</ele>
        <time>2023-09-30T08:50:29.000Z</time>
      </trkpt>
      <trkpt lat="41.46245" lon="20.45383">
        <ele>983.09002685547</ele>
        <time>2023-09-30T08:50:27.000Z</time>
      </trkpt>
      <trkpt lat="41.46236" lon="20.45387">
        <ele>984.04998779297</ele>
        <time>2023-09-30T08:50:26.000Z</time>
      </trkpt>
      <trkpt lat="41.46226" lon="20.45392">
        <ele>985.01000976562</ele>
        <time>2023-09-30T08:50:25.000Z</time>
      </trkpt>
      <trkpt lat="41.46219" lon="20.45399">
        <ele>985.96997070312</ele>
        <time>2023-09-30T08:50:24.000Z</time>
      </trkpt>
      <trkpt lat="41.46213" lon="20.45407">
        <ele>986.92999267578</ele>
        <time>2023-09-30T08:50:23.000Z</time>
      </trkpt>
      <trkpt lat="41.46212" lon="20.45409">
        <ele>986.92999267578</ele>
        <time>2023-09-30T08:50:22.000Z</time>
      </trkpt>
      <trkpt lat="41.46203" lon="20.45423">
        <ele>988.84997558594</ele>
        <time>2023-09-30T08:50:21.000Z</time>
      </trkpt>
      <trkpt lat="41.46196" lon="20.45432">
        <ele>989.33001708984</ele>
        <time>2023-09-30T08:50:20.000Z</time>
      </trkpt>
      <trkpt lat="41.4619" lon="20.45436">
        <ele>989.80999755859</ele>
        <time>2023-09-30T08:50:19.000Z</time>
      </trkpt>
      <trkpt lat="41.46183" lon="20.4544">
        <ele>990.78002929688</ele>
        <time>2023-09-30T08:50:18.000Z</time>
      </trkpt>
      <trkpt lat="41.46178" lon="20.45441">
        <ele>991.26000976562</ele>
        <time>2023-09-30T08:50:17.000Z</time>
      </trkpt>
      <trkpt lat="41.46168" lon="20.45444">
        <ele>992.21997070312</ele>
        <time>2023-09-30T08:50:16.000Z</time>
      </trkpt>
      <trkpt lat="41.46156" lon="20.45447">
        <ele>993.65997314453</ele>
        <time>2023-09-30T08:50:15.000Z</time>
      </trkpt>
      <trkpt lat="41.46154" lon="20.45447">
        <ele>993.65997314453</ele>
        <time>2023-09-30T08:50:14.000Z</time>
      </trkpt>
      <trkpt lat="41.46137" lon="20.45448">
        <ele>995.58001708984</ele>
        <time>2023-09-30T08:50:13.000Z</time>
      </trkpt>
      <trkpt lat="41.46131" lon="20.45449">
        <ele>996.53997802734</ele>
        <time>2023-09-30T08:50:12.000Z</time>
      </trkpt>
      <trkpt lat="41.46113" lon="20.45452">
        <ele>997.98999023438</ele>
        <time>2023-09-30T08:50:11.000Z</time>
      </trkpt>
      <trkpt lat="41.46102" lon="20.45455">
        <ele>998.95001220703</ele>
        <time>2023-09-30T08:50:10.000Z</time>
      </trkpt>
      <trkpt lat="41.46085" lon="20.45462">
        <ele>999.90997314453</ele>
        <time>2023-09-30T08:50:09.000Z</time>
      </trkpt>
      <trkpt lat="41.46077" lon="20.45466">
        <ele>1000.3900146484</ele>
        <time>2023-09-30T08:50:08.000Z</time>
      </trkpt>
      <trkpt lat="41.46068" lon="20.45472">
        <ele>1000.8699951172</ele>
        <time>2023-09-30T08:50:07.000Z</time>
      </trkpt>
      <trkpt lat="41.4605" lon="20.45484">
        <ele>1000.8699951172</ele>
        <time>2023-09-30T08:50:06.000Z</time>
      </trkpt>
      <trkpt lat="41.46042" lon="20.4549">
        <ele>1000.8699951172</ele>
        <time>2023-09-30T08:50:05.000Z</time>
      </trkpt>
      <trkpt lat="41.46036" lon="20.45493">
        <ele>1000.3900146484</ele>
        <time>2023-09-30T08:50:04.000Z</time>
      </trkpt>
      <trkpt lat="41.45966" lon="20.45535">
        <ele>999.42999267578</ele>
        <time>2023-09-30T08:49:59.000Z</time>
      </trkpt>
      <trkpt lat="41.45948" lon="20.45546">
        <ele>999.90997314453</ele>
        <time>2023-09-30T08:49:58.000Z</time>
      </trkpt>
      <trkpt lat="41.45937" lon="20.45555">
        <ele>1000.3900146484</ele>
        <time>2023-09-30T08:49:57.000Z</time>
      </trkpt>
      <trkpt lat="41.45927" lon="20.45565">
        <ele>1000.8699951172</ele>
        <time>2023-09-30T08:49:56.000Z</time>
      </trkpt>
      <trkpt lat="41.45917" lon="20.45576">
        <ele>1000.8699951172</ele>
        <time>2023-09-30T08:49:55.000Z</time>
      </trkpt>
      <trkpt lat="41.45908" lon="20.45588">
        <ele>1000.8699951172</ele>
        <time>2023-09-30T08:49:54.000Z</time>
      </trkpt>
      <trkpt lat="41.45891" lon="20.45611">
        <ele>1000.3900146484</ele>
        <time>2023-09-30T08:49:52.000Z</time>
      </trkpt>
      <trkpt lat="41.45883" lon="20.45621">
        <ele>1000.3900146484</ele>
        <time>2023-09-30T08:49:51.000Z</time>
      </trkpt>
      <trkpt lat="41.45872" lon="20.45634">
        <ele>1000.3900146484</ele>
        <time>2023-09-30T08:49:50.000Z</time>
      </trkpt>
      <trkpt lat="41.45864" lon="20.45641">
        <ele>1000.3900146484</ele>
        <time>2023-09-30T08:49:49.000Z</time>
      </trkpt>
      <trkpt lat="41.45854" lon="20.45647">
        <ele>1000.8699951172</ele>
        <time>2023-09-30T08:49:48.000Z</time>
      </trkpt>
      <trkpt lat="41.45844" lon="20.45652">
        <ele>1000.8699951172</ele>
        <time>2023-09-30T08:49:47.000Z</time>
      </trkpt>
      <trkpt lat="41.45837" lon="20.45655">
        <ele>1001.3499755859</ele>
        <time>2023-09-30T08:49:46.000Z</time>
      </trkpt>
      <trkpt lat="41.45805" lon="20.45664">
        <ele>1002.7899780273</ele>
        <time>2023-09-30T08:49:44.000Z</time>
      </trkpt>
      <trkpt lat="41.45801" lon="20.45665">
        <ele>1003.2700195312</ele>
        <time>2023-09-30T08:49:43.000Z</time>
      </trkpt>
      <trkpt lat="41.45781" lon="20.45672">
        <ele>1004.7199707031</ele>
        <time>2023-09-30T08:49:42.000Z</time>
      </trkpt>
      <trkpt lat="41.4577" lon="20.45675">
        <ele>1005.6799926758</ele>
        <time>2023-09-30T08:49:41.000Z</time>
      </trkpt>
      <trkpt lat="41.45721" lon="20.45687">
        <ele>1009.5200195312</ele>
        <time>2023-09-30T08:49:37.000Z</time>
      </trkpt>
      <trkpt lat="41.45699" lon="20.45691">
        <ele>1011.4400024414</ele>
        <time>2023-09-30T08:49:35.000Z</time>
      </trkpt>
      <trkpt lat="41.45687" lon="20.45694">
        <ele>1012.4099731445</ele>
        <time>2023-09-30T08:49:34.000Z</time>
      </trkpt>
      <trkpt lat="41.45675" lon="20.45697">
        <ele>1013.3699951172</ele>
        <time>2023-09-30T08:49:33.000Z</time>
      </trkpt>
      <trkpt lat="41.45665" lon="20.457">
        <ele>1013.8499755859</ele>
        <time>2023-09-30T08:49:32.000Z</time>
      </trkpt>
      <trkpt lat="41.45653" lon="20.45703">
        <ele>1014.3300170898</ele>
        <time>2023-09-30T08:49:31.000Z</time>
      </trkpt>
      <trkpt lat="41.45644" lon="20.45707">
        <ele>1015.2899780273</ele>
        <time>2023-09-30T08:49:30.000Z</time>
      </trkpt>
      <trkpt lat="41.45629" lon="20.45714">
        <ele>1015.7700195312</ele>
        <time>2023-09-30T08:49:29.000Z</time>
      </trkpt>
      <trkpt lat="41.45621" lon="20.45718">
        <ele>1016.7299804688</ele>
        <time>2023-09-30T08:49:28.000Z</time>
      </trkpt>
      <trkpt lat="41.4561" lon="20.45726">
        <ele>1017.2100219727</ele>
        <time>2023-09-30T08:49:27.000Z</time>
      </trkpt>
      <trkpt lat="41.45596" lon="20.45733">
        <ele>1018.1699829102</ele>
        <time>2023-09-30T08:49:26.000Z</time>
      </trkpt>
      <trkpt lat="41.45588" lon="20.45738">
        <ele>1019.1300048828</ele>
        <time>2023-09-30T08:49:25.000Z</time>
      </trkpt>
      <trkpt lat="41.45523" lon="20.45764">
        <ele>1022.5</ele>
        <time>2023-09-30T08:49:20.000Z</time>
      </trkpt>
      <trkpt lat="41.45511" lon="20.45768">
        <ele>1023.4600219727</ele>
        <time>2023-09-30T08:49:19.000Z</time>
      </trkpt>
      <trkpt lat="41.45501" lon="20.45769">
        <ele>1023.9400024414</ele>
        <time>2023-09-30T08:49:18.000Z</time>
      </trkpt>
      <trkpt lat="41.45494" lon="20.45768">
        <ele>1024.4200439453</ele>
        <time>2023-09-30T08:49:17.000Z</time>
      </trkpt>
      <trkpt lat="41.45484" lon="20.45766">
        <ele>1024.9000244141</ele>
        <time>2023-09-30T08:49:16.000Z</time>
      </trkpt>
      <trkpt lat="41.45477" lon="20.45764">
        <ele>1025.8599853516</ele>
        <time>2023-09-30T08:49:15.000Z</time>
      </trkpt>
      <trkpt lat="41.45467" lon="20.45759">
        <ele>1026.8299560547</ele>
        <time>2023-09-30T08:49:14.000Z</time>
      </trkpt>
      <trkpt lat="41.45461" lon="20.45755">
        <ele>1027.3100585938</ele>
        <time>2023-09-30T08:49:13.000Z</time>
      </trkpt>
      <trkpt lat="41.45452" lon="20.45748">
        <ele>1028.2700195312</ele>
        <time>2023-09-30T08:49:12.000Z</time>
      </trkpt>
      <trkpt lat="41.45438" lon="20.45735">
        <ele>1029.7099609375</ele>
        <time>2023-09-30T08:49:10.000Z</time>
      </trkpt>
      <trkpt lat="41.45421" lon="20.4572">
        <ele>1031.6300048828</ele>
        <time>2023-09-30T08:49:08.000Z</time>
      </trkpt>
      <trkpt lat="41.4541" lon="20.45708">
        <ele>1033.0699462891</ele>
        <time>2023-09-30T08:49:07.000Z</time>
      </trkpt>
      <trkpt lat="41.45404" lon="20.45702">
        <ele>1033.5500488281</ele>
        <time>2023-09-30T08:49:06.000Z</time>
      </trkpt>
      <trkpt lat="41.45394" lon="20.45691">
        <ele>1034.5200195312</ele>
        <time>2023-09-30T08:49:05.000Z</time>
      </trkpt>
      <trkpt lat="41.45384" lon="20.45683">
        <ele>1035.4799804688</ele>
        <time>2023-09-30T08:49:04.000Z</time>
      </trkpt>
      <trkpt lat="41.4538" lon="20.4568">
        <ele>1035.9599609375</ele>
        <time>2023-09-30T08:49:03.000Z</time>
      </trkpt>
      <trkpt lat="41.45337" lon="20.45636">
        <ele>1040.7600097656</ele>
        <time>2023-09-30T08:48:58.000Z</time>
      </trkpt>
      <trkpt lat="41.45332" lon="20.45631">
        <ele>1041.25</ele>
        <time>2023-09-30T08:48:57.000Z</time>
      </trkpt>
      <trkpt lat="41.45306" lon="20.45595">
        <ele>1044.1300048828</ele>
        <time>2023-09-30T08:48:54.000Z</time>
      </trkpt>
      <trkpt lat="41.45294" lon="20.45577">
        <ele>1045.0899658203</ele>
        <time>2023-09-30T08:48:52.000Z</time>
      </trkpt>
      <trkpt lat="41.45281" lon="20.45555">
        <ele>1046.5300292969</ele>
        <time>2023-09-30T08:48:50.000Z</time>
      </trkpt>
      <trkpt lat="41.45275" lon="20.45548">
        <ele>1046.0500488281</ele>
        <time>2023-09-30T08:48:49.000Z</time>
      </trkpt>
      <trkpt lat="41.45269" lon="20.45542">
        <ele>1046.0500488281</ele>
        <time>2023-09-30T08:48:48.000Z</time>
      </trkpt>
      <trkpt lat="41.45262" lon="20.45539">
        <ele>1045.5699462891</ele>
        <time>2023-09-30T08:48:47.000Z</time>
      </trkpt>
      <trkpt lat="41.45253" lon="20.45536">
        <ele>1046.0500488281</ele>
        <time>2023-09-30T08:48:46.000Z</time>
      </trkpt>
      <trkpt lat="41.45244" lon="20.45535">
        <ele>1046.0500488281</ele>
        <time>2023-09-30T08:48:45.000Z</time>
      </trkpt>
      <trkpt lat="41.45212" lon="20.45534">
        <ele>1045.5699462891</ele>
        <time>2023-09-30T08:48:42.000Z</time>
      </trkpt>
      <trkpt lat="41.4518" lon="20.45533">
        <ele>1044.6099853516</ele>
        <time>2023-09-30T08:48:40.000Z</time>
      </trkpt>
      <trkpt lat="41.4517" lon="20.45534">
        <ele>1044.1300048828</ele>
        <time>2023-09-30T08:48:39.000Z</time>
      </trkpt>
      <trkpt lat="41.45157" lon="20.45537">
        <ele>1043.6500244141</ele>
        <time>2023-09-30T08:48:38.000Z</time>
      </trkpt>
      <trkpt lat="41.45144" lon="20.45543">
        <ele>1043.1700439453</ele>
        <time>2023-09-30T08:48:37.000Z</time>
      </trkpt>
      <trkpt lat="41.45136" lon="20.45548">
        <ele>1042.6899414062</ele>
        <time>2023-09-30T08:48:36.000Z</time>
      </trkpt>
      <trkpt lat="41.45125" lon="20.45556">
        <ele>1042.6899414062</ele>
        <time>2023-09-30T08:48:35.000Z</time>
      </trkpt>
      <trkpt lat="41.45087" lon="20.45591">
        <ele>1041.25</ele>
        <time>2023-09-30T08:48:30.000Z</time>
      </trkpt>
      <trkpt lat="41.45077" lon="20.45601">
        <ele>1041.25</ele>
        <time>2023-09-30T08:48:29.000Z</time>
      </trkpt>
      <trkpt lat="41.45073" lon="20.45604">
        <ele>1041.25</ele>
        <time>2023-09-30T08:48:28.000Z</time>
      </trkpt>
      <trkpt lat="41.45067" lon="20.45609">
        <ele>1040.7600097656</ele>
        <time>2023-09-30T08:48:27.000Z</time>
      </trkpt>
      <trkpt lat="41.45053" lon="20.45619">
        <ele>1039.8000488281</ele>
        <time>2023-09-30T08:48:21.000Z</time>
      </trkpt>
      <trkpt lat="41.45049" lon="20.45621">
        <ele>1040.2800292969</ele>
        <time>2023-09-30T08:48:20.000Z</time>
      </trkpt>
      <trkpt lat="41.45042" lon="20.45626">
        <ele>1040.7600097656</ele>
        <time>2023-09-30T08:48:19.000Z</time>
      </trkpt>
      <trkpt lat="41.45037" lon="20.45628">
        <ele>1040.7600097656</ele>
        <time>2023-09-30T08:48:18.000Z</time>
      </trkpt>
      <trkpt lat="41.4503" lon="20.4563">
        <ele>1041.25</ele>
        <time>2023-09-30T08:48:17.000Z</time>
      </trkpt>
      <trkpt lat="41.45022" lon="20.45631">
        <ele>1041.25</ele>
        <time>2023-09-30T08:48:16.000Z</time>
      </trkpt>
      <trkpt lat="41.45015" lon="20.4563">
        <ele>1041.25</ele>
        <time>2023-09-30T08:48:15.000Z</time>
      </trkpt>
      <trkpt lat="41.44999" lon="20.45627">
        <ele>1042.2099609375</ele>
        <time>2023-09-30T08:48:13.000Z</time>
      </trkpt>
      <trkpt lat="41.44992" lon="20.45626">
        <ele>1042.6899414062</ele>
        <time>2023-09-30T08:48:12.000Z</time>
      </trkpt>
      <trkpt lat="41.44942" lon="20.4562">
        <ele>1044.1300048828</ele>
        <time>2023-09-30T08:48:08.000Z</time>
      </trkpt>
      <trkpt lat="41.44891" lon="20.45613">
        <ele>1042.6899414062</ele>
        <time>2023-09-30T08:48:03.000Z</time>
      </trkpt>
      <trkpt lat="41.44838" lon="20.45604">
        <ele>1040.7600097656</ele>
        <time>2023-09-30T08:47:59.000Z</time>
      </trkpt>
      <trkpt lat="41.44825" lon="20.45602">
        <ele>1040.2800292969</ele>
        <time>2023-09-30T08:47:58.000Z</time>
      </trkpt>
      <trkpt lat="41.44814" lon="20.45601">
        <ele>1039.3199462891</ele>
        <time>2023-09-30T08:47:57.000Z</time>
      </trkpt>
      <trkpt lat="41.44797" lon="20.456">
        <ele>1038.8399658203</ele>
        <time>2023-09-30T08:47:55.000Z</time>
      </trkpt>
      <trkpt lat="41.44786" lon="20.456">
        <ele>1038.3599853516</ele>
        <time>2023-09-30T08:47:54.000Z</time>
      </trkpt>
      <trkpt lat="41.44774" lon="20.45599">
        <ele>1037.8800048828</ele>
        <time>2023-09-30T08:47:53.000Z</time>
      </trkpt>
      <trkpt lat="41.44763" lon="20.456">
        <ele>1037.4000244141</ele>
        <time>2023-09-30T08:47:52.000Z</time>
      </trkpt>
      <trkpt lat="41.44755" lon="20.45599">
        <ele>1036.9200439453</ele>
        <time>2023-09-30T08:47:51.000Z</time>
      </trkpt>
      <trkpt lat="41.44738" lon="20.45597">
        <ele>1036.4399414062</ele>
        <time>2023-09-30T08:47:49.000Z</time>
      </trkpt>
      <trkpt lat="41.44725" lon="20.45593">
        <ele>1035.9599609375</ele>
        <time>2023-09-30T08:47:48.000Z</time>
      </trkpt>
      <trkpt lat="41.44718" lon="20.4559">
        <ele>1035.4799804688</ele>
        <time>2023-09-30T08:47:47.000Z</time>
      </trkpt>
      <trkpt lat="41.44712" lon="20.45587">
        <ele>1035.4799804688</ele>
        <time>2023-09-30T08:47:46.000Z</time>
      </trkpt>
      <trkpt lat="41.44705" lon="20.45582">
        <ele>1035</ele>
        <time>2023-09-30T08:47:45.000Z</time>
      </trkpt>
      <trkpt lat="41.44687" lon="20.45569">
        <ele>1035</ele>
        <time>2023-09-30T08:47:43.000Z</time>
      </trkpt>
      <trkpt lat="41.44685" lon="20.45568">
        <ele>1035</ele>
        <time>2023-09-30T08:47:42.000Z</time>
      </trkpt>
      <trkpt lat="41.44653" lon="20.45546">
        <ele>1035.4799804688</ele>
        <time>2023-09-30T08:47:39.000Z</time>
      </trkpt>
      <trkpt lat="41.44648" lon="20.45542">
        <ele>1035.4799804688</ele>
        <time>2023-09-30T08:47:38.000Z</time>
      </trkpt>
      <trkpt lat="41.44637" lon="20.45533">
        <ele>1036.4399414062</ele>
        <time>2023-09-30T08:47:37.000Z</time>
      </trkpt>
      <trkpt lat="41.44629" lon="20.45523">
        <ele>1037.4000244141</ele>
        <time>2023-09-30T08:47:36.000Z</time>
      </trkpt>
      <trkpt lat="41.44628" lon="20.45521">
        <ele>1037.4000244141</ele>
        <time>2023-09-30T08:47:35.000Z</time>
      </trkpt>
      <trkpt lat="41.44618" lon="20.45506">
        <ele>1038.8399658203</ele>
        <time>2023-09-30T08:47:34.000Z</time>
      </trkpt>
      <trkpt lat="41.446" lon="20.45482">
        <ele>1041.25</ele>
        <time>2023-09-30T08:47:32.000Z</time>
      </trkpt>
      <trkpt lat="41.44582" lon="20.45458">
        <ele>1043.1700439453</ele>
        <time>2023-09-30T08:47:29.000Z</time>
      </trkpt>
      <trkpt lat="41.44554" lon="20.45422">
        <ele>1047.4899902344</ele>
        <time>2023-09-30T08:47:26.000Z</time>
      </trkpt>
      <trkpt lat="41.44544" lon="20.4541">
        <ele>1048.4499511719</ele>
        <time>2023-09-30T08:47:25.000Z</time>
      </trkpt>
      <trkpt lat="41.44531" lon="20.45397">
        <ele>1049.9000244141</ele>
        <time>2023-09-30T08:47:23.000Z</time>
      </trkpt>
      <trkpt lat="41.44525" lon="20.45391">
        <ele>1050.8599853516</ele>
        <time>2023-09-30T08:47:22.000Z</time>
      </trkpt>
      <trkpt lat="41.44517" lon="20.45385">
        <ele>1051.8199462891</ele>
        <time>2023-09-30T08:47:21.000Z</time>
      </trkpt>
      <trkpt lat="41.44511" lon="20.45378">
        <ele>1052.7800292969</ele>
        <time>2023-09-30T08:47:20.000Z</time>
      </trkpt>
      <trkpt lat="41.44505" lon="20.45371">
        <ele>1053.2600097656</ele>
        <time>2023-09-30T08:47:19.000Z</time>
      </trkpt>
      <trkpt lat="41.445" lon="20.45363">
        <ele>1054.2199707031</ele>
        <time>2023-09-30T08:47:18.000Z</time>
      </trkpt>
      <trkpt lat="41.44495" lon="20.45353">
        <ele>1055.1800537109</ele>
        <time>2023-09-30T08:47:17.000Z</time>
      </trkpt>
      <trkpt lat="41.44491" lon="20.45344">
        <ele>1056.1500244141</ele>
        <time>2023-09-30T08:47:16.000Z</time>
      </trkpt>
      <trkpt lat="41.44488" lon="20.45335">
        <ele>1056.6300048828</ele>
        <time>2023-09-30T08:47:15.000Z</time>
      </trkpt>
      <trkpt lat="41.44486" lon="20.45324">
        <ele>1058.0699462891</ele>
        <time>2023-09-30T08:47:14.000Z</time>
      </trkpt>
      <trkpt lat="41.44484" lon="20.45317">
        <ele>1058.5500488281</ele>
        <time>2023-09-30T08:47:13.000Z</time>
      </trkpt>
      <trkpt lat="41.44484" lon="20.45304">
        <ele>1059.9899902344</ele>
        <time>2023-09-30T08:47:12.000Z</time>
      </trkpt>
      <trkpt lat="41.44484" lon="20.45295">
        <ele>1060.4699707031</ele>
        <time>2023-09-30T08:47:11.000Z</time>
      </trkpt>
      <trkpt lat="41.44485" lon="20.45285">
        <ele>1061.4300537109</ele>
        <time>2023-09-30T08:47:10.000Z</time>
      </trkpt>
      <trkpt lat="41.44487" lon="20.45275">
        <ele>1062.3900146484</ele>
        <time>2023-09-30T08:47:09.000Z</time>
      </trkpt>
      <trkpt lat="41.4449" lon="20.45265">
        <ele>1062.8699951172</ele>
        <time>2023-09-30T08:47:08.000Z</time>
      </trkpt>
      <trkpt lat="41.44495" lon="20.45255">
        <ele>1064.3199462891</ele>
        <time>2023-09-30T08:47:07.000Z</time>
      </trkpt>
      <trkpt lat="41.44499" lon="20.4525">
        <ele>1064.8000488281</ele>
        <time>2023-09-30T08:47:06.000Z</time>
      </trkpt>
      <trkpt lat="41.44543" lon="20.45195">
        <ele>1071.5300292969</ele>
        <time>2023-09-30T08:47:00.000Z</time>
      </trkpt>
      <trkpt lat="41.44559" lon="20.45178">
        <ele>1073.9300537109</ele>
        <time>2023-09-30T08:46:59.000Z</time>
      </trkpt>
      <trkpt lat="41.44568" lon="20.45168">
        <ele>1075.3699951172</ele>
        <time>2023-09-30T08:46:58.000Z</time>
      </trkpt>
      <trkpt lat="41.44574" lon="20.4516">
        <ele>1076.3299560547</ele>
        <time>2023-09-30T08:46:57.000Z</time>
      </trkpt>
      <trkpt lat="41.44582" lon="20.45149">
        <ele>1077.7800292969</ele>
        <time>2023-09-30T08:46:56.000Z</time>
      </trkpt>
      <trkpt lat="41.44593" lon="20.45136">
        <ele>1079.6999511719</ele>
        <time>2023-09-30T08:46:55.000Z</time>
      </trkpt>
      <trkpt lat="41.44665" lon="20.45055">
        <ele>1087.3900146484</ele>
        <time>2023-09-30T08:46:47.000Z</time>
      </trkpt>
      <trkpt lat="41.44696" lon="20.45017">
        <ele>1088.8299560547</ele>
        <time>2023-09-30T08:46:43.000Z</time>
      </trkpt>
      <trkpt lat="41.44705" lon="20.45006">
        <ele>1088.8299560547</ele>
        <time>2023-09-30T08:46:42.000Z</time>
      </trkpt>
      <trkpt lat="41.44721" lon="20.44989">
        <ele>1089.3100585938</ele>
        <time>2023-09-30T08:46:41.000Z</time>
      </trkpt>
      <trkpt lat="41.44725" lon="20.44984">
        <ele>1089.3100585938</ele>
        <time>2023-09-30T08:46:40.000Z</time>
      </trkpt>
      <trkpt lat="41.44766" lon="20.44951">
        <ele>1090.2700195312</ele>
        <time>2023-09-30T08:46:36.000Z</time>
      </trkpt>
      <trkpt lat="41.44785" lon="20.44939">
        <ele>1090.2700195312</ele>
        <time>2023-09-30T08:46:34.000Z</time>
      </trkpt>
      <trkpt lat="41.44787" lon="20.44938">
        <ele>1090.2700195312</ele>
        <time>2023-09-30T08:46:33.000Z</time>
      </trkpt>
      <trkpt lat="41.44812" lon="20.44925">
        <ele>1090.2700195312</ele>
        <time>2023-09-30T08:46:31.000Z</time>
      </trkpt>
      <trkpt lat="41.44826" lon="20.44917">
        <ele>1089.7900390625</ele>
        <time>2023-09-30T08:46:30.000Z</time>
      </trkpt>
      <trkpt lat="41.44836" lon="20.4491">
        <ele>1089.7900390625</ele>
        <time>2023-09-30T08:46:29.000Z</time>
      </trkpt>
      <trkpt lat="41.44844" lon="20.44904">
        <ele>1089.7900390625</ele>
        <time>2023-09-30T08:46:28.000Z</time>
      </trkpt>
      <trkpt lat="41.44852" lon="20.44897">
        <ele>1089.7900390625</ele>
        <time>2023-09-30T08:46:27.000Z</time>
      </trkpt>
      <trkpt lat="41.44859" lon="20.44889">
        <ele>1089.7900390625</ele>
        <time>2023-09-30T08:46:26.000Z</time>
      </trkpt>
      <trkpt lat="41.44863" lon="20.44885">
        <ele>1089.7900390625</ele>
        <time>2023-09-30T08:46:25.000Z</time>
      </trkpt>
      <trkpt lat="41.44875" lon="20.44867">
        <ele>1090.2700195312</ele>
        <time>2023-09-30T08:46:24.000Z</time>
      </trkpt>
      <trkpt lat="41.44887" lon="20.44848">
        <ele>1091.2299804688</ele>
        <time>2023-09-30T08:46:22.000Z</time>
      </trkpt>
      <trkpt lat="41.44891" lon="20.44839">
        <ele>1091.7099609375</ele>
        <time>2023-09-30T08:46:21.000Z</time>
      </trkpt>
      <trkpt lat="41.44896" lon="20.44826">
        <ele>1091.7099609375</ele>
        <time>2023-09-30T08:46:20.000Z</time>
      </trkpt>
      <trkpt lat="41.44899" lon="20.44814">
        <ele>1092.1999511719</ele>
        <time>2023-09-30T08:46:19.000Z</time>
      </trkpt>
      <trkpt lat="41.449" lon="20.44804">
        <ele>1092.6800537109</ele>
        <time>2023-09-30T08:46:18.000Z</time>
      </trkpt>
      <trkpt lat="41.449" lon="20.44799">
        <ele>1092.6800537109</ele>
        <time>2023-09-30T08:46:17.000Z</time>
      </trkpt>
      <trkpt lat="41.44901" lon="20.44775">
        <ele>1092.6800537109</ele>
        <time>2023-09-30T08:46:16.000Z</time>
      </trkpt>
      <trkpt lat="41.44901" lon="20.44771">
        <ele>1092.6800537109</ele>
        <time>2023-09-30T08:46:15.000Z</time>
      </trkpt>
      <trkpt lat="41.44902" lon="20.44753">
        <ele>1092.6800537109</ele>
        <time>2023-09-30T08:46:14.000Z</time>
      </trkpt>
      <trkpt lat="41.44903" lon="20.44726">
        <ele>1092.6800537109</ele>
        <time>2023-09-30T08:46:12.000Z</time>
      </trkpt>
      <trkpt lat="41.44905" lon="20.44703">
        <ele>1092.6800537109</ele>
        <time>2023-09-30T08:46:11.000Z</time>
      </trkpt>
      <trkpt lat="41.44905" lon="20.44686">
        <ele>1092.6800537109</ele>
        <time>2023-09-30T08:46:10.000Z</time>
      </trkpt>
      <trkpt lat="41.44905" lon="20.44683">
        <ele>1092.6800537109</ele>
        <time>2023-09-30T08:46:09.000Z</time>
      </trkpt>
      <trkpt lat="41.44906" lon="20.44658">
        <ele>1092.6800537109</ele>
        <time>2023-09-30T08:46:08.000Z</time>
      </trkpt>
      <trkpt lat="41.44905" lon="20.44649">
        <ele>1092.6800537109</ele>
        <time>2023-09-30T08:46:07.000Z</time>
      </trkpt>
      <trkpt lat="41.44903" lon="20.44604">
        <ele>1093.1600341797</ele>
        <time>2023-09-30T08:46:05.000Z</time>
      </trkpt>
      <trkpt lat="41.44902" lon="20.44593">
        <ele>1093.6400146484</ele>
        <time>2023-09-30T08:46:04.000Z</time>
      </trkpt>
      <trkpt lat="41.44887" lon="20.44489">
        <ele>1098.4399414062</ele>
        <time>2023-09-30T08:45:57.000Z</time>
      </trkpt>
      <trkpt lat="41.44884" lon="20.44473">
        <ele>1098.9200439453</ele>
        <time>2023-09-30T08:45:56.000Z</time>
      </trkpt>
      <trkpt lat="41.44875" lon="20.44437">
        <ele>1100.3699951172</ele>
        <time>2023-09-30T08:45:54.000Z</time>
      </trkpt>
      <trkpt lat="41.4487" lon="20.44424">
        <ele>1100.8499755859</ele>
        <time>2023-09-30T08:45:53.000Z</time>
      </trkpt>
      <trkpt lat="41.44865" lon="20.44412">
        <ele>1101.8100585938</ele>
        <time>2023-09-30T08:45:52.000Z</time>
      </trkpt>
      <trkpt lat="41.44852" lon="20.44386">
        <ele>1103.25</ele>
        <time>2023-09-30T08:45:50.000Z</time>
      </trkpt>
      <trkpt lat="41.44846" lon="20.44375">
        <ele>1104.2099609375</ele>
        <time>2023-09-30T08:45:49.000Z</time>
      </trkpt>
      <trkpt lat="41.4484" lon="20.44362">
        <ele>1105.1700439453</ele>
        <time>2023-09-30T08:45:48.000Z</time>
      </trkpt>
      <trkpt lat="41.44835" lon="20.44352">
        <ele>1105.6500244141</ele>
        <time>2023-09-30T08:45:47.000Z</time>
      </trkpt>
      <trkpt lat="41.4482" lon="20.44313">
        <ele>1108.5400390625</ele>
        <time>2023-09-30T08:45:44.000Z</time>
      </trkpt>
      <trkpt lat="41.44814" lon="20.44298">
        <ele>1109.5</ele>
        <time>2023-09-30T08:45:43.000Z</time>
      </trkpt>
      <trkpt lat="41.4481" lon="20.44287">
        <ele>1110.4599609375</ele>
        <time>2023-09-30T08:45:42.000Z</time>
      </trkpt>
      <trkpt lat="41.44806" lon="20.44275">
        <ele>1111.4200439453</ele>
        <time>2023-09-30T08:45:41.000Z</time>
      </trkpt>
      <trkpt lat="41.44802" lon="20.44258">
        <ele>1112.3800048828</ele>
        <time>2023-09-30T08:45:40.000Z</time>
      </trkpt>
      <trkpt lat="41.44799" lon="20.44247">
        <ele>1113.3399658203</ele>
        <time>2023-09-30T08:45:39.000Z</time>
      </trkpt>
      <trkpt lat="41.44797" lon="20.44234">
        <ele>1114.3100585938</ele>
        <time>2023-09-30T08:45:38.000Z</time>
      </trkpt>
      <trkpt lat="41.44796" lon="20.4423">
        <ele>1114.7900390625</ele>
        <time>2023-09-30T08:45:37.000Z</time>
      </trkpt>
      <trkpt lat="41.4479" lon="20.44178">
        <ele>1118.6300048828</ele>
        <time>2023-09-30T08:45:34.000Z</time>
      </trkpt>
      <trkpt lat="41.44787" lon="20.44161">
        <ele>1119.5899658203</ele>
        <time>2023-09-30T08:45:33.000Z</time>
      </trkpt>
      <trkpt lat="41.44779" lon="20.44128">
        <ele>1121.5200195312</ele>
        <time>2023-09-30T08:45:31.000Z</time>
      </trkpt>
      <trkpt lat="41.44776" lon="20.44117">
        <ele>1121.5200195312</ele>
        <time>2023-09-30T08:45:30.000Z</time>
      </trkpt>
      <trkpt lat="41.44772" lon="20.44108">
        <ele>1122</ele>
        <time>2023-09-30T08:45:29.000Z</time>
      </trkpt>
      <trkpt lat="41.44767" lon="20.441">
        <ele>1122</ele>
        <time>2023-09-30T08:45:28.000Z</time>
      </trkpt>
      <trkpt lat="41.4476" lon="20.44093">
        <ele>1122.4799804688</ele>
        <time>2023-09-30T08:45:27.000Z</time>
      </trkpt>
      <trkpt lat="41.44752" lon="20.44089">
        <ele>1122.4799804688</ele>
        <time>2023-09-30T08:45:26.000Z</time>
      </trkpt>
      <trkpt lat="41.44744" lon="20.44086">
        <ele>1122.9599609375</ele>
        <time>2023-09-30T08:45:25.000Z</time>
      </trkpt>
      <trkpt lat="41.44734" lon="20.44086">
        <ele>1122.9599609375</ele>
        <time>2023-09-30T08:45:24.000Z</time>
      </trkpt>
      <trkpt lat="41.44728" lon="20.44087">
        <ele>1123.4399414062</ele>
        <time>2023-09-30T08:45:23.000Z</time>
      </trkpt>
      <trkpt lat="41.44717" lon="20.4409">
        <ele>1123.4399414062</ele>
        <time>2023-09-30T08:45:22.000Z</time>
      </trkpt>
      <trkpt lat="41.44704" lon="20.44095">
        <ele>1123.9200439453</ele>
        <time>2023-09-30T08:45:21.000Z</time>
      </trkpt>
      <trkpt lat="41.44695" lon="20.44099">
        <ele>1124.4000244141</ele>
        <time>2023-09-30T08:45:20.000Z</time>
      </trkpt>
      <trkpt lat="41.44685" lon="20.44105">
        <ele>1124.8800048828</ele>
        <time>2023-09-30T08:45:19.000Z</time>
      </trkpt>
      <trkpt lat="41.44672" lon="20.44113">
        <ele>1125.8399658203</ele>
        <time>2023-09-30T08:45:18.000Z</time>
      </trkpt>
      <trkpt lat="41.44667" lon="20.44116">
        <ele>1125.8399658203</ele>
        <time>2023-09-30T08:45:17.000Z</time>
      </trkpt>
      <trkpt lat="41.44637" lon="20.44129">
        <ele>1128.2399902344</ele>
        <time>2023-09-30T08:45:15.000Z</time>
      </trkpt>
      <trkpt lat="41.44628" lon="20.44132">
        <ele>1128.7299804688</ele>
        <time>2023-09-30T08:45:14.000Z</time>
      </trkpt>
      <trkpt lat="41.44616" lon="20.44134">
        <ele>1130.1700439453</ele>
        <time>2023-09-30T08:45:13.000Z</time>
      </trkpt>
      <trkpt lat="41.44606" lon="20.44134">
        <ele>1131.6099853516</ele>
        <time>2023-09-30T08:45:12.000Z</time>
      </trkpt>
      <trkpt lat="41.44598" lon="20.44133">
        <ele>1133.0500488281</ele>
        <time>2023-09-30T08:45:11.000Z</time>
      </trkpt>
      <trkpt lat="41.44591" lon="20.44129">
        <ele>1133.5300292969</ele>
        <time>2023-09-30T08:45:10.000Z</time>
      </trkpt>
      <trkpt lat="41.44584" lon="20.44124">
        <ele>1134.9699707031</ele>
        <time>2023-09-30T08:45:09.000Z</time>
      </trkpt>
      <trkpt lat="41.4458" lon="20.44122">
        <ele>1135.4499511719</ele>
        <time>2023-09-30T08:45:08.000Z</time>
      </trkpt>
      <trkpt lat="41.44576" lon="20.4412">
        <ele>1135.9399414062</ele>
        <time>2023-09-30T08:45:07.000Z</time>
      </trkpt>
      <trkpt lat="41.44561" lon="20.44112">
        <ele>1137.3800048828</ele>
        <time>2023-09-30T08:45:06.000Z</time>
      </trkpt>
      <trkpt lat="41.44553" lon="20.44108">
        <ele>1138.3399658203</ele>
        <time>2023-09-30T08:45:05.000Z</time>
      </trkpt>
      <trkpt lat="41.44544" lon="20.44105">
        <ele>1138.8199462891</ele>
        <time>2023-09-30T08:45:04.000Z</time>
      </trkpt>
      <trkpt lat="41.44537" lon="20.44103">
        <ele>1139.3000488281</ele>
        <time>2023-09-30T08:45:03.000Z</time>
      </trkpt>
      <trkpt lat="41.44532" lon="20.44103">
        <ele>1139.7800292969</ele>
        <time>2023-09-30T08:45:02.000Z</time>
      </trkpt>
      <trkpt lat="41.4452" lon="20.44101">
        <ele>1140.7399902344</ele>
        <time>2023-09-30T08:45:01.000Z</time>
      </trkpt>
      <trkpt lat="41.44511" lon="20.44101">
        <ele>1141.6999511719</ele>
        <time>2023-09-30T08:45:00.000Z</time>
      </trkpt>
      <trkpt lat="41.44502" lon="20.44099">
        <ele>1142.1800537109</ele>
        <time>2023-09-30T08:44:59.000Z</time>
      </trkpt>
      <trkpt lat="41.44495" lon="20.44098">
        <ele>1142.6600341797</ele>
        <time>2023-09-30T08:44:58.000Z</time>
      </trkpt>
      <trkpt lat="41.44466" lon="20.44092">
        <ele>1144.5899658203</ele>
        <time>2023-09-30T08:44:55.000Z</time>
      </trkpt>
      <trkpt lat="41.44453" lon="20.44089">
        <ele>1145.0699462891</ele>
        <time>2023-09-30T08:44:54.000Z</time>
      </trkpt>
      <trkpt lat="41.44437" lon="20.44085">
        <ele>1146.0300292969</ele>
        <time>2023-09-30T08:44:53.000Z</time>
      </trkpt>
      <trkpt lat="41.44427" lon="20.44081">
        <ele>1146.5100097656</ele>
        <time>2023-09-30T08:44:52.000Z</time>
      </trkpt>
      <trkpt lat="41.44423" lon="20.44079">
        <ele>1146.5100097656</ele>
        <time>2023-09-30T08:44:51.000Z</time>
      </trkpt>
      <trkpt lat="41.44412" lon="20.44073">
        <ele>1147.4699707031</ele>
        <time>2023-09-30T08:44:50.000Z</time>
      </trkpt>
      <trkpt lat="41.44398" lon="20.44066">
        <ele>1148.4300537109</ele>
        <time>2023-09-30T08:44:49.000Z</time>
      </trkpt>
      <trkpt lat="41.4439" lon="20.44061">
        <ele>1149.3900146484</ele>
        <time>2023-09-30T08:44:48.000Z</time>
      </trkpt>
      <trkpt lat="41.44379" lon="20.44054">
        <ele>1150.3499755859</ele>
        <time>2023-09-30T08:44:47.000Z</time>
      </trkpt>
      <trkpt lat="41.44375" lon="20.44051">
        <ele>1150.8399658203</ele>
        <time>2023-09-30T08:44:46.000Z</time>
      </trkpt>
      <trkpt lat="41.44353" lon="20.44036">
        <ele>1152.7600097656</ele>
        <time>2023-09-30T08:44:44.000Z</time>
      </trkpt>
      <trkpt lat="41.44344" lon="20.44028">
        <ele>1153.7199707031</ele>
        <time>2023-09-30T08:44:43.000Z</time>
      </trkpt>
      <trkpt lat="41.44337" lon="20.4402">
        <ele>1154.1999511719</ele>
        <time>2023-09-30T08:44:42.000Z</time>
      </trkpt>
      <trkpt lat="41.44331" lon="20.44011">
        <ele>1154.6800537109</ele>
        <time>2023-09-30T08:44:41.000Z</time>
      </trkpt>
      <trkpt lat="41.44325" lon="20.44001">
        <ele>1155.1600341797</ele>
        <time>2023-09-30T08:44:40.000Z</time>
      </trkpt>
      <trkpt lat="41.44322" lon="20.43995">
        <ele>1155.1600341797</ele>
        <time>2023-09-30T08:44:39.000Z</time>
      </trkpt>
      <trkpt lat="41.44301" lon="20.43957">
        <ele>1156.5999755859</ele>
        <time>2023-09-30T08:44:36.000Z</time>
      </trkpt>
      <trkpt lat="41.44295" lon="20.43947">
        <ele>1157.0799560547</ele>
        <time>2023-09-30T08:44:35.000Z</time>
      </trkpt>
      <trkpt lat="41.44288" lon="20.43939">
        <ele>1158.0500488281</ele>
        <time>2023-09-30T08:44:34.000Z</time>
      </trkpt>
      <trkpt lat="41.4428" lon="20.4393">
        <ele>1158.5300292969</ele>
        <time>2023-09-30T08:44:33.000Z</time>
      </trkpt>
      <trkpt lat="41.44271" lon="20.43923">
        <ele>1159.4899902344</ele>
        <time>2023-09-30T08:44:32.000Z</time>
      </trkpt>
      <trkpt lat="41.44263" lon="20.43917">
        <ele>1160.4499511719</ele>
        <time>2023-09-30T08:44:31.000Z</time>
      </trkpt>
      <trkpt lat="41.44256" lon="20.43912">
        <ele>1160.9300537109</ele>
        <time>2023-09-30T08:44:30.000Z</time>
      </trkpt>
      <trkpt lat="41.44243" lon="20.43906">
        <ele>1162.3699951172</ele>
        <time>2023-09-30T08:44:29.000Z</time>
      </trkpt>
      <trkpt lat="41.44231" lon="20.43901">
        <ele>1163.8100585938</ele>
        <time>2023-09-30T08:44:28.000Z</time>
      </trkpt>
      <trkpt lat="41.44222" lon="20.43899">
        <ele>1164.7700195312</ele>
        <time>2023-09-30T08:44:27.000Z</time>
      </trkpt>
      <trkpt lat="41.44212" lon="20.43898">
        <ele>1165.7399902344</ele>
        <time>2023-09-30T08:44:26.000Z</time>
      </trkpt>
      <trkpt lat="41.44205" lon="20.43898">
        <ele>1166.6999511719</ele>
        <time>2023-09-30T08:44:25.000Z</time>
      </trkpt>
      <trkpt lat="41.44199" lon="20.43898">
        <ele>1167.1800537109</ele>
        <time>2023-09-30T08:44:24.000Z</time>
      </trkpt>
      <trkpt lat="41.44187" lon="20.43898">
        <ele>1168.1400146484</ele>
        <time>2023-09-30T08:44:23.000Z</time>
      </trkpt>
      <trkpt lat="41.44181" lon="20.43899">
        <ele>1169.0999755859</ele>
        <time>2023-09-30T08:44:22.000Z</time>
      </trkpt>
      <trkpt lat="41.44166" lon="20.43901">
        <ele>1170.5400390625</ele>
        <time>2023-09-30T08:44:21.000Z</time>
      </trkpt>
      <trkpt lat="41.44156" lon="20.43904">
        <ele>1171.5</ele>
        <time>2023-09-30T08:44:20.000Z</time>
      </trkpt>
      <trkpt lat="41.44127" lon="20.43915">
        <ele>1174.3900146484</ele>
        <time>2023-09-30T08:44:17.000Z</time>
      </trkpt>
      <trkpt lat="41.44119" lon="20.4392">
        <ele>1174.8699951172</ele>
        <time>2023-09-30T08:44:16.000Z</time>
      </trkpt>
      <trkpt lat="41.44111" lon="20.43927">
        <ele>1175.8299560547</ele>
        <time>2023-09-30T08:44:15.000Z</time>
      </trkpt>
      <trkpt lat="41.44105" lon="20.43935">
        <ele>1176.7900390625</ele>
        <time>2023-09-30T08:44:14.000Z</time>
      </trkpt>
      <trkpt lat="41.44101" lon="20.43942">
        <ele>1176.7900390625</ele>
        <time>2023-09-30T08:44:13.000Z</time>
      </trkpt>
      <trkpt lat="41.44092" lon="20.43957">
        <ele>1177.75</ele>
        <time>2023-09-30T08:44:12.000Z</time>
      </trkpt>
      <trkpt lat="41.44087" lon="20.43969">
        <ele>1177.75</ele>
        <time>2023-09-30T08:44:11.000Z</time>
      </trkpt>
      <trkpt lat="41.44083" lon="20.43978">
        <ele>1177.75</ele>
        <time>2023-09-30T08:44:10.000Z</time>
      </trkpt>
      <trkpt lat="41.44076" lon="20.43999">
        <ele>1177.2700195312</ele>
        <time>2023-09-30T08:44:09.000Z</time>
      </trkpt>
      <trkpt lat="41.44072" lon="20.44009">
        <ele>1176.7900390625</ele>
        <time>2023-09-30T08:44:08.000Z</time>
      </trkpt>
      <trkpt lat="41.44066" lon="20.44022">
        <ele>1176.3100585938</ele>
        <time>2023-09-30T08:44:07.000Z</time>
      </trkpt>
      <trkpt lat="41.44059" lon="20.44037">
        <ele>1175.3499755859</ele>
        <time>2023-09-30T08:44:06.000Z</time>
      </trkpt>
      <trkpt lat="41.44051" lon="20.44049">
        <ele>1174.3900146484</ele>
        <time>2023-09-30T08:44:05.000Z</time>
      </trkpt>
      <trkpt lat="41.44041" lon="20.44061">
        <ele>1173.9100341797</ele>
        <time>2023-09-30T08:44:04.000Z</time>
      </trkpt>
      <trkpt lat="41.4404" lon="20.44063">
        <ele>1173.9100341797</ele>
        <time>2023-09-30T08:44:03.000Z</time>
      </trkpt>
      <trkpt lat="41.44023" lon="20.44079">
        <ele>1174.3900146484</ele>
        <time>2023-09-30T08:44:02.000Z</time>
      </trkpt>
      <trkpt lat="41.44015" lon="20.44088">
        <ele>1174.3900146484</ele>
        <time>2023-09-30T08:44:01.000Z</time>
      </trkpt>
      <trkpt lat="41.43991" lon="20.44118">
        <ele>1172.4699707031</ele>
        <time>2023-09-30T08:43:58.000Z</time>
      </trkpt>
      <trkpt lat="41.43984" lon="20.44125">
        <ele>1172.4699707031</ele>
        <time>2023-09-30T08:43:57.000Z</time>
      </trkpt>
      <trkpt lat="41.43976" lon="20.44131">
        <ele>1171.9799804688</ele>
        <time>2023-09-30T08:43:56.000Z</time>
      </trkpt>
      <trkpt lat="41.43966" lon="20.44136">
        <ele>1171.9799804688</ele>
        <time>2023-09-30T08:43:55.000Z</time>
      </trkpt>
      <trkpt lat="41.43955" lon="20.44139">
        <ele>1171.5</ele>
        <time>2023-09-30T08:43:54.000Z</time>
      </trkpt>
      <trkpt lat="41.43929" lon="20.44142">
        <ele>1171.5</ele>
        <time>2023-09-30T08:43:52.000Z</time>
      </trkpt>
      <trkpt lat="41.43888" lon="20.44147">
        <ele>1170.0600585938</ele>
        <time>2023-09-30T08:43:49.000Z</time>
      </trkpt>
      <trkpt lat="41.43876" lon="20.4415">
        <ele>1169.0999755859</ele>
        <time>2023-09-30T08:43:48.000Z</time>
      </trkpt>
      <trkpt lat="41.43865" lon="20.44155">
        <ele>1168.1400146484</ele>
        <time>2023-09-30T08:43:47.000Z</time>
      </trkpt>
      <trkpt lat="41.4386" lon="20.44158">
        <ele>1167.6600341797</ele>
        <time>2023-09-30T08:43:46.000Z</time>
      </trkpt>
      <trkpt lat="41.43847" lon="20.44165">
        <ele>1166.6999511719</ele>
        <time>2023-09-30T08:43:45.000Z</time>
      </trkpt>
      <trkpt lat="41.43837" lon="20.44171">
        <ele>1165.7399902344</ele>
        <time>2023-09-30T08:43:44.000Z</time>
      </trkpt>
      <trkpt lat="41.43828" lon="20.44175">
        <ele>1165.2600097656</ele>
        <time>2023-09-30T08:43:43.000Z</time>
      </trkpt>
      <trkpt lat="41.43811" lon="20.44181">
        <ele>1164.2900390625</ele>
        <time>2023-09-30T08:43:42.000Z</time>
      </trkpt>
      <trkpt lat="41.43801" lon="20.44183">
        <ele>1163.8100585938</ele>
        <time>2023-09-30T08:43:41.000Z</time>
      </trkpt>
      <trkpt lat="41.43791" lon="20.44185">
        <ele>1163.8100585938</ele>
        <time>2023-09-30T08:43:40.000Z</time>
      </trkpt>
      <trkpt lat="41.43781" lon="20.44185">
        <ele>1163.3299560547</ele>
        <time>2023-09-30T08:43:39.000Z</time>
      </trkpt>
      <trkpt lat="41.43771" lon="20.44182">
        <ele>1162.8499755859</ele>
        <time>2023-09-30T08:43:38.000Z</time>
      </trkpt>
      <trkpt lat="41.43761" lon="20.44178">
        <ele>1162.3699951172</ele>
        <time>2023-09-30T08:43:37.000Z</time>
      </trkpt>
      <trkpt lat="41.43752" lon="20.44171">
        <ele>1161.8900146484</ele>
        <time>2023-09-30T08:43:36.000Z</time>
      </trkpt>
      <trkpt lat="41.43739" lon="20.44161">
        <ele>1161.4100341797</ele>
        <time>2023-09-30T08:43:35.000Z</time>
      </trkpt>
      <trkpt lat="41.43726" lon="20.44151">
        <ele>1160.4499511719</ele>
        <time>2023-09-30T08:43:34.000Z</time>
      </trkpt>
      <trkpt lat="41.43708" lon="20.44136">
        <ele>1159.9699707031</ele>
        <time>2023-09-30T08:43:32.000Z</time>
      </trkpt>
      <trkpt lat="41.4368" lon="20.44108">
        <ele>1159.0100097656</ele>
        <time>2023-09-30T08:43:30.000Z</time>
      </trkpt>
      <trkpt lat="41.43669" lon="20.44096">
        <ele>1159.0100097656</ele>
        <time>2023-09-30T08:43:29.000Z</time>
      </trkpt>
      <trkpt lat="41.4366" lon="20.44084">
        <ele>1158.5300292969</ele>
        <time>2023-09-30T08:43:28.000Z</time>
      </trkpt>
      <trkpt lat="41.43651" lon="20.4407">
        <ele>1158.0500488281</ele>
        <time>2023-09-30T08:43:27.000Z</time>
      </trkpt>
      <trkpt lat="41.43648" lon="20.44064">
        <ele>1158.0500488281</ele>
        <time>2023-09-30T08:43:26.000Z</time>
      </trkpt>
      <trkpt lat="41.43635" lon="20.44037">
        <ele>1157.0799560547</ele>
        <time>2023-09-30T08:43:25.000Z</time>
      </trkpt>
      <trkpt lat="41.43629" lon="20.44025">
        <ele>1156.5999755859</ele>
        <time>2023-09-30T08:43:24.000Z</time>
      </trkpt>
      <trkpt lat="41.43621" lon="20.44012">
        <ele>1156.1199951172</ele>
        <time>2023-09-30T08:43:23.000Z</time>
      </trkpt>
      <trkpt lat="41.43614" lon="20.44003">
        <ele>1155.6400146484</ele>
        <time>2023-09-30T08:43:22.000Z</time>
      </trkpt>
      <trkpt lat="41.43607" lon="20.43994">
        <ele>1155.6400146484</ele>
        <time>2023-09-30T08:43:21.000Z</time>
      </trkpt>
      <trkpt lat="41.43597" lon="20.43987">
        <ele>1155.6400146484</ele>
        <time>2023-09-30T08:43:20.000Z</time>
      </trkpt>
      <trkpt lat="41.43586" lon="20.43981">
        <ele>1156.1199951172</ele>
        <time>2023-09-30T08:43:19.000Z</time>
      </trkpt>
      <trkpt lat="41.43576" lon="20.43978">
        <ele>1157.0799560547</ele>
        <time>2023-09-30T08:43:18.000Z</time>
      </trkpt>
      <trkpt lat="41.43566" lon="20.43975">
        <ele>1157.5600585938</ele>
        <time>2023-09-30T08:43:17.000Z</time>
      </trkpt>
      <trkpt lat="41.43529" lon="20.43966">
        <ele>1159.9699707031</ele>
        <time>2023-09-30T08:43:14.000Z</time>
      </trkpt>
      <trkpt lat="41.43454" lon="20.43934">
        <ele>1162.3699951172</ele>
        <time>2023-09-30T08:43:07.000Z</time>
      </trkpt>
      <trkpt lat="41.43433" lon="20.43923">
        <ele>1161.8900146484</ele>
        <time>2023-09-30T08:43:04.000Z</time>
      </trkpt>
      <trkpt lat="41.43415" lon="20.43913">
        <ele>1161.4100341797</ele>
        <time>2023-09-30T08:43:03.000Z</time>
      </trkpt>
      <trkpt lat="41.43371" lon="20.43887">
        <ele>1158.5300292969</ele>
        <time>2023-09-30T08:42:59.000Z</time>
      </trkpt>
      <trkpt lat="41.4336" lon="20.43882">
        <ele>1157.5600585938</ele>
        <time>2023-09-30T08:42:58.000Z</time>
      </trkpt>
      <trkpt lat="41.43353" lon="20.4388">
        <ele>1157.0799560547</ele>
        <time>2023-09-30T08:42:57.000Z</time>
      </trkpt>
      <trkpt lat="41.43334" lon="20.43873">
        <ele>1155.6400146484</ele>
        <time>2023-09-30T08:42:56.000Z</time>
      </trkpt>
      <trkpt lat="41.43327" lon="20.4387">
        <ele>1155.1600341797</ele>
        <time>2023-09-30T08:42:55.000Z</time>
      </trkpt>
      <trkpt lat="41.43317" lon="20.43865">
        <ele>1154.6800537109</ele>
        <time>2023-09-30T08:42:54.000Z</time>
      </trkpt>
      <trkpt lat="41.43305" lon="20.43859">
        <ele>1153.7199707031</ele>
        <time>2023-09-30T08:42:53.000Z</time>
      </trkpt>
      <trkpt lat="41.43295" lon="20.43854">
        <ele>1153.2399902344</ele>
        <time>2023-09-30T08:42:52.000Z</time>
      </trkpt>
      <trkpt lat="41.43268" lon="20.43843">
        <ele>1152.2800292969</ele>
        <time>2023-09-30T08:42:50.000Z</time>
      </trkpt>
      <trkpt lat="41.43249" lon="20.43833">
        <ele>1151.8000488281</ele>
        <time>2023-09-30T08:42:49.000Z</time>
      </trkpt>
      <trkpt lat="41.43219" lon="20.43815">
        <ele>1150.8399658203</ele>
        <time>2023-09-30T08:42:46.000Z</time>
      </trkpt>
      <trkpt lat="41.4318" lon="20.43789">
        <ele>1151.3199462891</ele>
        <time>2023-09-30T08:42:43.000Z</time>
      </trkpt>
      <trkpt lat="41.43169" lon="20.4378">
        <ele>1151.8000488281</ele>
        <time>2023-09-30T08:42:42.000Z</time>
      </trkpt>
      <trkpt lat="41.43158" lon="20.43771">
        <ele>1152.2800292969</ele>
        <time>2023-09-30T08:42:41.000Z</time>
      </trkpt>
      <trkpt lat="41.43139" lon="20.43754">
        <ele>1153.2399902344</ele>
        <time>2023-09-30T08:42:39.000Z</time>
      </trkpt>
      <trkpt lat="41.43121" lon="20.43738">
        <ele>1154.6800537109</ele>
        <time>2023-09-30T08:42:37.000Z</time>
      </trkpt>
      <trkpt lat="41.43115" lon="20.43733">
        <ele>1155.1600341797</ele>
        <time>2023-09-30T08:42:36.000Z</time>
      </trkpt>
      <trkpt lat="41.43109" lon="20.4373">
        <ele>1156.1199951172</ele>
        <time>2023-09-30T08:42:35.000Z</time>
      </trkpt>
      <trkpt lat="41.43105" lon="20.43728">
        <ele>1156.1199951172</ele>
        <time>2023-09-30T08:42:34.000Z</time>
      </trkpt>
      <trkpt lat="41.43095" lon="20.43724">
        <ele>1157.0799560547</ele>
        <time>2023-09-30T08:42:33.000Z</time>
      </trkpt>
      <trkpt lat="41.43088" lon="20.43721">
        <ele>1158.0500488281</ele>
        <time>2023-09-30T08:42:32.000Z</time>
      </trkpt>
      <trkpt lat="41.43081" lon="20.43716">
        <ele>1159.0100097656</ele>
        <time>2023-09-30T08:42:31.000Z</time>
      </trkpt>
      <trkpt lat="41.43073" lon="20.4371">
        <ele>1159.9699707031</ele>
        <time>2023-09-30T08:42:30.000Z</time>
      </trkpt>
      <trkpt lat="41.43065" lon="20.43705">
        <ele>1160.9300537109</ele>
        <time>2023-09-30T08:42:29.000Z</time>
      </trkpt>
      <trkpt lat="41.4306" lon="20.43702">
        <ele>1161.4100341797</ele>
        <time>2023-09-30T08:42:28.000Z</time>
      </trkpt>
      <trkpt lat="41.43055" lon="20.43699">
        <ele>1162.3699951172</ele>
        <time>2023-09-30T08:42:27.000Z</time>
      </trkpt>
      <trkpt lat="41.43032" lon="20.4369">
        <ele>1164.2900390625</ele>
        <time>2023-09-30T08:42:25.000Z</time>
      </trkpt>
      <trkpt lat="41.43021" lon="20.43686">
        <ele>1165.7399902344</ele>
        <time>2023-09-30T08:42:24.000Z</time>
      </trkpt>
      <trkpt lat="41.43004" lon="20.43679">
        <ele>1167.6600341797</ele>
        <time>2023-09-30T08:42:22.000Z</time>
      </trkpt>
      <trkpt lat="41.42992" lon="20.43674">
        <ele>1169.0999755859</ele>
        <time>2023-09-30T08:42:21.000Z</time>
      </trkpt>
      <trkpt lat="41.42983" lon="20.43669">
        <ele>1170.0600585938</ele>
        <time>2023-09-30T08:42:20.000Z</time>
      </trkpt>
      <trkpt lat="41.42977" lon="20.43666">
        <ele>1171.0200195312</ele>
        <time>2023-09-30T08:42:19.000Z</time>
      </trkpt>
      <trkpt lat="41.42959" lon="20.4366">
        <ele>1172.9499511719</ele>
        <time>2023-09-30T08:42:17.000Z</time>
      </trkpt>
      <trkpt lat="41.4295" lon="20.43657">
        <ele>1173.9100341797</ele>
        <time>2023-09-30T08:42:16.000Z</time>
      </trkpt>
      <trkpt lat="41.42943" lon="20.43655">
        <ele>1174.8699951172</ele>
        <time>2023-09-30T08:42:15.000Z</time>
      </trkpt>
      <trkpt lat="41.42934" lon="20.43653">
        <ele>1176.3100585938</ele>
        <time>2023-09-30T08:42:14.000Z</time>
      </trkpt>
      <trkpt lat="41.42927" lon="20.4365">
        <ele>1176.7900390625</ele>
        <time>2023-09-30T08:42:13.000Z</time>
      </trkpt>
      <trkpt lat="41.42921" lon="20.43647">
        <ele>1177.75</ele>
        <time>2023-09-30T08:42:12.000Z</time>
      </trkpt>
      <trkpt lat="41.42908" lon="20.43638">
        <ele>1179.6700439453</ele>
        <time>2023-09-30T08:42:11.000Z</time>
      </trkpt>
      <trkpt lat="41.42904" lon="20.43634">
        <ele>1180.1600341797</ele>
        <time>2023-09-30T08:42:10.000Z</time>
      </trkpt>
      <trkpt lat="41.42894" lon="20.43626">
        <ele>1181.5999755859</ele>
        <time>2023-09-30T08:42:09.000Z</time>
      </trkpt>
      <trkpt lat="41.42886" lon="20.43617">
        <ele>1183.0400390625</ele>
        <time>2023-09-30T08:42:08.000Z</time>
      </trkpt>
      <trkpt lat="41.42876" lon="20.43606">
        <ele>1184.4799804688</ele>
        <time>2023-09-30T08:42:07.000Z</time>
      </trkpt>
      <trkpt lat="41.42873" lon="20.43602">
        <ele>1184.9599609375</ele>
        <time>2023-09-30T08:42:06.000Z</time>
      </trkpt>
      <trkpt lat="41.42855" lon="20.43578">
        <ele>1187.3699951172</ele>
        <time>2023-09-30T08:42:04.000Z</time>
      </trkpt>
      <trkpt lat="41.42848" lon="20.43569">
        <ele>1188.3299560547</ele>
        <time>2023-09-30T08:42:03.000Z</time>
      </trkpt>
      <trkpt lat="41.4284" lon="20.43562">
        <ele>1189.2900390625</ele>
        <time>2023-09-30T08:42:02.000Z</time>
      </trkpt>
      <trkpt lat="41.4283" lon="20.43555">
        <ele>1190.25</ele>
        <time>2023-09-30T08:42:01.000Z</time>
      </trkpt>
      <trkpt lat="41.42827" lon="20.43553">
        <ele>1190.7299804688</ele>
        <time>2023-09-30T08:42:00.000Z</time>
      </trkpt>
      <trkpt lat="41.42764" lon="20.43521">
        <ele>1194.5799560547</ele>
        <time>2023-09-30T08:41:55.000Z</time>
      </trkpt>
      <trkpt lat="41.42758" lon="20.43518">
        <ele>1194.5799560547</ele>
        <time>2023-09-30T08:41:54.000Z</time>
      </trkpt>
      <trkpt lat="41.42706" lon="20.43495">
        <ele>1191.6899414062</ele>
        <time>2023-09-30T08:41:49.000Z</time>
      </trkpt>
      <trkpt lat="41.42692" lon="20.43489">
        <ele>1190.25</ele>
        <time>2023-09-30T08:41:48.000Z</time>
      </trkpt>
      <trkpt lat="41.42678" lon="20.43484">
        <ele>1188.8100585938</ele>
        <time>2023-09-30T08:41:47.000Z</time>
      </trkpt>
      <trkpt lat="41.4267" lon="20.43482">
        <ele>1187.8499755859</ele>
        <time>2023-09-30T08:41:46.000Z</time>
      </trkpt>
      <trkpt lat="41.42657" lon="20.43479">
        <ele>1186.4000244141</ele>
        <time>2023-09-30T08:41:45.000Z</time>
      </trkpt>
      <trkpt lat="41.4265" lon="20.43478">
        <ele>1185.9200439453</ele>
        <time>2023-09-30T08:41:44.000Z</time>
      </trkpt>
      <trkpt lat="41.42637" lon="20.43476">
        <ele>1184.4799804688</ele>
        <time>2023-09-30T08:41:43.000Z</time>
      </trkpt>
      <trkpt lat="41.42621" lon="20.43475">
        <ele>1183.0400390625</ele>
        <time>2023-09-30T08:41:42.000Z</time>
      </trkpt>
      <trkpt lat="41.42615" lon="20.43475">
        <ele>1182.0799560547</ele>
        <time>2023-09-30T08:41:41.000Z</time>
      </trkpt>
      <trkpt lat="41.42605" lon="20.43476">
        <ele>1181.1199951172</ele>
        <time>2023-09-30T08:41:40.000Z</time>
      </trkpt>
      <trkpt lat="41.42593" lon="20.43477">
        <ele>1180.1600341797</ele>
        <time>2023-09-30T08:41:39.000Z</time>
      </trkpt>
      <trkpt lat="41.42583" lon="20.4348">
        <ele>1178.7099609375</ele>
        <time>2023-09-30T08:41:38.000Z</time>
      </trkpt>
      <trkpt lat="41.42577" lon="20.43483">
        <ele>1177.75</ele>
        <time>2023-09-30T08:41:37.000Z</time>
      </trkpt>
      <trkpt lat="41.42567" lon="20.43488">
        <ele>1176.7900390625</ele>
        <time>2023-09-30T08:41:36.000Z</time>
      </trkpt>
      <trkpt lat="41.4256" lon="20.43493">
        <ele>1175.8299560547</ele>
        <time>2023-09-30T08:41:35.000Z</time>
      </trkpt>
      <trkpt lat="41.4255" lon="20.43498">
        <ele>1174.8699951172</ele>
        <time>2023-09-30T08:41:34.000Z</time>
      </trkpt>
      <trkpt lat="41.4254" lon="20.43501">
        <ele>1174.3900146484</ele>
        <time>2023-09-30T08:41:33.000Z</time>
      </trkpt>
      <trkpt lat="41.42528" lon="20.43503">
        <ele>1173.4300537109</ele>
        <time>2023-09-30T08:41:32.000Z</time>
      </trkpt>
      <trkpt lat="41.42515" lon="20.43503">
        <ele>1172.9499511719</ele>
        <time>2023-09-30T08:41:31.000Z</time>
      </trkpt>
      <trkpt lat="41.42505" lon="20.43502">
        <ele>1172.9499511719</ele>
        <time>2023-09-30T08:41:30.000Z</time>
      </trkpt>
      <trkpt lat="41.42492" lon="20.43499">
        <ele>1172.4699707031</ele>
        <time>2023-09-30T08:41:29.000Z</time>
      </trkpt>
      <trkpt lat="41.42445" lon="20.43484">
        <ele>1174.3900146484</ele>
        <time>2023-09-30T08:41:25.000Z</time>
      </trkpt>
      <trkpt lat="41.42433" lon="20.43481">
        <ele>1175.3499755859</ele>
        <time>2023-09-30T08:41:24.000Z</time>
      </trkpt>
      <trkpt lat="41.42421" lon="20.43478">
        <ele>1176.7900390625</ele>
        <time>2023-09-30T08:41:23.000Z</time>
      </trkpt>
      <trkpt lat="41.4241" lon="20.43474">
        <ele>1178.2299804688</ele>
        <time>2023-09-30T08:41:22.000Z</time>
      </trkpt>
      <trkpt lat="41.42405" lon="20.43472">
        <ele>1178.7099609375</ele>
        <time>2023-09-30T08:41:21.000Z</time>
      </trkpt>
      <trkpt lat="41.42377" lon="20.43461">
        <ele>1181.5999755859</ele>
        <time>2023-09-30T08:41:19.000Z</time>
      </trkpt>
      <trkpt lat="41.42372" lon="20.43459">
        <ele>1182.0799560547</ele>
        <time>2023-09-30T08:41:18.000Z</time>
      </trkpt>
      <trkpt lat="41.42358" lon="20.43455">
        <ele>1184</ele>
        <time>2023-09-30T08:41:17.000Z</time>
      </trkpt>
      <trkpt lat="41.42345" lon="20.43449">
        <ele>1185.4399414062</ele>
        <time>2023-09-30T08:41:16.000Z</time>
      </trkpt>
      <trkpt lat="41.42336" lon="20.43444">
        <ele>1185.9200439453</ele>
        <time>2023-09-30T08:41:15.000Z</time>
      </trkpt>
      <trkpt lat="41.42287" lon="20.4341">
        <ele>1187.8499755859</ele>
        <time>2023-09-30T08:41:10.000Z</time>
      </trkpt>
      <trkpt lat="41.42277" lon="20.43405">
        <ele>1188.3299560547</ele>
        <time>2023-09-30T08:41:09.000Z</time>
      </trkpt>
      <trkpt lat="41.42257" lon="20.43395">
        <ele>1187.8499755859</ele>
        <time>2023-09-30T08:41:07.000Z</time>
      </trkpt>
      <trkpt lat="41.42242" lon="20.43389">
        <ele>1187.8499755859</ele>
        <time>2023-09-30T08:41:06.000Z</time>
      </trkpt>
      <trkpt lat="41.42221" lon="20.43382">
        <ele>1187.8499755859</ele>
        <time>2023-09-30T08:41:04.000Z</time>
      </trkpt>
      <trkpt lat="41.42202" lon="20.43378">
        <ele>1187.3699951172</ele>
        <time>2023-09-30T08:41:02.000Z</time>
      </trkpt>
      <trkpt lat="41.4219" lon="20.43376">
        <ele>1187.3699951172</ele>
        <time>2023-09-30T08:41:01.000Z</time>
      </trkpt>
      <trkpt lat="41.42181" lon="20.43376">
        <ele>1187.3699951172</ele>
        <time>2023-09-30T08:41:00.000Z</time>
      </trkpt>
      <trkpt lat="41.4217" lon="20.43378">
        <ele>1187.3699951172</ele>
        <time>2023-09-30T08:40:59.000Z</time>
      </trkpt>
      <trkpt lat="41.42149" lon="20.43383">
        <ele>1187.3699951172</ele>
        <time>2023-09-30T08:40:57.000Z</time>
      </trkpt>
      <trkpt lat="41.4214" lon="20.43384">
        <ele>1187.3699951172</ele>
        <time>2023-09-30T08:40:56.000Z</time>
      </trkpt>
      <trkpt lat="41.42131" lon="20.43383">
        <ele>1187.3699951172</ele>
        <time>2023-09-30T08:40:55.000Z</time>
      </trkpt>
      <trkpt lat="41.42124" lon="20.43382">
        <ele>1187.3699951172</ele>
        <time>2023-09-30T08:40:54.000Z</time>
      </trkpt>
      <trkpt lat="41.42123" lon="20.43382">
        <ele>1187.3699951172</ele>
        <time>2023-09-30T08:40:53.000Z</time>
      </trkpt>
      <trkpt lat="41.4211" lon="20.43377">
        <ele>1186.8800048828</ele>
        <time>2023-09-30T08:40:52.000Z</time>
      </trkpt>
      <trkpt lat="41.421" lon="20.43373">
        <ele>1186.8800048828</ele>
        <time>2023-09-30T08:40:51.000Z</time>
      </trkpt>
      <trkpt lat="41.42092" lon="20.43368">
        <ele>1186.4000244141</ele>
        <time>2023-09-30T08:40:50.000Z</time>
      </trkpt>
      <trkpt lat="41.4205" lon="20.43338">
        <ele>1184</ele>
        <time>2023-09-30T08:40:45.000Z</time>
      </trkpt>
      <trkpt lat="41.42042" lon="20.43334">
        <ele>1183.0400390625</ele>
        <time>2023-09-30T08:40:44.000Z</time>
      </trkpt>
      <trkpt lat="41.42035" lon="20.43333">
        <ele>1182.0799560547</ele>
        <time>2023-09-30T08:40:43.000Z</time>
      </trkpt>
      <trkpt lat="41.42026" lon="20.43334">
        <ele>1181.1199951172</ele>
        <time>2023-09-30T08:40:42.000Z</time>
      </trkpt>
      <trkpt lat="41.42018" lon="20.43336">
        <ele>1180.1600341797</ele>
        <time>2023-09-30T08:40:41.000Z</time>
      </trkpt>
      <trkpt lat="41.42015" lon="20.43337">
        <ele>1179.6700439453</ele>
        <time>2023-09-30T08:40:40.000Z</time>
      </trkpt>
      <trkpt lat="41.41993" lon="20.43344">
        <ele>1177.75</ele>
        <time>2023-09-30T08:40:38.000Z</time>
      </trkpt>
      <trkpt lat="41.41983" lon="20.43346">
        <ele>1176.3100585938</ele>
        <time>2023-09-30T08:40:37.000Z</time>
      </trkpt>
      <trkpt lat="41.41979" lon="20.43347">
        <ele>1175.8299560547</ele>
        <time>2023-09-30T08:40:36.000Z</time>
      </trkpt>
      <trkpt lat="41.41953" lon="20.43349">
        <ele>1173.4300537109</ele>
        <time>2023-09-30T08:40:34.000Z</time>
      </trkpt>
      <trkpt lat="41.41933" lon="20.43349">
        <ele>1171.5</ele>
        <time>2023-09-30T08:40:32.000Z</time>
      </trkpt>
      <trkpt lat="41.41922" lon="20.43349">
        <ele>1170.5400390625</ele>
        <time>2023-09-30T08:40:31.000Z</time>
      </trkpt>
      <trkpt lat="41.41913" lon="20.43346">
        <ele>1169.5799560547</ele>
        <time>2023-09-30T08:40:30.000Z</time>
      </trkpt>
      <trkpt lat="41.41904" lon="20.43343">
        <ele>1169.0999755859</ele>
        <time>2023-09-30T08:40:29.000Z</time>
      </trkpt>
      <trkpt lat="41.41897" lon="20.43338">
        <ele>1168.6199951172</ele>
        <time>2023-09-30T08:40:28.000Z</time>
      </trkpt>
      <trkpt lat="41.41889" lon="20.43332">
        <ele>1167.6600341797</ele>
        <time>2023-09-30T08:40:27.000Z</time>
      </trkpt>
      <trkpt lat="41.4188" lon="20.43325">
        <ele>1166.6999511719</ele>
        <time>2023-09-30T08:40:26.000Z</time>
      </trkpt>
      <trkpt lat="41.41873" lon="20.43317">
        <ele>1166.2199707031</ele>
        <time>2023-09-30T08:40:25.000Z</time>
      </trkpt>
      <trkpt lat="41.41869" lon="20.43311">
        <ele>1165.7399902344</ele>
        <time>2023-09-30T08:40:24.000Z</time>
      </trkpt>
      <trkpt lat="41.4186" lon="20.43297">
        <ele>1164.7700195312</ele>
        <time>2023-09-30T08:40:23.000Z</time>
      </trkpt>
      <trkpt lat="41.41856" lon="20.43289">
        <ele>1164.2900390625</ele>
        <time>2023-09-30T08:40:22.000Z</time>
      </trkpt>
      <trkpt lat="41.4185" lon="20.43276">
        <ele>1163.3299560547</ele>
        <time>2023-09-30T08:40:21.000Z</time>
      </trkpt>
      <trkpt lat="41.41845" lon="20.43267">
        <ele>1162.3699951172</ele>
        <time>2023-09-30T08:40:20.000Z</time>
      </trkpt>
      <trkpt lat="41.41835" lon="20.43245">
        <ele>1160.9300537109</ele>
        <time>2023-09-30T08:40:19.000Z</time>
      </trkpt>
      <trkpt lat="41.41828" lon="20.4323">
        <ele>1159.9699707031</ele>
        <time>2023-09-30T08:40:18.000Z</time>
      </trkpt>
      <trkpt lat="41.41822" lon="20.43216">
        <ele>1159.4899902344</ele>
        <time>2023-09-30T08:40:17.000Z</time>
      </trkpt>
      <trkpt lat="41.41817" lon="20.43202">
        <ele>1159.0100097656</ele>
        <time>2023-09-30T08:40:16.000Z</time>
      </trkpt>
      <trkpt lat="41.41814" lon="20.43188">
        <ele>1158.5300292969</ele>
        <time>2023-09-30T08:40:15.000Z</time>
      </trkpt>
      <trkpt lat="41.41813" lon="20.43174">
        <ele>1158.0500488281</ele>
        <time>2023-09-30T08:40:14.000Z</time>
      </trkpt>
      <trkpt lat="41.41813" lon="20.43161">
        <ele>1157.5600585938</ele>
        <time>2023-09-30T08:40:13.000Z</time>
      </trkpt>
      <trkpt lat="41.41815" lon="20.43148">
        <ele>1157.0799560547</ele>
        <time>2023-09-30T08:40:12.000Z</time>
      </trkpt>
      <trkpt lat="41.41817" lon="20.4314">
        <ele>1157.0799560547</ele>
        <time>2023-09-30T08:40:11.000Z</time>
      </trkpt>
      <trkpt lat="41.41822" lon="20.43124">
        <ele>1156.5999755859</ele>
        <time>2023-09-30T08:40:10.000Z</time>
      </trkpt>
      <trkpt lat="41.41824" lon="20.43113">
        <ele>1156.5999755859</ele>
        <time>2023-09-30T08:40:09.000Z</time>
      </trkpt>
      <trkpt lat="41.41825" lon="20.43101">
        <ele>1156.1199951172</ele>
        <time>2023-09-30T08:40:08.000Z</time>
      </trkpt>
      <trkpt lat="41.41824" lon="20.4309">
        <ele>1156.1199951172</ele>
        <time>2023-09-30T08:40:07.000Z</time>
      </trkpt>
      <trkpt lat="41.41822" lon="20.43081">
        <ele>1155.6400146484</ele>
        <time>2023-09-30T08:40:06.000Z</time>
      </trkpt>
      <trkpt lat="41.41817" lon="20.43066">
        <ele>1155.6400146484</ele>
        <time>2023-09-30T08:40:05.000Z</time>
      </trkpt>
      <trkpt lat="41.41813" lon="20.43055">
        <ele>1155.6400146484</ele>
        <time>2023-09-30T08:40:04.000Z</time>
      </trkpt>
      <trkpt lat="41.41809" lon="20.43047">
        <ele>1155.1600341797</ele>
        <time>2023-09-30T08:40:03.000Z</time>
      </trkpt>
      <trkpt lat="41.41801" lon="20.43036">
        <ele>1155.1600341797</ele>
        <time>2023-09-30T08:40:02.000Z</time>
      </trkpt>
      <trkpt lat="41.41795" lon="20.4303">
        <ele>1155.1600341797</ele>
        <time>2023-09-30T08:40:01.000Z</time>
      </trkpt>
      <trkpt lat="41.41789" lon="20.43023">
        <ele>1155.1600341797</ele>
        <time>2023-09-30T08:40:00.000Z</time>
      </trkpt>
      <trkpt lat="41.41783" lon="20.43016">
        <ele>1155.1600341797</ele>
        <time>2023-09-30T08:39:59.000Z</time>
      </trkpt>
      <trkpt lat="41.41773" lon="20.43002">
        <ele>1155.1600341797</ele>
        <time>2023-09-30T08:39:58.000Z</time>
      </trkpt>
      <trkpt lat="41.41761" lon="20.42988">
        <ele>1154.6800537109</ele>
        <time>2023-09-30T08:39:57.000Z</time>
      </trkpt>
      <trkpt lat="41.41756" lon="20.4298">
        <ele>1154.6800537109</ele>
        <time>2023-09-30T08:39:56.000Z</time>
      </trkpt>
      <trkpt lat="41.41739" lon="20.42956">
        <ele>1154.6800537109</ele>
        <time>2023-09-30T08:39:54.000Z</time>
      </trkpt>
      <trkpt lat="41.41732" lon="20.42942">
        <ele>1154.6800537109</ele>
        <time>2023-09-30T08:39:53.000Z</time>
      </trkpt>
      <trkpt lat="41.41727" lon="20.42932">
        <ele>1154.6800537109</ele>
        <time>2023-09-30T08:39:52.000Z</time>
      </trkpt>
      <trkpt lat="41.41722" lon="20.42921">
        <ele>1154.6800537109</ele>
        <time>2023-09-30T08:39:51.000Z</time>
      </trkpt>
      <trkpt lat="41.41716" lon="20.42908">
        <ele>1154.6800537109</ele>
        <time>2023-09-30T08:39:50.000Z</time>
      </trkpt>
      <trkpt lat="41.41712" lon="20.42897">
        <ele>1155.1600341797</ele>
        <time>2023-09-30T08:39:49.000Z</time>
      </trkpt>
      <trkpt lat="41.41711" lon="20.42892">
        <ele>1155.1600341797</ele>
        <time>2023-09-30T08:39:48.000Z</time>
      </trkpt>
      <trkpt lat="41.41706" lon="20.42879">
        <ele>1155.1600341797</ele>
        <time>2023-09-30T08:39:47.000Z</time>
      </trkpt>
      <trkpt lat="41.41701" lon="20.42863">
        <ele>1155.6400146484</ele>
        <time>2023-09-30T08:39:46.000Z</time>
      </trkpt>
      <trkpt lat="41.41696" lon="20.42847">
        <ele>1156.1199951172</ele>
        <time>2023-09-30T08:39:45.000Z</time>
      </trkpt>
      <trkpt lat="41.41694" lon="20.4284">
        <ele>1156.1199951172</ele>
        <time>2023-09-30T08:39:44.000Z</time>
      </trkpt>
      <trkpt lat="41.41689" lon="20.42827">
        <ele>1156.1199951172</ele>
        <time>2023-09-30T08:39:43.000Z</time>
      </trkpt>
      <trkpt lat="41.41686" lon="20.42818">
        <ele>1156.1199951172</ele>
        <time>2023-09-30T08:39:42.000Z</time>
      </trkpt>
      <trkpt lat="41.41682" lon="20.42809">
        <ele>1156.1199951172</ele>
        <time>2023-09-30T08:39:41.000Z</time>
      </trkpt>
      <trkpt lat="41.41674" lon="20.42797">
        <ele>1156.1199951172</ele>
        <time>2023-09-30T08:39:40.000Z</time>
      </trkpt>
      <trkpt lat="41.41667" lon="20.42786">
        <ele>1156.1199951172</ele>
        <time>2023-09-30T08:39:39.000Z</time>
      </trkpt>
      <trkpt lat="41.41655" lon="20.42765">
        <ele>1156.1199951172</ele>
        <time>2023-09-30T08:39:37.000Z</time>
      </trkpt>
      <trkpt lat="41.41647" lon="20.42752">
        <ele>1156.5999755859</ele>
        <time>2023-09-30T08:39:36.000Z</time>
      </trkpt>
      <trkpt lat="41.41638" lon="20.42736">
        <ele>1156.5999755859</ele>
        <time>2023-09-30T08:39:35.000Z</time>
      </trkpt>
      <trkpt lat="41.41634" lon="20.42727">
        <ele>1156.5999755859</ele>
        <time>2023-09-30T08:39:34.000Z</time>
      </trkpt>
      <trkpt lat="41.41627" lon="20.42711">
        <ele>1156.5999755859</ele>
        <time>2023-09-30T08:39:33.000Z</time>
      </trkpt>
      <trkpt lat="41.41623" lon="20.42701">
        <ele>1156.1199951172</ele>
        <time>2023-09-30T08:39:32.000Z</time>
      </trkpt>
      <trkpt lat="41.41619" lon="20.4269">
        <ele>1156.1199951172</ele>
        <time>2023-09-30T08:39:31.000Z</time>
      </trkpt>
      <trkpt lat="41.41613" lon="20.42679">
        <ele>1155.6400146484</ele>
        <time>2023-09-30T08:39:30.000Z</time>
      </trkpt>
      <trkpt lat="41.41607" lon="20.42671">
        <ele>1155.6400146484</ele>
        <time>2023-09-30T08:39:29.000Z</time>
      </trkpt>
      <trkpt lat="41.41599" lon="20.42665">
        <ele>1155.6400146484</ele>
        <time>2023-09-30T08:39:28.000Z</time>
      </trkpt>
      <trkpt lat="41.41594" lon="20.42662">
        <ele>1155.1600341797</ele>
        <time>2023-09-30T08:39:27.000Z</time>
      </trkpt>
      <trkpt lat="41.41574" lon="20.42652">
        <ele>1154.6800537109</ele>
        <time>2023-09-30T08:39:25.000Z</time>
      </trkpt>
      <trkpt lat="41.41564" lon="20.42646">
        <ele>1154.1999511719</ele>
        <time>2023-09-30T08:39:24.000Z</time>
      </trkpt>
      <trkpt lat="41.41552" lon="20.42638">
        <ele>1153.7199707031</ele>
        <time>2023-09-30T08:39:23.000Z</time>
      </trkpt>
      <trkpt lat="41.41544" lon="20.42632">
        <ele>1152.7600097656</ele>
        <time>2023-09-30T08:39:22.000Z</time>
      </trkpt>
      <trkpt lat="41.41517" lon="20.4261">
        <ele>1151.8000488281</ele>
        <time>2023-09-30T08:39:19.000Z</time>
      </trkpt>
      <trkpt lat="41.4151" lon="20.42602">
        <ele>1151.3199462891</ele>
        <time>2023-09-30T08:39:18.000Z</time>
      </trkpt>
      <trkpt lat="41.41506" lon="20.42595">
        <ele>1151.3199462891</ele>
        <time>2023-09-30T08:39:17.000Z</time>
      </trkpt>
      <trkpt lat="41.41501" lon="20.42585">
        <ele>1150.8399658203</ele>
        <time>2023-09-30T08:39:16.000Z</time>
      </trkpt>
      <trkpt lat="41.41497" lon="20.42577">
        <ele>1150.8399658203</ele>
        <time>2023-09-30T08:39:15.000Z</time>
      </trkpt>
      <trkpt lat="41.41493" lon="20.42568">
        <ele>1149.8699951172</ele>
        <time>2023-09-30T08:39:14.000Z</time>
      </trkpt>
      <trkpt lat="41.41491" lon="20.42562">
        <ele>1149.8699951172</ele>
        <time>2023-09-30T08:39:13.000Z</time>
      </trkpt>
      <trkpt lat="41.41487" lon="20.42556">
        <ele>1149.3900146484</ele>
        <time>2023-09-30T08:39:12.000Z</time>
      </trkpt>
      <trkpt lat="41.41483" lon="20.42552">
        <ele>1148.9100341797</ele>
        <time>2023-09-30T08:39:11.000Z</time>
      </trkpt>
      <trkpt lat="41.41479" lon="20.42549">
        <ele>1148.4300537109</ele>
        <time>2023-09-30T08:39:10.000Z</time>
      </trkpt>
      <trkpt lat="41.41474" lon="20.42548">
        <ele>1147.9499511719</ele>
        <time>2023-09-30T08:39:09.000Z</time>
      </trkpt>
      <trkpt lat="41.41468" lon="20.42549">
        <ele>1147.9499511719</ele>
        <time>2023-09-30T08:39:08.000Z</time>
      </trkpt>
      <trkpt lat="41.41461" lon="20.42552">
        <ele>1147.4699707031</ele>
        <time>2023-09-30T08:39:07.000Z</time>
      </trkpt>
      <trkpt lat="41.41454" lon="20.42556">
        <ele>1147.4699707031</ele>
        <time>2023-09-30T08:39:06.000Z</time>
      </trkpt>
      <trkpt lat="41.41447" lon="20.42562">
        <ele>1146.9899902344</ele>
        <time>2023-09-30T08:39:05.000Z</time>
      </trkpt>
      <trkpt lat="41.41439" lon="20.4257">
        <ele>1146.5100097656</ele>
        <time>2023-09-30T08:39:04.000Z</time>
      </trkpt>
      <trkpt lat="41.41423" lon="20.42584">
        <ele>1146.0300292969</ele>
        <time>2023-09-30T08:39:02.000Z</time>
      </trkpt>
      <trkpt lat="41.41421" lon="20.42586">
        <ele>1146.0300292969</ele>
        <time>2023-09-30T08:39:01.000Z</time>
      </trkpt>
      <trkpt lat="41.41408" lon="20.42596">
        <ele>1146.0300292969</ele>
        <time>2023-09-30T08:39:00.000Z</time>
      </trkpt>
      <trkpt lat="41.41392" lon="20.42609">
        <ele>1145.0699462891</ele>
        <time>2023-09-30T08:38:58.000Z</time>
      </trkpt>
      <trkpt lat="41.41365" lon="20.42626">
        <ele>1144.1099853516</ele>
        <time>2023-09-30T08:38:55.000Z</time>
      </trkpt>
      <trkpt lat="41.41357" lon="20.42632">
        <ele>1144.1099853516</ele>
        <time>2023-09-30T08:38:54.000Z</time>
      </trkpt>
      <trkpt lat="41.41354" lon="20.42634">
        <ele>1143.6300048828</ele>
        <time>2023-09-30T08:38:53.000Z</time>
      </trkpt>
      <trkpt lat="41.41326" lon="20.42657">
        <ele>1142.6600341797</ele>
        <time>2023-09-30T08:38:50.000Z</time>
      </trkpt>
      <trkpt lat="41.4132" lon="20.42661">
        <ele>1142.1800537109</ele>
        <time>2023-09-30T08:38:49.000Z</time>
      </trkpt>
      <trkpt lat="41.41315" lon="20.42664">
        <ele>1142.1800537109</ele>
        <time>2023-09-30T08:38:48.000Z</time>
      </trkpt>
      <trkpt lat="41.41308" lon="20.42666">
        <ele>1141.6999511719</ele>
        <time>2023-09-30T08:38:47.000Z</time>
      </trkpt>
      <trkpt lat="41.41304" lon="20.42668">
        <ele>1141.6999511719</ele>
        <time>2023-09-30T08:38:46.000Z</time>
      </trkpt>
      <trkpt lat="41.41301" lon="20.42669">
        <ele>1141.2199707031</ele>
        <time>2023-09-30T08:38:45.000Z</time>
      </trkpt>
      <trkpt lat="41.41293" lon="20.42672">
        <ele>1140.7399902344</ele>
        <time>2023-09-30T08:38:43.000Z</time>
      </trkpt>
      <trkpt lat="41.41288" lon="20.42674">
        <ele>1140.7399902344</ele>
        <time>2023-09-30T08:38:42.000Z</time>
      </trkpt>
      <trkpt lat="41.41282" lon="20.42675">
        <ele>1140.2600097656</ele>
        <time>2023-09-30T08:38:41.000Z</time>
      </trkpt>
      <trkpt lat="41.41275" lon="20.42675">
        <ele>1139.7800292969</ele>
        <time>2023-09-30T08:38:40.000Z</time>
      </trkpt>
      <trkpt lat="41.41268" lon="20.42673">
        <ele>1139.3000488281</ele>
        <time>2023-09-30T08:38:39.000Z</time>
      </trkpt>
      <trkpt lat="41.41256" lon="20.4267">
        <ele>1138.8199462891</ele>
        <time>2023-09-30T08:38:38.000Z</time>
      </trkpt>
      <trkpt lat="41.41255" lon="20.4267">
        <ele>1138.8199462891</ele>
        <time>2023-09-30T08:38:37.000Z</time>
      </trkpt>
      <trkpt lat="41.4124" lon="20.42665">
        <ele>1137.3800048828</ele>
        <time>2023-09-30T08:38:36.000Z</time>
      </trkpt>
      <trkpt lat="41.41231" lon="20.42663">
        <ele>1136.9000244141</ele>
        <time>2023-09-30T08:38:35.000Z</time>
      </trkpt>
      <trkpt lat="41.41223" lon="20.42664">
        <ele>1136.9000244141</ele>
        <time>2023-09-30T08:38:34.000Z</time>
      </trkpt>
      <trkpt lat="41.41216" lon="20.42667">
        <ele>1136.9000244141</ele>
        <time>2023-09-30T08:38:33.000Z</time>
      </trkpt>
      <trkpt lat="41.41206" lon="20.42672">
        <ele>1136.4200439453</ele>
        <time>2023-09-30T08:38:32.000Z</time>
      </trkpt>
      <trkpt lat="41.41197" lon="20.42679">
        <ele>1136.4200439453</ele>
        <time>2023-09-30T08:38:31.000Z</time>
      </trkpt>
      <trkpt lat="41.41189" lon="20.42684">
        <ele>1135.9399414062</ele>
        <time>2023-09-30T08:38:30.000Z</time>
      </trkpt>
      <trkpt lat="41.41182" lon="20.42687">
        <ele>1135.9399414062</ele>
        <time>2023-09-30T08:38:29.000Z</time>
      </trkpt>
      <trkpt lat="41.41173" lon="20.42691">
        <ele>1135.9399414062</ele>
        <time>2023-09-30T08:38:28.000Z</time>
      </trkpt>
      <trkpt lat="41.41166" lon="20.42694">
        <ele>1135.4499511719</ele>
        <time>2023-09-30T08:38:27.000Z</time>
      </trkpt>
      <trkpt lat="41.41159" lon="20.42695">
        <ele>1135.4499511719</ele>
        <time>2023-09-30T08:38:26.000Z</time>
      </trkpt>
      <trkpt lat="41.41152" lon="20.42694">
        <ele>1135.4499511719</ele>
        <time>2023-09-30T08:38:25.000Z</time>
      </trkpt>
      <trkpt lat="41.41145" lon="20.42691">
        <ele>1134.9699707031</ele>
        <time>2023-09-30T08:38:24.000Z</time>
      </trkpt>
      <trkpt lat="41.41141" lon="20.42689">
        <ele>1134.9699707031</ele>
        <time>2023-09-30T08:38:23.000Z</time>
      </trkpt>
      <trkpt lat="41.41131" lon="20.42682">
        <ele>1134.4899902344</ele>
        <time>2023-09-30T08:38:22.000Z</time>
      </trkpt>
      <trkpt lat="41.41124" lon="20.42675">
        <ele>1134.4899902344</ele>
        <time>2023-09-30T08:38:21.000Z</time>
      </trkpt>
      <trkpt lat="41.41118" lon="20.42668">
        <ele>1134.4899902344</ele>
        <time>2023-09-30T08:38:20.000Z</time>
      </trkpt>
      <trkpt lat="41.41112" lon="20.42661">
        <ele>1134.4899902344</ele>
        <time>2023-09-30T08:38:19.000Z</time>
      </trkpt>
      <trkpt lat="41.41106" lon="20.42652">
        <ele>1134.4899902344</ele>
        <time>2023-09-30T08:38:18.000Z</time>
      </trkpt>
      <trkpt lat="41.41101" lon="20.42642">
        <ele>1134.4899902344</ele>
        <time>2023-09-30T08:38:17.000Z</time>
      </trkpt>
      <trkpt lat="41.41097" lon="20.42633">
        <ele>1134.4899902344</ele>
        <time>2023-09-30T08:38:16.000Z</time>
      </trkpt>
      <trkpt lat="41.41094" lon="20.42625">
        <ele>1134.4899902344</ele>
        <time>2023-09-30T08:38:15.000Z</time>
      </trkpt>
      <trkpt lat="41.41091" lon="20.42617">
        <ele>1134.0100097656</ele>
        <time>2023-09-30T08:38:14.000Z</time>
      </trkpt>
      <trkpt lat="41.41089" lon="20.42609">
        <ele>1134.0100097656</ele>
        <time>2023-09-30T08:38:13.000Z</time>
      </trkpt>
      <trkpt lat="41.41088" lon="20.42606">
        <ele>1134.0100097656</ele>
        <time>2023-09-30T08:38:12.000Z</time>
      </trkpt>
      <trkpt lat="41.41086" lon="20.42591">
        <ele>1133.0500488281</ele>
        <time>2023-09-30T08:38:04.000Z</time>
      </trkpt>
      <trkpt lat="41.41086" lon="20.42584">
        <ele>1133.0500488281</ele>
        <time>2023-09-30T08:37:58.000Z</time>
      </trkpt>
      <trkpt lat="41.41085" lon="20.42577">
        <ele>1133.0500488281</ele>
        <time>2023-09-30T08:37:57.000Z</time>
      </trkpt>
      <trkpt lat="41.41085" lon="20.42576">
        <ele>1133.0500488281</ele>
        <time>2023-09-30T08:37:56.000Z</time>
      </trkpt>
      <trkpt lat="41.41085" lon="20.42562">
        <ele>1132.5699462891</ele>
        <time>2023-09-30T08:37:55.000Z</time>
      </trkpt>
      <trkpt lat="41.41086" lon="20.42552">
        <ele>1132.5699462891</ele>
        <time>2023-09-30T08:37:54.000Z</time>
      </trkpt>
      <trkpt lat="41.41087" lon="20.42547">
        <ele>1132.5699462891</ele>
        <time>2023-09-30T08:37:53.000Z</time>
      </trkpt>
      <trkpt lat="41.41089" lon="20.42531">
        <ele>1132.5699462891</ele>
        <time>2023-09-30T08:37:52.000Z</time>
      </trkpt>
      <trkpt lat="41.4109" lon="20.42521">
        <ele>1133.0500488281</ele>
        <time>2023-09-30T08:37:51.000Z</time>
      </trkpt>
      <trkpt lat="41.41092" lon="20.42511">
        <ele>1133.0500488281</ele>
        <time>2023-09-30T08:37:50.000Z</time>
      </trkpt>
      <trkpt lat="41.41093" lon="20.42501">
        <ele>1133.0500488281</ele>
        <time>2023-09-30T08:37:49.000Z</time>
      </trkpt>
      <trkpt lat="41.41095" lon="20.42486">
        <ele>1133.0500488281</ele>
        <time>2023-09-30T08:37:48.000Z</time>
      </trkpt>
      <trkpt lat="41.41097" lon="20.42474">
        <ele>1133.5300292969</ele>
        <time>2023-09-30T08:37:47.000Z</time>
      </trkpt>
      <trkpt lat="41.41098" lon="20.42463">
        <ele>1133.5300292969</ele>
        <time>2023-09-30T08:37:46.000Z</time>
      </trkpt>
      <trkpt lat="41.41098" lon="20.42454">
        <ele>1133.5300292969</ele>
        <time>2023-09-30T08:37:45.000Z</time>
      </trkpt>
      <trkpt lat="41.41097" lon="20.42446">
        <ele>1133.5300292969</ele>
        <time>2023-09-30T08:37:44.000Z</time>
      </trkpt>
      <trkpt lat="41.41094" lon="20.4244">
        <ele>1133.5300292969</ele>
        <time>2023-09-30T08:37:43.000Z</time>
      </trkpt>
      <trkpt lat="41.4109" lon="20.42434">
        <ele>1133.5300292969</ele>
        <time>2023-09-30T08:37:42.000Z</time>
      </trkpt>
      <trkpt lat="41.41085" lon="20.42431">
        <ele>1133.0500488281</ele>
        <time>2023-09-30T08:37:41.000Z</time>
      </trkpt>
      <trkpt lat="41.41077" lon="20.42429">
        <ele>1133.0500488281</ele>
        <time>2023-09-30T08:37:40.000Z</time>
      </trkpt>
      <trkpt lat="41.41069" lon="20.4243">
        <ele>1133.0500488281</ele>
        <time>2023-09-30T08:37:39.000Z</time>
      </trkpt>
      <trkpt lat="41.41061" lon="20.42432">
        <ele>1133.5300292969</ele>
        <time>2023-09-30T08:37:38.000Z</time>
      </trkpt>
      <trkpt lat="41.41052" lon="20.42435">
        <ele>1133.5300292969</ele>
        <time>2023-09-30T08:37:37.000Z</time>
      </trkpt>
      <trkpt lat="41.41044" lon="20.42438">
        <ele>1133.5300292969</ele>
        <time>2023-09-30T08:37:36.000Z</time>
      </trkpt>
      <trkpt lat="41.41034" lon="20.42442">
        <ele>1134.0100097656</ele>
        <time>2023-09-30T08:37:35.000Z</time>
      </trkpt>
      <trkpt lat="41.41031" lon="20.42443">
        <ele>1134.0100097656</ele>
        <time>2023-09-30T08:37:34.000Z</time>
      </trkpt>
      <trkpt lat="41.40997" lon="20.42451">
        <ele>1134.0100097656</ele>
        <time>2023-09-30T08:37:31.000Z</time>
      </trkpt>
      <trkpt lat="41.40957" lon="20.42465">
        <ele>1133.5300292969</ele>
        <time>2023-09-30T08:37:27.000Z</time>
      </trkpt>
      <trkpt lat="41.40953" lon="20.42467">
        <ele>1133.5300292969</ele>
        <time>2023-09-30T08:37:26.000Z</time>
      </trkpt>
      <trkpt lat="41.40942" lon="20.42473">
        <ele>1133.5300292969</ele>
        <time>2023-09-30T08:37:25.000Z</time>
      </trkpt>
      <trkpt lat="41.40934" lon="20.42477">
        <ele>1133.5300292969</ele>
        <time>2023-09-30T08:37:24.000Z</time>
      </trkpt>
      <trkpt lat="41.40925" lon="20.42482">
        <ele>1133.0500488281</ele>
        <time>2023-09-30T08:37:23.000Z</time>
      </trkpt>
      <trkpt lat="41.40918" lon="20.42485">
        <ele>1133.5300292969</ele>
        <time>2023-09-30T08:37:22.000Z</time>
      </trkpt>
      <trkpt lat="41.40912" lon="20.42486">
        <ele>1133.5300292969</ele>
        <time>2023-09-30T08:37:21.000Z</time>
      </trkpt>
      <trkpt lat="41.40902" lon="20.42486">
        <ele>1133.5300292969</ele>
        <time>2023-09-30T08:37:20.000Z</time>
      </trkpt>
      <trkpt lat="41.40893" lon="20.42485">
        <ele>1133.5300292969</ele>
        <time>2023-09-30T08:37:19.000Z</time>
      </trkpt>
      <trkpt lat="41.40888" lon="20.42483">
        <ele>1133.5300292969</ele>
        <time>2023-09-30T08:37:18.000Z</time>
      </trkpt>
      <trkpt lat="41.40876" lon="20.42477">
        <ele>1133.5300292969</ele>
        <time>2023-09-30T08:37:16.000Z</time>
      </trkpt>
      <trkpt lat="41.4085" lon="20.42468">
        <ele>1133.0500488281</ele>
        <time>2023-09-30T08:37:14.000Z</time>
      </trkpt>
      <trkpt lat="41.40844" lon="20.42466">
        <ele>1133.0500488281</ele>
        <time>2023-09-30T08:37:13.000Z</time>
      </trkpt>
      <trkpt lat="41.40831" lon="20.42464">
        <ele>1133.5300292969</ele>
        <time>2023-09-30T08:37:12.000Z</time>
      </trkpt>
      <trkpt lat="41.408" lon="20.42455">
        <ele>1134.4899902344</ele>
        <time>2023-09-30T08:37:09.000Z</time>
      </trkpt>
      <trkpt lat="41.40793" lon="20.42452">
        <ele>1134.4899902344</ele>
        <time>2023-09-30T08:37:08.000Z</time>
      </trkpt>
      <trkpt lat="41.40786" lon="20.42446">
        <ele>1134.9699707031</ele>
        <time>2023-09-30T08:37:07.000Z</time>
      </trkpt>
      <trkpt lat="41.40779" lon="20.42438">
        <ele>1134.9699707031</ele>
        <time>2023-09-30T08:37:06.000Z</time>
      </trkpt>
      <trkpt lat="41.40774" lon="20.42429">
        <ele>1135.4499511719</ele>
        <time>2023-09-30T08:37:05.000Z</time>
      </trkpt>
      <trkpt lat="41.4077" lon="20.4242">
        <ele>1135.9399414062</ele>
        <time>2023-09-30T08:37:04.000Z</time>
      </trkpt>
      <trkpt lat="41.40766" lon="20.4241">
        <ele>1136.4200439453</ele>
        <time>2023-09-30T08:37:03.000Z</time>
      </trkpt>
      <trkpt lat="41.40764" lon="20.42398">
        <ele>1136.4200439453</ele>
        <time>2023-09-30T08:37:02.000Z</time>
      </trkpt>
      <trkpt lat="41.40763" lon="20.42388">
        <ele>1136.9000244141</ele>
        <time>2023-09-30T08:37:01.000Z</time>
      </trkpt>
      <trkpt lat="41.40764" lon="20.42376">
        <ele>1136.9000244141</ele>
        <time>2023-09-30T08:37:00.000Z</time>
      </trkpt>
      <trkpt lat="41.40766" lon="20.42365">
        <ele>1136.9000244141</ele>
        <time>2023-09-30T08:36:59.000Z</time>
      </trkpt>
      <trkpt lat="41.40768" lon="20.42356">
        <ele>1136.4200439453</ele>
        <time>2023-09-30T08:36:58.000Z</time>
      </trkpt>
      <trkpt lat="41.40773" lon="20.42337">
        <ele>1136.4200439453</ele>
        <time>2023-09-30T08:36:56.000Z</time>
      </trkpt>
      <trkpt lat="41.40775" lon="20.42328">
        <ele>1136.9000244141</ele>
        <time>2023-09-30T08:36:55.000Z</time>
      </trkpt>
      <trkpt lat="41.40775" lon="20.4232">
        <ele>1136.9000244141</ele>
        <time>2023-09-30T08:36:54.000Z</time>
      </trkpt>
      <trkpt lat="41.40773" lon="20.42312">
        <ele>1136.4200439453</ele>
        <time>2023-09-30T08:36:53.000Z</time>
      </trkpt>
      <trkpt lat="41.4077" lon="20.42304">
        <ele>1136.4200439453</ele>
        <time>2023-09-30T08:36:52.000Z</time>
      </trkpt>
      <trkpt lat="41.40764" lon="20.42296">
        <ele>1136.4200439453</ele>
        <time>2023-09-30T08:36:51.000Z</time>
      </trkpt>
      <trkpt lat="41.40757" lon="20.4229">
        <ele>1136.4200439453</ele>
        <time>2023-09-30T08:36:50.000Z</time>
      </trkpt>
      <trkpt lat="41.40748" lon="20.42284">
        <ele>1136.9000244141</ele>
        <time>2023-09-30T08:36:49.000Z</time>
      </trkpt>
      <trkpt lat="41.40738" lon="20.42279">
        <ele>1136.9000244141</ele>
        <time>2023-09-30T08:36:48.000Z</time>
      </trkpt>
      <trkpt lat="41.40722" lon="20.42274">
        <ele>1137.3800048828</ele>
        <time>2023-09-30T08:36:46.000Z</time>
      </trkpt>
      <trkpt lat="41.40706" lon="20.42271">
        <ele>1137.3800048828</ele>
        <time>2023-09-30T08:36:45.000Z</time>
      </trkpt>
      <trkpt lat="41.40698" lon="20.4227">
        <ele>1137.3800048828</ele>
        <time>2023-09-30T08:36:44.000Z</time>
      </trkpt>
      <trkpt lat="41.40685" lon="20.4227">
        <ele>1137.3800048828</ele>
        <time>2023-09-30T08:36:43.000Z</time>
      </trkpt>
      <trkpt lat="41.40679" lon="20.42269">
        <ele>1137.3800048828</ele>
        <time>2023-09-30T08:36:42.000Z</time>
      </trkpt>
      <trkpt lat="41.40665" lon="20.42268">
        <ele>1137.8599853516</ele>
        <time>2023-09-30T08:36:41.000Z</time>
      </trkpt>
      <trkpt lat="41.40656" lon="20.42265">
        <ele>1137.8599853516</ele>
        <time>2023-09-30T08:36:40.000Z</time>
      </trkpt>
      <trkpt lat="41.4065" lon="20.42262">
        <ele>1137.8599853516</ele>
        <time>2023-09-30T08:36:39.000Z</time>
      </trkpt>
      <trkpt lat="41.40641" lon="20.42254">
        <ele>1137.8599853516</ele>
        <time>2023-09-30T08:36:38.000Z</time>
      </trkpt>
      <trkpt lat="41.40625" lon="20.42236">
        <ele>1137.3800048828</ele>
        <time>2023-09-30T08:36:36.000Z</time>
      </trkpt>
      <trkpt lat="41.40618" lon="20.42227">
        <ele>1136.9000244141</ele>
        <time>2023-09-30T08:36:35.000Z</time>
      </trkpt>
      <trkpt lat="41.40612" lon="20.42216">
        <ele>1136.9000244141</ele>
        <time>2023-09-30T08:36:34.000Z</time>
      </trkpt>
      <trkpt lat="41.40607" lon="20.42208">
        <ele>1136.9000244141</ele>
        <time>2023-09-30T08:36:33.000Z</time>
      </trkpt>
      <trkpt lat="41.40604" lon="20.42201">
        <ele>1136.9000244141</ele>
        <time>2023-09-30T08:36:32.000Z</time>
      </trkpt>
      <trkpt lat="41.40594" lon="20.42181">
        <ele>1136.9000244141</ele>
        <time>2023-09-30T08:36:31.000Z</time>
      </trkpt>
      <trkpt lat="41.40588" lon="20.42168">
        <ele>1136.9000244141</ele>
        <time>2023-09-30T08:36:30.000Z</time>
      </trkpt>
      <trkpt lat="41.4058" lon="20.42149">
        <ele>1136.9000244141</ele>
        <time>2023-09-30T08:36:28.000Z</time>
      </trkpt>
      <trkpt lat="41.40574" lon="20.42133">
        <ele>1136.9000244141</ele>
        <time>2023-09-30T08:36:27.000Z</time>
      </trkpt>
      <trkpt lat="41.40567" lon="20.42121">
        <ele>1136.4200439453</ele>
        <time>2023-09-30T08:36:26.000Z</time>
      </trkpt>
      <trkpt lat="41.4056" lon="20.4211">
        <ele>1136.4200439453</ele>
        <time>2023-09-30T08:36:25.000Z</time>
      </trkpt>
      <trkpt lat="41.40551" lon="20.42099">
        <ele>1136.4200439453</ele>
        <time>2023-09-30T08:36:24.000Z</time>
      </trkpt>
      <trkpt lat="41.40543" lon="20.42089">
        <ele>1136.4200439453</ele>
        <time>2023-09-30T08:36:23.000Z</time>
      </trkpt>
      <trkpt lat="41.40539" lon="20.42082">
        <ele>1136.9000244141</ele>
        <time>2023-09-30T08:36:22.000Z</time>
      </trkpt>
      <trkpt lat="41.40532" lon="20.42068">
        <ele>1136.9000244141</ele>
        <time>2023-09-30T08:36:21.000Z</time>
      </trkpt>
      <trkpt lat="41.40526" lon="20.42055">
        <ele>1136.9000244141</ele>
        <time>2023-09-30T08:36:20.000Z</time>
      </trkpt>
      <trkpt lat="41.40521" lon="20.42042">
        <ele>1136.9000244141</ele>
        <time>2023-09-30T08:36:19.000Z</time>
      </trkpt>
      <trkpt lat="41.40514" lon="20.42016">
        <ele>1136.4200439453</ele>
        <time>2023-09-30T08:36:17.000Z</time>
      </trkpt>
      <trkpt lat="41.40508" lon="20.42002">
        <ele>1136.4200439453</ele>
        <time>2023-09-30T08:36:16.000Z</time>
      </trkpt>
      <trkpt lat="41.40504" lon="20.41994">
        <ele>1136.4200439453</ele>
        <time>2023-09-30T08:36:15.000Z</time>
      </trkpt>
      <trkpt lat="41.40489" lon="20.41969">
        <ele>1136.9000244141</ele>
        <time>2023-09-30T08:36:13.000Z</time>
      </trkpt>
      <trkpt lat="41.40482" lon="20.41958">
        <ele>1137.8599853516</ele>
        <time>2023-09-30T08:36:12.000Z</time>
      </trkpt>
      <trkpt lat="41.40463" lon="20.41933">
        <ele>1138.8199462891</ele>
        <time>2023-09-30T08:36:10.000Z</time>
      </trkpt>
      <trkpt lat="41.40458" lon="20.41925">
        <ele>1139.3000488281</ele>
        <time>2023-09-30T08:36:09.000Z</time>
      </trkpt>
      <trkpt lat="41.40451" lon="20.41912">
        <ele>1139.7800292969</ele>
        <time>2023-09-30T08:36:08.000Z</time>
      </trkpt>
      <trkpt lat="41.40447" lon="20.41901">
        <ele>1140.2600097656</ele>
        <time>2023-09-30T08:36:07.000Z</time>
      </trkpt>
      <trkpt lat="41.40444" lon="20.41888">
        <ele>1140.7399902344</ele>
        <time>2023-09-30T08:36:06.000Z</time>
      </trkpt>
      <trkpt lat="41.40443" lon="20.41881">
        <ele>1140.7399902344</ele>
        <time>2023-09-30T08:36:05.000Z</time>
      </trkpt>
      <trkpt lat="41.40441" lon="20.41866">
        <ele>1141.2199707031</ele>
        <time>2023-09-30T08:36:04.000Z</time>
      </trkpt>
      <trkpt lat="41.40438" lon="20.41855">
        <ele>1141.2199707031</ele>
        <time>2023-09-30T08:36:03.000Z</time>
      </trkpt>
      <trkpt lat="41.40434" lon="20.41845">
        <ele>1141.2199707031</ele>
        <time>2023-09-30T08:36:02.000Z</time>
      </trkpt>
      <trkpt lat="41.40429" lon="20.41837">
        <ele>1141.2199707031</ele>
        <time>2023-09-30T08:36:01.000Z</time>
      </trkpt>
      <trkpt lat="41.40423" lon="20.4183">
        <ele>1141.2199707031</ele>
        <time>2023-09-30T08:36:00.000Z</time>
      </trkpt>
      <trkpt lat="41.40416" lon="20.41825">
        <ele>1141.6999511719</ele>
        <time>2023-09-30T08:35:59.000Z</time>
      </trkpt>
      <trkpt lat="41.40409" lon="20.41822">
        <ele>1142.1800537109</ele>
        <time>2023-09-30T08:35:58.000Z</time>
      </trkpt>
      <trkpt lat="41.40398" lon="20.41819">
        <ele>1142.6600341797</ele>
        <time>2023-09-30T08:35:57.000Z</time>
      </trkpt>
      <trkpt lat="41.40388" lon="20.41816">
        <ele>1143.6300048828</ele>
        <time>2023-09-30T08:35:56.000Z</time>
      </trkpt>
      <trkpt lat="41.40377" lon="20.41811">
        <ele>1144.5899658203</ele>
        <time>2023-09-30T08:35:55.000Z</time>
      </trkpt>
      <trkpt lat="41.40373" lon="20.41808">
        <ele>1145.0699462891</ele>
        <time>2023-09-30T08:35:54.000Z</time>
      </trkpt>
      <trkpt lat="41.40324" lon="20.41779">
        <ele>1147.9499511719</ele>
        <time>2023-09-30T08:35:49.000Z</time>
      </trkpt>
      <trkpt lat="41.40307" lon="20.41772">
        <ele>1148.9100341797</ele>
        <time>2023-09-30T08:35:48.000Z</time>
      </trkpt>
      <trkpt lat="41.40304" lon="20.41771">
        <ele>1148.9100341797</ele>
        <time>2023-09-30T08:35:47.000Z</time>
      </trkpt>
      <trkpt lat="41.40282" lon="20.41762">
        <ele>1149.8699951172</ele>
        <time>2023-09-30T08:35:45.000Z</time>
      </trkpt>
      <trkpt lat="41.40253" lon="20.41752">
        <ele>1151.3199462891</ele>
        <time>2023-09-30T08:35:43.000Z</time>
      </trkpt>
      <trkpt lat="41.40243" lon="20.41749">
        <ele>1151.8000488281</ele>
        <time>2023-09-30T08:35:42.000Z</time>
      </trkpt>
      <trkpt lat="41.40185" lon="20.41734">
        <ele>1155.6400146484</ele>
        <time>2023-09-30T08:35:36.000Z</time>
      </trkpt>
      <trkpt lat="41.40176" lon="20.41731">
        <ele>1156.1199951172</ele>
        <time>2023-09-30T08:35:35.000Z</time>
      </trkpt>
      <trkpt lat="41.40164" lon="20.41725">
        <ele>1156.1199951172</ele>
        <time>2023-09-30T08:35:34.000Z</time>
      </trkpt>
      <trkpt lat="41.40157" lon="20.41719">
        <ele>1156.5999755859</ele>
        <time>2023-09-30T08:35:33.000Z</time>
      </trkpt>
      <trkpt lat="41.40151" lon="20.41713">
        <ele>1156.5999755859</ele>
        <time>2023-09-30T08:35:32.000Z</time>
      </trkpt>
      <trkpt lat="41.40146" lon="20.41706">
        <ele>1156.5999755859</ele>
        <time>2023-09-30T08:35:31.000Z</time>
      </trkpt>
      <trkpt lat="41.40141" lon="20.41697">
        <ele>1156.5999755859</ele>
        <time>2023-09-30T08:35:30.000Z</time>
      </trkpt>
      <trkpt lat="41.40138" lon="20.41688">
        <ele>1156.5999755859</ele>
        <time>2023-09-30T08:35:29.000Z</time>
      </trkpt>
      <trkpt lat="41.40135" lon="20.41678">
        <ele>1156.1199951172</ele>
        <time>2023-09-30T08:35:28.000Z</time>
      </trkpt>
      <trkpt lat="41.40134" lon="20.41669">
        <ele>1155.6400146484</ele>
        <time>2023-09-30T08:35:27.000Z</time>
      </trkpt>
      <trkpt lat="41.40132" lon="20.41638">
        <ele>1154.1999511719</ele>
        <time>2023-09-30T08:35:25.000Z</time>
      </trkpt>
      <trkpt lat="41.40129" lon="20.41624">
        <ele>1153.7199707031</ele>
        <time>2023-09-30T08:35:24.000Z</time>
      </trkpt>
      <trkpt lat="41.40125" lon="20.41611">
        <ele>1152.7600097656</ele>
        <time>2023-09-30T08:35:23.000Z</time>
      </trkpt>
      <trkpt lat="41.4012" lon="20.41599">
        <ele>1152.2800292969</ele>
        <time>2023-09-30T08:35:22.000Z</time>
      </trkpt>
      <trkpt lat="41.40118" lon="20.41596">
        <ele>1152.2800292969</ele>
        <time>2023-09-30T08:35:21.000Z</time>
      </trkpt>
      <trkpt lat="41.40107" lon="20.41575">
        <ele>1151.3199462891</ele>
        <time>2023-09-30T08:35:20.000Z</time>
      </trkpt>
      <trkpt lat="41.40099" lon="20.41562">
        <ele>1150.3499755859</ele>
        <time>2023-09-30T08:35:19.000Z</time>
      </trkpt>
      <trkpt lat="41.40093" lon="20.41553">
        <ele>1149.8699951172</ele>
        <time>2023-09-30T08:35:18.000Z</time>
      </trkpt>
      <trkpt lat="41.40083" lon="20.41541">
        <ele>1149.3900146484</ele>
        <time>2023-09-30T08:35:17.000Z</time>
      </trkpt>
      <trkpt lat="41.40078" lon="20.41536">
        <ele>1148.9100341797</ele>
        <time>2023-09-30T08:35:16.000Z</time>
      </trkpt>
      <trkpt lat="41.40065" lon="20.41523">
        <ele>1147.9499511719</ele>
        <time>2023-09-30T08:35:15.000Z</time>
      </trkpt>
      <trkpt lat="41.40057" lon="20.41514">
        <ele>1147.4699707031</ele>
        <time>2023-09-30T08:35:14.000Z</time>
      </trkpt>
      <trkpt lat="41.40052" lon="20.41507">
        <ele>1146.9899902344</ele>
        <time>2023-09-30T08:35:13.000Z</time>
      </trkpt>
      <trkpt lat="41.40043" lon="20.41494">
        <ele>1146.5100097656</ele>
        <time>2023-09-30T08:35:12.000Z</time>
      </trkpt>
      <trkpt lat="41.40039" lon="20.41485">
        <ele>1146.0300292969</ele>
        <time>2023-09-30T08:35:11.000Z</time>
      </trkpt>
      <trkpt lat="41.40032" lon="20.4147">
        <ele>1145.0699462891</ele>
        <time>2023-09-30T08:35:10.000Z</time>
      </trkpt>
      <trkpt lat="41.40029" lon="20.41462">
        <ele>1144.5899658203</ele>
        <time>2023-09-30T08:35:09.000Z</time>
      </trkpt>
      <trkpt lat="41.40026" lon="20.41448">
        <ele>1143.6300048828</ele>
        <time>2023-09-30T08:35:08.000Z</time>
      </trkpt>
      <trkpt lat="41.40025" lon="20.41444">
        <ele>1143.6300048828</ele>
        <time>2023-09-30T08:35:07.000Z</time>
      </trkpt>
      <trkpt lat="41.40022" lon="20.41423">
        <ele>1142.6600341797</ele>
        <time>2023-09-30T08:35:06.000Z</time>
      </trkpt>
      <trkpt lat="41.40021" lon="20.41411">
        <ele>1142.1800537109</ele>
        <time>2023-09-30T08:35:05.000Z</time>
      </trkpt>
      <trkpt lat="41.40021" lon="20.41405">
        <ele>1141.6999511719</ele>
        <time>2023-09-30T08:35:04.000Z</time>
      </trkpt>
      <trkpt lat="41.4002" lon="20.41391">
        <ele>1141.2199707031</ele>
        <time>2023-09-30T08:35:03.000Z</time>
      </trkpt>
      <trkpt lat="41.40018" lon="20.41382">
        <ele>1140.7399902344</ele>
        <time>2023-09-30T08:35:02.000Z</time>
      </trkpt>
      <trkpt lat="41.40015" lon="20.41375">
        <ele>1140.7399902344</ele>
        <time>2023-09-30T08:35:01.000Z</time>
      </trkpt>
      <trkpt lat="41.40011" lon="20.41369">
        <ele>1140.2600097656</ele>
        <time>2023-09-30T08:35:00.000Z</time>
      </trkpt>
      <trkpt lat="41.40005" lon="20.41366">
        <ele>1139.7800292969</ele>
        <time>2023-09-30T08:34:59.000Z</time>
      </trkpt>
      <trkpt lat="41.39998" lon="20.41364">
        <ele>1139.3000488281</ele>
        <time>2023-09-30T08:34:58.000Z</time>
      </trkpt>
      <trkpt lat="41.39991" lon="20.41365">
        <ele>1138.8199462891</ele>
        <time>2023-09-30T08:34:57.000Z</time>
      </trkpt>
      <trkpt lat="41.39984" lon="20.41367">
        <ele>1138.8199462891</ele>
        <time>2023-09-30T08:34:56.000Z</time>
      </trkpt>
      <trkpt lat="41.39979" lon="20.41372">
        <ele>1138.3399658203</ele>
        <time>2023-09-30T08:34:55.000Z</time>
      </trkpt>
      <trkpt lat="41.39974" lon="20.41377">
        <ele>1137.3800048828</ele>
        <time>2023-09-30T08:34:54.000Z</time>
      </trkpt>
      <trkpt lat="41.39971" lon="20.41384">
        <ele>1136.9000244141</ele>
        <time>2023-09-30T08:34:53.000Z</time>
      </trkpt>
      <trkpt lat="41.39969" lon="20.41391">
        <ele>1136.4200439453</ele>
        <time>2023-09-30T08:34:52.000Z</time>
      </trkpt>
      <trkpt lat="41.39968" lon="20.414">
        <ele>1135.4499511719</ele>
        <time>2023-09-30T08:34:51.000Z</time>
      </trkpt>
      <trkpt lat="41.39968" lon="20.41411">
        <ele>1134.9699707031</ele>
        <time>2023-09-30T08:34:50.000Z</time>
      </trkpt>
      <trkpt lat="41.3997" lon="20.41421">
        <ele>1134.4899902344</ele>
        <time>2023-09-30T08:34:49.000Z</time>
      </trkpt>
      <trkpt lat="41.39972" lon="20.41431">
        <ele>1133.5300292969</ele>
        <time>2023-09-30T08:34:48.000Z</time>
      </trkpt>
      <trkpt lat="41.39973" lon="20.41435">
        <ele>1133.0500488281</ele>
        <time>2023-09-30T08:34:47.000Z</time>
      </trkpt>
      <trkpt lat="41.39977" lon="20.41445">
        <ele>1132.0899658203</ele>
        <time>2023-09-30T08:34:46.000Z</time>
      </trkpt>
      <trkpt lat="41.39983" lon="20.4146">
        <ele>1130.6500244141</ele>
        <time>2023-09-30T08:34:45.000Z</time>
      </trkpt>
      <trkpt lat="41.39986" lon="20.41471">
        <ele>1129.6899414062</ele>
        <time>2023-09-30T08:34:44.000Z</time>
      </trkpt>
      <trkpt lat="41.39989" lon="20.41483">
        <ele>1128.7299804688</ele>
        <time>2023-09-30T08:34:43.000Z</time>
      </trkpt>
      <trkpt lat="41.39991" lon="20.41492">
        <ele>1127.7600097656</ele>
        <time>2023-09-30T08:34:42.000Z</time>
      </trkpt>
      <trkpt lat="41.39995" lon="20.41504">
        <ele>1126.8000488281</ele>
        <time>2023-09-30T08:34:41.000Z</time>
      </trkpt>
      <trkpt lat="41.39996" lon="20.41507">
        <ele>1126.3199462891</ele>
        <time>2023-09-30T08:34:40.000Z</time>
      </trkpt>
      <trkpt lat="41.40008" lon="20.41536">
        <ele>1123.4399414062</ele>
        <time>2023-09-30T08:34:38.000Z</time>
      </trkpt>
      <trkpt lat="41.40011" lon="20.41543">
        <ele>1122.9599609375</ele>
        <time>2023-09-30T08:34:37.000Z</time>
      </trkpt>
      <trkpt lat="41.40013" lon="20.41547">
        <ele>1122.4799804688</ele>
        <time>2023-09-30T08:34:36.000Z</time>
      </trkpt>
      <trkpt lat="41.40018" lon="20.41561">
        <ele>1121.0300292969</ele>
        <time>2023-09-30T08:34:35.000Z</time>
      </trkpt>
      <trkpt lat="41.4002" lon="20.41567">
        <ele>1120.0699462891</ele>
        <time>2023-09-30T08:34:34.000Z</time>
      </trkpt>
      <trkpt lat="41.40025" lon="20.41578">
        <ele>1118.6300048828</ele>
        <time>2023-09-30T08:34:33.000Z</time>
      </trkpt>
      <trkpt lat="41.40031" lon="20.41588">
        <ele>1117.6700439453</ele>
        <time>2023-09-30T08:34:32.000Z</time>
      </trkpt>
      <trkpt lat="41.40036" lon="20.41597">
        <ele>1116.7099609375</ele>
        <time>2023-09-30T08:34:31.000Z</time>
      </trkpt>
      <trkpt lat="41.40039" lon="20.41604">
        <ele>1115.75</ele>
        <time>2023-09-30T08:34:30.000Z</time>
      </trkpt>
      <trkpt lat="41.40041" lon="20.41612">
        <ele>1115.2700195312</ele>
        <time>2023-09-30T08:34:29.000Z</time>
      </trkpt>
      <trkpt lat="41.40042" lon="20.4162">
        <ele>1114.3100585938</ele>
        <time>2023-09-30T08:34:28.000Z</time>
      </trkpt>
      <trkpt lat="41.40041" lon="20.41629">
        <ele>1113.3399658203</ele>
        <time>2023-09-30T08:34:27.000Z</time>
      </trkpt>
      <trkpt lat="41.40039" lon="20.41637">
        <ele>1112.3800048828</ele>
        <time>2023-09-30T08:34:26.000Z</time>
      </trkpt>
      <trkpt lat="41.40036" lon="20.41645">
        <ele>1111.4200439453</ele>
        <time>2023-09-30T08:34:25.000Z</time>
      </trkpt>
      <trkpt lat="41.40032" lon="20.41652">
        <ele>1110.4599609375</ele>
        <time>2023-09-30T08:34:24.000Z</time>
      </trkpt>
      <trkpt lat="41.40027" lon="20.41657">
        <ele>1109.9799804688</ele>
        <time>2023-09-30T08:34:23.000Z</time>
      </trkpt>
      <trkpt lat="41.40022" lon="20.41662">
        <ele>1109.0200195312</ele>
        <time>2023-09-30T08:34:22.000Z</time>
      </trkpt>
      <trkpt lat="41.40016" lon="20.41666">
        <ele>1108.5400390625</ele>
        <time>2023-09-30T08:34:21.000Z</time>
      </trkpt>
      <trkpt lat="41.40008" lon="20.41671">
        <ele>1107.0999755859</ele>
        <time>2023-09-30T08:34:20.000Z</time>
      </trkpt>
      <trkpt lat="41.40001" lon="20.41675">
        <ele>1106.1300048828</ele>
        <time>2023-09-30T08:34:19.000Z</time>
      </trkpt>
      <trkpt lat="41.39993" lon="20.41681">
        <ele>1105.1700439453</ele>
        <time>2023-09-30T08:34:18.000Z</time>
      </trkpt>
      <trkpt lat="41.39987" lon="20.41685">
        <ele>1104.2099609375</ele>
        <time>2023-09-30T08:34:17.000Z</time>
      </trkpt>
      <trkpt lat="41.39978" lon="20.41691">
        <ele>1103.25</ele>
        <time>2023-09-30T08:34:16.000Z</time>
      </trkpt>
      <trkpt lat="41.39971" lon="20.41695">
        <ele>1102.2900390625</ele>
        <time>2023-09-30T08:34:15.000Z</time>
      </trkpt>
      <trkpt lat="41.39963" lon="20.41699">
        <ele>1101.3299560547</ele>
        <time>2023-09-30T08:34:14.000Z</time>
      </trkpt>
      <trkpt lat="41.39957" lon="20.41701">
        <ele>1100.8499755859</ele>
        <time>2023-09-30T08:34:13.000Z</time>
      </trkpt>
      <trkpt lat="41.39948" lon="20.41703">
        <ele>1099.8900146484</ele>
        <time>2023-09-30T08:34:12.000Z</time>
      </trkpt>
      <trkpt lat="41.39941" lon="20.41702">
        <ele>1098.9200439453</ele>
        <time>2023-09-30T08:34:11.000Z</time>
      </trkpt>
      <trkpt lat="41.39933" lon="20.41699">
        <ele>1097.9599609375</ele>
        <time>2023-09-30T08:34:10.000Z</time>
      </trkpt>
      <trkpt lat="41.39925" lon="20.41696">
        <ele>1097</ele>
        <time>2023-09-30T08:34:09.000Z</time>
      </trkpt>
      <trkpt lat="41.39919" lon="20.41693">
        <ele>1096.0400390625</ele>
        <time>2023-09-30T08:34:08.000Z</time>
      </trkpt>
      <trkpt lat="41.3991" lon="20.41688">
        <ele>1094.5999755859</ele>
        <time>2023-09-30T08:34:07.000Z</time>
      </trkpt>
      <trkpt lat="41.39904" lon="20.41685">
        <ele>1093.6400146484</ele>
        <time>2023-09-30T08:34:06.000Z</time>
      </trkpt>
      <trkpt lat="41.39896" lon="20.4168">
        <ele>1092.6800537109</ele>
        <time>2023-09-30T08:34:05.000Z</time>
      </trkpt>
      <trkpt lat="41.39888" lon="20.41672">
        <ele>1091.2299804688</ele>
        <time>2023-09-30T08:34:04.000Z</time>
      </trkpt>
      <trkpt lat="41.39883" lon="20.41666">
        <ele>1090.75</ele>
        <time>2023-09-30T08:34:03.000Z</time>
      </trkpt>
      <trkpt lat="41.39877" lon="20.41659">
        <ele>1089.7900390625</ele>
        <time>2023-09-30T08:34:02.000Z</time>
      </trkpt>
      <trkpt lat="41.39873" lon="20.4165">
        <ele>1089.3100585938</ele>
        <time>2023-09-30T08:34:01.000Z</time>
      </trkpt>
      <trkpt lat="41.39868" lon="20.41642">
        <ele>1088.8299560547</ele>
        <time>2023-09-30T08:34:00.000Z</time>
      </trkpt>
      <trkpt lat="41.39862" lon="20.41635">
        <ele>1087.8699951172</ele>
        <time>2023-09-30T08:33:59.000Z</time>
      </trkpt>
      <trkpt lat="41.39856" lon="20.41629">
        <ele>1087.3900146484</ele>
        <time>2023-09-30T08:33:58.000Z</time>
      </trkpt>
      <trkpt lat="41.39849" lon="20.41624">
        <ele>1086.9100341797</ele>
        <time>2023-09-30T08:33:57.000Z</time>
      </trkpt>
      <trkpt lat="41.39842" lon="20.41621">
        <ele>1086.4300537109</ele>
        <time>2023-09-30T08:33:56.000Z</time>
      </trkpt>
      <trkpt lat="41.39835" lon="20.41618">
        <ele>1085.9499511719</ele>
        <time>2023-09-30T08:33:55.000Z</time>
      </trkpt>
      <trkpt lat="41.39826" lon="20.41614">
        <ele>1084.9899902344</ele>
        <time>2023-09-30T08:33:54.000Z</time>
      </trkpt>
      <trkpt lat="41.3982" lon="20.4161">
        <ele>1084.0200195312</ele>
        <time>2023-09-30T08:33:53.000Z</time>
      </trkpt>
      <trkpt lat="41.39819" lon="20.41609">
        <ele>1084.0200195312</ele>
        <time>2023-09-30T08:33:52.000Z</time>
      </trkpt>
      <trkpt lat="41.39806" lon="20.41601">
        <ele>1082.5799560547</ele>
        <time>2023-09-30T08:33:51.000Z</time>
      </trkpt>
      <trkpt lat="41.39797" lon="20.41597">
        <ele>1081.6199951172</ele>
        <time>2023-09-30T08:33:50.000Z</time>
      </trkpt>
      <trkpt lat="41.3979" lon="20.41593">
        <ele>1080.6600341797</ele>
        <time>2023-09-30T08:33:49.000Z</time>
      </trkpt>
      <trkpt lat="41.39783" lon="20.41591">
        <ele>1079.6999511719</ele>
        <time>2023-09-30T08:33:48.000Z</time>
      </trkpt>
      <trkpt lat="41.39776" lon="20.4159">
        <ele>1078.7399902344</ele>
        <time>2023-09-30T08:33:47.000Z</time>
      </trkpt>
      <trkpt lat="41.39768" lon="20.41588">
        <ele>1077.7800292969</ele>
        <time>2023-09-30T08:33:46.000Z</time>
      </trkpt>
      <trkpt lat="41.39763" lon="20.41586">
        <ele>1077.2900390625</ele>
        <time>2023-09-30T08:33:45.000Z</time>
      </trkpt>
      <trkpt lat="41.39755" lon="20.41585">
        <ele>1076.3299560547</ele>
        <time>2023-09-30T08:33:44.000Z</time>
      </trkpt>
      <trkpt lat="41.39749" lon="20.41585">
        <ele>1075.3699951172</ele>
        <time>2023-09-30T08:33:43.000Z</time>
      </trkpt>
      <trkpt lat="41.39744" lon="20.41586">
        <ele>1074.4100341797</ele>
        <time>2023-09-30T08:33:42.000Z</time>
      </trkpt>
      <trkpt lat="41.39738" lon="20.41589">
        <ele>1073.9300537109</ele>
        <time>2023-09-30T08:33:41.000Z</time>
      </trkpt>
      <trkpt lat="41.39732" lon="20.41591">
        <ele>1072.9699707031</ele>
        <time>2023-09-30T08:33:40.000Z</time>
      </trkpt>
      <trkpt lat="41.39726" lon="20.41591">
        <ele>1072.0100097656</ele>
        <time>2023-09-30T08:33:39.000Z</time>
      </trkpt>
      <trkpt lat="41.39722" lon="20.4159">
        <ele>1071.5300292969</ele>
        <time>2023-09-30T08:33:38.000Z</time>
      </trkpt>
      <trkpt lat="41.39715" lon="20.41587">
        <ele>1070.0799560547</ele>
        <time>2023-09-30T08:33:37.000Z</time>
      </trkpt>
      <trkpt lat="41.3971" lon="20.41584">
        <ele>1069.5999755859</ele>
        <time>2023-09-30T08:33:36.000Z</time>
      </trkpt>
      <trkpt lat="41.39702" lon="20.41581">
        <ele>1068.6400146484</ele>
        <time>2023-09-30T08:33:35.000Z</time>
      </trkpt>
      <trkpt lat="41.39696" lon="20.41579">
        <ele>1067.6800537109</ele>
        <time>2023-09-30T08:33:34.000Z</time>
      </trkpt>
      <trkpt lat="41.39689" lon="20.41578">
        <ele>1066.2399902344</ele>
        <time>2023-09-30T08:33:33.000Z</time>
      </trkpt>
      <trkpt lat="41.39683" lon="20.41579">
        <ele>1065.7600097656</ele>
        <time>2023-09-30T08:33:32.000Z</time>
      </trkpt>
      <trkpt lat="41.39677" lon="20.41582">
        <ele>1064.8000488281</ele>
        <time>2023-09-30T08:33:31.000Z</time>
      </trkpt>
      <trkpt lat="41.39671" lon="20.41585">
        <ele>1063.8399658203</ele>
        <time>2023-09-30T08:33:30.000Z</time>
      </trkpt>
      <trkpt lat="41.39664" lon="20.41588">
        <ele>1062.8699951172</ele>
        <time>2023-09-30T08:33:29.000Z</time>
      </trkpt>
      <trkpt lat="41.39658" lon="20.4159">
        <ele>1061.9100341797</ele>
        <time>2023-09-30T08:33:28.000Z</time>
      </trkpt>
      <trkpt lat="41.39653" lon="20.41592">
        <ele>1060.9499511719</ele>
        <time>2023-09-30T08:33:27.000Z</time>
      </trkpt>
      <trkpt lat="41.39644" lon="20.41594">
        <ele>1059.5100097656</ele>
        <time>2023-09-30T08:33:26.000Z</time>
      </trkpt>
      <trkpt lat="41.39638" lon="20.41596">
        <ele>1058.5500488281</ele>
        <time>2023-09-30T08:33:25.000Z</time>
      </trkpt>
      <trkpt lat="41.39629" lon="20.41599">
        <ele>1057.5899658203</ele>
        <time>2023-09-30T08:33:24.000Z</time>
      </trkpt>
      <trkpt lat="41.39623" lon="20.41601">
        <ele>1056.6300048828</ele>
        <time>2023-09-30T08:33:23.000Z</time>
      </trkpt>
      <trkpt lat="41.39617" lon="20.41603">
        <ele>1055.6700439453</ele>
        <time>2023-09-30T08:33:22.000Z</time>
      </trkpt>
      <trkpt lat="41.39612" lon="20.41604">
        <ele>1054.6999511719</ele>
        <time>2023-09-30T08:33:21.000Z</time>
      </trkpt>
      <trkpt lat="41.39596" lon="20.41609">
        <ele>1052.7800292969</ele>
        <time>2023-09-30T08:33:19.000Z</time>
      </trkpt>
      <trkpt lat="41.3959" lon="20.41611">
        <ele>1052.3000488281</ele>
        <time>2023-09-30T08:33:18.000Z</time>
      </trkpt>
      <trkpt lat="41.39585" lon="20.41612">
        <ele>1051.8199462891</ele>
        <time>2023-09-30T08:33:17.000Z</time>
      </trkpt>
      <trkpt lat="41.39579" lon="20.41613">
        <ele>1051.3399658203</ele>
        <time>2023-09-30T08:33:16.000Z</time>
      </trkpt>
      <trkpt lat="41.39578" lon="20.41613">
        <ele>1050.8599853516</ele>
        <time>2023-09-30T08:33:15.000Z</time>
      </trkpt>
      <trkpt lat="41.39565" lon="20.4161">
        <ele>1050.3800048828</ele>
        <time>2023-09-30T08:13:01.000Z</time>
      </trkpt>
      <trkpt lat="41.39558" lon="20.41609">
        <ele>1050.8599853516</ele>
        <time>2023-09-30T08:12:55.000Z</time>
      </trkpt>
      <trkpt lat="41.39554" lon="20.41607">
        <ele>1050.3800048828</ele>
        <time>2023-09-30T08:12:54.000Z</time>
      </trkpt>
      <trkpt lat="41.39549" lon="20.41603">
        <ele>1049.4200439453</ele>
        <time>2023-09-30T08:12:53.000Z</time>
      </trkpt>
      <trkpt lat="41.39545" lon="20.41599">
        <ele>1048.9399414062</ele>
        <time>2023-09-30T08:12:52.000Z</time>
      </trkpt>
      <trkpt lat="41.3954" lon="20.41594">
        <ele>1047.9699707031</ele>
        <time>2023-09-30T08:12:51.000Z</time>
      </trkpt>
      <trkpt lat="41.39534" lon="20.41591">
        <ele>1047.0100097656</ele>
        <time>2023-09-30T08:12:50.000Z</time>
      </trkpt>
      <trkpt lat="41.39527" lon="20.41588">
        <ele>1046.0500488281</ele>
        <time>2023-09-30T08:12:49.000Z</time>
      </trkpt>
      <trkpt lat="41.39521" lon="20.41586">
        <ele>1045.0899658203</ele>
        <time>2023-09-30T08:12:48.000Z</time>
      </trkpt>
      <trkpt lat="41.39515" lon="20.41585">
        <ele>1044.1300048828</ele>
        <time>2023-09-30T08:12:47.000Z</time>
      </trkpt>
      <trkpt lat="41.3951" lon="20.41585">
        <ele>1043.6500244141</ele>
        <time>2023-09-30T08:12:46.000Z</time>
      </trkpt>
      <trkpt lat="41.39503" lon="20.41586">
        <ele>1042.6899414062</ele>
        <time>2023-09-30T08:12:45.000Z</time>
      </trkpt>
      <trkpt lat="41.39497" lon="20.41586">
        <ele>1042.2099609375</ele>
        <time>2023-09-30T08:12:44.000Z</time>
      </trkpt>
      <trkpt lat="41.39491" lon="20.41586">
        <ele>1041.7299804688</ele>
        <time>2023-09-30T08:12:43.000Z</time>
      </trkpt>
      <trkpt lat="41.39484" lon="20.41587">
        <ele>1041.25</ele>
        <time>2023-09-30T08:12:42.000Z</time>
      </trkpt>
      <trkpt lat="41.39479" lon="20.41588">
        <ele>1040.2800292969</ele>
        <time>2023-09-30T08:12:41.000Z</time>
      </trkpt>
      <trkpt lat="41.39474" lon="20.41591">
        <ele>1039.8000488281</ele>
        <time>2023-09-30T08:12:40.000Z</time>
      </trkpt>
      <trkpt lat="41.3947" lon="20.41594">
        <ele>1039.3199462891</ele>
        <time>2023-09-30T08:12:39.000Z</time>
      </trkpt>
      <trkpt lat="41.39464" lon="20.416">
        <ele>1038.3599853516</ele>
        <time>2023-09-30T08:12:38.000Z</time>
      </trkpt>
      <trkpt lat="41.39462" lon="20.41603">
        <ele>1038.3599853516</ele>
        <time>2023-09-30T08:12:37.000Z</time>
      </trkpt>
      <trkpt lat="41.39453" lon="20.41614">
        <ele>1037.4000244141</ele>
        <time>2023-09-30T08:12:36.000Z</time>
      </trkpt>
      <trkpt lat="41.39449" lon="20.41619">
        <ele>1036.4399414062</ele>
        <time>2023-09-30T08:12:35.000Z</time>
      </trkpt>
      <trkpt lat="41.39442" lon="20.41627">
        <ele>1035.9599609375</ele>
        <time>2023-09-30T08:12:34.000Z</time>
      </trkpt>
      <trkpt lat="41.39434" lon="20.41636">
        <ele>1035</ele>
        <time>2023-09-30T08:12:33.000Z</time>
      </trkpt>
      <trkpt lat="41.39427" lon="20.41642">
        <ele>1034.0400390625</ele>
        <time>2023-09-30T08:12:32.000Z</time>
      </trkpt>
      <trkpt lat="41.39425" lon="20.41644">
        <ele>1034.0400390625</ele>
        <time>2023-09-30T08:12:31.000Z</time>
      </trkpt>
      <trkpt lat="41.39413" lon="20.41655">
        <ele>1032.5899658203</ele>
        <time>2023-09-30T08:12:30.000Z</time>
      </trkpt>
      <trkpt lat="41.39395" lon="20.41673">
        <ele>1030.6700439453</ele>
        <time>2023-09-30T08:12:27.000Z</time>
      </trkpt>
      <trkpt lat="41.39386" lon="20.41682">
        <ele>1029.2299804688</ele>
        <time>2023-09-30T08:12:26.000Z</time>
      </trkpt>
      <trkpt lat="41.39379" lon="20.4169">
        <ele>1028.2700195312</ele>
        <time>2023-09-30T08:12:25.000Z</time>
      </trkpt>
      <trkpt lat="41.39377" lon="20.41692">
        <ele>1028.2700195312</ele>
        <time>2023-09-30T08:12:24.000Z</time>
      </trkpt>
      <trkpt lat="41.3936" lon="20.41714">
        <ele>1025.8599853516</ele>
        <time>2023-09-30T08:12:22.000Z</time>
      </trkpt>
      <trkpt lat="41.39358" lon="20.41718">
        <ele>1025.3800048828</ele>
        <time>2023-09-30T08:12:21.000Z</time>
      </trkpt>
      <trkpt lat="41.39351" lon="20.41728">
        <ele>1024.4200439453</ele>
        <time>2023-09-30T08:12:20.000Z</time>
      </trkpt>
      <trkpt lat="41.39348" lon="20.41735">
        <ele>1023.4600219727</ele>
        <time>2023-09-30T08:12:19.000Z</time>
      </trkpt>
      <trkpt lat="41.39344" lon="20.4174">
        <ele>1022.9799804688</ele>
        <time>2023-09-30T08:12:18.000Z</time>
      </trkpt>
      <trkpt lat="41.39338" lon="20.41748">
        <ele>1022.0200195312</ele>
        <time>2023-09-30T08:12:17.000Z</time>
      </trkpt>
      <trkpt lat="41.39337" lon="20.41749">
        <ele>1022.0200195312</ele>
        <time>2023-09-30T08:12:16.000Z</time>
      </trkpt>
      <trkpt lat="41.39324" lon="20.41762">
        <ele>1020.5800170898</ele>
        <time>2023-09-30T08:12:15.000Z</time>
      </trkpt>
      <trkpt lat="41.39319" lon="20.41769">
        <ele>1019.6199951172</ele>
        <time>2023-09-30T08:12:14.000Z</time>
      </trkpt>
      <trkpt lat="41.39315" lon="20.41778">
        <ele>1019.1300048828</ele>
        <time>2023-09-30T08:12:13.000Z</time>
      </trkpt>
      <trkpt lat="41.39312" lon="20.41787">
        <ele>1018.1699829102</ele>
        <time>2023-09-30T08:12:12.000Z</time>
      </trkpt>
      <trkpt lat="41.3931" lon="20.41798">
        <ele>1017.2100219727</ele>
        <time>2023-09-30T08:12:11.000Z</time>
      </trkpt>
      <trkpt lat="41.3931" lon="20.41807">
        <ele>1016.7299804688</ele>
        <time>2023-09-30T08:12:10.000Z</time>
      </trkpt>
      <trkpt lat="41.3931" lon="20.41826">
        <ele>1015.2899780273</ele>
        <time>2023-09-30T08:12:08.000Z</time>
      </trkpt>
      <trkpt lat="41.39311" lon="20.41833">
        <ele>1014.3300170898</ele>
        <time>2023-09-30T08:12:07.000Z</time>
      </trkpt>
      <trkpt lat="41.39312" lon="20.41847">
        <ele>1012.8900146484</ele>
        <time>2023-09-30T08:12:06.000Z</time>
      </trkpt>
      <trkpt lat="41.39312" lon="20.41855">
        <ele>1012.4099731445</ele>
        <time>2023-09-30T08:12:05.000Z</time>
      </trkpt>
      <trkpt lat="41.39313" lon="20.41864">
        <ele>1011.4400024414</ele>
        <time>2023-09-30T08:12:04.000Z</time>
      </trkpt>
      <trkpt lat="41.39312" lon="20.41874">
        <ele>1010.4799804688</ele>
        <time>2023-09-30T08:12:03.000Z</time>
      </trkpt>
      <trkpt lat="41.39311" lon="20.41882">
        <ele>1009.5200195312</ele>
        <time>2023-09-30T08:12:02.000Z</time>
      </trkpt>
      <trkpt lat="41.3931" lon="20.4189">
        <ele>1008.5599975586</ele>
        <time>2023-09-30T08:12:01.000Z</time>
      </trkpt>
      <trkpt lat="41.39307" lon="20.41901">
        <ele>1007.5999755859</ele>
        <time>2023-09-30T08:12:00.000Z</time>
      </trkpt>
      <trkpt lat="41.39304" lon="20.41912">
        <ele>1006.6400146484</ele>
        <time>2023-09-30T08:11:59.000Z</time>
      </trkpt>
      <trkpt lat="41.393" lon="20.4192">
        <ele>1005.200012207</ele>
        <time>2023-09-30T08:11:58.000Z</time>
      </trkpt>
      <trkpt lat="41.39295" lon="20.41927">
        <ele>1004.2299804688</ele>
        <time>2023-09-30T08:11:57.000Z</time>
      </trkpt>
      <trkpt lat="41.39288" lon="20.41934">
        <ele>1003.2700195312</ele>
        <time>2023-09-30T08:11:56.000Z</time>
      </trkpt>
      <trkpt lat="41.39283" lon="20.4194">
        <ele>1002.7899780273</ele>
        <time>2023-09-30T08:11:55.000Z</time>
      </trkpt>
      <trkpt lat="41.39279" lon="20.41947">
        <ele>1002.3099975586</ele>
        <time>2023-09-30T08:11:54.000Z</time>
      </trkpt>
      <trkpt lat="41.39276" lon="20.41957">
        <ele>1001.3499755859</ele>
        <time>2023-09-30T08:11:53.000Z</time>
      </trkpt>
      <trkpt lat="41.39275" lon="20.41965">
        <ele>1000.8699951172</ele>
        <time>2023-09-30T08:11:52.000Z</time>
      </trkpt>
      <trkpt lat="41.39274" lon="20.41976">
        <ele>999.90997314453</ele>
        <time>2023-09-30T08:11:51.000Z</time>
      </trkpt>
      <trkpt lat="41.39273" lon="20.41986">
        <ele>998.95001220703</ele>
        <time>2023-09-30T08:11:50.000Z</time>
      </trkpt>
      <trkpt lat="41.39271" lon="20.41997">
        <ele>998.46997070312</ele>
        <time>2023-09-30T08:11:49.000Z</time>
      </trkpt>
      <trkpt lat="41.39268" lon="20.42013">
        <ele>997.51000976562</ele>
        <time>2023-09-30T08:11:47.000Z</time>
      </trkpt>
      <trkpt lat="41.39265" lon="20.42021">
        <ele>996.53997802734</ele>
        <time>2023-09-30T08:11:46.000Z</time>
      </trkpt>
      <trkpt lat="41.39262" lon="20.42028">
        <ele>996.05999755859</ele>
        <time>2023-09-30T08:11:45.000Z</time>
      </trkpt>
      <trkpt lat="41.39258" lon="20.42033">
        <ele>995.58001708984</ele>
        <time>2023-09-30T08:11:44.000Z</time>
      </trkpt>
      <trkpt lat="41.39254" lon="20.42036">
        <ele>994.61999511719</ele>
        <time>2023-09-30T08:11:43.000Z</time>
      </trkpt>
      <trkpt lat="41.3925" lon="20.42038">
        <ele>994.14001464844</ele>
        <time>2023-09-30T08:11:42.000Z</time>
      </trkpt>
      <trkpt lat="41.39246" lon="20.42037">
        <ele>993.65997314453</ele>
        <time>2023-09-30T08:11:41.000Z</time>
      </trkpt>
      <trkpt lat="41.39242" lon="20.42036">
        <ele>992.70001220703</ele>
        <time>2023-09-30T08:11:40.000Z</time>
      </trkpt>
      <trkpt lat="41.39236" lon="20.42032">
        <ele>991.73999023438</ele>
        <time>2023-09-30T08:11:39.000Z</time>
      </trkpt>
      <trkpt lat="41.39229" lon="20.42027">
        <ele>990.29998779297</ele>
        <time>2023-09-30T08:11:38.000Z</time>
      </trkpt>
      <trkpt lat="41.39223" lon="20.42021">
        <ele>989.80999755859</ele>
        <time>2023-09-30T08:11:37.000Z</time>
      </trkpt>
      <trkpt lat="41.39209" lon="20.42007">
        <ele>987.40997314453</ele>
        <time>2023-09-30T08:11:35.000Z</time>
      </trkpt>
      <trkpt lat="41.39202" lon="20.42">
        <ele>985.96997070312</ele>
        <time>2023-09-30T08:11:34.000Z</time>
      </trkpt>
      <trkpt lat="41.39195" lon="20.41991">
        <ele>984.53002929688</ele>
        <time>2023-09-30T08:11:33.000Z</time>
      </trkpt>
      <trkpt lat="41.39191" lon="20.41985">
        <ele>983.57000732422</ele>
        <time>2023-09-30T08:11:32.000Z</time>
      </trkpt>
      <trkpt lat="41.39185" lon="20.41977">
        <ele>982.11999511719</ele>
        <time>2023-09-30T08:11:31.000Z</time>
      </trkpt>
      <trkpt lat="41.3918" lon="20.41972">
        <ele>980.67999267578</ele>
        <time>2023-09-30T08:11:30.000Z</time>
      </trkpt>
      <trkpt lat="41.39175" lon="20.41966">
        <ele>979.71997070312</ele>
        <time>2023-09-30T08:11:29.000Z</time>
      </trkpt>
      <trkpt lat="41.39168" lon="20.4196">
        <ele>978.76000976562</ele>
        <time>2023-09-30T08:11:28.000Z</time>
      </trkpt>
      <trkpt lat="41.39163" lon="20.41956">
        <ele>978.28002929688</ele>
        <time>2023-09-30T08:11:27.000Z</time>
      </trkpt>
      <trkpt lat="41.39155" lon="20.41949">
        <ele>977.32000732422</ele>
        <time>2023-09-30T08:11:26.000Z</time>
      </trkpt>
      <trkpt lat="41.39148" lon="20.41944">
        <ele>976.35998535156</ele>
        <time>2023-09-30T08:11:25.000Z</time>
      </trkpt>
      <trkpt lat="41.39141" lon="20.4194">
        <ele>975.88000488281</ele>
        <time>2023-09-30T08:11:24.000Z</time>
      </trkpt>
      <trkpt lat="41.39135" lon="20.41935">
        <ele>975.39001464844</ele>
        <time>2023-09-30T08:11:23.000Z</time>
      </trkpt>
      <trkpt lat="41.39128" lon="20.41929">
        <ele>974.90997314453</ele>
        <time>2023-09-30T08:11:22.000Z</time>
      </trkpt>
      <trkpt lat="41.39122" lon="20.41925">
        <ele>973.95001220703</ele>
        <time>2023-09-30T08:11:21.000Z</time>
      </trkpt>
      <trkpt lat="41.39116" lon="20.4192">
        <ele>973.46997070312</ele>
        <time>2023-09-30T08:11:20.000Z</time>
      </trkpt>
      <trkpt lat="41.39111" lon="20.41914">
        <ele>972.51000976562</ele>
        <time>2023-09-30T08:11:19.000Z</time>
      </trkpt>
      <trkpt lat="41.39107" lon="20.41907">
        <ele>971.54998779297</ele>
        <time>2023-09-30T08:11:18.000Z</time>
      </trkpt>
      <trkpt lat="41.39104" lon="20.41902">
        <ele>971.07000732422</ele>
        <time>2023-09-30T08:11:17.000Z</time>
      </trkpt>
      <trkpt lat="41.39098" lon="20.41893">
        <ele>970.10998535156</ele>
        <time>2023-09-30T08:11:16.000Z</time>
      </trkpt>
      <trkpt lat="41.39096" lon="20.4189">
        <ele>969.63000488281</ele>
        <time>2023-09-30T08:11:15.000Z</time>
      </trkpt>
      <trkpt lat="41.3909" lon="20.4188">
        <ele>968.17999267578</ele>
        <time>2023-09-30T08:11:14.000Z</time>
      </trkpt>
      <trkpt lat="41.39088" lon="20.41875">
        <ele>967.70001220703</ele>
        <time>2023-09-30T08:11:13.000Z</time>
      </trkpt>
      <trkpt lat="41.39085" lon="20.41868">
        <ele>966.73999023438</ele>
        <time>2023-09-30T08:11:12.000Z</time>
      </trkpt>
      <trkpt lat="41.39083" lon="20.41863">
        <ele>966.26000976562</ele>
        <time>2023-09-30T08:11:11.000Z</time>
      </trkpt>
      <trkpt lat="41.39081" lon="20.41857">
        <ele>965.29998779297</ele>
        <time>2023-09-30T08:11:10.000Z</time>
      </trkpt>
      <trkpt lat="41.39079" lon="20.41853">
        <ele>964.82000732422</ele>
        <time>2023-09-30T08:11:09.000Z</time>
      </trkpt>
      <trkpt lat="41.39078" lon="20.41848">
        <ele>963.85998535156</ele>
        <time>2023-09-30T08:11:08.000Z</time>
      </trkpt>
      <trkpt lat="41.39075" lon="20.41838">
        <ele>962.90002441406</ele>
        <time>2023-09-30T08:11:07.000Z</time>
      </trkpt>
      <trkpt lat="41.39073" lon="20.41833">
        <ele>962.41998291016</ele>
        <time>2023-09-30T08:11:06.000Z</time>
      </trkpt>
      <trkpt lat="41.39068" lon="20.41824">
        <ele>961.94000244141</ele>
        <time>2023-09-30T08:11:03.000Z</time>
      </trkpt>
      <trkpt lat="41.39067" lon="20.41824">
        <ele>961.94000244141</ele>
        <time>2023-09-30T08:11:01.000Z</time>
      </trkpt>
      <trkpt lat="41.39058" lon="20.41814">
        <ele>960.48999023438</ele>
        <time>2023-09-30T08:10:55.000Z</time>
      </trkpt>
      <trkpt lat="41.39053" lon="20.41811">
        <ele>960.01000976562</ele>
        <time>2023-09-30T08:10:54.000Z</time>
      </trkpt>
      <trkpt lat="41.39048" lon="20.41808">
        <ele>959.04998779297</ele>
        <time>2023-09-30T08:10:53.000Z</time>
      </trkpt>
      <trkpt lat="41.39042" lon="20.41802">
        <ele>958.09002685547</ele>
        <time>2023-09-30T08:10:52.000Z</time>
      </trkpt>
      <trkpt lat="41.39037" lon="20.41795">
        <ele>956.65002441406</ele>
        <time>2023-09-30T08:10:51.000Z</time>
      </trkpt>
      <trkpt lat="41.39032" lon="20.41788">
        <ele>955.69000244141</ele>
        <time>2023-09-30T08:10:50.000Z</time>
      </trkpt>
      <trkpt lat="41.39027" lon="20.4178">
        <ele>954.25</ele>
        <time>2023-09-30T08:10:49.000Z</time>
      </trkpt>
      <trkpt lat="41.39023" lon="20.41772">
        <ele>953.28002929688</ele>
        <time>2023-09-30T08:10:48.000Z</time>
      </trkpt>
      <trkpt lat="41.39019" lon="20.41765">
        <ele>951.84002685547</ele>
        <time>2023-09-30T08:10:47.000Z</time>
      </trkpt>
      <trkpt lat="41.39013" lon="20.41753">
        <ele>950.40002441406</ele>
        <time>2023-09-30T08:10:46.000Z</time>
      </trkpt>
      <trkpt lat="41.39008" lon="20.41744">
        <ele>949.44000244141</ele>
        <time>2023-09-30T08:10:45.000Z</time>
      </trkpt>
      <trkpt lat="41.39005" lon="20.41737">
        <ele>948.47998046875</ele>
        <time>2023-09-30T08:10:44.000Z</time>
      </trkpt>
      <trkpt lat="41.39" lon="20.41728">
        <ele>948</ele>
        <time>2023-09-30T08:10:43.000Z</time>
      </trkpt>
      <trkpt lat="41.38996" lon="20.4172">
        <ele>947.52001953125</ele>
        <time>2023-09-30T08:10:42.000Z</time>
      </trkpt>
      <trkpt lat="41.38994" lon="20.41713">
        <ele>947.03997802734</ele>
        <time>2023-09-30T08:10:41.000Z</time>
      </trkpt>
      <trkpt lat="41.38992" lon="20.41701">
        <ele>946.55999755859</ele>
        <time>2023-09-30T08:10:40.000Z</time>
      </trkpt>
      <trkpt lat="41.38989" lon="20.41689">
        <ele>945.59002685547</ele>
        <time>2023-09-30T08:10:39.000Z</time>
      </trkpt>
      <trkpt lat="41.38986" lon="20.41679">
        <ele>945.10998535156</ele>
        <time>2023-09-30T08:10:38.000Z</time>
      </trkpt>
      <trkpt lat="41.38981" lon="20.41669">
        <ele>944.15002441406</ele>
        <time>2023-09-30T08:10:37.000Z</time>
      </trkpt>
      <trkpt lat="41.38976" lon="20.41662">
        <ele>943.66998291016</ele>
        <time>2023-09-30T08:10:36.000Z</time>
      </trkpt>
      <trkpt lat="41.38971" lon="20.41656">
        <ele>942.71002197266</ele>
        <time>2023-09-30T08:10:35.000Z</time>
      </trkpt>
      <trkpt lat="41.38964" lon="20.41649">
        <ele>941.75</ele>
        <time>2023-09-30T08:10:34.000Z</time>
      </trkpt>
      <trkpt lat="41.38958" lon="20.41645">
        <ele>940.78997802734</ele>
        <time>2023-09-30T08:10:33.000Z</time>
      </trkpt>
      <trkpt lat="41.3895" lon="20.4164">
        <ele>939.83001708984</ele>
        <time>2023-09-30T08:10:32.000Z</time>
      </trkpt>
      <trkpt lat="41.38944" lon="20.41637">
        <ele>938.85998535156</ele>
        <time>2023-09-30T08:10:31.000Z</time>
      </trkpt>
      <trkpt lat="41.38937" lon="20.41635">
        <ele>937.90002441406</ele>
        <time>2023-09-30T08:10:30.000Z</time>
      </trkpt>
      <trkpt lat="41.38931" lon="20.41636">
        <ele>936.46002197266</ele>
        <time>2023-09-30T08:10:29.000Z</time>
      </trkpt>
      <trkpt lat="41.38924" lon="20.41638">
        <ele>935.5</ele>
        <time>2023-09-30T08:10:28.000Z</time>
      </trkpt>
      <trkpt lat="41.38918" lon="20.41641">
        <ele>935.02001953125</ele>
        <time>2023-09-30T08:10:27.000Z</time>
      </trkpt>
      <trkpt lat="41.38911" lon="20.41644">
        <ele>934.05999755859</ele>
        <time>2023-09-30T08:10:26.000Z</time>
      </trkpt>
      <trkpt lat="41.38903" lon="20.41644">
        <ele>933.09997558594</ele>
        <time>2023-09-30T08:10:25.000Z</time>
      </trkpt>
      <trkpt lat="41.38894" lon="20.41642">
        <ele>931.65002441406</ele>
        <time>2023-09-30T08:10:24.000Z</time>
      </trkpt>
      <trkpt lat="41.38886" lon="20.41639">
        <ele>930.69000244141</ele>
        <time>2023-09-30T08:10:23.000Z</time>
      </trkpt>
      <trkpt lat="41.38878" lon="20.41633">
        <ele>929.72998046875</ele>
        <time>2023-09-30T08:10:22.000Z</time>
      </trkpt>
      <trkpt lat="41.3887" lon="20.41626">
        <ele>929.25</ele>
        <time>2023-09-30T08:10:21.000Z</time>
      </trkpt>
      <trkpt lat="41.38864" lon="20.41619">
        <ele>928.28997802734</ele>
        <time>2023-09-30T08:10:20.000Z</time>
      </trkpt>
      <trkpt lat="41.38857" lon="20.41607">
        <ele>927.33001708984</ele>
        <time>2023-09-30T08:10:19.000Z</time>
      </trkpt>
      <trkpt lat="41.38852" lon="20.41596">
        <ele>925.89001464844</ele>
        <time>2023-09-30T08:10:18.000Z</time>
      </trkpt>
      <trkpt lat="41.38848" lon="20.41587">
        <ele>924.92999267578</ele>
        <time>2023-09-30T08:10:17.000Z</time>
      </trkpt>
      <trkpt lat="41.38844" lon="20.41574">
        <ele>923.96002197266</ele>
        <time>2023-09-30T08:10:16.000Z</time>
      </trkpt>
      <trkpt lat="41.3884" lon="20.4156">
        <ele>923</ele>
        <time>2023-09-30T08:10:15.000Z</time>
      </trkpt>
      <trkpt lat="41.38837" lon="20.4155">
        <ele>922.52001953125</ele>
        <time>2023-09-30T08:10:14.000Z</time>
      </trkpt>
      <trkpt lat="41.38836" lon="20.41542">
        <ele>922.03997802734</ele>
        <time>2023-09-30T08:10:13.000Z</time>
      </trkpt>
      <trkpt lat="41.38833" lon="20.41528">
        <ele>921.08001708984</ele>
        <time>2023-09-30T08:10:12.000Z</time>
      </trkpt>
      <trkpt lat="41.38832" lon="20.41519">
        <ele>920.11999511719</ele>
        <time>2023-09-30T08:10:11.000Z</time>
      </trkpt>
      <trkpt lat="41.38829" lon="20.4151">
        <ele>919.64001464844</ele>
        <time>2023-09-30T08:10:10.000Z</time>
      </trkpt>
      <trkpt lat="41.38824" lon="20.41501">
        <ele>918.67999267578</ele>
        <time>2023-09-30T08:10:09.000Z</time>
      </trkpt>
      <trkpt lat="41.38818" lon="20.41492">
        <ele>918.20001220703</ele>
        <time>2023-09-30T08:10:08.000Z</time>
      </trkpt>
      <trkpt lat="41.38813" lon="20.41486">
        <ele>917.71997070312</ele>
        <time>2023-09-30T08:10:07.000Z</time>
      </trkpt>
      <trkpt lat="41.38805" lon="20.4148">
        <ele>916.75</ele>
        <time>2023-09-30T08:10:06.000Z</time>
      </trkpt>
      <trkpt lat="41.38798" lon="20.41475">
        <ele>915.78997802734</ele>
        <time>2023-09-30T08:10:05.000Z</time>
      </trkpt>
      <trkpt lat="41.38792" lon="20.41472">
        <ele>914.83001708984</ele>
        <time>2023-09-30T08:10:04.000Z</time>
      </trkpt>
      <trkpt lat="41.38786" lon="20.41471">
        <ele>913.86999511719</ele>
        <time>2023-09-30T08:10:03.000Z</time>
      </trkpt>
      <trkpt lat="41.3878" lon="20.41469">
        <ele>912.42999267578</ele>
        <time>2023-09-30T08:10:02.000Z</time>
      </trkpt>
      <trkpt lat="41.38772" lon="20.41466">
        <ele>910.98999023438</ele>
        <time>2023-09-30T08:10:01.000Z</time>
      </trkpt>
      <trkpt lat="41.38765" lon="20.41463">
        <ele>910.03002929688</ele>
        <time>2023-09-30T08:10:00.000Z</time>
      </trkpt>
      <trkpt lat="41.38762" lon="20.4146">
        <ele>909.53997802734</ele>
        <time>2023-09-30T08:09:59.000Z</time>
      </trkpt>
      <trkpt lat="41.38744" lon="20.41448">
        <ele>908.09997558594</ele>
        <time>2023-09-30T08:09:58.000Z</time>
      </trkpt>
      <trkpt lat="41.38732" lon="20.41438">
        <ele>906.65997314453</ele>
        <time>2023-09-30T08:09:57.000Z</time>
      </trkpt>
      <trkpt lat="41.38724" lon="20.4143">
        <ele>906.17999267578</ele>
        <time>2023-09-30T08:09:56.000Z</time>
      </trkpt>
      <trkpt lat="41.38715" lon="20.4142">
        <ele>905.21997070312</ele>
        <time>2023-09-30T08:09:55.000Z</time>
      </trkpt>
      <trkpt lat="41.38708" lon="20.41412">
        <ele>904.26000976562</ele>
        <time>2023-09-30T08:09:54.000Z</time>
      </trkpt>
      <trkpt lat="41.387" lon="20.41402">
        <ele>903.29998779297</ele>
        <time>2023-09-30T08:09:53.000Z</time>
      </trkpt>
      <trkpt lat="41.38693" lon="20.41396">
        <ele>902.82000732422</ele>
        <time>2023-09-30T08:09:52.000Z</time>
      </trkpt>
      <trkpt lat="41.38682" lon="20.41389">
        <ele>901.84997558594</ele>
        <time>2023-09-30T08:09:51.000Z</time>
      </trkpt>
      <trkpt lat="41.38671" lon="20.41384">
        <ele>901.36999511719</ele>
        <time>2023-09-30T08:09:50.000Z</time>
      </trkpt>
      <trkpt lat="41.38662" lon="20.41381">
        <ele>900.89001464844</ele>
        <time>2023-09-30T08:09:49.000Z</time>
      </trkpt>
      <trkpt lat="41.38652" lon="20.4138">
        <ele>899.92999267578</ele>
        <time>2023-09-30T08:09:48.000Z</time>
      </trkpt>
      <trkpt lat="41.38643" lon="20.41378">
        <ele>899.45001220703</ele>
        <time>2023-09-30T08:09:47.000Z</time>
      </trkpt>
      <trkpt lat="41.38634" lon="20.41376">
        <ele>898.48999023438</ele>
        <time>2023-09-30T08:09:46.000Z</time>
      </trkpt>
      <trkpt lat="41.3863" lon="20.41374">
        <ele>898.01000976562</ele>
        <time>2023-09-30T08:09:45.000Z</time>
      </trkpt>
      <trkpt lat="41.38617" lon="20.41367">
        <ele>897.04998779297</ele>
        <time>2023-09-30T08:09:44.000Z</time>
      </trkpt>
      <trkpt lat="41.38611" lon="20.41363">
        <ele>896.57000732422</ele>
        <time>2023-09-30T08:09:43.000Z</time>
      </trkpt>
      <trkpt lat="41.38606" lon="20.41357">
        <ele>896.09002685547</ele>
        <time>2023-09-30T08:09:42.000Z</time>
      </trkpt>
      <trkpt lat="41.38603" lon="20.4135">
        <ele>895.60998535156</ele>
        <time>2023-09-30T08:09:41.000Z</time>
      </trkpt>
      <trkpt lat="41.38602" lon="20.41344">
        <ele>895.11999511719</ele>
        <time>2023-09-30T08:09:40.000Z</time>
      </trkpt>
      <trkpt lat="41.38603" lon="20.41338">
        <ele>894.64001464844</ele>
        <time>2023-09-30T08:09:39.000Z</time>
      </trkpt>
      <trkpt lat="41.38607" lon="20.41334">
        <ele>894.15997314453</ele>
        <time>2023-09-30T08:09:38.000Z</time>
      </trkpt>
      <trkpt lat="41.38612" lon="20.4133">
        <ele>893.20001220703</ele>
        <time>2023-09-30T08:09:37.000Z</time>
      </trkpt>
      <trkpt lat="41.3862" lon="20.41328">
        <ele>892.23999023438</ele>
        <time>2023-09-30T08:09:36.000Z</time>
      </trkpt>
      <trkpt lat="41.38627" lon="20.41328">
        <ele>891.28002929688</ele>
        <time>2023-09-30T08:09:35.000Z</time>
      </trkpt>
      <trkpt lat="41.3863" lon="20.41328">
        <ele>890.79998779297</ele>
        <time>2023-09-30T08:09:34.000Z</time>
      </trkpt>
      <trkpt lat="41.3866" lon="20.41327">
        <ele>887.42999267578</ele>
        <time>2023-09-30T08:09:32.000Z</time>
      </trkpt>
      <trkpt lat="41.38665" lon="20.41327">
        <ele>886.95001220703</ele>
        <time>2023-09-30T08:09:31.000Z</time>
      </trkpt>
      <trkpt lat="41.38676" lon="20.41329">
        <ele>885.51000976562</ele>
        <time>2023-09-30T08:09:30.000Z</time>
      </trkpt>
      <trkpt lat="41.38682" lon="20.4133">
        <ele>885.03002929688</ele>
        <time>2023-09-30T08:09:29.000Z</time>
      </trkpt>
      <trkpt lat="41.38696" lon="20.41333">
        <ele>883.59002685547</ele>
        <time>2023-09-30T08:09:28.000Z</time>
      </trkpt>
      <trkpt lat="41.38712" lon="20.41336">
        <ele>881.66998291016</ele>
        <time>2023-09-30T08:09:26.000Z</time>
      </trkpt>
      <trkpt lat="41.38726" lon="20.41337">
        <ele>880.21997070312</ele>
        <time>2023-09-30T08:09:25.000Z</time>
      </trkpt>
      <trkpt lat="41.38735" lon="20.41337">
        <ele>879.73999023438</ele>
        <time>2023-09-30T08:09:24.000Z</time>
      </trkpt>
      <trkpt lat="41.38743" lon="20.41336">
        <ele>878.78002929688</ele>
        <time>2023-09-30T08:09:23.000Z</time>
      </trkpt>
      <trkpt lat="41.38752" lon="20.41333">
        <ele>878.29998779297</ele>
        <time>2023-09-30T08:09:22.000Z</time>
      </trkpt>
      <trkpt lat="41.38758" lon="20.41329">
        <ele>877.82000732422</ele>
        <time>2023-09-30T08:09:21.000Z</time>
      </trkpt>
      <trkpt lat="41.38763" lon="20.41323">
        <ele>877.34002685547</ele>
        <time>2023-09-30T08:09:20.000Z</time>
      </trkpt>
      <trkpt lat="41.38766" lon="20.41317">
        <ele>876.85998535156</ele>
        <time>2023-09-30T08:09:19.000Z</time>
      </trkpt>
      <trkpt lat="41.38768" lon="20.41312">
        <ele>876.38000488281</ele>
        <time>2023-09-30T08:09:18.000Z</time>
      </trkpt>
      <trkpt lat="41.38768" lon="20.41306">
        <ele>875.90002441406</ele>
        <time>2023-09-30T08:09:17.000Z</time>
      </trkpt>
      <trkpt lat="41.38766" lon="20.41298">
        <ele>875.41998291016</ele>
        <time>2023-09-30T08:09:15.000Z</time>
      </trkpt>
      <trkpt lat="41.38765" lon="20.41296">
        <ele>875.41998291016</ele>
        <time>2023-09-30T08:09:14.000Z</time>
      </trkpt>
      <trkpt lat="41.3876" lon="20.41289">
        <ele>874.94000244141</ele>
        <time>2023-09-30T08:09:13.000Z</time>
      </trkpt>
      <trkpt lat="41.38756" lon="20.41286">
        <ele>874.46002197266</ele>
        <time>2023-09-30T08:09:12.000Z</time>
      </trkpt>
      <trkpt lat="41.3875" lon="20.41284">
        <ele>873.97998046875</ele>
        <time>2023-09-30T08:09:11.000Z</time>
      </trkpt>
      <trkpt lat="41.38743" lon="20.41283">
        <ele>873.01000976562</ele>
        <time>2023-09-30T08:09:10.000Z</time>
      </trkpt>
      <trkpt lat="41.38741" lon="20.41283">
        <ele>873.01000976562</ele>
        <time>2023-09-30T08:09:09.000Z</time>
      </trkpt>
      <trkpt lat="41.38725" lon="20.41283">
        <ele>871.09002685547</ele>
        <time>2023-09-30T08:09:08.000Z</time>
      </trkpt>
      <trkpt lat="41.38717" lon="20.41282">
        <ele>870.13000488281</ele>
        <time>2023-09-30T08:09:07.000Z</time>
      </trkpt>
      <trkpt lat="41.3871" lon="20.41281">
        <ele>869.16998291016</ele>
        <time>2023-09-30T08:09:06.000Z</time>
      </trkpt>
      <trkpt lat="41.38701" lon="20.41279">
        <ele>867.72998046875</ele>
        <time>2023-09-30T08:09:05.000Z</time>
      </trkpt>
      <trkpt lat="41.38661" lon="20.41267">
        <ele>862.91998291016</ele>
        <time>2023-09-30T08:09:01.000Z</time>
      </trkpt>
      <trkpt lat="41.38655" lon="20.41265">
        <ele>862.44000244141</ele>
        <time>2023-09-30T08:09:00.000Z</time>
      </trkpt>
      <trkpt lat="41.38648" lon="20.41263">
        <ele>861.47998046875</ele>
        <time>2023-09-30T08:08:59.000Z</time>
      </trkpt>
      <trkpt lat="41.38641" lon="20.41261">
        <ele>861</ele>
        <time>2023-09-30T08:08:58.000Z</time>
      </trkpt>
      <trkpt lat="41.38628" lon="20.41257">
        <ele>859.08001708984</ele>
        <time>2023-09-30T08:08:57.000Z</time>
      </trkpt>
      <trkpt lat="41.38618" lon="20.41254">
        <ele>858.10998535156</ele>
        <time>2023-09-30T08:08:56.000Z</time>
      </trkpt>
      <trkpt lat="41.38592" lon="20.41243">
        <ele>854.75</ele>
        <time>2023-09-30T08:08:53.000Z</time>
      </trkpt>
      <trkpt lat="41.38583" lon="20.41239">
        <ele>853.78997802734</ele>
        <time>2023-09-30T08:08:52.000Z</time>
      </trkpt>
      <trkpt lat="41.38563" lon="20.41231">
        <ele>851.86999511719</ele>
        <time>2023-09-30T08:08:50.000Z</time>
      </trkpt>
      <trkpt lat="41.38555" lon="20.41227">
        <ele>850.90002441406</ele>
        <time>2023-09-30T08:08:49.000Z</time>
      </trkpt>
      <trkpt lat="41.38547" lon="20.41222">
        <ele>849.94000244141</ele>
        <time>2023-09-30T08:08:48.000Z</time>
      </trkpt>
      <trkpt lat="41.38539" lon="20.41216">
        <ele>849.46002197266</ele>
        <time>2023-09-30T08:08:47.000Z</time>
      </trkpt>
      <trkpt lat="41.3853" lon="20.41209">
        <ele>848.5</ele>
        <time>2023-09-30T08:08:46.000Z</time>
      </trkpt>
      <trkpt lat="41.38527" lon="20.41205">
        <ele>848.02001953125</ele>
        <time>2023-09-30T08:08:45.000Z</time>
      </trkpt>
      <trkpt lat="41.38518" lon="20.41196">
        <ele>847.05999755859</ele>
        <time>2023-09-30T08:08:44.000Z</time>
      </trkpt>
      <trkpt lat="41.38515" lon="20.41193">
        <ele>846.58001708984</ele>
        <time>2023-09-30T08:08:43.000Z</time>
      </trkpt>
      <trkpt lat="41.38501" lon="20.41174">
        <ele>845.14001464844</ele>
        <time>2023-09-30T08:08:41.000Z</time>
      </trkpt>
      <trkpt lat="41.38494" lon="20.41167">
        <ele>844.17999267578</ele>
        <time>2023-09-30T08:08:40.000Z</time>
      </trkpt>
      <trkpt lat="41.38488" lon="20.41162">
        <ele>843.69000244141</ele>
        <time>2023-09-30T08:08:39.000Z</time>
      </trkpt>
      <trkpt lat="41.3847" lon="20.41147">
        <ele>842.25</ele>
        <time>2023-09-30T08:08:37.000Z</time>
      </trkpt>
      <trkpt lat="41.38456" lon="20.41134">
        <ele>841.28997802734</ele>
        <time>2023-09-30T08:08:35.000Z</time>
      </trkpt>
      <trkpt lat="41.38444" lon="20.41124">
        <ele>840.80999755859</ele>
        <time>2023-09-30T08:08:34.000Z</time>
      </trkpt>
      <trkpt lat="41.38433" lon="20.41113">
        <ele>839.84997558594</ele>
        <time>2023-09-30T08:08:33.000Z</time>
      </trkpt>
      <trkpt lat="41.38413" lon="20.41092">
        <ele>837.92999267578</ele>
        <time>2023-09-30T08:08:31.000Z</time>
      </trkpt>
      <trkpt lat="41.38397" lon="20.41075">
        <ele>836.96002197266</ele>
        <time>2023-09-30T08:08:30.000Z</time>
      </trkpt>
      <trkpt lat="41.38389" lon="20.41067">
        <ele>836</ele>
        <time>2023-09-30T08:08:29.000Z</time>
      </trkpt>
      <trkpt lat="41.38382" lon="20.41058">
        <ele>835.52001953125</ele>
        <time>2023-09-30T08:08:28.000Z</time>
      </trkpt>
      <trkpt lat="41.3837" lon="20.4104">
        <ele>833.59997558594</ele>
        <time>2023-09-30T08:08:27.000Z</time>
      </trkpt>
      <trkpt lat="41.38363" lon="20.41028">
        <ele>832.64001464844</ele>
        <time>2023-09-30T08:08:26.000Z</time>
      </trkpt>
      <trkpt lat="41.38357" lon="20.41018">
        <ele>832.15997314453</ele>
        <time>2023-09-30T08:08:25.000Z</time>
      </trkpt>
      <trkpt lat="41.38347" lon="20.41">
        <ele>830.71997070312</ele>
        <time>2023-09-30T08:08:24.000Z</time>
      </trkpt>
      <trkpt lat="41.38334" lon="20.40972">
        <ele>828.78997802734</ele>
        <time>2023-09-30T08:08:22.000Z</time>
      </trkpt>
      <trkpt lat="41.38331" lon="20.40965">
        <ele>828.30999755859</ele>
        <time>2023-09-30T08:08:21.000Z</time>
      </trkpt>
      <trkpt lat="41.38295" lon="20.40879">
        <ele>823.51000976562</ele>
        <time>2023-09-30T08:08:16.000Z</time>
      </trkpt>
      <trkpt lat="41.38292" lon="20.40869">
        <ele>823.03002929688</ele>
        <time>2023-09-30T08:08:15.000Z</time>
      </trkpt>
      <trkpt lat="41.3829" lon="20.4086">
        <ele>823.03002929688</ele>
        <time>2023-09-30T08:08:14.000Z</time>
      </trkpt>
      <trkpt lat="41.38286" lon="20.40845">
        <ele>822.54998779297</ele>
        <time>2023-09-30T08:08:13.000Z</time>
      </trkpt>
      <trkpt lat="41.38283" lon="20.40835">
        <ele>822.05999755859</ele>
        <time>2023-09-30T08:08:12.000Z</time>
      </trkpt>
      <trkpt lat="41.38278" lon="20.40825">
        <ele>821.58001708984</ele>
        <time>2023-09-30T08:08:11.000Z</time>
      </trkpt>
      <trkpt lat="41.38271" lon="20.40815">
        <ele>820.61999511719</ele>
        <time>2023-09-30T08:08:10.000Z</time>
      </trkpt>
      <trkpt lat="41.38263" lon="20.40805">
        <ele>820.14001464844</ele>
        <time>2023-09-30T08:08:09.000Z</time>
      </trkpt>
      <trkpt lat="41.38254" lon="20.40797">
        <ele>819.65997314453</ele>
        <time>2023-09-30T08:08:08.000Z</time>
      </trkpt>
      <trkpt lat="41.38244" lon="20.4079">
        <ele>819.17999267578</ele>
        <time>2023-09-30T08:08:07.000Z</time>
      </trkpt>
      <trkpt lat="41.38233" lon="20.40784">
        <ele>819.17999267578</ele>
        <time>2023-09-30T08:08:06.000Z</time>
      </trkpt>
      <trkpt lat="41.38223" lon="20.40781">
        <ele>819.17999267578</ele>
        <time>2023-09-30T08:08:05.000Z</time>
      </trkpt>
      <trkpt lat="41.38214" lon="20.4078">
        <ele>819.17999267578</ele>
        <time>2023-09-30T08:08:04.000Z</time>
      </trkpt>
      <trkpt lat="41.38202" lon="20.40783">
        <ele>818.70001220703</ele>
        <time>2023-09-30T08:08:03.000Z</time>
      </trkpt>
      <trkpt lat="41.3819" lon="20.40788">
        <ele>817.73999023438</ele>
        <time>2023-09-30T08:08:02.000Z</time>
      </trkpt>
      <trkpt lat="41.38178" lon="20.40795">
        <ele>817.26000976562</ele>
        <time>2023-09-30T08:08:01.000Z</time>
      </trkpt>
      <trkpt lat="41.38166" lon="20.40804">
        <ele>817.26000976562</ele>
        <time>2023-09-30T08:08:00.000Z</time>
      </trkpt>
      <trkpt lat="41.38157" lon="20.40811">
        <ele>817.26000976562</ele>
        <time>2023-09-30T08:07:59.000Z</time>
      </trkpt>
      <trkpt lat="41.3815" lon="20.40817">
        <ele>816.78002929688</ele>
        <time>2023-09-30T08:07:58.000Z</time>
      </trkpt>
      <trkpt lat="41.3809" lon="20.40882">
        <ele>817.73999023438</ele>
        <time>2023-09-30T08:07:54.000Z</time>
      </trkpt>
      <trkpt lat="41.38077" lon="20.40893">
        <ele>818.21997070312</ele>
        <time>2023-09-30T08:07:53.000Z</time>
      </trkpt>
      <trkpt lat="41.38069" lon="20.409">
        <ele>818.21997070312</ele>
        <time>2023-09-30T08:07:52.000Z</time>
      </trkpt>
      <trkpt lat="41.38036" lon="20.40923">
        <ele>818.21997070312</ele>
        <time>2023-09-30T08:07:50.000Z</time>
      </trkpt>
      <trkpt lat="41.38018" lon="20.40937">
        <ele>818.70001220703</ele>
        <time>2023-09-30T08:07:49.000Z</time>
      </trkpt>
      <trkpt lat="41.38015" lon="20.4094">
        <ele>818.70001220703</ele>
        <time>2023-09-30T08:07:48.000Z</time>
      </trkpt>
      <trkpt lat="41.37987" lon="20.40965">
        <ele>818.70001220703</ele>
        <time>2023-09-30T08:07:47.000Z</time>
      </trkpt>
      <trkpt lat="41.37975" lon="20.40974">
        <ele>818.70001220703</ele>
        <time>2023-09-30T08:07:46.000Z</time>
      </trkpt>
      <trkpt lat="41.37956" lon="20.40984">
        <ele>818.70001220703</ele>
        <time>2023-09-30T08:07:45.000Z</time>
      </trkpt>
      <trkpt lat="41.37944" lon="20.4099">
        <ele>818.70001220703</ele>
        <time>2023-09-30T08:07:44.000Z</time>
      </trkpt>
      <trkpt lat="41.37926" lon="20.40996">
        <ele>818.70001220703</ele>
        <time>2023-09-30T08:07:43.000Z</time>
      </trkpt>
      <trkpt lat="41.37913" lon="20.41">
        <ele>818.70001220703</ele>
        <time>2023-09-30T08:07:42.000Z</time>
      </trkpt>
      <trkpt lat="41.37869" lon="20.41011">
        <ele>818.70001220703</ele>
        <time>2023-09-30T08:07:39.000Z</time>
      </trkpt>
      <trkpt lat="41.37855" lon="20.41017">
        <ele>818.70001220703</ele>
        <time>2023-09-30T08:07:38.000Z</time>
      </trkpt>
      <trkpt lat="41.37843" lon="20.41023">
        <ele>818.70001220703</ele>
        <time>2023-09-30T08:07:37.000Z</time>
      </trkpt>
      <trkpt lat="41.37831" lon="20.41032">
        <ele>818.70001220703</ele>
        <time>2023-09-30T08:07:36.000Z</time>
      </trkpt>
      <trkpt lat="41.3782" lon="20.41042">
        <ele>818.70001220703</ele>
        <time>2023-09-30T08:07:35.000Z</time>
      </trkpt>
      <trkpt lat="41.37816" lon="20.41047">
        <ele>818.70001220703</ele>
        <time>2023-09-30T08:07:34.000Z</time>
      </trkpt>
      <trkpt lat="41.378" lon="20.41068">
        <ele>818.21997070312</ele>
        <time>2023-09-30T08:07:33.000Z</time>
      </trkpt>
      <trkpt lat="41.37795" lon="20.41073">
        <ele>818.70001220703</ele>
        <time>2023-09-30T08:07:32.000Z</time>
      </trkpt>
      <trkpt lat="41.37783" lon="20.41086">
        <ele>818.70001220703</ele>
        <time>2023-09-30T08:07:31.000Z</time>
      </trkpt>
      <trkpt lat="41.37765" lon="20.41104">
        <ele>818.70001220703</ele>
        <time>2023-09-30T08:07:29.000Z</time>
      </trkpt>
      <trkpt lat="41.37686" lon="20.41172">
        <ele>818.70001220703</ele>
        <time>2023-09-30T08:07:22.000Z</time>
      </trkpt>
      <trkpt lat="41.37667" lon="20.41188">
        <ele>819.17999267578</ele>
        <time>2023-09-30T08:07:21.000Z</time>
      </trkpt>
      <trkpt lat="41.37658" lon="20.41196">
        <ele>819.17999267578</ele>
        <time>2023-09-30T08:07:20.000Z</time>
      </trkpt>
      <trkpt lat="41.37642" lon="20.4121">
        <ele>819.17999267578</ele>
        <time>2023-09-30T08:07:19.000Z</time>
      </trkpt>
      <trkpt lat="41.37638" lon="20.41212">
        <ele>819.17999267578</ele>
        <time>2023-09-30T08:07:18.000Z</time>
      </trkpt>
      <trkpt lat="41.37626" lon="20.4122">
        <ele>819.17999267578</ele>
        <time>2023-09-30T08:07:17.000Z</time>
      </trkpt>
      <trkpt lat="41.37553" lon="20.41256">
        <ele>820.61999511719</ele>
        <time>2023-09-30T08:07:13.000Z</time>
      </trkpt>
      <trkpt lat="41.37521" lon="20.41274">
        <ele>821.09997558594</ele>
        <time>2023-09-30T08:07:11.000Z</time>
      </trkpt>
      <trkpt lat="41.37509" lon="20.41282">
        <ele>821.09997558594</ele>
        <time>2023-09-30T08:07:10.000Z</time>
      </trkpt>
      <trkpt lat="41.37498" lon="20.41291">
        <ele>821.09997558594</ele>
        <time>2023-09-30T08:07:09.000Z</time>
      </trkpt>
      <trkpt lat="41.37481" lon="20.41304">
        <ele>821.58001708984</ele>
        <time>2023-09-30T08:07:08.000Z</time>
      </trkpt>
      <trkpt lat="41.37383" lon="20.41391">
        <ele>822.05999755859</ele>
        <time>2023-09-30T08:07:02.000Z</time>
      </trkpt>
      <trkpt lat="41.37373" lon="20.41399">
        <ele>822.05999755859</ele>
        <time>2023-09-30T08:07:01.000Z</time>
      </trkpt>
      <trkpt lat="41.37346" lon="20.41417">
        <ele>822.05999755859</ele>
        <time>2023-09-30T08:07:00.000Z</time>
      </trkpt>
      <trkpt lat="41.37332" lon="20.41424">
        <ele>823.03002929688</ele>
        <time>2023-09-30T08:06:59.000Z</time>
      </trkpt>
      <trkpt lat="41.37318" lon="20.41429">
        <ele>823.51000976562</ele>
        <time>2023-09-30T08:06:58.000Z</time>
      </trkpt>
      <trkpt lat="41.37306" lon="20.4143">
        <ele>823.98999023438</ele>
        <time>2023-09-30T08:06:57.000Z</time>
      </trkpt>
      <trkpt lat="41.37291" lon="20.4143">
        <ele>824.46997070312</ele>
        <time>2023-09-30T08:06:56.000Z</time>
      </trkpt>
      <trkpt lat="41.37279" lon="20.41428">
        <ele>824.95001220703</ele>
        <time>2023-09-30T08:06:55.000Z</time>
      </trkpt>
      <trkpt lat="41.37266" lon="20.41424">
        <ele>825.42999267578</ele>
        <time>2023-09-30T08:06:54.000Z</time>
      </trkpt>
      <trkpt lat="41.37252" lon="20.41418">
        <ele>825.90997314453</ele>
        <time>2023-09-30T08:06:53.000Z</time>
      </trkpt>
      <trkpt lat="41.37225" lon="20.41404">
        <ele>826.39001464844</ele>
        <time>2023-09-30T08:06:51.000Z</time>
      </trkpt>
      <trkpt lat="41.37217" lon="20.41401">
        <ele>826.39001464844</ele>
        <time>2023-09-30T08:06:50.000Z</time>
      </trkpt>
      <trkpt lat="41.37197" lon="20.41394">
        <ele>826.86999511719</ele>
        <time>2023-09-30T08:06:49.000Z</time>
      </trkpt>
      <trkpt lat="41.37181" lon="20.41384">
        <ele>826.39001464844</ele>
        <time>2023-09-30T08:06:48.000Z</time>
      </trkpt>
      <trkpt lat="41.37172" lon="20.41379">
        <ele>825.42999267578</ele>
        <time>2023-09-30T08:06:47.000Z</time>
      </trkpt>
      <trkpt lat="41.37156" lon="20.41365">
        <ele>826.86999511719</ele>
        <time>2023-09-30T08:06:46.000Z</time>
      </trkpt>
      <trkpt lat="41.3714" lon="20.41353">
        <ele>827.83001708984</ele>
        <time>2023-09-30T08:06:45.000Z</time>
      </trkpt>
      <trkpt lat="41.37134" lon="20.41348">
        <ele>827.83001708984</ele>
        <time>2023-09-30T08:06:44.000Z</time>
      </trkpt>
      <trkpt lat="41.37126" lon="20.41341">
        <ele>827.83001708984</ele>
        <time>2023-09-30T08:06:43.000Z</time>
      </trkpt>
      <trkpt lat="41.37103" lon="20.41326">
        <ele>828.30999755859</ele>
        <time>2023-09-30T08:06:42.000Z</time>
      </trkpt>
      <trkpt lat="41.37097" lon="20.41323">
        <ele>828.78997802734</ele>
        <time>2023-09-30T08:06:41.000Z</time>
      </trkpt>
      <trkpt lat="41.37086" lon="20.41317">
        <ele>829.27001953125</ele>
        <time>2023-09-30T08:06:40.000Z</time>
      </trkpt>
      <trkpt lat="41.37067" lon="20.41308">
        <ele>831.20001220703</ele>
        <time>2023-09-30T08:06:39.000Z</time>
      </trkpt>
      <trkpt lat="41.37062" lon="20.41306">
        <ele>831.20001220703</ele>
        <time>2023-09-30T08:06:38.000Z</time>
      </trkpt>
      <trkpt lat="41.37032" lon="20.41297">
        <ele>832.64001464844</ele>
        <time>2023-09-30T08:06:36.000Z</time>
      </trkpt>
      <trkpt lat="41.37016" lon="20.41295">
        <ele>833.59997558594</ele>
        <time>2023-09-30T08:06:34.000Z</time>
      </trkpt>
      <trkpt lat="41.37008" lon="20.41294">
        <ele>834.55999755859</ele>
        <time>2023-09-30T08:06:33.000Z</time>
      </trkpt>
      <trkpt lat="41.37003" lon="20.41293">
        <ele>835.03997802734</ele>
        <time>2023-09-30T08:06:32.000Z</time>
      </trkpt>
      <trkpt lat="41.36996" lon="20.41291">
        <ele>836</ele>
        <time>2023-09-30T08:06:31.000Z</time>
      </trkpt>
      <trkpt lat="41.36989" lon="20.4129">
        <ele>836.96002197266</ele>
        <time>2023-09-30T08:06:30.000Z</time>
      </trkpt>
      <trkpt lat="41.36985" lon="20.41291">
        <ele>837.45001220703</ele>
        <time>2023-09-30T08:06:29.000Z</time>
      </trkpt>
      <trkpt lat="41.36979" lon="20.41291">
        <ele>837.92999267578</ele>
        <time>2023-09-30T08:06:28.000Z</time>
      </trkpt>
      <trkpt lat="41.36976" lon="20.4129">
        <ele>838.40997314453</ele>
        <time>2023-09-30T08:06:27.000Z</time>
      </trkpt>
      <trkpt lat="41.3697" lon="20.4129">
        <ele>838.40997314453</ele>
        <time>2023-09-30T08:06:26.000Z</time>
      </trkpt>
      <trkpt lat="41.36966" lon="20.4129">
        <ele>837.92999267578</ele>
        <time>2023-09-30T08:06:25.000Z</time>
      </trkpt>
      <trkpt lat="41.36961" lon="20.4129">
        <ele>837.92999267578</ele>
        <time>2023-09-30T08:06:24.000Z</time>
      </trkpt>
      <trkpt lat="41.36958" lon="20.4129">
        <ele>837.92999267578</ele>
        <time>2023-09-30T08:06:23.000Z</time>
      </trkpt>
      <trkpt lat="41.36952" lon="20.4129">
        <ele>837.92999267578</ele>
        <time>2023-09-30T08:06:22.000Z</time>
      </trkpt>
      <trkpt lat="41.36949" lon="20.4129">
        <ele>837.92999267578</ele>
        <time>2023-09-30T08:06:21.000Z</time>
      </trkpt>
      <trkpt lat="41.36944" lon="20.4129">
        <ele>837.92999267578</ele>
        <time>2023-09-30T08:06:20.000Z</time>
      </trkpt>
      <trkpt lat="41.36935" lon="20.4129">
        <ele>837.45001220703</ele>
        <time>2023-09-30T08:06:18.000Z</time>
      </trkpt>
      <trkpt lat="41.36931" lon="20.41289">
        <ele>836.96002197266</ele>
        <time>2023-09-30T08:06:17.000Z</time>
      </trkpt>
      <trkpt lat="41.36926" lon="20.41289">
        <ele>836.96002197266</ele>
        <time>2023-09-30T08:06:16.000Z</time>
      </trkpt>
      <trkpt lat="41.36924" lon="20.41289">
        <ele>837.45001220703</ele>
        <time>2023-09-30T08:06:15.000Z</time>
      </trkpt>
      <trkpt lat="41.36916" lon="20.4129">
        <ele>837.45001220703</ele>
        <time>2023-09-30T08:06:14.000Z</time>
      </trkpt>
      <trkpt lat="41.36913" lon="20.4129">
        <ele>837.45001220703</ele>
        <time>2023-09-30T08:06:13.000Z</time>
      </trkpt>
      <trkpt lat="41.36908" lon="20.4129">
        <ele>837.45001220703</ele>
        <time>2023-09-30T08:06:12.000Z</time>
      </trkpt>
      <trkpt lat="41.36902" lon="20.41291">
        <ele>837.92999267578</ele>
        <time>2023-09-30T08:06:11.000Z</time>
      </trkpt>
      <trkpt lat="41.36894" lon="20.41292">
        <ele>837.92999267578</ele>
        <time>2023-09-30T08:06:10.000Z</time>
      </trkpt>
      <trkpt lat="41.3689" lon="20.41294">
        <ele>837.92999267578</ele>
        <time>2023-09-30T08:06:09.000Z</time>
      </trkpt>
      <trkpt lat="41.36882" lon="20.41297">
        <ele>838.40997314453</ele>
        <time>2023-09-30T08:06:08.000Z</time>
      </trkpt>
      <trkpt lat="41.36876" lon="20.413">
        <ele>838.40997314453</ele>
        <time>2023-09-30T08:06:07.000Z</time>
      </trkpt>
      <trkpt lat="41.36872" lon="20.41303">
        <ele>838.40997314453</ele>
        <time>2023-09-30T08:06:06.000Z</time>
      </trkpt>
      <trkpt lat="41.36802" lon="20.41348">
        <ele>838.40997314453</ele>
        <time>2023-09-30T08:06:00.000Z</time>
      </trkpt>
      <trkpt lat="41.36789" lon="20.41354">
        <ele>838.89001464844</ele>
        <time>2023-09-30T08:05:59.000Z</time>
      </trkpt>
      <trkpt lat="41.36782" lon="20.41357">
        <ele>838.89001464844</ele>
        <time>2023-09-30T08:05:58.000Z</time>
      </trkpt>
      <trkpt lat="41.36736" lon="20.4137">
        <ele>839.36999511719</ele>
        <time>2023-09-30T08:05:55.000Z</time>
      </trkpt>
      <trkpt lat="41.36726" lon="20.41374">
        <ele>839.36999511719</ele>
        <time>2023-09-30T08:05:54.000Z</time>
      </trkpt>
      <trkpt lat="41.36713" lon="20.4138">
        <ele>839.84997558594</ele>
        <time>2023-09-30T08:05:53.000Z</time>
      </trkpt>
      <trkpt lat="41.36703" lon="20.41387">
        <ele>839.84997558594</ele>
        <time>2023-09-30T08:05:52.000Z</time>
      </trkpt>
      <trkpt lat="41.36693" lon="20.41396">
        <ele>840.33001708984</ele>
        <time>2023-09-30T08:05:51.000Z</time>
      </trkpt>
      <trkpt lat="41.36685" lon="20.41406">
        <ele>840.33001708984</ele>
        <time>2023-09-30T08:05:50.000Z</time>
      </trkpt>
      <trkpt lat="41.36678" lon="20.41415">
        <ele>840.33001708984</ele>
        <time>2023-09-30T08:05:49.000Z</time>
      </trkpt>
      <trkpt lat="41.36674" lon="20.41422">
        <ele>840.33001708984</ele>
        <time>2023-09-30T08:05:48.000Z</time>
      </trkpt>
      <trkpt lat="41.36598" lon="20.41549">
        <ele>840.80999755859</ele>
        <time>2023-09-30T08:05:40.000Z</time>
      </trkpt>
      <trkpt lat="41.36583" lon="20.41568">
        <ele>840.80999755859</ele>
        <time>2023-09-30T08:05:39.000Z</time>
      </trkpt>
      <trkpt lat="41.36574" lon="20.41579">
        <ele>840.80999755859</ele>
        <time>2023-09-30T08:05:38.000Z</time>
      </trkpt>
      <trkpt lat="41.36563" lon="20.41589">
        <ele>840.80999755859</ele>
        <time>2023-09-30T08:05:37.000Z</time>
      </trkpt>
      <trkpt lat="41.36549" lon="20.416">
        <ele>840.80999755859</ele>
        <time>2023-09-30T08:05:36.000Z</time>
      </trkpt>
      <trkpt lat="41.36531" lon="20.41612">
        <ele>840.80999755859</ele>
        <time>2023-09-30T08:05:34.000Z</time>
      </trkpt>
      <trkpt lat="41.36514" lon="20.4162">
        <ele>840.80999755859</ele>
        <time>2023-09-30T08:05:33.000Z</time>
      </trkpt>
      <trkpt lat="41.36507" lon="20.41623">
        <ele>841.28997802734</ele>
        <time>2023-09-30T08:05:32.000Z</time>
      </trkpt>
      <trkpt lat="41.36499" lon="20.41626">
        <ele>841.28997802734</ele>
        <time>2023-09-30T08:05:31.000Z</time>
      </trkpt>
      <trkpt lat="41.36476" lon="20.41633">
        <ele>841.28997802734</ele>
        <time>2023-09-30T08:05:30.000Z</time>
      </trkpt>
      <trkpt lat="41.36467" lon="20.41636">
        <ele>841.77001953125</ele>
        <time>2023-09-30T08:05:29.000Z</time>
      </trkpt>
      <trkpt lat="41.3646" lon="20.41638">
        <ele>841.77001953125</ele>
        <time>2023-09-30T08:05:28.000Z</time>
      </trkpt>
      <trkpt lat="41.36436" lon="20.41645">
        <ele>842.25</ele>
        <time>2023-09-30T08:05:27.000Z</time>
      </trkpt>
      <trkpt lat="41.36428" lon="20.41648">
        <ele>842.25</ele>
        <time>2023-09-30T08:05:26.000Z</time>
      </trkpt>
      <trkpt lat="41.36413" lon="20.4165">
        <ele>842.25</ele>
        <time>2023-09-30T08:05:25.000Z</time>
      </trkpt>
      <trkpt lat="41.36401" lon="20.41652">
        <ele>843.21002197266</ele>
        <time>2023-09-30T08:05:24.000Z</time>
      </trkpt>
      <trkpt lat="41.36391" lon="20.41652">
        <ele>843.21002197266</ele>
        <time>2023-09-30T08:05:23.000Z</time>
      </trkpt>
      <trkpt lat="41.36379" lon="20.41651">
        <ele>843.69000244141</ele>
        <time>2023-09-30T08:05:22.000Z</time>
      </trkpt>
      <trkpt lat="41.36366" lon="20.4165">
        <ele>844.17999267578</ele>
        <time>2023-09-30T08:05:21.000Z</time>
      </trkpt>
      <trkpt lat="41.36339" lon="20.41647">
        <ele>845.61999511719</ele>
        <time>2023-09-30T08:05:19.000Z</time>
      </trkpt>
      <trkpt lat="41.36324" lon="20.41646">
        <ele>846.09997558594</ele>
        <time>2023-09-30T08:05:17.000Z</time>
      </trkpt>
      <trkpt lat="41.36304" lon="20.41643">
        <ele>847.05999755859</ele>
        <time>2023-09-30T08:05:16.000Z</time>
      </trkpt>
      <trkpt lat="41.36241" lon="20.4163">
        <ele>850.41998291016</ele>
        <time>2023-09-30T08:05:11.000Z</time>
      </trkpt>
      <trkpt lat="41.36229" lon="20.4163">
        <ele>850.90002441406</ele>
        <time>2023-09-30T08:05:10.000Z</time>
      </trkpt>
      <trkpt lat="41.36218" lon="20.41631">
        <ele>851.38000488281</ele>
        <time>2023-09-30T08:05:09.000Z</time>
      </trkpt>
      <trkpt lat="41.36208" lon="20.41633">
        <ele>851.86999511719</ele>
        <time>2023-09-30T08:05:08.000Z</time>
      </trkpt>
      <trkpt lat="41.36197" lon="20.41637">
        <ele>852.34997558594</ele>
        <time>2023-09-30T08:05:07.000Z</time>
      </trkpt>
      <trkpt lat="41.36188" lon="20.41642">
        <ele>852.83001708984</ele>
        <time>2023-09-30T08:05:06.000Z</time>
      </trkpt>
      <trkpt lat="41.36178" lon="20.41649">
        <ele>852.83001708984</ele>
        <time>2023-09-30T08:05:05.000Z</time>
      </trkpt>
      <trkpt lat="41.36169" lon="20.41656">
        <ele>853.30999755859</ele>
        <time>2023-09-30T08:05:04.000Z</time>
      </trkpt>
      <trkpt lat="41.36164" lon="20.4166">
        <ele>853.30999755859</ele>
        <time>2023-09-30T08:05:03.000Z</time>
      </trkpt>
      <trkpt lat="41.3614" lon="20.41681">
        <ele>854.75</ele>
        <time>2023-09-30T08:05:00.000Z</time>
      </trkpt>
      <trkpt lat="41.36095" lon="20.41715">
        <ele>856.19000244141</ele>
        <time>2023-09-30T08:04:56.000Z</time>
      </trkpt>
      <trkpt lat="41.3604" lon="20.41756">
        <ele>857.15002441406</ele>
        <time>2023-09-30T08:04:49.000Z</time>
      </trkpt>
      <trkpt lat="41.36021" lon="20.4177">
        <ele>857.15002441406</ele>
        <time>2023-09-30T08:04:48.000Z</time>
      </trkpt>
      <trkpt lat="41.36019" lon="20.41772">
        <ele>857.15002441406</ele>
        <time>2023-09-30T08:04:47.000Z</time>
      </trkpt>
      <trkpt lat="41.36006" lon="20.41781">
        <ele>857.15002441406</ele>
        <time>2023-09-30T08:04:46.000Z</time>
      </trkpt>
      <trkpt lat="41.35994" lon="20.41789">
        <ele>857.15002441406</ele>
        <time>2023-09-30T08:04:45.000Z</time>
      </trkpt>
      <trkpt lat="41.35987" lon="20.41793">
        <ele>857.63000488281</ele>
        <time>2023-09-30T08:04:44.000Z</time>
      </trkpt>
      <trkpt lat="41.35973" lon="20.41801">
        <ele>857.63000488281</ele>
        <time>2023-09-30T08:04:43.000Z</time>
      </trkpt>
      <trkpt lat="41.35966" lon="20.41805">
        <ele>857.63000488281</ele>
        <time>2023-09-30T08:04:42.000Z</time>
      </trkpt>
      <trkpt lat="41.35952" lon="20.41812">
        <ele>858.10998535156</ele>
        <time>2023-09-30T08:04:41.000Z</time>
      </trkpt>
      <trkpt lat="41.35946" lon="20.41816">
        <ele>858.10998535156</ele>
        <time>2023-09-30T08:04:40.000Z</time>
      </trkpt>
      <trkpt lat="41.3593" lon="20.41826">
        <ele>859.08001708984</ele>
        <time>2023-09-30T08:04:38.000Z</time>
      </trkpt>
      <trkpt lat="41.35924" lon="20.4183">
        <ele>859.08001708984</ele>
        <time>2023-09-30T08:04:37.000Z</time>
      </trkpt>
      <trkpt lat="41.35906" lon="20.41838">
        <ele>859.55999755859</ele>
        <time>2023-09-30T08:04:36.000Z</time>
      </trkpt>
      <trkpt lat="41.35904" lon="20.41839">
        <ele>859.55999755859</ele>
        <time>2023-09-30T08:04:35.000Z</time>
      </trkpt>
      <trkpt lat="41.35887" lon="20.41844">
        <ele>859.55999755859</ele>
        <time>2023-09-30T08:04:34.000Z</time>
      </trkpt>
      <trkpt lat="41.35877" lon="20.41846">
        <ele>859.55999755859</ele>
        <time>2023-09-30T08:04:33.000Z</time>
      </trkpt>
      <trkpt lat="41.35867" lon="20.41845">
        <ele>859.55999755859</ele>
        <time>2023-09-30T08:04:32.000Z</time>
      </trkpt>
      <trkpt lat="41.35858" lon="20.41842">
        <ele>859.55999755859</ele>
        <time>2023-09-30T08:04:31.000Z</time>
      </trkpt>
      <trkpt lat="41.35848" lon="20.41836">
        <ele>859.55999755859</ele>
        <time>2023-09-30T08:04:30.000Z</time>
      </trkpt>
      <trkpt lat="41.35838" lon="20.41829">
        <ele>859.08001708984</ele>
        <time>2023-09-30T08:04:29.000Z</time>
      </trkpt>
      <trkpt lat="41.35829" lon="20.41818">
        <ele>859.08001708984</ele>
        <time>2023-09-30T08:04:28.000Z</time>
      </trkpt>
      <trkpt lat="41.35821" lon="20.41806">
        <ele>859.08001708984</ele>
        <time>2023-09-30T08:04:27.000Z</time>
      </trkpt>
      <trkpt lat="41.35815" lon="20.41795">
        <ele>858.59002685547</ele>
        <time>2023-09-30T08:04:26.000Z</time>
      </trkpt>
      <trkpt lat="41.35812" lon="20.41787">
        <ele>858.59002685547</ele>
        <time>2023-09-30T08:04:25.000Z</time>
      </trkpt>
      <trkpt lat="41.35805" lon="20.41767">
        <ele>858.59002685547</ele>
        <time>2023-09-30T08:04:24.000Z</time>
      </trkpt>
      <trkpt lat="41.358" lon="20.4175">
        <ele>858.59002685547</ele>
        <time>2023-09-30T08:04:23.000Z</time>
      </trkpt>
      <trkpt lat="41.35787" lon="20.41693">
        <ele>858.10998535156</ele>
        <time>2023-09-30T08:04:20.000Z</time>
      </trkpt>
      <trkpt lat="41.35783" lon="20.41679">
        <ele>858.10998535156</ele>
        <time>2023-09-30T08:04:19.000Z</time>
      </trkpt>
      <trkpt lat="41.35777" lon="20.41662">
        <ele>857.63000488281</ele>
        <time>2023-09-30T08:04:18.000Z</time>
      </trkpt>
      <trkpt lat="41.35772" lon="20.41652">
        <ele>858.10998535156</ele>
        <time>2023-09-30T08:04:17.000Z</time>
      </trkpt>
      <trkpt lat="41.35746" lon="20.41607">
        <ele>858.59002685547</ele>
        <time>2023-09-30T08:04:14.000Z</time>
      </trkpt>
      <trkpt lat="41.3572" lon="20.41563">
        <ele>861.47998046875</ele>
        <time>2023-09-30T08:04:11.000Z</time>
      </trkpt>
      <trkpt lat="41.35709" lon="20.41546">
        <ele>862.44000244141</ele>
        <time>2023-09-30T08:04:10.000Z</time>
      </trkpt>
      <trkpt lat="41.35699" lon="20.41533">
        <ele>863.40002441406</ele>
        <time>2023-09-30T08:04:09.000Z</time>
      </trkpt>
      <trkpt lat="41.35688" lon="20.41523">
        <ele>863.88000488281</ele>
        <time>2023-09-30T08:04:08.000Z</time>
      </trkpt>
      <trkpt lat="41.35679" lon="20.41517">
        <ele>864.84002685547</ele>
        <time>2023-09-30T08:04:07.000Z</time>
      </trkpt>
      <trkpt lat="41.35664" lon="20.41509">
        <ele>865.32000732422</ele>
        <time>2023-09-30T08:04:06.000Z</time>
      </trkpt>
      <trkpt lat="41.35653" lon="20.41504">
        <ele>865.79998779297</ele>
        <time>2023-09-30T08:04:05.000Z</time>
      </trkpt>
      <trkpt lat="41.35638" lon="20.41499">
        <ele>866.77001953125</ele>
        <time>2023-09-30T08:04:04.000Z</time>
      </trkpt>
      <trkpt lat="41.35628" lon="20.41498">
        <ele>866.77001953125</ele>
        <time>2023-09-30T08:04:03.000Z</time>
      </trkpt>
      <trkpt lat="41.35616" lon="20.41498">
        <ele>867.25</ele>
        <time>2023-09-30T08:04:02.000Z</time>
      </trkpt>
      <trkpt lat="41.35603" lon="20.415">
        <ele>866.77001953125</ele>
        <time>2023-09-30T08:04:01.000Z</time>
      </trkpt>
      <trkpt lat="41.35589" lon="20.41505">
        <ele>866.77001953125</ele>
        <time>2023-09-30T08:04:00.000Z</time>
      </trkpt>
      <trkpt lat="41.35577" lon="20.41511">
        <ele>866.28997802734</ele>
        <time>2023-09-30T08:03:59.000Z</time>
      </trkpt>
      <trkpt lat="41.35567" lon="20.41518">
        <ele>865.79998779297</ele>
        <time>2023-09-30T08:03:58.000Z</time>
      </trkpt>
      <trkpt lat="41.35558" lon="20.41525">
        <ele>865.79998779297</ele>
        <time>2023-09-30T08:03:57.000Z</time>
      </trkpt>
      <trkpt lat="41.35548" lon="20.41535">
        <ele>865.32000732422</ele>
        <time>2023-09-30T08:03:56.000Z</time>
      </trkpt>
      <trkpt lat="41.35535" lon="20.4155">
        <ele>864.84002685547</ele>
        <time>2023-09-30T08:03:55.000Z</time>
      </trkpt>
      <trkpt lat="41.35526" lon="20.41563">
        <ele>864.84002685547</ele>
        <time>2023-09-30T08:03:54.000Z</time>
      </trkpt>
      <trkpt lat="41.35518" lon="20.41575">
        <ele>864.84002685547</ele>
        <time>2023-09-30T08:03:53.000Z</time>
      </trkpt>
      <trkpt lat="41.35511" lon="20.41588">
        <ele>864.84002685547</ele>
        <time>2023-09-30T08:03:52.000Z</time>
      </trkpt>
      <trkpt lat="41.35506" lon="20.41602">
        <ele>865.32000732422</ele>
        <time>2023-09-30T08:03:51.000Z</time>
      </trkpt>
      <trkpt lat="41.35501" lon="20.41618">
        <ele>865.32000732422</ele>
        <time>2023-09-30T08:03:50.000Z</time>
      </trkpt>
      <trkpt lat="41.35498" lon="20.41632">
        <ele>865.79998779297</ele>
        <time>2023-09-30T08:03:49.000Z</time>
      </trkpt>
      <trkpt lat="41.35497" lon="20.41638">
        <ele>865.79998779297</ele>
        <time>2023-09-30T08:03:48.000Z</time>
      </trkpt>
      <trkpt lat="41.35491" lon="20.41747">
        <ele>867.72998046875</ele>
        <time>2023-09-30T08:03:42.000Z</time>
      </trkpt>
      <trkpt lat="41.35489" lon="20.41764">
        <ele>867.72998046875</ele>
        <time>2023-09-30T08:03:41.000Z</time>
      </trkpt>
      <trkpt lat="41.35485" lon="20.41781">
        <ele>867.72998046875</ele>
        <time>2023-09-30T08:03:40.000Z</time>
      </trkpt>
      <trkpt lat="41.35481" lon="20.41793">
        <ele>867.72998046875</ele>
        <time>2023-09-30T08:03:39.000Z</time>
      </trkpt>
      <trkpt lat="41.35429" lon="20.41927">
        <ele>868.21002197266</ele>
        <time>2023-09-30T08:03:32.000Z</time>
      </trkpt>
      <trkpt lat="41.35425" lon="20.41942">
        <ele>868.21002197266</ele>
        <time>2023-09-30T08:03:31.000Z</time>
      </trkpt>
      <trkpt lat="41.35421" lon="20.41956">
        <ele>868.69000244141</ele>
        <time>2023-09-30T08:03:30.000Z</time>
      </trkpt>
      <trkpt lat="41.35419" lon="20.41965">
        <ele>868.69000244141</ele>
        <time>2023-09-30T08:03:29.000Z</time>
      </trkpt>
      <trkpt lat="41.35392" lon="20.42071">
        <ele>872.04998779297</ele>
        <time>2023-09-30T08:03:22.000Z</time>
      </trkpt>
      <trkpt lat="41.35384" lon="20.42103">
        <ele>873.01000976562</ele>
        <time>2023-09-30T08:03:20.000Z</time>
      </trkpt>
      <trkpt lat="41.35378" lon="20.42127">
        <ele>873.97998046875</ele>
        <time>2023-09-30T08:03:18.000Z</time>
      </trkpt>
      <trkpt lat="41.35377" lon="20.42137">
        <ele>874.46002197266</ele>
        <time>2023-09-30T08:03:17.000Z</time>
      </trkpt>
      <trkpt lat="41.35376" lon="20.42146">
        <ele>874.94000244141</ele>
        <time>2023-09-30T08:03:16.000Z</time>
      </trkpt>
      <trkpt lat="41.35375" lon="20.42154">
        <ele>874.94000244141</ele>
        <time>2023-09-30T08:03:15.000Z</time>
      </trkpt>
      <trkpt lat="41.35376" lon="20.42159">
        <ele>875.41998291016</ele>
        <time>2023-09-30T08:03:14.000Z</time>
      </trkpt>
      <trkpt lat="41.35377" lon="20.42168">
        <ele>875.41998291016</ele>
        <time>2023-09-30T08:03:13.000Z</time>
      </trkpt>
      <trkpt lat="41.35377" lon="20.42174">
        <ele>875.90002441406</ele>
        <time>2023-09-30T08:03:12.000Z</time>
      </trkpt>
      <trkpt lat="41.3538" lon="20.42182">
        <ele>875.90002441406</ele>
        <time>2023-09-30T08:03:11.000Z</time>
      </trkpt>
      <trkpt lat="41.35382" lon="20.42188">
        <ele>876.38000488281</ele>
        <time>2023-09-30T08:03:10.000Z</time>
      </trkpt>
      <trkpt lat="41.35386" lon="20.42194">
        <ele>876.38000488281</ele>
        <time>2023-09-30T08:03:09.000Z</time>
      </trkpt>
      <trkpt lat="41.35389" lon="20.422">
        <ele>876.85998535156</ele>
        <time>2023-09-30T08:03:08.000Z</time>
      </trkpt>
      <trkpt lat="41.35393" lon="20.42204">
        <ele>876.85998535156</ele>
        <time>2023-09-30T08:03:07.000Z</time>
      </trkpt>
      <trkpt lat="41.35396" lon="20.42206">
        <ele>876.85998535156</ele>
        <time>2023-09-30T08:03:06.000Z</time>
      </trkpt>
      <trkpt lat="41.35413" lon="20.42213">
        <ele>877.34002685547</ele>
        <time>2023-09-30T08:03:00.000Z</time>
      </trkpt>
      <trkpt lat="41.35431" lon="20.42232">
        <ele>877.34002685547</ele>
        <time>2023-09-30T08:02:51.000Z</time>
      </trkpt>
      <trkpt lat="41.35442" lon="20.42248">
        <ele>877.34002685547</ele>
        <time>2023-09-30T08:02:38.000Z</time>
      </trkpt>
      <trkpt lat="41.35446" lon="20.42261">
        <ele>876.85998535156</ele>
        <time>2023-09-30T08:02:28.000Z</time>
      </trkpt>
      <trkpt lat="41.35453" lon="20.4229">
        <ele>877.34002685547</ele>
        <time>2023-09-30T08:02:20.000Z</time>
      </trkpt>
      <trkpt lat="41.35455" lon="20.42296">
        <ele>877.34002685547</ele>
        <time>2023-09-30T08:02:19.000Z</time>
      </trkpt>
      <trkpt lat="41.35456" lon="20.42302">
        <ele>877.34002685547</ele>
        <time>2023-09-30T08:02:18.000Z</time>
      </trkpt>
      <trkpt lat="41.35457" lon="20.42307">
        <ele>877.34002685547</ele>
        <time>2023-09-30T08:02:17.000Z</time>
      </trkpt>
      <trkpt lat="41.35459" lon="20.42315">
        <ele>876.85998535156</ele>
        <time>2023-09-30T08:02:16.000Z</time>
      </trkpt>
      <trkpt lat="41.3546" lon="20.42323">
        <ele>876.85998535156</ele>
        <time>2023-09-30T08:02:15.000Z</time>
      </trkpt>
      <trkpt lat="41.3546" lon="20.42331">
        <ele>876.38000488281</ele>
        <time>2023-09-30T08:02:14.000Z</time>
      </trkpt>
      <trkpt lat="41.35458" lon="20.42365">
        <ele>876.85998535156</ele>
        <time>2023-09-30T08:02:10.000Z</time>
      </trkpt>
      <trkpt lat="41.35457" lon="20.42371">
        <ele>876.85998535156</ele>
        <time>2023-09-30T08:02:09.000Z</time>
      </trkpt>
      <trkpt lat="41.35453" lon="20.4239">
        <ele>877.34002685547</ele>
        <time>2023-09-30T08:02:07.000Z</time>
      </trkpt>
      <trkpt lat="41.35452" lon="20.42397">
        <ele>877.34002685547</ele>
        <time>2023-09-30T08:02:06.000Z</time>
      </trkpt>
      <trkpt lat="41.3545" lon="20.42404">
        <ele>877.82000732422</ele>
        <time>2023-09-30T08:02:05.000Z</time>
      </trkpt>
      <trkpt lat="41.35447" lon="20.42414">
        <ele>877.82000732422</ele>
        <time>2023-09-30T08:02:04.000Z</time>
      </trkpt>
      <trkpt lat="41.35445" lon="20.42417">
        <ele>878.29998779297</ele>
        <time>2023-09-30T08:02:03.000Z</time>
      </trkpt>
      <trkpt lat="41.35442" lon="20.42425">
        <ele>878.29998779297</ele>
        <time>2023-09-30T08:02:02.000Z</time>
      </trkpt>
      <trkpt lat="41.35439" lon="20.42433">
        <ele>878.78002929688</ele>
        <time>2023-09-30T08:02:01.000Z</time>
      </trkpt>
      <trkpt lat="41.35418" lon="20.42474">
        <ele>880.21997070312</ele>
        <time>2023-09-30T08:01:56.000Z</time>
      </trkpt>
      <trkpt lat="41.35414" lon="20.42482">
        <ele>880.71002197266</ele>
        <time>2023-09-30T08:01:55.000Z</time>
      </trkpt>
      <trkpt lat="41.35408" lon="20.4249">
        <ele>881.19000244141</ele>
        <time>2023-09-30T08:01:54.000Z</time>
      </trkpt>
      <trkpt lat="41.35397" lon="20.42502">
        <ele>881.66998291016</ele>
        <time>2023-09-30T08:01:52.000Z</time>
      </trkpt>
      <trkpt lat="41.35388" lon="20.4251">
        <ele>881.66998291016</ele>
        <time>2023-09-30T08:01:51.000Z</time>
      </trkpt>
      <trkpt lat="41.35382" lon="20.42515">
        <ele>882.15002441406</ele>
        <time>2023-09-30T08:01:50.000Z</time>
      </trkpt>
      <trkpt lat="41.35373" lon="20.42522">
        <ele>882.63000488281</ele>
        <time>2023-09-30T08:01:49.000Z</time>
      </trkpt>
      <trkpt lat="41.35365" lon="20.42525">
        <ele>883.10998535156</ele>
        <time>2023-09-30T08:01:48.000Z</time>
      </trkpt>
      <trkpt lat="41.35355" lon="20.42528">
        <ele>884.07000732422</ele>
        <time>2023-09-30T08:01:47.000Z</time>
      </trkpt>
      <trkpt lat="41.35346" lon="20.42533">
        <ele>885.03002929688</ele>
        <time>2023-09-30T08:01:46.000Z</time>
      </trkpt>
      <trkpt lat="41.3534" lon="20.42536">
        <ele>885.98999023438</ele>
        <time>2023-09-30T08:01:45.000Z</time>
      </trkpt>
      <trkpt lat="41.35331" lon="20.42542">
        <ele>886.46997070312</ele>
        <time>2023-09-30T08:01:44.000Z</time>
      </trkpt>
      <trkpt lat="41.35261" lon="20.4258">
        <ele>892.23999023438</ele>
        <time>2023-09-30T08:01:39.000Z</time>
      </trkpt>
      <trkpt lat="41.35192" lon="20.42617">
        <ele>895.60998535156</ele>
        <time>2023-09-30T08:01:35.000Z</time>
      </trkpt>
      <trkpt lat="41.35174" lon="20.42623">
        <ele>896.57000732422</ele>
        <time>2023-09-30T08:01:34.000Z</time>
      </trkpt>
      <trkpt lat="41.35152" lon="20.42629">
        <ele>898.48999023438</ele>
        <time>2023-09-30T08:01:32.000Z</time>
      </trkpt>
      <trkpt lat="41.3514" lon="20.42634">
        <ele>899.92999267578</ele>
        <time>2023-09-30T08:01:31.000Z</time>
      </trkpt>
      <trkpt lat="41.3513" lon="20.42639">
        <ele>900.89001464844</ele>
        <time>2023-09-30T08:01:30.000Z</time>
      </trkpt>
      <trkpt lat="41.35121" lon="20.42647">
        <ele>901.84997558594</ele>
        <time>2023-09-30T08:01:29.000Z</time>
      </trkpt>
      <trkpt lat="41.35118" lon="20.4265">
        <ele>901.84997558594</ele>
        <time>2023-09-30T08:01:28.000Z</time>
      </trkpt>
      <trkpt lat="41.3509" lon="20.42681">
        <ele>905.70001220703</ele>
        <time>2023-09-30T08:01:26.000Z</time>
      </trkpt>
      <trkpt lat="41.35071" lon="20.42706">
        <ele>908.58001708984</ele>
        <time>2023-09-30T08:01:24.000Z</time>
      </trkpt>
      <trkpt lat="41.35061" lon="20.42715">
        <ele>910.03002929688</ele>
        <time>2023-09-30T08:01:23.000Z</time>
      </trkpt>
      <trkpt lat="41.35051" lon="20.42722">
        <ele>910.98999023438</ele>
        <time>2023-09-30T08:01:22.000Z</time>
      </trkpt>
      <trkpt lat="41.3504" lon="20.42727">
        <ele>912.42999267578</ele>
        <time>2023-09-30T08:01:21.000Z</time>
      </trkpt>
      <trkpt lat="41.35031" lon="20.42728">
        <ele>913.39001464844</ele>
        <time>2023-09-30T08:01:20.000Z</time>
      </trkpt>
      <trkpt lat="41.3502" lon="20.42729">
        <ele>914.34997558594</ele>
        <time>2023-09-30T08:01:19.000Z</time>
      </trkpt>
      <trkpt lat="41.35005" lon="20.42729">
        <ele>916.27001953125</ele>
        <time>2023-09-30T08:01:18.000Z</time>
      </trkpt>
      <trkpt lat="41.34992" lon="20.42729">
        <ele>918.20001220703</ele>
        <time>2023-09-30T08:01:17.000Z</time>
      </trkpt>
      <trkpt lat="41.34983" lon="20.42729">
        <ele>919.15997314453</ele>
        <time>2023-09-30T08:01:16.000Z</time>
      </trkpt>
      <trkpt lat="41.34965" lon="20.42731">
        <ele>921.55999755859</ele>
        <time>2023-09-30T08:01:15.000Z</time>
      </trkpt>
      <trkpt lat="41.34953" lon="20.42734">
        <ele>922.52001953125</ele>
        <time>2023-09-30T08:01:14.000Z</time>
      </trkpt>
      <trkpt lat="41.34926" lon="20.4274">
        <ele>925.89001464844</ele>
        <time>2023-09-30T08:01:12.000Z</time>
      </trkpt>
      <trkpt lat="41.34881" lon="20.42748">
        <ele>931.16998291016</ele>
        <time>2023-09-30T08:01:09.000Z</time>
      </trkpt>
      <trkpt lat="41.34871" lon="20.42752">
        <ele>932.61999511719</ele>
        <time>2023-09-30T08:01:08.000Z</time>
      </trkpt>
      <trkpt lat="41.34862" lon="20.42758">
        <ele>934.05999755859</ele>
        <time>2023-09-30T08:01:07.000Z</time>
      </trkpt>
      <trkpt lat="41.34854" lon="20.42765">
        <ele>935.5</ele>
        <time>2023-09-30T08:01:06.000Z</time>
      </trkpt>
      <trkpt lat="41.34846" lon="20.42775">
        <ele>936.94000244141</ele>
        <time>2023-09-30T08:01:05.000Z</time>
      </trkpt>
      <trkpt lat="41.34841" lon="20.42784">
        <ele>938.38000488281</ele>
        <time>2023-09-30T08:01:04.000Z</time>
      </trkpt>
      <trkpt lat="41.34836" lon="20.42795">
        <ele>939.34997558594</ele>
        <time>2023-09-30T08:01:03.000Z</time>
      </trkpt>
      <trkpt lat="41.34829" lon="20.42811">
        <ele>941.27001953125</ele>
        <time>2023-09-30T08:01:02.000Z</time>
      </trkpt>
      <trkpt lat="41.34826" lon="20.4282">
        <ele>942.22998046875</ele>
        <time>2023-09-30T08:01:01.000Z</time>
      </trkpt>
      <trkpt lat="41.34818" lon="20.42843">
        <ele>944.63000488281</ele>
        <time>2023-09-30T08:01:00.000Z</time>
      </trkpt>
      <trkpt lat="41.34814" lon="20.42861">
        <ele>946.55999755859</ele>
        <time>2023-09-30T08:00:59.000Z</time>
      </trkpt>
      <trkpt lat="41.34809" lon="20.42888">
        <ele>948.96002197266</ele>
        <time>2023-09-30T08:00:57.000Z</time>
      </trkpt>
      <trkpt lat="41.34806" lon="20.42904">
        <ele>950.88000488281</ele>
        <time>2023-09-30T08:00:56.000Z</time>
      </trkpt>
      <trkpt lat="41.34802" lon="20.42936">
        <ele>953.77001953125</ele>
        <time>2023-09-30T08:00:54.000Z</time>
      </trkpt>
      <trkpt lat="41.34802" lon="20.42945">
        <ele>954.72998046875</ele>
        <time>2023-09-30T08:00:53.000Z</time>
      </trkpt>
      <trkpt lat="41.34802" lon="20.42964">
        <ele>956.65002441406</ele>
        <time>2023-09-30T08:00:52.000Z</time>
      </trkpt>
      <trkpt lat="41.34802" lon="20.42979">
        <ele>958.09002685547</ele>
        <time>2023-09-30T08:00:51.000Z</time>
      </trkpt>
      <trkpt lat="41.34803" lon="20.42993">
        <ele>959.53002929688</ele>
        <time>2023-09-30T08:00:50.000Z</time>
      </trkpt>
      <trkpt lat="41.34803" lon="20.42996">
        <ele>959.53002929688</ele>
        <time>2023-09-30T08:00:49.000Z</time>
      </trkpt>
      <trkpt lat="41.34798" lon="20.43065">
        <ele>966.73999023438</ele>
        <time>2023-09-30T08:00:45.000Z</time>
      </trkpt>
      <trkpt lat="41.34795" lon="20.43081">
        <ele>968.66998291016</ele>
        <time>2023-09-30T08:00:44.000Z</time>
      </trkpt>
      <trkpt lat="41.34791" lon="20.43093">
        <ele>969.63000488281</ele>
        <time>2023-09-30T08:00:43.000Z</time>
      </trkpt>
      <trkpt lat="41.34786" lon="20.43103">
        <ele>970.59002685547</ele>
        <time>2023-09-30T08:00:42.000Z</time>
      </trkpt>
      <trkpt lat="41.34783" lon="20.43107">
        <ele>971.07000732422</ele>
        <time>2023-09-30T08:00:41.000Z</time>
      </trkpt>
      <trkpt lat="41.34773" lon="20.43121">
        <ele>972.98999023438</ele>
        <time>2023-09-30T08:00:40.000Z</time>
      </trkpt>
      <trkpt lat="41.34769" lon="20.43129">
        <ele>974.42999267578</ele>
        <time>2023-09-30T08:00:39.000Z</time>
      </trkpt>
      <trkpt lat="41.34756" lon="20.43158">
        <ele>978.76000976562</ele>
        <time>2023-09-30T08:00:37.000Z</time>
      </trkpt>
      <trkpt lat="41.34753" lon="20.4317">
        <ele>980.20001220703</ele>
        <time>2023-09-30T08:00:36.000Z</time>
      </trkpt>
      <trkpt lat="41.34751" lon="20.43183">
        <ele>981.64001464844</ele>
        <time>2023-09-30T08:00:35.000Z</time>
      </trkpt>
      <trkpt lat="41.3475" lon="20.43194">
        <ele>982.59997558594</ele>
        <time>2023-09-30T08:00:34.000Z</time>
      </trkpt>
      <trkpt lat="41.34751" lon="20.43206">
        <ele>984.04998779297</ele>
        <time>2023-09-30T08:00:33.000Z</time>
      </trkpt>
      <trkpt lat="41.34752" lon="20.43223">
        <ele>985.48999023438</ele>
        <time>2023-09-30T08:00:32.000Z</time>
      </trkpt>
      <trkpt lat="41.34753" lon="20.43236">
        <ele>986.92999267578</ele>
        <time>2023-09-30T08:00:31.000Z</time>
      </trkpt>
      <trkpt lat="41.34757" lon="20.43263">
        <ele>989.80999755859</ele>
        <time>2023-09-30T08:00:29.000Z</time>
      </trkpt>
      <trkpt lat="41.34757" lon="20.43278">
        <ele>991.26000976562</ele>
        <time>2023-09-30T08:00:28.000Z</time>
      </trkpt>
      <trkpt lat="41.34755" lon="20.43293">
        <ele>992.70001220703</ele>
        <time>2023-09-30T08:00:27.000Z</time>
      </trkpt>
      <trkpt lat="41.34752" lon="20.43305">
        <ele>994.14001464844</ele>
        <time>2023-09-30T08:00:26.000Z</time>
      </trkpt>
      <trkpt lat="41.34748" lon="20.43317">
        <ele>995.58001708984</ele>
        <time>2023-09-30T08:00:25.000Z</time>
      </trkpt>
      <trkpt lat="41.34743" lon="20.43327">
        <ele>996.53997802734</ele>
        <time>2023-09-30T08:00:24.000Z</time>
      </trkpt>
      <trkpt lat="41.34736" lon="20.43336">
        <ele>997.98999023438</ele>
        <time>2023-09-30T08:00:23.000Z</time>
      </trkpt>
      <trkpt lat="41.34727" lon="20.43344">
        <ele>999.42999267578</ele>
        <time>2023-09-30T08:00:22.000Z</time>
      </trkpt>
      <trkpt lat="41.34718" lon="20.4335">
        <ele>1000.8699951172</ele>
        <time>2023-09-30T08:00:21.000Z</time>
      </trkpt>
      <trkpt lat="41.34709" lon="20.43354">
        <ele>1001.8300170898</ele>
        <time>2023-09-30T08:00:20.000Z</time>
      </trkpt>
      <trkpt lat="41.34699" lon="20.43355">
        <ele>1003.2700195312</ele>
        <time>2023-09-30T08:00:19.000Z</time>
      </trkpt>
      <trkpt lat="41.34688" lon="20.43354">
        <ele>1004.7199707031</ele>
        <time>2023-09-30T08:00:18.000Z</time>
      </trkpt>
      <trkpt lat="41.34686" lon="20.43354">
        <ele>1004.7199707031</ele>
        <time>2023-09-30T08:00:17.000Z</time>
      </trkpt>
      <trkpt lat="41.34662" lon="20.43348">
        <ele>1007.1199951172</ele>
        <time>2023-09-30T08:00:15.000Z</time>
      </trkpt>
      <trkpt lat="41.34631" lon="20.43338">
        <ele>1010.4799804688</ele>
        <time>2023-09-30T08:00:12.000Z</time>
      </trkpt>
      <trkpt lat="41.3462" lon="20.43333">
        <ele>1011.4400024414</ele>
        <time>2023-09-30T08:00:11.000Z</time>
      </trkpt>
      <trkpt lat="41.34613" lon="20.43328">
        <ele>1012.4099731445</ele>
        <time>2023-09-30T08:00:10.000Z</time>
      </trkpt>
      <trkpt lat="41.34606" lon="20.43321">
        <ele>1013.3699951172</ele>
        <time>2023-09-30T08:00:09.000Z</time>
      </trkpt>
      <trkpt lat="41.346" lon="20.43313">
        <ele>1013.8499755859</ele>
        <time>2023-09-30T08:00:08.000Z</time>
      </trkpt>
      <trkpt lat="41.34595" lon="20.43305">
        <ele>1014.8099975586</ele>
        <time>2023-09-30T08:00:07.000Z</time>
      </trkpt>
      <trkpt lat="41.34592" lon="20.43298">
        <ele>1015.2899780273</ele>
        <time>2023-09-30T08:00:06.000Z</time>
      </trkpt>
      <trkpt lat="41.34589" lon="20.43291">
        <ele>1015.7700195312</ele>
        <time>2023-09-30T08:00:05.000Z</time>
      </trkpt>
      <trkpt lat="41.34581" lon="20.43276">
        <ele>1017.2100219727</ele>
        <time>2023-09-30T08:00:04.000Z</time>
      </trkpt>
      <trkpt lat="41.34577" lon="20.4327">
        <ele>1018.1699829102</ele>
        <time>2023-09-30T08:00:03.000Z</time>
      </trkpt>
      <trkpt lat="41.34571" lon="20.43265">
        <ele>1018.6500244141</ele>
        <time>2023-09-30T08:00:02.000Z</time>
      </trkpt>
      <trkpt lat="41.34564" lon="20.43263">
        <ele>1019.6199951172</ele>
        <time>2023-09-30T08:00:01.000Z</time>
      </trkpt>
      <trkpt lat="41.34557" lon="20.43262">
        <ele>1020.0999755859</ele>
        <time>2023-09-30T08:00:00.000Z</time>
      </trkpt>
      <trkpt lat="41.3455" lon="20.43262">
        <ele>1020.5800170898</ele>
        <time>2023-09-30T07:59:59.000Z</time>
      </trkpt>
      <trkpt lat="41.34543" lon="20.43264">
        <ele>1021.5399780273</ele>
        <time>2023-09-30T07:59:58.000Z</time>
      </trkpt>
      <trkpt lat="41.34538" lon="20.43266">
        <ele>1022.0200195312</ele>
        <time>2023-09-30T07:59:57.000Z</time>
      </trkpt>
      <trkpt lat="41.34528" lon="20.43269">
        <ele>1022.9799804688</ele>
        <time>2023-09-30T07:59:56.000Z</time>
      </trkpt>
      <trkpt lat="41.3452" lon="20.4327">
        <ele>1023.9400024414</ele>
        <time>2023-09-30T07:59:55.000Z</time>
      </trkpt>
      <trkpt lat="41.34512" lon="20.43269">
        <ele>1024.9000244141</ele>
        <time>2023-09-30T07:59:54.000Z</time>
      </trkpt>
      <trkpt lat="41.34505" lon="20.43265">
        <ele>1025.8599853516</ele>
        <time>2023-09-30T07:59:53.000Z</time>
      </trkpt>
      <trkpt lat="41.34498" lon="20.43259">
        <ele>1026.8299560547</ele>
        <time>2023-09-30T07:59:52.000Z</time>
      </trkpt>
      <trkpt lat="41.34491" lon="20.4325">
        <ele>1028.2700195312</ele>
        <time>2023-09-30T07:59:51.000Z</time>
      </trkpt>
      <trkpt lat="41.34486" lon="20.4324">
        <ele>1029.2299804688</ele>
        <time>2023-09-30T07:59:50.000Z</time>
      </trkpt>
      <trkpt lat="41.34482" lon="20.43231">
        <ele>1030.1899414062</ele>
        <time>2023-09-30T07:59:49.000Z</time>
      </trkpt>
      <trkpt lat="41.34473" lon="20.43208">
        <ele>1033.0699462891</ele>
        <time>2023-09-30T07:59:47.000Z</time>
      </trkpt>
      <trkpt lat="41.34467" lon="20.43193">
        <ele>1035</ele>
        <time>2023-09-30T07:59:46.000Z</time>
      </trkpt>
      <trkpt lat="41.3446" lon="20.43178">
        <ele>1036.4399414062</ele>
        <time>2023-09-30T07:59:45.000Z</time>
      </trkpt>
      <trkpt lat="41.34456" lon="20.43169">
        <ele>1037.8800048828</ele>
        <time>2023-09-30T07:59:44.000Z</time>
      </trkpt>
      <trkpt lat="41.34452" lon="20.4316">
        <ele>1038.8399658203</ele>
        <time>2023-09-30T07:59:43.000Z</time>
      </trkpt>
      <trkpt lat="41.34446" lon="20.43153">
        <ele>1039.8000488281</ele>
        <time>2023-09-30T07:59:42.000Z</time>
      </trkpt>
      <trkpt lat="41.34442" lon="20.43149">
        <ele>1040.7600097656</ele>
        <time>2023-09-30T07:59:41.000Z</time>
      </trkpt>
      <trkpt lat="41.34436" lon="20.43144">
        <ele>1041.7299804688</ele>
        <time>2023-09-30T07:59:40.000Z</time>
      </trkpt>
      <trkpt lat="41.34432" lon="20.4314">
        <ele>1042.6899414062</ele>
        <time>2023-09-30T07:59:39.000Z</time>
      </trkpt>
      <trkpt lat="41.34417" lon="20.4313">
        <ele>1045.0899658203</ele>
        <time>2023-09-30T07:59:38.000Z</time>
      </trkpt>
      <trkpt lat="41.34409" lon="20.43125">
        <ele>1046.0500488281</ele>
        <time>2023-09-30T07:59:37.000Z</time>
      </trkpt>
      <trkpt lat="41.34402" lon="20.43121">
        <ele>1047.0100097656</ele>
        <time>2023-09-30T07:59:36.000Z</time>
      </trkpt>
      <trkpt lat="41.34399" lon="20.4312">
        <ele>1047.9699707031</ele>
        <time>2023-09-30T07:59:35.000Z</time>
      </trkpt>
      <trkpt lat="41.34382" lon="20.43113">
        <ele>1050.3800048828</ele>
        <time>2023-09-30T07:59:34.000Z</time>
      </trkpt>
      <trkpt lat="41.34339" lon="20.43097">
        <ele>1056.6300048828</ele>
        <time>2023-09-30T07:59:30.000Z</time>
      </trkpt>
      <trkpt lat="41.34329" lon="20.43093">
        <ele>1058.0699462891</ele>
        <time>2023-09-30T07:59:29.000Z</time>
      </trkpt>
      <trkpt lat="41.34319" lon="20.43087">
        <ele>1059.5100097656</ele>
        <time>2023-09-30T07:59:28.000Z</time>
      </trkpt>
      <trkpt lat="41.3431" lon="20.43079">
        <ele>1060.9499511719</ele>
        <time>2023-09-30T07:59:27.000Z</time>
      </trkpt>
      <trkpt lat="41.34302" lon="20.4307">
        <ele>1062.3900146484</ele>
        <time>2023-09-30T07:59:26.000Z</time>
      </trkpt>
      <trkpt lat="41.34295" lon="20.4306">
        <ele>1063.3599853516</ele>
        <time>2023-09-30T07:59:25.000Z</time>
      </trkpt>
      <trkpt lat="41.3429" lon="20.43051">
        <ele>1064.3199462891</ele>
        <time>2023-09-30T07:59:24.000Z</time>
      </trkpt>
      <trkpt lat="41.34286" lon="20.43043">
        <ele>1065.2800292969</ele>
        <time>2023-09-30T07:59:23.000Z</time>
      </trkpt>
      <trkpt lat="41.34281" lon="20.43032">
        <ele>1066.2399902344</ele>
        <time>2023-09-30T07:59:22.000Z</time>
      </trkpt>
      <trkpt lat="41.34274" lon="20.4302">
        <ele>1067.6800537109</ele>
        <time>2023-09-30T07:59:21.000Z</time>
      </trkpt>
      <trkpt lat="41.34267" lon="20.43012">
        <ele>1068.6400146484</ele>
        <time>2023-09-30T07:59:20.000Z</time>
      </trkpt>
      <trkpt lat="41.3426" lon="20.43006">
        <ele>1069.5999755859</ele>
        <time>2023-09-30T07:59:19.000Z</time>
      </trkpt>
      <trkpt lat="41.34252" lon="20.43003">
        <ele>1070.5699462891</ele>
        <time>2023-09-30T07:59:18.000Z</time>
      </trkpt>
      <trkpt lat="41.34244" lon="20.43001">
        <ele>1071.5300292969</ele>
        <time>2023-09-30T07:59:17.000Z</time>
      </trkpt>
      <trkpt lat="41.34236" lon="20.43002">
        <ele>1072.0100097656</ele>
        <time>2023-09-30T07:59:16.000Z</time>
      </trkpt>
      <trkpt lat="41.34229" lon="20.43004">
        <ele>1072.9699707031</ele>
        <time>2023-09-30T07:59:15.000Z</time>
      </trkpt>
      <trkpt lat="41.3422" lon="20.43009">
        <ele>1073.4499511719</ele>
        <time>2023-09-30T07:59:14.000Z</time>
      </trkpt>
      <trkpt lat="41.34211" lon="20.43016">
        <ele>1074.4100341797</ele>
        <time>2023-09-30T07:59:13.000Z</time>
      </trkpt>
      <trkpt lat="41.34202" lon="20.43025">
        <ele>1075.3699951172</ele>
        <time>2023-09-30T07:59:12.000Z</time>
      </trkpt>
      <trkpt lat="41.34192" lon="20.43038">
        <ele>1076.8100585938</ele>
        <time>2023-09-30T07:59:11.000Z</time>
      </trkpt>
      <trkpt lat="41.34182" lon="20.4305">
        <ele>1077.2900390625</ele>
        <time>2023-09-30T07:59:10.000Z</time>
      </trkpt>
      <trkpt lat="41.34174" lon="20.43058">
        <ele>1078.2600097656</ele>
        <time>2023-09-30T07:59:09.000Z</time>
      </trkpt>
      <trkpt lat="41.34161" lon="20.4307">
        <ele>1079.2199707031</ele>
        <time>2023-09-30T07:59:08.000Z</time>
      </trkpt>
      <trkpt lat="41.34154" lon="20.43075">
        <ele>1080.1800537109</ele>
        <time>2023-09-30T07:59:07.000Z</time>
      </trkpt>
      <trkpt lat="41.34137" lon="20.43086">
        <ele>1081.6199951172</ele>
        <time>2023-09-30T07:59:06.000Z</time>
      </trkpt>
      <trkpt lat="41.34121" lon="20.43093">
        <ele>1082.5799560547</ele>
        <time>2023-09-30T07:59:05.000Z</time>
      </trkpt>
      <trkpt lat="41.34107" lon="20.43098">
        <ele>1084.0200195312</ele>
        <time>2023-09-30T07:59:04.000Z</time>
      </trkpt>
      <trkpt lat="41.34094" lon="20.43099">
        <ele>1084.9899902344</ele>
        <time>2023-09-30T07:59:03.000Z</time>
      </trkpt>
      <trkpt lat="41.34072" lon="20.431">
        <ele>1087.3900146484</ele>
        <time>2023-09-30T07:59:01.000Z</time>
      </trkpt>
      <trkpt lat="41.34057" lon="20.43099">
        <ele>1088.8299560547</ele>
        <time>2023-09-30T07:59:00.000Z</time>
      </trkpt>
      <trkpt lat="41.34045" lon="20.43096">
        <ele>1090.2700195312</ele>
        <time>2023-09-30T07:58:59.000Z</time>
      </trkpt>
      <trkpt lat="41.34037" lon="20.43092">
        <ele>1091.2299804688</ele>
        <time>2023-09-30T07:58:58.000Z</time>
      </trkpt>
      <trkpt lat="41.34023" lon="20.43085">
        <ele>1093.1600341797</ele>
        <time>2023-09-30T07:58:57.000Z</time>
      </trkpt>
      <trkpt lat="41.34016" lon="20.4308">
        <ele>1094.1199951172</ele>
        <time>2023-09-30T07:58:56.000Z</time>
      </trkpt>
      <trkpt lat="41.34007" lon="20.43072">
        <ele>1095.0799560547</ele>
        <time>2023-09-30T07:58:55.000Z</time>
      </trkpt>
      <trkpt lat="41.33976" lon="20.43043">
        <ele>1099.4000244141</ele>
        <time>2023-09-30T07:58:53.000Z</time>
      </trkpt>
      <trkpt lat="41.33964" lon="20.43036">
        <ele>1100.8499755859</ele>
        <time>2023-09-30T07:58:52.000Z</time>
      </trkpt>
      <trkpt lat="41.33952" lon="20.43031">
        <ele>1101.8100585938</ele>
        <time>2023-09-30T07:58:51.000Z</time>
      </trkpt>
      <trkpt lat="41.3394" lon="20.43029">
        <ele>1102.7700195312</ele>
        <time>2023-09-30T07:58:50.000Z</time>
      </trkpt>
      <trkpt lat="41.3393" lon="20.43029">
        <ele>1103.7299804688</ele>
        <time>2023-09-30T07:58:49.000Z</time>
      </trkpt>
      <trkpt lat="41.33869" lon="20.43031">
        <ele>1107.5799560547</ele>
        <time>2023-09-30T07:58:45.000Z</time>
      </trkpt>
      <trkpt lat="41.33857" lon="20.4303">
        <ele>1108.5400390625</ele>
        <time>2023-09-30T07:58:44.000Z</time>
      </trkpt>
      <trkpt lat="41.33848" lon="20.43026">
        <ele>1108.5400390625</ele>
        <time>2023-09-30T07:58:43.000Z</time>
      </trkpt>
      <trkpt lat="41.33836" lon="20.43019">
        <ele>1109.5</ele>
        <time>2023-09-30T07:58:42.000Z</time>
      </trkpt>
      <trkpt lat="41.33822" lon="20.43009">
        <ele>1110.4599609375</ele>
        <time>2023-09-30T07:58:41.000Z</time>
      </trkpt>
      <trkpt lat="41.33808" lon="20.43">
        <ele>1110.9399414062</ele>
        <time>2023-09-30T07:58:40.000Z</time>
      </trkpt>
      <trkpt lat="41.33796" lon="20.42994">
        <ele>1111.4200439453</ele>
        <time>2023-09-30T07:58:39.000Z</time>
      </trkpt>
      <trkpt lat="41.33784" lon="20.42989">
        <ele>1111.4200439453</ele>
        <time>2023-09-30T07:58:38.000Z</time>
      </trkpt>
      <trkpt lat="41.33781" lon="20.42988">
        <ele>1111.9000244141</ele>
        <time>2023-09-30T07:58:37.000Z</time>
      </trkpt>
      <trkpt lat="41.33756" lon="20.42984">
        <ele>1111.9000244141</ele>
        <time>2023-09-30T07:58:36.000Z</time>
      </trkpt>
      <trkpt lat="41.33745" lon="20.42984">
        <ele>1111.9000244141</ele>
        <time>2023-09-30T07:58:35.000Z</time>
      </trkpt>
      <trkpt lat="41.33726" lon="20.42985">
        <ele>1111.9000244141</ele>
        <time>2023-09-30T07:58:34.000Z</time>
      </trkpt>
      <trkpt lat="41.33718" lon="20.42984">
        <ele>1111.9000244141</ele>
        <time>2023-09-30T07:58:33.000Z</time>
      </trkpt>
      <trkpt lat="41.33697" lon="20.42983">
        <ele>1110.9399414062</ele>
        <time>2023-09-30T07:58:32.000Z</time>
      </trkpt>
      <trkpt lat="41.33684" lon="20.42979">
        <ele>1110.4599609375</ele>
        <time>2023-09-30T07:58:31.000Z</time>
      </trkpt>
      <trkpt lat="41.33673" lon="20.42974">
        <ele>1110.4599609375</ele>
        <time>2023-09-30T07:58:30.000Z</time>
      </trkpt>
      <trkpt lat="41.33659" lon="20.42965">
        <ele>1110.4599609375</ele>
        <time>2023-09-30T07:58:29.000Z</time>
      </trkpt>
      <trkpt lat="41.33651" lon="20.42958">
        <ele>1110.9399414062</ele>
        <time>2023-09-30T07:58:28.000Z</time>
      </trkpt>
      <trkpt lat="41.33624" lon="20.42932">
        <ele>1113.3399658203</ele>
        <time>2023-09-30T07:58:26.000Z</time>
      </trkpt>
      <trkpt lat="41.33607" lon="20.42918">
        <ele>1114.7900390625</ele>
        <time>2023-09-30T07:58:25.000Z</time>
      </trkpt>
      <trkpt lat="41.33593" lon="20.42908">
        <ele>1115.75</ele>
        <time>2023-09-30T07:58:24.000Z</time>
      </trkpt>
      <trkpt lat="41.33503" lon="20.42859">
        <ele>1117.6700439453</ele>
        <time>2023-09-30T07:58:18.000Z</time>
      </trkpt>
      <trkpt lat="41.33491" lon="20.42855">
        <ele>1117.6700439453</ele>
        <time>2023-09-30T07:58:17.000Z</time>
      </trkpt>
      <trkpt lat="41.33476" lon="20.42851">
        <ele>1118.1500244141</ele>
        <time>2023-09-30T07:58:16.000Z</time>
      </trkpt>
      <trkpt lat="41.33466" lon="20.4285">
        <ele>1118.1500244141</ele>
        <time>2023-09-30T07:58:15.000Z</time>
      </trkpt>
      <trkpt lat="41.3345" lon="20.42851">
        <ele>1118.1500244141</ele>
        <time>2023-09-30T07:58:14.000Z</time>
      </trkpt>
      <trkpt lat="41.33426" lon="20.4285">
        <ele>1117.6700439453</ele>
        <time>2023-09-30T07:58:12.000Z</time>
      </trkpt>
      <trkpt lat="41.33371" lon="20.42845">
        <ele>1119.5899658203</ele>
        <time>2023-09-30T07:58:09.000Z</time>
      </trkpt>
      <trkpt lat="41.3334" lon="20.42843">
        <ele>1120.5500488281</ele>
        <time>2023-09-30T07:58:07.000Z</time>
      </trkpt>
      <trkpt lat="41.33327" lon="20.4284">
        <ele>1121.5200195312</ele>
        <time>2023-09-30T07:58:06.000Z</time>
      </trkpt>
      <trkpt lat="41.33314" lon="20.42836">
        <ele>1122</ele>
        <time>2023-09-30T07:58:05.000Z</time>
      </trkpt>
      <trkpt lat="41.33302" lon="20.42829">
        <ele>1122.9599609375</ele>
        <time>2023-09-30T07:58:04.000Z</time>
      </trkpt>
      <trkpt lat="41.33297" lon="20.42825">
        <ele>1122.9599609375</ele>
        <time>2023-09-30T07:58:03.000Z</time>
      </trkpt>
      <trkpt lat="41.33285" lon="20.42816">
        <ele>1123.9200439453</ele>
        <time>2023-09-30T07:58:02.000Z</time>
      </trkpt>
      <trkpt lat="41.33264" lon="20.42799">
        <ele>1124.8800048828</ele>
        <time>2023-09-30T07:58:01.000Z</time>
      </trkpt>
      <trkpt lat="41.33253" lon="20.42791">
        <ele>1125.3599853516</ele>
        <time>2023-09-30T07:58:00.000Z</time>
      </trkpt>
      <trkpt lat="41.33222" lon="20.42772">
        <ele>1127.2800292969</ele>
        <time>2023-09-30T07:57:58.000Z</time>
      </trkpt>
      <trkpt lat="41.33209" lon="20.42767">
        <ele>1127.2800292969</ele>
        <time>2023-09-30T07:57:57.000Z</time>
      </trkpt>
      <trkpt lat="41.33185" lon="20.42759">
        <ele>1128.2399902344</ele>
        <time>2023-09-30T07:57:55.000Z</time>
      </trkpt>
      <trkpt lat="41.33173" lon="20.42754">
        <ele>1128.7299804688</ele>
        <time>2023-09-30T07:57:54.000Z</time>
      </trkpt>
      <trkpt lat="41.33164" lon="20.42746">
        <ele>1129.2099609375</ele>
        <time>2023-09-30T07:57:53.000Z</time>
      </trkpt>
      <trkpt lat="41.33156" lon="20.42736">
        <ele>1129.6899414062</ele>
        <time>2023-09-30T07:57:52.000Z</time>
      </trkpt>
      <trkpt lat="41.33148" lon="20.42724">
        <ele>1130.1700439453</ele>
        <time>2023-09-30T07:57:51.000Z</time>
      </trkpt>
      <trkpt lat="41.33144" lon="20.42717">
        <ele>1130.6500244141</ele>
        <time>2023-09-30T07:57:50.000Z</time>
      </trkpt>
      <trkpt lat="41.33135" lon="20.42697">
        <ele>1132.5699462891</ele>
        <time>2023-09-30T07:57:49.000Z</time>
      </trkpt>
      <trkpt lat="41.3313" lon="20.42686">
        <ele>1133.0500488281</ele>
        <time>2023-09-30T07:57:48.000Z</time>
      </trkpt>
      <trkpt lat="41.33123" lon="20.42678">
        <ele>1133.0500488281</ele>
        <time>2023-09-30T07:57:47.000Z</time>
      </trkpt>
      <trkpt lat="41.33116" lon="20.42671">
        <ele>1133.5300292969</ele>
        <time>2023-09-30T07:57:46.000Z</time>
      </trkpt>
      <trkpt lat="41.33107" lon="20.42666">
        <ele>1134.0100097656</ele>
        <time>2023-09-30T07:57:45.000Z</time>
      </trkpt>
      <trkpt lat="41.33096" lon="20.42663">
        <ele>1134.4899902344</ele>
        <time>2023-09-30T07:57:44.000Z</time>
      </trkpt>
      <trkpt lat="41.33084" lon="20.42661">
        <ele>1134.4899902344</ele>
        <time>2023-09-30T07:57:43.000Z</time>
      </trkpt>
      <trkpt lat="41.33061" lon="20.42662">
        <ele>1134.9699707031</ele>
        <time>2023-09-30T07:57:41.000Z</time>
      </trkpt>
      <trkpt lat="41.33049" lon="20.42664">
        <ele>1135.4499511719</ele>
        <time>2023-09-30T07:57:40.000Z</time>
      </trkpt>
      <trkpt lat="41.33036" lon="20.42667">
        <ele>1134.9699707031</ele>
        <time>2023-09-30T07:57:39.000Z</time>
      </trkpt>
      <trkpt lat="41.33024" lon="20.42669">
        <ele>1135.4499511719</ele>
        <time>2023-09-30T07:57:38.000Z</time>
      </trkpt>
      <trkpt lat="41.33013" lon="20.42669">
        <ele>1135.4499511719</ele>
        <time>2023-09-30T07:57:37.000Z</time>
      </trkpt>
      <trkpt lat="41.33003" lon="20.42668">
        <ele>1135.4499511719</ele>
        <time>2023-09-30T07:57:36.000Z</time>
      </trkpt>
      <trkpt lat="41.32991" lon="20.42665">
        <ele>1135.9399414062</ele>
        <time>2023-09-30T07:57:35.000Z</time>
      </trkpt>
      <trkpt lat="41.32988" lon="20.42664">
        <ele>1135.9399414062</ele>
        <time>2023-09-30T07:57:34.000Z</time>
      </trkpt>
      <trkpt lat="41.32952" lon="20.42651">
        <ele>1135.9399414062</ele>
        <time>2023-09-30T07:57:32.000Z</time>
      </trkpt>
      <trkpt lat="41.32943" lon="20.42646">
        <ele>1135.9399414062</ele>
        <time>2023-09-30T07:57:31.000Z</time>
      </trkpt>
      <trkpt lat="41.32933" lon="20.42639">
        <ele>1135.4499511719</ele>
        <time>2023-09-30T07:57:30.000Z</time>
      </trkpt>
      <trkpt lat="41.32926" lon="20.42631">
        <ele>1135.4499511719</ele>
        <time>2023-09-30T07:57:29.000Z</time>
      </trkpt>
      <trkpt lat="41.32922" lon="20.42622">
        <ele>1135.4499511719</ele>
        <time>2023-09-30T07:57:28.000Z</time>
      </trkpt>
      <trkpt lat="41.32919" lon="20.4261">
        <ele>1135.9399414062</ele>
        <time>2023-09-30T07:57:27.000Z</time>
      </trkpt>
      <trkpt lat="41.32918" lon="20.42596">
        <ele>1136.4200439453</ele>
        <time>2023-09-30T07:57:26.000Z</time>
      </trkpt>
      <trkpt lat="41.32918" lon="20.42594">
        <ele>1136.4200439453</ele>
        <time>2023-09-30T07:57:25.000Z</time>
      </trkpt>
      <trkpt lat="41.3292" lon="20.42571">
        <ele>1136.9000244141</ele>
        <time>2023-09-30T07:57:24.000Z</time>
      </trkpt>
      <trkpt lat="41.3292" lon="20.42561">
        <ele>1136.9000244141</ele>
        <time>2023-09-30T07:57:23.000Z</time>
      </trkpt>
      <trkpt lat="41.32918" lon="20.42553">
        <ele>1136.9000244141</ele>
        <time>2023-09-30T07:57:22.000Z</time>
      </trkpt>
      <trkpt lat="41.32915" lon="20.42546">
        <ele>1136.4200439453</ele>
        <time>2023-09-30T07:57:21.000Z</time>
      </trkpt>
      <trkpt lat="41.3291" lon="20.42539">
        <ele>1135.9399414062</ele>
        <time>2023-09-30T07:57:20.000Z</time>
      </trkpt>
      <trkpt lat="41.32902" lon="20.42534">
        <ele>1136.4200439453</ele>
        <time>2023-09-30T07:57:19.000Z</time>
      </trkpt>
      <trkpt lat="41.32893" lon="20.42531">
        <ele>1136.4200439453</ele>
        <time>2023-09-30T07:57:18.000Z</time>
      </trkpt>
      <trkpt lat="41.3289" lon="20.4253">
        <ele>1136.4200439453</ele>
        <time>2023-09-30T07:57:17.000Z</time>
      </trkpt>
      <trkpt lat="41.32869" lon="20.42527">
        <ele>1135.4499511719</ele>
        <time>2023-09-30T07:57:16.000Z</time>
      </trkpt>
      <trkpt lat="41.32862" lon="20.42526">
        <ele>1135.9399414062</ele>
        <time>2023-09-30T07:57:15.000Z</time>
      </trkpt>
      <trkpt lat="41.32848" lon="20.42525">
        <ele>1136.4200439453</ele>
        <time>2023-09-30T07:57:14.000Z</time>
      </trkpt>
      <trkpt lat="41.32834" lon="20.42526">
        <ele>1136.9000244141</ele>
        <time>2023-09-30T07:57:13.000Z</time>
      </trkpt>
      <trkpt lat="41.32825" lon="20.42525">
        <ele>1137.3800048828</ele>
        <time>2023-09-30T07:57:12.000Z</time>
      </trkpt>
      <trkpt lat="41.32817" lon="20.42523">
        <ele>1137.8599853516</ele>
        <time>2023-09-30T07:57:11.000Z</time>
      </trkpt>
      <trkpt lat="41.32811" lon="20.42519">
        <ele>1138.8199462891</ele>
        <time>2023-09-30T07:57:10.000Z</time>
      </trkpt>
      <trkpt lat="41.32803" lon="20.42511">
        <ele>1140.2600097656</ele>
        <time>2023-09-30T07:57:09.000Z</time>
      </trkpt>
      <trkpt lat="41.32802" lon="20.42509">
        <ele>1140.2600097656</ele>
        <time>2023-09-30T07:57:08.000Z</time>
      </trkpt>
      <trkpt lat="41.32791" lon="20.42492">
        <ele>1141.6999511719</ele>
        <time>2023-09-30T07:57:07.000Z</time>
      </trkpt>
      <trkpt lat="41.32783" lon="20.42482">
        <ele>1142.6600341797</ele>
        <time>2023-09-30T07:57:06.000Z</time>
      </trkpt>
      <trkpt lat="41.32774" lon="20.4247">
        <ele>1144.5899658203</ele>
        <time>2023-09-30T07:57:05.000Z</time>
      </trkpt>
      <trkpt lat="41.32766" lon="20.42461">
        <ele>1145.5500488281</ele>
        <time>2023-09-30T07:57:04.000Z</time>
      </trkpt>
      <trkpt lat="41.32754" lon="20.42448">
        <ele>1146.9899902344</ele>
        <time>2023-09-30T07:57:03.000Z</time>
      </trkpt>
      <trkpt lat="41.32741" lon="20.42436">
        <ele>1148.4300537109</ele>
        <time>2023-09-30T07:57:02.000Z</time>
      </trkpt>
      <trkpt lat="41.32731" lon="20.42426">
        <ele>1149.3900146484</ele>
        <time>2023-09-30T07:57:01.000Z</time>
      </trkpt>
      <trkpt lat="41.32721" lon="20.42414">
        <ele>1150.8399658203</ele>
        <time>2023-09-30T07:57:00.000Z</time>
      </trkpt>
      <trkpt lat="41.32715" lon="20.42403">
        <ele>1151.8000488281</ele>
        <time>2023-09-30T07:56:59.000Z</time>
      </trkpt>
      <trkpt lat="41.32711" lon="20.42391">
        <ele>1152.2800292969</ele>
        <time>2023-09-30T07:56:58.000Z</time>
      </trkpt>
      <trkpt lat="41.32709" lon="20.42382">
        <ele>1152.7600097656</ele>
        <time>2023-09-30T07:56:57.000Z</time>
      </trkpt>
      <trkpt lat="41.32705" lon="20.42345">
        <ele>1154.1999511719</ele>
        <time>2023-09-30T07:56:55.000Z</time>
      </trkpt>
      <trkpt lat="41.32701" lon="20.42329">
        <ele>1155.1600341797</ele>
        <time>2023-09-30T07:56:54.000Z</time>
      </trkpt>
      <trkpt lat="41.32696" lon="20.42316">
        <ele>1155.6400146484</ele>
        <time>2023-09-30T07:56:53.000Z</time>
      </trkpt>
      <trkpt lat="41.32695" lon="20.42311">
        <ele>1155.6400146484</ele>
        <time>2023-09-30T07:56:52.000Z</time>
      </trkpt>
      <trkpt lat="41.32683" lon="20.42285">
        <ele>1157.0799560547</ele>
        <time>2023-09-30T07:56:51.000Z</time>
      </trkpt>
      <trkpt lat="41.3268" lon="20.42271">
        <ele>1158.0500488281</ele>
        <time>2023-09-30T07:56:50.000Z</time>
      </trkpt>
      <trkpt lat="41.32679" lon="20.42257">
        <ele>1159.0100097656</ele>
        <time>2023-09-30T07:56:49.000Z</time>
      </trkpt>
      <trkpt lat="41.32679" lon="20.42241">
        <ele>1159.9699707031</ele>
        <time>2023-09-30T07:56:48.000Z</time>
      </trkpt>
      <trkpt lat="41.32681" lon="20.42223">
        <ele>1160.9300537109</ele>
        <time>2023-09-30T07:56:46.000Z</time>
      </trkpt>
      <trkpt lat="41.32683" lon="20.42205">
        <ele>1162.3699951172</ele>
        <time>2023-09-30T07:56:45.000Z</time>
      </trkpt>
      <trkpt lat="41.32684" lon="20.42188">
        <ele>1163.3299560547</ele>
        <time>2023-09-30T07:56:44.000Z</time>
      </trkpt>
      <trkpt lat="41.32685" lon="20.42084">
        <ele>1170.0600585938</ele>
        <time>2023-09-30T07:56:39.000Z</time>
      </trkpt>
      <trkpt lat="41.32683" lon="20.42059">
        <ele>1171.0200195312</ele>
        <time>2023-09-30T07:56:38.000Z</time>
      </trkpt>
      <trkpt lat="41.32679" lon="20.42043">
        <ele>1171.5</ele>
        <time>2023-09-30T07:56:37.000Z</time>
      </trkpt>
      <trkpt lat="41.32679" lon="20.4204">
        <ele>1171.5</ele>
        <time>2023-09-30T07:56:36.000Z</time>
      </trkpt>
      <trkpt lat="41.32672" lon="20.42016">
        <ele>1172.4699707031</ele>
        <time>2023-09-30T07:56:35.000Z</time>
      </trkpt>
      <trkpt lat="41.32666" lon="20.41996">
        <ele>1172.4699707031</ele>
        <time>2023-09-30T07:56:34.000Z</time>
      </trkpt>
      <trkpt lat="41.3266" lon="20.4198">
        <ele>1172.9499511719</ele>
        <time>2023-09-30T07:56:33.000Z</time>
      </trkpt>
      <trkpt lat="41.32655" lon="20.41969">
        <ele>1172.9499511719</ele>
        <time>2023-09-30T07:56:32.000Z</time>
      </trkpt>
      <trkpt lat="41.3265" lon="20.4196">
        <ele>1173.4300537109</ele>
        <time>2023-09-30T07:56:31.000Z</time>
      </trkpt>
      <trkpt lat="41.32644" lon="20.41952">
        <ele>1173.4300537109</ele>
        <time>2023-09-30T07:56:30.000Z</time>
      </trkpt>
      <trkpt lat="41.32637" lon="20.41944">
        <ele>1173.4300537109</ele>
        <time>2023-09-30T07:56:29.000Z</time>
      </trkpt>
      <trkpt lat="41.3263" lon="20.41938">
        <ele>1173.9100341797</ele>
        <time>2023-09-30T07:56:28.000Z</time>
      </trkpt>
      <trkpt lat="41.32621" lon="20.41931">
        <ele>1173.9100341797</ele>
        <time>2023-09-30T07:56:27.000Z</time>
      </trkpt>
      <trkpt lat="41.32614" lon="20.41923">
        <ele>1174.3900146484</ele>
        <time>2023-09-30T07:56:26.000Z</time>
      </trkpt>
      <trkpt lat="41.32609" lon="20.41914">
        <ele>1174.8699951172</ele>
        <time>2023-09-30T07:56:25.000Z</time>
      </trkpt>
      <trkpt lat="41.32604" lon="20.41905">
        <ele>1175.3499755859</ele>
        <time>2023-09-30T07:56:24.000Z</time>
      </trkpt>
      <trkpt lat="41.32598" lon="20.41889">
        <ele>1176.7900390625</ele>
        <time>2023-09-30T07:56:23.000Z</time>
      </trkpt>
      <trkpt lat="41.32598" lon="20.41887">
        <ele>1176.7900390625</ele>
        <time>2023-09-30T07:56:22.000Z</time>
      </trkpt>
      <trkpt lat="41.32587" lon="20.41851">
        <ele>1179.6700439453</ele>
        <time>2023-09-30T07:56:19.000Z</time>
      </trkpt>
      <trkpt lat="41.32582" lon="20.41827">
        <ele>1181.1199951172</ele>
        <time>2023-09-30T07:56:17.000Z</time>
      </trkpt>
      <trkpt lat="41.32579" lon="20.41807">
        <ele>1182.0799560547</ele>
        <time>2023-09-30T07:56:15.000Z</time>
      </trkpt>
      <trkpt lat="41.32576" lon="20.41791">
        <ele>1182.0799560547</ele>
        <time>2023-09-30T07:56:14.000Z</time>
      </trkpt>
      <trkpt lat="41.32565" lon="20.41755">
        <ele>1182.0799560547</ele>
        <time>2023-09-30T07:56:11.000Z</time>
      </trkpt>
      <trkpt lat="41.32558" lon="20.41736">
        <ele>1182.0799560547</ele>
        <time>2023-09-30T07:56:10.000Z</time>
      </trkpt>
      <trkpt lat="41.32521" lon="20.41659">
        <ele>1181.1199951172</ele>
        <time>2023-09-30T07:56:05.000Z</time>
      </trkpt>
      <trkpt lat="41.32481" lon="20.41576">
        <ele>1181.5999755859</ele>
        <time>2023-09-30T07:56:00.000Z</time>
      </trkpt>
      <trkpt lat="41.3247" lon="20.41551">
        <ele>1181.5999755859</ele>
        <time>2023-09-30T07:55:59.000Z</time>
      </trkpt>
      <trkpt lat="41.32465" lon="20.41539">
        <ele>1181.5999755859</ele>
        <time>2023-09-30T07:55:58.000Z</time>
      </trkpt>
      <trkpt lat="41.3245" lon="20.41499">
        <ele>1182.0799560547</ele>
        <time>2023-09-30T07:55:56.000Z</time>
      </trkpt>
      <trkpt lat="41.32447" lon="20.41488">
        <ele>1182.0799560547</ele>
        <time>2023-09-30T07:55:55.000Z</time>
      </trkpt>
      <trkpt lat="41.32442" lon="20.41468">
        <ele>1182.0799560547</ele>
        <time>2023-09-30T07:55:54.000Z</time>
      </trkpt>
      <trkpt lat="41.32434" lon="20.41433">
        <ele>1181.5999755859</ele>
        <time>2023-09-30T07:55:52.000Z</time>
      </trkpt>
      <trkpt lat="41.32421" lon="20.41388">
        <ele>1180.6400146484</ele>
        <time>2023-09-30T07:55:50.000Z</time>
      </trkpt>
      <trkpt lat="41.32419" lon="20.41384">
        <ele>1180.6400146484</ele>
        <time>2023-09-30T07:55:49.000Z</time>
      </trkpt>
      <trkpt lat="41.32414" lon="20.41365">
        <ele>1180.6400146484</ele>
        <time>2023-09-30T07:55:48.000Z</time>
      </trkpt>
      <trkpt lat="41.32405" lon="20.41333">
        <ele>1180.1600341797</ele>
        <time>2023-09-30T07:55:47.000Z</time>
      </trkpt>
      <trkpt lat="41.32363" lon="20.41182">
        <ele>1175.3499755859</ele>
        <time>2023-09-30T07:55:39.000Z</time>
      </trkpt>
      <trkpt lat="41.32349" lon="20.41143">
        <ele>1173.9100341797</ele>
        <time>2023-09-30T07:55:37.000Z</time>
      </trkpt>
      <trkpt lat="41.32344" lon="20.41127">
        <ele>1172.9499511719</ele>
        <time>2023-09-30T07:55:36.000Z</time>
      </trkpt>
      <trkpt lat="41.32338" lon="20.41106">
        <ele>1172.4699707031</ele>
        <time>2023-09-30T07:55:35.000Z</time>
      </trkpt>
      <trkpt lat="41.32335" lon="20.41088">
        <ele>1171.9799804688</ele>
        <time>2023-09-30T07:55:34.000Z</time>
      </trkpt>
      <trkpt lat="41.32333" lon="20.41077">
        <ele>1171.5</ele>
        <time>2023-09-30T07:55:33.000Z</time>
      </trkpt>
      <trkpt lat="41.32332" lon="20.41068">
        <ele>1171.5</ele>
        <time>2023-09-30T07:55:32.000Z</time>
      </trkpt>
      <trkpt lat="41.3233" lon="20.41043">
        <ele>1170.5400390625</ele>
        <time>2023-09-30T07:55:31.000Z</time>
      </trkpt>
      <trkpt lat="41.32324" lon="20.40958">
        <ele>1168.6199951172</ele>
        <time>2023-09-30T07:55:26.000Z</time>
      </trkpt>
      <trkpt lat="41.32322" lon="20.40939">
        <ele>1168.1400146484</ele>
        <time>2023-09-30T07:55:24.000Z</time>
      </trkpt>
      <trkpt lat="41.32319" lon="20.40918">
        <ele>1167.1800537109</ele>
        <time>2023-09-30T07:55:22.000Z</time>
      </trkpt>
      <trkpt lat="41.32317" lon="20.40909">
        <ele>1166.6999511719</ele>
        <time>2023-09-30T07:55:21.000Z</time>
      </trkpt>
      <trkpt lat="41.32315" lon="20.40902">
        <ele>1166.2199707031</ele>
        <time>2023-09-30T07:55:20.000Z</time>
      </trkpt>
      <trkpt lat="41.32314" lon="20.40898">
        <ele>1165.7399902344</ele>
        <time>2023-09-30T07:55:19.000Z</time>
      </trkpt>
      <trkpt lat="41.32313" lon="20.40896">
        <ele>1165.7399902344</ele>
        <time>2023-09-30T07:55:18.000Z</time>
      </trkpt>
      <trkpt lat="41.32309" lon="20.40885">
        <ele>1164.7700195312</ele>
        <time>2023-09-30T07:55:15.000Z</time>
      </trkpt>
      <trkpt lat="41.32298" lon="20.40857">
        <ele>1161.8900146484</ele>
        <time>2023-09-30T07:55:07.000Z</time>
      </trkpt>
      <trkpt lat="41.32286" lon="20.4083">
        <ele>1159.9699707031</ele>
        <time>2023-09-30T07:54:59.000Z</time>
      </trkpt>
      <trkpt lat="41.32286" lon="20.40826">
        <ele>1158.0500488281</ele>
        <time>2023-09-30T07:54:45.000Z</time>
      </trkpt>
      <trkpt lat="41.32281" lon="20.40815">
        <ele>1158.5300292969</ele>
        <time>2023-09-30T07:54:28.000Z</time>
      </trkpt>
      <trkpt lat="41.3227" lon="20.40798">
        <ele>1157.0799560547</ele>
        <time>2023-09-30T07:54:21.000Z</time>
      </trkpt>
      <trkpt lat="41.32268" lon="20.40793">
        <ele>1156.5999755859</ele>
        <time>2023-09-30T07:54:20.000Z</time>
      </trkpt>
      <trkpt lat="41.32265" lon="20.40788">
        <ele>1156.5999755859</ele>
        <time>2023-09-30T07:54:19.000Z</time>
      </trkpt>
      <trkpt lat="41.32262" lon="20.40784">
        <ele>1155.6400146484</ele>
        <time>2023-09-30T07:54:18.000Z</time>
      </trkpt>
      <trkpt lat="41.32259" lon="20.40779">
        <ele>1155.1600341797</ele>
        <time>2023-09-30T07:54:17.000Z</time>
      </trkpt>
      <trkpt lat="41.32251" lon="20.40765">
        <ele>1154.1999511719</ele>
        <time>2023-09-30T07:54:15.000Z</time>
      </trkpt>
      <trkpt lat="41.32247" lon="20.40757">
        <ele>1153.7199707031</ele>
        <time>2023-09-30T07:54:14.000Z</time>
      </trkpt>
      <trkpt lat="41.32243" lon="20.40747">
        <ele>1152.7600097656</ele>
        <time>2023-09-30T07:54:13.000Z</time>
      </trkpt>
      <trkpt lat="41.32228" lon="20.40711">
        <ele>1149.8699951172</ele>
        <time>2023-09-30T07:54:10.000Z</time>
      </trkpt>
      <trkpt lat="41.32223" lon="20.40698">
        <ele>1148.9100341797</ele>
        <time>2023-09-30T07:54:09.000Z</time>
      </trkpt>
      <trkpt lat="41.32218" lon="20.40679">
        <ele>1147.4699707031</ele>
        <time>2023-09-30T07:54:08.000Z</time>
      </trkpt>
      <trkpt lat="41.32215" lon="20.40666">
        <ele>1146.5100097656</ele>
        <time>2023-09-30T07:54:07.000Z</time>
      </trkpt>
      <trkpt lat="41.32212" lon="20.40642">
        <ele>1145.5500488281</ele>
        <time>2023-09-30T07:54:06.000Z</time>
      </trkpt>
      <trkpt lat="41.3221" lon="20.40625">
        <ele>1144.5899658203</ele>
        <time>2023-09-30T07:54:05.000Z</time>
      </trkpt>
      <trkpt lat="41.3221" lon="20.40614">
        <ele>1143.6300048828</ele>
        <time>2023-09-30T07:54:04.000Z</time>
      </trkpt>
      <trkpt lat="41.32211" lon="20.40591">
        <ele>1142.6600341797</ele>
        <time>2023-09-30T07:54:03.000Z</time>
      </trkpt>
      <trkpt lat="41.32212" lon="20.40576">
        <ele>1141.6999511719</ele>
        <time>2023-09-30T07:54:02.000Z</time>
      </trkpt>
      <trkpt lat="41.32213" lon="20.40569">
        <ele>1141.2199707031</ele>
        <time>2023-09-30T07:54:01.000Z</time>
      </trkpt>
      <trkpt lat="41.32218" lon="20.4054">
        <ele>1140.2600097656</ele>
        <time>2023-09-30T07:54:00.000Z</time>
      </trkpt>
      <trkpt lat="41.3222" lon="20.40526">
        <ele>1139.3000488281</ele>
        <time>2023-09-30T07:53:59.000Z</time>
      </trkpt>
      <trkpt lat="41.32225" lon="20.40494">
        <ele>1138.3399658203</ele>
        <time>2023-09-30T07:53:57.000Z</time>
      </trkpt>
      <trkpt lat="41.32231" lon="20.40433">
        <ele>1136.4200439453</ele>
        <time>2023-09-30T07:53:54.000Z</time>
      </trkpt>
      <trkpt lat="41.32241" lon="20.40294">
        <ele>1132.5699462891</ele>
        <time>2023-09-30T07:53:46.000Z</time>
      </trkpt>
      <trkpt lat="41.32254" lon="20.40147">
        <ele>1130.6500244141</ele>
        <time>2023-09-30T07:53:37.000Z</time>
      </trkpt>
      <trkpt lat="41.32256" lon="20.40122">
        <ele>1130.6500244141</ele>
        <time>2023-09-30T07:53:35.000Z</time>
      </trkpt>
      <trkpt lat="41.32257" lon="20.40105">
        <ele>1130.6500244141</ele>
        <time>2023-09-30T07:53:34.000Z</time>
      </trkpt>
      <trkpt lat="41.32261" lon="20.4008">
        <ele>1130.6500244141</ele>
        <time>2023-09-30T07:53:32.000Z</time>
      </trkpt>
      <trkpt lat="41.32262" lon="20.40067">
        <ele>1130.1700439453</ele>
        <time>2023-09-30T07:53:31.000Z</time>
      </trkpt>
      <trkpt lat="41.32264" lon="20.40043">
        <ele>1130.1700439453</ele>
        <time>2023-09-30T07:53:29.000Z</time>
      </trkpt>
      <trkpt lat="41.32269" lon="20.39989">
        <ele>1130.1700439453</ele>
        <time>2023-09-30T07:53:25.000Z</time>
      </trkpt>
      <trkpt lat="41.32269" lon="20.39983">
        <ele>1129.6899414062</ele>
        <time>2023-09-30T07:53:24.000Z</time>
      </trkpt>
      <trkpt lat="41.3227" lon="20.39965">
        <ele>1129.6899414062</ele>
        <time>2023-09-30T07:53:22.000Z</time>
      </trkpt>
      <trkpt lat="41.32271" lon="20.39953">
        <ele>1129.6899414062</ele>
        <time>2023-09-30T07:53:21.000Z</time>
      </trkpt>
      <trkpt lat="41.32273" lon="20.39943">
        <ele>1129.6899414062</ele>
        <time>2023-09-30T07:53:20.000Z</time>
      </trkpt>
      <trkpt lat="41.32274" lon="20.39937">
        <ele>1129.6899414062</ele>
        <time>2023-09-30T07:53:19.000Z</time>
      </trkpt>
      <trkpt lat="41.32274" lon="20.3993">
        <ele>1129.6899414062</ele>
        <time>2023-09-30T07:53:18.000Z</time>
      </trkpt>
      <trkpt lat="41.32275" lon="20.39923">
        <ele>1129.2099609375</ele>
        <time>2023-09-30T07:53:17.000Z</time>
      </trkpt>
      <trkpt lat="41.32275" lon="20.3992">
        <ele>1129.2099609375</ele>
        <time>2023-09-30T07:53:16.000Z</time>
      </trkpt>
      <trkpt lat="41.32275" lon="20.39916">
        <ele>1129.2099609375</ele>
        <time>2023-09-30T07:53:15.000Z</time>
      </trkpt>
      <trkpt lat="41.32276" lon="20.39907">
        <ele>1129.2099609375</ele>
        <time>2023-09-30T07:53:14.000Z</time>
      </trkpt>
      <trkpt lat="41.32278" lon="20.39895">
        <ele>1129.2099609375</ele>
        <time>2023-09-30T07:53:13.000Z</time>
      </trkpt>
      <trkpt lat="41.32279" lon="20.39888">
        <ele>1129.2099609375</ele>
        <time>2023-09-30T07:53:12.000Z</time>
      </trkpt>
      <trkpt lat="41.32279" lon="20.39884">
        <ele>1129.2099609375</ele>
        <time>2023-09-30T07:53:11.000Z</time>
      </trkpt>
      <trkpt lat="41.32278" lon="20.39874">
        <ele>1129.2099609375</ele>
        <time>2023-09-30T07:53:10.000Z</time>
      </trkpt>
      <trkpt lat="41.32278" lon="20.39866">
        <ele>1129.2099609375</ele>
        <time>2023-09-30T07:53:09.000Z</time>
      </trkpt>
      <trkpt lat="41.32278" lon="20.39863">
        <ele>1129.2099609375</ele>
        <time>2023-09-30T07:53:08.000Z</time>
      </trkpt>
      <trkpt lat="41.32279" lon="20.39851">
        <ele>1129.2099609375</ele>
        <time>2023-09-30T07:53:07.000Z</time>
      </trkpt>
      <trkpt lat="41.3228" lon="20.39845">
        <ele>1129.2099609375</ele>
        <time>2023-09-30T07:53:06.000Z</time>
      </trkpt>
      <trkpt lat="41.3228" lon="20.39835">
        <ele>1129.2099609375</ele>
        <time>2023-09-30T07:53:05.000Z</time>
      </trkpt>
      <trkpt lat="41.3228" lon="20.39833">
        <ele>1129.2099609375</ele>
        <time>2023-09-30T07:53:04.000Z</time>
      </trkpt>
      <trkpt lat="41.3228" lon="20.39823">
        <ele>1129.2099609375</ele>
        <time>2023-09-30T07:53:03.000Z</time>
      </trkpt>
      <trkpt lat="41.3228" lon="20.39817">
        <ele>1129.2099609375</ele>
        <time>2023-09-30T07:53:02.000Z</time>
      </trkpt>
      <trkpt lat="41.3228" lon="20.3981">
        <ele>1129.2099609375</ele>
        <time>2023-09-30T07:53:01.000Z</time>
      </trkpt>
      <trkpt lat="41.32279" lon="20.39805">
        <ele>1129.2099609375</ele>
        <time>2023-09-30T07:53:00.000Z</time>
      </trkpt>
      <trkpt lat="41.32277" lon="20.39801">
        <ele>1129.2099609375</ele>
        <time>2023-09-30T07:52:59.000Z</time>
      </trkpt>
      <trkpt lat="41.32275" lon="20.39797">
        <ele>1129.2099609375</ele>
        <time>2023-09-30T07:52:58.000Z</time>
      </trkpt>
      <trkpt lat="41.32269" lon="20.39786">
        <ele>1128.7299804688</ele>
        <time>2023-09-30T07:50:43.000Z</time>
      </trkpt>
      <trkpt lat="41.32269" lon="20.39777">
        <ele>1129.2099609375</ele>
        <time>2023-09-30T07:50:37.000Z</time>
      </trkpt>
      <trkpt lat="41.3227" lon="20.39771">
        <ele>1129.2099609375</ele>
        <time>2023-09-30T07:50:36.000Z</time>
      </trkpt>
      <trkpt lat="41.3227" lon="20.39765">
        <ele>1129.2099609375</ele>
        <time>2023-09-30T07:50:35.000Z</time>
      </trkpt>
      <trkpt lat="41.32268" lon="20.39758">
        <ele>1129.6899414062</ele>
        <time>2023-09-30T07:50:34.000Z</time>
      </trkpt>
      <trkpt lat="41.32264" lon="20.3975">
        <ele>1129.2099609375</ele>
        <time>2023-09-30T07:50:33.000Z</time>
      </trkpt>
      <trkpt lat="41.3226" lon="20.39744">
        <ele>1129.2099609375</ele>
        <time>2023-09-30T07:50:32.000Z</time>
      </trkpt>
      <trkpt lat="41.32257" lon="20.39739">
        <ele>1129.2099609375</ele>
        <time>2023-09-30T07:50:31.000Z</time>
      </trkpt>
      <trkpt lat="41.3225" lon="20.3973">
        <ele>1129.2099609375</ele>
        <time>2023-09-30T07:50:30.000Z</time>
      </trkpt>
      <trkpt lat="41.32194" lon="20.39644">
        <ele>1129.6899414062</ele>
        <time>2023-09-30T07:50:21.000Z</time>
      </trkpt>
      <trkpt lat="41.32186" lon="20.39632">
        <ele>1129.2099609375</ele>
        <time>2023-09-30T07:50:20.000Z</time>
      </trkpt>
      <trkpt lat="41.32181" lon="20.39625">
        <ele>1129.2099609375</ele>
        <time>2023-09-30T07:50:19.000Z</time>
      </trkpt>
      <trkpt lat="41.3217" lon="20.39614">
        <ele>1129.6899414062</ele>
        <time>2023-09-30T07:50:18.000Z</time>
      </trkpt>
      <trkpt lat="41.32165" lon="20.39609">
        <ele>1129.6899414062</ele>
        <time>2023-09-30T07:50:17.000Z</time>
      </trkpt>
      <trkpt lat="41.32131" lon="20.39577">
        <ele>1130.6500244141</ele>
        <time>2023-09-30T07:50:14.000Z</time>
      </trkpt>
      <trkpt lat="41.32123" lon="20.3957">
        <ele>1130.6500244141</ele>
        <time>2023-09-30T07:50:13.000Z</time>
      </trkpt>
      <trkpt lat="41.32104" lon="20.39551">
        <ele>1130.6500244141</ele>
        <time>2023-09-30T07:50:11.000Z</time>
      </trkpt>
      <trkpt lat="41.32093" lon="20.39539">
        <ele>1130.1700439453</ele>
        <time>2023-09-30T07:50:09.000Z</time>
      </trkpt>
      <trkpt lat="41.32079" lon="20.39522">
        <ele>1130.1700439453</ele>
        <time>2023-09-30T07:50:08.000Z</time>
      </trkpt>
      <trkpt lat="41.32066" lon="20.39508">
        <ele>1130.6500244141</ele>
        <time>2023-09-30T07:50:06.000Z</time>
      </trkpt>
      <trkpt lat="41.32055" lon="20.39494">
        <ele>1130.1700439453</ele>
        <time>2023-09-30T07:50:05.000Z</time>
      </trkpt>
      <trkpt lat="41.32038" lon="20.39472">
        <ele>1130.1700439453</ele>
        <time>2023-09-30T07:50:04.000Z</time>
      </trkpt>
      <trkpt lat="41.32019" lon="20.39449">
        <ele>1129.6899414062</ele>
        <time>2023-09-30T07:50:02.000Z</time>
      </trkpt>
      <trkpt lat="41.31997" lon="20.39421">
        <ele>1130.1700439453</ele>
        <time>2023-09-30T07:50:00.000Z</time>
      </trkpt>
      <trkpt lat="41.31995" lon="20.39418">
        <ele>1130.1700439453</ele>
        <time>2023-09-30T07:49:59.000Z</time>
      </trkpt>
      <trkpt lat="41.31976" lon="20.39391">
        <ele>1129.6899414062</ele>
        <time>2023-09-30T07:49:57.000Z</time>
      </trkpt>
      <trkpt lat="41.31949" lon="20.39353">
        <ele>1129.6899414062</ele>
        <time>2023-09-30T07:49:55.000Z</time>
      </trkpt>
      <trkpt lat="41.31912" lon="20.39299">
        <ele>1128.2399902344</ele>
        <time>2023-09-30T07:49:51.000Z</time>
      </trkpt>
      <trkpt lat="41.31906" lon="20.39291">
        <ele>1128.2399902344</ele>
        <time>2023-09-30T07:49:50.000Z</time>
      </trkpt>
      <trkpt lat="41.31879" lon="20.39257">
        <ele>1128.2399902344</ele>
        <time>2023-09-30T07:49:48.000Z</time>
      </trkpt>
      <trkpt lat="41.31872" lon="20.3925">
        <ele>1128.2399902344</ele>
        <time>2023-09-30T07:49:47.000Z</time>
      </trkpt>
      <trkpt lat="41.31793" lon="20.39169">
        <ele>1127.2800292969</ele>
        <time>2023-09-30T07:49:41.000Z</time>
      </trkpt>
      <trkpt lat="41.31748" lon="20.39125">
        <ele>1126.3199462891</ele>
        <time>2023-09-30T07:49:37.000Z</time>
      </trkpt>
      <trkpt lat="41.31646" lon="20.39014">
        <ele>1123.9200439453</ele>
        <time>2023-09-30T07:49:28.000Z</time>
      </trkpt>
      <trkpt lat="41.31578" lon="20.38929">
        <ele>1122.4799804688</ele>
        <time>2023-09-30T07:49:22.000Z</time>
      </trkpt>
      <trkpt lat="41.31562" lon="20.38908">
        <ele>1122</ele>
        <time>2023-09-30T07:49:21.000Z</time>
      </trkpt>
      <trkpt lat="41.31432" lon="20.3875">
        <ele>1118.1500244141</ele>
        <time>2023-09-30T07:49:11.000Z</time>
      </trkpt>
      <trkpt lat="41.31314" lon="20.3863">
        <ele>1116.2299804688</ele>
        <time>2023-09-30T07:49:02.000Z</time>
      </trkpt>
      <trkpt lat="41.31257" lon="20.38583">
        <ele>1116.2299804688</ele>
        <time>2023-09-30T07:48:57.000Z</time>
      </trkpt>
      <trkpt lat="41.31246" lon="20.38576">
        <ele>1116.2299804688</ele>
        <time>2023-09-30T07:48:56.000Z</time>
      </trkpt>
      <trkpt lat="41.31205" lon="20.38552">
        <ele>1115.75</ele>
        <time>2023-09-30T07:48:53.000Z</time>
      </trkpt>
      <trkpt lat="41.31201" lon="20.38549">
        <ele>1115.75</ele>
        <time>2023-09-30T07:48:52.000Z</time>
      </trkpt>
      <trkpt lat="41.31163" lon="20.38522">
        <ele>1115.2700195312</ele>
        <time>2023-09-30T07:48:49.000Z</time>
      </trkpt>
      <trkpt lat="41.31153" lon="20.38516">
        <ele>1115.2700195312</ele>
        <time>2023-09-30T07:48:48.000Z</time>
      </trkpt>
      <trkpt lat="41.311" lon="20.38497">
        <ele>1114.7900390625</ele>
        <time>2023-09-30T07:48:43.000Z</time>
      </trkpt>
      <trkpt lat="41.31071" lon="20.38488">
        <ele>1114.7900390625</ele>
        <time>2023-09-30T07:48:41.000Z</time>
      </trkpt>
      <trkpt lat="41.31067" lon="20.38487">
        <ele>1114.7900390625</ele>
        <time>2023-09-30T07:48:40.000Z</time>
      </trkpt>
      <trkpt lat="41.31052" lon="20.3848">
        <ele>1114.7900390625</ele>
        <time>2023-09-30T07:48:39.000Z</time>
      </trkpt>
      <trkpt lat="41.3104" lon="20.38475">
        <ele>1115.2700195312</ele>
        <time>2023-09-30T07:48:38.000Z</time>
      </trkpt>
      <trkpt lat="41.31027" lon="20.38468">
        <ele>1115.2700195312</ele>
        <time>2023-09-30T07:48:37.000Z</time>
      </trkpt>
      <trkpt lat="41.31001" lon="20.38456">
        <ele>1115.75</ele>
        <time>2023-09-30T07:48:35.000Z</time>
      </trkpt>
      <trkpt lat="41.30992" lon="20.38451">
        <ele>1115.75</ele>
        <time>2023-09-30T07:48:34.000Z</time>
      </trkpt>
      <trkpt lat="41.30975" lon="20.38435">
        <ele>1115.75</ele>
        <time>2023-09-30T07:48:32.000Z</time>
      </trkpt>
      <trkpt lat="41.30969" lon="20.3843">
        <ele>1115.75</ele>
        <time>2023-09-30T07:48:31.000Z</time>
      </trkpt>
      <trkpt lat="41.30959" lon="20.38423">
        <ele>1115.75</ele>
        <time>2023-09-30T07:48:30.000Z</time>
      </trkpt>
      <trkpt lat="41.30951" lon="20.38416">
        <ele>1115.75</ele>
        <time>2023-09-30T07:48:29.000Z</time>
      </trkpt>
      <trkpt lat="41.3094" lon="20.38408">
        <ele>1115.75</ele>
        <time>2023-09-30T07:48:27.000Z</time>
      </trkpt>
      <trkpt lat="41.3093" lon="20.384">
        <ele>1115.2700195312</ele>
        <time>2023-09-30T07:48:26.000Z</time>
      </trkpt>
      <trkpt lat="41.30924" lon="20.38395">
        <ele>1115.2700195312</ele>
        <time>2023-09-30T07:48:25.000Z</time>
      </trkpt>
      <trkpt lat="41.3092" lon="20.38391">
        <ele>1115.75</ele>
        <time>2023-09-30T07:48:24.000Z</time>
      </trkpt>
      <trkpt lat="41.30891" lon="20.38365">
        <ele>1116.2299804688</ele>
        <time>2023-09-30T07:48:21.000Z</time>
      </trkpt>
      <trkpt lat="41.30875" lon="20.38349">
        <ele>1115.75</ele>
        <time>2023-09-30T07:48:20.000Z</time>
      </trkpt>
      <trkpt lat="41.30865" lon="20.38342">
        <ele>1115.75</ele>
        <time>2023-09-30T07:48:19.000Z</time>
      </trkpt>
      <trkpt lat="41.30859" lon="20.3834">
        <ele>1116.2299804688</ele>
        <time>2023-09-30T07:48:18.000Z</time>
      </trkpt>
      <trkpt lat="41.30826" lon="20.38324">
        <ele>1116.7099609375</ele>
        <time>2023-09-30T07:48:15.000Z</time>
      </trkpt>
      <trkpt lat="41.30809" lon="20.38314">
        <ele>1117.1899414062</ele>
        <time>2023-09-30T07:48:14.000Z</time>
      </trkpt>
      <trkpt lat="41.30797" lon="20.38307">
        <ele>1117.1899414062</ele>
        <time>2023-09-30T07:48:13.000Z</time>
      </trkpt>
      <trkpt lat="41.30787" lon="20.38298">
        <ele>1117.6700439453</ele>
        <time>2023-09-30T07:48:12.000Z</time>
      </trkpt>
      <trkpt lat="41.30782" lon="20.38293">
        <ele>1118.1500244141</ele>
        <time>2023-09-30T07:48:11.000Z</time>
      </trkpt>
      <trkpt lat="41.30774" lon="20.38287">
        <ele>1118.1500244141</ele>
        <time>2023-09-30T07:48:10.000Z</time>
      </trkpt>
      <trkpt lat="41.30731" lon="20.38243">
        <ele>1121.0300292969</ele>
        <time>2023-09-30T07:48:06.000Z</time>
      </trkpt>
      <trkpt lat="41.30727" lon="20.38239">
        <ele>1121.5200195312</ele>
        <time>2023-09-30T07:48:05.000Z</time>
      </trkpt>
      <trkpt lat="41.30717" lon="20.38229">
        <ele>1122.9599609375</ele>
        <time>2023-09-30T07:48:04.000Z</time>
      </trkpt>
      <trkpt lat="41.30702" lon="20.38215">
        <ele>1123.9200439453</ele>
        <time>2023-09-30T07:48:02.000Z</time>
      </trkpt>
      <trkpt lat="41.30691" lon="20.38204">
        <ele>1124.8800048828</ele>
        <time>2023-09-30T07:48:01.000Z</time>
      </trkpt>
      <trkpt lat="41.30685" lon="20.38196">
        <ele>1125.3599853516</ele>
        <time>2023-09-30T07:48:00.000Z</time>
      </trkpt>
      <trkpt lat="41.30679" lon="20.38187">
        <ele>1126.3199462891</ele>
        <time>2023-09-30T07:47:59.000Z</time>
      </trkpt>
      <trkpt lat="41.30676" lon="20.38179">
        <ele>1126.8000488281</ele>
        <time>2023-09-30T07:47:58.000Z</time>
      </trkpt>
      <trkpt lat="41.30673" lon="20.3817">
        <ele>1127.2800292969</ele>
        <time>2023-09-30T07:47:57.000Z</time>
      </trkpt>
      <trkpt lat="41.30664" lon="20.38143">
        <ele>1127.7600097656</ele>
        <time>2023-09-30T07:47:55.000Z</time>
      </trkpt>
      <trkpt lat="41.30658" lon="20.38126">
        <ele>1128.7299804688</ele>
        <time>2023-09-30T07:47:54.000Z</time>
      </trkpt>
      <trkpt lat="41.30652" lon="20.38111">
        <ele>1129.6899414062</ele>
        <time>2023-09-30T07:47:53.000Z</time>
      </trkpt>
      <trkpt lat="41.30646" lon="20.38101">
        <ele>1130.1700439453</ele>
        <time>2023-09-30T07:47:52.000Z</time>
      </trkpt>
      <trkpt lat="41.3064" lon="20.38091">
        <ele>1130.6500244141</ele>
        <time>2023-09-30T07:47:51.000Z</time>
      </trkpt>
      <trkpt lat="41.30628" lon="20.38075">
        <ele>1131.1300048828</ele>
        <time>2023-09-30T07:47:49.000Z</time>
      </trkpt>
      <trkpt lat="41.30616" lon="20.38058">
        <ele>1131.1300048828</ele>
        <time>2023-09-30T07:47:48.000Z</time>
      </trkpt>
      <trkpt lat="41.30611" lon="20.3805">
        <ele>1131.1300048828</ele>
        <time>2023-09-30T07:47:47.000Z</time>
      </trkpt>
      <trkpt lat="41.3059" lon="20.38012">
        <ele>1130.6500244141</ele>
        <time>2023-09-30T07:47:44.000Z</time>
      </trkpt>
      <trkpt lat="41.30583" lon="20.38001">
        <ele>1130.6500244141</ele>
        <time>2023-09-30T07:47:43.000Z</time>
      </trkpt>
      <trkpt lat="41.30575" lon="20.37992">
        <ele>1129.6899414062</ele>
        <time>2023-09-30T07:47:42.000Z</time>
      </trkpt>
      <trkpt lat="41.30567" lon="20.37986">
        <ele>1129.2099609375</ele>
        <time>2023-09-30T07:47:41.000Z</time>
      </trkpt>
      <trkpt lat="41.30561" lon="20.3798">
        <ele>1128.7299804688</ele>
        <time>2023-09-30T07:47:40.000Z</time>
      </trkpt>
      <trkpt lat="41.30549" lon="20.3797">
        <ele>1128.2399902344</ele>
        <time>2023-09-30T07:47:39.000Z</time>
      </trkpt>
      <trkpt lat="41.30541" lon="20.37964">
        <ele>1127.2800292969</ele>
        <time>2023-09-30T07:47:38.000Z</time>
      </trkpt>
      <trkpt lat="41.30532" lon="20.37958">
        <ele>1126.3199462891</ele>
        <time>2023-09-30T07:47:37.000Z</time>
      </trkpt>
      <trkpt lat="41.30529" lon="20.37956">
        <ele>1126.3199462891</ele>
        <time>2023-09-30T07:47:36.000Z</time>
      </trkpt>
      <trkpt lat="41.30513" lon="20.37948">
        <ele>1124.8800048828</ele>
        <time>2023-09-30T07:47:35.000Z</time>
      </trkpt>
      <trkpt lat="41.30504" lon="20.37943">
        <ele>1123.9200439453</ele>
        <time>2023-09-30T07:47:34.000Z</time>
      </trkpt>
      <trkpt lat="41.30498" lon="20.37941">
        <ele>1123.4399414062</ele>
        <time>2023-09-30T07:47:33.000Z</time>
      </trkpt>
      <trkpt lat="41.30484" lon="20.37938">
        <ele>1122</ele>
        <time>2023-09-30T07:47:32.000Z</time>
      </trkpt>
      <trkpt lat="41.30473" lon="20.37935">
        <ele>1121.0300292969</ele>
        <time>2023-09-30T07:47:31.000Z</time>
      </trkpt>
      <trkpt lat="41.30465" lon="20.37931">
        <ele>1120.5500488281</ele>
        <time>2023-09-30T07:47:30.000Z</time>
      </trkpt>
      <trkpt lat="41.30455" lon="20.37925">
        <ele>1119.1099853516</ele>
        <time>2023-09-30T07:47:29.000Z</time>
      </trkpt>
      <trkpt lat="41.30447" lon="20.37918">
        <ele>1118.1500244141</ele>
        <time>2023-09-30T07:47:28.000Z</time>
      </trkpt>
      <trkpt lat="41.3044" lon="20.37909">
        <ele>1117.1899414062</ele>
        <time>2023-09-30T07:47:27.000Z</time>
      </trkpt>
      <trkpt lat="41.30434" lon="20.379">
        <ele>1116.2299804688</ele>
        <time>2023-09-30T07:47:26.000Z</time>
      </trkpt>
      <trkpt lat="41.30431" lon="20.37891">
        <ele>1115.2700195312</ele>
        <time>2023-09-30T07:47:25.000Z</time>
      </trkpt>
      <trkpt lat="41.30428" lon="20.37882">
        <ele>1113.8199462891</ele>
        <time>2023-09-30T07:47:24.000Z</time>
      </trkpt>
      <trkpt lat="41.30424" lon="20.37872">
        <ele>1113.3399658203</ele>
        <time>2023-09-30T07:47:23.000Z</time>
      </trkpt>
      <trkpt lat="41.3042" lon="20.37864">
        <ele>1112.3800048828</ele>
        <time>2023-09-30T07:47:22.000Z</time>
      </trkpt>
      <trkpt lat="41.30413" lon="20.37856">
        <ele>1111.9000244141</ele>
        <time>2023-09-30T07:47:21.000Z</time>
      </trkpt>
      <trkpt lat="41.30405" lon="20.3785">
        <ele>1110.9399414062</ele>
        <time>2023-09-30T07:47:20.000Z</time>
      </trkpt>
      <trkpt lat="41.30397" lon="20.37843">
        <ele>1109.5</ele>
        <time>2023-09-30T07:47:19.000Z</time>
      </trkpt>
      <trkpt lat="41.30395" lon="20.37842">
        <ele>1109.0200195312</ele>
        <time>2023-09-30T07:47:18.000Z</time>
      </trkpt>
      <trkpt lat="41.3038" lon="20.37831">
        <ele>1107.0999755859</ele>
        <time>2023-09-30T07:47:17.000Z</time>
      </trkpt>
      <trkpt lat="41.30373" lon="20.37826">
        <ele>1106.6099853516</ele>
        <time>2023-09-30T07:47:16.000Z</time>
      </trkpt>
      <trkpt lat="41.30349" lon="20.37801">
        <ele>1104.6899414062</ele>
        <time>2023-09-30T07:47:13.000Z</time>
      </trkpt>
      <trkpt lat="41.30337" lon="20.37791">
        <ele>1103.7299804688</ele>
        <time>2023-09-30T07:47:12.000Z</time>
      </trkpt>
      <trkpt lat="41.30328" lon="20.37786">
        <ele>1103.25</ele>
        <time>2023-09-30T07:47:11.000Z</time>
      </trkpt>
      <trkpt lat="41.3032" lon="20.37781">
        <ele>1101.8100585938</ele>
        <time>2023-09-30T07:47:10.000Z</time>
      </trkpt>
      <trkpt lat="41.30312" lon="20.37779">
        <ele>1100.3699951172</ele>
        <time>2023-09-30T07:47:09.000Z</time>
      </trkpt>
      <trkpt lat="41.30299" lon="20.37778">
        <ele>1098.9200439453</ele>
        <time>2023-09-30T07:47:07.000Z</time>
      </trkpt>
      <trkpt lat="41.30268" lon="20.37771">
        <ele>1097</ele>
        <time>2023-09-30T07:47:04.000Z</time>
      </trkpt>
      <trkpt lat="41.3018" lon="20.3774">
        <ele>1093.1600341797</ele>
        <time>2023-09-30T07:46:58.000Z</time>
      </trkpt>
      <trkpt lat="41.30155" lon="20.37735">
        <ele>1091.7099609375</ele>
        <time>2023-09-30T07:46:56.000Z</time>
      </trkpt>
      <trkpt lat="41.30151" lon="20.37734">
        <ele>1091.7099609375</ele>
        <time>2023-09-30T07:46:55.000Z</time>
      </trkpt>
      <trkpt lat="41.30135" lon="20.37735">
        <ele>1089.3100585938</ele>
        <time>2023-09-30T07:46:54.000Z</time>
      </trkpt>
      <trkpt lat="41.30098" lon="20.37732">
        <ele>1087.8699951172</ele>
        <time>2023-09-30T07:46:51.000Z</time>
      </trkpt>
      <trkpt lat="41.30088" lon="20.37732">
        <ele>1087.8699951172</ele>
        <time>2023-09-30T07:46:50.000Z</time>
      </trkpt>
      <trkpt lat="41.3008" lon="20.37733">
        <ele>1087.8699951172</ele>
        <time>2023-09-30T07:46:49.000Z</time>
      </trkpt>
      <trkpt lat="41.30078" lon="20.37733">
        <ele>1087.8699951172</ele>
        <time>2023-09-30T07:46:48.000Z</time>
      </trkpt>
      <trkpt lat="41.30069" lon="20.37737">
        <ele>1087.3900146484</ele>
        <time>2023-09-30T07:46:47.000Z</time>
      </trkpt>
      <trkpt lat="41.30058" lon="20.37741">
        <ele>1086.9100341797</ele>
        <time>2023-09-30T07:46:46.000Z</time>
      </trkpt>
      <trkpt lat="41.30052" lon="20.37744">
        <ele>1086.9100341797</ele>
        <time>2023-09-30T07:46:45.000Z</time>
      </trkpt>
      <trkpt lat="41.30046" lon="20.37744">
        <ele>1086.4300537109</ele>
        <time>2023-09-30T07:46:44.000Z</time>
      </trkpt>
      <trkpt lat="41.30043" lon="20.37744">
        <ele>1085.9499511719</ele>
        <time>2023-09-30T07:46:43.000Z</time>
      </trkpt>
      <trkpt lat="41.30029" lon="20.37744">
        <ele>1084.9899902344</ele>
        <time>2023-09-30T07:46:42.000Z</time>
      </trkpt>
      <trkpt lat="41.30019" lon="20.37742">
        <ele>1084.5</ele>
        <time>2023-09-30T07:46:41.000Z</time>
      </trkpt>
      <trkpt lat="41.3001" lon="20.37739">
        <ele>1084.0200195312</ele>
        <time>2023-09-30T07:46:40.000Z</time>
      </trkpt>
      <trkpt lat="41.30002" lon="20.37734">
        <ele>1084.0200195312</ele>
        <time>2023-09-30T07:46:39.000Z</time>
      </trkpt>
      <trkpt lat="41.30001" lon="20.37732">
        <ele>1084.0200195312</ele>
        <time>2023-09-30T07:46:38.000Z</time>
      </trkpt>
      <trkpt lat="41.29985" lon="20.37719">
        <ele>1084.0200195312</ele>
        <time>2023-09-30T07:46:37.000Z</time>
      </trkpt>
      <trkpt lat="41.29977" lon="20.37713">
        <ele>1083.5400390625</ele>
        <time>2023-09-30T07:46:36.000Z</time>
      </trkpt>
      <trkpt lat="41.29968" lon="20.37709">
        <ele>1083.5400390625</ele>
        <time>2023-09-30T07:46:35.000Z</time>
      </trkpt>
      <trkpt lat="41.29961" lon="20.37708">
        <ele>1083.0600585938</ele>
        <time>2023-09-30T07:46:34.000Z</time>
      </trkpt>
      <trkpt lat="41.2995" lon="20.37707">
        <ele>1083.0600585938</ele>
        <time>2023-09-30T07:46:33.000Z</time>
      </trkpt>
      <trkpt lat="41.29941" lon="20.37706">
        <ele>1082.5799560547</ele>
        <time>2023-09-30T07:46:32.000Z</time>
      </trkpt>
      <trkpt lat="41.29931" lon="20.37703">
        <ele>1082.0999755859</ele>
        <time>2023-09-30T07:46:31.000Z</time>
      </trkpt>
      <trkpt lat="41.29922" lon="20.377">
        <ele>1082.0999755859</ele>
        <time>2023-09-30T07:46:30.000Z</time>
      </trkpt>
      <trkpt lat="41.29914" lon="20.37695">
        <ele>1081.6199951172</ele>
        <time>2023-09-30T07:46:29.000Z</time>
      </trkpt>
      <trkpt lat="41.29906" lon="20.37689">
        <ele>1080.6600341797</ele>
        <time>2023-09-30T07:46:28.000Z</time>
      </trkpt>
      <trkpt lat="41.29892" lon="20.37677">
        <ele>1080.1800537109</ele>
        <time>2023-09-30T07:46:27.000Z</time>
      </trkpt>
      <trkpt lat="41.29877" lon="20.37665">
        <ele>1079.6999511719</ele>
        <time>2023-09-30T07:46:26.000Z</time>
      </trkpt>
      <trkpt lat="41.29857" lon="20.37645">
        <ele>1078.7399902344</ele>
        <time>2023-09-30T07:46:24.000Z</time>
      </trkpt>
      <trkpt lat="41.2985" lon="20.37637">
        <ele>1077.7800292969</ele>
        <time>2023-09-30T07:46:23.000Z</time>
      </trkpt>
      <trkpt lat="41.29841" lon="20.37625">
        <ele>1077.2900390625</ele>
        <time>2023-09-30T07:46:22.000Z</time>
      </trkpt>
      <trkpt lat="41.29833" lon="20.3761">
        <ele>1076.3299560547</ele>
        <time>2023-09-30T07:46:21.000Z</time>
      </trkpt>
      <trkpt lat="41.2983" lon="20.37603">
        <ele>1076.3299560547</ele>
        <time>2023-09-30T07:46:20.000Z</time>
      </trkpt>
      <trkpt lat="41.29819" lon="20.37582">
        <ele>1075.3699951172</ele>
        <time>2023-09-30T07:46:19.000Z</time>
      </trkpt>
      <trkpt lat="41.29813" lon="20.37569">
        <ele>1074.4100341797</ele>
        <time>2023-09-30T07:46:18.000Z</time>
      </trkpt>
      <trkpt lat="41.29805" lon="20.37556">
        <ele>1073.4499511719</ele>
        <time>2023-09-30T07:46:17.000Z</time>
      </trkpt>
      <trkpt lat="41.29796" lon="20.37543">
        <ele>1072.4899902344</ele>
        <time>2023-09-30T07:46:16.000Z</time>
      </trkpt>
      <trkpt lat="41.2979" lon="20.37536">
        <ele>1072.0100097656</ele>
        <time>2023-09-30T07:46:15.000Z</time>
      </trkpt>
      <trkpt lat="41.29777" lon="20.37524">
        <ele>1071.0500488281</ele>
        <time>2023-09-30T07:46:14.000Z</time>
      </trkpt>
      <trkpt lat="41.29765" lon="20.3751">
        <ele>1069.5999755859</ele>
        <time>2023-09-30T07:46:13.000Z</time>
      </trkpt>
      <trkpt lat="41.29747" lon="20.37488">
        <ele>1067.6800537109</ele>
        <time>2023-09-30T07:46:11.000Z</time>
      </trkpt>
      <trkpt lat="41.29743" lon="20.37482">
        <ele>1067.6800537109</ele>
        <time>2023-09-30T07:46:10.000Z</time>
      </trkpt>
      <trkpt lat="41.29732" lon="20.37465">
        <ele>1066.7199707031</ele>
        <time>2023-09-30T07:46:09.000Z</time>
      </trkpt>
      <trkpt lat="41.29719" lon="20.37448">
        <ele>1065.7600097656</ele>
        <time>2023-09-30T07:46:08.000Z</time>
      </trkpt>
      <trkpt lat="41.29708" lon="20.37437">
        <ele>1065.7600097656</ele>
        <time>2023-09-30T07:46:07.000Z</time>
      </trkpt>
      <trkpt lat="41.29662" lon="20.37401">
        <ele>1063.3599853516</ele>
        <time>2023-09-30T07:46:03.000Z</time>
      </trkpt>
      <trkpt lat="41.29659" lon="20.37399">
        <ele>1063.3599853516</ele>
        <time>2023-09-30T07:46:02.000Z</time>
      </trkpt>
      <trkpt lat="41.29638" lon="20.37383">
        <ele>1062.8699951172</ele>
        <time>2023-09-30T07:46:00.000Z</time>
      </trkpt>
      <trkpt lat="41.2962" lon="20.3737">
        <ele>1061.9100341797</ele>
        <time>2023-09-30T07:45:58.000Z</time>
      </trkpt>
      <trkpt lat="41.29585" lon="20.37341">
        <ele>1059.5100097656</ele>
        <time>2023-09-30T07:45:54.000Z</time>
      </trkpt>
      <trkpt lat="41.29557" lon="20.37317">
        <ele>1059.5100097656</ele>
        <time>2023-09-30T07:45:51.000Z</time>
      </trkpt>
      <trkpt lat="41.29547" lon="20.37309">
        <ele>1059.0300292969</ele>
        <time>2023-09-30T07:45:50.000Z</time>
      </trkpt>
      <trkpt lat="41.29525" lon="20.37294">
        <ele>1058.5500488281</ele>
        <time>2023-09-30T07:45:48.000Z</time>
      </trkpt>
      <trkpt lat="41.29478" lon="20.37268">
        <ele>1057.5899658203</ele>
        <time>2023-09-30T07:45:44.000Z</time>
      </trkpt>
      <trkpt lat="41.29472" lon="20.37265">
        <ele>1057.1099853516</ele>
        <time>2023-09-30T07:45:43.000Z</time>
      </trkpt>
      <trkpt lat="41.29459" lon="20.3726">
        <ele>1056.6300048828</ele>
        <time>2023-09-30T07:45:42.000Z</time>
      </trkpt>
      <trkpt lat="41.29447" lon="20.37255">
        <ele>1056.1500244141</ele>
        <time>2023-09-30T07:45:41.000Z</time>
      </trkpt>
      <trkpt lat="41.29442" lon="20.37252">
        <ele>1055.6700439453</ele>
        <time>2023-09-30T07:45:40.000Z</time>
      </trkpt>
      <trkpt lat="41.29403" lon="20.37224">
        <ele>1052.7800292969</ele>
        <time>2023-09-30T07:45:36.000Z</time>
      </trkpt>
      <trkpt lat="41.29395" lon="20.37218">
        <ele>1051.8199462891</ele>
        <time>2023-09-30T07:45:35.000Z</time>
      </trkpt>
      <trkpt lat="41.29388" lon="20.37213">
        <ele>1051.3399658203</ele>
        <time>2023-09-30T07:45:34.000Z</time>
      </trkpt>
      <trkpt lat="41.29384" lon="20.37211">
        <ele>1050.3800048828</ele>
        <time>2023-09-30T07:45:33.000Z</time>
      </trkpt>
      <trkpt lat="41.29374" lon="20.37208">
        <ele>1048.9399414062</ele>
        <time>2023-09-30T07:45:32.000Z</time>
      </trkpt>
      <trkpt lat="41.29367" lon="20.37203">
        <ele>1048.9399414062</ele>
        <time>2023-09-30T07:45:31.000Z</time>
      </trkpt>
      <trkpt lat="41.29361" lon="20.37196">
        <ele>1047.9699707031</ele>
        <time>2023-09-30T07:45:30.000Z</time>
      </trkpt>
      <trkpt lat="41.29354" lon="20.37187">
        <ele>1047.0100097656</ele>
        <time>2023-09-30T07:45:29.000Z</time>
      </trkpt>
      <trkpt lat="41.29348" lon="20.37176">
        <ele>1046.5300292969</ele>
        <time>2023-09-30T07:45:28.000Z</time>
      </trkpt>
      <trkpt lat="41.29343" lon="20.37167">
        <ele>1045.5699462891</ele>
        <time>2023-09-30T07:45:27.000Z</time>
      </trkpt>
      <trkpt lat="41.29338" lon="20.37157">
        <ele>1044.6099853516</ele>
        <time>2023-09-30T07:45:26.000Z</time>
      </trkpt>
      <trkpt lat="41.29336" lon="20.37152">
        <ele>1044.1300048828</ele>
        <time>2023-09-30T07:45:25.000Z</time>
      </trkpt>
      <trkpt lat="41.29332" lon="20.37144">
        <ele>1043.1700439453</ele>
        <time>2023-09-30T07:45:24.000Z</time>
      </trkpt>
      <trkpt lat="41.29318" lon="20.37109">
        <ele>1040.7600097656</ele>
        <time>2023-09-30T07:45:22.000Z</time>
      </trkpt>
      <trkpt lat="41.29316" lon="20.37101">
        <ele>1040.2800292969</ele>
        <time>2023-09-30T07:45:21.000Z</time>
      </trkpt>
      <trkpt lat="41.29309" lon="20.37084">
        <ele>1038.8399658203</ele>
        <time>2023-09-30T07:45:20.000Z</time>
      </trkpt>
      <trkpt lat="41.29299" lon="20.37056">
        <ele>1036.4399414062</ele>
        <time>2023-09-30T07:45:18.000Z</time>
      </trkpt>
      <trkpt lat="41.29295" lon="20.37043">
        <ele>1035.9599609375</ele>
        <time>2023-09-30T07:45:17.000Z</time>
      </trkpt>
      <trkpt lat="41.2929" lon="20.37027">
        <ele>1034.5200195312</ele>
        <time>2023-09-30T07:45:16.000Z</time>
      </trkpt>
      <trkpt lat="41.29286" lon="20.37014">
        <ele>1033.5500488281</ele>
        <time>2023-09-30T07:45:15.000Z</time>
      </trkpt>
      <trkpt lat="41.29281" lon="20.37001">
        <ele>1033.0699462891</ele>
        <time>2023-09-30T07:45:14.000Z</time>
      </trkpt>
      <trkpt lat="41.29275" lon="20.36987">
        <ele>1032.1099853516</ele>
        <time>2023-09-30T07:45:13.000Z</time>
      </trkpt>
      <trkpt lat="41.29269" lon="20.36976">
        <ele>1031.1500244141</ele>
        <time>2023-09-30T07:45:12.000Z</time>
      </trkpt>
      <trkpt lat="41.29263" lon="20.36969">
        <ele>1030.6700439453</ele>
        <time>2023-09-30T07:45:11.000Z</time>
      </trkpt>
      <trkpt lat="41.29255" lon="20.36963">
        <ele>1030.1899414062</ele>
        <time>2023-09-30T07:45:10.000Z</time>
      </trkpt>
      <trkpt lat="41.29246" lon="20.36958">
        <ele>1030.1899414062</ele>
        <time>2023-09-30T07:45:09.000Z</time>
      </trkpt>
      <trkpt lat="41.29234" lon="20.36949">
        <ele>1029.7099609375</ele>
        <time>2023-09-30T07:45:08.000Z</time>
      </trkpt>
      <trkpt lat="41.29215" lon="20.36931">
        <ele>1030.1899414062</ele>
        <time>2023-09-30T07:45:06.000Z</time>
      </trkpt>
      <trkpt lat="41.29186" lon="20.369">
        <ele>1030.6700439453</ele>
        <time>2023-09-30T07:45:03.000Z</time>
      </trkpt>
      <trkpt lat="41.29157" lon="20.36862">
        <ele>1033.5500488281</ele>
        <time>2023-09-30T07:45:00.000Z</time>
      </trkpt>
      <trkpt lat="41.29149" lon="20.36854">
        <ele>1033.5500488281</ele>
        <time>2023-09-30T07:44:59.000Z</time>
      </trkpt>
      <trkpt lat="41.2914" lon="20.36849">
        <ele>1033.5500488281</ele>
        <time>2023-09-30T07:44:58.000Z</time>
      </trkpt>
      <trkpt lat="41.29134" lon="20.36847">
        <ele>1033.5500488281</ele>
        <time>2023-09-30T07:44:57.000Z</time>
      </trkpt>
      <trkpt lat="41.29125" lon="20.36845">
        <ele>1033.0699462891</ele>
        <time>2023-09-30T07:44:56.000Z</time>
      </trkpt>
      <trkpt lat="41.29102" lon="20.36844">
        <ele>1033.0699462891</ele>
        <time>2023-09-30T07:44:54.000Z</time>
      </trkpt>
      <trkpt lat="41.29092" lon="20.3684">
        <ele>1033.0699462891</ele>
        <time>2023-09-30T07:44:53.000Z</time>
      </trkpt>
      <trkpt lat="41.29084" lon="20.36835">
        <ele>1033.0699462891</ele>
        <time>2023-09-30T07:44:52.000Z</time>
      </trkpt>
      <trkpt lat="41.29077" lon="20.36825">
        <ele>1033.0699462891</ele>
        <time>2023-09-30T07:44:51.000Z</time>
      </trkpt>
      <trkpt lat="41.29071" lon="20.36814">
        <ele>1033.0699462891</ele>
        <time>2023-09-30T07:44:50.000Z</time>
      </trkpt>
      <trkpt lat="41.29068" lon="20.36805">
        <ele>1033.5500488281</ele>
        <time>2023-09-30T07:44:49.000Z</time>
      </trkpt>
      <trkpt lat="41.29053" lon="20.36759">
        <ele>1035</ele>
        <time>2023-09-30T07:44:46.000Z</time>
      </trkpt>
      <trkpt lat="41.29047" lon="20.36746">
        <ele>1035</ele>
        <time>2023-09-30T07:44:45.000Z</time>
      </trkpt>
      <trkpt lat="41.29042" lon="20.36737">
        <ele>1035.4799804688</ele>
        <time>2023-09-30T07:44:44.000Z</time>
      </trkpt>
      <trkpt lat="41.29035" lon="20.36728">
        <ele>1035.9599609375</ele>
        <time>2023-09-30T07:44:43.000Z</time>
      </trkpt>
      <trkpt lat="41.2903" lon="20.36724">
        <ele>1036.4399414062</ele>
        <time>2023-09-30T07:44:42.000Z</time>
      </trkpt>
      <trkpt lat="41.2902" lon="20.36716">
        <ele>1036.4399414062</ele>
        <time>2023-09-30T07:44:41.000Z</time>
      </trkpt>
      <trkpt lat="41.29015" lon="20.3671">
        <ele>1035.9599609375</ele>
        <time>2023-09-30T07:44:40.000Z</time>
      </trkpt>
      <trkpt lat="41.29011" lon="20.36702">
        <ele>1035.9599609375</ele>
        <time>2023-09-30T07:44:39.000Z</time>
      </trkpt>
      <trkpt lat="41.2901" lon="20.36693">
        <ele>1035.4799804688</ele>
        <time>2023-09-30T07:44:38.000Z</time>
      </trkpt>
      <trkpt lat="41.2901" lon="20.36682">
        <ele>1035.9599609375</ele>
        <time>2023-09-30T07:44:37.000Z</time>
      </trkpt>
      <trkpt lat="41.29011" lon="20.36654">
        <ele>1036.4399414062</ele>
        <time>2023-09-30T07:44:35.000Z</time>
      </trkpt>
      <trkpt lat="41.29011" lon="20.36644">
        <ele>1036.4399414062</ele>
        <time>2023-09-30T07:44:34.000Z</time>
      </trkpt>
      <trkpt lat="41.29008" lon="20.36631">
        <ele>1036.9200439453</ele>
        <time>2023-09-30T07:44:33.000Z</time>
      </trkpt>
      <trkpt lat="41.29004" lon="20.36619">
        <ele>1036.4399414062</ele>
        <time>2023-09-30T07:44:32.000Z</time>
      </trkpt>
      <trkpt lat="41.28998" lon="20.36608">
        <ele>1035.9599609375</ele>
        <time>2023-09-30T07:44:31.000Z</time>
      </trkpt>
      <trkpt lat="41.28991" lon="20.36599">
        <ele>1035.9599609375</ele>
        <time>2023-09-30T07:44:30.000Z</time>
      </trkpt>
      <trkpt lat="41.28974" lon="20.36581">
        <ele>1036.4399414062</ele>
        <time>2023-09-30T07:44:28.000Z</time>
      </trkpt>
      <trkpt lat="41.28966" lon="20.36572">
        <ele>1035.4799804688</ele>
        <time>2023-09-30T07:44:27.000Z</time>
      </trkpt>
      <trkpt lat="41.28958" lon="20.36561">
        <ele>1035</ele>
        <time>2023-09-30T07:44:26.000Z</time>
      </trkpt>
      <trkpt lat="41.28956" lon="20.36557">
        <ele>1034.5200195312</ele>
        <time>2023-09-30T07:44:25.000Z</time>
      </trkpt>
      <trkpt lat="41.28947" lon="20.36539">
        <ele>1034.0400390625</ele>
        <time>2023-09-30T07:44:24.000Z</time>
      </trkpt>
      <trkpt lat="41.28942" lon="20.36528">
        <ele>1034.0400390625</ele>
        <time>2023-09-30T07:44:23.000Z</time>
      </trkpt>
      <trkpt lat="41.28934" lon="20.36509">
        <ele>1033.5500488281</ele>
        <time>2023-09-30T07:44:22.000Z</time>
      </trkpt>
      <trkpt lat="41.28927" lon="20.36496">
        <ele>1033.0699462891</ele>
        <time>2023-09-30T07:44:21.000Z</time>
      </trkpt>
      <trkpt lat="41.28922" lon="20.36487">
        <ele>1033.0699462891</ele>
        <time>2023-09-30T07:44:20.000Z</time>
      </trkpt>
      <trkpt lat="41.28916" lon="20.3648">
        <ele>1033.0699462891</ele>
        <time>2023-09-30T07:44:19.000Z</time>
      </trkpt>
      <trkpt lat="41.28905" lon="20.36466">
        <ele>1033.5500488281</ele>
        <time>2023-09-30T07:44:18.000Z</time>
      </trkpt>
      <trkpt lat="41.28887" lon="20.36441">
        <ele>1033.0699462891</ele>
        <time>2023-09-30T07:44:16.000Z</time>
      </trkpt>
      <trkpt lat="41.2888" lon="20.3643">
        <ele>1033.0699462891</ele>
        <time>2023-09-30T07:44:15.000Z</time>
      </trkpt>
      <trkpt lat="41.28875" lon="20.36417">
        <ele>1033.0699462891</ele>
        <time>2023-09-30T07:44:14.000Z</time>
      </trkpt>
      <trkpt lat="41.28863" lon="20.36379">
        <ele>1034.5200195312</ele>
        <time>2023-09-30T07:44:11.000Z</time>
      </trkpt>
      <trkpt lat="41.28851" lon="20.36343">
        <ele>1035</ele>
        <time>2023-09-30T07:44:09.000Z</time>
      </trkpt>
      <trkpt lat="41.28847" lon="20.36334">
        <ele>1035</ele>
        <time>2023-09-30T07:44:08.000Z</time>
      </trkpt>
      <trkpt lat="41.28839" lon="20.36316">
        <ele>1035.4799804688</ele>
        <time>2023-09-30T07:44:07.000Z</time>
      </trkpt>
      <trkpt lat="41.28834" lon="20.36308">
        <ele>1035.4799804688</ele>
        <time>2023-09-30T07:44:06.000Z</time>
      </trkpt>
      <trkpt lat="41.28828" lon="20.36298">
        <ele>1035</ele>
        <time>2023-09-30T07:44:05.000Z</time>
      </trkpt>
      <trkpt lat="41.28811" lon="20.36278">
        <ele>1035</ele>
        <time>2023-09-30T07:44:03.000Z</time>
      </trkpt>
      <trkpt lat="41.28805" lon="20.36268">
        <ele>1034.0400390625</ele>
        <time>2023-09-30T07:44:02.000Z</time>
      </trkpt>
      <trkpt lat="41.288" lon="20.36259">
        <ele>1033.5500488281</ele>
        <time>2023-09-30T07:44:01.000Z</time>
      </trkpt>
      <trkpt lat="41.28777" lon="20.36216">
        <ele>1030.6700439453</ele>
        <time>2023-09-30T07:43:58.000Z</time>
      </trkpt>
      <trkpt lat="41.28769" lon="20.36204">
        <ele>1029.7099609375</ele>
        <time>2023-09-30T07:43:57.000Z</time>
      </trkpt>
      <trkpt lat="41.28765" lon="20.362">
        <ele>1028.75</ele>
        <time>2023-09-30T07:43:56.000Z</time>
      </trkpt>
      <trkpt lat="41.28752" lon="20.36186">
        <ele>1027.3100585938</ele>
        <time>2023-09-30T07:43:55.000Z</time>
      </trkpt>
      <trkpt lat="41.28745" lon="20.36177">
        <ele>1026.3399658203</ele>
        <time>2023-09-30T07:43:54.000Z</time>
      </trkpt>
      <trkpt lat="41.28737" lon="20.36164">
        <ele>1025.3800048828</ele>
        <time>2023-09-30T07:43:53.000Z</time>
      </trkpt>
      <trkpt lat="41.28731" lon="20.3615">
        <ele>1023.9400024414</ele>
        <time>2023-09-30T07:43:52.000Z</time>
      </trkpt>
      <trkpt lat="41.28726" lon="20.36137">
        <ele>1022.9799804688</ele>
        <time>2023-09-30T07:43:51.000Z</time>
      </trkpt>
      <trkpt lat="41.28722" lon="20.3612">
        <ele>1022.0200195312</ele>
        <time>2023-09-30T07:43:50.000Z</time>
      </trkpt>
      <trkpt lat="41.28715" lon="20.36079">
        <ele>1019.6199951172</ele>
        <time>2023-09-30T07:43:47.000Z</time>
      </trkpt>
      <trkpt lat="41.28712" lon="20.36064">
        <ele>1018.6500244141</ele>
        <time>2023-09-30T07:43:46.000Z</time>
      </trkpt>
      <trkpt lat="41.28708" lon="20.36052">
        <ele>1017.6900024414</ele>
        <time>2023-09-30T07:43:45.000Z</time>
      </trkpt>
      <trkpt lat="41.28703" lon="20.36039">
        <ele>1016.7299804688</ele>
        <time>2023-09-30T07:43:44.000Z</time>
      </trkpt>
      <trkpt lat="41.28696" lon="20.36026">
        <ele>1016.25</ele>
        <time>2023-09-30T07:43:43.000Z</time>
      </trkpt>
      <trkpt lat="41.2869" lon="20.36014">
        <ele>1015.7700195312</ele>
        <time>2023-09-30T07:43:42.000Z</time>
      </trkpt>
      <trkpt lat="41.28687" lon="20.36004">
        <ele>1015.2899780273</ele>
        <time>2023-09-30T07:43:41.000Z</time>
      </trkpt>
      <trkpt lat="41.28682" lon="20.35991">
        <ele>1014.8099975586</ele>
        <time>2023-09-30T07:43:40.000Z</time>
      </trkpt>
      <trkpt lat="41.2868" lon="20.35981">
        <ele>1014.3300170898</ele>
        <time>2023-09-30T07:43:39.000Z</time>
      </trkpt>
      <trkpt lat="41.28679" lon="20.35968">
        <ele>1013.3699951172</ele>
        <time>2023-09-30T07:43:38.000Z</time>
      </trkpt>
      <trkpt lat="41.28678" lon="20.35959">
        <ele>1012.8900146484</ele>
        <time>2023-09-30T07:43:37.000Z</time>
      </trkpt>
      <trkpt lat="41.28674" lon="20.35928">
        <ele>1010.9600219727</ele>
        <time>2023-09-30T07:43:35.000Z</time>
      </trkpt>
      <trkpt lat="41.28671" lon="20.35898">
        <ele>1009.0399780273</ele>
        <time>2023-09-30T07:43:33.000Z</time>
      </trkpt>
      <trkpt lat="41.28671" lon="20.35894">
        <ele>1009.0399780273</ele>
        <time>2023-09-30T07:43:32.000Z</time>
      </trkpt>
      <trkpt lat="41.28671" lon="20.35877">
        <ele>1008.0800170898</ele>
        <time>2023-09-30T07:43:31.000Z</time>
      </trkpt>
      <trkpt lat="41.2867" lon="20.35861">
        <ele>1007.1199951172</ele>
        <time>2023-09-30T07:43:30.000Z</time>
      </trkpt>
      <trkpt lat="41.28669" lon="20.35853">
        <ele>1006.1599731445</ele>
        <time>2023-09-30T07:43:29.000Z</time>
      </trkpt>
      <trkpt lat="41.28666" lon="20.35841">
        <ele>1005.200012207</ele>
        <time>2023-09-30T07:43:28.000Z</time>
      </trkpt>
      <trkpt lat="41.28663" lon="20.35832">
        <ele>1004.7199707031</ele>
        <time>2023-09-30T07:43:27.000Z</time>
      </trkpt>
      <trkpt lat="41.28657" lon="20.35826">
        <ele>1003.75</ele>
        <time>2023-09-30T07:43:26.000Z</time>
      </trkpt>
      <trkpt lat="41.28651" lon="20.35822">
        <ele>1003.2700195312</ele>
        <time>2023-09-30T07:43:25.000Z</time>
      </trkpt>
      <trkpt lat="41.28637" lon="20.35815">
        <ele>1001.8300170898</ele>
        <time>2023-09-30T07:43:23.000Z</time>
      </trkpt>
      <trkpt lat="41.28631" lon="20.35811">
        <ele>1001.3499755859</ele>
        <time>2023-09-30T07:43:22.000Z</time>
      </trkpt>
      <trkpt lat="41.28626" lon="20.35803">
        <ele>1000.3900146484</ele>
        <time>2023-09-30T07:43:21.000Z</time>
      </trkpt>
      <trkpt lat="41.28622" lon="20.35793">
        <ele>999.42999267578</ele>
        <time>2023-09-30T07:43:20.000Z</time>
      </trkpt>
      <trkpt lat="41.2862" lon="20.35783">
        <ele>998.95001220703</ele>
        <time>2023-09-30T07:43:19.000Z</time>
      </trkpt>
      <trkpt lat="41.28619" lon="20.35769">
        <ele>997.98999023438</ele>
        <time>2023-09-30T07:43:18.000Z</time>
      </trkpt>
      <trkpt lat="41.28618" lon="20.35745">
        <ele>996.53997802734</ele>
        <time>2023-09-30T07:43:16.000Z</time>
      </trkpt>
      <trkpt lat="41.28617" lon="20.35732">
        <ele>995.58001708984</ele>
        <time>2023-09-30T07:43:15.000Z</time>
      </trkpt>
      <trkpt lat="41.28614" lon="20.3572">
        <ele>994.61999511719</ele>
        <time>2023-09-30T07:43:14.000Z</time>
      </trkpt>
      <trkpt lat="41.2861" lon="20.35709">
        <ele>994.14001464844</ele>
        <time>2023-09-30T07:43:13.000Z</time>
      </trkpt>
      <trkpt lat="41.28605" lon="20.357">
        <ele>993.17999267578</ele>
        <time>2023-09-30T07:43:12.000Z</time>
      </trkpt>
      <trkpt lat="41.28599" lon="20.35692">
        <ele>992.21997070312</ele>
        <time>2023-09-30T07:43:11.000Z</time>
      </trkpt>
      <trkpt lat="41.28593" lon="20.35685">
        <ele>991.73999023438</ele>
        <time>2023-09-30T07:43:10.000Z</time>
      </trkpt>
      <trkpt lat="41.28589" lon="20.35676">
        <ele>990.78002929688</ele>
        <time>2023-09-30T07:43:09.000Z</time>
      </trkpt>
      <trkpt lat="41.28587" lon="20.35669">
        <ele>989.80999755859</ele>
        <time>2023-09-30T07:43:08.000Z</time>
      </trkpt>
      <trkpt lat="41.28587" lon="20.3566">
        <ele>988.84997558594</ele>
        <time>2023-09-30T07:43:07.000Z</time>
      </trkpt>
      <trkpt lat="41.28587" lon="20.35632">
        <ele>986.92999267578</ele>
        <time>2023-09-30T07:43:05.000Z</time>
      </trkpt>
      <trkpt lat="41.28585" lon="20.35617">
        <ele>985.96997070312</ele>
        <time>2023-09-30T07:43:04.000Z</time>
      </trkpt>
      <trkpt lat="41.28584" lon="20.35612">
        <ele>985.48999023438</ele>
        <time>2023-09-30T07:43:03.000Z</time>
      </trkpt>
      <trkpt lat="41.28577" lon="20.35583">
        <ele>983.09002685547</ele>
        <time>2023-09-30T07:43:01.000Z</time>
      </trkpt>
      <trkpt lat="41.28571" lon="20.35568">
        <ele>982.11999511719</ele>
        <time>2023-09-30T07:43:00.000Z</time>
      </trkpt>
      <trkpt lat="41.28566" lon="20.35559">
        <ele>981.15997314453</ele>
        <time>2023-09-30T07:42:59.000Z</time>
      </trkpt>
      <trkpt lat="41.28557" lon="20.35548">
        <ele>979.71997070312</ele>
        <time>2023-09-30T07:42:58.000Z</time>
      </trkpt>
      <trkpt lat="41.28549" lon="20.35541">
        <ele>979.71997070312</ele>
        <time>2023-09-30T07:42:57.000Z</time>
      </trkpt>
      <trkpt lat="41.2854" lon="20.35535">
        <ele>979.23999023438</ele>
        <time>2023-09-30T07:42:56.000Z</time>
      </trkpt>
      <trkpt lat="41.28537" lon="20.35534">
        <ele>979.23999023438</ele>
        <time>2023-09-30T07:42:55.000Z</time>
      </trkpt>
      <trkpt lat="41.28523" lon="20.35526">
        <ele>977.79998779297</ele>
        <time>2023-09-30T07:42:54.000Z</time>
      </trkpt>
      <trkpt lat="41.28516" lon="20.35522">
        <ele>976.84002685547</ele>
        <time>2023-09-30T07:42:53.000Z</time>
      </trkpt>
      <trkpt lat="41.2851" lon="20.35517">
        <ele>976.35998535156</ele>
        <time>2023-09-30T07:42:52.000Z</time>
      </trkpt>
      <trkpt lat="41.28507" lon="20.3551">
        <ele>975.39001464844</ele>
        <time>2023-09-30T07:42:51.000Z</time>
      </trkpt>
      <trkpt lat="41.28505" lon="20.35501">
        <ele>974.90997314453</ele>
        <time>2023-09-30T07:42:50.000Z</time>
      </trkpt>
      <trkpt lat="41.28505" lon="20.3549">
        <ele>973.95001220703</ele>
        <time>2023-09-30T07:42:49.000Z</time>
      </trkpt>
      <trkpt lat="41.28505" lon="20.3548">
        <ele>972.98999023438</ele>
        <time>2023-09-30T07:42:48.000Z</time>
      </trkpt>
      <trkpt lat="41.28506" lon="20.35467">
        <ele>972.03002929688</ele>
        <time>2023-09-30T07:42:47.000Z</time>
      </trkpt>
      <trkpt lat="41.28506" lon="20.35448">
        <ele>971.07000732422</ele>
        <time>2023-09-30T07:42:46.000Z</time>
      </trkpt>
      <trkpt lat="41.28506" lon="20.35422">
        <ele>968.66998291016</ele>
        <time>2023-09-30T07:42:44.000Z</time>
      </trkpt>
      <trkpt lat="41.28507" lon="20.35408">
        <ele>967.21997070312</ele>
        <time>2023-09-30T07:42:43.000Z</time>
      </trkpt>
      <trkpt lat="41.28508" lon="20.35395">
        <ele>965.78002929688</ele>
        <time>2023-09-30T07:42:42.000Z</time>
      </trkpt>
      <trkpt lat="41.2851" lon="20.35383">
        <ele>964.82000732422</ele>
        <time>2023-09-30T07:42:41.000Z</time>
      </trkpt>
      <trkpt lat="41.28513" lon="20.35368">
        <ele>963.85998535156</ele>
        <time>2023-09-30T07:42:40.000Z</time>
      </trkpt>
      <trkpt lat="41.28514" lon="20.3536">
        <ele>962.90002441406</ele>
        <time>2023-09-30T07:42:39.000Z</time>
      </trkpt>
      <trkpt lat="41.28517" lon="20.35343">
        <ele>961.94000244141</ele>
        <time>2023-09-30T07:42:38.000Z</time>
      </trkpt>
      <trkpt lat="41.28518" lon="20.3533">
        <ele>960.97998046875</ele>
        <time>2023-09-30T07:42:37.000Z</time>
      </trkpt>
      <trkpt lat="41.28518" lon="20.35307">
        <ele>959.53002929688</ele>
        <time>2023-09-30T07:42:35.000Z</time>
      </trkpt>
      <trkpt lat="41.28517" lon="20.35296">
        <ele>958.57000732422</ele>
        <time>2023-09-30T07:42:34.000Z</time>
      </trkpt>
      <trkpt lat="41.28514" lon="20.35286">
        <ele>957.60998535156</ele>
        <time>2023-09-30T07:42:33.000Z</time>
      </trkpt>
      <trkpt lat="41.2851" lon="20.3528">
        <ele>957.13000488281</ele>
        <time>2023-09-30T07:42:32.000Z</time>
      </trkpt>
      <trkpt lat="41.28504" lon="20.35271">
        <ele>956.16998291016</ele>
        <time>2023-09-30T07:42:31.000Z</time>
      </trkpt>
      <trkpt lat="41.28499" lon="20.35263">
        <ele>956.16998291016</ele>
        <time>2023-09-30T07:42:30.000Z</time>
      </trkpt>
      <trkpt lat="41.28496" lon="20.35253">
        <ele>955.69000244141</ele>
        <time>2023-09-30T07:42:29.000Z</time>
      </trkpt>
      <trkpt lat="41.28495" lon="20.35241">
        <ele>954.72998046875</ele>
        <time>2023-09-30T07:42:28.000Z</time>
      </trkpt>
      <trkpt lat="41.28497" lon="20.3523">
        <ele>954.25</ele>
        <time>2023-09-30T07:42:27.000Z</time>
      </trkpt>
      <trkpt lat="41.28501" lon="20.35218">
        <ele>953.28002929688</ele>
        <time>2023-09-30T07:42:26.000Z</time>
      </trkpt>
      <trkpt lat="41.28507" lon="20.35205">
        <ele>952.79998779297</ele>
        <time>2023-09-30T07:42:25.000Z</time>
      </trkpt>
      <trkpt lat="41.28508" lon="20.35202">
        <ele>952.32000732422</ele>
        <time>2023-09-30T07:42:24.000Z</time>
      </trkpt>
      <trkpt lat="41.28517" lon="20.35178">
        <ele>951.35998535156</ele>
        <time>2023-09-30T07:42:23.000Z</time>
      </trkpt>
      <trkpt lat="41.28521" lon="20.35168">
        <ele>950.88000488281</ele>
        <time>2023-09-30T07:42:22.000Z</time>
      </trkpt>
      <trkpt lat="41.28528" lon="20.35142">
        <ele>949.91998291016</ele>
        <time>2023-09-30T07:42:20.000Z</time>
      </trkpt>
      <trkpt lat="41.2853" lon="20.35135">
        <ele>949.44000244141</ele>
        <time>2023-09-30T07:42:19.000Z</time>
      </trkpt>
      <trkpt lat="41.28532" lon="20.35126">
        <ele>948.96002197266</ele>
        <time>2023-09-30T07:42:18.000Z</time>
      </trkpt>
      <trkpt lat="41.28532" lon="20.35119">
        <ele>948.47998046875</ele>
        <time>2023-09-30T07:42:17.000Z</time>
      </trkpt>
      <trkpt lat="41.28532" lon="20.35107">
        <ele>948.47998046875</ele>
        <time>2023-09-30T07:42:16.000Z</time>
      </trkpt>
      <trkpt lat="41.28532" lon="20.35105">
        <ele>948.47998046875</ele>
        <time>2023-09-30T07:42:15.000Z</time>
      </trkpt>
      <trkpt lat="41.28531" lon="20.35088">
        <ele>947.52001953125</ele>
        <time>2023-09-30T07:42:14.000Z</time>
      </trkpt>
      <trkpt lat="41.28528" lon="20.3508">
        <ele>947.03997802734</ele>
        <time>2023-09-30T07:42:13.000Z</time>
      </trkpt>
      <trkpt lat="41.28524" lon="20.35074">
        <ele>946.55999755859</ele>
        <time>2023-09-30T07:42:12.000Z</time>
      </trkpt>
      <trkpt lat="41.28521" lon="20.3507">
        <ele>946.07000732422</ele>
        <time>2023-09-30T07:42:11.000Z</time>
      </trkpt>
      <trkpt lat="41.28514" lon="20.35064">
        <ele>945.10998535156</ele>
        <time>2023-09-30T07:42:10.000Z</time>
      </trkpt>
      <trkpt lat="41.28508" lon="20.35057">
        <ele>944.15002441406</ele>
        <time>2023-09-30T07:42:09.000Z</time>
      </trkpt>
      <trkpt lat="41.28502" lon="20.35045">
        <ele>942.71002197266</ele>
        <time>2023-09-30T07:42:08.000Z</time>
      </trkpt>
      <trkpt lat="41.28497" lon="20.35033">
        <ele>941.27001953125</ele>
        <time>2023-09-30T07:42:07.000Z</time>
      </trkpt>
      <trkpt lat="41.28496" lon="20.3503">
        <ele>941.27001953125</ele>
        <time>2023-09-30T07:42:06.000Z</time>
      </trkpt>
      <trkpt lat="41.2849" lon="20.35011">
        <ele>938.85998535156</ele>
        <time>2023-09-30T07:42:05.000Z</time>
      </trkpt>
      <trkpt lat="41.28477" lon="20.34971">
        <ele>934.53997802734</ele>
        <time>2023-09-30T07:42:02.000Z</time>
      </trkpt>
      <trkpt lat="41.28474" lon="20.34964">
        <ele>933.58001708984</ele>
        <time>2023-09-30T07:42:01.000Z</time>
      </trkpt>
      <trkpt lat="41.28459" lon="20.3491">
        <ele>927.33001708984</ele>
        <time>2023-09-30T07:41:57.000Z</time>
      </trkpt>
      <trkpt lat="41.28454" lon="20.3489">
        <ele>925.40997314453</ele>
        <time>2023-09-30T07:41:56.000Z</time>
      </trkpt>
      <trkpt lat="41.28451" lon="20.34877">
        <ele>923.96002197266</ele>
        <time>2023-09-30T07:41:55.000Z</time>
      </trkpt>
      <trkpt lat="41.2845" lon="20.34867">
        <ele>923</ele>
        <time>2023-09-30T07:41:54.000Z</time>
      </trkpt>
      <trkpt lat="41.2845" lon="20.34855">
        <ele>921.55999755859</ele>
        <time>2023-09-30T07:41:53.000Z</time>
      </trkpt>
      <trkpt lat="41.28449" lon="20.34843">
        <ele>920.11999511719</ele>
        <time>2023-09-30T07:41:52.000Z</time>
      </trkpt>
      <trkpt lat="41.28446" lon="20.3483">
        <ele>918.67999267578</ele>
        <time>2023-09-30T07:41:51.000Z</time>
      </trkpt>
      <trkpt lat="41.28443" lon="20.34819">
        <ele>917.71997070312</ele>
        <time>2023-09-30T07:41:50.000Z</time>
      </trkpt>
      <trkpt lat="41.28441" lon="20.34814">
        <ele>916.75</ele>
        <time>2023-09-30T07:41:49.000Z</time>
      </trkpt>
      <trkpt lat="41.28436" lon="20.34796">
        <ele>914.34997558594</ele>
        <time>2023-09-30T07:41:48.000Z</time>
      </trkpt>
      <trkpt lat="41.28435" lon="20.3479">
        <ele>913.86999511719</ele>
        <time>2023-09-30T07:41:47.000Z</time>
      </trkpt>
      <trkpt lat="41.28431" lon="20.34767">
        <ele>912.42999267578</ele>
        <time>2023-09-30T07:41:46.000Z</time>
      </trkpt>
      <trkpt lat="41.28422" lon="20.34714">
        <ele>911.46997070312</ele>
        <time>2023-09-30T07:41:43.000Z</time>
      </trkpt>
      <trkpt lat="41.2842" lon="20.34701">
        <ele>911.46997070312</ele>
        <time>2023-09-30T07:41:42.000Z</time>
      </trkpt>
      <trkpt lat="41.28415" lon="20.34688">
        <ele>911.95001220703</ele>
        <time>2023-09-30T07:41:41.000Z</time>
      </trkpt>
      <trkpt lat="41.28408" lon="20.34676">
        <ele>911.46997070312</ele>
        <time>2023-09-30T07:41:40.000Z</time>
      </trkpt>
      <trkpt lat="41.284" lon="20.34665">
        <ele>911.95001220703</ele>
        <time>2023-09-30T07:41:39.000Z</time>
      </trkpt>
      <trkpt lat="41.28393" lon="20.34654">
        <ele>911.46997070312</ele>
        <time>2023-09-30T07:41:38.000Z</time>
      </trkpt>
      <trkpt lat="41.28385" lon="20.3464">
        <ele>911.46997070312</ele>
        <time>2023-09-30T07:41:37.000Z</time>
      </trkpt>
      <trkpt lat="41.2838" lon="20.34627">
        <ele>911.95001220703</ele>
        <time>2023-09-30T07:41:36.000Z</time>
      </trkpt>
      <trkpt lat="41.28376" lon="20.34613">
        <ele>911.46997070312</ele>
        <time>2023-09-30T07:41:35.000Z</time>
      </trkpt>
      <trkpt lat="41.28375" lon="20.346">
        <ele>911.46997070312</ele>
        <time>2023-09-30T07:41:34.000Z</time>
      </trkpt>
      <trkpt lat="41.28375" lon="20.34588">
        <ele>911.46997070312</ele>
        <time>2023-09-30T07:41:33.000Z</time>
      </trkpt>
      <trkpt lat="41.28377" lon="20.3457">
        <ele>910.51000976562</ele>
        <time>2023-09-30T07:41:32.000Z</time>
      </trkpt>
      <trkpt lat="41.28379" lon="20.34559">
        <ele>910.03002929688</ele>
        <time>2023-09-30T07:41:31.000Z</time>
      </trkpt>
      <trkpt lat="41.28384" lon="20.34538">
        <ele>908.58001708984</ele>
        <time>2023-09-30T07:41:30.000Z</time>
      </trkpt>
      <trkpt lat="41.28388" lon="20.34524">
        <ele>908.09997558594</ele>
        <time>2023-09-30T07:41:29.000Z</time>
      </trkpt>
      <trkpt lat="41.28391" lon="20.34507">
        <ele>907.14001464844</ele>
        <time>2023-09-30T07:41:28.000Z</time>
      </trkpt>
      <trkpt lat="41.28392" lon="20.34498">
        <ele>906.65997314453</ele>
        <time>2023-09-30T07:41:27.000Z</time>
      </trkpt>
      <trkpt lat="41.28393" lon="20.34476">
        <ele>905.70001220703</ele>
        <time>2023-09-30T07:41:26.000Z</time>
      </trkpt>
      <trkpt lat="41.28393" lon="20.34463">
        <ele>904.73999023438</ele>
        <time>2023-09-30T07:41:25.000Z</time>
      </trkpt>
      <trkpt lat="41.28392" lon="20.34447">
        <ele>904.26000976562</ele>
        <time>2023-09-30T07:41:24.000Z</time>
      </trkpt>
      <trkpt lat="41.2839" lon="20.34437">
        <ele>903.78002929688</ele>
        <time>2023-09-30T07:41:23.000Z</time>
      </trkpt>
      <trkpt lat="41.28385" lon="20.34421">
        <ele>902.82000732422</ele>
        <time>2023-09-30T07:41:22.000Z</time>
      </trkpt>
      <trkpt lat="41.28381" lon="20.3441">
        <ele>901.84997558594</ele>
        <time>2023-09-30T07:41:21.000Z</time>
      </trkpt>
      <trkpt lat="41.28373" lon="20.34393">
        <ele>900.40997314453</ele>
        <time>2023-09-30T07:41:19.000Z</time>
      </trkpt>
      <trkpt lat="41.28357" lon="20.34361">
        <ele>897.53002929688</ele>
        <time>2023-09-30T07:41:17.000Z</time>
      </trkpt>
      <trkpt lat="41.28352" lon="20.34351">
        <ele>896.57000732422</ele>
        <time>2023-09-30T07:41:16.000Z</time>
      </trkpt>
      <trkpt lat="41.28347" lon="20.34343">
        <ele>895.60998535156</ele>
        <time>2023-09-30T07:41:15.000Z</time>
      </trkpt>
      <trkpt lat="41.2834" lon="20.34334">
        <ele>894.15997314453</ele>
        <time>2023-09-30T07:41:14.000Z</time>
      </trkpt>
      <trkpt lat="41.28335" lon="20.34329">
        <ele>893.20001220703</ele>
        <time>2023-09-30T07:41:13.000Z</time>
      </trkpt>
      <trkpt lat="41.28327" lon="20.34322">
        <ele>892.23999023438</ele>
        <time>2023-09-30T07:41:12.000Z</time>
      </trkpt>
      <trkpt lat="41.28322" lon="20.34316">
        <ele>891.28002929688</ele>
        <time>2023-09-30T07:41:11.000Z</time>
      </trkpt>
      <trkpt lat="41.28317" lon="20.34309">
        <ele>889.84002685547</ele>
        <time>2023-09-30T07:41:10.000Z</time>
      </trkpt>
      <trkpt lat="41.28314" lon="20.343">
        <ele>888.88000488281</ele>
        <time>2023-09-30T07:41:09.000Z</time>
      </trkpt>
      <trkpt lat="41.28312" lon="20.34291">
        <ele>887.90997314453</ele>
        <time>2023-09-30T07:41:08.000Z</time>
      </trkpt>
      <trkpt lat="41.28309" lon="20.34279">
        <ele>886.46997070312</ele>
        <time>2023-09-30T07:41:07.000Z</time>
      </trkpt>
      <trkpt lat="41.28305" lon="20.34269">
        <ele>885.51000976562</ele>
        <time>2023-09-30T07:41:06.000Z</time>
      </trkpt>
      <trkpt lat="41.28301" lon="20.34259">
        <ele>884.07000732422</ele>
        <time>2023-09-30T07:41:05.000Z</time>
      </trkpt>
      <trkpt lat="41.283" lon="20.34257">
        <ele>884.07000732422</ele>
        <time>2023-09-30T07:41:04.000Z</time>
      </trkpt>
      <trkpt lat="41.28292" lon="20.34241">
        <ele>881.66998291016</ele>
        <time>2023-09-30T07:41:03.000Z</time>
      </trkpt>
      <trkpt lat="41.28288" lon="20.34233">
        <ele>881.19000244141</ele>
        <time>2023-09-30T07:41:02.000Z</time>
      </trkpt>
      <trkpt lat="41.28283" lon="20.34227">
        <ele>879.73999023438</ele>
        <time>2023-09-30T07:41:01.000Z</time>
      </trkpt>
      <trkpt lat="41.28279" lon="20.34224">
        <ele>878.78002929688</ele>
        <time>2023-09-30T07:41:00.000Z</time>
      </trkpt>
      <trkpt lat="41.28273" lon="20.3422">
        <ele>877.82000732422</ele>
        <time>2023-09-30T07:40:59.000Z</time>
      </trkpt>
      <trkpt lat="41.28268" lon="20.34215">
        <ele>876.85998535156</ele>
        <time>2023-09-30T07:40:58.000Z</time>
      </trkpt>
      <trkpt lat="41.28262" lon="20.34209">
        <ele>875.41998291016</ele>
        <time>2023-09-30T07:40:57.000Z</time>
      </trkpt>
      <trkpt lat="41.28256" lon="20.34201">
        <ele>874.46002197266</ele>
        <time>2023-09-30T07:40:56.000Z</time>
      </trkpt>
      <trkpt lat="41.28249" lon="20.34192">
        <ele>872.53002929688</ele>
        <time>2023-09-30T07:40:55.000Z</time>
      </trkpt>
      <trkpt lat="41.28246" lon="20.34186">
        <ele>872.04998779297</ele>
        <time>2023-09-30T07:40:54.000Z</time>
      </trkpt>
      <trkpt lat="41.28244" lon="20.34181">
        <ele>871.09002685547</ele>
        <time>2023-09-30T07:40:53.000Z</time>
      </trkpt>
      <trkpt lat="41.28235" lon="20.34164">
        <ele>869.16998291016</ele>
        <time>2023-09-30T07:40:52.000Z</time>
      </trkpt>
      <trkpt lat="41.28231" lon="20.34154">
        <ele>868.21002197266</ele>
        <time>2023-09-30T07:40:51.000Z</time>
      </trkpt>
      <trkpt lat="41.28226" lon="20.34144">
        <ele>866.77001953125</ele>
        <time>2023-09-30T07:40:50.000Z</time>
      </trkpt>
      <trkpt lat="41.28222" lon="20.34136">
        <ele>865.32000732422</ele>
        <time>2023-09-30T07:40:49.000Z</time>
      </trkpt>
      <trkpt lat="41.28219" lon="20.3413">
        <ele>864.84002685547</ele>
        <time>2023-09-30T07:40:48.000Z</time>
      </trkpt>
      <trkpt lat="41.28215" lon="20.34119">
        <ele>862.91998291016</ele>
        <time>2023-09-30T07:40:47.000Z</time>
      </trkpt>
      <trkpt lat="41.28213" lon="20.3411">
        <ele>861.47998046875</ele>
        <time>2023-09-30T07:40:46.000Z</time>
      </trkpt>
      <trkpt lat="41.28211" lon="20.341">
        <ele>860.52001953125</ele>
        <time>2023-09-30T07:40:45.000Z</time>
      </trkpt>
      <trkpt lat="41.28208" lon="20.3409">
        <ele>858.59002685547</ele>
        <time>2023-09-30T07:40:44.000Z</time>
      </trkpt>
      <trkpt lat="41.28206" lon="20.34084">
        <ele>858.10998535156</ele>
        <time>2023-09-30T07:40:43.000Z</time>
      </trkpt>
      <trkpt lat="41.28196" lon="20.34062">
        <ele>854.75</ele>
        <time>2023-09-30T07:40:41.000Z</time>
      </trkpt>
      <trkpt lat="41.2819" lon="20.34053">
        <ele>852.83001708984</ele>
        <time>2023-09-30T07:40:40.000Z</time>
      </trkpt>
      <trkpt lat="41.28184" lon="20.34044">
        <ele>851.38000488281</ele>
        <time>2023-09-30T07:40:39.000Z</time>
      </trkpt>
      <trkpt lat="41.28179" lon="20.34038">
        <ele>850.41998291016</ele>
        <time>2023-09-30T07:40:38.000Z</time>
      </trkpt>
      <trkpt lat="41.28173" lon="20.34031">
        <ele>849.46002197266</ele>
        <time>2023-09-30T07:40:37.000Z</time>
      </trkpt>
      <trkpt lat="41.28169" lon="20.34021">
        <ele>848.5</ele>
        <time>2023-09-30T07:40:36.000Z</time>
      </trkpt>
      <trkpt lat="41.28165" lon="20.34011">
        <ele>847.53997802734</ele>
        <time>2023-09-30T07:40:35.000Z</time>
      </trkpt>
      <trkpt lat="41.28164" lon="20.34">
        <ele>846.58001708984</ele>
        <time>2023-09-30T07:40:34.000Z</time>
      </trkpt>
      <trkpt lat="41.28164" lon="20.3399">
        <ele>845.14001464844</ele>
        <time>2023-09-30T07:40:33.000Z</time>
      </trkpt>
      <trkpt lat="41.28165" lon="20.33979">
        <ele>844.17999267578</ele>
        <time>2023-09-30T07:40:32.000Z</time>
      </trkpt>
      <trkpt lat="41.28168" lon="20.33969">
        <ele>842.72998046875</ele>
        <time>2023-09-30T07:40:31.000Z</time>
      </trkpt>
      <trkpt lat="41.28171" lon="20.3396">
        <ele>841.28997802734</ele>
        <time>2023-09-30T07:40:30.000Z</time>
      </trkpt>
      <trkpt lat="41.28174" lon="20.33953">
        <ele>840.33001708984</ele>
        <time>2023-09-30T07:40:29.000Z</time>
      </trkpt>
      <trkpt lat="41.28176" lon="20.3395">
        <ele>840.33001708984</ele>
        <time>2023-09-30T07:40:28.000Z</time>
      </trkpt>
      <trkpt lat="41.28185" lon="20.33934">
        <ele>838.40997314453</ele>
        <time>2023-09-30T07:40:27.000Z</time>
      </trkpt>
      <trkpt lat="41.28188" lon="20.33924">
        <ele>837.45001220703</ele>
        <time>2023-09-30T07:40:26.000Z</time>
      </trkpt>
      <trkpt lat="41.28189" lon="20.33916">
        <ele>836.96002197266</ele>
        <time>2023-09-30T07:40:25.000Z</time>
      </trkpt>
      <trkpt lat="41.28191" lon="20.33903">
        <ele>835.52001953125</ele>
        <time>2023-09-30T07:40:24.000Z</time>
      </trkpt>
      <trkpt lat="41.28191" lon="20.33892">
        <ele>834.55999755859</ele>
        <time>2023-09-30T07:40:23.000Z</time>
      </trkpt>
      <trkpt lat="41.28189" lon="20.33883">
        <ele>833.11999511719</ele>
        <time>2023-09-30T07:40:22.000Z</time>
      </trkpt>
      <trkpt lat="41.28185" lon="20.33874">
        <ele>832.15997314453</ele>
        <time>2023-09-30T07:40:21.000Z</time>
      </trkpt>
      <trkpt lat="41.2818" lon="20.33866">
        <ele>831.67999267578</ele>
        <time>2023-09-30T07:40:20.000Z</time>
      </trkpt>
      <trkpt lat="41.28173" lon="20.33861">
        <ele>830.71997070312</ele>
        <time>2023-09-30T07:40:19.000Z</time>
      </trkpt>
      <trkpt lat="41.28165" lon="20.33859">
        <ele>829.76000976562</ele>
        <time>2023-09-30T07:40:18.000Z</time>
      </trkpt>
      <trkpt lat="41.28157" lon="20.33859">
        <ele>828.78997802734</ele>
        <time>2023-09-30T07:40:17.000Z</time>
      </trkpt>
      <trkpt lat="41.28149" lon="20.33862">
        <ele>827.83001708984</ele>
        <time>2023-09-30T07:40:16.000Z</time>
      </trkpt>
      <trkpt lat="41.28142" lon="20.33867">
        <ele>827.34997558594</ele>
        <time>2023-09-30T07:40:15.000Z</time>
      </trkpt>
      <trkpt lat="41.28135" lon="20.33874">
        <ele>826.39001464844</ele>
        <time>2023-09-30T07:40:14.000Z</time>
      </trkpt>
      <trkpt lat="41.28128" lon="20.33882">
        <ele>824.95001220703</ele>
        <time>2023-09-30T07:40:13.000Z</time>
      </trkpt>
      <trkpt lat="41.28127" lon="20.33884">
        <ele>824.95001220703</ele>
        <time>2023-09-30T07:40:12.000Z</time>
      </trkpt>
      <trkpt lat="41.28106" lon="20.33913">
        <ele>822.54998779297</ele>
        <time>2023-09-30T07:40:09.000Z</time>
      </trkpt>
      <trkpt lat="41.28093" lon="20.33928">
        <ele>821.09997558594</ele>
        <time>2023-09-30T07:40:08.000Z</time>
      </trkpt>
      <trkpt lat="41.28086" lon="20.33935">
        <ele>820.61999511719</ele>
        <time>2023-09-30T07:40:07.000Z</time>
      </trkpt>
      <trkpt lat="41.28078" lon="20.33939">
        <ele>820.14001464844</ele>
        <time>2023-09-30T07:40:06.000Z</time>
      </trkpt>
      <trkpt lat="41.28069" lon="20.33942">
        <ele>819.65997314453</ele>
        <time>2023-09-30T07:40:05.000Z</time>
      </trkpt>
      <trkpt lat="41.2806" lon="20.33941">
        <ele>819.17999267578</ele>
        <time>2023-09-30T07:40:04.000Z</time>
      </trkpt>
      <trkpt lat="41.28051" lon="20.33939">
        <ele>818.70001220703</ele>
        <time>2023-09-30T07:40:03.000Z</time>
      </trkpt>
      <trkpt lat="41.28046" lon="20.33937">
        <ele>818.21997070312</ele>
        <time>2023-09-30T07:40:02.000Z</time>
      </trkpt>
      <trkpt lat="41.28035" lon="20.33929">
        <ele>817.26000976562</ele>
        <time>2023-09-30T07:40:01.000Z</time>
      </trkpt>
      <trkpt lat="41.28028" lon="20.33921">
        <ele>816.29998779297</ele>
        <time>2023-09-30T07:40:00.000Z</time>
      </trkpt>
      <trkpt lat="41.28024" lon="20.33916">
        <ele>815.34002685547</ele>
        <time>2023-09-30T07:39:59.000Z</time>
      </trkpt>
      <trkpt lat="41.28014" lon="20.33902">
        <ele>813.89001464844</ele>
        <time>2023-09-30T07:39:57.000Z</time>
      </trkpt>
      <trkpt lat="41.27995" lon="20.33878">
        <ele>809.57000732422</ele>
        <time>2023-09-30T07:39:54.000Z</time>
      </trkpt>
      <trkpt lat="41.27991" lon="20.33874">
        <ele>808.60998535156</ele>
        <time>2023-09-30T07:39:53.000Z</time>
      </trkpt>
      <trkpt lat="41.27985" lon="20.3387">
        <ele>807.64001464844</ele>
        <time>2023-09-30T07:39:52.000Z</time>
      </trkpt>
      <trkpt lat="41.27975" lon="20.33864">
        <ele>805.23999023438</ele>
        <time>2023-09-30T07:39:51.000Z</time>
      </trkpt>
      <trkpt lat="41.27967" lon="20.33858">
        <ele>804.28002929688</ele>
        <time>2023-09-30T07:39:50.000Z</time>
      </trkpt>
      <trkpt lat="41.27949" lon="20.33847">
        <ele>801.40002441406</ele>
        <time>2023-09-30T07:39:48.000Z</time>
      </trkpt>
      <trkpt lat="41.27937" lon="20.3384">
        <ele>799.95001220703</ele>
        <time>2023-09-30T07:39:46.000Z</time>
      </trkpt>
      <trkpt lat="41.27922" lon="20.33828">
        <ele>797.54998779297</ele>
        <time>2023-09-30T07:39:45.000Z</time>
      </trkpt>
      <trkpt lat="41.27913" lon="20.33823">
        <ele>796.59002685547</ele>
        <time>2023-09-30T07:39:44.000Z</time>
      </trkpt>
      <trkpt lat="41.27904" lon="20.3382">
        <ele>796.10998535156</ele>
        <time>2023-09-30T07:39:43.000Z</time>
      </trkpt>
      <trkpt lat="41.27902" lon="20.33819">
        <ele>795.63000488281</ele>
        <time>2023-09-30T07:39:42.000Z</time>
      </trkpt>
      <trkpt lat="41.27884" lon="20.33817">
        <ele>793.71002197266</ele>
        <time>2023-09-30T07:39:41.000Z</time>
      </trkpt>
      <trkpt lat="41.27875" lon="20.33814">
        <ele>792.73999023438</ele>
        <time>2023-09-30T07:39:40.000Z</time>
      </trkpt>
      <trkpt lat="41.27867" lon="20.3381">
        <ele>791.78002929688</ele>
        <time>2023-09-30T07:39:39.000Z</time>
      </trkpt>
      <trkpt lat="41.27851" lon="20.338">
        <ele>789.85998535156</ele>
        <time>2023-09-30T07:39:37.000Z</time>
      </trkpt>
      <trkpt lat="41.27837" lon="20.3379">
        <ele>787.46002197266</ele>
        <time>2023-09-30T07:39:35.000Z</time>
      </trkpt>
      <trkpt lat="41.27828" lon="20.33785">
        <ele>786.02001953125</ele>
        <time>2023-09-30T07:39:34.000Z</time>
      </trkpt>
      <trkpt lat="41.27819" lon="20.3378">
        <ele>784.57000732422</ele>
        <time>2023-09-30T07:39:33.000Z</time>
      </trkpt>
      <trkpt lat="41.27818" lon="20.33779">
        <ele>784.57000732422</ele>
        <time>2023-09-30T07:39:32.000Z</time>
      </trkpt>
      <trkpt lat="41.27772" lon="20.3376">
        <ele>779.77001953125</ele>
        <time>2023-09-30T07:39:28.000Z</time>
      </trkpt>
      <trkpt lat="41.27763" lon="20.33753">
        <ele>778.80999755859</ele>
        <time>2023-09-30T07:39:27.000Z</time>
      </trkpt>
      <trkpt lat="41.27755" lon="20.33745">
        <ele>777.35998535156</ele>
        <time>2023-09-30T07:39:26.000Z</time>
      </trkpt>
      <trkpt lat="41.27746" lon="20.33734">
        <ele>775.44000244141</ele>
        <time>2023-09-30T07:39:24.000Z</time>
      </trkpt>
      <trkpt lat="41.27738" lon="20.33724">
        <ele>774</ele>
        <time>2023-09-30T07:39:23.000Z</time>
      </trkpt>
      <trkpt lat="41.27722" lon="20.33702">
        <ele>770.63000488281</ele>
        <time>2023-09-30T07:39:21.000Z</time>
      </trkpt>
      <trkpt lat="41.27718" lon="20.33694">
        <ele>769.19000244141</ele>
        <time>2023-09-30T07:39:20.000Z</time>
      </trkpt>
      <trkpt lat="41.27714" lon="20.33685">
        <ele>767.75</ele>
        <time>2023-09-30T07:39:19.000Z</time>
      </trkpt>
      <trkpt lat="41.27711" lon="20.33675">
        <ele>766.78997802734</ele>
        <time>2023-09-30T07:39:18.000Z</time>
      </trkpt>
      <trkpt lat="41.2771" lon="20.33667">
        <ele>765.83001708984</ele>
        <time>2023-09-30T07:39:17.000Z</time>
      </trkpt>
      <trkpt lat="41.27707" lon="20.33655">
        <ele>764.39001464844</ele>
        <time>2023-09-30T07:39:16.000Z</time>
      </trkpt>
      <trkpt lat="41.27704" lon="20.33645">
        <ele>763.41998291016</ele>
        <time>2023-09-30T07:39:15.000Z</time>
      </trkpt>
      <trkpt lat="41.27702" lon="20.33641">
        <ele>762.94000244141</ele>
        <time>2023-09-30T07:39:14.000Z</time>
      </trkpt>
      <trkpt lat="41.27695" lon="20.33631">
        <ele>761.02001953125</ele>
        <time>2023-09-30T07:39:13.000Z</time>
      </trkpt>
      <trkpt lat="41.27692" lon="20.33624">
        <ele>760.53997802734</ele>
        <time>2023-09-30T07:39:12.000Z</time>
      </trkpt>
      <trkpt lat="41.27689" lon="20.33616">
        <ele>759.09997558594</ele>
        <time>2023-09-30T07:39:11.000Z</time>
      </trkpt>
      <trkpt lat="41.27688" lon="20.33607">
        <ele>758.14001464844</ele>
        <time>2023-09-30T07:39:10.000Z</time>
      </trkpt>
      <trkpt lat="41.27686" lon="20.33598">
        <ele>757.17999267578</ele>
        <time>2023-09-30T07:39:09.000Z</time>
      </trkpt>
      <trkpt lat="41.27684" lon="20.33586">
        <ele>755.25</ele>
        <time>2023-09-30T07:39:08.000Z</time>
      </trkpt>
      <trkpt lat="41.27682" lon="20.33576">
        <ele>754.28997802734</ele>
        <time>2023-09-30T07:39:07.000Z</time>
      </trkpt>
      <trkpt lat="41.27682" lon="20.33567">
        <ele>752.84997558594</ele>
        <time>2023-09-30T07:39:06.000Z</time>
      </trkpt>
      <trkpt lat="41.27682" lon="20.33554">
        <ele>751.40997314453</ele>
        <time>2023-09-30T07:39:05.000Z</time>
      </trkpt>
      <trkpt lat="41.27681" lon="20.33543">
        <ele>749.96997070312</ele>
        <time>2023-09-30T07:39:04.000Z</time>
      </trkpt>
      <trkpt lat="41.27677" lon="20.3351">
        <ele>745.64001464844</ele>
        <time>2023-09-30T07:39:01.000Z</time>
      </trkpt>
      <trkpt lat="41.27674" lon="20.335">
        <ele>744.20001220703</ele>
        <time>2023-09-30T07:39:00.000Z</time>
      </trkpt>
      <trkpt lat="41.27671" lon="20.33492">
        <ele>742.76000976562</ele>
        <time>2023-09-30T07:38:59.000Z</time>
      </trkpt>
      <trkpt lat="41.27666" lon="20.33484">
        <ele>741.30999755859</ele>
        <time>2023-09-30T07:38:58.000Z</time>
      </trkpt>
      <trkpt lat="41.2766" lon="20.33477">
        <ele>739.86999511719</ele>
        <time>2023-09-30T07:38:57.000Z</time>
      </trkpt>
      <trkpt lat="41.27654" lon="20.33471">
        <ele>738.42999267578</ele>
        <time>2023-09-30T07:38:56.000Z</time>
      </trkpt>
      <trkpt lat="41.27649" lon="20.33466">
        <ele>736.98999023438</ele>
        <time>2023-09-30T07:38:55.000Z</time>
      </trkpt>
      <trkpt lat="41.27636" lon="20.33455">
        <ele>734.58001708984</ele>
        <time>2023-09-30T07:38:53.000Z</time>
      </trkpt>
      <trkpt lat="41.27628" lon="20.3345">
        <ele>733.61999511719</ele>
        <time>2023-09-30T07:38:52.000Z</time>
      </trkpt>
      <trkpt lat="41.27621" lon="20.33446">
        <ele>732.65997314453</ele>
        <time>2023-09-30T07:38:51.000Z</time>
      </trkpt>
      <trkpt lat="41.27613" lon="20.33444">
        <ele>731.70001220703</ele>
        <time>2023-09-30T07:38:50.000Z</time>
      </trkpt>
      <trkpt lat="41.27606" lon="20.33443">
        <ele>730.73999023438</ele>
        <time>2023-09-30T07:38:49.000Z</time>
      </trkpt>
      <trkpt lat="41.27598" lon="20.33443">
        <ele>729.78002929688</ele>
        <time>2023-09-30T07:38:48.000Z</time>
      </trkpt>
      <trkpt lat="41.27589" lon="20.33442">
        <ele>729.29998779297</ele>
        <time>2023-09-30T07:38:47.000Z</time>
      </trkpt>
      <trkpt lat="41.27581" lon="20.33439">
        <ele>728.34002685547</ele>
        <time>2023-09-30T07:38:46.000Z</time>
      </trkpt>
      <trkpt lat="41.27577" lon="20.33436">
        <ele>727.85998535156</ele>
        <time>2023-09-30T07:38:45.000Z</time>
      </trkpt>
      <trkpt lat="41.27566" lon="20.33427">
        <ele>726.40997314453</ele>
        <time>2023-09-30T07:38:44.000Z</time>
      </trkpt>
      <trkpt lat="41.27564" lon="20.33426">
        <ele>725.92999267578</ele>
        <time>2023-09-30T07:38:43.000Z</time>
      </trkpt>
      <trkpt lat="41.27551" lon="20.33416">
        <ele>724.48999023438</ele>
        <time>2023-09-30T07:38:42.000Z</time>
      </trkpt>
      <trkpt lat="41.27545" lon="20.33411">
        <ele>723.53002929688</ele>
        <time>2023-09-30T07:38:41.000Z</time>
      </trkpt>
      <trkpt lat="41.27541" lon="20.33402">
        <ele>722.57000732422</ele>
        <time>2023-09-30T07:38:40.000Z</time>
      </trkpt>
      <trkpt lat="41.27537" lon="20.33392">
        <ele>721.13000488281</ele>
        <time>2023-09-30T07:38:39.000Z</time>
      </trkpt>
      <trkpt lat="41.27536" lon="20.33384">
        <ele>720.15997314453</ele>
        <time>2023-09-30T07:38:38.000Z</time>
      </trkpt>
      <trkpt lat="41.27534" lon="20.33374">
        <ele>719.20001220703</ele>
        <time>2023-09-30T07:38:37.000Z</time>
      </trkpt>
      <trkpt lat="41.27532" lon="20.33351">
        <ele>716.79998779297</ele>
        <time>2023-09-30T07:38:35.000Z</time>
      </trkpt>
      <trkpt lat="41.27529" lon="20.33342">
        <ele>715.84002685547</ele>
        <time>2023-09-30T07:38:34.000Z</time>
      </trkpt>
      <trkpt lat="41.27526" lon="20.33336">
        <ele>714.88000488281</ele>
        <time>2023-09-30T07:38:33.000Z</time>
      </trkpt>
      <trkpt lat="41.27522" lon="20.33332">
        <ele>713.91998291016</ele>
        <time>2023-09-30T07:38:32.000Z</time>
      </trkpt>
      <trkpt lat="41.27514" lon="20.33324">
        <ele>713.44000244141</ele>
        <time>2023-09-30T07:38:31.000Z</time>
      </trkpt>
      <trkpt lat="41.27506" lon="20.33315">
        <ele>712.46997070312</ele>
        <time>2023-09-30T07:38:30.000Z</time>
      </trkpt>
      <trkpt lat="41.27499" lon="20.33307">
        <ele>711.51000976562</ele>
        <time>2023-09-30T07:38:29.000Z</time>
      </trkpt>
      <trkpt lat="41.27492" lon="20.33296">
        <ele>710.54998779297</ele>
        <time>2023-09-30T07:38:28.000Z</time>
      </trkpt>
      <trkpt lat="41.27488" lon="20.33288">
        <ele>710.07000732422</ele>
        <time>2023-09-30T07:38:27.000Z</time>
      </trkpt>
      <trkpt lat="41.27478" lon="20.33264">
        <ele>708.63000488281</ele>
        <time>2023-09-30T07:38:25.000Z</time>
      </trkpt>
      <trkpt lat="41.27474" lon="20.33258">
        <ele>708.15002441406</ele>
        <time>2023-09-30T07:38:24.000Z</time>
      </trkpt>
      <trkpt lat="41.27466" lon="20.3325">
        <ele>707.66998291016</ele>
        <time>2023-09-30T07:38:23.000Z</time>
      </trkpt>
      <trkpt lat="41.2746" lon="20.33246">
        <ele>707.19000244141</ele>
        <time>2023-09-30T07:38:22.000Z</time>
      </trkpt>
      <trkpt lat="41.27451" lon="20.33242">
        <ele>706.71002197266</ele>
        <time>2023-09-30T07:38:21.000Z</time>
      </trkpt>
      <trkpt lat="41.27445" lon="20.33239">
        <ele>706.22998046875</ele>
        <time>2023-09-30T07:38:20.000Z</time>
      </trkpt>
      <trkpt lat="41.2744" lon="20.33234">
        <ele>705.75</ele>
        <time>2023-09-30T07:38:19.000Z</time>
      </trkpt>
      <trkpt lat="41.27435" lon="20.33229">
        <ele>704.78002929688</ele>
        <time>2023-09-30T07:38:18.000Z</time>
      </trkpt>
      <trkpt lat="41.2743" lon="20.33222">
        <ele>703.82000732422</ele>
        <time>2023-09-30T07:38:17.000Z</time>
      </trkpt>
      <trkpt lat="41.27424" lon="20.33215">
        <ele>702.85998535156</ele>
        <time>2023-09-30T07:38:16.000Z</time>
      </trkpt>
      <trkpt lat="41.27417" lon="20.33209">
        <ele>702.38000488281</ele>
        <time>2023-09-30T07:38:15.000Z</time>
      </trkpt>
      <trkpt lat="41.27409" lon="20.33202">
        <ele>700.94000244141</ele>
        <time>2023-09-30T07:38:14.000Z</time>
      </trkpt>
      <trkpt lat="41.27403" lon="20.33195">
        <ele>700.46002197266</ele>
        <time>2023-09-30T07:38:13.000Z</time>
      </trkpt>
      <trkpt lat="41.27399" lon="20.33188">
        <ele>699.97998046875</ele>
        <time>2023-09-30T07:38:12.000Z</time>
      </trkpt>
      <trkpt lat="41.27387" lon="20.33165">
        <ele>698.04998779297</ele>
        <time>2023-09-30T07:38:10.000Z</time>
      </trkpt>
      <trkpt lat="41.27379" lon="20.33156">
        <ele>697.09002685547</ele>
        <time>2023-09-30T07:38:09.000Z</time>
      </trkpt>
      <trkpt lat="41.27375" lon="20.33152">
        <ele>697.09002685547</ele>
        <time>2023-09-30T07:38:08.000Z</time>
      </trkpt>
      <trkpt lat="41.27363" lon="20.33142">
        <ele>696.13000488281</ele>
        <time>2023-09-30T07:38:07.000Z</time>
      </trkpt>
      <trkpt lat="41.27355" lon="20.33133">
        <ele>695.65002441406</ele>
        <time>2023-09-30T07:38:06.000Z</time>
      </trkpt>
      <trkpt lat="41.27349" lon="20.33124">
        <ele>695.16998291016</ele>
        <time>2023-09-30T07:38:05.000Z</time>
      </trkpt>
      <trkpt lat="41.27345" lon="20.33114">
        <ele>694.21002197266</ele>
        <time>2023-09-30T07:38:04.000Z</time>
      </trkpt>
      <trkpt lat="41.27343" lon="20.33105">
        <ele>693.72998046875</ele>
        <time>2023-09-30T07:38:03.000Z</time>
      </trkpt>
      <trkpt lat="41.27342" lon="20.33099">
        <ele>693.25</ele>
        <time>2023-09-30T07:38:02.000Z</time>
      </trkpt>
      <trkpt lat="41.27341" lon="20.33082">
        <ele>692.28997802734</ele>
        <time>2023-09-30T07:38:01.000Z</time>
      </trkpt>
      <trkpt lat="41.27338" lon="20.33071">
        <ele>691.80999755859</ele>
        <time>2023-09-30T07:38:00.000Z</time>
      </trkpt>
      <trkpt lat="41.27333" lon="20.3306">
        <ele>690.35998535156</ele>
        <time>2023-09-30T07:37:59.000Z</time>
      </trkpt>
      <trkpt lat="41.27328" lon="20.33048">
        <ele>689.40002441406</ele>
        <time>2023-09-30T07:37:57.000Z</time>
      </trkpt>
      <trkpt lat="41.2732" lon="20.33033">
        <ele>687.96002197266</ele>
        <time>2023-09-30T07:37:56.000Z</time>
      </trkpt>
      <trkpt lat="41.27315" lon="20.33026">
        <ele>687.47998046875</ele>
        <time>2023-09-30T07:37:55.000Z</time>
      </trkpt>
      <trkpt lat="41.27309" lon="20.33019">
        <ele>687</ele>
        <time>2023-09-30T07:37:54.000Z</time>
      </trkpt>
      <trkpt lat="41.27301" lon="20.33013">
        <ele>686.52001953125</ele>
        <time>2023-09-30T07:37:53.000Z</time>
      </trkpt>
      <trkpt lat="41.27285" lon="20.33004">
        <ele>685.55999755859</ele>
        <time>2023-09-30T07:37:51.000Z</time>
      </trkpt>
      <trkpt lat="41.27276" lon="20.33">
        <ele>685.55999755859</ele>
        <time>2023-09-30T07:37:50.000Z</time>
      </trkpt>
      <trkpt lat="41.27268" lon="20.32999">
        <ele>685.08001708984</ele>
        <time>2023-09-30T07:37:49.000Z</time>
      </trkpt>
      <trkpt lat="41.2726" lon="20.32998">
        <ele>685.55999755859</ele>
        <time>2023-09-30T07:37:48.000Z</time>
      </trkpt>
      <trkpt lat="41.27252" lon="20.32998">
        <ele>685.08001708984</ele>
        <time>2023-09-30T07:37:47.000Z</time>
      </trkpt>
      <trkpt lat="41.27244" lon="20.32999">
        <ele>685.08001708984</ele>
        <time>2023-09-30T07:37:46.000Z</time>
      </trkpt>
      <trkpt lat="41.27237" lon="20.32998">
        <ele>685.08001708984</ele>
        <time>2023-09-30T07:37:45.000Z</time>
      </trkpt>
      <trkpt lat="41.27231" lon="20.32996">
        <ele>685.08001708984</ele>
        <time>2023-09-30T07:37:44.000Z</time>
      </trkpt>
      <trkpt lat="41.27226" lon="20.32991">
        <ele>685.08001708984</ele>
        <time>2023-09-30T07:37:43.000Z</time>
      </trkpt>
      <trkpt lat="41.27223" lon="20.32986">
        <ele>685.08001708984</ele>
        <time>2023-09-30T07:37:42.000Z</time>
      </trkpt>
      <trkpt lat="41.27222" lon="20.3298">
        <ele>685.08001708984</ele>
        <time>2023-09-30T07:37:41.000Z</time>
      </trkpt>
      <trkpt lat="41.27223" lon="20.32973">
        <ele>685.08001708984</ele>
        <time>2023-09-30T07:37:40.000Z</time>
      </trkpt>
      <trkpt lat="41.27224" lon="20.3297">
        <ele>685.08001708984</ele>
        <time>2023-09-30T07:37:39.000Z</time>
      </trkpt>
      <trkpt lat="41.27242" lon="20.32935">
        <ele>685.08001708984</ele>
        <time>2023-09-30T07:37:36.000Z</time>
      </trkpt>
      <trkpt lat="41.27252" lon="20.32917">
        <ele>685.08001708984</ele>
        <time>2023-09-30T07:37:34.000Z</time>
      </trkpt>
      <trkpt lat="41.27258" lon="20.32906">
        <ele>684.59997558594</ele>
        <time>2023-09-30T07:37:33.000Z</time>
      </trkpt>
      <trkpt lat="41.27261" lon="20.32896">
        <ele>684.59997558594</ele>
        <time>2023-09-30T07:37:32.000Z</time>
      </trkpt>
      <trkpt lat="41.27263" lon="20.32886">
        <ele>684.59997558594</ele>
        <time>2023-09-30T07:37:31.000Z</time>
      </trkpt>
      <trkpt lat="41.27263" lon="20.32876">
        <ele>684.59997558594</ele>
        <time>2023-09-30T07:37:30.000Z</time>
      </trkpt>
      <trkpt lat="41.2726" lon="20.32866">
        <ele>684.11999511719</ele>
        <time>2023-09-30T07:37:29.000Z</time>
      </trkpt>
      <trkpt lat="41.27256" lon="20.32857">
        <ele>683.15002441406</ele>
        <time>2023-09-30T07:37:28.000Z</time>
      </trkpt>
      <trkpt lat="41.27251" lon="20.32848">
        <ele>683.15002441406</ele>
        <time>2023-09-30T07:37:27.000Z</time>
      </trkpt>
      <trkpt lat="41.27247" lon="20.32842">
        <ele>683.15002441406</ele>
        <time>2023-09-30T07:37:26.000Z</time>
      </trkpt>
      <trkpt lat="41.27239" lon="20.32833">
        <ele>683.15002441406</ele>
        <time>2023-09-30T07:37:25.000Z</time>
      </trkpt>
      <trkpt lat="41.27232" lon="20.32826">
        <ele>683.15002441406</ele>
        <time>2023-09-30T07:37:24.000Z</time>
      </trkpt>
      <trkpt lat="41.27224" lon="20.32821">
        <ele>682.66998291016</ele>
        <time>2023-09-30T07:37:23.000Z</time>
      </trkpt>
      <trkpt lat="41.27218" lon="20.32819">
        <ele>682.66998291016</ele>
        <time>2023-09-30T07:37:22.000Z</time>
      </trkpt>
      <trkpt lat="41.27209" lon="20.32818">
        <ele>682.19000244141</ele>
        <time>2023-09-30T07:37:21.000Z</time>
      </trkpt>
      <trkpt lat="41.27202" lon="20.32816">
        <ele>682.19000244141</ele>
        <time>2023-09-30T07:37:20.000Z</time>
      </trkpt>
      <trkpt lat="41.27197" lon="20.32811">
        <ele>682.19000244141</ele>
        <time>2023-09-30T07:37:19.000Z</time>
      </trkpt>
      <trkpt lat="41.27193" lon="20.32805">
        <ele>682.19000244141</ele>
        <time>2023-09-30T07:37:18.000Z</time>
      </trkpt>
      <trkpt lat="41.2719" lon="20.32796">
        <ele>682.19000244141</ele>
        <time>2023-09-30T07:37:17.000Z</time>
      </trkpt>
      <trkpt lat="41.2719" lon="20.32786">
        <ele>682.19000244141</ele>
        <time>2023-09-30T07:37:16.000Z</time>
      </trkpt>
      <trkpt lat="41.2719" lon="20.32782">
        <ele>682.19000244141</ele>
        <time>2023-09-30T07:37:15.000Z</time>
      </trkpt>
      <trkpt lat="41.27191" lon="20.32765">
        <ele>682.66998291016</ele>
        <time>2023-09-30T07:37:14.000Z</time>
      </trkpt>
      <trkpt lat="41.27191" lon="20.32752">
        <ele>682.66998291016</ele>
        <time>2023-09-30T07:37:13.000Z</time>
      </trkpt>
      <trkpt lat="41.2719" lon="20.32743">
        <ele>683.15002441406</ele>
        <time>2023-09-30T07:37:12.000Z</time>
      </trkpt>
      <trkpt lat="41.27187" lon="20.32733">
        <ele>683.15002441406</ele>
        <time>2023-09-30T07:37:11.000Z</time>
      </trkpt>
      <trkpt lat="41.27182" lon="20.32724">
        <ele>683.15002441406</ele>
        <time>2023-09-30T07:37:10.000Z</time>
      </trkpt>
      <trkpt lat="41.27177" lon="20.32717">
        <ele>683.63000488281</ele>
        <time>2023-09-30T07:37:09.000Z</time>
      </trkpt>
      <trkpt lat="41.27169" lon="20.32711">
        <ele>683.63000488281</ele>
        <time>2023-09-30T07:37:08.000Z</time>
      </trkpt>
      <trkpt lat="41.27163" lon="20.32708">
        <ele>683.63000488281</ele>
        <time>2023-09-30T07:37:07.000Z</time>
      </trkpt>
      <trkpt lat="41.27157" lon="20.32706">
        <ele>683.63000488281</ele>
        <time>2023-09-30T07:37:06.000Z</time>
      </trkpt>
      <trkpt lat="41.27149" lon="20.32705">
        <ele>684.11999511719</ele>
        <time>2023-09-30T07:37:05.000Z</time>
      </trkpt>
      <trkpt lat="41.27143" lon="20.32704">
        <ele>684.11999511719</ele>
        <time>2023-09-30T07:37:04.000Z</time>
      </trkpt>
      <trkpt lat="41.27137" lon="20.32702">
        <ele>684.11999511719</ele>
        <time>2023-09-30T07:37:03.000Z</time>
      </trkpt>
      <trkpt lat="41.27131" lon="20.32697">
        <ele>684.11999511719</ele>
        <time>2023-09-30T07:37:02.000Z</time>
      </trkpt>
      <trkpt lat="41.27125" lon="20.3269">
        <ele>683.63000488281</ele>
        <time>2023-09-30T07:37:01.000Z</time>
      </trkpt>
      <trkpt lat="41.27121" lon="20.3268">
        <ele>683.63000488281</ele>
        <time>2023-09-30T07:37:00.000Z</time>
      </trkpt>
      <trkpt lat="41.27119" lon="20.3267">
        <ele>683.63000488281</ele>
        <time>2023-09-30T07:36:59.000Z</time>
      </trkpt>
      <trkpt lat="41.27118" lon="20.32658">
        <ele>684.11999511719</ele>
        <time>2023-09-30T07:36:58.000Z</time>
      </trkpt>
      <trkpt lat="41.27119" lon="20.32645">
        <ele>684.11999511719</ele>
        <time>2023-09-30T07:36:57.000Z</time>
      </trkpt>
      <trkpt lat="41.27121" lon="20.32632">
        <ele>684.11999511719</ele>
        <time>2023-09-30T07:36:56.000Z</time>
      </trkpt>
      <trkpt lat="41.27122" lon="20.32626">
        <ele>684.11999511719</ele>
        <time>2023-09-30T07:36:55.000Z</time>
      </trkpt>
      <trkpt lat="41.27128" lon="20.32606">
        <ele>684.59997558594</ele>
        <time>2023-09-30T07:36:54.000Z</time>
      </trkpt>
      <trkpt lat="41.27131" lon="20.32593">
        <ele>685.08001708984</ele>
        <time>2023-09-30T07:36:53.000Z</time>
      </trkpt>
      <trkpt lat="41.27132" lon="20.32582">
        <ele>685.55999755859</ele>
        <time>2023-09-30T07:36:52.000Z</time>
      </trkpt>
      <trkpt lat="41.27132" lon="20.32571">
        <ele>686.03997802734</ele>
        <time>2023-09-30T07:36:51.000Z</time>
      </trkpt>
      <trkpt lat="41.27129" lon="20.3256">
        <ele>686.52001953125</ele>
        <time>2023-09-30T07:36:50.000Z</time>
      </trkpt>
      <trkpt lat="41.27125" lon="20.32551">
        <ele>686.52001953125</ele>
        <time>2023-09-30T07:36:49.000Z</time>
      </trkpt>
      <trkpt lat="41.27119" lon="20.32543">
        <ele>686.52001953125</ele>
        <time>2023-09-30T07:36:48.000Z</time>
      </trkpt>
      <trkpt lat="41.27111" lon="20.32538">
        <ele>687</ele>
        <time>2023-09-30T07:36:47.000Z</time>
      </trkpt>
      <trkpt lat="41.27105" lon="20.32536">
        <ele>687</ele>
        <time>2023-09-30T07:36:46.000Z</time>
      </trkpt>
      <trkpt lat="41.27094" lon="20.32533">
        <ele>687</ele>
        <time>2023-09-30T07:36:45.000Z</time>
      </trkpt>
      <trkpt lat="41.27086" lon="20.3253">
        <ele>687.47998046875</ele>
        <time>2023-09-30T07:36:44.000Z</time>
      </trkpt>
      <trkpt lat="41.2708" lon="20.32525">
        <ele>687.47998046875</ele>
        <time>2023-09-30T07:36:43.000Z</time>
      </trkpt>
      <trkpt lat="41.27075" lon="20.3252">
        <ele>687</ele>
        <time>2023-09-30T07:36:42.000Z</time>
      </trkpt>
      <trkpt lat="41.27072" lon="20.32512">
        <ele>687</ele>
        <time>2023-09-30T07:36:41.000Z</time>
      </trkpt>
      <trkpt lat="41.27071" lon="20.32503">
        <ele>687.47998046875</ele>
        <time>2023-09-30T07:36:40.000Z</time>
      </trkpt>
      <trkpt lat="41.27072" lon="20.32493">
        <ele>687.47998046875</ele>
        <time>2023-09-30T07:36:39.000Z</time>
      </trkpt>
      <trkpt lat="41.27075" lon="20.32481">
        <ele>687.47998046875</ele>
        <time>2023-09-30T07:36:38.000Z</time>
      </trkpt>
      <trkpt lat="41.27076" lon="20.32476">
        <ele>687.47998046875</ele>
        <time>2023-09-30T07:36:37.000Z</time>
      </trkpt>
      <trkpt lat="41.27083" lon="20.32457">
        <ele>687.47998046875</ele>
        <time>2023-09-30T07:36:36.000Z</time>
      </trkpt>
      <trkpt lat="41.27087" lon="20.32443">
        <ele>687.96002197266</ele>
        <time>2023-09-30T07:36:35.000Z</time>
      </trkpt>
      <trkpt lat="41.27088" lon="20.32431">
        <ele>688.44000244141</ele>
        <time>2023-09-30T07:36:34.000Z</time>
      </trkpt>
      <trkpt lat="41.27087" lon="20.3242">
        <ele>688.91998291016</ele>
        <time>2023-09-30T07:36:33.000Z</time>
      </trkpt>
      <trkpt lat="41.27085" lon="20.32411">
        <ele>688.91998291016</ele>
        <time>2023-09-30T07:36:32.000Z</time>
      </trkpt>
      <trkpt lat="41.27082" lon="20.32402">
        <ele>688.91998291016</ele>
        <time>2023-09-30T07:36:31.000Z</time>
      </trkpt>
      <trkpt lat="41.27077" lon="20.32394">
        <ele>689.40002441406</ele>
        <time>2023-09-30T07:36:30.000Z</time>
      </trkpt>
      <trkpt lat="41.27072" lon="20.32387">
        <ele>689.88000488281</ele>
        <time>2023-09-30T07:36:29.000Z</time>
      </trkpt>
      <trkpt lat="41.27067" lon="20.32381">
        <ele>689.88000488281</ele>
        <time>2023-09-30T07:36:28.000Z</time>
      </trkpt>
      <trkpt lat="41.27061" lon="20.32378">
        <ele>689.88000488281</ele>
        <time>2023-09-30T07:36:27.000Z</time>
      </trkpt>
      <trkpt lat="41.27056" lon="20.32376">
        <ele>689.88000488281</ele>
        <time>2023-09-30T07:36:26.000Z</time>
      </trkpt>
      <trkpt lat="41.27051" lon="20.32375">
        <ele>689.88000488281</ele>
        <time>2023-09-30T07:36:25.000Z</time>
      </trkpt>
      <trkpt lat="41.27046" lon="20.32373">
        <ele>689.88000488281</ele>
        <time>2023-09-30T07:36:24.000Z</time>
      </trkpt>
      <trkpt lat="41.2704" lon="20.32369">
        <ele>689.88000488281</ele>
        <time>2023-09-30T07:36:23.000Z</time>
      </trkpt>
      <trkpt lat="41.27035" lon="20.32363">
        <ele>689.40002441406</ele>
        <time>2023-09-30T07:36:22.000Z</time>
      </trkpt>
      <trkpt lat="41.27031" lon="20.32353">
        <ele>689.40002441406</ele>
        <time>2023-09-30T07:36:21.000Z</time>
      </trkpt>
      <trkpt lat="41.27028" lon="20.32345">
        <ele>689.40002441406</ele>
        <time>2023-09-30T07:36:20.000Z</time>
      </trkpt>
      <trkpt lat="41.27026" lon="20.32338">
        <ele>689.40002441406</ele>
        <time>2023-09-30T07:36:19.000Z</time>
      </trkpt>
      <trkpt lat="41.27022" lon="20.32324">
        <ele>688.91998291016</ele>
        <time>2023-09-30T07:36:18.000Z</time>
      </trkpt>
      <trkpt lat="41.27017" lon="20.32315">
        <ele>688.91998291016</ele>
        <time>2023-09-30T07:36:17.000Z</time>
      </trkpt>
      <trkpt lat="41.2701" lon="20.32307">
        <ele>688.91998291016</ele>
        <time>2023-09-30T07:36:16.000Z</time>
      </trkpt>
      <trkpt lat="41.27001" lon="20.323">
        <ele>688.91998291016</ele>
        <time>2023-09-30T07:36:15.000Z</time>
      </trkpt>
      <trkpt lat="41.2699" lon="20.32294">
        <ele>688.44000244141</ele>
        <time>2023-09-30T07:36:14.000Z</time>
      </trkpt>
      <trkpt lat="41.26983" lon="20.32292">
        <ele>687.96002197266</ele>
        <time>2023-09-30T07:36:13.000Z</time>
      </trkpt>
      <trkpt lat="41.26954" lon="20.32286">
        <ele>687</ele>
        <time>2023-09-30T07:36:11.000Z</time>
      </trkpt>
      <trkpt lat="41.26933" lon="20.3228">
        <ele>686.52001953125</ele>
        <time>2023-09-30T07:36:10.000Z</time>
      </trkpt>
      <trkpt lat="41.2693" lon="20.32279">
        <ele>686.52001953125</ele>
        <time>2023-09-30T07:36:09.000Z</time>
      </trkpt>
      <trkpt lat="41.26915" lon="20.32273">
        <ele>686.03997802734</ele>
        <time>2023-09-30T07:36:08.000Z</time>
      </trkpt>
      <trkpt lat="41.26897" lon="20.32266">
        <ele>686.03997802734</ele>
        <time>2023-09-30T07:36:07.000Z</time>
      </trkpt>
      <trkpt lat="41.26887" lon="20.32262">
        <ele>685.55999755859</ele>
        <time>2023-09-30T07:36:06.000Z</time>
      </trkpt>
      <trkpt lat="41.26868" lon="20.32254">
        <ele>685.55999755859</ele>
        <time>2023-09-30T07:36:05.000Z</time>
      </trkpt>
      <trkpt lat="41.26855" lon="20.32249">
        <ele>685.08001708984</ele>
        <time>2023-09-30T07:36:04.000Z</time>
      </trkpt>
      <trkpt lat="41.26843" lon="20.32247">
        <ele>685.08001708984</ele>
        <time>2023-09-30T07:36:03.000Z</time>
      </trkpt>
      <trkpt lat="41.26832" lon="20.32247">
        <ele>685.08001708984</ele>
        <time>2023-09-30T07:36:02.000Z</time>
      </trkpt>
      <trkpt lat="41.26819" lon="20.32249">
        <ele>684.59997558594</ele>
        <time>2023-09-30T07:36:01.000Z</time>
      </trkpt>
      <trkpt lat="41.26801" lon="20.32255">
        <ele>684.59997558594</ele>
        <time>2023-09-30T07:35:59.000Z</time>
      </trkpt>
      <trkpt lat="41.2679" lon="20.32258">
        <ele>684.59997558594</ele>
        <time>2023-09-30T07:35:58.000Z</time>
      </trkpt>
      <trkpt lat="41.26783" lon="20.32258">
        <ele>684.11999511719</ele>
        <time>2023-09-30T07:35:57.000Z</time>
      </trkpt>
      <trkpt lat="41.26776" lon="20.32256">
        <ele>684.11999511719</ele>
        <time>2023-09-30T07:35:56.000Z</time>
      </trkpt>
      <trkpt lat="41.26771" lon="20.32252">
        <ele>684.11999511719</ele>
        <time>2023-09-30T07:35:55.000Z</time>
      </trkpt>
      <trkpt lat="41.26767" lon="20.32247">
        <ele>684.11999511719</ele>
        <time>2023-09-30T07:35:54.000Z</time>
      </trkpt>
      <trkpt lat="41.26766" lon="20.32241">
        <ele>684.11999511719</ele>
        <time>2023-09-30T07:35:53.000Z</time>
      </trkpt>
      <trkpt lat="41.26766" lon="20.32232">
        <ele>684.59997558594</ele>
        <time>2023-09-30T07:35:52.000Z</time>
      </trkpt>
      <trkpt lat="41.26768" lon="20.32222">
        <ele>685.08001708984</ele>
        <time>2023-09-30T07:35:51.000Z</time>
      </trkpt>
      <trkpt lat="41.26769" lon="20.3222">
        <ele>685.08001708984</ele>
        <time>2023-09-30T07:35:50.000Z</time>
      </trkpt>
      <trkpt lat="41.26783" lon="20.3217">
        <ele>687.47998046875</ele>
        <time>2023-09-30T07:35:47.000Z</time>
      </trkpt>
      <trkpt lat="41.26786" lon="20.32152">
        <ele>687.96002197266</ele>
        <time>2023-09-30T07:35:46.000Z</time>
      </trkpt>
      <trkpt lat="41.26787" lon="20.32137">
        <ele>688.91998291016</ele>
        <time>2023-09-30T07:35:45.000Z</time>
      </trkpt>
      <trkpt lat="41.26788" lon="20.32116">
        <ele>689.88000488281</ele>
        <time>2023-09-30T07:35:44.000Z</time>
      </trkpt>
      <trkpt lat="41.2679" lon="20.32098">
        <ele>690.35998535156</ele>
        <time>2023-09-30T07:35:43.000Z</time>
      </trkpt>
      <trkpt lat="41.26794" lon="20.32084">
        <ele>690.84002685547</ele>
        <time>2023-09-30T07:35:42.000Z</time>
      </trkpt>
      <trkpt lat="41.26798" lon="20.32072">
        <ele>691.33001708984</ele>
        <time>2023-09-30T07:35:41.000Z</time>
      </trkpt>
      <trkpt lat="41.26802" lon="20.32065">
        <ele>691.80999755859</ele>
        <time>2023-09-30T07:35:40.000Z</time>
      </trkpt>
      <trkpt lat="41.26812" lon="20.32041">
        <ele>692.77001953125</ele>
        <time>2023-09-30T07:35:39.000Z</time>
      </trkpt>
      <trkpt lat="41.26815" lon="20.3203">
        <ele>693.72998046875</ele>
        <time>2023-09-30T07:35:38.000Z</time>
      </trkpt>
      <trkpt lat="41.2682" lon="20.3201">
        <ele>694.69000244141</ele>
        <time>2023-09-30T07:35:37.000Z</time>
      </trkpt>
      <trkpt lat="41.26822" lon="20.31997">
        <ele>695.65002441406</ele>
        <time>2023-09-30T07:35:36.000Z</time>
      </trkpt>
      <trkpt lat="41.26823" lon="20.31984">
        <ele>696.13000488281</ele>
        <time>2023-09-30T07:35:35.000Z</time>
      </trkpt>
      <trkpt lat="41.26822" lon="20.31973">
        <ele>697.09002685547</ele>
        <time>2023-09-30T07:35:34.000Z</time>
      </trkpt>
      <trkpt lat="41.2682" lon="20.31962">
        <ele>697.57000732422</ele>
        <time>2023-09-30T07:35:33.000Z</time>
      </trkpt>
      <trkpt lat="41.26816" lon="20.31952">
        <ele>698.04998779297</ele>
        <time>2023-09-30T07:35:32.000Z</time>
      </trkpt>
      <trkpt lat="41.2681" lon="20.31944">
        <ele>698.53002929688</ele>
        <time>2023-09-30T07:35:31.000Z</time>
      </trkpt>
      <trkpt lat="41.26802" lon="20.31938">
        <ele>699.02001953125</ele>
        <time>2023-09-30T07:35:30.000Z</time>
      </trkpt>
      <trkpt lat="41.26794" lon="20.31933">
        <ele>699.5</ele>
        <time>2023-09-30T07:35:29.000Z</time>
      </trkpt>
      <trkpt lat="41.26783" lon="20.31927">
        <ele>699.97998046875</ele>
        <time>2023-09-30T07:35:28.000Z</time>
      </trkpt>
      <trkpt lat="41.26769" lon="20.31922">
        <ele>700.46002197266</ele>
        <time>2023-09-30T07:35:27.000Z</time>
      </trkpt>
      <trkpt lat="41.26757" lon="20.31915">
        <ele>700.94000244141</ele>
        <time>2023-09-30T07:35:26.000Z</time>
      </trkpt>
      <trkpt lat="41.26749" lon="20.3191">
        <ele>701.41998291016</ele>
        <time>2023-09-30T07:35:25.000Z</time>
      </trkpt>
      <trkpt lat="41.26736" lon="20.31899">
        <ele>702.38000488281</ele>
        <time>2023-09-30T07:35:24.000Z</time>
      </trkpt>
      <trkpt lat="41.26728" lon="20.31894">
        <ele>702.38000488281</ele>
        <time>2023-09-30T07:35:23.000Z</time>
      </trkpt>
      <trkpt lat="41.2672" lon="20.31891">
        <ele>702.38000488281</ele>
        <time>2023-09-30T07:35:22.000Z</time>
      </trkpt>
      <trkpt lat="41.26712" lon="20.31892">
        <ele>702.85998535156</ele>
        <time>2023-09-30T07:35:21.000Z</time>
      </trkpt>
      <trkpt lat="41.26704" lon="20.31895">
        <ele>702.85998535156</ele>
        <time>2023-09-30T07:35:20.000Z</time>
      </trkpt>
      <trkpt lat="41.26697" lon="20.31902">
        <ele>702.85998535156</ele>
        <time>2023-09-30T07:35:19.000Z</time>
      </trkpt>
      <trkpt lat="41.26694" lon="20.31905">
        <ele>702.85998535156</ele>
        <time>2023-09-30T07:35:18.000Z</time>
      </trkpt>
      <trkpt lat="41.26681" lon="20.31919">
        <ele>702.85998535156</ele>
        <time>2023-09-30T07:35:17.000Z</time>
      </trkpt>
      <trkpt lat="41.26673" lon="20.31927">
        <ele>702.85998535156</ele>
        <time>2023-09-30T07:35:16.000Z</time>
      </trkpt>
      <trkpt lat="41.26664" lon="20.31931">
        <ele>702.38000488281</ele>
        <time>2023-09-30T07:35:15.000Z</time>
      </trkpt>
      <trkpt lat="41.26656" lon="20.31933">
        <ele>701.90002441406</ele>
        <time>2023-09-30T07:35:14.000Z</time>
      </trkpt>
      <trkpt lat="41.26648" lon="20.31932">
        <ele>701.90002441406</ele>
        <time>2023-09-30T07:35:13.000Z</time>
      </trkpt>
      <trkpt lat="41.2664" lon="20.31928">
        <ele>701.90002441406</ele>
        <time>2023-09-30T07:35:12.000Z</time>
      </trkpt>
      <trkpt lat="41.26633" lon="20.31921">
        <ele>701.90002441406</ele>
        <time>2023-09-30T07:35:11.000Z</time>
      </trkpt>
      <trkpt lat="41.26625" lon="20.31911">
        <ele>701.90002441406</ele>
        <time>2023-09-30T07:35:10.000Z</time>
      </trkpt>
      <trkpt lat="41.26619" lon="20.319">
        <ele>701.90002441406</ele>
        <time>2023-09-30T07:35:09.000Z</time>
      </trkpt>
      <trkpt lat="41.26614" lon="20.3189">
        <ele>701.90002441406</ele>
        <time>2023-09-30T07:35:08.000Z</time>
      </trkpt>
      <trkpt lat="41.26608" lon="20.31878">
        <ele>701.90002441406</ele>
        <time>2023-09-30T07:35:07.000Z</time>
      </trkpt>
      <trkpt lat="41.26597" lon="20.31851">
        <ele>701.90002441406</ele>
        <time>2023-09-30T07:35:05.000Z</time>
      </trkpt>
      <trkpt lat="41.2659" lon="20.31839">
        <ele>701.41998291016</ele>
        <time>2023-09-30T07:35:04.000Z</time>
      </trkpt>
      <trkpt lat="41.26582" lon="20.3183">
        <ele>700.94000244141</ele>
        <time>2023-09-30T07:35:03.000Z</time>
      </trkpt>
      <trkpt lat="41.26574" lon="20.31822">
        <ele>700.46002197266</ele>
        <time>2023-09-30T07:35:02.000Z</time>
      </trkpt>
      <trkpt lat="41.26567" lon="20.31817">
        <ele>699.5</ele>
        <time>2023-09-30T07:35:01.000Z</time>
      </trkpt>
      <trkpt lat="41.26559" lon="20.31814">
        <ele>698.53002929688</ele>
        <time>2023-09-30T07:35:00.000Z</time>
      </trkpt>
      <trkpt lat="41.26557" lon="20.31813">
        <ele>698.53002929688</ele>
        <time>2023-09-30T07:34:59.000Z</time>
      </trkpt>
      <trkpt lat="41.26541" lon="20.31808">
        <ele>696.60998535156</ele>
        <time>2023-09-30T07:34:58.000Z</time>
      </trkpt>
      <trkpt lat="41.26533" lon="20.31803">
        <ele>695.65002441406</ele>
        <time>2023-09-30T07:34:57.000Z</time>
      </trkpt>
      <trkpt lat="41.26526" lon="20.31796">
        <ele>695.16998291016</ele>
        <time>2023-09-30T07:34:56.000Z</time>
      </trkpt>
      <trkpt lat="41.2652" lon="20.31786">
        <ele>694.21002197266</ele>
        <time>2023-09-30T07:34:55.000Z</time>
      </trkpt>
      <trkpt lat="41.26514" lon="20.31775">
        <ele>693.72998046875</ele>
        <time>2023-09-30T07:34:54.000Z</time>
      </trkpt>
      <trkpt lat="41.26512" lon="20.31771">
        <ele>693.72998046875</ele>
        <time>2023-09-30T07:34:53.000Z</time>
      </trkpt>
      <trkpt lat="41.26497" lon="20.3174">
        <ele>692.28997802734</ele>
        <time>2023-09-30T07:34:51.000Z</time>
      </trkpt>
      <trkpt lat="41.2649" lon="20.31729">
        <ele>691.80999755859</ele>
        <time>2023-09-30T07:34:50.000Z</time>
      </trkpt>
      <trkpt lat="41.26483" lon="20.31722">
        <ele>691.33001708984</ele>
        <time>2023-09-30T07:34:49.000Z</time>
      </trkpt>
      <trkpt lat="41.26477" lon="20.31716">
        <ele>690.84002685547</ele>
        <time>2023-09-30T07:34:48.000Z</time>
      </trkpt>
      <trkpt lat="41.26471" lon="20.31714">
        <ele>690.35998535156</ele>
        <time>2023-09-30T07:34:47.000Z</time>
      </trkpt>
      <trkpt lat="41.26465" lon="20.31713">
        <ele>689.88000488281</ele>
        <time>2023-09-30T07:34:46.000Z</time>
      </trkpt>
      <trkpt lat="41.2646" lon="20.31714">
        <ele>689.40002441406</ele>
        <time>2023-09-30T07:34:45.000Z</time>
      </trkpt>
      <trkpt lat="41.26453" lon="20.31716">
        <ele>688.91998291016</ele>
        <time>2023-09-30T07:34:43.000Z</time>
      </trkpt>
      <trkpt lat="41.26447" lon="20.31719">
        <ele>688.91998291016</ele>
        <time>2023-09-30T07:34:42.000Z</time>
      </trkpt>
      <trkpt lat="41.2644" lon="20.31726">
        <ele>688.44000244141</ele>
        <time>2023-09-30T07:34:41.000Z</time>
      </trkpt>
      <trkpt lat="41.26434" lon="20.31734">
        <ele>688.44000244141</ele>
        <time>2023-09-30T07:34:40.000Z</time>
      </trkpt>
      <trkpt lat="41.26429" lon="20.31744">
        <ele>687.96002197266</ele>
        <time>2023-09-30T07:34:39.000Z</time>
      </trkpt>
      <trkpt lat="41.26425" lon="20.31754">
        <ele>687.47998046875</ele>
        <time>2023-09-30T07:34:38.000Z</time>
      </trkpt>
      <trkpt lat="41.26423" lon="20.31766">
        <ele>687.47998046875</ele>
        <time>2023-09-30T07:34:37.000Z</time>
      </trkpt>
      <trkpt lat="41.26422" lon="20.31777">
        <ele>686.52001953125</ele>
        <time>2023-09-30T07:34:36.000Z</time>
      </trkpt>
      <trkpt lat="41.26422" lon="20.31789">
        <ele>686.52001953125</ele>
        <time>2023-09-30T07:34:35.000Z</time>
      </trkpt>
      <trkpt lat="41.26424" lon="20.318">
        <ele>686.52001953125</ele>
        <time>2023-09-30T07:34:34.000Z</time>
      </trkpt>
      <trkpt lat="41.26426" lon="20.31809">
        <ele>686.52001953125</ele>
        <time>2023-09-30T07:34:33.000Z</time>
      </trkpt>
      <trkpt lat="41.26431" lon="20.31817">
        <ele>686.52001953125</ele>
        <time>2023-09-30T07:34:32.000Z</time>
      </trkpt>
      <trkpt lat="41.26434" lon="20.31823">
        <ele>686.03997802734</ele>
        <time>2023-09-30T07:34:31.000Z</time>
      </trkpt>
      <trkpt lat="41.26441" lon="20.31831">
        <ele>685.55999755859</ele>
        <time>2023-09-30T07:34:30.000Z</time>
      </trkpt>
      <trkpt lat="41.26447" lon="20.31838">
        <ele>685.55999755859</ele>
        <time>2023-09-30T07:34:29.000Z</time>
      </trkpt>
      <trkpt lat="41.26451" lon="20.31846">
        <ele>685.55999755859</ele>
        <time>2023-09-30T07:34:28.000Z</time>
      </trkpt>
      <trkpt lat="41.26455" lon="20.31856">
        <ele>685.55999755859</ele>
        <time>2023-09-30T07:34:27.000Z</time>
      </trkpt>
      <trkpt lat="41.26457" lon="20.31865">
        <ele>685.55999755859</ele>
        <time>2023-09-30T07:34:26.000Z</time>
      </trkpt>
      <trkpt lat="41.26457" lon="20.31875">
        <ele>685.55999755859</ele>
        <time>2023-09-30T07:34:25.000Z</time>
      </trkpt>
      <trkpt lat="41.26455" lon="20.31886">
        <ele>685.55999755859</ele>
        <time>2023-09-30T07:34:24.000Z</time>
      </trkpt>
      <trkpt lat="41.26455" lon="20.31888">
        <ele>685.55999755859</ele>
        <time>2023-09-30T07:34:23.000Z</time>
      </trkpt>
      <trkpt lat="41.2645" lon="20.31901">
        <ele>685.55999755859</ele>
        <time>2023-09-30T07:34:22.000Z</time>
      </trkpt>
      <trkpt lat="41.26444" lon="20.31917">
        <ele>685.55999755859</ele>
        <time>2023-09-30T07:34:18.000Z</time>
      </trkpt>
      <trkpt lat="41.26443" lon="20.31925">
        <ele>685.08001708984</ele>
        <time>2023-09-30T07:34:17.000Z</time>
      </trkpt>
      <trkpt lat="41.26443" lon="20.31931">
        <ele>685.08001708984</ele>
        <time>2023-09-30T07:34:16.000Z</time>
      </trkpt>
      <trkpt lat="41.26441" lon="20.3194">
        <ele>684.59997558594</ele>
        <time>2023-09-30T07:34:15.000Z</time>
      </trkpt>
      <trkpt lat="41.2644" lon="20.31948">
        <ele>684.59997558594</ele>
        <time>2023-09-30T07:34:14.000Z</time>
      </trkpt>
      <trkpt lat="41.26438" lon="20.31956">
        <ele>684.59997558594</ele>
        <time>2023-09-30T07:34:13.000Z</time>
      </trkpt>
      <trkpt lat="41.26434" lon="20.31962">
        <ele>684.59997558594</ele>
        <time>2023-09-30T07:34:12.000Z</time>
      </trkpt>
      <trkpt lat="41.2643" lon="20.31967">
        <ele>684.11999511719</ele>
        <time>2023-09-30T07:34:11.000Z</time>
      </trkpt>
      <trkpt lat="41.26425" lon="20.3197">
        <ele>683.63000488281</ele>
        <time>2023-09-30T07:34:10.000Z</time>
      </trkpt>
      <trkpt lat="41.2642" lon="20.31971">
        <ele>683.63000488281</ele>
        <time>2023-09-30T07:34:09.000Z</time>
      </trkpt>
      <trkpt lat="41.26419" lon="20.31971">
        <ele>683.63000488281</ele>
        <time>2023-09-30T07:34:08.000Z</time>
      </trkpt>
      <trkpt lat="41.26407" lon="20.31972">
        <ele>682.66998291016</ele>
        <time>2023-09-30T07:34:07.000Z</time>
      </trkpt>
      <trkpt lat="41.26402" lon="20.31973">
        <ele>682.66998291016</ele>
        <time>2023-09-30T07:34:06.000Z</time>
      </trkpt>
      <trkpt lat="41.264" lon="20.31974">
        <ele>682.66998291016</ele>
        <time>2023-09-30T07:34:05.000Z</time>
      </trkpt>
      <trkpt lat="41.26381" lon="20.31982">
        <ele>682.19000244141</ele>
        <time>2023-09-30T07:34:03.000Z</time>
      </trkpt>
      <trkpt lat="41.26376" lon="20.31985">
        <ele>681.71002197266</ele>
        <time>2023-09-30T07:34:02.000Z</time>
      </trkpt>
      <trkpt lat="41.26366" lon="20.31991">
        <ele>681.22998046875</ele>
        <time>2023-09-30T07:34:01.000Z</time>
      </trkpt>
      <trkpt lat="41.26365" lon="20.31993">
        <ele>681.22998046875</ele>
        <time>2023-09-30T07:34:00.000Z</time>
      </trkpt>
      <trkpt lat="41.26353" lon="20.32005">
        <ele>680.75</ele>
        <time>2023-09-30T07:33:59.000Z</time>
      </trkpt>
      <trkpt lat="41.26351" lon="20.32008">
        <ele>680.27001953125</ele>
        <time>2023-09-30T07:33:58.000Z</time>
      </trkpt>
      <trkpt lat="41.26342" lon="20.32021">
        <ele>679.78997802734</ele>
        <time>2023-09-30T07:33:57.000Z</time>
      </trkpt>
      <trkpt lat="41.2634" lon="20.32023">
        <ele>679.78997802734</ele>
        <time>2023-09-30T07:33:56.000Z</time>
      </trkpt>
      <trkpt lat="41.26301" lon="20.32067">
        <ele>678.34997558594</ele>
        <time>2023-09-30T07:33:52.000Z</time>
      </trkpt>
      <trkpt lat="41.26295" lon="20.32074">
        <ele>678.34997558594</ele>
        <time>2023-09-30T07:33:51.000Z</time>
      </trkpt>
      <trkpt lat="41.2629" lon="20.32085">
        <ele>678.34997558594</ele>
        <time>2023-09-30T07:33:50.000Z</time>
      </trkpt>
      <trkpt lat="41.26287" lon="20.32098">
        <ele>677.86999511719</ele>
        <time>2023-09-30T07:33:49.000Z</time>
      </trkpt>
      <trkpt lat="41.26286" lon="20.3211">
        <ele>677.86999511719</ele>
        <time>2023-09-30T07:33:48.000Z</time>
      </trkpt>
      <trkpt lat="41.26283" lon="20.3212">
        <ele>677.86999511719</ele>
        <time>2023-09-30T07:33:47.000Z</time>
      </trkpt>
      <trkpt lat="41.2628" lon="20.32129">
        <ele>677.86999511719</ele>
        <time>2023-09-30T07:33:46.000Z</time>
      </trkpt>
      <trkpt lat="41.26275" lon="20.32134">
        <ele>677.39001464844</ele>
        <time>2023-09-30T07:33:45.000Z</time>
      </trkpt>
      <trkpt lat="41.26271" lon="20.32137">
        <ele>676.90997314453</ele>
        <time>2023-09-30T07:33:44.000Z</time>
      </trkpt>
      <trkpt lat="41.26266" lon="20.32137">
        <ele>676.90997314453</ele>
        <time>2023-09-30T07:33:43.000Z</time>
      </trkpt>
      <trkpt lat="41.26263" lon="20.32133">
        <ele>676.41998291016</ele>
        <time>2023-09-30T07:33:42.000Z</time>
      </trkpt>
      <trkpt lat="41.26259" lon="20.32128">
        <ele>675.94000244141</ele>
        <time>2023-09-30T07:33:41.000Z</time>
      </trkpt>
      <trkpt lat="41.26255" lon="20.32118">
        <ele>674.97998046875</ele>
        <time>2023-09-30T07:33:40.000Z</time>
      </trkpt>
      <trkpt lat="41.2625" lon="20.32109">
        <ele>674.5</ele>
        <time>2023-09-30T07:33:39.000Z</time>
      </trkpt>
      <trkpt lat="41.26246" lon="20.32102">
        <ele>674.5</ele>
        <time>2023-09-30T07:33:38.000Z</time>
      </trkpt>
      <trkpt lat="41.26237" lon="20.32089">
        <ele>673.53997802734</ele>
        <time>2023-09-30T07:33:37.000Z</time>
      </trkpt>
      <trkpt lat="41.26231" lon="20.32079">
        <ele>672.58001708984</ele>
        <time>2023-09-30T07:33:36.000Z</time>
      </trkpt>
      <trkpt lat="41.2622" lon="20.32065">
        <ele>672.09997558594</ele>
        <time>2023-09-30T07:33:35.000Z</time>
      </trkpt>
      <trkpt lat="41.26214" lon="20.32059">
        <ele>671.61999511719</ele>
        <time>2023-09-30T07:33:34.000Z</time>
      </trkpt>
      <trkpt lat="41.26207" lon="20.32055">
        <ele>670.65997314453</ele>
        <time>2023-09-30T07:33:33.000Z</time>
      </trkpt>
      <trkpt lat="41.262" lon="20.32054">
        <ele>670.17999267578</ele>
        <time>2023-09-30T07:33:32.000Z</time>
      </trkpt>
      <trkpt lat="41.26194" lon="20.32055">
        <ele>669.70001220703</ele>
        <time>2023-09-30T07:33:31.000Z</time>
      </trkpt>
      <trkpt lat="41.26188" lon="20.3206">
        <ele>668.72998046875</ele>
        <time>2023-09-30T07:33:30.000Z</time>
      </trkpt>
      <trkpt lat="41.26181" lon="20.32067">
        <ele>667.77001953125</ele>
        <time>2023-09-30T07:33:29.000Z</time>
      </trkpt>
      <trkpt lat="41.26177" lon="20.32073">
        <ele>667.28997802734</ele>
        <time>2023-09-30T07:33:28.000Z</time>
      </trkpt>
      <trkpt lat="41.2617" lon="20.32088">
        <ele>666.80999755859</ele>
        <time>2023-09-30T07:33:27.000Z</time>
      </trkpt>
      <trkpt lat="41.26165" lon="20.32096">
        <ele>666.80999755859</ele>
        <time>2023-09-30T07:33:26.000Z</time>
      </trkpt>
      <trkpt lat="41.26159" lon="20.32101">
        <ele>666.33001708984</ele>
        <time>2023-09-30T07:33:25.000Z</time>
      </trkpt>
      <trkpt lat="41.26153" lon="20.32103">
        <ele>666.33001708984</ele>
        <time>2023-09-30T07:33:24.000Z</time>
      </trkpt>
      <trkpt lat="41.26147" lon="20.32103">
        <ele>665.84997558594</ele>
        <time>2023-09-30T07:33:23.000Z</time>
      </trkpt>
      <trkpt lat="41.2614" lon="20.32101">
        <ele>664.89001464844</ele>
        <time>2023-09-30T07:33:22.000Z</time>
      </trkpt>
      <trkpt lat="41.26133" lon="20.32096">
        <ele>664.40997314453</ele>
        <time>2023-09-30T07:33:21.000Z</time>
      </trkpt>
      <trkpt lat="41.26125" lon="20.3209">
        <ele>663.45001220703</ele>
        <time>2023-09-30T07:33:20.000Z</time>
      </trkpt>
      <trkpt lat="41.26119" lon="20.32082">
        <ele>662.01000976562</ele>
        <time>2023-09-30T07:33:19.000Z</time>
      </trkpt>
      <trkpt lat="41.26114" lon="20.32073">
        <ele>661.03997802734</ele>
        <time>2023-09-30T07:33:18.000Z</time>
      </trkpt>
      <trkpt lat="41.26112" lon="20.32067">
        <ele>660.08001708984</ele>
        <time>2023-09-30T07:33:17.000Z</time>
      </trkpt>
      <trkpt lat="41.26106" lon="20.32052">
        <ele>658.64001464844</ele>
        <time>2023-09-30T07:33:16.000Z</time>
      </trkpt>
      <trkpt lat="41.26096" lon="20.32035">
        <ele>655.76000976562</ele>
        <time>2023-09-30T07:33:15.000Z</time>
      </trkpt>
      <trkpt lat="41.26089" lon="20.32023">
        <ele>654.30999755859</ele>
        <time>2023-09-30T07:33:14.000Z</time>
      </trkpt>
      <trkpt lat="41.26084" lon="20.32015">
        <ele>653.34997558594</ele>
        <time>2023-09-30T07:33:13.000Z</time>
      </trkpt>
      <trkpt lat="41.26076" lon="20.32">
        <ele>651.42999267578</ele>
        <time>2023-09-30T07:33:12.000Z</time>
      </trkpt>
      <trkpt lat="41.26071" lon="20.31986">
        <ele>650.46997070312</ele>
        <time>2023-09-30T07:33:11.000Z</time>
      </trkpt>
      <trkpt lat="41.26069" lon="20.31972">
        <ele>649.51000976562</ele>
        <time>2023-09-30T07:33:10.000Z</time>
      </trkpt>
      <trkpt lat="41.26068" lon="20.31968">
        <ele>649.03002929688</ele>
        <time>2023-09-30T07:33:09.000Z</time>
      </trkpt>
      <trkpt lat="41.26066" lon="20.31942">
        <ele>646.61999511719</ele>
        <time>2023-09-30T07:33:08.000Z</time>
      </trkpt>
      <trkpt lat="41.26062" lon="20.31926">
        <ele>645.17999267578</ele>
        <time>2023-09-30T07:33:07.000Z</time>
      </trkpt>
      <trkpt lat="41.26058" lon="20.31913">
        <ele>643.73999023438</ele>
        <time>2023-09-30T07:33:06.000Z</time>
      </trkpt>
      <trkpt lat="41.26049" lon="20.31892">
        <ele>641.82000732422</ele>
        <time>2023-09-30T07:33:05.000Z</time>
      </trkpt>
      <trkpt lat="41.26026" lon="20.31842">
        <ele>638.45001220703</ele>
        <time>2023-09-30T07:33:02.000Z</time>
      </trkpt>
      <trkpt lat="41.26019" lon="20.31831">
        <ele>637.48999023438</ele>
        <time>2023-09-30T07:33:01.000Z</time>
      </trkpt>
      <trkpt lat="41.26013" lon="20.31824">
        <ele>636.53002929688</ele>
        <time>2023-09-30T07:33:00.000Z</time>
      </trkpt>
      <trkpt lat="41.26006" lon="20.31822">
        <ele>635.57000732422</ele>
        <time>2023-09-30T07:32:59.000Z</time>
      </trkpt>
      <trkpt lat="41.25997" lon="20.31826">
        <ele>634.13000488281</ele>
        <time>2023-09-30T07:32:58.000Z</time>
      </trkpt>
      <trkpt lat="41.25989" lon="20.31834">
        <ele>633.16998291016</ele>
        <time>2023-09-30T07:32:57.000Z</time>
      </trkpt>
      <trkpt lat="41.25986" lon="20.31838">
        <ele>632.67999267578</ele>
        <time>2023-09-30T07:32:56.000Z</time>
      </trkpt>
      <trkpt lat="41.25977" lon="20.31851">
        <ele>631.23999023438</ele>
        <time>2023-09-30T07:32:55.000Z</time>
      </trkpt>
      <trkpt lat="41.2597" lon="20.31858">
        <ele>630.76000976562</ele>
        <time>2023-09-30T07:32:54.000Z</time>
      </trkpt>
      <trkpt lat="41.25961" lon="20.31862">
        <ele>629.79998779297</ele>
        <time>2023-09-30T07:32:53.000Z</time>
      </trkpt>
      <trkpt lat="41.25953" lon="20.31861">
        <ele>628.84002685547</ele>
        <time>2023-09-30T07:32:52.000Z</time>
      </trkpt>
      <trkpt lat="41.25945" lon="20.31854">
        <ele>627.88000488281</ele>
        <time>2023-09-30T07:32:51.000Z</time>
      </trkpt>
      <trkpt lat="41.25937" lon="20.31844">
        <ele>627.40002441406</ele>
        <time>2023-09-30T07:32:50.000Z</time>
      </trkpt>
      <trkpt lat="41.25934" lon="20.31838">
        <ele>626.91998291016</ele>
        <time>2023-09-30T07:32:49.000Z</time>
      </trkpt>
      <trkpt lat="41.25925" lon="20.3182">
        <ele>624.98999023438</ele>
        <time>2023-09-30T07:32:48.000Z</time>
      </trkpt>
      <trkpt lat="41.25916" lon="20.31807">
        <ele>623.54998779297</ele>
        <time>2023-09-30T07:32:47.000Z</time>
      </trkpt>
      <trkpt lat="41.25906" lon="20.31797">
        <ele>622.10998535156</ele>
        <time>2023-09-30T07:32:46.000Z</time>
      </trkpt>
      <trkpt lat="41.25893" lon="20.3179">
        <ele>620.66998291016</ele>
        <time>2023-09-30T07:32:45.000Z</time>
      </trkpt>
      <trkpt lat="41.25884" lon="20.31787">
        <ele>619.22998046875</ele>
        <time>2023-09-30T07:32:44.000Z</time>
      </trkpt>
      <trkpt lat="41.25872" lon="20.31782">
        <ele>617.78002929688</ele>
        <time>2023-09-30T07:32:43.000Z</time>
      </trkpt>
      <trkpt lat="41.25862" lon="20.31775">
        <ele>616.34002685547</ele>
        <time>2023-09-30T07:32:42.000Z</time>
      </trkpt>
      <trkpt lat="41.25854" lon="20.31764">
        <ele>615.38000488281</ele>
        <time>2023-09-30T07:32:41.000Z</time>
      </trkpt>
      <trkpt lat="41.25853" lon="20.31761">
        <ele>614.90002441406</ele>
        <time>2023-09-30T07:32:40.000Z</time>
      </trkpt>
      <trkpt lat="41.25845" lon="20.31745">
        <ele>613.46002197266</ele>
        <time>2023-09-30T07:32:39.000Z</time>
      </trkpt>
      <trkpt lat="41.25828" lon="20.31709">
        <ele>609.60998535156</ele>
        <time>2023-09-30T07:32:37.000Z</time>
      </trkpt>
      <trkpt lat="41.25811" lon="20.31681">
        <ele>606.72998046875</ele>
        <time>2023-09-30T07:32:35.000Z</time>
      </trkpt>
      <trkpt lat="41.25805" lon="20.31672">
        <ele>605.77001953125</ele>
        <time>2023-09-30T07:32:34.000Z</time>
      </trkpt>
      <trkpt lat="41.25794" lon="20.31659">
        <ele>603.84997558594</ele>
        <time>2023-09-30T07:32:33.000Z</time>
      </trkpt>
      <trkpt lat="41.25787" lon="20.3165">
        <ele>602.88000488281</ele>
        <time>2023-09-30T07:32:32.000Z</time>
      </trkpt>
      <trkpt lat="41.25751" lon="20.31616">
        <ele>599.03997802734</ele>
        <time>2023-09-30T07:32:29.000Z</time>
      </trkpt>
      <trkpt lat="41.25723" lon="20.31581">
        <ele>595.66998291016</ele>
        <time>2023-09-30T07:32:27.000Z</time>
      </trkpt>
      <trkpt lat="41.25718" lon="20.31576">
        <ele>595.19000244141</ele>
        <time>2023-09-30T07:32:26.000Z</time>
      </trkpt>
      <trkpt lat="41.25699" lon="20.31556">
        <ele>593.27001953125</ele>
        <time>2023-09-30T07:32:25.000Z</time>
      </trkpt>
      <trkpt lat="41.25689" lon="20.31545">
        <ele>592.78997802734</ele>
        <time>2023-09-30T07:32:24.000Z</time>
      </trkpt>
      <trkpt lat="41.25684" lon="20.31538">
        <ele>592.30999755859</ele>
        <time>2023-09-30T07:32:23.000Z</time>
      </trkpt>
      <trkpt lat="41.25668" lon="20.31519">
        <ele>590.39001464844</ele>
        <time>2023-09-30T07:32:22.000Z</time>
      </trkpt>
      <trkpt lat="41.25659" lon="20.31511">
        <ele>589.90997314453</ele>
        <time>2023-09-30T07:32:21.000Z</time>
      </trkpt>
      <trkpt lat="41.25649" lon="20.31507">
        <ele>588.95001220703</ele>
        <time>2023-09-30T07:32:20.000Z</time>
      </trkpt>
      <trkpt lat="41.25638" lon="20.31509">
        <ele>587.5</ele>
        <time>2023-09-30T07:32:19.000Z</time>
      </trkpt>
      <trkpt lat="41.25626" lon="20.31516">
        <ele>586.53997802734</ele>
        <time>2023-09-30T07:32:18.000Z</time>
      </trkpt>
      <trkpt lat="41.25615" lon="20.31526">
        <ele>586.05999755859</ele>
        <time>2023-09-30T07:32:17.000Z</time>
      </trkpt>
      <trkpt lat="41.25604" lon="20.31539">
        <ele>585.09997558594</ele>
        <time>2023-09-30T07:32:16.000Z</time>
      </trkpt>
      <trkpt lat="41.25596" lon="20.31554">
        <ele>584.61999511719</ele>
        <time>2023-09-30T07:32:15.000Z</time>
      </trkpt>
      <trkpt lat="41.25589" lon="20.31571">
        <ele>584.14001464844</ele>
        <time>2023-09-30T07:32:14.000Z</time>
      </trkpt>
      <trkpt lat="41.25585" lon="20.31588">
        <ele>583.65997314453</ele>
        <time>2023-09-30T07:32:13.000Z</time>
      </trkpt>
      <trkpt lat="41.25583" lon="20.31605">
        <ele>583.17999267578</ele>
        <time>2023-09-30T07:32:12.000Z</time>
      </trkpt>
      <trkpt lat="41.25582" lon="20.31623">
        <ele>582.70001220703</ele>
        <time>2023-09-30T07:32:11.000Z</time>
      </trkpt>
      <trkpt lat="41.25582" lon="20.31638">
        <ele>581.72998046875</ele>
        <time>2023-09-30T07:32:10.000Z</time>
      </trkpt>
      <trkpt lat="41.25584" lon="20.3165">
        <ele>581.25</ele>
        <time>2023-09-30T07:32:09.000Z</time>
      </trkpt>
      <trkpt lat="41.2559" lon="20.31678">
        <ele>580.77001953125</ele>
        <time>2023-09-30T07:32:07.000Z</time>
      </trkpt>
      <trkpt lat="41.25592" lon="20.31694">
        <ele>580.28997802734</ele>
        <time>2023-09-30T07:32:06.000Z</time>
      </trkpt>
      <trkpt lat="41.25591" lon="20.31707">
        <ele>579.80999755859</ele>
        <time>2023-09-30T07:32:05.000Z</time>
      </trkpt>
      <trkpt lat="41.2559" lon="20.31718">
        <ele>579.80999755859</ele>
        <time>2023-09-30T07:32:04.000Z</time>
      </trkpt>
      <trkpt lat="41.25585" lon="20.31728">
        <ele>579.33001708984</ele>
        <time>2023-09-30T07:32:03.000Z</time>
      </trkpt>
      <trkpt lat="41.25579" lon="20.31733">
        <ele>578.84997558594</ele>
        <time>2023-09-30T07:32:02.000Z</time>
      </trkpt>
      <trkpt lat="41.2557" lon="20.31734">
        <ele>578.36999511719</ele>
        <time>2023-09-30T07:32:01.000Z</time>
      </trkpt>
      <trkpt lat="41.2556" lon="20.31732">
        <ele>577.89001464844</ele>
        <time>2023-09-30T07:32:00.000Z</time>
      </trkpt>
      <trkpt lat="41.25552" lon="20.31729">
        <ele>577.40997314453</ele>
        <time>2023-09-30T07:31:59.000Z</time>
      </trkpt>
      <trkpt lat="41.25545" lon="20.31726">
        <ele>576.92999267578</ele>
        <time>2023-09-30T07:31:58.000Z</time>
      </trkpt>
      <trkpt lat="41.25529" lon="20.31716">
        <ele>575.96997070312</ele>
        <time>2023-09-30T07:31:57.000Z</time>
      </trkpt>
      <trkpt lat="41.25513" lon="20.31705">
        <ele>575.01000976562</ele>
        <time>2023-09-30T07:31:56.000Z</time>
      </trkpt>
      <trkpt lat="41.25501" lon="20.31692">
        <ele>574.03997802734</ele>
        <time>2023-09-30T07:31:55.000Z</time>
      </trkpt>
      <trkpt lat="41.25493" lon="20.31682">
        <ele>573.55999755859</ele>
        <time>2023-09-30T07:31:54.000Z</time>
      </trkpt>
      <trkpt lat="41.25477" lon="20.31659">
        <ele>571.64001464844</ele>
        <time>2023-09-30T07:31:53.000Z</time>
      </trkpt>
      <trkpt lat="41.25465" lon="20.31647">
        <ele>570.67999267578</ele>
        <time>2023-09-30T07:31:52.000Z</time>
      </trkpt>
      <trkpt lat="41.25454" lon="20.31639">
        <ele>569.71997070312</ele>
        <time>2023-09-30T07:31:51.000Z</time>
      </trkpt>
      <trkpt lat="41.25443" lon="20.31635">
        <ele>569.23999023438</ele>
        <time>2023-09-30T07:31:50.000Z</time>
      </trkpt>
      <trkpt lat="41.25433" lon="20.31636">
        <ele>568.28002929688</ele>
        <time>2023-09-30T07:31:49.000Z</time>
      </trkpt>
      <trkpt lat="41.25424" lon="20.3164">
        <ele>567.79998779297</ele>
        <time>2023-09-30T07:31:48.000Z</time>
      </trkpt>
      <trkpt lat="41.25415" lon="20.3165">
        <ele>566.83001708984</ele>
        <time>2023-09-30T07:31:47.000Z</time>
      </trkpt>
      <trkpt lat="41.25409" lon="20.31661">
        <ele>566.34997558594</ele>
        <time>2023-09-30T07:31:46.000Z</time>
      </trkpt>
      <trkpt lat="41.25403" lon="20.31676">
        <ele>565.39001464844</ele>
        <time>2023-09-30T07:31:45.000Z</time>
      </trkpt>
      <trkpt lat="41.25396" lon="20.31689">
        <ele>564.42999267578</ele>
        <time>2023-09-30T07:31:44.000Z</time>
      </trkpt>
      <trkpt lat="41.25388" lon="20.31703">
        <ele>563.95001220703</ele>
        <time>2023-09-30T07:31:43.000Z</time>
      </trkpt>
      <trkpt lat="41.25376" lon="20.31717">
        <ele>563.46997070312</ele>
        <time>2023-09-30T07:31:42.000Z</time>
      </trkpt>
      <trkpt lat="41.25351" lon="20.31741">
        <ele>562.03002929688</ele>
        <time>2023-09-30T07:31:40.000Z</time>
      </trkpt>
      <trkpt lat="41.2534" lon="20.31755">
        <ele>561.54998779297</ele>
        <time>2023-09-30T07:31:39.000Z</time>
      </trkpt>
      <trkpt lat="41.25332" lon="20.31771">
        <ele>561.07000732422</ele>
        <time>2023-09-30T07:31:38.000Z</time>
      </trkpt>
      <trkpt lat="41.25329" lon="20.31781">
        <ele>561.07000732422</ele>
        <time>2023-09-30T07:31:37.000Z</time>
      </trkpt>
      <trkpt lat="41.25321" lon="20.31805">
        <ele>560.59002685547</ele>
        <time>2023-09-30T07:31:36.000Z</time>
      </trkpt>
      <trkpt lat="41.25315" lon="20.31828">
        <ele>560.59002685547</ele>
        <time>2023-09-30T07:31:35.000Z</time>
      </trkpt>
      <trkpt lat="41.25302" lon="20.31944">
        <ele>557.21997070312</ele>
        <time>2023-09-30T07:31:30.000Z</time>
      </trkpt>
      <trkpt lat="41.253" lon="20.31959">
        <ele>556.73999023438</ele>
        <time>2023-09-30T07:31:29.000Z</time>
      </trkpt>
      <trkpt lat="41.25295" lon="20.31974">
        <ele>555.78002929688</ele>
        <time>2023-09-30T07:31:28.000Z</time>
      </trkpt>
      <trkpt lat="41.25289" lon="20.31986">
        <ele>555.78002929688</ele>
        <time>2023-09-30T07:31:27.000Z</time>
      </trkpt>
      <trkpt lat="41.25279" lon="20.31994">
        <ele>555.29998779297</ele>
        <time>2023-09-30T07:31:26.000Z</time>
      </trkpt>
      <trkpt lat="41.25276" lon="20.31995">
        <ele>555.29998779297</ele>
        <time>2023-09-30T07:31:25.000Z</time>
      </trkpt>
      <trkpt lat="41.25253" lon="20.32007">
        <ele>554.82000732422</ele>
        <time>2023-09-30T07:31:24.000Z</time>
      </trkpt>
      <trkpt lat="41.2524" lon="20.32016">
        <ele>553.85998535156</ele>
        <time>2023-09-30T07:31:23.000Z</time>
      </trkpt>
      <trkpt lat="41.25229" lon="20.32028">
        <ele>552.40997314453</ele>
        <time>2023-09-30T07:31:22.000Z</time>
      </trkpt>
      <trkpt lat="41.2522" lon="20.32044">
        <ele>550.96997070312</ele>
        <time>2023-09-30T07:31:21.000Z</time>
      </trkpt>
      <trkpt lat="41.25218" lon="20.32048">
        <ele>550.48999023438</ele>
        <time>2023-09-30T07:31:20.000Z</time>
      </trkpt>
      <trkpt lat="41.25204" lon="20.32084">
        <ele>548.09002685547</ele>
        <time>2023-09-30T07:31:19.000Z</time>
      </trkpt>
      <trkpt lat="41.252" lon="20.32099">
        <ele>546.65002441406</ele>
        <time>2023-09-30T07:31:18.000Z</time>
      </trkpt>
      <trkpt lat="41.25198" lon="20.32117">
        <ele>545.69000244141</ele>
        <time>2023-09-30T07:31:17.000Z</time>
      </trkpt>
      <trkpt lat="41.25201" lon="20.32136">
        <ele>544.71997070312</ele>
        <time>2023-09-30T07:31:16.000Z</time>
      </trkpt>
      <trkpt lat="41.25205" lon="20.32155">
        <ele>544.23999023438</ele>
        <time>2023-09-30T07:31:15.000Z</time>
      </trkpt>
      <trkpt lat="41.25207" lon="20.32171">
        <ele>544.23999023438</ele>
        <time>2023-09-30T07:31:14.000Z</time>
      </trkpt>
      <trkpt lat="41.25206" lon="20.32184">
        <ele>543.76000976562</ele>
        <time>2023-09-30T07:31:13.000Z</time>
      </trkpt>
      <trkpt lat="41.25202" lon="20.32194">
        <ele>544.71997070312</ele>
        <time>2023-09-30T07:31:12.000Z</time>
      </trkpt>
      <trkpt lat="41.25196" lon="20.32199">
        <ele>545.20001220703</ele>
        <time>2023-09-30T07:31:11.000Z</time>
      </trkpt>
      <trkpt lat="41.25188" lon="20.32199">
        <ele>545.69000244141</ele>
        <time>2023-09-30T07:31:10.000Z</time>
      </trkpt>
      <trkpt lat="41.25179" lon="20.32194">
        <ele>546.16998291016</ele>
        <time>2023-09-30T07:31:09.000Z</time>
      </trkpt>
      <trkpt lat="41.2517" lon="20.32184">
        <ele>547.13000488281</ele>
        <time>2023-09-30T07:31:08.000Z</time>
      </trkpt>
      <trkpt lat="41.25164" lon="20.32176">
        <ele>548.09002685547</ele>
        <time>2023-09-30T07:31:07.000Z</time>
      </trkpt>
      <trkpt lat="41.25155" lon="20.32161">
        <ele>548.57000732422</ele>
        <time>2023-09-30T07:31:06.000Z</time>
      </trkpt>
      <trkpt lat="41.25144" lon="20.32145">
        <ele>549.53002929688</ele>
        <time>2023-09-30T07:31:05.000Z</time>
      </trkpt>
      <trkpt lat="41.25132" lon="20.3213">
        <ele>550.01000976562</ele>
        <time>2023-09-30T07:31:04.000Z</time>
      </trkpt>
      <trkpt lat="41.25123" lon="20.3212">
        <ele>549.53002929688</ele>
        <time>2023-09-30T07:31:03.000Z</time>
      </trkpt>
      <trkpt lat="41.25111" lon="20.32111">
        <ele>549.53002929688</ele>
        <time>2023-09-30T07:31:02.000Z</time>
      </trkpt>
      <trkpt lat="41.25101" lon="20.32105">
        <ele>550.01000976562</ele>
        <time>2023-09-30T07:31:01.000Z</time>
      </trkpt>
      <trkpt lat="41.25092" lon="20.32102">
        <ele>549.53002929688</ele>
        <time>2023-09-30T07:31:00.000Z</time>
      </trkpt>
      <trkpt lat="41.25084" lon="20.32102">
        <ele>549.53002929688</ele>
        <time>2023-09-30T07:30:59.000Z</time>
      </trkpt>
      <trkpt lat="41.25076" lon="20.32104">
        <ele>549.53002929688</ele>
        <time>2023-09-30T07:30:58.000Z</time>
      </trkpt>
      <trkpt lat="41.25069" lon="20.3211">
        <ele>549.53002929688</ele>
        <time>2023-09-30T07:30:57.000Z</time>
      </trkpt>
      <trkpt lat="41.25065" lon="20.32113">
        <ele>549.53002929688</ele>
        <time>2023-09-30T07:30:56.000Z</time>
      </trkpt>
      <trkpt lat="41.25053" lon="20.32124">
        <ele>550.01000976562</ele>
        <time>2023-09-30T07:30:55.000Z</time>
      </trkpt>
      <trkpt lat="41.25042" lon="20.32136">
        <ele>550.01000976562</ele>
        <time>2023-09-30T07:30:54.000Z</time>
      </trkpt>
      <trkpt lat="41.2503" lon="20.32148">
        <ele>550.48999023438</ele>
        <time>2023-09-30T07:30:53.000Z</time>
      </trkpt>
      <trkpt lat="41.25017" lon="20.32156">
        <ele>550.96997070312</ele>
        <time>2023-09-30T07:30:52.000Z</time>
      </trkpt>
      <trkpt lat="41.25003" lon="20.3216">
        <ele>550.96997070312</ele>
        <time>2023-09-30T07:30:51.000Z</time>
      </trkpt>
      <trkpt lat="41.24972" lon="20.32164">
        <ele>551.92999267578</ele>
        <time>2023-09-30T07:30:49.000Z</time>
      </trkpt>
      <trkpt lat="41.24937" lon="20.3217">
        <ele>552.90002441406</ele>
        <time>2023-09-30T07:30:47.000Z</time>
      </trkpt>
      <trkpt lat="41.24923" lon="20.32168">
        <ele>553.38000488281</ele>
        <time>2023-09-30T07:30:46.000Z</time>
      </trkpt>
      <trkpt lat="41.24909" lon="20.32161">
        <ele>553.38000488281</ele>
        <time>2023-09-30T07:30:45.000Z</time>
      </trkpt>
      <trkpt lat="41.24895" lon="20.32153">
        <ele>553.38000488281</ele>
        <time>2023-09-30T07:30:44.000Z</time>
      </trkpt>
      <trkpt lat="41.2488" lon="20.32143">
        <ele>552.90002441406</ele>
        <time>2023-09-30T07:30:43.000Z</time>
      </trkpt>
      <trkpt lat="41.24866" lon="20.32131">
        <ele>552.40997314453</ele>
        <time>2023-09-30T07:30:42.000Z</time>
      </trkpt>
      <trkpt lat="41.24856" lon="20.32116">
        <ele>551.92999267578</ele>
        <time>2023-09-30T07:30:41.000Z</time>
      </trkpt>
      <trkpt lat="41.24848" lon="20.32099">
        <ele>551.92999267578</ele>
        <time>2023-09-30T07:30:40.000Z</time>
      </trkpt>
      <trkpt lat="41.24844" lon="20.32078">
        <ele>551.92999267578</ele>
        <time>2023-09-30T07:30:39.000Z</time>
      </trkpt>
      <trkpt lat="41.24842" lon="20.32059">
        <ele>551.45001220703</ele>
        <time>2023-09-30T07:30:38.000Z</time>
      </trkpt>
      <trkpt lat="41.24839" lon="20.31989">
        <ele>549.53002929688</ele>
        <time>2023-09-30T07:30:35.000Z</time>
      </trkpt>
      <trkpt lat="41.24837" lon="20.31974">
        <ele>549.04998779297</ele>
        <time>2023-09-30T07:30:34.000Z</time>
      </trkpt>
      <trkpt lat="41.24833" lon="20.31962">
        <ele>548.57000732422</ele>
        <time>2023-09-30T07:30:33.000Z</time>
      </trkpt>
      <trkpt lat="41.24825" lon="20.31953">
        <ele>547.60998535156</ele>
        <time>2023-09-30T07:30:32.000Z</time>
      </trkpt>
      <trkpt lat="41.24814" lon="20.31948">
        <ele>546.65002441406</ele>
        <time>2023-09-30T07:30:31.000Z</time>
      </trkpt>
      <trkpt lat="41.24801" lon="20.31947">
        <ele>545.20001220703</ele>
        <time>2023-09-30T07:30:30.000Z</time>
      </trkpt>
      <trkpt lat="41.24788" lon="20.31949">
        <ele>544.23999023438</ele>
        <time>2023-09-30T07:30:29.000Z</time>
      </trkpt>
      <trkpt lat="41.24771" lon="20.31954">
        <ele>542.79998779297</ele>
        <time>2023-09-30T07:30:28.000Z</time>
      </trkpt>
      <trkpt lat="41.24756" lon="20.31957">
        <ele>541.35998535156</ele>
        <time>2023-09-30T07:30:27.000Z</time>
      </trkpt>
      <trkpt lat="41.24743" lon="20.31956">
        <ele>540.40002441406</ele>
        <time>2023-09-30T07:30:26.000Z</time>
      </trkpt>
      <trkpt lat="41.24725" lon="20.31953">
        <ele>539.44000244141</ele>
        <time>2023-09-30T07:30:25.000Z</time>
      </trkpt>
      <trkpt lat="41.24709" lon="20.31947">
        <ele>538.47998046875</ele>
        <time>2023-09-30T07:30:24.000Z</time>
      </trkpt>
      <trkpt lat="41.24695" lon="20.31939">
        <ele>537.51000976562</ele>
        <time>2023-09-30T07:30:23.000Z</time>
      </trkpt>
      <trkpt lat="41.24665" lon="20.31915">
        <ele>535.59002685547</ele>
        <time>2023-09-30T07:30:21.000Z</time>
      </trkpt>
      <trkpt lat="41.24652" lon="20.31906">
        <ele>534.63000488281</ele>
        <time>2023-09-30T07:30:20.000Z</time>
      </trkpt>
      <trkpt lat="41.24625" lon="20.31889">
        <ele>533.19000244141</ele>
        <time>2023-09-30T07:30:19.000Z</time>
      </trkpt>
      <trkpt lat="41.24546" lon="20.31838">
        <ele>527.90002441406</ele>
        <time>2023-09-30T07:30:14.000Z</time>
      </trkpt>
      <trkpt lat="41.24537" lon="20.31829">
        <ele>527.41998291016</ele>
        <time>2023-09-30T07:30:13.000Z</time>
      </trkpt>
      <trkpt lat="41.24531" lon="20.31822">
        <ele>526.94000244141</ele>
        <time>2023-09-30T07:30:12.000Z</time>
      </trkpt>
      <trkpt lat="41.24524" lon="20.31817">
        <ele>526.46002197266</ele>
        <time>2023-09-30T07:30:11.000Z</time>
      </trkpt>
      <trkpt lat="41.24519" lon="20.31815">
        <ele>526.46002197266</ele>
        <time>2023-09-30T07:30:10.000Z</time>
      </trkpt>
      <trkpt lat="41.24514" lon="20.31813">
        <ele>525.97998046875</ele>
        <time>2023-09-30T07:30:09.000Z</time>
      </trkpt>
      <trkpt lat="41.24509" lon="20.31808">
        <ele>525.5</ele>
        <time>2023-09-30T07:30:08.000Z</time>
      </trkpt>
      <trkpt lat="41.24505" lon="20.318">
        <ele>524.53997802734</ele>
        <time>2023-09-30T07:30:07.000Z</time>
      </trkpt>
      <trkpt lat="41.24498" lon="20.31786">
        <ele>524.05999755859</ele>
        <time>2023-09-30T07:30:06.000Z</time>
      </trkpt>
      <trkpt lat="41.24497" lon="20.31782">
        <ele>524.05999755859</ele>
        <time>2023-09-30T07:30:05.000Z</time>
      </trkpt>
      <trkpt lat="41.24485" lon="20.31747">
        <ele>522.13000488281</ele>
        <time>2023-09-30T07:30:04.000Z</time>
      </trkpt>
      <trkpt lat="41.24444" lon="20.31604">
        <ele>516.84997558594</ele>
        <time>2023-09-30T07:29:58.000Z</time>
      </trkpt>
      <trkpt lat="41.24438" lon="20.31585">
        <ele>515.88000488281</ele>
        <time>2023-09-30T07:29:57.000Z</time>
      </trkpt>
      <trkpt lat="41.2443" lon="20.31567">
        <ele>514.91998291016</ele>
        <time>2023-09-30T07:29:56.000Z</time>
      </trkpt>
      <trkpt lat="41.24426" lon="20.3156">
        <ele>514.91998291016</ele>
        <time>2023-09-30T07:29:55.000Z</time>
      </trkpt>
      <trkpt lat="41.24409" lon="20.31531">
        <ele>513.47998046875</ele>
        <time>2023-09-30T07:29:54.000Z</time>
      </trkpt>
      <trkpt lat="41.24342" lon="20.31426">
        <ele>508.19000244141</ele>
        <time>2023-09-30T07:29:49.000Z</time>
      </trkpt>
      <trkpt lat="41.24324" lon="20.31404">
        <ele>506.75</ele>
        <time>2023-09-30T07:29:48.000Z</time>
      </trkpt>
      <trkpt lat="41.2429" lon="20.31368">
        <ele>503.86999511719</ele>
        <time>2023-09-30T07:29:46.000Z</time>
      </trkpt>
      <trkpt lat="41.24277" lon="20.31353">
        <ele>502.42999267578</ele>
        <time>2023-09-30T07:29:45.000Z</time>
      </trkpt>
      <trkpt lat="41.24263" lon="20.31336">
        <ele>501.95001220703</ele>
        <time>2023-09-30T07:29:44.000Z</time>
      </trkpt>
      <trkpt lat="41.24248" lon="20.31318">
        <ele>500.98001098633</ele>
        <time>2023-09-30T07:29:43.000Z</time>
      </trkpt>
      <trkpt lat="41.24236" lon="20.31308">
        <ele>499.54000854492</ele>
        <time>2023-09-30T07:29:42.000Z</time>
      </trkpt>
      <trkpt lat="41.24224" lon="20.31301">
        <ele>498.57998657227</ele>
        <time>2023-09-30T07:29:41.000Z</time>
      </trkpt>
      <trkpt lat="41.24213" lon="20.31294">
        <ele>497.61999511719</ele>
        <time>2023-09-30T07:29:40.000Z</time>
      </trkpt>
      <trkpt lat="41.24201" lon="20.31284">
        <ele>496.66000366211</ele>
        <time>2023-09-30T07:29:39.000Z</time>
      </trkpt>
      <trkpt lat="41.2419" lon="20.31274">
        <ele>496.17999267578</ele>
        <time>2023-09-30T07:29:38.000Z</time>
      </trkpt>
      <trkpt lat="41.24175" lon="20.31257">
        <ele>494.73999023438</ele>
        <time>2023-09-30T07:29:37.000Z</time>
      </trkpt>
      <trkpt lat="41.24166" lon="20.31247">
        <ele>494.26000976562</ele>
        <time>2023-09-30T07:29:36.000Z</time>
      </trkpt>
      <trkpt lat="41.24151" lon="20.31233">
        <ele>492.80999755859</ele>
        <time>2023-09-30T07:29:35.000Z</time>
      </trkpt>
      <trkpt lat="41.24138" lon="20.3122">
        <ele>491.85000610352</ele>
        <time>2023-09-30T07:29:34.000Z</time>
      </trkpt>
      <trkpt lat="41.24127" lon="20.31209">
        <ele>490.41000366211</ele>
        <time>2023-09-30T07:29:33.000Z</time>
      </trkpt>
      <trkpt lat="41.24123" lon="20.31204">
        <ele>490.41000366211</ele>
        <time>2023-09-30T07:29:32.000Z</time>
      </trkpt>
      <trkpt lat="41.24106" lon="20.31183">
        <ele>488.9700012207</ele>
        <time>2023-09-30T07:29:31.000Z</time>
      </trkpt>
      <trkpt lat="41.241" lon="20.31176">
        <ele>488.48999023438</ele>
        <time>2023-09-30T07:29:30.000Z</time>
      </trkpt>
      <trkpt lat="41.24078" lon="20.31154">
        <ele>486.07998657227</ele>
        <time>2023-09-30T07:29:28.000Z</time>
      </trkpt>
      <trkpt lat="41.24071" lon="20.31144">
        <ele>485.11999511719</ele>
        <time>2023-09-30T07:29:27.000Z</time>
      </trkpt>
      <trkpt lat="41.24065" lon="20.31133">
        <ele>484.16000366211</ele>
        <time>2023-09-30T07:29:26.000Z</time>
      </trkpt>
      <trkpt lat="41.24063" lon="20.31122">
        <ele>483.20001220703</ele>
        <time>2023-09-30T07:29:25.000Z</time>
      </trkpt>
      <trkpt lat="41.24063" lon="20.3111">
        <ele>482.23999023438</ele>
        <time>2023-09-30T07:29:24.000Z</time>
      </trkpt>
      <trkpt lat="41.24066" lon="20.31097">
        <ele>481.76000976562</ele>
        <time>2023-09-30T07:29:23.000Z</time>
      </trkpt>
      <trkpt lat="41.2407" lon="20.31087">
        <ele>481.2799987793</ele>
        <time>2023-09-30T07:29:22.000Z</time>
      </trkpt>
      <trkpt lat="41.24078" lon="20.31069">
        <ele>480.79998779297</ele>
        <time>2023-09-30T07:29:21.000Z</time>
      </trkpt>
      <trkpt lat="41.24082" lon="20.31052">
        <ele>480.32000732422</ele>
        <time>2023-09-30T07:29:20.000Z</time>
      </trkpt>
      <trkpt lat="41.24083" lon="20.31034">
        <ele>479.35000610352</ele>
        <time>2023-09-30T07:29:19.000Z</time>
      </trkpt>
      <trkpt lat="41.24082" lon="20.31013">
        <ele>478.39001464844</ele>
        <time>2023-09-30T07:29:18.000Z</time>
      </trkpt>
      <trkpt lat="41.24076" lon="20.30992">
        <ele>477.42999267578</ele>
        <time>2023-09-30T07:29:17.000Z</time>
      </trkpt>
      <trkpt lat="41.24067" lon="20.30974">
        <ele>476.4700012207</ele>
        <time>2023-09-30T07:29:16.000Z</time>
      </trkpt>
      <trkpt lat="41.24058" lon="20.30961">
        <ele>475.51000976562</ele>
        <time>2023-09-30T07:29:15.000Z</time>
      </trkpt>
      <trkpt lat="41.24044" lon="20.30946">
        <ele>474.54998779297</ele>
        <time>2023-09-30T07:29:14.000Z</time>
      </trkpt>
      <trkpt lat="41.24032" lon="20.30929">
        <ele>473.10998535156</ele>
        <time>2023-09-30T07:29:13.000Z</time>
      </trkpt>
      <trkpt lat="41.24026" lon="20.30915">
        <ele>472.14001464844</ele>
        <time>2023-09-30T07:29:12.000Z</time>
      </trkpt>
      <trkpt lat="41.24023" lon="20.30908">
        <ele>471.66000366211</ele>
        <time>2023-09-30T07:29:11.000Z</time>
      </trkpt>
      <trkpt lat="41.24014" lon="20.30882">
        <ele>469.26000976562</ele>
        <time>2023-09-30T07:29:10.000Z</time>
      </trkpt>
      <trkpt lat="41.24003" lon="20.3085">
        <ele>466.85998535156</ele>
        <time>2023-09-30T07:29:09.000Z</time>
      </trkpt>
      <trkpt lat="41.23997" lon="20.30835">
        <ele>465.89999389648</ele>
        <time>2023-09-30T07:29:08.000Z</time>
      </trkpt>
      <trkpt lat="41.23988" lon="20.30826">
        <ele>465.42001342773</ele>
        <time>2023-09-30T07:29:07.000Z</time>
      </trkpt>
      <trkpt lat="41.23978" lon="20.3082">
        <ele>463.9700012207</ele>
        <time>2023-09-30T07:29:06.000Z</time>
      </trkpt>
      <trkpt lat="41.23965" lon="20.30817">
        <ele>463.48999023438</ele>
        <time>2023-09-30T07:29:05.000Z</time>
      </trkpt>
      <trkpt lat="41.23948" lon="20.30817">
        <ele>462.04998779297</ele>
        <time>2023-09-30T07:29:04.000Z</time>
      </trkpt>
      <trkpt lat="41.23932" lon="20.30819">
        <ele>460.60998535156</ele>
        <time>2023-09-30T07:29:03.000Z</time>
      </trkpt>
      <trkpt lat="41.23924" lon="20.30822">
        <ele>460.13000488281</ele>
        <time>2023-09-30T07:29:02.000Z</time>
      </trkpt>
      <trkpt lat="41.23879" lon="20.30838">
        <ele>455.79998779297</ele>
        <time>2023-09-30T07:29:00.000Z</time>
      </trkpt>
      <trkpt lat="41.23865" lon="20.3084">
        <ele>454.35998535156</ele>
        <time>2023-09-30T07:28:59.000Z</time>
      </trkpt>
      <trkpt lat="41.2385" lon="20.30839">
        <ele>452.92001342773</ele>
        <time>2023-09-30T07:28:58.000Z</time>
      </trkpt>
      <trkpt lat="41.23838" lon="20.30833">
        <ele>451.95999145508</ele>
        <time>2023-09-30T07:28:57.000Z</time>
      </trkpt>
      <trkpt lat="41.23828" lon="20.30823">
        <ele>451</ele>
        <time>2023-09-30T07:28:56.000Z</time>
      </trkpt>
      <trkpt lat="41.23821" lon="20.30809">
        <ele>449.54998779297</ele>
        <time>2023-09-30T07:28:55.000Z</time>
      </trkpt>
      <trkpt lat="41.23816" lon="20.30793">
        <ele>448.58999633789</ele>
        <time>2023-09-30T07:28:54.000Z</time>
      </trkpt>
      <trkpt lat="41.2381" lon="20.30779">
        <ele>447.14999389648</ele>
        <time>2023-09-30T07:28:53.000Z</time>
      </trkpt>
      <trkpt lat="41.23801" lon="20.30768">
        <ele>445.70999145508</ele>
        <time>2023-09-30T07:28:52.000Z</time>
      </trkpt>
      <trkpt lat="41.23794" lon="20.30762">
        <ele>445.23001098633</ele>
        <time>2023-09-30T07:28:51.000Z</time>
      </trkpt>
      <trkpt lat="41.23774" lon="20.30751">
        <ele>443.30999755859</ele>
        <time>2023-09-30T07:28:50.000Z</time>
      </trkpt>
      <trkpt lat="41.23762" lon="20.30741">
        <ele>441.38000488281</ele>
        <time>2023-09-30T07:28:49.000Z</time>
      </trkpt>
      <trkpt lat="41.23752" lon="20.30729">
        <ele>439.94000244141</ele>
        <time>2023-09-30T07:28:48.000Z</time>
      </trkpt>
      <trkpt lat="41.23746" lon="20.30717">
        <ele>438.98001098633</ele>
        <time>2023-09-30T07:28:47.000Z</time>
      </trkpt>
      <trkpt lat="41.23738" lon="20.30696">
        <ele>438.01998901367</ele>
        <time>2023-09-30T07:28:46.000Z</time>
      </trkpt>
      <trkpt lat="41.23729" lon="20.30684">
        <ele>436.57998657227</ele>
        <time>2023-09-30T07:28:45.000Z</time>
      </trkpt>
      <trkpt lat="41.23718" lon="20.30677">
        <ele>435.60998535156</ele>
        <time>2023-09-30T07:28:44.000Z</time>
      </trkpt>
      <trkpt lat="41.23706" lon="20.30675">
        <ele>434.64999389648</ele>
        <time>2023-09-30T07:28:43.000Z</time>
      </trkpt>
      <trkpt lat="41.23688" lon="20.30674">
        <ele>432.73001098633</ele>
        <time>2023-09-30T07:28:42.000Z</time>
      </trkpt>
      <trkpt lat="41.23673" lon="20.30673">
        <ele>431.29000854492</ele>
        <time>2023-09-30T07:28:41.000Z</time>
      </trkpt>
      <trkpt lat="41.23659" lon="20.30666">
        <ele>429.36999511719</ele>
        <time>2023-09-30T07:28:40.000Z</time>
      </trkpt>
      <trkpt lat="41.23645" lon="20.30655">
        <ele>427.92001342773</ele>
        <time>2023-09-30T07:28:39.000Z</time>
      </trkpt>
      <trkpt lat="41.23634" lon="20.3064">
        <ele>426.48001098633</ele>
        <time>2023-09-30T07:28:38.000Z</time>
      </trkpt>
      <trkpt lat="41.23626" lon="20.30624">
        <ele>425.04000854492</ele>
        <time>2023-09-30T07:28:37.000Z</time>
      </trkpt>
      <trkpt lat="41.23622" lon="20.30604">
        <ele>424.07998657227</ele>
        <time>2023-09-30T07:28:36.000Z</time>
      </trkpt>
      <trkpt lat="41.23621" lon="20.306">
        <ele>423.60000610352</ele>
        <time>2023-09-30T07:28:35.000Z</time>
      </trkpt>
      <trkpt lat="41.23618" lon="20.30555">
        <ele>421.19000244141</ele>
        <time>2023-09-30T07:28:34.000Z</time>
      </trkpt>
      <trkpt lat="41.23613" lon="20.30529">
        <ele>418.79000854492</ele>
        <time>2023-09-30T07:28:33.000Z</time>
      </trkpt>
      <trkpt lat="41.23605" lon="20.30506">
        <ele>417.35000610352</ele>
        <time>2023-09-30T07:28:32.000Z</time>
      </trkpt>
      <trkpt lat="41.23596" lon="20.30486">
        <ele>415.42999267578</ele>
        <time>2023-09-30T07:28:31.000Z</time>
      </trkpt>
      <trkpt lat="41.23584" lon="20.30467">
        <ele>413.98001098633</ele>
        <time>2023-09-30T07:28:30.000Z</time>
      </trkpt>
      <trkpt lat="41.23578" lon="20.3046">
        <ele>413.01998901367</ele>
        <time>2023-09-30T07:28:29.000Z</time>
      </trkpt>
      <trkpt lat="41.23557" lon="20.30435">
        <ele>410.61999511719</ele>
        <time>2023-09-30T07:28:28.000Z</time>
      </trkpt>
      <trkpt lat="41.23547" lon="20.30419">
        <ele>409.66000366211</ele>
        <time>2023-09-30T07:28:27.000Z</time>
      </trkpt>
      <trkpt lat="41.23537" lon="20.30408">
        <ele>408.70001220703</ele>
        <time>2023-09-30T07:28:26.000Z</time>
      </trkpt>
      <trkpt lat="41.2353" lon="20.30403">
        <ele>407.73999023438</ele>
        <time>2023-09-30T07:28:25.000Z</time>
      </trkpt>
      <trkpt lat="41.23512" lon="20.30393">
        <ele>405.80999755859</ele>
        <time>2023-09-30T07:28:24.000Z</time>
      </trkpt>
      <trkpt lat="41.235" lon="20.30381">
        <ele>404.85000610352</ele>
        <time>2023-09-30T07:28:23.000Z</time>
      </trkpt>
      <trkpt lat="41.23494" lon="20.30372">
        <ele>404.85000610352</ele>
        <time>2023-09-30T07:28:22.000Z</time>
      </trkpt>
      <trkpt lat="41.23476" lon="20.30344">
        <ele>403.41000366211</ele>
        <time>2023-09-30T07:28:21.000Z</time>
      </trkpt>
      <trkpt lat="41.23462" lon="20.30325">
        <ele>402.45001220703</ele>
        <time>2023-09-30T07:28:20.000Z</time>
      </trkpt>
      <trkpt lat="41.23448" lon="20.30311">
        <ele>401.48999023438</ele>
        <time>2023-09-30T07:28:19.000Z</time>
      </trkpt>
      <trkpt lat="41.23434" lon="20.30302">
        <ele>401.01000976562</ele>
        <time>2023-09-30T07:28:18.000Z</time>
      </trkpt>
      <trkpt lat="41.2342" lon="20.30297">
        <ele>400.5299987793</ele>
        <time>2023-09-30T07:28:17.000Z</time>
      </trkpt>
      <trkpt lat="41.23406" lon="20.30296">
        <ele>399.57000732422</ele>
        <time>2023-09-30T07:28:16.000Z</time>
      </trkpt>
      <trkpt lat="41.23392" lon="20.303">
        <ele>398.60000610352</ele>
        <time>2023-09-30T07:28:15.000Z</time>
      </trkpt>
      <trkpt lat="41.23378" lon="20.30307">
        <ele>397.64001464844</ele>
        <time>2023-09-30T07:28:14.000Z</time>
      </trkpt>
      <trkpt lat="41.23363" lon="20.30316">
        <ele>396.67999267578</ele>
        <time>2023-09-30T07:28:13.000Z</time>
      </trkpt>
      <trkpt lat="41.23347" lon="20.30323">
        <ele>395.7200012207</ele>
        <time>2023-09-30T07:28:12.000Z</time>
      </trkpt>
      <trkpt lat="41.2333" lon="20.30326">
        <ele>394.2799987793</ele>
        <time>2023-09-30T07:28:11.000Z</time>
      </trkpt>
      <trkpt lat="41.23312" lon="20.30326">
        <ele>392.83999633789</ele>
        <time>2023-09-30T07:28:10.000Z</time>
      </trkpt>
      <trkpt lat="41.23279" lon="20.30323">
        <ele>389.4700012207</ele>
        <time>2023-09-30T07:28:08.000Z</time>
      </trkpt>
      <trkpt lat="41.23263" lon="20.30322">
        <ele>388.0299987793</ele>
        <time>2023-09-30T07:28:07.000Z</time>
      </trkpt>
      <trkpt lat="41.23214" lon="20.30325">
        <ele>387.07000732422</ele>
        <time>2023-09-30T07:28:04.000Z</time>
      </trkpt>
      <trkpt lat="41.23197" lon="20.30324">
        <ele>387.54998779297</ele>
        <time>2023-09-30T07:28:03.000Z</time>
      </trkpt>
      <trkpt lat="41.23181" lon="20.30319">
        <ele>388.51000976562</ele>
        <time>2023-09-30T07:28:02.000Z</time>
      </trkpt>
      <trkpt lat="41.23169" lon="20.30313">
        <ele>388.98999023438</ele>
        <time>2023-09-30T07:28:01.000Z</time>
      </trkpt>
      <trkpt lat="41.23148" lon="20.30297">
        <ele>390.91000366211</ele>
        <time>2023-09-30T07:27:59.000Z</time>
      </trkpt>
      <trkpt lat="41.23114" lon="20.30271">
        <ele>392.83999633789</ele>
        <time>2023-09-30T07:27:57.000Z</time>
      </trkpt>
      <trkpt lat="41.23099" lon="20.30262">
        <ele>392.83999633789</ele>
        <time>2023-09-30T07:27:56.000Z</time>
      </trkpt>
      <trkpt lat="41.23084" lon="20.30258">
        <ele>392.35998535156</ele>
        <time>2023-09-30T07:27:55.000Z</time>
      </trkpt>
      <trkpt lat="41.23076" lon="20.30257">
        <ele>391.86999511719</ele>
        <time>2023-09-30T07:27:54.000Z</time>
      </trkpt>
      <trkpt lat="41.23058" lon="20.30256">
        <ele>390.91000366211</ele>
        <time>2023-09-30T07:27:53.000Z</time>
      </trkpt>
      <trkpt lat="41.23008" lon="20.30258">
        <ele>385.63000488281</ele>
        <time>2023-09-30T07:27:51.000Z</time>
      </trkpt>
      <trkpt lat="41.22994" lon="20.30263">
        <ele>383.70001220703</ele>
        <time>2023-09-30T07:27:50.000Z</time>
      </trkpt>
      <trkpt lat="41.22973" lon="20.30271">
        <ele>381.7799987793</ele>
        <time>2023-09-30T07:27:49.000Z</time>
      </trkpt>
      <trkpt lat="41.22959" lon="20.30275">
        <ele>379.85998535156</ele>
        <time>2023-09-30T07:27:48.000Z</time>
      </trkpt>
      <trkpt lat="41.22945" lon="20.30276">
        <ele>378.42001342773</ele>
        <time>2023-09-30T07:27:47.000Z</time>
      </trkpt>
      <trkpt lat="41.22934" lon="20.30273">
        <ele>377.45001220703</ele>
        <time>2023-09-30T07:27:46.000Z</time>
      </trkpt>
      <trkpt lat="41.22923" lon="20.30266">
        <ele>376.48999023438</ele>
        <time>2023-09-30T07:27:45.000Z</time>
      </trkpt>
      <trkpt lat="41.22913" lon="20.30255">
        <ele>375.5299987793</ele>
        <time>2023-09-30T07:27:44.000Z</time>
      </trkpt>
      <trkpt lat="41.22902" lon="20.30244">
        <ele>374.57000732422</ele>
        <time>2023-09-30T07:27:43.000Z</time>
      </trkpt>
      <trkpt lat="41.22889" lon="20.30238">
        <ele>373.13000488281</ele>
        <time>2023-09-30T07:27:42.000Z</time>
      </trkpt>
      <trkpt lat="41.22874" lon="20.30234">
        <ele>371.20999145508</ele>
        <time>2023-09-30T07:27:41.000Z</time>
      </trkpt>
      <trkpt lat="41.22859" lon="20.30234">
        <ele>369.76000976562</ele>
        <time>2023-09-30T07:27:40.000Z</time>
      </trkpt>
      <trkpt lat="41.22851" lon="20.30236">
        <ele>368.79998779297</ele>
        <time>2023-09-30T07:27:39.000Z</time>
      </trkpt>
      <trkpt lat="41.22769" lon="20.3027">
        <ele>358.70999145508</ele>
        <time>2023-09-30T07:27:35.000Z</time>
      </trkpt>
      <trkpt lat="41.22758" lon="20.30277">
        <ele>357.26998901367</ele>
        <time>2023-09-30T07:27:34.000Z</time>
      </trkpt>
      <trkpt lat="41.2275" lon="20.30282">
        <ele>356.79000854492</ele>
        <time>2023-09-30T07:27:33.000Z</time>
      </trkpt>
      <trkpt lat="41.22725" lon="20.30299">
        <ele>355.33999633789</ele>
        <time>2023-09-30T07:27:32.000Z</time>
      </trkpt>
      <trkpt lat="41.22715" lon="20.30303">
        <ele>354.38000488281</ele>
        <time>2023-09-30T07:27:31.000Z</time>
      </trkpt>
      <trkpt lat="41.22703" lon="20.30302">
        <ele>353.89999389648</ele>
        <time>2023-09-30T07:27:30.000Z</time>
      </trkpt>
      <trkpt lat="41.22691" lon="20.30296">
        <ele>353.42001342773</ele>
        <time>2023-09-30T07:27:29.000Z</time>
      </trkpt>
      <trkpt lat="41.22655" lon="20.3027">
        <ele>350.54000854492</ele>
        <time>2023-09-30T07:27:26.000Z</time>
      </trkpt>
      <trkpt lat="41.22621" lon="20.30245">
        <ele>347.64999389648</ele>
        <time>2023-09-30T07:27:24.000Z</time>
      </trkpt>
      <trkpt lat="41.22609" lon="20.3024">
        <ele>346.69000244141</ele>
        <time>2023-09-30T07:27:23.000Z</time>
      </trkpt>
      <trkpt lat="41.22598" lon="20.30238">
        <ele>345.73001098633</ele>
        <time>2023-09-30T07:27:22.000Z</time>
      </trkpt>
      <trkpt lat="41.22589" lon="20.30238">
        <ele>345.25</ele>
        <time>2023-09-30T07:27:21.000Z</time>
      </trkpt>
      <trkpt lat="41.22582" lon="20.3024">
        <ele>344.29000854492</ele>
        <time>2023-09-30T07:27:20.000Z</time>
      </trkpt>
      <trkpt lat="41.22577" lon="20.3024">
        <ele>344.29000854492</ele>
        <time>2023-09-30T07:27:19.000Z</time>
      </trkpt>
      <trkpt lat="41.22566" lon="20.30241">
        <ele>343.32998657227</ele>
        <time>2023-09-30T07:27:18.000Z</time>
      </trkpt>
      <trkpt lat="41.22561" lon="20.30241">
        <ele>342.85000610352</ele>
        <time>2023-09-30T07:27:17.000Z</time>
      </trkpt>
      <trkpt lat="41.22553" lon="20.30243">
        <ele>342.36999511719</ele>
        <time>2023-09-30T07:27:16.000Z</time>
      </trkpt>
      <trkpt lat="41.22546" lon="20.30246">
        <ele>341.89001464844</ele>
        <time>2023-09-30T07:27:15.000Z</time>
      </trkpt>
      <trkpt lat="41.22541" lon="20.30249">
        <ele>341.41000366211</ele>
        <time>2023-09-30T07:27:14.000Z</time>
      </trkpt>
      <trkpt lat="41.22538" lon="20.30251">
        <ele>340.92001342773</ele>
        <time>2023-09-30T07:27:13.000Z</time>
      </trkpt>
      <trkpt lat="41.22527" lon="20.30258">
        <ele>339.95999145508</ele>
        <time>2023-09-30T07:27:12.000Z</time>
      </trkpt>
      <trkpt lat="41.22516" lon="20.30268">
        <ele>339</ele>
        <time>2023-09-30T07:27:11.000Z</time>
      </trkpt>
      <trkpt lat="41.22514" lon="20.30269">
        <ele>339</ele>
        <time>2023-09-30T07:27:10.000Z</time>
      </trkpt>
      <trkpt lat="41.22499" lon="20.30285">
        <ele>337.55999755859</ele>
        <time>2023-09-30T07:27:08.000Z</time>
      </trkpt>
      <trkpt lat="41.22492" lon="20.30291">
        <ele>336.60000610352</ele>
        <time>2023-09-30T07:27:07.000Z</time>
      </trkpt>
      <trkpt lat="41.22485" lon="20.30295">
        <ele>336.11999511719</ele>
        <time>2023-09-30T07:27:06.000Z</time>
      </trkpt>
      <trkpt lat="41.22478" lon="20.30298">
        <ele>335.64001464844</ele>
        <time>2023-09-30T07:27:05.000Z</time>
      </trkpt>
      <trkpt lat="41.22471" lon="20.30299">
        <ele>335.16000366211</ele>
        <time>2023-09-30T07:27:04.000Z</time>
      </trkpt>
      <trkpt lat="41.22463" lon="20.30299">
        <ele>334.67999267578</ele>
        <time>2023-09-30T07:27:03.000Z</time>
      </trkpt>
      <trkpt lat="41.22458" lon="20.30298">
        <ele>334.67999267578</ele>
        <time>2023-09-30T07:27:02.000Z</time>
      </trkpt>
      <trkpt lat="41.22452" lon="20.30297">
        <ele>334.20001220703</ele>
        <time>2023-09-30T07:27:01.000Z</time>
      </trkpt>
      <trkpt lat="41.22443" lon="20.30293">
        <ele>333.23001098633</ele>
        <time>2023-09-30T07:27:00.000Z</time>
      </trkpt>
      <trkpt lat="41.2243" lon="20.30287">
        <ele>332.75</ele>
        <time>2023-09-30T07:26:58.000Z</time>
      </trkpt>
      <trkpt lat="41.22425" lon="20.30284">
        <ele>332.26998901367</ele>
        <time>2023-09-30T07:26:57.000Z</time>
      </trkpt>
      <trkpt lat="41.22398" lon="20.30273">
        <ele>330.82998657227</ele>
        <time>2023-09-30T07:26:54.000Z</time>
      </trkpt>
      <trkpt lat="41.22389" lon="20.3027">
        <ele>330.35000610352</ele>
        <time>2023-09-30T07:26:53.000Z</time>
      </trkpt>
      <trkpt lat="41.22382" lon="20.30268">
        <ele>329.86999511719</ele>
        <time>2023-09-30T07:26:52.000Z</time>
      </trkpt>
      <trkpt lat="41.22374" lon="20.30268">
        <ele>329.39001464844</ele>
        <time>2023-09-30T07:26:51.000Z</time>
      </trkpt>
      <trkpt lat="41.22366" lon="20.3027">
        <ele>328.42999267578</ele>
        <time>2023-09-30T07:26:50.000Z</time>
      </trkpt>
      <trkpt lat="41.22357" lon="20.30276">
        <ele>327.4700012207</ele>
        <time>2023-09-30T07:26:49.000Z</time>
      </trkpt>
      <trkpt lat="41.22349" lon="20.30281">
        <ele>326.98999023438</ele>
        <time>2023-09-30T07:26:48.000Z</time>
      </trkpt>
      <trkpt lat="41.22339" lon="20.30289">
        <ele>325.54000854492</ele>
        <time>2023-09-30T07:26:47.000Z</time>
      </trkpt>
      <trkpt lat="41.22328" lon="20.30296">
        <ele>324.57998657227</ele>
        <time>2023-09-30T07:26:46.000Z</time>
      </trkpt>
      <trkpt lat="41.22315" lon="20.30301">
        <ele>323.14001464844</ele>
        <time>2023-09-30T07:26:45.000Z</time>
      </trkpt>
      <trkpt lat="41.22301" lon="20.30302">
        <ele>322.17999267578</ele>
        <time>2023-09-30T07:26:44.000Z</time>
      </trkpt>
      <trkpt lat="41.22286" lon="20.30299">
        <ele>321.2200012207</ele>
        <time>2023-09-30T07:26:43.000Z</time>
      </trkpt>
      <trkpt lat="41.22281" lon="20.30297">
        <ele>320.73999023438</ele>
        <time>2023-09-30T07:26:42.000Z</time>
      </trkpt>
      <trkpt lat="41.22264" lon="20.3029">
        <ele>319.29998779297</ele>
        <time>2023-09-30T07:26:41.000Z</time>
      </trkpt>
      <trkpt lat="41.22249" lon="20.30284">
        <ele>318.32998657227</ele>
        <time>2023-09-30T07:26:40.000Z</time>
      </trkpt>
      <trkpt lat="41.22221" lon="20.30275">
        <ele>315.45001220703</ele>
        <time>2023-09-30T07:26:38.000Z</time>
      </trkpt>
      <trkpt lat="41.22147" lon="20.30249">
        <ele>309.20001220703</ele>
        <time>2023-09-30T07:26:34.000Z</time>
      </trkpt>
      <trkpt lat="41.22074" lon="20.30229">
        <ele>304.39001464844</ele>
        <time>2023-09-30T07:26:29.000Z</time>
      </trkpt>
      <trkpt lat="41.22062" lon="20.30226">
        <ele>303.42999267578</ele>
        <time>2023-09-30T07:26:28.000Z</time>
      </trkpt>
      <trkpt lat="41.22051" lon="20.3022">
        <ele>302.95001220703</ele>
        <time>2023-09-30T07:26:27.000Z</time>
      </trkpt>
      <trkpt lat="41.22043" lon="20.30208">
        <ele>301.98999023438</ele>
        <time>2023-09-30T07:26:26.000Z</time>
      </trkpt>
      <trkpt lat="41.22037" lon="20.30192">
        <ele>301.51000976562</ele>
        <time>2023-09-30T07:26:25.000Z</time>
      </trkpt>
      <trkpt lat="41.22033" lon="20.30174">
        <ele>301.0299987793</ele>
        <time>2023-09-30T07:26:24.000Z</time>
      </trkpt>
      <trkpt lat="41.22029" lon="20.30156">
        <ele>300.07000732422</ele>
        <time>2023-09-30T07:26:23.000Z</time>
      </trkpt>
      <trkpt lat="41.22025" lon="20.30131">
        <ele>299.58999633789</ele>
        <time>2023-09-30T07:26:22.000Z</time>
      </trkpt>
      <trkpt lat="41.22021" lon="20.30116">
        <ele>298.63000488281</ele>
        <time>2023-09-30T07:26:21.000Z</time>
      </trkpt>
      <trkpt lat="41.22015" lon="20.30105">
        <ele>297.67001342773</ele>
        <time>2023-09-30T07:26:20.000Z</time>
      </trkpt>
      <trkpt lat="41.22006" lon="20.30097">
        <ele>297.17999267578</ele>
        <time>2023-09-30T07:26:19.000Z</time>
      </trkpt>
      <trkpt lat="41.21995" lon="20.30093">
        <ele>296.2200012207</ele>
        <time>2023-09-30T07:26:18.000Z</time>
      </trkpt>
      <trkpt lat="41.21984" lon="20.30094">
        <ele>295.26000976562</ele>
        <time>2023-09-30T07:26:17.000Z</time>
      </trkpt>
      <trkpt lat="41.21965" lon="20.30098">
        <ele>294.29998779297</ele>
        <time>2023-09-30T07:26:16.000Z</time>
      </trkpt>
      <trkpt lat="41.21949" lon="20.30098">
        <ele>293.33999633789</ele>
        <time>2023-09-30T07:26:15.000Z</time>
      </trkpt>
      <trkpt lat="41.21932" lon="20.30094">
        <ele>292.85998535156</ele>
        <time>2023-09-30T07:26:14.000Z</time>
      </trkpt>
      <trkpt lat="41.21927" lon="20.30092">
        <ele>292.38000488281</ele>
        <time>2023-09-30T07:26:13.000Z</time>
      </trkpt>
      <trkpt lat="41.21904" lon="20.3008">
        <ele>291.42001342773</ele>
        <time>2023-09-30T07:26:12.000Z</time>
      </trkpt>
      <trkpt lat="41.21886" lon="20.30071">
        <ele>289.9700012207</ele>
        <time>2023-09-30T07:26:11.000Z</time>
      </trkpt>
      <trkpt lat="41.21873" lon="20.30067">
        <ele>289.01000976562</ele>
        <time>2023-09-30T07:26:10.000Z</time>
      </trkpt>
      <trkpt lat="41.21861" lon="20.30069">
        <ele>287.57000732422</ele>
        <time>2023-09-30T07:26:09.000Z</time>
      </trkpt>
      <trkpt lat="41.21848" lon="20.30077">
        <ele>285.64999389648</ele>
        <time>2023-09-30T07:26:08.000Z</time>
      </trkpt>
      <trkpt lat="41.21837" lon="20.30086">
        <ele>284.69000244141</ele>
        <time>2023-09-30T07:26:07.000Z</time>
      </trkpt>
      <trkpt lat="41.21807" lon="20.30116">
        <ele>281.32000732422</ele>
        <time>2023-09-30T07:26:05.000Z</time>
      </trkpt>
      <trkpt lat="41.21798" lon="20.30126">
        <ele>280.35998535156</ele>
        <time>2023-09-30T07:26:04.000Z</time>
      </trkpt>
      <trkpt lat="41.21791" lon="20.30139">
        <ele>278.44000244141</ele>
        <time>2023-09-30T07:26:03.000Z</time>
      </trkpt>
      <trkpt lat="41.21788" lon="20.30155">
        <ele>277.48001098633</ele>
        <time>2023-09-30T07:26:02.000Z</time>
      </trkpt>
      <trkpt lat="41.21788" lon="20.30167">
        <ele>276.51998901367</ele>
        <time>2023-09-30T07:26:01.000Z</time>
      </trkpt>
      <trkpt lat="41.21791" lon="20.30195">
        <ele>275.07000732422</ele>
        <time>2023-09-30T07:26:00.000Z</time>
      </trkpt>
      <trkpt lat="41.21793" lon="20.30222">
        <ele>275.07000732422</ele>
        <time>2023-09-30T07:25:59.000Z</time>
      </trkpt>
      <trkpt lat="41.21793" lon="20.30243">
        <ele>274.58999633789</ele>
        <time>2023-09-30T07:25:58.000Z</time>
      </trkpt>
      <trkpt lat="41.21791" lon="20.30264">
        <ele>274.58999633789</ele>
        <time>2023-09-30T07:25:57.000Z</time>
      </trkpt>
      <trkpt lat="41.21786" lon="20.30282">
        <ele>274.58999633789</ele>
        <time>2023-09-30T07:25:56.000Z</time>
      </trkpt>
      <trkpt lat="41.21778" lon="20.30299">
        <ele>274.10998535156</ele>
        <time>2023-09-30T07:25:55.000Z</time>
      </trkpt>
      <trkpt lat="41.21768" lon="20.30312">
        <ele>274.10998535156</ele>
        <time>2023-09-30T07:25:54.000Z</time>
      </trkpt>
      <trkpt lat="41.21757" lon="20.30322">
        <ele>274.58999633789</ele>
        <time>2023-09-30T07:25:53.000Z</time>
      </trkpt>
      <trkpt lat="41.21744" lon="20.30328">
        <ele>275.07000732422</ele>
        <time>2023-09-30T07:25:52.000Z</time>
      </trkpt>
      <trkpt lat="41.2173" lon="20.30331">
        <ele>275.07000732422</ele>
        <time>2023-09-30T07:25:51.000Z</time>
      </trkpt>
      <trkpt lat="41.21716" lon="20.30331">
        <ele>276.04000854492</ele>
        <time>2023-09-30T07:25:50.000Z</time>
      </trkpt>
      <trkpt lat="41.21702" lon="20.30326">
        <ele>276.51998901367</ele>
        <time>2023-09-30T07:25:49.000Z</time>
      </trkpt>
      <trkpt lat="41.2169" lon="20.30318">
        <ele>276.51998901367</ele>
        <time>2023-09-30T07:25:48.000Z</time>
      </trkpt>
      <trkpt lat="41.21675" lon="20.30306">
        <ele>276.51998901367</ele>
        <time>2023-09-30T07:25:47.000Z</time>
      </trkpt>
      <trkpt lat="41.21659" lon="20.30296">
        <ele>276.51998901367</ele>
        <time>2023-09-30T07:25:46.000Z</time>
      </trkpt>
      <trkpt lat="41.21626" lon="20.30278">
        <ele>277</ele>
        <time>2023-09-30T07:25:44.000Z</time>
      </trkpt>
      <trkpt lat="41.21614" lon="20.30265">
        <ele>277</ele>
        <time>2023-09-30T07:25:43.000Z</time>
      </trkpt>
      <trkpt lat="41.21604" lon="20.30251">
        <ele>277</ele>
        <time>2023-09-30T07:25:42.000Z</time>
      </trkpt>
      <trkpt lat="41.21572" lon="20.30195">
        <ele>276.04000854492</ele>
        <time>2023-09-30T07:25:39.000Z</time>
      </trkpt>
      <trkpt lat="41.21565" lon="20.30177">
        <ele>276.04000854492</ele>
        <time>2023-09-30T07:25:38.000Z</time>
      </trkpt>
      <trkpt lat="41.21562" lon="20.30158">
        <ele>276.51998901367</ele>
        <time>2023-09-30T07:25:37.000Z</time>
      </trkpt>
      <trkpt lat="41.21561" lon="20.30146">
        <ele>276.04000854492</ele>
        <time>2023-09-30T07:25:36.000Z</time>
      </trkpt>
      <trkpt lat="41.21559" lon="20.30003">
        <ele>277</ele>
        <time>2023-09-30T07:25:31.000Z</time>
      </trkpt>
      <trkpt lat="41.21559" lon="20.29877">
        <ele>278.92001342773</ele>
        <time>2023-09-30T07:25:26.000Z</time>
      </trkpt>
      <trkpt lat="41.21559" lon="20.29859">
        <ele>279.39999389648</ele>
        <time>2023-09-30T07:25:25.000Z</time>
      </trkpt>
      <trkpt lat="41.21556" lon="20.29845">
        <ele>279.88000488281</ele>
        <time>2023-09-30T07:25:24.000Z</time>
      </trkpt>
      <trkpt lat="41.21552" lon="20.29833">
        <ele>280.35998535156</ele>
        <time>2023-09-30T07:25:23.000Z</time>
      </trkpt>
      <trkpt lat="41.21544" lon="20.29827">
        <ele>280.83999633789</ele>
        <time>2023-09-30T07:25:22.000Z</time>
      </trkpt>
      <trkpt lat="41.21535" lon="20.29825">
        <ele>280.83999633789</ele>
        <time>2023-09-30T07:25:21.000Z</time>
      </trkpt>
      <trkpt lat="41.21524" lon="20.29827">
        <ele>280.83999633789</ele>
        <time>2023-09-30T07:25:20.000Z</time>
      </trkpt>
      <trkpt lat="41.21511" lon="20.29834">
        <ele>281.32000732422</ele>
        <time>2023-09-30T07:25:19.000Z</time>
      </trkpt>
      <trkpt lat="41.21509" lon="20.29836">
        <ele>281.32000732422</ele>
        <time>2023-09-30T07:25:18.000Z</time>
      </trkpt>
      <trkpt lat="41.21483" lon="20.29855">
        <ele>281.32000732422</ele>
        <time>2023-09-30T07:25:17.000Z</time>
      </trkpt>
      <trkpt lat="41.21468" lon="20.29862">
        <ele>281.79998779297</ele>
        <time>2023-09-30T07:25:16.000Z</time>
      </trkpt>
      <trkpt lat="41.21451" lon="20.29867">
        <ele>282.2799987793</ele>
        <time>2023-09-30T07:25:15.000Z</time>
      </trkpt>
      <trkpt lat="41.21435" lon="20.2987">
        <ele>283.25</ele>
        <time>2023-09-30T07:25:14.000Z</time>
      </trkpt>
      <trkpt lat="41.21424" lon="20.29871">
        <ele>283.73001098633</ele>
        <time>2023-09-30T07:25:13.000Z</time>
      </trkpt>
      <trkpt lat="41.21403" lon="20.2987">
        <ele>284.69000244141</ele>
        <time>2023-09-30T07:25:12.000Z</time>
      </trkpt>
      <trkpt lat="41.21388" lon="20.2987">
        <ele>285.17001342773</ele>
        <time>2023-09-30T07:25:11.000Z</time>
      </trkpt>
      <trkpt lat="41.21379" lon="20.29872">
        <ele>285.17001342773</ele>
        <time>2023-09-30T07:25:10.000Z</time>
      </trkpt>
      <trkpt lat="41.21361" lon="20.29879">
        <ele>285.64999389648</ele>
        <time>2023-09-30T07:25:09.000Z</time>
      </trkpt>
      <trkpt lat="41.21351" lon="20.29888">
        <ele>285.64999389648</ele>
        <time>2023-09-30T07:25:08.000Z</time>
      </trkpt>
      <trkpt lat="41.21341" lon="20.29902">
        <ele>285.64999389648</ele>
        <time>2023-09-30T07:25:07.000Z</time>
      </trkpt>
      <trkpt lat="41.21333" lon="20.2992">
        <ele>285.64999389648</ele>
        <time>2023-09-30T07:25:06.000Z</time>
      </trkpt>
      <trkpt lat="41.21327" lon="20.2994">
        <ele>285.64999389648</ele>
        <time>2023-09-30T07:25:05.000Z</time>
      </trkpt>
      <trkpt lat="41.21324" lon="20.29957">
        <ele>285.64999389648</ele>
        <time>2023-09-30T07:25:04.000Z</time>
      </trkpt>
      <trkpt lat="41.2132" lon="20.29985">
        <ele>285.17001342773</ele>
        <time>2023-09-30T07:25:02.000Z</time>
      </trkpt>
      <trkpt lat="41.21317" lon="20.29994">
        <ele>285.17001342773</ele>
        <time>2023-09-30T07:25:01.000Z</time>
      </trkpt>
      <trkpt lat="41.21312" lon="20.30001">
        <ele>285.17001342773</ele>
        <time>2023-09-30T07:25:00.000Z</time>
      </trkpt>
      <trkpt lat="41.21305" lon="20.3001">
        <ele>284.69000244141</ele>
        <time>2023-09-30T07:24:59.000Z</time>
      </trkpt>
      <trkpt lat="41.2128" lon="20.30037">
        <ele>284.20999145508</ele>
        <time>2023-09-30T07:24:57.000Z</time>
      </trkpt>
      <trkpt lat="41.21276" lon="20.30042">
        <ele>284.20999145508</ele>
        <time>2023-09-30T07:24:56.000Z</time>
      </trkpt>
      <trkpt lat="41.21259" lon="20.30058">
        <ele>283.25</ele>
        <time>2023-09-30T07:24:55.000Z</time>
      </trkpt>
      <trkpt lat="41.21247" lon="20.30066">
        <ele>282.76998901367</ele>
        <time>2023-09-30T07:24:54.000Z</time>
      </trkpt>
      <trkpt lat="41.21235" lon="20.30072">
        <ele>282.2799987793</ele>
        <time>2023-09-30T07:24:53.000Z</time>
      </trkpt>
      <trkpt lat="41.21221" lon="20.30073">
        <ele>281.79998779297</ele>
        <time>2023-09-30T07:24:52.000Z</time>
      </trkpt>
      <trkpt lat="41.21205" lon="20.3007">
        <ele>281.79998779297</ele>
        <time>2023-09-30T07:24:51.000Z</time>
      </trkpt>
      <trkpt lat="41.21162" lon="20.30056">
        <ele>280.35998535156</ele>
        <time>2023-09-30T07:24:48.000Z</time>
      </trkpt>
      <trkpt lat="41.2115" lon="20.30055">
        <ele>279.88000488281</ele>
        <time>2023-09-30T07:24:47.000Z</time>
      </trkpt>
      <trkpt lat="41.2114" lon="20.30057">
        <ele>279.39999389648</ele>
        <time>2023-09-30T07:24:46.000Z</time>
      </trkpt>
      <trkpt lat="41.21131" lon="20.30064">
        <ele>278.44000244141</ele>
        <time>2023-09-30T07:24:45.000Z</time>
      </trkpt>
      <trkpt lat="41.21122" lon="20.30074">
        <ele>277.95999145508</ele>
        <time>2023-09-30T07:24:44.000Z</time>
      </trkpt>
      <trkpt lat="41.21117" lon="20.30083">
        <ele>277.95999145508</ele>
        <time>2023-09-30T07:24:43.000Z</time>
      </trkpt>
      <trkpt lat="41.21108" lon="20.30097">
        <ele>277.48001098633</ele>
        <time>2023-09-30T07:24:42.000Z</time>
      </trkpt>
      <trkpt lat="41.21099" lon="20.30104">
        <ele>277.48001098633</ele>
        <time>2023-09-30T07:24:41.000Z</time>
      </trkpt>
      <trkpt lat="41.21088" lon="20.30106">
        <ele>277.48001098633</ele>
        <time>2023-09-30T07:24:40.000Z</time>
      </trkpt>
      <trkpt lat="41.21073" lon="20.30105">
        <ele>277.48001098633</ele>
        <time>2023-09-30T07:24:39.000Z</time>
      </trkpt>
      <trkpt lat="41.21063" lon="20.30105">
        <ele>277.48001098633</ele>
        <time>2023-09-30T07:24:38.000Z</time>
      </trkpt>
      <trkpt lat="41.21043" lon="20.30106">
        <ele>277</ele>
        <time>2023-09-30T07:24:37.000Z</time>
      </trkpt>
      <trkpt lat="41.21005" lon="20.30108">
        <ele>275.55999755859</ele>
        <time>2023-09-30T07:24:35.000Z</time>
      </trkpt>
      <trkpt lat="41.20989" lon="20.30106">
        <ele>275.07000732422</ele>
        <time>2023-09-30T07:24:34.000Z</time>
      </trkpt>
      <trkpt lat="41.20986" lon="20.30106">
        <ele>275.07000732422</ele>
        <time>2023-09-30T07:24:33.000Z</time>
      </trkpt>
      <trkpt lat="41.20957" lon="20.30098">
        <ele>273.14999389648</ele>
        <time>2023-09-30T07:24:32.000Z</time>
      </trkpt>
      <trkpt lat="41.20943" lon="20.30097">
        <ele>271.70999145508</ele>
        <time>2023-09-30T07:24:31.000Z</time>
      </trkpt>
      <trkpt lat="41.20927" lon="20.30101">
        <ele>269.79000854492</ele>
        <time>2023-09-30T07:24:30.000Z</time>
      </trkpt>
      <trkpt lat="41.20918" lon="20.30105">
        <ele>268.82998657227</ele>
        <time>2023-09-30T07:24:29.000Z</time>
      </trkpt>
      <trkpt lat="41.2084" lon="20.3015">
        <ele>263.05999755859</ele>
        <time>2023-09-30T07:24:25.000Z</time>
      </trkpt>
      <trkpt lat="41.20819" lon="20.30158">
        <ele>263.05999755859</ele>
        <time>2023-09-30T07:24:24.000Z</time>
      </trkpt>
      <trkpt lat="41.20807" lon="20.30161">
        <ele>263.05999755859</ele>
        <time>2023-09-30T07:24:23.000Z</time>
      </trkpt>
      <trkpt lat="41.20783" lon="20.30164">
        <ele>263.05999755859</ele>
        <time>2023-09-30T07:24:22.000Z</time>
      </trkpt>
      <trkpt lat="41.20772" lon="20.30164">
        <ele>263.05999755859</ele>
        <time>2023-09-30T07:24:21.000Z</time>
      </trkpt>
      <trkpt lat="41.2074" lon="20.30164">
        <ele>263.05999755859</ele>
        <time>2023-09-30T07:24:19.000Z</time>
      </trkpt>
      <trkpt lat="41.20719" lon="20.30164">
        <ele>262.10000610352</ele>
        <time>2023-09-30T07:24:18.000Z</time>
      </trkpt>
      <trkpt lat="41.20706" lon="20.30166">
        <ele>261.14001464844</ele>
        <time>2023-09-30T07:24:17.000Z</time>
      </trkpt>
      <trkpt lat="41.20695" lon="20.30171">
        <ele>260.17001342773</ele>
        <time>2023-09-30T07:24:16.000Z</time>
      </trkpt>
      <trkpt lat="41.20686" lon="20.30184">
        <ele>259.20999145508</ele>
        <time>2023-09-30T07:24:15.000Z</time>
      </trkpt>
      <trkpt lat="41.20681" lon="20.30201">
        <ele>258.25</ele>
        <time>2023-09-30T07:24:14.000Z</time>
      </trkpt>
      <trkpt lat="41.20678" lon="20.30218">
        <ele>257.76998901367</ele>
        <time>2023-09-30T07:24:13.000Z</time>
      </trkpt>
      <trkpt lat="41.20674" lon="20.30243">
        <ele>257.76998901367</ele>
        <time>2023-09-30T07:24:12.000Z</time>
      </trkpt>
      <trkpt lat="41.20668" lon="20.30267">
        <ele>257.76998901367</ele>
        <time>2023-09-30T07:24:11.000Z</time>
      </trkpt>
      <trkpt lat="41.20651" lon="20.30312">
        <ele>258.73001098633</ele>
        <time>2023-09-30T07:24:09.000Z</time>
      </trkpt>
      <trkpt lat="41.20641" lon="20.3033">
        <ele>258.25</ele>
        <time>2023-09-30T07:24:08.000Z</time>
      </trkpt>
      <trkpt lat="41.20634" lon="20.30342">
        <ele>258.73001098633</ele>
        <time>2023-09-30T07:24:07.000Z</time>
      </trkpt>
      <trkpt lat="41.20619" lon="20.30362">
        <ele>258.25</ele>
        <time>2023-09-30T07:24:06.000Z</time>
      </trkpt>
      <trkpt lat="41.2061" lon="20.30378">
        <ele>257.29000854492</ele>
        <time>2023-09-30T07:24:05.000Z</time>
      </trkpt>
      <trkpt lat="41.20593" lon="20.30411">
        <ele>256.32998657227</ele>
        <time>2023-09-30T07:24:03.000Z</time>
      </trkpt>
      <trkpt lat="41.20582" lon="20.30424">
        <ele>256.32998657227</ele>
        <time>2023-09-30T07:24:02.000Z</time>
      </trkpt>
      <trkpt lat="41.2057" lon="20.30433">
        <ele>255.85000610352</ele>
        <time>2023-09-30T07:24:01.000Z</time>
      </trkpt>
      <trkpt lat="41.20564" lon="20.30436">
        <ele>255.85000610352</ele>
        <time>2023-09-30T07:24:00.000Z</time>
      </trkpt>
      <trkpt lat="41.20527" lon="20.30455">
        <ele>255.36999511719</ele>
        <time>2023-09-30T07:23:58.000Z</time>
      </trkpt>
      <trkpt lat="41.20514" lon="20.30466">
        <ele>255.36999511719</ele>
        <time>2023-09-30T07:23:57.000Z</time>
      </trkpt>
      <trkpt lat="41.20507" lon="20.30474">
        <ele>255.36999511719</ele>
        <time>2023-09-30T07:23:56.000Z</time>
      </trkpt>
      <trkpt lat="41.20494" lon="20.30489">
        <ele>255.36999511719</ele>
        <time>2023-09-30T07:23:55.000Z</time>
      </trkpt>
      <trkpt lat="41.20485" lon="20.30498">
        <ele>254.88999938965</ele>
        <time>2023-09-30T07:23:54.000Z</time>
      </trkpt>
      <trkpt lat="41.20475" lon="20.30503">
        <ele>254.88999938965</ele>
        <time>2023-09-30T07:23:53.000Z</time>
      </trkpt>
      <trkpt lat="41.20464" lon="20.30505">
        <ele>255.36999511719</ele>
        <time>2023-09-30T07:23:52.000Z</time>
      </trkpt>
      <trkpt lat="41.20452" lon="20.30503">
        <ele>254.88999938965</ele>
        <time>2023-09-30T07:23:51.000Z</time>
      </trkpt>
      <trkpt lat="41.20441" lon="20.30497">
        <ele>254.88999938965</ele>
        <time>2023-09-30T07:23:50.000Z</time>
      </trkpt>
      <trkpt lat="41.20429" lon="20.30487">
        <ele>254.88999938965</ele>
        <time>2023-09-30T07:23:49.000Z</time>
      </trkpt>
      <trkpt lat="41.20423" lon="20.3048">
        <ele>254.41000366211</ele>
        <time>2023-09-30T07:23:48.000Z</time>
      </trkpt>
      <trkpt lat="41.20408" lon="20.3046">
        <ele>253.92999267578</ele>
        <time>2023-09-30T07:23:47.000Z</time>
      </trkpt>
      <trkpt lat="41.20398" lon="20.30447">
        <ele>253.44000244141</ele>
        <time>2023-09-30T07:23:46.000Z</time>
      </trkpt>
      <trkpt lat="41.20388" lon="20.30438">
        <ele>252.96000671387</ele>
        <time>2023-09-30T07:23:45.000Z</time>
      </trkpt>
      <trkpt lat="41.20376" lon="20.30433">
        <ele>252</ele>
        <time>2023-09-30T07:23:44.000Z</time>
      </trkpt>
      <trkpt lat="41.20363" lon="20.30433">
        <ele>251.03999328613</ele>
        <time>2023-09-30T07:23:43.000Z</time>
      </trkpt>
      <trkpt lat="41.20351" lon="20.30435">
        <ele>250.08000183105</ele>
        <time>2023-09-30T07:23:42.000Z</time>
      </trkpt>
      <trkpt lat="41.20318" lon="20.30442">
        <ele>250.08000183105</ele>
        <time>2023-09-30T07:23:40.000Z</time>
      </trkpt>
      <trkpt lat="41.203" lon="20.30451">
        <ele>250.08000183105</ele>
        <time>2023-09-30T07:23:39.000Z</time>
      </trkpt>
      <trkpt lat="41.20287" lon="20.3046">
        <ele>250.08000183105</ele>
        <time>2023-09-30T07:23:38.000Z</time>
      </trkpt>
      <trkpt lat="41.20277" lon="20.30469">
        <ele>250.08000183105</ele>
        <time>2023-09-30T07:23:37.000Z</time>
      </trkpt>
      <trkpt lat="41.20271" lon="20.30476">
        <ele>250.08000183105</ele>
        <time>2023-09-30T07:23:36.000Z</time>
      </trkpt>
      <trkpt lat="41.20252" lon="20.305">
        <ele>249.60000610352</ele>
        <time>2023-09-30T07:23:35.000Z</time>
      </trkpt>
      <trkpt lat="41.20243" lon="20.30515">
        <ele>249.60000610352</ele>
        <time>2023-09-30T07:23:34.000Z</time>
      </trkpt>
      <trkpt lat="41.20234" lon="20.30533">
        <ele>249.11999511719</ele>
        <time>2023-09-30T07:23:33.000Z</time>
      </trkpt>
      <trkpt lat="41.20232" lon="20.30539">
        <ele>249.11999511719</ele>
        <time>2023-09-30T07:23:32.000Z</time>
      </trkpt>
      <trkpt lat="41.20221" lon="20.30568">
        <ele>249.11999511719</ele>
        <time>2023-09-30T07:23:31.000Z</time>
      </trkpt>
      <trkpt lat="41.20214" lon="20.30583">
        <ele>248.63999938965</ele>
        <time>2023-09-30T07:23:30.000Z</time>
      </trkpt>
      <trkpt lat="41.20202" lon="20.30602">
        <ele>248.63999938965</ele>
        <time>2023-09-30T07:23:29.000Z</time>
      </trkpt>
      <trkpt lat="41.20179" lon="20.30634">
        <ele>248.16000366211</ele>
        <time>2023-09-30T07:23:27.000Z</time>
      </trkpt>
      <trkpt lat="41.20132" lon="20.30686">
        <ele>248.63999938965</ele>
        <time>2023-09-30T07:23:24.000Z</time>
      </trkpt>
      <trkpt lat="41.20123" lon="20.30694">
        <ele>249.11999511719</ele>
        <time>2023-09-30T07:23:23.000Z</time>
      </trkpt>
      <trkpt lat="41.20095" lon="20.3072">
        <ele>250.08000183105</ele>
        <time>2023-09-30T07:23:21.000Z</time>
      </trkpt>
      <trkpt lat="41.20078" lon="20.30735">
        <ele>251.03999328613</ele>
        <time>2023-09-30T07:23:20.000Z</time>
      </trkpt>
      <trkpt lat="41.2007" lon="20.30745">
        <ele>251.52000427246</ele>
        <time>2023-09-30T07:23:19.000Z</time>
      </trkpt>
      <trkpt lat="41.20049" lon="20.30777">
        <ele>252.96000671387</ele>
        <time>2023-09-30T07:23:17.000Z</time>
      </trkpt>
      <trkpt lat="41.19994" lon="20.30861">
        <ele>257.29000854492</ele>
        <time>2023-09-30T07:23:13.000Z</time>
      </trkpt>
      <trkpt lat="41.19988" lon="20.30878">
        <ele>257.76998901367</ele>
        <time>2023-09-30T07:23:12.000Z</time>
      </trkpt>
      <trkpt lat="41.19984" lon="20.30896">
        <ele>258.25</ele>
        <time>2023-09-30T07:23:11.000Z</time>
      </trkpt>
      <trkpt lat="41.19983" lon="20.30911">
        <ele>258.73001098633</ele>
        <time>2023-09-30T07:23:10.000Z</time>
      </trkpt>
      <trkpt lat="41.19981" lon="20.30926">
        <ele>258.25</ele>
        <time>2023-09-30T07:23:09.000Z</time>
      </trkpt>
      <trkpt lat="41.19977" lon="20.30938">
        <ele>258.25</ele>
        <time>2023-09-30T07:23:08.000Z</time>
      </trkpt>
      <trkpt lat="41.19971" lon="20.30947">
        <ele>257.76998901367</ele>
        <time>2023-09-30T07:23:07.000Z</time>
      </trkpt>
      <trkpt lat="41.19964" lon="20.30951">
        <ele>257.29000854492</ele>
        <time>2023-09-30T07:23:06.000Z</time>
      </trkpt>
      <trkpt lat="41.19954" lon="20.30952">
        <ele>256.32998657227</ele>
        <time>2023-09-30T07:23:05.000Z</time>
      </trkpt>
      <trkpt lat="41.19941" lon="20.3095">
        <ele>254.88999938965</ele>
        <time>2023-09-30T07:23:04.000Z</time>
      </trkpt>
      <trkpt lat="41.19894" lon="20.30937">
        <ele>250.55999755859</ele>
        <time>2023-09-30T07:23:01.000Z</time>
      </trkpt>
      <trkpt lat="41.19877" lon="20.30935">
        <ele>250.08000183105</ele>
        <time>2023-09-30T07:23:00.000Z</time>
      </trkpt>
      <trkpt lat="41.19861" lon="20.30935">
        <ele>249.60000610352</ele>
        <time>2023-09-30T07:22:59.000Z</time>
      </trkpt>
      <trkpt lat="41.19855" lon="20.30936">
        <ele>249.11999511719</ele>
        <time>2023-09-30T07:22:58.000Z</time>
      </trkpt>
      <trkpt lat="41.19813" lon="20.30943">
        <ele>248.63999938965</ele>
        <time>2023-09-30T07:22:56.000Z</time>
      </trkpt>
      <trkpt lat="41.198" lon="20.30944">
        <ele>248.63999938965</ele>
        <time>2023-09-30T07:22:55.000Z</time>
      </trkpt>
      <trkpt lat="41.19788" lon="20.30942">
        <ele>249.11999511719</ele>
        <time>2023-09-30T07:22:54.000Z</time>
      </trkpt>
      <trkpt lat="41.19779" lon="20.30936">
        <ele>248.63999938965</ele>
        <time>2023-09-30T07:22:53.000Z</time>
      </trkpt>
      <trkpt lat="41.19773" lon="20.30926">
        <ele>248.63999938965</ele>
        <time>2023-09-30T07:22:52.000Z</time>
      </trkpt>
      <trkpt lat="41.1977" lon="20.30915">
        <ele>248.63999938965</ele>
        <time>2023-09-30T07:22:51.000Z</time>
      </trkpt>
      <trkpt lat="41.1977" lon="20.30902">
        <ele>249.11999511719</ele>
        <time>2023-09-30T07:22:50.000Z</time>
      </trkpt>
      <trkpt lat="41.19771" lon="20.30895">
        <ele>249.60000610352</ele>
        <time>2023-09-30T07:22:49.000Z</time>
      </trkpt>
      <trkpt lat="41.19775" lon="20.30882">
        <ele>250.08000183105</ele>
        <time>2023-09-30T07:22:48.000Z</time>
      </trkpt>
      <trkpt lat="41.19779" lon="20.30868">
        <ele>251.03999328613</ele>
        <time>2023-09-30T07:22:47.000Z</time>
      </trkpt>
      <trkpt lat="41.19783" lon="20.30855">
        <ele>252</ele>
        <time>2023-09-30T07:22:46.000Z</time>
      </trkpt>
      <trkpt lat="41.19785" lon="20.30843">
        <ele>252.47999572754</ele>
        <time>2023-09-30T07:22:45.000Z</time>
      </trkpt>
      <trkpt lat="41.19783" lon="20.30829">
        <ele>252.47999572754</ele>
        <time>2023-09-30T07:22:44.000Z</time>
      </trkpt>
      <trkpt lat="41.19779" lon="20.30814">
        <ele>252.96000671387</ele>
        <time>2023-09-30T07:22:43.000Z</time>
      </trkpt>
      <trkpt lat="41.19773" lon="20.30801">
        <ele>252.96000671387</ele>
        <time>2023-09-30T07:22:42.000Z</time>
      </trkpt>
      <trkpt lat="41.19766" lon="20.30789">
        <ele>252.96000671387</ele>
        <time>2023-09-30T07:22:41.000Z</time>
      </trkpt>
      <trkpt lat="41.19757" lon="20.30781">
        <ele>252.47999572754</ele>
        <time>2023-09-30T07:22:40.000Z</time>
      </trkpt>
      <trkpt lat="41.19745" lon="20.30777">
        <ele>252</ele>
        <time>2023-09-30T07:22:39.000Z</time>
      </trkpt>
      <trkpt lat="41.19733" lon="20.30776">
        <ele>251.52000427246</ele>
        <time>2023-09-30T07:22:38.000Z</time>
      </trkpt>
      <trkpt lat="41.1972" lon="20.30773">
        <ele>251.52000427246</ele>
        <time>2023-09-30T07:22:37.000Z</time>
      </trkpt>
      <trkpt lat="41.1971" lon="20.30767">
        <ele>251.03999328613</ele>
        <time>2023-09-30T07:22:36.000Z</time>
      </trkpt>
      <trkpt lat="41.19703" lon="20.30757">
        <ele>250.55999755859</ele>
        <time>2023-09-30T07:22:35.000Z</time>
      </trkpt>
      <trkpt lat="41.19699" lon="20.30745">
        <ele>250.08000183105</ele>
        <time>2023-09-30T07:22:34.000Z</time>
      </trkpt>
      <trkpt lat="41.19691" lon="20.30719">
        <ele>250.08000183105</ele>
        <time>2023-09-30T07:22:32.000Z</time>
      </trkpt>
      <trkpt lat="41.19684" lon="20.30694">
        <ele>250.08000183105</ele>
        <time>2023-09-30T07:22:31.000Z</time>
      </trkpt>
      <trkpt lat="41.19679" lon="20.30672">
        <ele>250.08000183105</ele>
        <time>2023-09-30T07:22:30.000Z</time>
      </trkpt>
      <trkpt lat="41.19674" lon="20.30653">
        <ele>249.11999511719</ele>
        <time>2023-09-30T07:22:29.000Z</time>
      </trkpt>
      <trkpt lat="41.19666" lon="20.30639">
        <ele>248.63999938965</ele>
        <time>2023-09-30T07:22:28.000Z</time>
      </trkpt>
      <trkpt lat="41.19661" lon="20.30633">
        <ele>248.16000366211</ele>
        <time>2023-09-30T07:22:27.000Z</time>
      </trkpt>
      <trkpt lat="41.19643" lon="20.30614">
        <ele>246.7200012207</ele>
        <time>2023-09-30T07:22:26.000Z</time>
      </trkpt>
      <trkpt lat="41.19633" lon="20.30601">
        <ele>245.75</ele>
        <time>2023-09-30T07:22:25.000Z</time>
      </trkpt>
      <trkpt lat="41.19623" lon="20.30587">
        <ele>244.78999328613</ele>
        <time>2023-09-30T07:22:24.000Z</time>
      </trkpt>
      <trkpt lat="41.19615" lon="20.30577">
        <ele>244.30999755859</ele>
        <time>2023-09-30T07:22:23.000Z</time>
      </trkpt>
      <trkpt lat="41.19605" lon="20.3057">
        <ele>243.35000610352</ele>
        <time>2023-09-30T07:22:22.000Z</time>
      </trkpt>
      <trkpt lat="41.19593" lon="20.30568">
        <ele>242.86999511719</ele>
        <time>2023-09-30T07:22:21.000Z</time>
      </trkpt>
      <trkpt lat="41.19585" lon="20.30569">
        <ele>242.38999938965</ele>
        <time>2023-09-30T07:22:20.000Z</time>
      </trkpt>
      <trkpt lat="41.19564" lon="20.30574">
        <ele>242.38999938965</ele>
        <time>2023-09-30T07:22:19.000Z</time>
      </trkpt>
      <trkpt lat="41.19549" lon="20.30574">
        <ele>242.38999938965</ele>
        <time>2023-09-30T07:22:18.000Z</time>
      </trkpt>
      <trkpt lat="41.19535" lon="20.30569">
        <ele>242.86999511719</ele>
        <time>2023-09-30T07:22:17.000Z</time>
      </trkpt>
      <trkpt lat="41.19523" lon="20.30564">
        <ele>243.35000610352</ele>
        <time>2023-09-30T07:22:16.000Z</time>
      </trkpt>
      <trkpt lat="41.19506" lon="20.30552">
        <ele>243.83000183105</ele>
        <time>2023-09-30T07:22:15.000Z</time>
      </trkpt>
      <trkpt lat="41.19495" lon="20.3054">
        <ele>244.30999755859</ele>
        <time>2023-09-30T07:22:14.000Z</time>
      </trkpt>
      <trkpt lat="41.19491" lon="20.30534">
        <ele>244.30999755859</ele>
        <time>2023-09-30T07:22:13.000Z</time>
      </trkpt>
      <trkpt lat="41.19478" lon="20.30518">
        <ele>244.78999328613</ele>
        <time>2023-09-30T07:22:12.000Z</time>
      </trkpt>
      <trkpt lat="41.19469" lon="20.30513">
        <ele>244.30999755859</ele>
        <time>2023-09-30T07:22:11.000Z</time>
      </trkpt>
      <trkpt lat="41.19457" lon="20.30511">
        <ele>244.30999755859</ele>
        <time>2023-09-30T07:22:10.000Z</time>
      </trkpt>
      <trkpt lat="41.19446" lon="20.30513">
        <ele>244.30999755859</ele>
        <time>2023-09-30T07:22:09.000Z</time>
      </trkpt>
      <trkpt lat="41.19432" lon="20.30517">
        <ele>245.27000427246</ele>
        <time>2023-09-30T07:22:08.000Z</time>
      </trkpt>
      <trkpt lat="41.1942" lon="20.30518">
        <ele>245.75</ele>
        <time>2023-09-30T07:22:07.000Z</time>
      </trkpt>
      <trkpt lat="41.19412" lon="20.30514">
        <ele>246.22999572754</ele>
        <time>2023-09-30T07:22:06.000Z</time>
      </trkpt>
      <trkpt lat="41.19405" lon="20.30503">
        <ele>247.67999267578</ele>
        <time>2023-09-30T07:22:05.000Z</time>
      </trkpt>
      <trkpt lat="41.19397" lon="20.3049">
        <ele>248.63999938965</ele>
        <time>2023-09-30T07:22:04.000Z</time>
      </trkpt>
      <trkpt lat="41.19387" lon="20.30474">
        <ele>248.63999938965</ele>
        <time>2023-09-30T07:22:03.000Z</time>
      </trkpt>
      <trkpt lat="41.19375" lon="20.30461">
        <ele>249.11999511719</ele>
        <time>2023-09-30T07:22:02.000Z</time>
      </trkpt>
      <trkpt lat="41.19362" lon="20.30452">
        <ele>249.11999511719</ele>
        <time>2023-09-30T07:22:01.000Z</time>
      </trkpt>
      <trkpt lat="41.19352" lon="20.30447">
        <ele>249.11999511719</ele>
        <time>2023-09-30T07:22:00.000Z</time>
      </trkpt>
      <trkpt lat="41.19336" lon="20.30442">
        <ele>249.60000610352</ele>
        <time>2023-09-30T07:21:59.000Z</time>
      </trkpt>
      <trkpt lat="41.19325" lon="20.30436">
        <ele>250.08000183105</ele>
        <time>2023-09-30T07:21:58.000Z</time>
      </trkpt>
      <trkpt lat="41.19314" lon="20.30425">
        <ele>250.08000183105</ele>
        <time>2023-09-30T07:21:57.000Z</time>
      </trkpt>
      <trkpt lat="41.19307" lon="20.30416">
        <ele>250.55999755859</ele>
        <time>2023-09-30T07:21:56.000Z</time>
      </trkpt>
      <trkpt lat="41.19279" lon="20.30381">
        <ele>251.52000427246</ele>
        <time>2023-09-30T07:21:54.000Z</time>
      </trkpt>
      <trkpt lat="41.19265" lon="20.30366">
        <ele>252</ele>
        <time>2023-09-30T07:21:53.000Z</time>
      </trkpt>
      <trkpt lat="41.19249" lon="20.30353">
        <ele>252.47999572754</ele>
        <time>2023-09-30T07:21:52.000Z</time>
      </trkpt>
      <trkpt lat="41.19237" lon="20.30345">
        <ele>252.96000671387</ele>
        <time>2023-09-30T07:21:51.000Z</time>
      </trkpt>
      <trkpt lat="41.19203" lon="20.30328">
        <ele>253.92999267578</ele>
        <time>2023-09-30T07:21:49.000Z</time>
      </trkpt>
      <trkpt lat="41.19175" lon="20.30317">
        <ele>254.41000366211</ele>
        <time>2023-09-30T07:21:47.000Z</time>
      </trkpt>
      <trkpt lat="41.19164" lon="20.30314">
        <ele>254.41000366211</ele>
        <time>2023-09-30T07:21:46.000Z</time>
      </trkpt>
      <trkpt lat="41.19152" lon="20.30314">
        <ele>253.92999267578</ele>
        <time>2023-09-30T07:21:45.000Z</time>
      </trkpt>
      <trkpt lat="41.1914" lon="20.30316">
        <ele>253.44000244141</ele>
        <time>2023-09-30T07:21:44.000Z</time>
      </trkpt>
      <trkpt lat="41.1913" lon="20.30323">
        <ele>252.96000671387</ele>
        <time>2023-09-30T07:21:43.000Z</time>
      </trkpt>
      <trkpt lat="41.1912" lon="20.30333">
        <ele>252.47999572754</ele>
        <time>2023-09-30T07:21:42.000Z</time>
      </trkpt>
      <trkpt lat="41.19115" lon="20.30341">
        <ele>252</ele>
        <time>2023-09-30T07:21:41.000Z</time>
      </trkpt>
      <trkpt lat="41.19104" lon="20.30359">
        <ele>251.52000427246</ele>
        <time>2023-09-30T07:21:40.000Z</time>
      </trkpt>
      <trkpt lat="41.19095" lon="20.30372">
        <ele>251.03999328613</ele>
        <time>2023-09-30T07:21:39.000Z</time>
      </trkpt>
      <trkpt lat="41.19081" lon="20.30389">
        <ele>251.03999328613</ele>
        <time>2023-09-30T07:21:38.000Z</time>
      </trkpt>
      <trkpt lat="41.19073" lon="20.30401">
        <ele>251.03999328613</ele>
        <time>2023-09-30T07:21:37.000Z</time>
      </trkpt>
      <trkpt lat="41.19066" lon="20.30417">
        <ele>251.52000427246</ele>
        <time>2023-09-30T07:21:36.000Z</time>
      </trkpt>
      <trkpt lat="41.19063" lon="20.30429">
        <ele>251.52000427246</ele>
        <time>2023-09-30T07:21:35.000Z</time>
      </trkpt>
      <trkpt lat="41.19058" lon="20.3045">
        <ele>251.03999328613</ele>
        <time>2023-09-30T07:21:34.000Z</time>
      </trkpt>
      <trkpt lat="41.19051" lon="20.30466">
        <ele>251.52000427246</ele>
        <time>2023-09-30T07:21:33.000Z</time>
      </trkpt>
      <trkpt lat="41.1904" lon="20.3048">
        <ele>251.52000427246</ele>
        <time>2023-09-30T07:21:32.000Z</time>
      </trkpt>
      <trkpt lat="41.1903" lon="20.30492">
        <ele>251.52000427246</ele>
        <time>2023-09-30T07:21:31.000Z</time>
      </trkpt>
      <trkpt lat="41.19016" lon="20.3051">
        <ele>252</ele>
        <time>2023-09-30T07:21:30.000Z</time>
      </trkpt>
      <trkpt lat="41.19001" lon="20.30536">
        <ele>252</ele>
        <time>2023-09-30T07:21:28.000Z</time>
      </trkpt>
      <trkpt lat="41.18985" lon="20.30561">
        <ele>251.52000427246</ele>
        <time>2023-09-30T07:21:27.000Z</time>
      </trkpt>
      <trkpt lat="41.18976" lon="20.30577">
        <ele>250.55999755859</ele>
        <time>2023-09-30T07:21:26.000Z</time>
      </trkpt>
      <trkpt lat="41.18971" lon="20.3059">
        <ele>250.08000183105</ele>
        <time>2023-09-30T07:21:25.000Z</time>
      </trkpt>
      <trkpt lat="41.18968" lon="20.30609">
        <ele>249.60000610352</ele>
        <time>2023-09-30T07:21:24.000Z</time>
      </trkpt>
      <trkpt lat="41.18968" lon="20.30626">
        <ele>248.63999938965</ele>
        <time>2023-09-30T07:21:23.000Z</time>
      </trkpt>
      <trkpt lat="41.18971" lon="20.30645">
        <ele>248.63999938965</ele>
        <time>2023-09-30T07:21:22.000Z</time>
      </trkpt>
      <trkpt lat="41.18976" lon="20.30662">
        <ele>248.16000366211</ele>
        <time>2023-09-30T07:21:21.000Z</time>
      </trkpt>
      <trkpt lat="41.18979" lon="20.30678">
        <ele>247.67999267578</ele>
        <time>2023-09-30T07:21:20.000Z</time>
      </trkpt>
      <trkpt lat="41.18978" lon="20.30693">
        <ele>247.19999694824</ele>
        <time>2023-09-30T07:21:19.000Z</time>
      </trkpt>
      <trkpt lat="41.18973" lon="20.30708">
        <ele>247.19999694824</ele>
        <time>2023-09-30T07:21:18.000Z</time>
      </trkpt>
      <trkpt lat="41.18959" lon="20.3074">
        <ele>246.7200012207</ele>
        <time>2023-09-30T07:21:16.000Z</time>
      </trkpt>
      <trkpt lat="41.18954" lon="20.30757">
        <ele>245.75</ele>
        <time>2023-09-30T07:21:15.000Z</time>
      </trkpt>
      <trkpt lat="41.18953" lon="20.30773">
        <ele>244.78999328613</ele>
        <time>2023-09-30T07:21:14.000Z</time>
      </trkpt>
      <trkpt lat="41.18954" lon="20.30789">
        <ele>243.83000183105</ele>
        <time>2023-09-30T07:21:13.000Z</time>
      </trkpt>
      <trkpt lat="41.18957" lon="20.308">
        <ele>243.35000610352</ele>
        <time>2023-09-30T07:21:12.000Z</time>
      </trkpt>
      <trkpt lat="41.18964" lon="20.30816">
        <ele>242.86999511719</ele>
        <time>2023-09-30T07:21:11.000Z</time>
      </trkpt>
      <trkpt lat="41.18971" lon="20.30829">
        <ele>242.86999511719</ele>
        <time>2023-09-30T07:21:10.000Z</time>
      </trkpt>
      <trkpt lat="41.18979" lon="20.30839">
        <ele>242.86999511719</ele>
        <time>2023-09-30T07:21:09.000Z</time>
      </trkpt>
      <trkpt lat="41.18987" lon="20.30853">
        <ele>243.35000610352</ele>
        <time>2023-09-30T07:21:08.000Z</time>
      </trkpt>
      <trkpt lat="41.18991" lon="20.30864">
        <ele>243.83000183105</ele>
        <time>2023-09-30T07:21:07.000Z</time>
      </trkpt>
      <trkpt lat="41.18991" lon="20.30876">
        <ele>243.83000183105</ele>
        <time>2023-09-30T07:21:06.000Z</time>
      </trkpt>
      <trkpt lat="41.18987" lon="20.30888">
        <ele>244.78999328613</ele>
        <time>2023-09-30T07:21:05.000Z</time>
      </trkpt>
      <trkpt lat="41.18982" lon="20.30896">
        <ele>244.78999328613</ele>
        <time>2023-09-30T07:21:04.000Z</time>
      </trkpt>
      <trkpt lat="41.18975" lon="20.30901">
        <ele>245.75</ele>
        <time>2023-09-30T07:21:03.000Z</time>
      </trkpt>
      <trkpt lat="41.18967" lon="20.30903">
        <ele>246.22999572754</ele>
        <time>2023-09-30T07:21:02.000Z</time>
      </trkpt>
      <trkpt lat="41.18959" lon="20.30903">
        <ele>246.7200012207</ele>
        <time>2023-09-30T07:21:01.000Z</time>
      </trkpt>
      <trkpt lat="41.18951" lon="20.30905">
        <ele>246.22999572754</ele>
        <time>2023-09-30T07:21:00.000Z</time>
      </trkpt>
      <trkpt lat="41.18947" lon="20.3091">
        <ele>245.75</ele>
        <time>2023-09-30T07:20:59.000Z</time>
      </trkpt>
      <trkpt lat="41.18942" lon="20.30919">
        <ele>245.27000427246</ele>
        <time>2023-09-30T07:20:58.000Z</time>
      </trkpt>
      <trkpt lat="41.18939" lon="20.30933">
        <ele>244.30999755859</ele>
        <time>2023-09-30T07:20:57.000Z</time>
      </trkpt>
      <trkpt lat="41.18937" lon="20.3095">
        <ele>244.30999755859</ele>
        <time>2023-09-30T07:20:56.000Z</time>
      </trkpt>
      <trkpt lat="41.18934" lon="20.30968">
        <ele>243.83000183105</ele>
        <time>2023-09-30T07:20:55.000Z</time>
      </trkpt>
      <trkpt lat="41.18932" lon="20.30979">
        <ele>243.35000610352</ele>
        <time>2023-09-30T07:20:54.000Z</time>
      </trkpt>
      <trkpt lat="41.18927" lon="20.30994">
        <ele>242.86999511719</ele>
        <time>2023-09-30T07:20:53.000Z</time>
      </trkpt>
      <trkpt lat="41.18923" lon="20.31008">
        <ele>243.35000610352</ele>
        <time>2023-09-30T07:20:52.000Z</time>
      </trkpt>
      <trkpt lat="41.18916" lon="20.31028">
        <ele>243.35000610352</ele>
        <time>2023-09-30T07:20:51.000Z</time>
      </trkpt>
      <trkpt lat="41.18887" lon="20.31092">
        <ele>243.83000183105</ele>
        <time>2023-09-30T07:20:48.000Z</time>
      </trkpt>
      <trkpt lat="41.18864" lon="20.31134">
        <ele>243.35000610352</ele>
        <time>2023-09-30T07:20:45.000Z</time>
      </trkpt>
      <trkpt lat="41.18841" lon="20.31171">
        <ele>243.35000610352</ele>
        <time>2023-09-30T07:20:43.000Z</time>
      </trkpt>
      <trkpt lat="41.18832" lon="20.31179">
        <ele>243.35000610352</ele>
        <time>2023-09-30T07:20:42.000Z</time>
      </trkpt>
      <trkpt lat="41.18824" lon="20.31183">
        <ele>243.35000610352</ele>
        <time>2023-09-30T07:20:41.000Z</time>
      </trkpt>
      <trkpt lat="41.18812" lon="20.31187">
        <ele>243.35000610352</ele>
        <time>2023-09-30T07:20:40.000Z</time>
      </trkpt>
      <trkpt lat="41.18801" lon="20.31194">
        <ele>243.35000610352</ele>
        <time>2023-09-30T07:20:39.000Z</time>
      </trkpt>
      <trkpt lat="41.18791" lon="20.31204">
        <ele>243.83000183105</ele>
        <time>2023-09-30T07:20:38.000Z</time>
      </trkpt>
      <trkpt lat="41.18785" lon="20.31211">
        <ele>243.83000183105</ele>
        <time>2023-09-30T07:20:37.000Z</time>
      </trkpt>
      <trkpt lat="41.18772" lon="20.3123">
        <ele>243.83000183105</ele>
        <time>2023-09-30T07:20:36.000Z</time>
      </trkpt>
      <trkpt lat="41.18734" lon="20.31285">
        <ele>244.30999755859</ele>
        <time>2023-09-30T07:20:32.000Z</time>
      </trkpt>
      <trkpt lat="41.18719" lon="20.31307">
        <ele>244.30999755859</ele>
        <time>2023-09-30T07:20:30.000Z</time>
      </trkpt>
      <trkpt lat="41.18711" lon="20.31316">
        <ele>244.30999755859</ele>
        <time>2023-09-30T07:20:29.000Z</time>
      </trkpt>
      <trkpt lat="41.18706" lon="20.31321">
        <ele>244.30999755859</ele>
        <time>2023-09-30T07:20:28.000Z</time>
      </trkpt>
      <trkpt lat="41.18694" lon="20.31332">
        <ele>244.30999755859</ele>
        <time>2023-09-30T07:20:27.000Z</time>
      </trkpt>
      <trkpt lat="41.18689" lon="20.31337">
        <ele>243.83000183105</ele>
        <time>2023-09-30T07:20:26.000Z</time>
      </trkpt>
      <trkpt lat="41.18661" lon="20.31361">
        <ele>243.35000610352</ele>
        <time>2023-09-30T07:20:23.000Z</time>
      </trkpt>
      <trkpt lat="41.18652" lon="20.31367">
        <ele>243.35000610352</ele>
        <time>2023-09-30T07:20:22.000Z</time>
      </trkpt>
      <trkpt lat="41.18646" lon="20.31371">
        <ele>243.83000183105</ele>
        <time>2023-09-30T07:20:21.000Z</time>
      </trkpt>
      <trkpt lat="41.18639" lon="20.31374">
        <ele>243.83000183105</ele>
        <time>2023-09-30T07:20:20.000Z</time>
      </trkpt>
      <trkpt lat="41.18633" lon="20.31379">
        <ele>244.30999755859</ele>
        <time>2023-09-30T07:20:19.000Z</time>
      </trkpt>
      <trkpt lat="41.18627" lon="20.31382">
        <ele>244.30999755859</ele>
        <time>2023-09-30T07:20:18.000Z</time>
      </trkpt>
      <trkpt lat="41.18587" lon="20.31401">
        <ele>244.30999755859</ele>
        <time>2023-09-30T07:20:14.000Z</time>
      </trkpt>
      <trkpt lat="41.18577" lon="20.31406">
        <ele>244.78999328613</ele>
        <time>2023-09-30T07:20:13.000Z</time>
      </trkpt>
      <trkpt lat="41.1857" lon="20.3141">
        <ele>244.78999328613</ele>
        <time>2023-09-30T07:20:12.000Z</time>
      </trkpt>
      <trkpt lat="41.1856" lon="20.31417">
        <ele>245.27000427246</ele>
        <time>2023-09-30T07:20:11.000Z</time>
      </trkpt>
      <trkpt lat="41.18554" lon="20.31421">
        <ele>245.27000427246</ele>
        <time>2023-09-30T07:20:10.000Z</time>
      </trkpt>
      <trkpt lat="41.18546" lon="20.31426">
        <ele>245.75</ele>
        <time>2023-09-30T07:20:08.000Z</time>
      </trkpt>
      <trkpt lat="41.18534" lon="20.31433">
        <ele>246.22999572754</ele>
        <time>2023-09-30T07:20:07.000Z</time>
      </trkpt>
      <trkpt lat="41.1853" lon="20.31435">
        <ele>246.7200012207</ele>
        <time>2023-09-30T07:20:06.000Z</time>
      </trkpt>
      <trkpt lat="41.18527" lon="20.31438">
        <ele>246.7200012207</ele>
        <time>2023-09-30T07:20:05.000Z</time>
      </trkpt>
      <trkpt lat="41.18516" lon="20.31449">
        <ele>246.7200012207</ele>
        <time>2023-09-30T07:20:03.000Z</time>
      </trkpt>
      <trkpt lat="41.18513" lon="20.31453">
        <ele>247.19999694824</ele>
        <time>2023-09-30T07:20:02.000Z</time>
      </trkpt>
      <trkpt lat="41.18508" lon="20.31459">
        <ele>247.67999267578</ele>
        <time>2023-09-30T07:20:00.000Z</time>
      </trkpt>
      <trkpt lat="41.18495" lon="20.31476">
        <ele>248.63999938965</ele>
        <time>2023-09-30T07:19:53.000Z</time>
      </trkpt>
      <trkpt lat="41.1849" lon="20.31481">
        <ele>248.63999938965</ele>
        <time>2023-09-30T07:19:52.000Z</time>
      </trkpt>
      <trkpt lat="41.18485" lon="20.31486">
        <ele>249.11999511719</ele>
        <time>2023-09-30T07:19:51.000Z</time>
      </trkpt>
      <trkpt lat="41.18483" lon="20.31488">
        <ele>249.11999511719</ele>
        <time>2023-09-30T07:19:50.000Z</time>
      </trkpt>
      <trkpt lat="41.18477" lon="20.31494">
        <ele>249.11999511719</ele>
        <time>2023-09-30T07:19:49.000Z</time>
      </trkpt>
      <trkpt lat="41.18473" lon="20.315">
        <ele>249.60000610352</ele>
        <time>2023-09-30T07:19:48.000Z</time>
      </trkpt>
      <trkpt lat="41.1846" lon="20.31513">
        <ele>250.08000183105</ele>
        <time>2023-09-30T07:19:46.000Z</time>
      </trkpt>
      <trkpt lat="41.18458" lon="20.31515">
        <ele>250.55999755859</ele>
        <time>2023-09-30T07:19:45.000Z</time>
      </trkpt>
      <trkpt lat="41.18451" lon="20.31521">
        <ele>251.03999328613</ele>
        <time>2023-09-30T07:19:44.000Z</time>
      </trkpt>
      <trkpt lat="41.1844" lon="20.31532">
        <ele>252.47999572754</ele>
        <time>2023-09-30T07:19:40.000Z</time>
      </trkpt>
      <trkpt lat="41.18435" lon="20.31538">
        <ele>252.47999572754</ele>
        <time>2023-09-30T07:19:39.000Z</time>
      </trkpt>
      <trkpt lat="41.18424" lon="20.31551">
        <ele>252.96000671387</ele>
        <time>2023-09-30T07:19:37.000Z</time>
      </trkpt>
      <trkpt lat="41.18418" lon="20.31557">
        <ele>252.96000671387</ele>
        <time>2023-09-30T07:19:36.000Z</time>
      </trkpt>
      <trkpt lat="41.18412" lon="20.31561">
        <ele>252.96000671387</ele>
        <time>2023-09-30T07:19:35.000Z</time>
      </trkpt>
      <trkpt lat="41.18408" lon="20.31562">
        <ele>252.96000671387</ele>
        <time>2023-09-30T07:19:34.000Z</time>
      </trkpt>
      <trkpt lat="41.18401" lon="20.31564">
        <ele>252.96000671387</ele>
        <time>2023-09-30T07:19:33.000Z</time>
      </trkpt>
      <trkpt lat="41.18396" lon="20.31564">
        <ele>252.96000671387</ele>
        <time>2023-09-30T07:19:32.000Z</time>
      </trkpt>
      <trkpt lat="41.1839" lon="20.31562">
        <ele>252.96000671387</ele>
        <time>2023-09-30T07:19:31.000Z</time>
      </trkpt>
      <trkpt lat="41.18388" lon="20.31561">
        <ele>252.96000671387</ele>
        <time>2023-09-30T07:19:30.000Z</time>
      </trkpt>
      <trkpt lat="41.18376" lon="20.31556">
        <ele>252.96000671387</ele>
        <time>2023-09-30T07:19:29.000Z</time>
      </trkpt>
      <trkpt lat="41.1837" lon="20.31553">
        <ele>252.96000671387</ele>
        <time>2023-09-30T07:19:28.000Z</time>
      </trkpt>
      <trkpt lat="41.18364" lon="20.31552">
        <ele>252.47999572754</ele>
        <time>2023-09-30T07:19:27.000Z</time>
      </trkpt>
      <trkpt lat="41.18358" lon="20.31552">
        <ele>252.47999572754</ele>
        <time>2023-09-30T07:19:26.000Z</time>
      </trkpt>
      <trkpt lat="41.18355" lon="20.31551">
        <ele>252.47999572754</ele>
        <time>2023-09-30T07:19:25.000Z</time>
      </trkpt>
      <trkpt lat="41.18346" lon="20.3155">
        <ele>252</ele>
        <time>2023-09-30T07:19:24.000Z</time>
      </trkpt>
      <trkpt lat="41.1834" lon="20.3155">
        <ele>251.52000427246</ele>
        <time>2023-09-30T07:19:23.000Z</time>
      </trkpt>
      <trkpt lat="41.18334" lon="20.31549">
        <ele>251.03999328613</ele>
        <time>2023-09-30T07:19:22.000Z</time>
      </trkpt>
      <trkpt lat="41.18333" lon="20.31549">
        <ele>250.55999755859</ele>
        <time>2023-09-30T07:19:21.000Z</time>
      </trkpt>
      <trkpt lat="41.18323" lon="20.31547">
        <ele>250.08000183105</ele>
        <time>2023-09-30T07:19:20.000Z</time>
      </trkpt>
      <trkpt lat="41.18318" lon="20.31547">
        <ele>249.60000610352</ele>
        <time>2023-09-30T07:19:19.000Z</time>
      </trkpt>
      <trkpt lat="41.18314" lon="20.31546">
        <ele>249.60000610352</ele>
        <time>2023-09-30T07:19:18.000Z</time>
      </trkpt>
      <trkpt lat="41.1831" lon="20.31546">
        <ele>249.11999511719</ele>
        <time>2023-09-30T07:19:17.000Z</time>
      </trkpt>
      <trkpt lat="41.18306" lon="20.31546">
        <ele>249.11999511719</ele>
        <time>2023-09-30T07:19:16.000Z</time>
      </trkpt>
      <trkpt lat="41.18301" lon="20.31546">
        <ele>248.63999938965</ele>
        <time>2023-09-30T07:19:15.000Z</time>
      </trkpt>
      <trkpt lat="41.18297" lon="20.31546">
        <ele>248.63999938965</ele>
        <time>2023-09-30T07:19:14.000Z</time>
      </trkpt>
      <trkpt lat="41.18291" lon="20.31548">
        <ele>248.63999938965</ele>
        <time>2023-09-30T07:19:13.000Z</time>
      </trkpt>
      <trkpt lat="41.18287" lon="20.31549">
        <ele>248.16000366211</ele>
        <time>2023-09-30T07:19:12.000Z</time>
      </trkpt>
      <trkpt lat="41.18284" lon="20.31549">
        <ele>248.16000366211</ele>
        <time>2023-09-30T07:19:11.000Z</time>
      </trkpt>
      <trkpt lat="41.18281" lon="20.3155">
        <ele>248.16000366211</ele>
        <time>2023-09-30T07:19:10.000Z</time>
      </trkpt>
      <trkpt lat="41.18273" lon="20.31552">
        <ele>247.67999267578</ele>
        <time>2023-09-30T07:19:09.000Z</time>
      </trkpt>
      <trkpt lat="41.1827" lon="20.31553">
        <ele>247.67999267578</ele>
        <time>2023-09-30T07:19:08.000Z</time>
      </trkpt>
      <trkpt lat="41.18266" lon="20.31553">
        <ele>247.67999267578</ele>
        <time>2023-09-30T07:19:07.000Z</time>
      </trkpt>
      <trkpt lat="41.18263" lon="20.31554">
        <ele>247.67999267578</ele>
        <time>2023-09-30T07:19:06.000Z</time>
      </trkpt>
      <trkpt lat="41.18257" lon="20.31555">
        <ele>247.19999694824</ele>
        <time>2023-09-30T07:19:05.000Z</time>
      </trkpt>
      <trkpt lat="41.18254" lon="20.31555">
        <ele>247.19999694824</ele>
        <time>2023-09-30T07:19:04.000Z</time>
      </trkpt>
      <trkpt lat="41.18251" lon="20.31556">
        <ele>246.7200012207</ele>
        <time>2023-09-30T07:19:03.000Z</time>
      </trkpt>
      <trkpt lat="41.18246" lon="20.31555">
        <ele>246.22999572754</ele>
        <time>2023-09-30T07:19:02.000Z</time>
      </trkpt>
      <trkpt lat="41.18245" lon="20.31531">
        <ele>243.83000183105</ele>
        <time>2023-09-30T07:18:56.000Z</time>
      </trkpt>
      <trkpt lat="41.18247" lon="20.31525">
        <ele>242.86999511719</ele>
        <time>2023-09-30T07:18:55.000Z</time>
      </trkpt>
      <trkpt lat="41.18261" lon="20.31479">
        <ele>238.53999328613</ele>
        <time>2023-09-30T07:18:50.000Z</time>
      </trkpt>
      <trkpt lat="41.18272" lon="20.31443">
        <ele>237.10000610352</ele>
        <time>2023-09-30T07:18:46.000Z</time>
      </trkpt>
      <trkpt lat="41.18276" lon="20.31428">
        <ele>237.10000610352</ele>
        <time>2023-09-30T07:18:45.000Z</time>
      </trkpt>
      <trkpt lat="41.18277" lon="20.31421">
        <ele>237.58000183105</ele>
        <time>2023-09-30T07:18:44.000Z</time>
      </trkpt>
      <trkpt lat="41.18275" lon="20.31415">
        <ele>237.58000183105</ele>
        <time>2023-09-30T07:18:43.000Z</time>
      </trkpt>
      <trkpt lat="41.18271" lon="20.31411">
        <ele>237.58000183105</ele>
        <time>2023-09-30T07:18:42.000Z</time>
      </trkpt>
      <trkpt lat="41.18264" lon="20.31408">
        <ele>238.05999755859</ele>
        <time>2023-09-30T07:18:41.000Z</time>
      </trkpt>
      <trkpt lat="41.18255" lon="20.31404">
        <ele>238.05999755859</ele>
        <time>2023-09-30T07:18:40.000Z</time>
      </trkpt>
      <trkpt lat="41.18242" lon="20.314">
        <ele>238.05999755859</ele>
        <time>2023-09-30T07:18:39.000Z</time>
      </trkpt>
      <trkpt lat="41.18218" lon="20.3139">
        <ele>238.53999328613</ele>
        <time>2023-09-30T07:18:37.000Z</time>
      </trkpt>
      <trkpt lat="41.18214" lon="20.31388">
        <ele>238.53999328613</ele>
        <time>2023-09-30T07:18:36.000Z</time>
      </trkpt>
      <trkpt lat="41.18199" lon="20.31379">
        <ele>238.05999755859</ele>
        <time>2023-09-30T07:18:35.000Z</time>
      </trkpt>
      <trkpt lat="41.18182" lon="20.31367">
        <ele>238.05999755859</ele>
        <time>2023-09-30T07:18:33.000Z</time>
      </trkpt>
      <trkpt lat="41.18176" lon="20.31363">
        <ele>238.05999755859</ele>
        <time>2023-09-30T07:18:32.000Z</time>
      </trkpt>
      <trkpt lat="41.18169" lon="20.31361">
        <ele>238.05999755859</ele>
        <time>2023-09-30T07:18:31.000Z</time>
      </trkpt>
      <trkpt lat="41.18163" lon="20.31358">
        <ele>238.53999328613</ele>
        <time>2023-09-30T07:18:30.000Z</time>
      </trkpt>
      <trkpt lat="41.18157" lon="20.31355">
        <ele>238.53999328613</ele>
        <time>2023-09-30T07:18:29.000Z</time>
      </trkpt>
      <trkpt lat="41.18151" lon="20.31351">
        <ele>238.53999328613</ele>
        <time>2023-09-30T07:18:28.000Z</time>
      </trkpt>
      <trkpt lat="41.18147" lon="20.31348">
        <ele>238.53999328613</ele>
        <time>2023-09-30T07:18:27.000Z</time>
      </trkpt>
      <trkpt lat="41.18145" lon="20.31346">
        <ele>238.53999328613</ele>
        <time>2023-09-30T07:18:26.000Z</time>
      </trkpt>
      <trkpt lat="41.18134" lon="20.31337">
        <ele>239.02000427246</ele>
        <time>2023-09-30T07:18:25.000Z</time>
      </trkpt>
      <trkpt lat="41.18132" lon="20.31335">
        <ele>239.02000427246</ele>
        <time>2023-09-30T07:18:24.000Z</time>
      </trkpt>
      <trkpt lat="41.18125" lon="20.3133">
        <ele>239.50999450684</ele>
        <time>2023-09-30T07:18:23.000Z</time>
      </trkpt>
      <trkpt lat="41.18113" lon="20.31321">
        <ele>239.50999450684</ele>
        <time>2023-09-30T07:18:22.000Z</time>
      </trkpt>
      <trkpt lat="41.18106" lon="20.31316">
        <ele>239.50999450684</ele>
        <time>2023-09-30T07:18:21.000Z</time>
      </trkpt>
      <trkpt lat="41.18098" lon="20.31309">
        <ele>239.50999450684</ele>
        <time>2023-09-30T07:18:20.000Z</time>
      </trkpt>
      <trkpt lat="41.18051" lon="20.31273">
        <ele>238.05999755859</ele>
        <time>2023-09-30T07:18:15.000Z</time>
      </trkpt>
      <trkpt lat="41.18044" lon="20.31267">
        <ele>238.05999755859</ele>
        <time>2023-09-30T07:18:14.000Z</time>
      </trkpt>
      <trkpt lat="41.18035" lon="20.31261">
        <ele>238.53999328613</ele>
        <time>2023-09-30T07:18:13.000Z</time>
      </trkpt>
      <trkpt lat="41.18032" lon="20.31259">
        <ele>238.53999328613</ele>
        <time>2023-09-30T07:18:12.000Z</time>
      </trkpt>
      <trkpt lat="41.1801" lon="20.31246">
        <ele>239.02000427246</ele>
        <time>2023-09-30T07:18:10.000Z</time>
      </trkpt>
      <trkpt lat="41.18" lon="20.31241">
        <ele>239.50999450684</ele>
        <time>2023-09-30T07:18:09.000Z</time>
      </trkpt>
      <trkpt lat="41.17992" lon="20.31238">
        <ele>239.99000549316</ele>
        <time>2023-09-30T07:18:08.000Z</time>
      </trkpt>
      <trkpt lat="41.17982" lon="20.31237">
        <ele>239.99000549316</ele>
        <time>2023-09-30T07:18:07.000Z</time>
      </trkpt>
      <trkpt lat="41.17974" lon="20.31237">
        <ele>239.99000549316</ele>
        <time>2023-09-30T07:18:06.000Z</time>
      </trkpt>
      <trkpt lat="41.17969" lon="20.31239">
        <ele>239.99000549316</ele>
        <time>2023-09-30T07:18:05.000Z</time>
      </trkpt>
      <trkpt lat="41.17962" lon="20.3124">
        <ele>239.99000549316</ele>
        <time>2023-09-30T07:18:04.000Z</time>
      </trkpt>
      <trkpt lat="41.17954" lon="20.31242">
        <ele>239.99000549316</ele>
        <time>2023-09-30T07:18:03.000Z</time>
      </trkpt>
      <trkpt lat="41.17949" lon="20.31243">
        <ele>239.99000549316</ele>
        <time>2023-09-30T07:18:02.000Z</time>
      </trkpt>
      <trkpt lat="41.17939" lon="20.31245">
        <ele>239.99000549316</ele>
        <time>2023-09-30T07:18:01.000Z</time>
      </trkpt>
      <trkpt lat="41.17931" lon="20.31247">
        <ele>239.99000549316</ele>
        <time>2023-09-30T07:18:00.000Z</time>
      </trkpt>
      <trkpt lat="41.17918" lon="20.31249">
        <ele>239.50999450684</ele>
        <time>2023-09-30T07:17:58.000Z</time>
      </trkpt>
      <trkpt lat="41.17893" lon="20.31252">
        <ele>239.50999450684</ele>
        <time>2023-09-30T07:17:55.000Z</time>
      </trkpt>
      <trkpt lat="41.1788" lon="20.31255">
        <ele>239.50999450684</ele>
        <time>2023-09-30T07:17:54.000Z</time>
      </trkpt>
      <trkpt lat="41.17874" lon="20.31256">
        <ele>239.50999450684</ele>
        <time>2023-09-30T07:17:53.000Z</time>
      </trkpt>
      <trkpt lat="41.17866" lon="20.31257">
        <ele>239.99000549316</ele>
        <time>2023-09-30T07:17:52.000Z</time>
      </trkpt>
      <trkpt lat="41.1786" lon="20.31256">
        <ele>239.99000549316</ele>
        <time>2023-09-30T07:17:51.000Z</time>
      </trkpt>
      <trkpt lat="41.17855" lon="20.31253">
        <ele>239.99000549316</ele>
        <time>2023-09-30T07:17:50.000Z</time>
      </trkpt>
      <trkpt lat="41.17852" lon="20.31249">
        <ele>239.99000549316</ele>
        <time>2023-09-30T07:17:49.000Z</time>
      </trkpt>
      <trkpt lat="41.1785" lon="20.31243">
        <ele>239.50999450684</ele>
        <time>2023-09-30T07:17:48.000Z</time>
      </trkpt>
      <trkpt lat="41.17851" lon="20.31237">
        <ele>239.99000549316</ele>
        <time>2023-09-30T07:17:47.000Z</time>
      </trkpt>
      <trkpt lat="41.17854" lon="20.31229">
        <ele>239.99000549316</ele>
        <time>2023-09-30T07:17:46.000Z</time>
      </trkpt>
      <trkpt lat="41.17857" lon="20.31222">
        <ele>239.99000549316</ele>
        <time>2023-09-30T07:17:45.000Z</time>
      </trkpt>
      <trkpt lat="41.17861" lon="20.31214">
        <ele>239.99000549316</ele>
        <time>2023-09-30T07:17:44.000Z</time>
      </trkpt>
      <trkpt lat="41.17868" lon="20.31203">
        <ele>239.50999450684</ele>
        <time>2023-09-30T07:17:43.000Z</time>
      </trkpt>
      <trkpt lat="41.17876" lon="20.31194">
        <ele>239.50999450684</ele>
        <time>2023-09-30T07:17:42.000Z</time>
      </trkpt>
      <trkpt lat="41.17885" lon="20.31185">
        <ele>239.50999450684</ele>
        <time>2023-09-30T07:17:41.000Z</time>
      </trkpt>
      <trkpt lat="41.1789" lon="20.31181">
        <ele>239.50999450684</ele>
        <time>2023-09-30T07:17:40.000Z</time>
      </trkpt>
      <trkpt lat="41.17906" lon="20.31172">
        <ele>239.99000549316</ele>
        <time>2023-09-30T07:17:39.000Z</time>
      </trkpt>
      <trkpt lat="41.17919" lon="20.31166">
        <ele>239.99000549316</ele>
        <time>2023-09-30T07:17:38.000Z</time>
      </trkpt>
      <trkpt lat="41.17929" lon="20.31163">
        <ele>240.4700012207</ele>
        <time>2023-09-30T07:17:37.000Z</time>
      </trkpt>
      <trkpt lat="41.17964" lon="20.31156">
        <ele>241.42999267578</ele>
        <time>2023-09-30T07:17:34.000Z</time>
      </trkpt>
      <trkpt lat="41.1808" lon="20.31133">
        <ele>244.78999328613</ele>
        <time>2023-09-30T07:17:25.000Z</time>
      </trkpt>
      <trkpt lat="41.18181" lon="20.31101">
        <ele>251.03999328613</ele>
        <time>2023-09-30T07:17:17.000Z</time>
      </trkpt>
      <trkpt lat="41.18213" lon="20.31091">
        <ele>252.47999572754</ele>
        <time>2023-09-30T07:17:15.000Z</time>
      </trkpt>
      <trkpt lat="41.18216" lon="20.3109">
        <ele>252.47999572754</ele>
        <time>2023-09-30T07:17:14.000Z</time>
      </trkpt>
      <trkpt lat="41.18235" lon="20.31081">
        <ele>253.44000244141</ele>
        <time>2023-09-30T07:17:13.000Z</time>
      </trkpt>
      <trkpt lat="41.18249" lon="20.31072">
        <ele>253.92999267578</ele>
        <time>2023-09-30T07:17:12.000Z</time>
      </trkpt>
      <trkpt lat="41.1826" lon="20.31064">
        <ele>253.92999267578</ele>
        <time>2023-09-30T07:17:11.000Z</time>
      </trkpt>
      <trkpt lat="41.18268" lon="20.31057">
        <ele>253.92999267578</ele>
        <time>2023-09-30T07:17:10.000Z</time>
      </trkpt>
      <trkpt lat="41.18279" lon="20.31047">
        <ele>254.41000366211</ele>
        <time>2023-09-30T07:17:09.000Z</time>
      </trkpt>
      <trkpt lat="41.18292" lon="20.31032">
        <ele>254.41000366211</ele>
        <time>2023-09-30T07:17:08.000Z</time>
      </trkpt>
      <trkpt lat="41.183" lon="20.31021">
        <ele>254.88999938965</ele>
        <time>2023-09-30T07:17:07.000Z</time>
      </trkpt>
      <trkpt lat="41.18308" lon="20.31009">
        <ele>254.88999938965</ele>
        <time>2023-09-30T07:17:06.000Z</time>
      </trkpt>
      <trkpt lat="41.18314" lon="20.30998">
        <ele>255.36999511719</ele>
        <time>2023-09-30T07:17:05.000Z</time>
      </trkpt>
      <trkpt lat="41.18363" lon="20.30887">
        <ele>259.20999145508</ele>
        <time>2023-09-30T07:16:58.000Z</time>
      </trkpt>
      <trkpt lat="41.1837" lon="20.30875">
        <ele>259.69000244141</ele>
        <time>2023-09-30T07:16:57.000Z</time>
      </trkpt>
      <trkpt lat="41.1838" lon="20.30861">
        <ele>260.64999389648</ele>
        <time>2023-09-30T07:16:56.000Z</time>
      </trkpt>
      <trkpt lat="41.18388" lon="20.30851">
        <ele>261.14001464844</ele>
        <time>2023-09-30T07:16:55.000Z</time>
      </trkpt>
      <trkpt lat="41.18416" lon="20.30823">
        <ele>264.01998901367</ele>
        <time>2023-09-30T07:16:53.000Z</time>
      </trkpt>
      <trkpt lat="41.18427" lon="20.30809">
        <ele>264.98001098633</ele>
        <time>2023-09-30T07:16:52.000Z</time>
      </trkpt>
      <trkpt lat="41.18436" lon="20.30793">
        <ele>265.94000244141</ele>
        <time>2023-09-30T07:16:51.000Z</time>
      </trkpt>
      <trkpt lat="41.18449" lon="20.30767">
        <ele>266.89999389648</ele>
        <time>2023-09-30T07:16:49.000Z</time>
      </trkpt>
      <trkpt lat="41.18485" lon="20.30649">
        <ele>266.89999389648</ele>
        <time>2023-09-30T07:16:43.000Z</time>
      </trkpt>
      <trkpt lat="41.18493" lon="20.30626">
        <ele>265.94000244141</ele>
        <time>2023-09-30T07:16:42.000Z</time>
      </trkpt>
      <trkpt lat="41.18496" lon="20.30619">
        <ele>265.94000244141</ele>
        <time>2023-09-30T07:16:41.000Z</time>
      </trkpt>
      <trkpt lat="41.18557" lon="20.30504">
        <ele>260.64999389648</ele>
        <time>2023-09-30T07:16:36.000Z</time>
      </trkpt>
      <trkpt lat="41.18634" lon="20.30364">
        <ele>261.61999511719</ele>
        <time>2023-09-30T07:16:29.000Z</time>
      </trkpt>
      <trkpt lat="41.18639" lon="20.30346">
        <ele>262.10000610352</ele>
        <time>2023-09-30T07:16:28.000Z</time>
      </trkpt>
      <trkpt lat="41.18641" lon="20.30327">
        <ele>263.05999755859</ele>
        <time>2023-09-30T07:16:27.000Z</time>
      </trkpt>
      <trkpt lat="41.18641" lon="20.30307">
        <ele>264.01998901367</ele>
        <time>2023-09-30T07:16:26.000Z</time>
      </trkpt>
      <trkpt lat="41.18638" lon="20.30286">
        <ele>264.98001098633</ele>
        <time>2023-09-30T07:16:25.000Z</time>
      </trkpt>
      <trkpt lat="41.18634" lon="20.30271">
        <ele>265.94000244141</ele>
        <time>2023-09-30T07:16:24.000Z</time>
      </trkpt>
      <trkpt lat="41.18617" lon="20.30214">
        <ele>268.82998657227</ele>
        <time>2023-09-30T07:16:21.000Z</time>
      </trkpt>
      <trkpt lat="41.18614" lon="20.30196">
        <ele>270.26998901367</ele>
        <time>2023-09-30T07:16:20.000Z</time>
      </trkpt>
      <trkpt lat="41.18612" lon="20.30177">
        <ele>271.23001098633</ele>
        <time>2023-09-30T07:16:19.000Z</time>
      </trkpt>
      <trkpt lat="41.18613" lon="20.30158">
        <ele>272.19000244141</ele>
        <time>2023-09-30T07:16:18.000Z</time>
      </trkpt>
      <trkpt lat="41.18616" lon="20.30141">
        <ele>272.67001342773</ele>
        <time>2023-09-30T07:16:17.000Z</time>
      </trkpt>
      <trkpt lat="41.1862" lon="20.30124">
        <ele>273.63000488281</ele>
        <time>2023-09-30T07:16:16.000Z</time>
      </trkpt>
      <trkpt lat="41.18625" lon="20.30108">
        <ele>274.58999633789</ele>
        <time>2023-09-30T07:16:15.000Z</time>
      </trkpt>
      <trkpt lat="41.1863" lon="20.30098">
        <ele>275.07000732422</ele>
        <time>2023-09-30T07:16:14.000Z</time>
      </trkpt>
      <trkpt lat="41.18638" lon="20.30085">
        <ele>276.04000854492</ele>
        <time>2023-09-30T07:16:13.000Z</time>
      </trkpt>
      <trkpt lat="41.18661" lon="20.30052">
        <ele>276.04000854492</ele>
        <time>2023-09-30T07:16:11.000Z</time>
      </trkpt>
      <trkpt lat="41.1867" lon="20.30038">
        <ele>275.55999755859</ele>
        <time>2023-09-30T07:16:10.000Z</time>
      </trkpt>
      <trkpt lat="41.18676" lon="20.30023">
        <ele>275.07000732422</ele>
        <time>2023-09-30T07:16:09.000Z</time>
      </trkpt>
      <trkpt lat="41.18679" lon="20.30013">
        <ele>274.58999633789</ele>
        <time>2023-09-30T07:16:08.000Z</time>
      </trkpt>
      <trkpt lat="41.18702" lon="20.29929">
        <ele>270.75</ele>
        <time>2023-09-30T07:16:04.000Z</time>
      </trkpt>
      <trkpt lat="41.18704" lon="20.29923">
        <ele>270.75</ele>
        <time>2023-09-30T07:16:03.000Z</time>
      </trkpt>
      <trkpt lat="41.18715" lon="20.29895">
        <ele>269.30999755859</ele>
        <time>2023-09-30T07:16:02.000Z</time>
      </trkpt>
      <trkpt lat="41.18725" lon="20.29875">
        <ele>268.35000610352</ele>
        <time>2023-09-30T07:16:01.000Z</time>
      </trkpt>
      <trkpt lat="41.18735" lon="20.29859">
        <ele>267.38000488281</ele>
        <time>2023-09-30T07:16:00.000Z</time>
      </trkpt>
      <trkpt lat="41.18744" lon="20.29847">
        <ele>266.42001342773</ele>
        <time>2023-09-30T07:15:59.000Z</time>
      </trkpt>
      <trkpt lat="41.18766" lon="20.29819">
        <ele>264.01998901367</ele>
        <time>2023-09-30T07:15:57.000Z</time>
      </trkpt>
      <trkpt lat="41.18775" lon="20.29806">
        <ele>263.54000854492</ele>
        <time>2023-09-30T07:15:56.000Z</time>
      </trkpt>
      <trkpt lat="41.18782" lon="20.29792">
        <ele>262.57998657227</ele>
        <time>2023-09-30T07:15:55.000Z</time>
      </trkpt>
      <trkpt lat="41.18787" lon="20.29776">
        <ele>261.61999511719</ele>
        <time>2023-09-30T07:15:54.000Z</time>
      </trkpt>
      <trkpt lat="41.18789" lon="20.29759">
        <ele>261.14001464844</ele>
        <time>2023-09-30T07:15:53.000Z</time>
      </trkpt>
      <trkpt lat="41.18789" lon="20.2974">
        <ele>260.64999389648</ele>
        <time>2023-09-30T07:15:52.000Z</time>
      </trkpt>
      <trkpt lat="41.18786" lon="20.29721">
        <ele>259.69000244141</ele>
        <time>2023-09-30T07:15:51.000Z</time>
      </trkpt>
      <trkpt lat="41.18783" lon="20.29705">
        <ele>259.20999145508</ele>
        <time>2023-09-30T07:15:50.000Z</time>
      </trkpt>
      <trkpt lat="41.18772" lon="20.29665">
        <ele>257.76998901367</ele>
        <time>2023-09-30T07:15:48.000Z</time>
      </trkpt>
      <trkpt lat="41.18768" lon="20.29644">
        <ele>257.29000854492</ele>
        <time>2023-09-30T07:15:47.000Z</time>
      </trkpt>
      <trkpt lat="41.18766" lon="20.29626">
        <ele>257.29000854492</ele>
        <time>2023-09-30T07:15:46.000Z</time>
      </trkpt>
      <trkpt lat="41.18765" lon="20.29605">
        <ele>256.32998657227</ele>
        <time>2023-09-30T07:15:45.000Z</time>
      </trkpt>
      <trkpt lat="41.18766" lon="20.29588">
        <ele>255.85000610352</ele>
        <time>2023-09-30T07:15:44.000Z</time>
      </trkpt>
      <trkpt lat="41.18767" lon="20.29567">
        <ele>254.41000366211</ele>
        <time>2023-09-30T07:15:43.000Z</time>
      </trkpt>
      <trkpt lat="41.1877" lon="20.29549">
        <ele>253.44000244141</ele>
        <time>2023-09-30T07:15:42.000Z</time>
      </trkpt>
      <trkpt lat="41.18776" lon="20.29526">
        <ele>252.47999572754</ele>
        <time>2023-09-30T07:15:41.000Z</time>
      </trkpt>
      <trkpt lat="41.18777" lon="20.29519">
        <ele>252</ele>
        <time>2023-09-30T07:15:40.000Z</time>
      </trkpt>
      <trkpt lat="41.18794" lon="20.29471">
        <ele>249.60000610352</ele>
        <time>2023-09-30T07:15:38.000Z</time>
      </trkpt>
      <trkpt lat="41.18826" lon="20.29393">
        <ele>245.75</ele>
        <time>2023-09-30T07:15:34.000Z</time>
      </trkpt>
      <trkpt lat="41.18862" lon="20.29301">
        <ele>240.94999694824</ele>
        <time>2023-09-30T07:15:30.000Z</time>
      </trkpt>
      <trkpt lat="41.18879" lon="20.29266">
        <ele>238.53999328613</ele>
        <time>2023-09-30T07:15:28.000Z</time>
      </trkpt>
      <trkpt lat="41.18888" lon="20.29248">
        <ele>237.58000183105</ele>
        <time>2023-09-30T07:15:27.000Z</time>
      </trkpt>
      <trkpt lat="41.18893" lon="20.29228">
        <ele>236.13999938965</ele>
        <time>2023-09-30T07:15:26.000Z</time>
      </trkpt>
      <trkpt lat="41.18896" lon="20.29209">
        <ele>235.17999267578</ele>
        <time>2023-09-30T07:15:25.000Z</time>
      </trkpt>
      <trkpt lat="41.18896" lon="20.29187">
        <ele>234.2200012207</ele>
        <time>2023-09-30T07:15:24.000Z</time>
      </trkpt>
      <trkpt lat="41.18893" lon="20.29166">
        <ele>232.7799987793</ele>
        <time>2023-09-30T07:15:23.000Z</time>
      </trkpt>
      <trkpt lat="41.18888" lon="20.29143">
        <ele>231.80999755859</ele>
        <time>2023-09-30T07:15:22.000Z</time>
      </trkpt>
      <trkpt lat="41.18881" lon="20.29123">
        <ele>231.33000183105</ele>
        <time>2023-09-30T07:15:21.000Z</time>
      </trkpt>
      <trkpt lat="41.18872" lon="20.291">
        <ele>230.85000610352</ele>
        <time>2023-09-30T07:15:20.000Z</time>
      </trkpt>
      <trkpt lat="41.18864" lon="20.29083">
        <ele>230.36999511719</ele>
        <time>2023-09-30T07:15:19.000Z</time>
      </trkpt>
      <trkpt lat="41.18852" lon="20.29064">
        <ele>229.88999938965</ele>
        <time>2023-09-30T07:15:18.000Z</time>
      </trkpt>
      <trkpt lat="41.1884" lon="20.29048">
        <ele>229.88999938965</ele>
        <time>2023-09-30T07:15:17.000Z</time>
      </trkpt>
      <trkpt lat="41.18782" lon="20.28988">
        <ele>227.00999450684</ele>
        <time>2023-09-30T07:15:13.000Z</time>
      </trkpt>
      <trkpt lat="41.18659" lon="20.2886">
        <ele>224.61000061035</ele>
        <time>2023-09-30T07:15:05.000Z</time>
      </trkpt>
      <trkpt lat="41.18647" lon="20.28845">
        <ele>224.61000061035</ele>
        <time>2023-09-30T07:15:04.000Z</time>
      </trkpt>
      <trkpt lat="41.18638" lon="20.28828">
        <ele>224.61000061035</ele>
        <time>2023-09-30T07:15:03.000Z</time>
      </trkpt>
      <trkpt lat="41.18631" lon="20.2881">
        <ele>224.11999511719</ele>
        <time>2023-09-30T07:15:02.000Z</time>
      </trkpt>
      <trkpt lat="41.18627" lon="20.28789">
        <ele>223.16000366211</ele>
        <time>2023-09-30T07:15:01.000Z</time>
      </trkpt>
      <trkpt lat="41.18626" lon="20.28765">
        <ele>223.16000366211</ele>
        <time>2023-09-30T07:15:00.000Z</time>
      </trkpt>
      <trkpt lat="41.18628" lon="20.28737">
        <ele>222.19999694824</ele>
        <time>2023-09-30T07:14:59.000Z</time>
      </trkpt>
      <trkpt lat="41.1863" lon="20.28712">
        <ele>221.7200012207</ele>
        <time>2023-09-30T07:14:58.000Z</time>
      </trkpt>
      <trkpt lat="41.18634" lon="20.28694">
        <ele>221.7200012207</ele>
        <time>2023-09-30T07:14:57.000Z</time>
      </trkpt>
      <trkpt lat="41.18652" lon="20.28634">
        <ele>220.75999450684</ele>
        <time>2023-09-30T07:14:55.000Z</time>
      </trkpt>
      <trkpt lat="41.18662" lon="20.28603">
        <ele>220.75999450684</ele>
        <time>2023-09-30T07:14:54.000Z</time>
      </trkpt>
      <trkpt lat="41.1867" lon="20.28582">
        <ele>220.75999450684</ele>
        <time>2023-09-30T07:14:53.000Z</time>
      </trkpt>
      <trkpt lat="41.18674" lon="20.28574">
        <ele>220.75999450684</ele>
        <time>2023-09-30T07:14:52.000Z</time>
      </trkpt>
      <trkpt lat="41.18741" lon="20.2845">
        <ele>220.2799987793</ele>
        <time>2023-09-30T07:14:48.000Z</time>
      </trkpt>
      <trkpt lat="41.18752" lon="20.28433">
        <ele>220.2799987793</ele>
        <time>2023-09-30T07:14:47.000Z</time>
      </trkpt>
      <trkpt lat="41.18767" lon="20.28409">
        <ele>220.2799987793</ele>
        <time>2023-09-30T07:14:46.000Z</time>
      </trkpt>
      <trkpt lat="41.18776" lon="20.28393">
        <ele>220.2799987793</ele>
        <time>2023-09-30T07:14:45.000Z</time>
      </trkpt>
      <trkpt lat="41.18783" lon="20.28374">
        <ele>220.2799987793</ele>
        <time>2023-09-30T07:14:44.000Z</time>
      </trkpt>
      <trkpt lat="41.18788" lon="20.28354">
        <ele>219.80000305176</ele>
        <time>2023-09-30T07:14:43.000Z</time>
      </trkpt>
      <trkpt lat="41.18788" lon="20.28334">
        <ele>220.2799987793</ele>
        <time>2023-09-30T07:14:42.000Z</time>
      </trkpt>
      <trkpt lat="41.18786" lon="20.28313">
        <ele>220.2799987793</ele>
        <time>2023-09-30T07:14:41.000Z</time>
      </trkpt>
      <trkpt lat="41.1878" lon="20.28294">
        <ele>220.75999450684</ele>
        <time>2023-09-30T07:14:40.000Z</time>
      </trkpt>
      <trkpt lat="41.18771" lon="20.28276">
        <ele>220.75999450684</ele>
        <time>2023-09-30T07:14:39.000Z</time>
      </trkpt>
      <trkpt lat="41.1876" lon="20.28259">
        <ele>220.2799987793</ele>
        <time>2023-09-30T07:14:38.000Z</time>
      </trkpt>
      <trkpt lat="41.18749" lon="20.28247">
        <ele>220.2799987793</ele>
        <time>2023-09-30T07:14:37.000Z</time>
      </trkpt>
      <trkpt lat="41.18629" lon="20.28148">
        <ele>217.88000488281</ele>
        <time>2023-09-30T07:14:30.000Z</time>
      </trkpt>
      <trkpt lat="41.18613" lon="20.28132">
        <ele>217.39999389648</ele>
        <time>2023-09-30T07:14:29.000Z</time>
      </trkpt>
      <trkpt lat="41.18598" lon="20.28114">
        <ele>216.91000366211</ele>
        <time>2023-09-30T07:14:28.000Z</time>
      </trkpt>
      <trkpt lat="41.1855" lon="20.28047">
        <ele>215.94999694824</ele>
        <time>2023-09-30T07:14:25.000Z</time>
      </trkpt>
      <trkpt lat="41.18539" lon="20.28029">
        <ele>215.94999694824</ele>
        <time>2023-09-30T07:14:24.000Z</time>
      </trkpt>
      <trkpt lat="41.18523" lon="20.27997">
        <ele>215.94999694824</ele>
        <time>2023-09-30T07:14:23.000Z</time>
      </trkpt>
      <trkpt lat="41.18514" lon="20.27975">
        <ele>215.94999694824</ele>
        <time>2023-09-30T07:14:22.000Z</time>
      </trkpt>
      <trkpt lat="41.18512" lon="20.2797">
        <ele>215.94999694824</ele>
        <time>2023-09-30T07:14:21.000Z</time>
      </trkpt>
      <trkpt lat="41.18495" lon="20.27916">
        <ele>216.42999267578</ele>
        <time>2023-09-30T07:14:19.000Z</time>
      </trkpt>
      <trkpt lat="41.18485" lon="20.27884">
        <ele>216.42999267578</ele>
        <time>2023-09-30T07:14:18.000Z</time>
      </trkpt>
      <trkpt lat="41.1848" lon="20.27862">
        <ele>216.42999267578</ele>
        <time>2023-09-30T07:14:17.000Z</time>
      </trkpt>
      <trkpt lat="41.18479" lon="20.27841">
        <ele>216.91000366211</ele>
        <time>2023-09-30T07:14:16.000Z</time>
      </trkpt>
      <trkpt lat="41.1848" lon="20.27824">
        <ele>216.91000366211</ele>
        <time>2023-09-30T07:14:15.000Z</time>
      </trkpt>
      <trkpt lat="41.1848" lon="20.27818">
        <ele>216.42999267578</ele>
        <time>2023-09-30T07:14:14.000Z</time>
      </trkpt>
      <trkpt lat="41.18484" lon="20.2778">
        <ele>215.94999694824</ele>
        <time>2023-09-30T07:14:12.000Z</time>
      </trkpt>
      <trkpt lat="41.18493" lon="20.27692">
        <ele>214.99000549316</ele>
        <time>2023-09-30T07:14:08.000Z</time>
      </trkpt>
      <trkpt lat="41.18495" lon="20.27674">
        <ele>214.99000549316</ele>
        <time>2023-09-30T07:14:07.000Z</time>
      </trkpt>
      <trkpt lat="41.18507" lon="20.27621">
        <ele>214.0299987793</ele>
        <time>2023-09-30T07:14:04.000Z</time>
      </trkpt>
      <trkpt lat="41.18518" lon="20.27578">
        <ele>213.07000732422</ele>
        <time>2023-09-30T07:14:03.000Z</time>
      </trkpt>
      <trkpt lat="41.18522" lon="20.27562">
        <ele>213.07000732422</ele>
        <time>2023-09-30T07:14:02.000Z</time>
      </trkpt>
      <trkpt lat="41.18528" lon="20.2753">
        <ele>213.07000732422</ele>
        <time>2023-09-30T07:14:01.000Z</time>
      </trkpt>
      <trkpt lat="41.18537" lon="20.27477">
        <ele>212.58999633789</ele>
        <time>2023-09-30T07:13:59.000Z</time>
      </trkpt>
      <trkpt lat="41.18539" lon="20.27461">
        <ele>212.58999633789</ele>
        <time>2023-09-30T07:13:58.000Z</time>
      </trkpt>
      <trkpt lat="41.18543" lon="20.274">
        <ele>212.58999633789</ele>
        <time>2023-09-30T07:13:55.000Z</time>
      </trkpt>
      <trkpt lat="41.18544" lon="20.27344">
        <ele>213.07000732422</ele>
        <time>2023-09-30T07:13:52.000Z</time>
      </trkpt>
      <trkpt lat="41.18545" lon="20.27277">
        <ele>213.55000305176</ele>
        <time>2023-09-30T07:13:49.000Z</time>
      </trkpt>
      <trkpt lat="41.18544" lon="20.2726">
        <ele>213.55000305176</ele>
        <time>2023-09-30T07:13:48.000Z</time>
      </trkpt>
      <trkpt lat="41.1854" lon="20.27244">
        <ele>213.55000305176</ele>
        <time>2023-09-30T07:13:47.000Z</time>
      </trkpt>
      <trkpt lat="41.18535" lon="20.27228">
        <ele>213.07000732422</ele>
        <time>2023-09-30T07:13:46.000Z</time>
      </trkpt>
      <trkpt lat="41.18527" lon="20.27215">
        <ele>213.07000732422</ele>
        <time>2023-09-30T07:13:45.000Z</time>
      </trkpt>
      <trkpt lat="41.18517" lon="20.27203">
        <ele>213.07000732422</ele>
        <time>2023-09-30T07:13:44.000Z</time>
      </trkpt>
      <trkpt lat="41.18506" lon="20.27194">
        <ele>212.58999633789</ele>
        <time>2023-09-30T07:13:43.000Z</time>
      </trkpt>
      <trkpt lat="41.18493" lon="20.27188">
        <ele>213.07000732422</ele>
        <time>2023-09-30T07:13:42.000Z</time>
      </trkpt>
      <trkpt lat="41.18481" lon="20.27185">
        <ele>213.07000732422</ele>
        <time>2023-09-30T07:13:41.000Z</time>
      </trkpt>
      <trkpt lat="41.18468" lon="20.27184">
        <ele>213.07000732422</ele>
        <time>2023-09-30T07:13:40.000Z</time>
      </trkpt>
      <trkpt lat="41.18457" lon="20.27185">
        <ele>213.07000732422</ele>
        <time>2023-09-30T07:13:39.000Z</time>
      </trkpt>
      <trkpt lat="41.18447" lon="20.27187">
        <ele>213.07000732422</ele>
        <time>2023-09-30T07:13:38.000Z</time>
      </trkpt>
      <trkpt lat="41.18436" lon="20.27191">
        <ele>213.07000732422</ele>
        <time>2023-09-30T07:13:37.000Z</time>
      </trkpt>
      <trkpt lat="41.18427" lon="20.27198">
        <ele>212.58999633789</ele>
        <time>2023-09-30T07:13:36.000Z</time>
      </trkpt>
      <trkpt lat="41.18418" lon="20.27208">
        <ele>212.58999633789</ele>
        <time>2023-09-30T07:13:35.000Z</time>
      </trkpt>
      <trkpt lat="41.18416" lon="20.27212">
        <ele>212.58999633789</ele>
        <time>2023-09-30T07:13:34.000Z</time>
      </trkpt>
      <trkpt lat="41.1841" lon="20.2722">
        <ele>212.11000061035</ele>
        <time>2023-09-30T07:13:33.000Z</time>
      </trkpt>
      <trkpt lat="41.18386" lon="20.27258">
        <ele>211.14999389648</ele>
        <time>2023-09-30T07:13:30.000Z</time>
      </trkpt>
      <trkpt lat="41.18316" lon="20.27367">
        <ele>210.66999816895</ele>
        <time>2023-09-30T07:13:20.000Z</time>
      </trkpt>
      <trkpt lat="41.18308" lon="20.27376">
        <ele>210.66999816895</ele>
        <time>2023-09-30T07:13:19.000Z</time>
      </trkpt>
      <trkpt lat="41.18299" lon="20.27382">
        <ele>210.66999816895</ele>
        <time>2023-09-30T07:13:18.000Z</time>
      </trkpt>
      <trkpt lat="41.1829" lon="20.27385">
        <ele>210.66999816895</ele>
        <time>2023-09-30T07:13:17.000Z</time>
      </trkpt>
      <trkpt lat="41.18283" lon="20.27385">
        <ele>210.19000244141</ele>
        <time>2023-09-30T07:13:16.000Z</time>
      </trkpt>
      <trkpt lat="41.18279" lon="20.27384">
        <ele>210.19000244141</ele>
        <time>2023-09-30T07:13:15.000Z</time>
      </trkpt>
      <trkpt lat="41.18202" lon="20.27372">
        <ele>210.66999816895</ele>
        <time>2023-09-30T07:13:09.000Z</time>
      </trkpt>
      <trkpt lat="41.18184" lon="20.27367">
        <ele>210.66999816895</ele>
        <time>2023-09-30T07:13:08.000Z</time>
      </trkpt>
      <trkpt lat="41.18173" lon="20.27363">
        <ele>211.14999389648</ele>
        <time>2023-09-30T07:13:07.000Z</time>
      </trkpt>
      <trkpt lat="41.18157" lon="20.27353">
        <ele>212.11000061035</ele>
        <time>2023-09-30T07:13:06.000Z</time>
      </trkpt>
      <trkpt lat="41.18147" lon="20.27345">
        <ele>212.58999633789</ele>
        <time>2023-09-30T07:13:05.000Z</time>
      </trkpt>
      <trkpt lat="41.18136" lon="20.27333">
        <ele>213.55000305176</ele>
        <time>2023-09-30T07:13:04.000Z</time>
      </trkpt>
      <trkpt lat="41.18127" lon="20.27322">
        <ele>214.50999450684</ele>
        <time>2023-09-30T07:13:03.000Z</time>
      </trkpt>
      <trkpt lat="41.18122" lon="20.27315">
        <ele>215.4700012207</ele>
        <time>2023-09-30T07:13:02.000Z</time>
      </trkpt>
      <trkpt lat="41.18106" lon="20.27288">
        <ele>217.88000488281</ele>
        <time>2023-09-30T07:13:00.000Z</time>
      </trkpt>
      <trkpt lat="41.18082" lon="20.27245">
        <ele>222.19999694824</ele>
        <time>2023-09-30T07:12:56.000Z</time>
      </trkpt>
      <trkpt lat="41.18022" lon="20.27163">
        <ele>229.41000366211</ele>
        <time>2023-09-30T07:12:48.000Z</time>
      </trkpt>
      <trkpt lat="41.17957" lon="20.27074">
        <ele>235.17999267578</ele>
        <time>2023-09-30T07:12:39.000Z</time>
      </trkpt>
      <trkpt lat="41.17926" lon="20.27012">
        <ele>238.05999755859</ele>
        <time>2023-09-30T07:12:34.000Z</time>
      </trkpt>
      <trkpt lat="41.17881" lon="20.26872">
        <ele>246.22999572754</ele>
        <time>2023-09-30T07:12:24.000Z</time>
      </trkpt>
      <trkpt lat="41.17866" lon="20.2672">
        <ele>252.47999572754</ele>
        <time>2023-09-30T07:12:15.000Z</time>
      </trkpt>
      <trkpt lat="41.17865" lon="20.26699">
        <ele>252.96000671387</ele>
        <time>2023-09-30T07:12:14.000Z</time>
      </trkpt>
      <trkpt lat="41.17854" lon="20.26614">
        <ele>254.41000366211</ele>
        <time>2023-09-30T07:12:09.000Z</time>
      </trkpt>
      <trkpt lat="41.17826" lon="20.265">
        <ele>253.44000244141</ele>
        <time>2023-09-30T07:12:01.000Z</time>
      </trkpt>
      <trkpt lat="41.17799" lon="20.26414">
        <ele>250.55999755859</ele>
        <time>2023-09-30T07:11:55.000Z</time>
      </trkpt>
      <trkpt lat="41.17736" lon="20.26283">
        <ele>242.38999938965</ele>
        <time>2023-09-30T07:11:50.000Z</time>
      </trkpt>
      <trkpt lat="41.17662" lon="20.26162">
        <ele>234.69999694824</ele>
        <time>2023-09-30T07:11:45.000Z</time>
      </trkpt>
      <trkpt lat="41.1765" lon="20.26147">
        <ele>233.74000549316</ele>
        <time>2023-09-30T07:11:44.000Z</time>
      </trkpt>
      <trkpt lat="41.17557" lon="20.26041">
        <ele>230.85000610352</ele>
        <time>2023-09-30T07:11:37.000Z</time>
      </trkpt>
      <trkpt lat="41.17472" lon="20.25947">
        <ele>229.41000366211</ele>
        <time>2023-09-30T07:11:29.000Z</time>
      </trkpt>
      <trkpt lat="41.17461" lon="20.25936">
        <ele>229.41000366211</ele>
        <time>2023-09-30T07:11:28.000Z</time>
      </trkpt>
      <trkpt lat="41.17446" lon="20.25925">
        <ele>229.88999938965</ele>
        <time>2023-09-30T07:11:27.000Z</time>
      </trkpt>
      <trkpt lat="41.17435" lon="20.25918">
        <ele>229.88999938965</ele>
        <time>2023-09-30T07:11:26.000Z</time>
      </trkpt>
      <trkpt lat="41.1743" lon="20.25916">
        <ele>230.36999511719</ele>
        <time>2023-09-30T07:11:25.000Z</time>
      </trkpt>
      <trkpt lat="41.17401" lon="20.25902">
        <ele>231.33000183105</ele>
        <time>2023-09-30T07:11:23.000Z</time>
      </trkpt>
      <trkpt lat="41.17392" lon="20.25897">
        <ele>231.33000183105</ele>
        <time>2023-09-30T07:11:22.000Z</time>
      </trkpt>
      <trkpt lat="41.17383" lon="20.25891">
        <ele>231.33000183105</ele>
        <time>2023-09-30T07:11:21.000Z</time>
      </trkpt>
      <trkpt lat="41.17333" lon="20.25851">
        <ele>229.41000366211</ele>
        <time>2023-09-30T07:11:16.000Z</time>
      </trkpt>
      <trkpt lat="41.17287" lon="20.2581">
        <ele>227.49000549316</ele>
        <time>2023-09-30T07:11:12.000Z</time>
      </trkpt>
      <trkpt lat="41.17256" lon="20.25773">
        <ele>225.57000732422</ele>
        <time>2023-09-30T07:11:08.000Z</time>
      </trkpt>
      <trkpt lat="41.17252" lon="20.25766">
        <ele>225.57000732422</ele>
        <time>2023-09-30T07:11:07.000Z</time>
      </trkpt>
      <trkpt lat="41.17229" lon="20.2572">
        <ele>223.16000366211</ele>
        <time>2023-09-30T07:11:03.000Z</time>
      </trkpt>
      <trkpt lat="41.17222" lon="20.25701">
        <ele>222.19999694824</ele>
        <time>2023-09-30T07:11:01.000Z</time>
      </trkpt>
      <trkpt lat="41.17177" lon="20.25562">
        <ele>217.39999389648</ele>
        <time>2023-09-30T07:10:52.000Z</time>
      </trkpt>
      <trkpt lat="41.17172" lon="20.2555">
        <ele>216.91000366211</ele>
        <time>2023-09-30T07:10:51.000Z</time>
      </trkpt>
      <trkpt lat="41.17127" lon="20.25451">
        <ele>214.0299987793</ele>
        <time>2023-09-30T07:10:44.000Z</time>
      </trkpt>
      <trkpt lat="41.17117" lon="20.25435">
        <ele>213.55000305176</ele>
        <time>2023-09-30T07:10:43.000Z</time>
      </trkpt>
      <trkpt lat="41.1711" lon="20.25425">
        <ele>213.55000305176</ele>
        <time>2023-09-30T07:10:42.000Z</time>
      </trkpt>
      <trkpt lat="41.17101" lon="20.25415">
        <ele>213.07000732422</ele>
        <time>2023-09-30T07:10:41.000Z</time>
      </trkpt>
      <trkpt lat="41.1709" lon="20.25405">
        <ele>212.58999633789</ele>
        <time>2023-09-30T07:10:40.000Z</time>
      </trkpt>
      <trkpt lat="41.17085" lon="20.25402">
        <ele>212.11000061035</ele>
        <time>2023-09-30T07:10:39.000Z</time>
      </trkpt>
      <trkpt lat="41.1707" lon="20.25392">
        <ele>211.63000488281</ele>
        <time>2023-09-30T07:10:38.000Z</time>
      </trkpt>
      <trkpt lat="41.17068" lon="20.2539">
        <ele>211.14999389648</ele>
        <time>2023-09-30T07:10:37.000Z</time>
      </trkpt>
      <trkpt lat="41.17021" lon="20.25363">
        <ele>208.74000549316</ele>
        <time>2023-09-30T07:10:33.000Z</time>
      </trkpt>
      <trkpt lat="41.17008" lon="20.25354">
        <ele>208.25999450684</ele>
        <time>2023-09-30T07:10:32.000Z</time>
      </trkpt>
      <trkpt lat="41.16998" lon="20.25346">
        <ele>207.7799987793</ele>
        <time>2023-09-30T07:10:31.000Z</time>
      </trkpt>
      <trkpt lat="41.16988" lon="20.25335">
        <ele>206.82000732422</ele>
        <time>2023-09-30T07:10:30.000Z</time>
      </trkpt>
      <trkpt lat="41.1698" lon="20.25323">
        <ele>206.33999633789</ele>
        <time>2023-09-30T07:10:29.000Z</time>
      </trkpt>
      <trkpt lat="41.16973" lon="20.25309">
        <ele>205.86000061035</ele>
        <time>2023-09-30T07:10:28.000Z</time>
      </trkpt>
      <trkpt lat="41.16968" lon="20.25295">
        <ele>205.86000061035</ele>
        <time>2023-09-30T07:10:27.000Z</time>
      </trkpt>
      <trkpt lat="41.16965" lon="20.25282">
        <ele>205.86000061035</ele>
        <time>2023-09-30T07:10:26.000Z</time>
      </trkpt>
      <trkpt lat="41.16952" lon="20.25205">
        <ele>207.7799987793</ele>
        <time>2023-09-30T07:10:22.000Z</time>
      </trkpt>
      <trkpt lat="41.16949" lon="20.25189">
        <ele>208.74000549316</ele>
        <time>2023-09-30T07:10:21.000Z</time>
      </trkpt>
      <trkpt lat="41.16943" lon="20.2517">
        <ele>209.69999694824</ele>
        <time>2023-09-30T07:10:20.000Z</time>
      </trkpt>
      <trkpt lat="41.16936" lon="20.25155">
        <ele>210.66999816895</ele>
        <time>2023-09-30T07:10:19.000Z</time>
      </trkpt>
      <trkpt lat="41.16927" lon="20.25142">
        <ele>211.63000488281</ele>
        <time>2023-09-30T07:10:18.000Z</time>
      </trkpt>
      <trkpt lat="41.16918" lon="20.25131">
        <ele>212.58999633789</ele>
        <time>2023-09-30T07:10:17.000Z</time>
      </trkpt>
      <trkpt lat="41.16907" lon="20.25122">
        <ele>213.07000732422</ele>
        <time>2023-09-30T07:10:16.000Z</time>
      </trkpt>
      <trkpt lat="41.16895" lon="20.25114">
        <ele>213.55000305176</ele>
        <time>2023-09-30T07:10:15.000Z</time>
      </trkpt>
      <trkpt lat="41.16882" lon="20.25108">
        <ele>214.0299987793</ele>
        <time>2023-09-30T07:10:14.000Z</time>
      </trkpt>
      <trkpt lat="41.1688" lon="20.25107">
        <ele>214.0299987793</ele>
        <time>2023-09-30T07:10:13.000Z</time>
      </trkpt>
      <trkpt lat="41.16833" lon="20.25095">
        <ele>215.94999694824</ele>
        <time>2023-09-30T07:10:10.000Z</time>
      </trkpt>
      <trkpt lat="41.16822" lon="20.25092">
        <ele>216.42999267578</ele>
        <time>2023-09-30T07:10:09.000Z</time>
      </trkpt>
      <trkpt lat="41.16812" lon="20.25085">
        <ele>216.42999267578</ele>
        <time>2023-09-30T07:10:08.000Z</time>
      </trkpt>
      <trkpt lat="41.16803" lon="20.25077">
        <ele>216.42999267578</ele>
        <time>2023-09-30T07:10:07.000Z</time>
      </trkpt>
      <trkpt lat="41.16797" lon="20.25067">
        <ele>216.42999267578</ele>
        <time>2023-09-30T07:10:06.000Z</time>
      </trkpt>
      <trkpt lat="41.16791" lon="20.25054">
        <ele>216.42999267578</ele>
        <time>2023-09-30T07:10:05.000Z</time>
      </trkpt>
      <trkpt lat="41.16787" lon="20.25041">
        <ele>216.42999267578</ele>
        <time>2023-09-30T07:10:04.000Z</time>
      </trkpt>
      <trkpt lat="41.16786" lon="20.25037">
        <ele>216.42999267578</ele>
        <time>2023-09-30T07:10:03.000Z</time>
      </trkpt>
      <trkpt lat="41.16776" lon="20.24967">
        <ele>214.0299987793</ele>
        <time>2023-09-30T07:09:59.000Z</time>
      </trkpt>
      <trkpt lat="41.16773" lon="20.2495">
        <ele>213.07000732422</ele>
        <time>2023-09-30T07:09:58.000Z</time>
      </trkpt>
      <trkpt lat="41.16769" lon="20.24933">
        <ele>212.11000061035</ele>
        <time>2023-09-30T07:09:57.000Z</time>
      </trkpt>
      <trkpt lat="41.16733" lon="20.24803">
        <ele>207.30000305176</ele>
        <time>2023-09-30T07:09:49.000Z</time>
      </trkpt>
      <trkpt lat="41.16729" lon="20.2478">
        <ele>206.33999633789</ele>
        <time>2023-09-30T07:09:48.000Z</time>
      </trkpt>
      <trkpt lat="41.16708" lon="20.24642">
        <ele>201.05000305176</ele>
        <time>2023-09-30T07:09:40.000Z</time>
      </trkpt>
      <trkpt lat="41.16674" lon="20.24494">
        <ele>196.72999572754</ele>
        <time>2023-09-30T07:09:33.000Z</time>
      </trkpt>
      <trkpt lat="41.16669" lon="20.24475">
        <ele>196.25</ele>
        <time>2023-09-30T07:09:32.000Z</time>
      </trkpt>
      <trkpt lat="41.16664" lon="20.24459">
        <ele>195.77000427246</ele>
        <time>2023-09-30T07:09:31.000Z</time>
      </trkpt>
      <trkpt lat="41.16658" lon="20.24445">
        <ele>195.77000427246</ele>
        <time>2023-09-30T07:09:30.000Z</time>
      </trkpt>
      <trkpt lat="41.16651" lon="20.24433">
        <ele>195.2799987793</ele>
        <time>2023-09-30T07:09:29.000Z</time>
      </trkpt>
      <trkpt lat="41.16643" lon="20.24423">
        <ele>195.2799987793</ele>
        <time>2023-09-30T07:09:28.000Z</time>
      </trkpt>
      <trkpt lat="41.16633" lon="20.24414">
        <ele>195.2799987793</ele>
        <time>2023-09-30T07:09:27.000Z</time>
      </trkpt>
      <trkpt lat="41.16622" lon="20.24407">
        <ele>194.80000305176</ele>
        <time>2023-09-30T07:09:26.000Z</time>
      </trkpt>
      <trkpt lat="41.16609" lon="20.24402">
        <ele>194.32000732422</ele>
        <time>2023-09-30T07:09:25.000Z</time>
      </trkpt>
      <trkpt lat="41.16604" lon="20.244">
        <ele>194.32000732422</ele>
        <time>2023-09-30T07:09:24.000Z</time>
      </trkpt>
      <trkpt lat="41.16584" lon="20.24395">
        <ele>193.83999633789</ele>
        <time>2023-09-30T07:09:23.000Z</time>
      </trkpt>
      <trkpt lat="41.16571" lon="20.2439">
        <ele>193.83999633789</ele>
        <time>2023-09-30T07:09:22.000Z</time>
      </trkpt>
      <trkpt lat="41.16558" lon="20.24382">
        <ele>193.36000061035</ele>
        <time>2023-09-30T07:09:21.000Z</time>
      </trkpt>
      <trkpt lat="41.16548" lon="20.24375">
        <ele>193.36000061035</ele>
        <time>2023-09-30T07:09:20.000Z</time>
      </trkpt>
      <trkpt lat="41.16533" lon="20.24362">
        <ele>193.36000061035</ele>
        <time>2023-09-30T07:09:19.000Z</time>
      </trkpt>
      <trkpt lat="41.16522" lon="20.24351">
        <ele>193.36000061035</ele>
        <time>2023-09-30T07:09:18.000Z</time>
      </trkpt>
      <trkpt lat="41.16514" lon="20.2434">
        <ele>193.36000061035</ele>
        <time>2023-09-30T07:09:17.000Z</time>
      </trkpt>
      <trkpt lat="41.16503" lon="20.24324">
        <ele>193.36000061035</ele>
        <time>2023-09-30T07:09:16.000Z</time>
      </trkpt>
      <trkpt lat="41.16495" lon="20.24307">
        <ele>193.36000061035</ele>
        <time>2023-09-30T07:09:15.000Z</time>
      </trkpt>
      <trkpt lat="41.16489" lon="20.2429">
        <ele>193.36000061035</ele>
        <time>2023-09-30T07:09:14.000Z</time>
      </trkpt>
      <trkpt lat="41.16487" lon="20.24285">
        <ele>193.36000061035</ele>
        <time>2023-09-30T07:09:13.000Z</time>
      </trkpt>
      <trkpt lat="41.16479" lon="20.24257">
        <ele>193.83999633789</ele>
        <time>2023-09-30T07:09:12.000Z</time>
      </trkpt>
      <trkpt lat="41.16475" lon="20.24238">
        <ele>194.32000732422</ele>
        <time>2023-09-30T07:09:11.000Z</time>
      </trkpt>
      <trkpt lat="41.16473" lon="20.24222">
        <ele>194.32000732422</ele>
        <time>2023-09-30T07:09:10.000Z</time>
      </trkpt>
      <trkpt lat="41.16472" lon="20.24205">
        <ele>193.83999633789</ele>
        <time>2023-09-30T07:09:09.000Z</time>
      </trkpt>
      <trkpt lat="41.16473" lon="20.24186">
        <ele>193.83999633789</ele>
        <time>2023-09-30T07:09:08.000Z</time>
      </trkpt>
      <trkpt lat="41.16478" lon="20.24134">
        <ele>191.91999816895</ele>
        <time>2023-09-30T07:09:04.000Z</time>
      </trkpt>
      <trkpt lat="41.16486" lon="20.23986">
        <ele>189.52000427246</ele>
        <time>2023-09-30T07:08:57.000Z</time>
      </trkpt>
      <trkpt lat="41.16486" lon="20.23977">
        <ele>189.52000427246</ele>
        <time>2023-09-30T07:08:56.000Z</time>
      </trkpt>
      <trkpt lat="41.1649" lon="20.23955">
        <ele>189.03999328613</ele>
        <time>2023-09-30T07:08:55.000Z</time>
      </trkpt>
      <trkpt lat="41.16494" lon="20.23935">
        <ele>188.08000183105</ele>
        <time>2023-09-30T07:08:54.000Z</time>
      </trkpt>
      <trkpt lat="41.16498" lon="20.23923">
        <ele>188.08000183105</ele>
        <time>2023-09-30T07:08:53.000Z</time>
      </trkpt>
      <trkpt lat="41.16503" lon="20.23906">
        <ele>187.11000061035</ele>
        <time>2023-09-30T07:08:52.000Z</time>
      </trkpt>
      <trkpt lat="41.16505" lon="20.23899">
        <ele>186.63000488281</ele>
        <time>2023-09-30T07:08:51.000Z</time>
      </trkpt>
      <trkpt lat="41.16529" lon="20.2384">
        <ele>184.22999572754</ele>
        <time>2023-09-30T07:08:48.000Z</time>
      </trkpt>
      <trkpt lat="41.16537" lon="20.23824">
        <ele>183.75</ele>
        <time>2023-09-30T07:08:47.000Z</time>
      </trkpt>
      <trkpt lat="41.16571" lon="20.2377">
        <ele>182.78999328613</ele>
        <time>2023-09-30T07:08:43.000Z</time>
      </trkpt>
      <trkpt lat="41.16578" lon="20.23754">
        <ele>183.27000427246</ele>
        <time>2023-09-30T07:08:42.000Z</time>
      </trkpt>
      <trkpt lat="41.16582" lon="20.23744">
        <ele>183.27000427246</ele>
        <time>2023-09-30T07:08:41.000Z</time>
      </trkpt>
      <trkpt lat="41.16589" lon="20.23723">
        <ele>184.22999572754</ele>
        <time>2023-09-30T07:08:40.000Z</time>
      </trkpt>
      <trkpt lat="41.16615" lon="20.23581">
        <ele>191.91999816895</ele>
        <time>2023-09-30T07:08:32.000Z</time>
      </trkpt>
      <trkpt lat="41.16636" lon="20.23449">
        <ele>191.44000244141</ele>
        <time>2023-09-30T07:08:24.000Z</time>
      </trkpt>
      <trkpt lat="41.16639" lon="20.23405">
        <ele>189.52000427246</ele>
        <time>2023-09-30T07:08:22.000Z</time>
      </trkpt>
      <trkpt lat="41.1664" lon="20.23386">
        <ele>188.55999755859</ele>
        <time>2023-09-30T07:08:21.000Z</time>
      </trkpt>
      <trkpt lat="41.16641" lon="20.23372">
        <ele>187.58999633789</ele>
        <time>2023-09-30T07:08:20.000Z</time>
      </trkpt>
      <trkpt lat="41.16642" lon="20.23325">
        <ele>186.14999389648</ele>
        <time>2023-09-30T07:08:18.000Z</time>
      </trkpt>
      <trkpt lat="41.16642" lon="20.23301">
        <ele>186.14999389648</ele>
        <time>2023-09-30T07:08:17.000Z</time>
      </trkpt>
      <trkpt lat="41.16641" lon="20.23282">
        <ele>185.66999816895</ele>
        <time>2023-09-30T07:08:16.000Z</time>
      </trkpt>
      <trkpt lat="41.16638" lon="20.23262">
        <ele>185.66999816895</ele>
        <time>2023-09-30T07:08:15.000Z</time>
      </trkpt>
      <trkpt lat="41.16635" lon="20.23245">
        <ele>185.66999816895</ele>
        <time>2023-09-30T07:08:14.000Z</time>
      </trkpt>
      <trkpt lat="41.1663" lon="20.23226">
        <ele>185.66999816895</ele>
        <time>2023-09-30T07:08:13.000Z</time>
      </trkpt>
      <trkpt lat="41.16624" lon="20.23206">
        <ele>185.66999816895</ele>
        <time>2023-09-30T07:08:12.000Z</time>
      </trkpt>
      <trkpt lat="41.16618" lon="20.23191">
        <ele>185.66999816895</ele>
        <time>2023-09-30T07:08:11.000Z</time>
      </trkpt>
      <trkpt lat="41.1661" lon="20.23175">
        <ele>185.66999816895</ele>
        <time>2023-09-30T07:08:10.000Z</time>
      </trkpt>
      <trkpt lat="41.16566" lon="20.23106">
        <ele>187.58999633789</ele>
        <time>2023-09-30T07:08:05.000Z</time>
      </trkpt>
      <trkpt lat="41.16483" lon="20.22988">
        <ele>189.52000427246</ele>
        <time>2023-09-30T07:07:57.000Z</time>
      </trkpt>
      <trkpt lat="41.16468" lon="20.22965">
        <ele>189.52000427246</ele>
        <time>2023-09-30T07:07:56.000Z</time>
      </trkpt>
      <trkpt lat="41.16463" lon="20.22956">
        <ele>190</ele>
        <time>2023-09-30T07:07:55.000Z</time>
      </trkpt>
      <trkpt lat="41.16452" lon="20.22933">
        <ele>190</ele>
        <time>2023-09-30T07:07:54.000Z</time>
      </trkpt>
      <trkpt lat="41.16446" lon="20.2292">
        <ele>190</ele>
        <time>2023-09-30T07:07:53.000Z</time>
      </trkpt>
      <trkpt lat="41.16441" lon="20.22905">
        <ele>190</ele>
        <time>2023-09-30T07:07:52.000Z</time>
      </trkpt>
      <trkpt lat="41.16426" lon="20.22849">
        <ele>190</ele>
        <time>2023-09-30T07:07:49.000Z</time>
      </trkpt>
      <trkpt lat="41.16422" lon="20.22827">
        <ele>190</ele>
        <time>2023-09-30T07:07:48.000Z</time>
      </trkpt>
      <trkpt lat="41.1642" lon="20.22817">
        <ele>190</ele>
        <time>2023-09-30T07:07:47.000Z</time>
      </trkpt>
      <trkpt lat="41.16419" lon="20.22804">
        <ele>190</ele>
        <time>2023-09-30T07:07:46.000Z</time>
      </trkpt>
      <trkpt lat="41.16417" lon="20.22723">
        <ele>190</ele>
        <time>2023-09-30T07:07:42.000Z</time>
      </trkpt>
      <trkpt lat="41.16419" lon="20.22699">
        <ele>190</ele>
        <time>2023-09-30T07:07:41.000Z</time>
      </trkpt>
      <trkpt lat="41.16426" lon="20.22659">
        <ele>189.03999328613</ele>
        <time>2023-09-30T07:07:39.000Z</time>
      </trkpt>
      <trkpt lat="41.16429" lon="20.22646">
        <ele>188.55999755859</ele>
        <time>2023-09-30T07:07:38.000Z</time>
      </trkpt>
      <trkpt lat="41.16459" lon="20.2255">
        <ele>185.66999816895</ele>
        <time>2023-09-30T07:07:34.000Z</time>
      </trkpt>
      <trkpt lat="41.16612" lon="20.22058">
        <ele>188.08000183105</ele>
        <time>2024-09-25T16:59:29.000Z</time>
      </trkpt>
      <trkpt lat="41.16615" lon="20.22045">
        <ele>188.08000183105</ele>
        <time>2024-09-25T16:59:30.000Z</time>
      </trkpt>
      <trkpt lat="41.16617" lon="20.22031">
        <ele>188.55999755859</ele>
        <time>2024-09-25T16:59:31.000Z</time>
      </trkpt>
      <trkpt lat="41.16639" lon="20.21897">
        <ele>190</ele>
        <time>2024-09-25T16:59:39.000Z</time>
      </trkpt>
      <trkpt lat="41.16654" lon="20.21693">
        <ele>188.08000183105</ele>
        <time>2024-09-25T16:59:49.000Z</time>
      </trkpt>
      <trkpt lat="41.16668" lon="20.21363">
        <ele>183.75</ele>
        <time>2024-09-25T17:00:03.000Z</time>
      </trkpt>
      <trkpt lat="41.1665" lon="20.2118">
        <ele>181.83000183105</ele>
        <time>2024-09-25T17:00:11.000Z</time>
      </trkpt>
      <trkpt lat="41.16591" lon="20.21014">
        <ele>181.83000183105</ele>
        <time>2024-09-25T17:00:18.000Z</time>
      </trkpt>
      <trkpt lat="41.16478" lon="20.20848">
        <ele>180.86999511719</ele>
        <time>2024-09-25T17:00:27.000Z</time>
      </trkpt>
      <trkpt lat="41.16349" lon="20.2068">
        <ele>180.38000488281</ele>
        <time>2024-09-25T17:00:37.000Z</time>
      </trkpt>
      <trkpt lat="41.16156" lon="20.20429">
        <ele>178.94000244141</ele>
        <time>2024-09-25T17:00:52.000Z</time>
      </trkpt>
      <trkpt lat="41.16002" lon="20.20204">
        <ele>176.05999755859</ele>
        <time>2024-09-25T17:01:04.000Z</time>
      </trkpt>
      <trkpt lat="41.15901" lon="20.19994">
        <ele>173.16999816895</ele>
        <time>2024-09-25T17:01:15.000Z</time>
      </trkpt>
      <trkpt lat="41.15857" lon="20.19882">
        <ele>172.21000671387</ele>
        <time>2024-09-25T17:01:20.000Z</time>
      </trkpt>
      <trkpt lat="41.15827" lon="20.197">
        <ele>170.28999328613</ele>
        <time>2024-09-25T17:01:28.000Z</time>
      </trkpt>
      <trkpt lat="41.1584" lon="20.19534">
        <ele>170.28999328613</ele>
        <time>2024-09-25T17:01:35.000Z</time>
      </trkpt>
      <trkpt lat="41.15898" lon="20.19354">
        <ele>170.77000427246</ele>
        <time>2024-09-25T17:01:44.000Z</time>
      </trkpt>
      <trkpt lat="41.15964" lon="20.19127">
        <ele>172.69000244141</ele>
        <time>2024-09-25T17:01:55.000Z</time>
      </trkpt>
      <trkpt lat="41.15983" lon="20.18937">
        <ele>168.85000610352</ele>
        <time>2024-09-25T17:02:05.000Z</time>
      </trkpt>
      <trkpt lat="41.1597" lon="20.18734">
        <ele>163.08000183105</ele>
        <time>2024-09-25T17:02:14.000Z</time>
      </trkpt>
      <trkpt lat="41.15912" lon="20.18491">
        <ele>161.16000366211</ele>
        <time>2024-09-25T17:02:25.000Z</time>
      </trkpt>
      <trkpt lat="41.15901" lon="20.18425">
        <ele>161.16000366211</ele>
        <time>2023-09-30T07:03:18.000Z</time>
      </trkpt>
      <trkpt lat="41.15898" lon="20.18409">
        <ele>160.67999267578</ele>
        <time>2023-09-30T07:03:17.000Z</time>
      </trkpt>
      <trkpt lat="41.15895" lon="20.18383">
        <ele>160.19999694824</ele>
        <time>2023-09-30T07:03:16.000Z</time>
      </trkpt>
      <trkpt lat="41.15893" lon="20.18359">
        <ele>159.7200012207</ele>
        <time>2023-09-30T07:03:15.000Z</time>
      </trkpt>
      <trkpt lat="41.15893" lon="20.18343">
        <ele>159.7200012207</ele>
        <time>2023-09-30T07:03:14.000Z</time>
      </trkpt>
      <trkpt lat="41.15893" lon="20.18324">
        <ele>159.7200012207</ele>
        <time>2023-09-30T07:03:13.000Z</time>
      </trkpt>
      <trkpt lat="41.15894" lon="20.18308">
        <ele>159.24000549316</ele>
        <time>2023-09-30T07:03:12.000Z</time>
      </trkpt>
      <trkpt lat="41.15899" lon="20.18264">
        <ele>159.24000549316</ele>
        <time>2023-09-30T07:03:10.000Z</time>
      </trkpt>
      <trkpt lat="41.15903" lon="20.18243">
        <ele>158.75</ele>
        <time>2023-09-30T07:03:09.000Z</time>
      </trkpt>
      <trkpt lat="41.15909" lon="20.18221">
        <ele>158.75</ele>
        <time>2023-09-30T07:03:08.000Z</time>
      </trkpt>
      <trkpt lat="41.15916" lon="20.18195">
        <ele>158.27000427246</ele>
        <time>2023-09-30T07:03:07.000Z</time>
      </trkpt>
      <trkpt lat="41.1593" lon="20.18157">
        <ele>158.27000427246</ele>
        <time>2023-09-30T07:03:05.000Z</time>
      </trkpt>
      <trkpt lat="41.15985" lon="20.17979">
        <ele>157.30999755859</ele>
        <time>2023-09-30T07:02:58.000Z</time>
      </trkpt>
      <trkpt lat="41.16028" lon="20.17757">
        <ele>156.83000183105</ele>
        <time>2023-09-30T07:02:50.000Z</time>
      </trkpt>
      <trkpt lat="41.16032" lon="20.17563">
        <ele>158.27000427246</ele>
        <time>2023-09-30T07:02:43.000Z</time>
      </trkpt>
      <trkpt lat="41.15975" lon="20.17336">
        <ele>157.30999755859</ele>
        <time>2023-09-30T07:02:34.000Z</time>
      </trkpt>
      <trkpt lat="41.15885" lon="20.1713">
        <ele>157.30999755859</ele>
        <time>2023-09-30T07:02:26.000Z</time>
      </trkpt>
      <trkpt lat="41.15785" lon="20.16972">
        <ele>159.24000549316</ele>
        <time>2023-09-30T07:02:19.000Z</time>
      </trkpt>
      <trkpt lat="41.15539" lon="20.16726">
        <ele>158.27000427246</ele>
        <time>2023-09-30T07:02:06.000Z</time>
      </trkpt>
      <trkpt lat="41.15402" lon="20.16587">
        <ele>157.78999328613</ele>
        <time>2023-09-30T07:01:59.000Z</time>
      </trkpt>
      <trkpt lat="41.15283" lon="20.16474">
        <ele>157.78999328613</ele>
        <time>2023-09-30T07:01:52.000Z</time>
      </trkpt>
      <trkpt lat="41.15182" lon="20.16378">
        <ele>157.30999755859</ele>
        <time>2023-09-30T07:01:45.000Z</time>
      </trkpt>
      <trkpt lat="41.15062" lon="20.16269">
        <ele>157.78999328613</ele>
        <time>2023-09-30T07:01:38.000Z</time>
      </trkpt>
      <trkpt lat="41.14975" lon="20.16189">
        <ele>157.78999328613</ele>
        <time>2023-09-30T07:01:30.000Z</time>
      </trkpt>
      <trkpt lat="41.14889" lon="20.16111">
        <ele>155.38999938965</ele>
        <time>2023-09-30T07:01:21.000Z</time>
      </trkpt>
      <trkpt lat="41.14807" lon="20.16043">
        <ele>152.99000549316</ele>
        <time>2023-09-30T07:01:13.000Z</time>
      </trkpt>
      <trkpt lat="41.14699" lon="20.15948">
        <ele>149.61999511719</ele>
        <time>2023-09-30T07:01:05.000Z</time>
      </trkpt>
      <trkpt lat="41.14687" lon="20.15932">
        <ele>149.61999511719</ele>
        <time>2023-09-30T07:01:04.000Z</time>
      </trkpt>
      <trkpt lat="41.14683" lon="20.15926">
        <ele>149.13999938965</ele>
        <time>2023-09-30T07:01:03.000Z</time>
      </trkpt>
      <trkpt lat="41.14629" lon="20.15825">
        <ele>148.17999267578</ele>
        <time>2023-09-30T07:00:58.000Z</time>
      </trkpt>
      <trkpt lat="41.14612" lon="20.15801">
        <ele>147.69999694824</ele>
        <time>2023-09-30T07:00:57.000Z</time>
      </trkpt>
      <trkpt lat="41.14609" lon="20.15797">
        <ele>147.69999694824</ele>
        <time>2023-09-30T07:00:56.000Z</time>
      </trkpt>
      <trkpt lat="41.14508" lon="20.15684">
        <ele>147.2200012207</ele>
        <time>2023-09-30T07:00:50.000Z</time>
      </trkpt>
      <trkpt lat="41.14498" lon="20.15671">
        <ele>147.2200012207</ele>
        <time>2023-09-30T07:00:49.000Z</time>
      </trkpt>
      <trkpt lat="41.14463" lon="20.1562">
        <ele>146.74000549316</ele>
        <time>2023-09-30T07:00:46.000Z</time>
      </trkpt>
      <trkpt lat="41.14397" lon="20.155">
        <ele>146.74000549316</ele>
        <time>2023-09-30T07:00:41.000Z</time>
      </trkpt>
      <trkpt lat="41.14395" lon="20.15496">
        <ele>146.74000549316</ele>
        <time>2023-09-30T07:00:40.000Z</time>
      </trkpt>
      <trkpt lat="41.1433" lon="20.1541">
        <ele>148.17999267578</ele>
        <time>2023-09-30T07:00:34.000Z</time>
      </trkpt>
      <trkpt lat="41.14267" lon="20.15301">
        <ele>149.61999511719</ele>
        <time>2023-09-30T07:00:28.000Z</time>
      </trkpt>
      <trkpt lat="41.14121" lon="20.15076">
        <ele>152.99000549316</ele>
        <time>2023-09-30T07:00:18.000Z</time>
      </trkpt>
      <trkpt lat="41.14007" lon="20.14912">
        <ele>154.42999267578</ele>
        <time>2023-09-30T07:00:10.000Z</time>
      </trkpt>
      <trkpt lat="41.13888" lon="20.14764">
        <ele>155.38999938965</ele>
        <time>2023-09-30T07:00:01.000Z</time>
      </trkpt>
      <trkpt lat="41.13789" lon="20.14611">
        <ele>152.99000549316</ele>
        <time>2023-09-30T06:59:54.000Z</time>
      </trkpt>
      <trkpt lat="41.13647" lon="20.14419">
        <ele>144.82000732422</ele>
        <time>2023-09-30T06:59:45.000Z</time>
      </trkpt>
      <trkpt lat="41.13498" lon="20.14234">
        <ele>137.61000061035</ele>
        <time>2023-09-30T06:59:38.000Z</time>
      </trkpt>
      <trkpt lat="41.1341" lon="20.14104">
        <ele>135.67999267578</ele>
        <time>2023-09-30T06:59:32.000Z</time>
      </trkpt>
      <trkpt lat="41.13321" lon="20.13957">
        <ele>134.24000549316</ele>
        <time>2023-09-30T06:59:23.000Z</time>
      </trkpt>
      <trkpt lat="41.13224" lon="20.13798">
        <ele>133.75999450684</ele>
        <time>2023-09-30T06:59:13.000Z</time>
      </trkpt>
      <trkpt lat="41.13162" lon="20.13684">
        <ele>133.75999450684</ele>
        <time>2023-09-30T06:59:06.000Z</time>
      </trkpt>
      <trkpt lat="41.13094" lon="20.13529">
        <ele>133.75999450684</ele>
        <time>2023-09-30T06:58:57.000Z</time>
      </trkpt>
      <trkpt lat="41.13045" lon="20.1343">
        <ele>133.75999450684</ele>
        <time>2023-09-30T06:58:51.000Z</time>
      </trkpt>
      <trkpt lat="41.13037" lon="20.13417">
        <ele>133.75999450684</ele>
        <time>2023-09-30T06:58:50.000Z</time>
      </trkpt>
      <trkpt lat="41.12967" lon="20.13321">
        <ele>133.2799987793</ele>
        <time>2023-09-30T06:58:43.000Z</time>
      </trkpt>
      <trkpt lat="41.12957" lon="20.13303">
        <ele>133.2799987793</ele>
        <time>2023-09-30T06:58:41.000Z</time>
      </trkpt>
      <trkpt lat="41.1293" lon="20.13245">
        <ele>133.2799987793</ele>
        <time>2023-09-30T06:58:38.000Z</time>
      </trkpt>
      <trkpt lat="41.12856" lon="20.13116">
        <ele>132.32000732422</ele>
        <time>2023-09-30T06:58:31.000Z</time>
      </trkpt>
      <trkpt lat="41.12854" lon="20.13112">
        <ele>132.32000732422</ele>
        <time>2023-09-30T06:58:30.000Z</time>
      </trkpt>
      <trkpt lat="41.12843" lon="20.13082">
        <ele>131.83999633789</ele>
        <time>2023-09-30T06:58:29.000Z</time>
      </trkpt>
      <trkpt lat="41.12771" lon="20.12865">
        <ele>131.36000061035</ele>
        <time>2023-09-30T06:58:19.000Z</time>
      </trkpt>
      <trkpt lat="41.12739" lon="20.12769">
        <ele>131.36000061035</ele>
        <time>2023-09-30T06:58:14.000Z</time>
      </trkpt>
      <trkpt lat="41.12676" lon="20.12577">
        <ele>131.83999633789</ele>
        <time>2023-09-30T06:58:04.000Z</time>
      </trkpt>
      <trkpt lat="41.12608" lon="20.12433">
        <ele>133.75999450684</ele>
        <time>2023-09-30T06:57:55.000Z</time>
      </trkpt>
      <trkpt lat="41.12553" lon="20.12308">
        <ele>138.57000732422</ele>
        <time>2023-09-30T06:57:47.000Z</time>
      </trkpt>
      <trkpt lat="41.125" lon="20.12167">
        <ele>140.9700012207</ele>
        <time>2023-09-30T06:57:39.000Z</time>
      </trkpt>
      <trkpt lat="41.12442" lon="20.12034">
        <ele>136.63999938965</ele>
        <time>2023-09-30T06:57:31.000Z</time>
      </trkpt>
      <trkpt lat="41.12435" lon="20.12007">
        <ele>136.16000366211</ele>
        <time>2023-09-30T06:57:30.000Z</time>
      </trkpt>
      <trkpt lat="41.12432" lon="20.11992">
        <ele>135.67999267578</ele>
        <time>2023-09-30T06:57:29.000Z</time>
      </trkpt>
      <trkpt lat="41.12429" lon="20.11977">
        <ele>135.19999694824</ele>
        <time>2023-09-30T06:57:28.000Z</time>
      </trkpt>
      <trkpt lat="41.12424" lon="20.11919">
        <ele>133.75999450684</ele>
        <time>2023-09-30T06:57:26.000Z</time>
      </trkpt>
      <trkpt lat="41.12408" lon="20.1173">
        <ele>129.91999816895</ele>
        <time>2023-09-30T06:57:17.000Z</time>
      </trkpt>
      <trkpt lat="41.12407" lon="20.11702">
        <ele>129.91999816895</ele>
        <time>2023-09-30T06:57:16.000Z</time>
      </trkpt>
      <trkpt lat="41.12406" lon="20.11679">
        <ele>129.91999816895</ele>
        <time>2023-09-30T06:57:14.000Z</time>
      </trkpt>
      <trkpt lat="41.12403" lon="20.11643">
        <ele>129.91999816895</ele>
        <time>2023-09-30T06:57:13.000Z</time>
      </trkpt>
      <trkpt lat="41.12401" lon="20.11623">
        <ele>129.42999267578</ele>
        <time>2023-09-30T06:57:12.000Z</time>
      </trkpt>
      <trkpt lat="41.12398" lon="20.11609">
        <ele>129.42999267578</ele>
        <time>2023-09-30T06:57:11.000Z</time>
      </trkpt>
      <trkpt lat="41.12387" lon="20.11545">
        <ele>129.42999267578</ele>
        <time>2023-09-30T06:57:08.000Z</time>
      </trkpt>
      <trkpt lat="41.1235" lon="20.11315">
        <ele>130.39999389648</ele>
        <time>2023-09-30T06:56:58.000Z</time>
      </trkpt>
      <trkpt lat="41.12347" lon="20.11296">
        <ele>130.39999389648</ele>
        <time>2023-09-30T06:56:57.000Z</time>
      </trkpt>
      <trkpt lat="41.12333" lon="20.11239">
        <ele>130.39999389648</ele>
        <time>2023-09-30T06:56:55.000Z</time>
      </trkpt>
      <trkpt lat="41.12286" lon="20.11108">
        <ele>130.88000488281</ele>
        <time>2023-09-30T06:56:48.000Z</time>
      </trkpt>
      <trkpt lat="41.12279" lon="20.11088">
        <ele>130.88000488281</ele>
        <time>2023-09-30T06:56:47.000Z</time>
      </trkpt>
      <trkpt lat="41.12272" lon="20.1107">
        <ele>130.88000488281</ele>
        <time>2023-09-30T06:56:46.000Z</time>
      </trkpt>
      <trkpt lat="41.1226" lon="20.11034">
        <ele>131.36000061035</ele>
        <time>2023-09-30T06:56:44.000Z</time>
      </trkpt>
      <trkpt lat="41.12246" lon="20.10984">
        <ele>131.36000061035</ele>
        <time>2023-09-30T06:56:41.000Z</time>
      </trkpt>
      <trkpt lat="41.12231" lon="20.10901">
        <ele>131.83999633789</ele>
        <time>2023-09-30T06:56:37.000Z</time>
      </trkpt>
      <trkpt lat="41.1221" lon="20.10762">
        <ele>132.32000732422</ele>
        <time>2023-09-30T06:56:29.000Z</time>
      </trkpt>
      <trkpt lat="41.12188" lon="20.1056">
        <ele>133.2799987793</ele>
        <time>2023-09-30T06:56:20.000Z</time>
      </trkpt>
      <trkpt lat="41.1217" lon="20.10392">
        <ele>136.16000366211</ele>
        <time>2023-09-30T06:56:12.000Z</time>
      </trkpt>
      <trkpt lat="41.12167" lon="20.10375">
        <ele>136.16000366211</ele>
        <time>2023-09-30T06:56:11.000Z</time>
      </trkpt>
      <trkpt lat="41.12162" lon="20.10359">
        <ele>136.63999938965</ele>
        <time>2023-09-30T06:56:10.000Z</time>
      </trkpt>
      <trkpt lat="41.12158" lon="20.10349">
        <ele>136.63999938965</ele>
        <time>2023-09-30T06:56:09.000Z</time>
      </trkpt>
      <trkpt lat="41.12149" lon="20.1033">
        <ele>136.63999938965</ele>
        <time>2023-09-30T06:56:08.000Z</time>
      </trkpt>
      <trkpt lat="41.12142" lon="20.10319">
        <ele>136.63999938965</ele>
        <time>2023-09-30T06:56:07.000Z</time>
      </trkpt>
      <trkpt lat="41.12134" lon="20.10311">
        <ele>136.63999938965</ele>
        <time>2023-09-30T06:56:06.000Z</time>
      </trkpt>
      <trkpt lat="41.12131" lon="20.10308">
        <ele>136.63999938965</ele>
        <time>2023-09-30T06:56:05.000Z</time>
      </trkpt>
      <trkpt lat="41.12092" lon="20.10279">
        <ele>136.63999938965</ele>
        <time>2023-09-30T06:56:02.000Z</time>
      </trkpt>
      <trkpt lat="41.12027" lon="20.10237">
        <ele>136.63999938965</ele>
        <time>2023-09-30T06:55:57.000Z</time>
      </trkpt>
      <trkpt lat="41.11987" lon="20.10213">
        <ele>136.16000366211</ele>
        <time>2023-09-30T06:55:54.000Z</time>
      </trkpt>
      <trkpt lat="41.11982" lon="20.10209">
        <ele>136.16000366211</ele>
        <time>2023-09-30T06:55:53.000Z</time>
      </trkpt>
      <trkpt lat="41.11964" lon="20.10198">
        <ele>135.67999267578</ele>
        <time>2023-09-30T06:55:52.000Z</time>
      </trkpt>
      <trkpt lat="41.11949" lon="20.10186">
        <ele>135.67999267578</ele>
        <time>2023-09-30T06:55:51.000Z</time>
      </trkpt>
      <trkpt lat="41.11924" lon="20.10162">
        <ele>134.7200012207</ele>
        <time>2023-09-30T06:55:49.000Z</time>
      </trkpt>
      <trkpt lat="41.1192" lon="20.10158">
        <ele>134.7200012207</ele>
        <time>2023-09-30T06:55:48.000Z</time>
      </trkpt>
      <trkpt lat="41.11903" lon="20.10138">
        <ele>134.24000549316</ele>
        <time>2023-09-30T06:55:47.000Z</time>
      </trkpt>
      <trkpt lat="41.11897" lon="20.10129">
        <ele>134.24000549316</ele>
        <time>2023-09-30T06:55:46.000Z</time>
      </trkpt>
      <trkpt lat="41.11884" lon="20.10111">
        <ele>133.75999450684</ele>
        <time>2023-09-30T06:55:45.000Z</time>
      </trkpt>
      <trkpt lat="41.11879" lon="20.10102">
        <ele>133.75999450684</ele>
        <time>2023-09-30T06:55:44.000Z</time>
      </trkpt>
      <trkpt lat="41.1185" lon="20.10052">
        <ele>133.75999450684</ele>
        <time>2023-09-30T06:55:40.000Z</time>
      </trkpt>
      <trkpt lat="41.11833" lon="20.10023">
        <ele>134.24000549316</ele>
        <time>2023-09-30T06:55:36.000Z</time>
      </trkpt>
      <trkpt lat="41.11759" lon="20.09902">
        <ele>133.2799987793</ele>
        <time>2023-09-30T06:55:27.000Z</time>
      </trkpt>
      <trkpt lat="41.11718" lon="20.09834">
        <ele>132.32000732422</ele>
        <time>2023-09-30T06:55:22.000Z</time>
      </trkpt>
      <trkpt lat="41.11657" lon="20.09733">
        <ele>129.91999816895</ele>
        <time>2023-09-30T06:55:15.000Z</time>
      </trkpt>
      <trkpt lat="41.11652" lon="20.09725">
        <ele>129.91999816895</ele>
        <time>2023-09-30T06:55:14.000Z</time>
      </trkpt>
      <trkpt lat="41.11644" lon="20.09713">
        <ele>129.42999267578</ele>
        <time>2023-09-30T06:55:13.000Z</time>
      </trkpt>
      <trkpt lat="41.11624" lon="20.09688">
        <ele>128.94999694824</ele>
        <time>2023-09-30T06:55:11.000Z</time>
      </trkpt>
      <trkpt lat="41.11546" lon="20.09608">
        <ele>127.98999786377</ele>
        <time>2023-09-30T06:55:02.000Z</time>
      </trkpt>
      <trkpt lat="41.1154" lon="20.09603">
        <ele>127.51000213623</ele>
        <time>2023-09-30T06:55:01.000Z</time>
      </trkpt>
      <trkpt lat="41.1153" lon="20.09596">
        <ele>127.51000213623</ele>
        <time>2023-09-30T06:55:00.000Z</time>
      </trkpt>
      <trkpt lat="41.11526" lon="20.09592">
        <ele>127.0299987793</ele>
        <time>2023-09-30T06:54:59.000Z</time>
      </trkpt>
      <trkpt lat="41.11523" lon="20.09586">
        <ele>127.0299987793</ele>
        <time>2023-09-30T06:54:58.000Z</time>
      </trkpt>
      <trkpt lat="41.11522" lon="20.0958">
        <ele>127.0299987793</ele>
        <time>2023-09-30T06:54:57.000Z</time>
      </trkpt>
      <trkpt lat="41.11522" lon="20.09559">
        <ele>127.0299987793</ele>
        <time>2023-09-30T06:54:53.000Z</time>
      </trkpt>
      <trkpt lat="41.1152" lon="20.09549">
        <ele>127.0299987793</ele>
        <time>2023-09-30T06:54:52.000Z</time>
      </trkpt>
      <trkpt lat="41.11519" lon="20.09543">
        <ele>127.0299987793</ele>
        <time>2023-09-30T06:54:51.000Z</time>
      </trkpt>
      <trkpt lat="41.11503" lon="20.09489">
        <ele>127.0299987793</ele>
        <time>2023-09-30T06:54:47.000Z</time>
      </trkpt>
      <trkpt lat="41.11472" lon="20.09383">
        <ele>127.0299987793</ele>
        <time>2023-09-30T06:54:39.000Z</time>
      </trkpt>
      <trkpt lat="41.11463" lon="20.09351">
        <ele>126.55000305176</ele>
        <time>2023-09-30T06:54:37.000Z</time>
      </trkpt>
      <trkpt lat="41.11451" lon="20.0931">
        <ele>126.55000305176</ele>
        <time>2023-09-30T06:54:34.000Z</time>
      </trkpt>
      <trkpt lat="41.11442" lon="20.09279">
        <ele>127.0299987793</ele>
        <time>2023-09-30T06:54:31.000Z</time>
      </trkpt>
      <trkpt lat="41.11427" lon="20.09227">
        <ele>127.51000213623</ele>
        <time>2023-09-30T06:54:28.000Z</time>
      </trkpt>
      <trkpt lat="41.11423" lon="20.09213">
        <ele>127.51000213623</ele>
        <time>2023-09-30T06:54:27.000Z</time>
      </trkpt>
      <trkpt lat="41.11417" lon="20.09192">
        <ele>127.51000213623</ele>
        <time>2023-09-30T06:54:26.000Z</time>
      </trkpt>
      <trkpt lat="41.11415" lon="20.09186">
        <ele>127.51000213623</ele>
        <time>2023-09-30T06:54:25.000Z</time>
      </trkpt>
      <trkpt lat="41.11391" lon="20.09099">
        <ele>127.51000213623</ele>
        <time>2023-09-30T06:54:19.000Z</time>
      </trkpt>
      <trkpt lat="41.11388" lon="20.09092">
        <ele>127.51000213623</ele>
        <time>2023-09-30T06:54:18.000Z</time>
      </trkpt>
      <trkpt lat="41.11382" lon="20.09069">
        <ele>127.0299987793</ele>
        <time>2023-09-30T06:54:16.000Z</time>
      </trkpt>
      <trkpt lat="41.11378" lon="20.09057">
        <ele>126.55000305176</ele>
        <time>2023-09-30T06:54:15.000Z</time>
      </trkpt>
      <trkpt lat="41.11376" lon="20.09053">
        <ele>126.55000305176</ele>
        <time>2023-09-30T06:54:14.000Z</time>
      </trkpt>
      <trkpt lat="41.11372" lon="20.09038">
        <ele>126.55000305176</ele>
        <time>2023-09-30T06:54:13.000Z</time>
      </trkpt>
      <trkpt lat="41.11367" lon="20.09025">
        <ele>126.55000305176</ele>
        <time>2023-09-30T06:54:12.000Z</time>
      </trkpt>
      <trkpt lat="41.11364" lon="20.09017">
        <ele>126.55000305176</ele>
        <time>2023-09-30T06:54:11.000Z</time>
      </trkpt>
      <trkpt lat="41.11363" lon="20.09011">
        <ele>126.55000305176</ele>
        <time>2023-09-30T06:54:10.000Z</time>
      </trkpt>
      <trkpt lat="41.11363" lon="20.09009">
        <ele>126.55000305176</ele>
        <time>2023-09-30T06:54:09.000Z</time>
      </trkpt>
      <trkpt lat="41.11356" lon="20.08977">
        <ele>127.0299987793</ele>
        <time>2023-09-30T06:54:02.000Z</time>
      </trkpt>
      <trkpt lat="41.11351" lon="20.08959">
        <ele>127.51000213623</ele>
        <time>2023-09-30T06:53:56.000Z</time>
      </trkpt>
      <trkpt lat="41.11347" lon="20.08946">
        <ele>127.98999786377</ele>
        <time>2023-09-30T06:53:55.000Z</time>
      </trkpt>
      <trkpt lat="41.11345" lon="20.08941">
        <ele>127.51000213623</ele>
        <time>2023-09-30T06:53:54.000Z</time>
      </trkpt>
      <trkpt lat="41.11342" lon="20.08928">
        <ele>127.98999786377</ele>
        <time>2023-09-30T06:53:53.000Z</time>
      </trkpt>
      <trkpt lat="41.11341" lon="20.08923">
        <ele>127.98999786377</ele>
        <time>2023-09-30T06:53:52.000Z</time>
      </trkpt>
      <trkpt lat="41.11339" lon="20.08914">
        <ele>127.98999786377</ele>
        <time>2023-09-30T06:53:51.000Z</time>
      </trkpt>
      <trkpt lat="41.11337" lon="20.08908">
        <ele>128.4700012207</ele>
        <time>2023-09-30T06:53:50.000Z</time>
      </trkpt>
      <trkpt lat="41.11335" lon="20.08903">
        <ele>128.4700012207</ele>
        <time>2023-09-30T06:53:49.000Z</time>
      </trkpt>
      <trkpt lat="41.11333" lon="20.08897">
        <ele>128.4700012207</ele>
        <time>2023-09-30T06:53:48.000Z</time>
      </trkpt>
      <trkpt lat="41.11333" lon="20.08895">
        <ele>128.4700012207</ele>
        <time>2023-09-30T06:53:47.000Z</time>
      </trkpt>
      <trkpt lat="41.1133" lon="20.08883">
        <ele>128.94999694824</ele>
        <time>2023-09-30T06:53:45.000Z</time>
      </trkpt>
      <trkpt lat="41.11328" lon="20.08876">
        <ele>128.94999694824</ele>
        <time>2023-09-30T06:53:44.000Z</time>
      </trkpt>
      <trkpt lat="41.11327" lon="20.08872">
        <ele>128.94999694824</ele>
        <time>2023-09-30T06:53:43.000Z</time>
      </trkpt>
      <trkpt lat="41.11322" lon="20.08854">
        <ele>128.94999694824</ele>
        <time>2023-09-30T06:53:42.000Z</time>
      </trkpt>
      <trkpt lat="41.11299" lon="20.08772">
        <ele>128.94999694824</ele>
        <time>2023-09-30T06:53:35.000Z</time>
      </trkpt>
      <trkpt lat="41.11297" lon="20.08764">
        <ele>128.4700012207</ele>
        <time>2023-09-30T06:53:34.000Z</time>
      </trkpt>
      <trkpt lat="41.11293" lon="20.08753">
        <ele>128.4700012207</ele>
        <time>2023-09-30T06:53:33.000Z</time>
      </trkpt>
      <trkpt lat="41.11289" lon="20.08742">
        <ele>128.4700012207</ele>
        <time>2023-09-30T06:53:31.000Z</time>
      </trkpt>
      <trkpt lat="41.11282" lon="20.08716">
        <ele>128.94999694824</ele>
        <time>2023-09-30T06:53:29.000Z</time>
      </trkpt>
      <trkpt lat="41.11276" lon="20.08696">
        <ele>128.94999694824</ele>
        <time>2023-09-30T06:53:27.000Z</time>
      </trkpt>
      <trkpt lat="41.11253" lon="20.08611">
        <ele>128.94999694824</ele>
        <time>2023-09-30T06:53:20.000Z</time>
      </trkpt>
      <trkpt lat="41.11252" lon="20.08608">
        <ele>129.42999267578</ele>
        <time>2023-09-30T06:53:19.000Z</time>
      </trkpt>
      <trkpt lat="41.11246" lon="20.08585">
        <ele>129.42999267578</ele>
        <time>2023-09-30T06:53:17.000Z</time>
      </trkpt>
      <trkpt lat="41.11244" lon="20.08581">
        <ele>129.42999267578</ele>
        <time>2023-09-30T06:53:16.000Z</time>
      </trkpt>
      <trkpt lat="41.11242" lon="20.08575">
        <ele>129.91999816895</ele>
        <time>2023-09-30T06:53:15.000Z</time>
      </trkpt>
      <trkpt lat="41.11239" lon="20.08564">
        <ele>129.91999816895</ele>
        <time>2023-09-30T06:53:14.000Z</time>
      </trkpt>
      <trkpt lat="41.11236" lon="20.08553">
        <ele>129.91999816895</ele>
        <time>2023-09-30T06:53:13.000Z</time>
      </trkpt>
      <trkpt lat="41.11216" lon="20.08483">
        <ele>129.91999816895</ele>
        <time>2023-09-30T06:53:05.000Z</time>
      </trkpt>
      <trkpt lat="41.11211" lon="20.08463">
        <ele>129.91999816895</ele>
        <time>2023-09-30T06:53:03.000Z</time>
      </trkpt>
      <trkpt lat="41.11208" lon="20.08454">
        <ele>130.39999389648</ele>
        <time>2023-09-30T06:53:02.000Z</time>
      </trkpt>
      <trkpt lat="41.11204" lon="20.08441">
        <ele>130.39999389648</ele>
        <time>2023-09-30T06:53:00.000Z</time>
      </trkpt>
      <trkpt lat="41.11202" lon="20.08435">
        <ele>129.91999816895</ele>
        <time>2023-09-30T06:52:59.000Z</time>
      </trkpt>
      <trkpt lat="41.112" lon="20.08428">
        <ele>129.42999267578</ele>
        <time>2023-09-30T06:52:58.000Z</time>
      </trkpt>
      <trkpt lat="41.11198" lon="20.0842">
        <ele>128.94999694824</ele>
        <time>2023-09-30T06:52:56.000Z</time>
      </trkpt>
      <trkpt lat="41.11194" lon="20.08407">
        <ele>128.94999694824</ele>
        <time>2023-09-30T06:52:55.000Z</time>
      </trkpt>
      <trkpt lat="41.11193" lon="20.08403">
        <ele>128.94999694824</ele>
        <time>2023-09-30T06:52:54.000Z</time>
      </trkpt>
      <trkpt lat="41.1119" lon="20.08393">
        <ele>128.94999694824</ele>
        <time>2023-09-30T06:52:53.000Z</time>
      </trkpt>
      <trkpt lat="41.11186" lon="20.08379">
        <ele>128.4700012207</ele>
        <time>2023-09-30T06:52:51.000Z</time>
      </trkpt>
      <trkpt lat="41.11178" lon="20.0835">
        <ele>127.98999786377</ele>
        <time>2023-09-30T06:52:48.000Z</time>
      </trkpt>
      <trkpt lat="41.11175" lon="20.08343">
        <ele>127.98999786377</ele>
        <time>2023-09-30T06:52:47.000Z</time>
      </trkpt>
      <trkpt lat="41.11173" lon="20.08335">
        <ele>127.98999786377</ele>
        <time>2023-09-30T06:52:46.000Z</time>
      </trkpt>
      <trkpt lat="41.11172" lon="20.08332">
        <ele>127.98999786377</ele>
        <time>2023-09-30T06:52:45.000Z</time>
      </trkpt>
      <trkpt lat="41.1117" lon="20.08327">
        <ele>127.98999786377</ele>
        <time>2023-09-30T06:52:44.000Z</time>
      </trkpt>
      <trkpt lat="41.11167" lon="20.08315">
        <ele>127.51000213623</ele>
        <time>2023-09-30T06:52:43.000Z</time>
      </trkpt>
      <trkpt lat="41.11166" lon="20.08311">
        <ele>127.51000213623</ele>
        <time>2023-09-30T06:52:42.000Z</time>
      </trkpt>
      <trkpt lat="41.11164" lon="20.08304">
        <ele>127.51000213623</ele>
        <time>2023-09-30T06:52:41.000Z</time>
      </trkpt>
      <trkpt lat="41.11162" lon="20.08297">
        <ele>127.51000213623</ele>
        <time>2023-09-30T06:52:40.000Z</time>
      </trkpt>
      <trkpt lat="41.11161" lon="20.08293">
        <ele>127.51000213623</ele>
        <time>2023-09-30T06:52:39.000Z</time>
      </trkpt>
      <trkpt lat="41.1116" lon="20.08289">
        <ele>127.51000213623</ele>
        <time>2023-09-30T06:52:38.000Z</time>
      </trkpt>
      <trkpt lat="41.11158" lon="20.08284">
        <ele>127.51000213623</ele>
        <time>2023-09-30T06:52:37.000Z</time>
      </trkpt>
      <trkpt lat="41.11156" lon="20.08276">
        <ele>127.51000213623</ele>
        <time>2023-09-30T06:52:36.000Z</time>
      </trkpt>
      <trkpt lat="41.11155" lon="20.08273">
        <ele>127.51000213623</ele>
        <time>2023-09-30T06:52:35.000Z</time>
      </trkpt>
      <trkpt lat="41.1115" lon="20.08261">
        <ele>127.98999786377</ele>
        <time>2023-09-30T06:52:32.000Z</time>
      </trkpt>
      <trkpt lat="41.11146" lon="20.08254">
        <ele>127.98999786377</ele>
        <time>2023-09-30T06:52:27.000Z</time>
      </trkpt>
      <trkpt lat="41.1114" lon="20.08246">
        <ele>127.98999786377</ele>
        <time>2023-09-30T06:52:18.000Z</time>
      </trkpt>
      <trkpt lat="41.11129" lon="20.08223">
        <ele>128.94999694824</ele>
        <time>2023-09-30T06:52:11.000Z</time>
        <extensions>
          <visugpx:TrkExtension xmlns:visugpx="https://www.visugpx.com/editgpx/">
            <visugpx:node>1</visugpx:node>
            </visugpx:TrkExtension>
        </extensions>
      </trkpt>
    </trkseg>
  </trk>
</gpx>